
Distance (Route):
Temperature : 21.4°C
Humidity : 49.9%
Pressure : 1009.76hPa| Receiver | Frames | First received | Last received |
|---|---|---|---|
| DL1XH-west | 736 | 2026-09-01 10:53:00 | 2026-09-01 13:07:02 |
| DF8AY | 657 | 2026-09-01 10:54:35 | 2026-09-01 13:09:53 |
| AA1-15 | 626 | 2026-09-01 10:56:46 | 2026-09-01 13:07:54 |
| BIOWL1-15 | 565 | 2026-09-01 10:54:57 | 2026-09-01 13:05:57 |
| DB0DAN | 417 | 2026-09-01 10:50:40 | 2026-09-01 13:12:10 |
| DL1XH1-15 | 388 | 2026-09-01 10:53:12 | 2026-09-01 12:27:10 |
| DO2SHX-10 | 373 | 2026-09-01 11:01:54 | 2026-09-01 12:27:31 |
| DM0DOS-11 | 367 | 2026-09-01 10:52:04 | 2026-09-01 12:27:29 |
| DL1XH-15 | 321 | 2026-09-01 10:53:15 | 2026-09-01 12:25:10 |
| GOEST3-10 | 120 | 2026-09-01 11:01:01 | 2026-09-01 12:27:11 |
| DL1NUX | 114 | 2026-09-01 11:54:27 | 2026-09-01 12:27:02 |
| DL4BBY-15 | 106 | 2026-09-01 10:57:16 | 2026-09-01 13:00:00 |
| DD8BA-10 | 105 | 2026-09-01 10:55:32 | 2026-09-01 12:26:53 |
| DF7ER-10 | 85 | 2026-09-01 11:17:58 | 2026-09-01 13:08:47 |
| DL4XJ-10 | 84 | 2026-09-01 11:04:32 | 2026-09-01 12:54:58 |
| TFSTFS | 83 | 2026-09-01 11:10:00 | 2026-09-01 12:57:05 |
| DL3AQ-11 | 81 | 2026-09-01 11:00:12 | 2026-09-01 12:25:04 |
| HSKMA3-T | 79 | 2026-09-01 11:32:03 | 2026-09-01 12:42:11 |
| SMARD9-10 | 53 | 2026-09-01 10:56:38 | 2026-09-01 13:05:05 |
| DG6HD-15 | 53 | 2026-09-01 12:02:07 | 2026-09-01 12:46:57 |
| DF8AY-15 | 38 | 2026-09-01 10:56:28 | 2026-09-01 12:24:43 |
| MECKS9 | 37 | 2026-09-01 11:38:05 | 2026-09-01 12:49:56 |
| DL1LOL-11 | 35 | 2026-09-01 10:56:36 | 2026-09-01 12:54:44 |
| AM1SDL-15 | 35 | 2026-09-01 10:59:33 | 2026-09-01 12:27:32 |
| SMARD9-15 | 34 | 2026-09-01 10:58:30 | 2026-09-01 12:23:53 |
| BIOWL9-15 | 32 | 2026-09-01 10:54:54 | 2026-09-01 12:20:49 |
| AP2371 | 32 | 2026-09-01 11:04:11 | 2026-09-01 12:56:29 |
| SONDE2-11 | 32 | 2026-09-01 11:08:40 | 2026-09-01 12:25:46 |
| S3001 | 27 | 2026-09-01 10:59:14 | 2026-09-01 12:27:12 |
| DL2RXE-15 | 27 | 2026-09-01 11:09:24 | 2026-09-01 12:58:20 |
| SONCRA | 26 | 2026-09-01 11:08:34 | 2026-09-01 12:25:11 |
| BUE01 | 26 | 2026-09-01 11:09:26 | 2026-09-01 12:27:47 |
| EDDB2-11 | 26 | 2026-09-01 11:21:03 | 2026-09-01 12:24:41 |
| DB0NH | 24 | 2026-09-01 11:11:14 | 2026-09-01 12:23:24 |
| EDDB2-12 | 22 | 2026-09-01 11:12:50 | 2026-09-01 12:25:47 |
| DB0UT-7 | 20 | 2026-09-01 11:13:21 | 2026-09-01 12:26:21 |
| HTAHTA | 16 | 2026-09-01 11:12:16 | 2026-09-01 12:15:56 |
| 13BRC | 16 | 2026-09-01 12:28:16 | 2026-09-01 12:36:21 |
| DL1ZP-14 | 15 | 2026-09-01 11:19:56 | 2026-09-01 12:26:12 |
| DL1CLM-18 | 15 | 2026-09-01 11:29:02 | 2026-09-01 12:36:30 |
| DK7RCA | 15 | 2026-09-01 11:52:41 | 2026-09-01 12:40:04 |
| DO9LL-15 | 14 | 2026-09-01 11:03:19 | 2026-09-01 12:24:29 |
| DO3MHA-11 | 14 | 2026-09-01 12:03:02 | 2026-09-01 12:24:28 |
| DJ2DS-15 | 12 | 2026-09-01 10:54:55 | 2026-09-01 12:13:40 |
| SP3WXH-11 | 11 | 2026-09-01 12:06:17 | 2026-09-01 12:25:57 |
| SP3BTT-10 | 7 | 2026-09-01 11:24:31 | 2026-09-01 12:23:21 |
| SO1NDE-10 | 7 | 2026-09-01 12:11:25 | 2026-09-01 12:21:25 |
| NBG1-10 | 6 | 2026-09-01 11:22:49 | 2026-09-01 12:25:02 |
| DJ8HS-15 | 5 | 2026-09-01 12:14:13 | 2026-09-01 12:21:33 |
| BIOWL7-15 | 3 | 2026-09-01 11:13:47 | 2026-09-01 12:42:09 |
| DK1YY | 3 | 2026-09-01 11:42:12 | 2026-09-01 12:20:31 |
| DO2LYB-13 | 1 | 2026-09-01 12:20:09 | 2026-09-01 12:20:09 |
| Receiver | Date | Latitude | Longitude | Direction | Speed | Altitude | Climb | Temperature | Humidity | Pressure | Voltage | Killtimer | Uptime | BKT | XDATA |
|---|---|---|---|---|---|---|---|---|---|---|---|---|---|---|---|
| DB0DAN | 2026-09-01 13:12:10 | 52.90112 | 10.82332 | 0° | 0km/h | 32041m | 0m/s | 21.4°C | 49.9% | 1009.76hPa | 2.7V | 00:00:00 | 00:00:00 | 00:00:00 | |
| DB0DAN | 2026-09-01 13:11:55 | 52.90112 | 10.82332 | 0° | 0km/h | 32041m | 0m/s | 21.2°C | 51.9% | 1001.56hPa | 2.7V | 00:00:00 | 00:00:00 | 00:00:00 | |
| DB0DAN | 2026-09-01 13:11:40 | 52.90112 | 10.82332 | 0° | 0km/h | 32041m | 0m/s | 20.6°C | 53.8% | 993.36hPa | 2.7V | 00:00:00 | 00:00:00 | 00:00:00 | |
| DB0DAN | 2026-09-01 13:11:25 | 52.90112 | 10.82332 | 0° | 0km/h | 32041m | 0m/s | 19.3°C | 57.2% | 985.48hPa | 2.7V | 00:00:00 | 00:00:00 | 00:00:00 | |
| DB0DAN | 2026-09-01 13:11:10 | 52.90112 | 10.82332 | 0° | 0km/h | 32041m | 0m/s | 18.6°C | 58.7% | 977.3hPa | 2.7V | 00:00:00 | 00:00:00 | 00:00:00 | |
| DB0DAN | 2026-09-01 13:10:55 | 52.90112 | 10.82332 | 0° | 0km/h | 32041m | 0m/s | 18°C | 60.9% | 969.13hPa | 2.7V | 00:00:00 | 00:00:00 | 00:00:00 | |
| DB0DAN | 2026-09-01 13:10:40 | 52.90112 | 10.82332 | 0° | 0km/h | 32041m | 0m/s | 16.6°C | 64.5% | 954.14hPa | 2.7V | 00:00:00 | 00:00:00 | 00:00:00 | |
| DB0DAN | 2026-09-01 13:10:25 | 52.90112 | 10.82332 | 0° | 0km/h | 32041m | 0m/s | 15.4°C | 69.3% | 940.7hPa | 2.7V | 00:00:00 | 00:00:00 | 00:00:00 | |
| DB0DAN | 2026-09-01 13:10:10 | 52.90112 | 10.82332 | 0° | 0km/h | 32041m | 0m/s | 14.1°C | 73.6% | 927.01hPa | 2.7V | 00:00:00 | 00:00:00 | 00:00:00 | |
| DB0DAN | 2026-09-01 13:09:55 | 52.90112 | 10.82332 | 0° | 0km/h | 32041m | 0m/s | 13°C | 77.3% | 913.88hPa | 2.7V | 00:00:00 | 00:00:00 | 00:00:00 | |
| DF8AY | 2026-09-01 13:09:53 | 52.90112 | 10.82332 | 0° | 0km/h | 32041m | 0m/s | 12.9°C | 85.4% | 912.5hPa | 2.7V | 02:41:58 | 02:40:43 | 00:00:00 | |
| DF8AY | 2026-09-01 13:09:42 | 52.90112 | 10.82332 | 0° | 0km/h | 32041m | 0m/s | 12.3°C | 87.9% | 905.5hPa | 2.7V | 02:42:49 | 02:40:32 | 00:00:00 | |
| DB0DAN | 2026-09-01 13:09:40 | 52.90112 | 10.82332 | 0° | 0km/h | 32041m | 0m/s | 12.2°C | 80.5% | 904.4hPa | 2.6V | 00:00:00 | 00:00:00 | 00:00:00 | |
| DF8AY | 2026-09-01 13:09:32 | 52.90112 | 10.82332 | 0° | 0km/h | 32041m | 0m/s | 11.7°C | 87.4% | 899.4hPa | 2.7V | 02:42:49 | 02:40:22 | 00:00:00 | |
| DB0DAN | 2026-09-01 13:09:25 | 52.90112 | 10.82332 | 0° | 0km/h | 32041m | 0m/s | 11.4°C | 81.8% | 895.97hPa | 2.7V | 00:00:00 | 00:00:00 | 00:00:00 | |
| DF8AY | 2026-09-01 13:09:21 | 52.90112 | 10.82332 | 0° | 0km/h | 32041m | 0m/s | 11°C | 90.8% | 891.6hPa | 2.7V | 02:42:49 | 02:40:06 | 00:00:00 | |
| DF8AY | 2026-09-01 13:09:11 | 52.90112 | 10.82332 | 0° | 0km/h | 32041m | 0m/s | 10.8°C | 93% | 888.8hPa | 2.6V | 02:42:49 | 02:40:01 | 00:00:00 | |
| DB0DAN | 2026-09-01 13:09:10 | 52.90112 | 10.82332 | 0° | 0km/h | 32041m | 0m/s | 10.7°C | 87.1% | 888.3hPa | 2.7V | 00:00:00 | 00:00:00 | 00:00:00 | |
| DF8AY | 2026-09-01 13:09:00 | 52.90112 | 10.82332 | 0° | 0km/h | 32041m | 0m/s | 10.1°C | 96.4% | 882hPa | 2.7V | 02:42:49 | 02:39:50 | 00:00:00 | |
| DB0DAN | 2026-09-01 13:08:55 | 52.90112 | 10.82332 | 0° | 0km/h | 32041m | 0m/s | 9.8°C | 88.6% | 878.66hPa | 2.7V | 00:00:00 | 00:00:00 | 00:00:00 | |
| DF8AY | 2026-09-01 13:08:50 | 52.90112 | 10.82332 | 0° | 0km/h | 32041m | 0m/s | 9.7°C | 95.7% | 875.4hPa | 2.7V | 02:43:40 | 02:39:40 | 00:00:00 | |
| DF7ER-10 | 2026-09-01 13:08:47 | 52.89964 | 10.82188 | 53° | 15km/h | 31913m | 5.5m/s | 9.5°C | 90.5% | 873.9hPa | 2.7V | 00:00:00 | 00:00:00 | 00:00:00 | |
| DB0DAN | 2026-09-01 13:08:40 | 52.90112 | 10.82332 | 0° | 0km/h | 32041m | 0m/s | 9.4°C | 79.2% | 867.37hPa | 2.7V | 00:00:00 | 00:00:00 | 00:00:00 | |
| DF8AY | 2026-09-01 13:08:39 | 52.90112 | 10.82332 | 0° | 0km/h | 32041m | 0m/s | 8.5°C | 100% | 862.7hPa | 2.7V | 02:43:40 | 02:39:25 | 00:00:00 | |
| DF7ER-10 | 2026-09-01 13:08:30 | 52.89964 | 10.82188 | 53° | 15km/h | 31913m | 5.5m/s | 8.4°C | 89.2% | 859.2hPa | 2.7V | 00:00:00 | 00:00:00 | 00:00:00 | |
| DB0DAN | 2026-09-01 13:08:25 | 52.90112 | 10.82332 | 0° | 0km/h | 32041m | 0m/s | 7.7°C | 90.4% | 853.83hPa | 2.7V | 00:00:00 | 00:00:00 | 00:00:00 | |
| DF8AY | 2026-09-01 13:08:25 | 52.90112 | 10.82332 | 0° | 0km/h | 32041m | 0m/s | 7.7°C | 99% | 853.8hPa | 2.7V | 02:43:40 | 02:39:15 | 00:00:00 | |
| DF8AY | 2026-09-01 13:08:15 | 52.90112 | 10.82332 | 0° | 0km/h | 32041m | 0m/s | 6.9°C | 93.2% | 844.3hPa | 2.7V | 02:43:40 | 02:39:04 | 00:00:00 | |
| DB0DAN | 2026-09-01 13:08:10 | 52.90112 | 10.82332 | 0° | 0km/h | 32041m | 0m/s | 6.5°C | 91% | 840.94hPa | 2.7V | 00:00:00 | 00:00:00 | 00:00:00 | |
| DF8AY | 2026-09-01 13:08:03 | 52.90112 | 10.82332 | 0° | 0km/h | 32041m | 0m/s | 6.1°C | 92.8% | 834.9hPa | 2.7V | 02:44:31 | 02:38:53 | 00:00:00 | |
| DB0DAN | 2026-09-01 13:07:55 | 52.90112 | 10.82332 | 0° | 0km/h | 32041m | 0m/s | 6.3°C | 100% | 828.87hPa | 2.7V | 00:00:00 | 00:00:00 | 00:00:00 | |
| AA1-15 | 2026-09-01 13:07:54 | 52.90112 | 10.82332 | 0° | 0km/h | 32041m | 0m/s | 6.2°C | 100% | 828hPa | 2.7V | 02:44:31 | 02:38:44 | 00:00:00 | |
| DF8AY | 2026-09-01 13:07:53 | 52.90112 | 10.82332 | 0° | 0km/h | 32041m | 0m/s | 6.1°C | 100% | 827.2hPa | 2.7V | 02:44:31 | 02:38:43 | 00:00:00 | |
| DF8AY | 2026-09-01 13:07:43 | 52.90112 | 10.82332 | 0° | 0km/h | 32041m | 0m/s | 6°C | 100% | 819.7hPa | 2.7V | 02:44:31 | 02:38:33 | 00:00:00 | |
| DB0DAN | 2026-09-01 13:07:40 | 52.90112 | 10.82332 | 0° | 0km/h | 32041m | 0m/s | 5.7°C | 85.7% | 817.56hPa | 2.7V | 00:00:00 | 00:00:00 | 00:00:00 | |
| DF8AY | 2026-09-01 13:07:32 | 52.90112 | 10.82332 | 0° | 0km/h | 32041m | 0m/s | 5.2°C | 93% | 811.2hPa | 2.7V | 02:44:31 | 02:38:22 | 00:00:00 | |
| AA1-15 | 2026-09-01 13:07:32 | 52.90112 | 10.82332 | 0° | 0km/h | 32041m | 0m/s | 5.2°C | 92.1% | 810.5hPa | 2.7V | 02:44:31 | 02:38:21 | 00:00:00 | |
| DB0DAN | 2026-09-01 13:07:25 | 52.90112 | 10.82332 | 0° | 0km/h | 32041m | 0m/s | 4.8°C | 86.6% | 806.32hPa | 2.7V | 00:00:00 | 00:00:00 | 00:00:00 | |
| DF8AY | 2026-09-01 13:07:23 | 52.90112 | 10.82332 | 0° | 0km/h | 32041m | 0m/s | 4.7°C | 92.1% | 804.1hPa | 2.7V | 02:44:31 | 02:38:12 | 00:00:00 | |
| AA1-15 | 2026-09-01 13:07:20 | 52.90112 | 10.82332 | 0° | 0km/h | 32041m | 0m/s | 4.6°C | 92.6% | 802.8hPa | 2.6V | 02:44:31 | 02:38:10 | 00:00:00 | |
| DF8AY | 2026-09-01 13:07:12 | 52.90112 | 10.82332 | 0° | 0km/h | 32041m | 0m/s | 4.1°C | 93.3% | 797.3hPa | 2.7V | 02:45:22 | 02:38:02 | 00:00:00 | |
| DB0DAN | 2026-09-01 13:07:10 | 52.90112 | 10.82332 | 0° | 0km/h | 32041m | 0m/s | 4°C | 88% | 795.82hPa | 2.7V | 00:00:00 | 00:00:00 | 00:00:00 | |
| AA1-15 | 2026-09-01 13:07:09 | 52.90112 | 10.82332 | 0° | 0km/h | 32041m | 0m/s | 3.9°C | 93.3% | 795hPa | 2.6V | 02:45:22 | 02:37:59 | 00:00:00 | |
| DL1XH-west | 2026-09-01 13:07:02 | 52.90112 | 10.82332 | 0° | 0km/h | 32041m | 0m/s | 3.8°C | 91.1% | 790.5hPa | 2.7V | 02:45:22 | 02:37:52 | 00:00:00 | |
| AA1-15 | 2026-09-01 13:06:59 | 52.90112 | 10.82332 | 0° | 0km/h | 32041m | 0m/s | 3.8°C | 87.9% | 788.4hPa | 2.7V | 02:45:22 | 02:37:49 | 00:00:00 | |
| DB0DAN | 2026-09-01 13:06:55 | 52.90112 | 10.82332 | 0° | 0km/h | 32041m | 0m/s | 3.6°C | 81.7% | 785.45hPa | 2.7V | 00:00:00 | 00:00:00 | 00:00:00 | |
| DL1XH-west | 2026-09-01 13:06:51 | 52.90112 | 10.82332 | 0° | 0km/h | 32041m | 0m/s | 3.5°C | 85% | 782.7hPa | 2.7V | 02:45:22 | 02:37:41 | 00:00:00 | |
| AA1-15 | 2026-09-01 13:06:46 | 52.90112 | 10.82332 | 0° | 0km/h | 32041m | 0m/s | 3.4°C | 82.3% | 779.2hPa | 2.7V | 02:45:22 | 02:37:36 | 00:00:00 | |
| DF7ER-10 | 2026-09-01 13:06:44 | 52.89964 | 10.82188 | 53° | 15km/h | 31913m | 5.5m/s | 3.3°C | 75.9% | 778.6hPa | 2.7V | 02:45:00 | 00:00:00 | 00:00:00 | |
| DB0DAN | 2026-09-01 13:06:40 | 52.90112 | 10.82332 | 0° | 0km/h | 32041m | 0m/s | 3°C | 75.7% | 775.19hPa | 2.7V | 00:00:00 | 00:00:00 | 00:00:00 | |
| DF8AY | 2026-09-01 13:06:40 | 52.90112 | 10.82332 | 0° | 0km/h | 32041m | 0m/s | 3°C | 81.9% | 775.2hPa | 2.7V | 02:45:22 | 02:37:30 | 00:00:00 | |
| AA1-15 | 2026-09-01 13:06:36 | 52.90112 | 10.82332 | 0° | 0km/h | 32041m | 0m/s | 2.8°C | 81.3% | 771.9hPa | 2.6V | 02:45:22 | 02:37:25 | 00:00:00 | |
| DL1XH-west | 2026-09-01 13:06:34 | 52.90112 | 10.82332 | 0° | 0km/h | 32041m | 0m/s | 2.8°C | 80.9% | 771hPa | 2.7V | 02:45:22 | 02:37:24 | 00:00:00 | |
| DF8AY | 2026-09-01 13:06:31 | 52.90112 | 10.82332 | 0° | 0km/h | 32041m | 0m/s | 2.6°C | 82.1% | 768.6hPa | 2.7V | 02:45:22 | 02:37:20 | 00:00:00 | |
| DB0DAN | 2026-09-01 13:06:25 | 52.90112 | 10.82332 | 0° | 0km/h | 32041m | 0m/s | 2.6°C | 72% | 765.55hPa | 2.7V | 00:00:00 | 00:00:00 | 00:00:00 | |
| AA1-15 | 2026-09-01 13:06:25 | 52.90112 | 10.82332 | 0° | 0km/h | 32041m | 0m/s | 2.5°C | 79% | 765hPa | 2.7V | 02:46:13 | 02:37:14 | 00:00:00 | |
| DL1XH-west | 2026-09-01 13:06:23 | 52.90112 | 10.82332 | 0° | 0km/h | 32041m | 0m/s | 2.5°C | 78.8% | 764.3hPa | 2.7V | 02:46:13 | 02:37:13 | 00:00:00 | |
| DF8AY | 2026-09-01 13:06:19 | 52.90112 | 10.82332 | 0° | 0km/h | 32041m | 0m/s | 2.3°C | 78.6% | 761.8hPa | 2.6V | 02:46:13 | 02:37:09 | 00:00:00 | |
| DL1XH-west | 2026-09-01 13:06:13 | 52.90112 | 10.82332 | 0° | 0km/h | 32041m | 0m/s | 2.1°C | 76.5% | 758hPa | 2.7V | 02:46:13 | 02:37:03 | 00:00:00 | |
| DB0DAN | 2026-09-01 13:06:10 | 52.90112 | 10.82332 | 0° | 0km/h | 32041m | 0m/s | 1.9°C | 69.4% | 756.15hPa | 2.7V | 00:00:00 | 00:00:00 | 00:00:00 | |
| DF8AY | 2026-09-01 13:06:09 | 52.90112 | 10.82332 | 0° | 0km/h | 32041m | 0m/s | 1.9°C | 76.8% | 755.6hPa | 2.7V | 02:46:13 | 02:36:59 | 00:00:00 | |
| AA1-15 | 2026-09-01 13:06:02 | 52.90112 | 10.82332 | 0° | 0km/h | 32041m | 0m/s | 1.5°C | 76.7% | 751.2hPa | 2.7V | 02:46:13 | 02:36:52 | 00:00:00 | |
| DF8AY | 2026-09-01 13:05:59 | 52.90112 | 10.82332 | 0° | 0km/h | 32041m | 0m/s | 1.3°C | 76.3% | 749.3hPa | 2.7V | 02:46:13 | 02:36:49 | 00:00:00 | |
| BIOWL1-15 | 2026-09-01 13:05:57 | 52.90112 | 10.82332 | 0° | 0km/h | 32041m | 0m/s | 1.2°C | 74.1% | 746.9hPa | 2.7V | 02:46:13 | 02:36:45 | 00:00:00 | |
| DB0DAN | 2026-09-01 13:05:55 | 52.90112 | 10.82332 | 0° | 0km/h | 32041m | 0m/s | 1.2°C | 67.4% | 746.93hPa | 2.7V | 00:00:00 | 00:00:00 | 00:00:00 | |
| DL1XH-west | 2026-09-01 13:05:52 | 52.90112 | 10.82332 | 0° | 0km/h | 32041m | 0m/s | 1°C | 74.3% | 745.1hPa | 2.7V | 02:46:13 | 02:36:42 | 00:00:00 | |
| DF8AY | 2026-09-01 13:05:49 | 52.90112 | 10.82332 | 0° | 0km/h | 32041m | 0m/s | 0.9°C | 74% | 743.6hPa | 2.7V | 02:46:13 | 02:36:39 | 00:00:00 | |
| BIOWL1-15 | 2026-09-01 13:05:44 | 52.90112 | 10.82332 | 0° | 0km/h | 32041m | 0m/s | 0.4°C | 73% | 737.5hPa | 2.6V | 02:46:13 | 02:36:29 | 00:00:00 | |
| DL1XH-west | 2026-09-01 13:05:41 | 52.90112 | 10.82332 | 0° | 0km/h | 32041m | 0m/s | 0.3°C | 71.9% | 735.9hPa | 2.7V | 02:46:13 | 02:36:26 | 00:00:00 | |
| AA1-15 | 2026-09-01 13:05:41 | 52.90112 | 10.82332 | 0° | 0km/h | 32041m | 0m/s | 0.5°C | 73% | 738.8hPa | 2.7V | 02:46:13 | 02:36:31 | 00:00:00 | |
| DB0DAN | 2026-09-01 13:05:40 | 52.90112 | 10.82332 | 0° | 0km/h | 32041m | 0m/s | 0.5°C | 67% | 738.23hPa | 2.7V | 00:00:00 | 00:00:00 | 00:00:00 | |
| DF8AY | 2026-09-01 13:05:38 | 52.90112 | 10.82332 | 0° | 0km/h | 32041m | 0m/s | 0.4°C | 72.8% | 737.2hPa | 2.7V | 02:46:13 | 02:36:28 | 00:00:00 | |
| AA1-15 | 2026-09-01 13:05:31 | 52.90112 | 10.82332 | 0° | 0km/h | 32041m | 0m/s | 0.3°C | 67.2% | 733hPa | 2.7V | 02:47:04 | 02:36:21 | 00:00:00 | |
| BIOWL1-15 | 2026-09-01 13:05:30 | 52.90112 | 10.82332 | 0° | 0km/h | 32041m | 0m/s | 0.2°C | 67% | 732.2hPa | 2.6V | 02:47:55 | 02:36:20 | 00:00:00 | |
| DL1XH-west | 2026-09-01 13:05:28 | 52.90112 | 10.82332 | 0° | 0km/h | 32041m | 0m/s | 0.1°C | 66.9% | 730.9hPa | 2.7V | 02:47:04 | 02:36:18 | 00:00:00 | |
| DF8AY | 2026-09-01 13:05:27 | 52.90112 | 10.82332 | 0° | 0km/h | 32041m | 0m/s | 0.1°C | 66.8% | 730.4hPa | 2.7V | 02:47:04 | 02:36:17 | 00:00:00 | |
| DB0DAN | 2026-09-01 13:05:25 | 52.90112 | 10.82332 | 0° | 0km/h | 32041m | 0m/s | 0.1°C | 60.5% | 728.99hPa | 2.7V | 00:00:00 | 00:00:00 | 00:00:00 | |
| AA1-15 | 2026-09-01 13:05:20 | 52.90112 | 10.82332 | 0° | 0km/h | 32041m | 0m/s | -0.2°C | 71.6% | 726hPa | 2.6V | 02:47:04 | 02:36:10 | 00:00:00 | |
| DL1XH-west | 2026-09-01 13:05:18 | 52.90112 | 10.82332 | 0° | 0km/h | 32041m | 0m/s | -0.3°C | 71.3% | 724.7hPa | 2.7V | 02:47:04 | 02:36:08 | 00:00:00 | |
| DF8AY | 2026-09-01 13:05:16 | 52.90112 | 10.82332 | 0° | 0km/h | 32041m | 0m/s | -0.3°C | 70.8% | 723.5hPa | 2.7V | 02:47:04 | 02:36:06 | 00:00:00 | |
| DF7ER-10 | 2026-09-01 13:05:12 | 52.89964 | 10.82188 | 53° | 15km/h | 31913m | 5.5m/s | -0.2°C | 57.3% | 721.7hPa | 2.6V | 02:47:00 | 00:00:00 | 00:00:00 | |
| DB0DAN | 2026-09-01 13:05:10 | 52.90112 | 10.82332 | 0° | 0km/h | 32041m | 0m/s | -0.1°C | 50.5% | 720.02hPa | 2.6V | 00:00:00 | 00:00:00 | 00:00:00 | |
| AA1-15 | 2026-09-01 13:05:09 | 52.90112 | 10.82332 | 0° | 0km/h | 32041m | 0m/s | -0.1°C | 54.9% | 719.3hPa | 2.6V | 02:47:04 | 02:35:59 | 00:00:00 | |
| DL1XH-west | 2026-09-01 13:05:07 | 52.90112 | 10.82332 | 0° | 0km/h | 32041m | 0m/s | -0.2°C | 53.6% | 718.1hPa | 2.7V | 02:47:04 | 02:35:57 | 00:00:00 | |
| DF8AY | 2026-09-01 13:05:06 | 52.90112 | 10.82332 | 0° | 0km/h | 32041m | 0m/s | -0.1°C | 52% | 717.5hPa | 2.7V | 02:47:04 | 02:35:56 | 00:00:00 | |
| SMARD9-10 | 2026-09-01 13:05:05 | 52.90112 | 10.82332 | 0° | 0km/h | 32041m | 0.0m/s | -0.1°C | 46.7% | 717.6hPa | 2.6V | 00:00:00 | 00:00:00 | 00:00:00 | |
| AA1-15 | 2026-09-01 13:04:59 | 52.90112 | 10.82332 | 0° | 0km/h | 32041m | 0m/s | -0.2°C | 40.2% | 712.9hPa | 2.6V | 02:47:04 | 02:35:48 | 00:00:00 | |
| DL1XH-west | 2026-09-01 13:04:56 | 52.90112 | 10.82332 | 0° | 0km/h | 32041m | 0m/s | -0.1°C | 32.5% | 711.9hPa | 2.7V | 02:47:04 | 02:35:46 | 00:00:00 | |
| DB0DAN | 2026-09-01 13:04:55 | 52.90112 | 10.82332 | 0° | 0km/h | 32041m | 0m/s | -0.2°C | 27.2% | 711.3hPa | 2.7V | 00:00:00 | 00:00:00 | 00:00:00 | |
| DF8AY | 2026-09-01 13:04:55 | 52.90112 | 10.82332 | 0° | 0km/h | 32041m | 0m/s | -0.2°C | 31.4% | 711.3hPa | 2.7V | 02:47:04 | 02:35:45 | 00:00:00 | |
| AA1-15 | 2026-09-01 13:04:48 | 52.90112 | 10.82332 | 0° | 0km/h | 32041m | 0m/s | 0.1°C | 23.3% | 706.7hPa | 2.7V | 02:47:04 | 02:35:37 | 00:00:00 | |
| DL1XH-west | 2026-09-01 13:04:45 | 52.90112 | 10.82332 | 0° | 0km/h | 32041m | 0m/s | -0.1°C | 23.9% | 705.6hPa | 2.7V | 02:47:04 | 02:35:35 | 00:00:00 | |
| AA1-15 | 2026-09-01 13:04:37 | 52.90112 | 10.82332 | 0° | 0km/h | 32041m | 0m/s | -0.1°C | 30.2% | 701.2hPa | 2.7V | 02:47:55 | 02:35:27 | 00:00:00 | |
| DL1XH-west | 2026-09-01 13:04:34 | 52.90112 | 10.82332 | 0° | 0km/h | 32041m | 0m/s | -0.2°C | 29% | 699.5hPa | 2.6V | 02:47:55 | 02:35:24 | 00:00:00 | |
| DF8AY | 2026-09-01 13:04:33 | 52.90112 | 10.82332 | 0° | 0km/h | 32041m | 0m/s | -0.2°C | 28.3% | 698.9hPa | 2.7V | 02:47:55 | 02:35:23 | 00:00:00 | |
| SMARD9-10 | 2026-09-01 13:04:30 | 52.90112 | 10.82332 | 0° | 0km/h | 32041m | 0.0m/s | -0.3°C | 24.0% | 697.8hPa | 2.6V | 00:00:00 | 00:00:00 | 00:00:00 | |
| AA1-15 | 2026-09-01 13:04:27 | 52.90112 | 10.82332 | 0° | 0km/h | 32041m | 0m/s | -0.6°C | 34.6% | 694.9hPa | 2.6V | 02:47:55 | 02:35:16 | 00:00:00 | |
| DL1XH-west | 2026-09-01 13:04:23 | 52.90112 | 10.82332 | 0° | 0km/h | 32041m | 0m/s | -0.8°C | 35.8% | 693.3hPa | 2.7V | 02:47:55 | 02:35:13 | 00:00:00 | |
| AA1-15 | 2026-09-01 13:04:16 | 52.90112 | 10.82332 | 0° | 0km/h | 32041m | 0m/s | -1.2°C | 38.9% | 689.2hPa | 2.6V | 02:47:55 | 02:35:06 | 00:00:00 | |
| DF8AY | 2026-09-01 13:04:12 | 52.90112 | 10.82332 | 0° | 0km/h | 32041m | 0m/s | -1.4°C | 39.6% | 686.9hPa | 2.7V | 02:47:55 | 02:35:02 | 00:00:00 | |
| DB0DAN | 2026-09-01 13:04:10 | 52.90112 | 10.82332 | 0° | 0km/h | 32041m | 0m/s | -1.5°C | 33.9% | 685.83hPa | 2.7V | 00:00:00 | 00:00:00 | 00:00:00 | |
| AA1-15 | 2026-09-01 13:04:06 | 52.90112 | 10.82332 | 0° | 0km/h | 32041m | 0m/s | -1.8°C | 40.5% | 682.9hPa | 2.7V | 02:47:55 | 02:34:55 | 00:00:00 | |
| DF8AY | 2026-09-01 13:04:02 | 52.90112 | 10.82332 | 0° | 0km/h | 32041m | 0m/s | -1.9°C | 40.6% | 681.2hPa | 2.7V | 02:47:55 | 02:34:52 | 00:00:00 | |
| DL1XH-west | 2026-09-01 13:04:01 | 52.90112 | 10.82332 | 0° | 0km/h | 32041m | 0m/s | -2°C | 40.5% | 680.7hPa | 2.7V | 02:47:55 | 02:34:51 | 00:00:00 | |
| DF7ER-10 | 2026-09-01 13:03:57 | 52.89964 | 10.82188 | 53° | 15km/h | 31913m | 5.5m/s | -2.1°C | 33.7% | 679.1hPa | 2.7V | 02:47:00 | 00:00:00 | 00:00:00 | |
| DB0DAN | 2026-09-01 13:03:55 | 52.90112 | 10.82332 | 0° | 0km/h | 32041m | 0m/s | -2.2°C | 36% | 677.41hPa | 2.7V | 00:00:00 | 00:00:00 | 00:00:00 | |
| AA1-15 | 2026-09-01 13:03:55 | 52.90112 | 10.82332 | 0° | 0km/h | 32041m | 0m/s | -2.2°C | 42.2% | 677.4hPa | 2.7V | 02:47:55 | 02:34:45 | 00:00:00 | |
| BIOWL1-15 | 2026-09-01 13:03:52 | 52.90112 | 10.82332 | 0° | 0km/h | 32041m | 0m/s | -2.5°C | 46.4% | 674.6hPa | 2.6V | 02:49:37 | 02:34:40 | 00:00:00 | |
| DL1XH-west | 2026-09-01 13:03:51 | 52.90112 | 10.82332 | 0° | 0km/h | 32041m | 0m/s | -2.4°C | 46.3% | 675.1hPa | 2.7V | 02:48:46 | 02:34:41 | 00:00:00 | |
| AA1-15 | 2026-09-01 13:03:43 | 52.90112 | 10.82332 | 0° | 0km/h | 32041m | 0m/s | -2.8°C | 58.4% | 670.9hPa | 2.7V | 02:48:46 | 02:34:33 | 00:00:00 | |
| DF8AY | 2026-09-01 13:03:41 | 52.90112 | 10.82332 | 0° | 0km/h | 32041m | 0m/s | -2.9°C | 59.7% | 669.9hPa | 2.6V | 02:48:46 | 02:34:31 | 00:00:00 | |
| DB0DAN | 2026-09-01 13:03:40 | 52.90112 | 10.82332 | 0° | 0km/h | 32041m | 0m/s | -2.9°C | 54% | 669.31hPa | 2.7V | 00:00:00 | 00:00:00 | 00:00:00 | |
| DL1XH-west | 2026-09-01 13:03:40 | 52.90112 | 10.82332 | 0° | 0km/h | 32041m | 0m/s | -2.9°C | 60.5% | 669.3hPa | 2.7V | 02:48:46 | 02:34:30 | 00:00:00 | |
| AA1-15 | 2026-09-01 13:03:32 | 52.90112 | 10.82332 | 0° | 0km/h | 32041m | 0m/s | -3.3°C | 67.1% | 665hPa | 2.6V | 02:48:46 | 02:34:22 | 00:00:00 | |
| DL1XH-west | 2026-09-01 13:03:30 | 52.90112 | 10.82332 | 0° | 0km/h | 32041m | 0m/s | -3.4°C | 69.6% | 664hPa | 2.7V | 02:48:46 | 02:34:20 | 00:00:00 | |
| DB0DAN | 2026-09-01 13:03:25 | 52.90112 | 10.82332 | 0° | 0km/h | 32041m | 0m/s | -3.6°C | 64.1% | 661.61hPa | 2.7V | 00:00:00 | 00:00:00 | 00:00:00 | |
| AA1-15 | 2026-09-01 13:03:21 | 52.90112 | 10.82332 | 0° | 0km/h | 32041m | 0m/s | -3.8°C | 70.6% | 659.5hPa | 2.7V | 02:48:46 | 02:34:11 | 00:00:00 | |
| SMARD9-10 | 2026-09-01 13:03:20 | 52.90112 | 10.82332 | 0° | 0km/h | 32041m | 0.0m/s | -3.8°C | 64.7% | 659.5hPa | 2.7V | 00:00:00 | 00:00:00 | 00:00:00 | |
| BIOWL1-15 | 2026-09-01 13:03:19 | 52.90112 | 10.82332 | 0° | 0km/h | 32041m | 0m/s | -3.9°C | 72.6% | 657.8hPa | 2.7V | 02:49:37 | 02:34:07 | 00:00:00 | |
| DL1XH-west | 2026-09-01 13:03:18 | 52.90112 | 10.82332 | 0° | 0km/h | 32041m | 0m/s | -3.9°C | 73.1% | 658.2hPa | 2.7V | 02:48:46 | 02:34:08 | 00:00:00 | |
| AA1-15 | 2026-09-01 13:03:11 | 52.90112 | 10.82332 | 0° | 0km/h | 32041m | 0m/s | -4.1°C | 76.8% | 654.5hPa | 2.7V | 02:48:46 | 02:34:00 | 00:00:00 | |
| DB0DAN | 2026-09-01 13:03:10 | 52.90112 | 10.82332 | 0° | 0km/h | 32041m | 0m/s | -4.1°C | 71% | 654.55hPa | 2.7V | 00:00:00 | 00:00:00 | 00:00:00 | |
| DL1XH-west | 2026-09-01 13:03:08 | 52.90112 | 10.82332 | 0° | 0km/h | 32041m | 0m/s | -4.1°C | 76.5% | 651.3hPa | 2.7V | 02:48:46 | 02:33:53 | 00:00:00 | |
| DF8AY | 2026-09-01 13:03:07 | 52.90112 | 10.82332 | 0° | 0km/h | 32041m | 0m/s | -4.1°C | 77.9% | 653.1hPa | 2.6V | 02:48:46 | 02:33:57 | 00:00:00 | |
| AA1-15 | 2026-09-01 13:03:00 | 52.90112 | 10.82332 | 0° | 0km/h | 32041m | 0m/s | -4.3°C | 77.2% | 649.4hPa | 2.6V | 02:49:37 | 02:33:49 | 00:00:00 | |
| DF8AY | 2026-09-01 13:02:57 | 52.90112 | 10.82332 | 0° | 0km/h | 32041m | 0m/s | -4.3°C | 76.9% | 648.5hPa | 2.7V | 02:49:37 | 02:33:47 | 00:00:00 | |
| DB0DAN | 2026-09-01 13:02:55 | 52.90112 | 10.82332 | 0° | 0km/h | 32041m | 0m/s | -4.4°C | 70.4% | 647.42hPa | 2.7V | 00:00:00 | 00:00:00 | 00:00:00 | |
| DL1XH-west | 2026-09-01 13:02:53 | 52.90112 | 10.82332 | 0° | 0km/h | 32041m | 0m/s | -4.5°C | 77.6% | 646.6hPa | 2.7V | 02:49:37 | 02:33:43 | 00:00:00 | |
| BIOWL1-15 | 2026-09-01 13:02:51 | 52.90112 | 10.82332 | 0° | 0km/h | 32041m | 0m/s | -4.6°C | 77.8% | 645.6hPa | 2.6V | 02:49:37 | 02:33:41 | 00:00:00 | |
| AA1-15 | 2026-09-01 13:02:48 | 52.90112 | 10.82332 | 0° | 0km/h | 32041m | 0m/s | -4.7°C | 76.9% | 644.3hPa | 2.7V | 02:49:37 | 02:33:38 | 00:00:00 | |
| DF8AY | 2026-09-01 13:02:46 | 52.90112 | 10.82332 | 0° | 0km/h | 32041m | 0m/s | -4.7°C | 77.4% | 643.4hPa | 2.7V | 02:49:37 | 02:33:36 | 00:00:00 | |
| DL1XH-west | 2026-09-01 13:02:43 | 52.90112 | 10.82332 | 0° | 0km/h | 32041m | 0m/s | -4.8°C | 77.8% | 641.9hPa | 2.6V | 02:49:37 | 02:33:33 | 00:00:00 | |
| DB0DAN | 2026-09-01 13:02:40 | 52.90112 | 10.82332 | 0° | 0km/h | 32041m | 0m/s | -5°C | 71.9% | 640.73hPa | 2.7V | 00:00:00 | 00:00:00 | 00:00:00 | |
| BIOWL1-15 | 2026-09-01 13:02:39 | 52.90112 | 10.82332 | 0° | 0km/h | 32041m | 0m/s | -5°C | 78.6% | 640.1hPa | 2.7V | 02:49:37 | 02:33:29 | 00:00:00 | |
| AA1-15 | 2026-09-01 13:02:38 | 52.90112 | 10.82332 | 0° | 0km/h | 32041m | 0m/s | -5.2°C | 79.1% | 639.2hPa | 2.7V | 02:49:37 | 02:33:27 | 00:00:00 | |
| DF8AY | 2026-09-01 13:02:36 | 52.90112 | 10.82332 | 0° | 0km/h | 32041m | 0m/s | -5.2°C | 79.3% | 638.8hPa | 2.6V | 02:49:37 | 02:33:26 | 00:00:00 | |
| DL1XH-west | 2026-09-01 13:02:33 | 52.90112 | 10.82332 | 0° | 0km/h | 32041m | 0m/s | -5.4°C | 80% | 636.9hPa | 2.6V | 02:49:37 | 02:33:22 | 00:00:00 | |
| BIOWL1-15 | 2026-09-01 13:02:29 | 52.90112 | 10.82332 | 0° | 0km/h | 32041m | 0m/s | -5.6°C | 80.2% | 635.6hPa | 2.7V | 02:49:37 | 02:33:19 | 00:00:00 | |
| DF8AY | 2026-09-01 13:02:26 | 52.90112 | 10.82332 | 0° | 0km/h | 32041m | 0m/s | -5.7°C | 80.9% | 634.2hPa | 2.7V | 02:49:37 | 02:33:16 | 00:00:00 | |
| DB0DAN | 2026-09-01 13:02:25 | 52.90112 | 10.82332 | 0° | 0km/h | 32041m | 0m/s | -5.8°C | 75.4% | 633.75hPa | 2.6V | 00:00:00 | 00:00:00 | 00:00:00 | |
| DL1XH-west | 2026-09-01 13:02:21 | 52.90112 | 10.82332 | 0° | 0km/h | 32041m | 0m/s | -6°C | 82% | 632hPa | 2.7V | 02:49:37 | 02:33:11 | 00:00:00 | |
| DF8AY | 2026-09-01 13:02:15 | 52.90112 | 10.82332 | 0° | 0km/h | 32041m | 0m/s | -6.3°C | 83.9% | 629.3hPa | 2.7V | 02:49:37 | 02:33:05 | 00:00:00 | |
| SMARD9-10 | 2026-09-01 13:02:12 | 52.90112 | 10.82332 | 0° | 0km/h | 32041m | 0.0m/s | -6.4°C | 79.4% | 627.9hPa | 2.6V | 00:00:00 | 00:00:00 | 00:00:00 | |
| DL1XH-west | 2026-09-01 13:02:11 | 52.90112 | 10.82332 | 0° | 0km/h | 32041m | 0m/s | -6.5°C | 85.3% | 627hPa | 2.6V | 02:49:37 | 02:33:00 | 00:00:00 | |
| AA1-15 | 2026-09-01 13:02:05 | 52.90112 | 10.82332 | 0° | 0km/h | 32041m | 0m/s | -6.7°C | 86.5% | 624.7hPa | 2.7V | 02:50:28 | 02:32:55 | 00:00:00 | |
| BIOWL1-15 | 2026-09-01 13:02:05 | 52.90112 | 10.82332 | 0° | 0km/h | 32041m | 0m/s | -6.6°C | 84.1% | 623.4hPa | 2.5V | 02:50:28 | 02:32:52 | 00:00:00 | |
| DF8AY | 2026-09-01 13:02:04 | 52.90112 | 10.82332 | 0° | 0km/h | 32041m | 0m/s | -6.7°C | 85.8% | 624.3hPa | 2.7V | 02:50:28 | 02:32:54 | 00:00:00 | |
| DL1XH-west | 2026-09-01 13:02:00 | 52.90112 | 10.82332 | 0° | 0km/h | 32041m | 0m/s | -6.7°C | 84.2% | 622.6hPa | 2.7V | 02:50:28 | 02:32:50 | 00:00:00 | |
| AA1-15 | 2026-09-01 13:01:54 | 52.90112 | 10.82332 | 0° | 0km/h | 32041m | 0m/s | -7°C | 85.3% | 619.9hPa | 2.6V | 02:50:28 | 02:32:44 | 00:00:00 | |
| BIOWL1-15 | 2026-09-01 13:01:51 | 52.90112 | 10.82332 | 0° | 0km/h | 32041m | 0m/s | -7.2°C | 86.1% | 618hPa | 2.7V | 02:50:28 | 02:32:40 | 00:00:00 | |
| DL1XH-west | 2026-09-01 13:01:48 | 52.90112 | 10.82332 | 0° | 0km/h | 32041m | 0m/s | -7.3°C | 86.7% | 617.3hPa | 2.6V | 02:50:28 | 02:32:38 | 00:00:00 | |
| DF8AY | 2026-09-01 13:01:44 | 52.90112 | 10.82332 | 0° | 0km/h | 32041m | 0m/s | -7.5°C | 86.9% | 615.6hPa | 2.7V | 02:50:28 | 02:32:34 | 00:00:00 | |
| AA1-15 | 2026-09-01 13:01:43 | 52.90112 | 10.82332 | 0° | 0km/h | 32041m | 0m/s | -7.5°C | 87.2% | 615.1hPa | 2.7V | 02:50:28 | 02:32:33 | 00:00:00 | |
| DF7ER-10 | 2026-09-01 13:01:41 | 52.89964 | 10.82188 | 53° | 15km/h | 31913m | 5.5m/s | -7.5°C | 82.4% | 614.7hPa | 2.6V | 02:50:00 | 00:00:00 | 00:00:00 | |
| DB0DAN | 2026-09-01 13:01:40 | 52.90112 | 10.82332 | 0° | 0km/h | 32041m | 0m/s | -7.6°C | 82.6% | 613.89hPa | 2.6V | 00:00:00 | 00:00:00 | 00:00:00 | |
| SMARD9-10 | 2026-09-01 13:01:39 | 52.90112 | 10.82332 | 0° | 0km/h | 32041m | 0.0m/s | -7.6°C | 82.6% | 613.9hPa | 2.7V | 00:00:00 | 00:00:00 | 00:00:00 | |
| DL1XH-west | 2026-09-01 13:01:38 | 52.90112 | 10.82332 | 0° | 0km/h | 32041m | 0m/s | -7.7°C | 88.5% | 613hPa | 2.7V | 02:50:28 | 02:32:28 | 00:00:00 | |
| DF8AY | 2026-09-01 13:01:33 | 52.90112 | 10.82332 | 0° | 0km/h | 32041m | 0m/s | -7.8°C | 88.6% | 610.8hPa | 2.6V | 02:50:28 | 02:32:23 | 00:00:00 | |
| AA1-15 | 2026-09-01 13:01:32 | 52.90112 | 10.82332 | 0° | 0km/h | 32041m | 0m/s | -7.9°C | 88.2% | 610.4hPa | 2.6V | 02:50:28 | 02:32:22 | 00:00:00 | |
| BIOWL1-15 | 2026-09-01 13:01:32 | 52.90112 | 10.82332 | 0° | 0km/h | 32041m | 0m/s | -8°C | 88.1% | 609hPa | 2.7V | 02:50:28 | 02:32:19 | 00:00:00 | |
| DL1XH-west | 2026-09-01 13:01:28 | 52.90112 | 10.82332 | 0° | 0km/h | 32041m | 0m/s | -8°C | 88.3% | 608.5hPa | 2.6V | 02:50:28 | 02:32:18 | 00:00:00 | |
| DB0DAN | 2026-09-01 13:01:25 | 52.90112 | 10.82332 | 0° | 0km/h | 32041m | 0m/s | -8.2°C | 81.4% | 607.3hPa | 2.6V | 00:00:00 | 00:00:00 | 00:00:00 | |
| DF8AY | 2026-09-01 13:01:23 | 52.90112 | 10.82332 | 0° | 0km/h | 32041m | 0m/s | -8.2°C | 86.6% | 606.5hPa | 2.7V | 02:50:28 | 02:32:13 | 00:00:00 | |
| AA1-15 | 2026-09-01 13:01:22 | 52.90112 | 10.82332 | 0° | 0km/h | 32041m | 0m/s | -8.3°C | 86.9% | 606hPa | 2.7V | 02:50:28 | 02:32:12 | 00:00:00 | |
| BIOWL1-15 | 2026-09-01 13:01:20 | 52.90112 | 10.82332 | 0° | 0km/h | 32041m | 0m/s | -8.4°C | 85.3% | 604.7hPa | 2.6V | 02:50:28 | 02:32:09 | 00:00:00 | |
| DL1XH-west | 2026-09-01 13:01:17 | 52.90112 | 10.82332 | 0° | 0km/h | 32041m | 0m/s | -8.5°C | 85.2% | 603.8hPa | 2.7V | 02:51:19 | 02:32:07 | 00:00:00 | |
| DF8AY | 2026-09-01 13:01:12 | 52.90112 | 10.82332 | 0° | 0km/h | 32041m | 0m/s | -8.6°C | 83.9% | 601.6hPa | 2.6V | 02:51:19 | 02:32:02 | 00:00:00 | |
| AA1-15 | 2026-09-01 13:01:11 | 52.90112 | 10.82332 | 0° | 0km/h | 32041m | 0m/s | -8.7°C | 83.6% | 601.2hPa | 2.5V | 02:51:19 | 02:32:01 | 00:00:00 | |
| DB0DAN | 2026-09-01 13:01:10 | 52.90112 | 10.82332 | 0° | 0km/h | 32041m | 0m/s | -8.7°C | 78.3% | 600.69hPa | 2.6V | 00:00:00 | 00:00:00 | 00:00:00 | |
| BIOWL1-15 | 2026-09-01 13:01:09 | 52.90112 | 10.82332 | 0° | 0km/h | 32041m | 0m/s | -8.8°C | 84.1% | 599.8hPa | 2.7V | 02:52:10 | 02:31:58 | 00:00:00 | |
| DL1XH-west | 2026-09-01 13:01:07 | 52.90112 | 10.82332 | 0° | 0km/h | 32041m | 0m/s | -8.8°C | 83.9% | 598.9hPa | 2.6V | 02:51:19 | 02:31:56 | 00:00:00 | |
| DF8AY | 2026-09-01 13:01:02 | 52.90112 | 10.82332 | 0° | 0km/h | 32041m | 0m/s | -8.9°C | 81.7% | 597.1hPa | 2.7V | 02:51:19 | 02:31:52 | 00:00:00 | |
| AA1-15 | 2026-09-01 13:01:00 | 52.90112 | 10.82332 | 0° | 0km/h | 32041m | 0m/s | -8.9°C | 81.3% | 596.1hPa | 2.7V | 02:51:19 | 02:31:50 | 00:00:00 | |
| SMARD9-10 | 2026-09-01 13:00:59 | 52.90112 | 10.82332 | 0° | 0km/h | 32041m | 0.0m/s | -9.0°C | 75.7% | 595.8hPa | 2.6V | 00:00:00 | 00:00:00 | 00:00:00 | |
| DF8AY | 2026-09-01 13:00:56 | 52.90112 | 10.82332 | 0° | 0km/h | 32041m | 0m/s | -9.4°C | 84.1% | 591.8hPa | 2.6V | 02:51:19 | 02:31:41 | 00:00:00 | |
| BIOWL1-15 | 2026-09-01 13:00:56 | 52.90112 | 10.82332 | 0° | 0km/h | 32041m | 0m/s | -9.1°C | 83% | 594.4hPa | 2.7V | 02:52:10 | 02:31:46 | 00:00:00 | |
| DL1XH-west | 2026-09-01 13:00:55 | 52.90112 | 10.82332 | 0° | 0km/h | 32041m | 0m/s | -9.2°C | 83% | 594hPa | 2.7V | 02:51:19 | 02:31:45 | 00:00:00 | |
| DB0DAN | 2026-09-01 13:00:55 | 52.90112 | 10.82332 | 0° | 0km/h | 32041m | 0m/s | -9.2°C | 75.7% | 593.99hPa | 2.7V | 00:00:00 | 00:00:00 | 00:00:00 | |
| AA1-15 | 2026-09-01 13:00:51 | 52.90112 | 10.82332 | 0° | 0km/h | 32041m | 0m/s | -9.5°C | 83.9% | 591.2hPa | 2.5V | 02:51:19 | 02:31:40 | 00:00:00 | |
| BIOWL1-15 | 2026-09-01 13:00:47 | 52.90112 | 10.82332 | 0° | 0km/h | 32041m | 0m/s | -9.8°C | 84.6% | 588.7hPa | 2.7V | 02:52:10 | 02:31:35 | 00:00:00 | |
| DL1XH-west | 2026-09-01 13:00:44 | 52.90112 | 10.82332 | 0° | 0km/h | 32041m | 0m/s | -9.9°C | 84.7% | 588.2hPa | 2.6V | 02:51:19 | 02:31:34 | 00:00:00 | |
| DF8AY | 2026-09-01 13:00:41 | 52.90112 | 10.82332 | 0° | 0km/h | 32041m | 0m/s | -10°C | 85.1% | 586.9hPa | 2.7V | 02:51:19 | 02:31:31 | 00:00:00 | |
| DB0DAN | 2026-09-01 13:00:40 | 52.90112 | 10.82332 | 0° | 0km/h | 32041m | 0m/s | -10.1°C | 80.3% | 586.41hPa | 2.6V | 00:00:00 | 00:00:00 | 00:00:00 | |
| AA1-15 | 2026-09-01 13:00:39 | 52.90112 | 10.82332 | 0° | 0km/h | 32041m | 0m/s | -10.1°C | 85.6% | 585.9hPa | 2.7V | 02:51:19 | 02:31:29 | 00:00:00 | |
| BIOWL1-15 | 2026-09-01 13:00:35 | 52.90112 | 10.82332 | 0° | 0km/h | 32041m | 0m/s | -10.3°C | 86.6% | 584.1hPa | 2.7V | 02:52:10 | 02:31:25 | 00:00:00 | |
| DL1XH-west | 2026-09-01 13:00:33 | 52.90112 | 10.82332 | 0° | 0km/h | 32041m | 0m/s | -10.4°C | 87.4% | 583.2hPa | 2.6V | 02:51:19 | 02:31:23 | 00:00:00 | |
| DF8AY | 2026-09-01 13:00:30 | 52.90112 | 10.82332 | 0° | 0km/h | 32041m | 0m/s | -10.6°C | 88.2% | 581.7hPa | 2.6V | 02:51:19 | 02:31:20 | 00:00:00 | |
| AA1-15 | 2026-09-01 13:00:29 | 52.90112 | 10.82332 | 0° | 0km/h | 32041m | 0m/s | -10.7°C | 88.5% | 580.8hPa | 2.7V | 02:51:19 | 02:31:18 | 00:00:00 | |
| DF7ER-10 | 2026-09-01 13:00:27 | 52.89964 | 10.82188 | 53° | 15km/h | 31913m | 5.5m/s | -10.7°C | 83.4% | 580.8hPa | 2.6V | 02:51:00 | 00:00:00 | 00:00:00 | |
| DB0DAN | 2026-09-01 13:00:25 | 52.90112 | 10.82332 | 0° | 0km/h | 32041m | 0m/s | -10.9°C | 83.4% | 579.5hPa | 2.6V | 00:00:00 | 00:00:00 | 00:00:00 | |
| DL1XH-west | 2026-09-01 13:00:23 | 52.90112 | 10.82332 | 0° | 0km/h | 32041m | 0m/s | -11°C | 88.9% | 578.4hPa | 2.6V | 02:52:10 | 02:31:13 | 00:00:00 | |
| BIOWL1-15 | 2026-09-01 13:00:22 | 52.90112 | 10.82332 | 0° | 0km/h | 32041m | 0m/s | -11.2°C | 90.5% | 575.9hPa | 2.6V | 02:52:10 | 02:31:08 | 00:00:00 | |
| DF8AY | 2026-09-01 13:00:19 | 52.90112 | 10.82332 | 0° | 0km/h | 32041m | 0m/s | -11.2°C | 90.2% | 576.5hPa | 2.7V | 02:52:10 | 02:31:09 | 00:00:00 | |
| AA1-15 | 2026-09-01 13:00:18 | 52.90112 | 10.82332 | 0° | 0km/h | 32041m | 0m/s | -11.3°C | 90.7% | 575.4hPa | 2.5V | 02:52:10 | 02:31:07 | 00:00:00 | |
| DF7ER-10 | 2026-09-01 13:00:18 | 52.89964 | 10.82188 | 53° | 15km/h | 31913m | 5.5m/s | -11.2°C | 85.2% | 575.9hPa | 2.7V | 02:52:00 | 00:00:00 | 00:00:00 | |
| SMARD9-10 | 2026-09-01 13:00:13 | 52.90112 | 10.82332 | 0° | 0km/h | 32041m | 0.0m/s | -11.5°C | 86.1% | 573.7hPa | 2.7V | 00:00:00 | 00:00:00 | 00:00:00 | |
| BIOWL1-15 | 2026-09-01 13:00:12 | 52.90112 | 10.82332 | 0° | 0km/h | 32041m | 0m/s | -11.8°C | 90.3% | 571hPa | 2.7V | 02:52:10 | 02:30:58 | 00:00:00 | |
| DL1XH-west | 2026-09-01 13:00:12 | 52.90112 | 10.82332 | 0° | 0km/h | 32041m | 0m/s | -11.6°C | 90.5% | 572.9hPa | 2.6V | 02:52:10 | 02:31:02 | 00:00:00 | |
| DB0DAN | 2026-09-01 13:00:10 | 52.90112 | 10.82332 | 0° | 0km/h | 32041m | 0m/s | -11.7°C | 86.5% | 571.86hPa | 2.6V | 00:00:00 | 00:00:00 | 00:00:00 | |
| DF8AY | 2026-09-01 13:00:09 | 52.90112 | 10.82332 | 0° | 0km/h | 32041m | 0m/s | -11.7°C | 90.4% | 571.4hPa | 2.7V | 02:52:10 | 02:30:59 | 00:00:00 | |
| AA1-15 | 2026-09-01 13:00:06 | 52.90112 | 10.82332 | 0° | 0km/h | 32041m | 0m/s | -11.8°C | 90.8% | 570.1hPa | 2.6V | 02:52:10 | 02:30:56 | 00:00:00 | |
| DL1XH-west | 2026-09-01 13:00:02 | 52.90112 | 10.82332 | 0° | 0km/h | 32041m | 0m/s | -12°C | 91.2% | 568.3hPa | 2.7V | 02:52:10 | 02:30:52 | 00:00:00 | |
| DL4BBY-15 | 2026-09-01 13:00:00 | 52.90112 | 10.82332 | 0° | 0km/h | 32041m | 0.0m/s | -11.0°C | 0% | 0hPa | 2.6V | 00:00:00 | 00:00:00 | 00:00:00 | |
| DF8AY | 2026-09-01 12:59:58 | 52.90112 | 10.82332 | 0° | 0km/h | 32041m | 0m/s | -12.3°C | 91.5% | 566.2hPa | 2.6V | 02:52:10 | 02:30:48 | 00:00:00 | |
| AA1-15 | 2026-09-01 12:59:55 | 52.90112 | 10.82332 | 0° | 0km/h | 32041m | 0m/s | -12.4°C | 92% | 564.8hPa | 2.6V | 02:52:10 | 02:30:45 | 00:00:00 | |
| DB0DAN | 2026-09-01 12:59:55 | 52.90112 | 10.82332 | 0° | 0km/h | 32041m | 0m/s | -12.4°C | 88.2% | 564.77hPa | 2.6V | 00:00:00 | 00:00:00 | 00:00:00 | |
| BIOWL1-15 | 2026-09-01 12:59:54 | 52.90112 | 10.82332 | 0° | 0km/h | 32041m | 0m/s | -12.5°C | 92.2% | 564.2hPa | 2.6V | 02:52:10 | 02:30:44 | 00:00:00 | |
| DL1XH-west | 2026-09-01 12:59:52 | 52.90112 | 10.82332 | 0° | 0km/h | 32041m | 0m/s | -12.6°C | 92.5% | 563.3hPa | 2.6V | 02:52:10 | 02:30:42 | 00:00:00 | |
| DF8AY | 2026-09-01 12:59:48 | 52.90112 | 10.82332 | 0° | 0km/h | 32041m | 0m/s | -12.8°C | 92.7% | 561.3hPa | 2.7V | 02:52:10 | 02:30:38 | 00:00:00 | |
| AA1-15 | 2026-09-01 12:59:45 | 52.90112 | 10.82332 | 0° | 0km/h | 32041m | 0m/s | -13°C | 93.3% | 559.9hPa | 2.5V | 02:52:10 | 02:30:35 | 00:00:00 | |
| BIOWL1-15 | 2026-09-01 12:59:43 | 52.90112 | 10.82332 | 0° | 0km/h | 32041m | 0m/s | -13.1°C | 93.7% | 558.9hPa | 2.6V | 02:52:10 | 02:30:33 | 00:00:00 | |
| DL1XH-west | 2026-09-01 12:59:41 | 52.90112 | 10.82332 | 0° | 0km/h | 32041m | 0m/s | -13.2°C | 94.2% | 557.8hPa | 2.6V | 02:52:10 | 02:30:31 | 00:00:00 | |
| BIOWL1-15 | 2026-09-01 12:59:39 | 52.90112 | 10.82332 | 0° | 0km/h | 32041m | 0m/s | -13.4°C | 92.2% | 553.7hPa | 2.5V | 02:53:01 | 02:30:23 | 00:00:00 | |
| SMARD9-10 | 2026-09-01 12:59:38 | 52.90112 | 10.82332 | 0° | 0km/h | 32041m | 0.0m/s | -13.3°C | 89.6% | 557.0hPa | 2.7V | 00:00:00 | 00:00:00 | 00:00:00 | |
| DF8AY | 2026-09-01 12:59:37 | 52.90112 | 10.82332 | 0° | 0km/h | 32041m | 0m/s | -13.3°C | 92.5% | 555.7hPa | 2.7V | 02:52:10 | 02:30:27 | 00:00:00 | |
| AA1-15 | 2026-09-01 12:59:34 | 52.90112 | 10.82332 | 0° | 0km/h | 32041m | 0m/s | -13.4°C | 92.2% | 554.2hPa | 2.6V | 02:53:01 | 02:30:24 | 00:00:00 | |
| DL1XH-west | 2026-09-01 12:59:30 | 52.90112 | 10.82332 | 0° | 0km/h | 32041m | 0m/s | -13.5°C | 91.6% | 552.4hPa | 2.6V | 02:53:01 | 02:30:20 | 00:00:00 | |
| DF8AY | 2026-09-01 12:59:27 | 52.90112 | 10.82332 | 0° | 0km/h | 32041m | 0m/s | -13.7°C | 91% | 550.2hPa | 2.5V | 02:53:01 | 02:30:16 | 00:00:00 | |
| DB0DAN | 2026-09-01 12:59:25 | 52.90112 | 10.82332 | 0° | 0km/h | 32041m | 0m/s | -13.7°C | 88.5% | 549.77hPa | 2.5V | 00:00:00 | 00:00:00 | 00:00:00 | |
| BIOWL1-15 | 2026-09-01 12:59:24 | 52.90112 | 10.82332 | 0° | 0km/h | 32041m | 0m/s | -13.7°C | 90.7% | 548.3hPa | 2.6V | 02:53:01 | 02:30:12 | 00:00:00 | |
| AA1-15 | 2026-09-01 12:59:23 | 52.90112 | 10.82332 | 0° | 0km/h | 32041m | 0m/s | -13.7°C | 90.9% | 548.7hPa | 2.6V | 02:53:01 | 02:30:13 | 00:00:00 | |
| DL1XH-west | 2026-09-01 12:59:19 | 52.90112 | 10.82332 | 0° | 0km/h | 32041m | 0m/s | -13.8°C | 90.4% | 546.8hPa | 2.6V | 02:53:01 | 02:30:09 | 00:00:00 | |
| DF8AY | 2026-09-01 12:59:16 | 52.90112 | 10.82332 | 0° | 0km/h | 32041m | 0m/s | -13.9°C | 90.7% | 545.3hPa | 2.6V | 02:53:01 | 02:30:06 | 00:00:00 | |
| AA1-15 | 2026-09-01 12:59:13 | 52.90112 | 10.82332 | 0° | 0km/h | 32041m | 0m/s | -14.1°C | 90.6% | 543.8hPa | 2.6V | 02:53:01 | 02:30:03 | 00:00:00 | |
| BIOWL1-15 | 2026-09-01 12:59:12 | 52.90112 | 10.82332 | 0° | 0km/h | 32041m | 0m/s | -14.1°C | 90.8% | 543.2hPa | 2.6V | 02:53:01 | 02:30:02 | 00:00:00 | |
| DB0DAN | 2026-09-01 12:59:10 | 52.90112 | 10.82332 | 0° | 0km/h | 32041m | 0m/s | -14.3°C | 88.8% | 542.26hPa | 2.6V | 00:00:00 | 00:00:00 | 00:00:00 | |
| DL1XH-west | 2026-09-01 12:59:08 | 52.90112 | 10.82332 | 0° | 0km/h | 32041m | 0m/s | -14.4°C | 90.6% | 541.2hPa | 2.5V | 02:53:01 | 02:29:58 | 00:00:00 | |
| DL4BBY-15 | 2026-09-01 12:59:08 | 52.90112 | 10.82332 | 0° | 0km/h | 32041m | 0.0m/s | -13.2°C | 0% | 0hPa | 2.6V | 00:00:00 | 00:00:00 | 00:00:00 | |
| DF8AY | 2026-09-01 12:59:06 | 52.90112 | 10.82332 | 0° | 0km/h | 32041m | 0m/s | -14.5°C | 90.8% | 540.2hPa | 2.6V | 02:53:01 | 02:29:56 | 00:00:00 | |
| SMARD9-10 | 2026-09-01 12:59:03 | 52.90112 | 10.82332 | 0° | 0km/h | 32041m | 0.0m/s | -14.5°C | 88.4% | 539.3hPa | 2.5V | 00:00:00 | 00:00:00 | 00:00:00 | |
| AA1-15 | 2026-09-01 12:59:02 | 52.90112 | 10.82332 | 0° | 0km/h | 32041m | 0m/s | -14.5°C | 90% | 538.2hPa | 2.5V | 02:53:01 | 02:29:52 | 00:00:00 | |
| BIOWL1-15 | 2026-09-01 12:59:01 | 52.90112 | 10.82332 | 0° | 0km/h | 32041m | 0m/s | -14.6°C | 90.1% | 537.7hPa | 2.5V | 02:53:01 | 02:29:51 | 00:00:00 | |
| DL1XH-west | 2026-09-01 12:58:57 | 52.90112 | 10.82332 | 0° | 0km/h | 32041m | 0m/s | -14.6°C | 88.4% | 535.7hPa | 2.6V | 02:53:01 | 02:29:47 | 00:00:00 | |
| DF8AY | 2026-09-01 12:58:56 | 52.90112 | 10.82332 | 0° | 0km/h | 32041m | 0m/s | -14.5°C | 87.5% | 535.1hPa | 2.5V | 02:53:01 | 02:29:46 | 00:00:00 | |
| DB0DAN | 2026-09-01 12:58:55 | 52.90112 | 10.82332 | 0° | 0km/h | 32041m | 0m/s | -14.6°C | 84.7% | 534.67hPa | 2.6V | 00:00:00 | 00:00:00 | 00:00:00 | |
| AA1-15 | 2026-09-01 12:58:51 | 52.90112 | 10.82332 | 0° | 0km/h | 32041m | 0m/s | -14.8°C | 87.1% | 532.5hPa | 2.6V | 02:53:01 | 02:29:41 | 00:00:00 | |
| BIOWL1-15 | 2026-09-01 12:58:50 | 52.90112 | 10.82332 | 0° | 0km/h | 32041m | 0m/s | -14.8°C | 86.7% | 532hPa | 2.5V | 02:53:01 | 02:29:40 | 00:00:00 | |
| DL1XH-west | 2026-09-01 12:58:46 | 52.90112 | 10.82332 | 0° | 0km/h | 32041m | 0m/s | -15°C | 86.5% | 529.9hPa | 2.6V | 02:53:01 | 02:29:36 | 00:00:00 | |
| DF8AY | 2026-09-01 12:58:45 | 52.90112 | 10.82332 | 0° | 0km/h | 32041m | 0m/s | -15°C | 86.8% | 529.4hPa | 2.6V | 02:53:52 | 02:29:35 | 00:00:00 | |
| DB0DAN | 2026-09-01 12:58:40 | 52.90112 | 10.82332 | 0° | 0km/h | 32041m | 0m/s | -15.2°C | 84.1% | 526.87hPa | 2.6V | 00:00:00 | 00:00:00 | 00:00:00 | |
| BIOWL1-15 | 2026-09-01 12:58:40 | 52.90112 | 10.82332 | 0° | 0km/h | 32041m | 0m/s | -15.2°C | 86.9% | 526.9hPa | 2.6V | 02:53:52 | 02:29:30 | 00:00:00 | |
| DL4BBY-15 | 2026-09-01 12:58:38 | 52.90112 | 10.82332 | 0° | 0km/h | 32041m | 0.0m/s | -14.1°C | 0% | 0hPa | 2.6V | 00:00:00 | 00:00:00 | 00:00:00 | |
| DL1XH-west | 2026-09-01 12:58:36 | 52.90112 | 10.82332 | 0° | 0km/h | 32041m | 0m/s | -15.1°C | 84.3% | 524.4hPa | 2.6V | 02:53:52 | 02:29:25 | 00:00:00 | |
| DF8AY | 2026-09-01 12:58:33 | 52.90112 | 10.82332 | 0° | 0km/h | 32041m | 0m/s | -15.1°C | 84.5% | 523.4hPa | 2.6V | 02:53:52 | 02:29:23 | 00:00:00 | |
| BIOWL1-15 | 2026-09-01 12:58:29 | 52.90112 | 10.82332 | 0° | 0km/h | 32041m | 0m/s | -15.2°C | 84.6% | 521.5hPa | 2.6V | 02:53:52 | 02:29:19 | 00:00:00 | |
| SMARD9-10 | 2026-09-01 12:58:28 | 52.90112 | 10.82332 | 0° | 0km/h | 32041m | 0.0m/s | -15.2°C | 80.7% | 521.5hPa | 2.5V | 02:53:00 | 00:00:00 | 00:00:00 | |
| DF7ER-10 | 2026-09-01 12:58:26 | 52.89964 | 10.82188 | 53° | 15km/h | 31913m | 5.5m/s | -15.3°C | 80.7% | 520.5hPa | 2.5V | 02:53:00 | 00:00:00 | 00:00:00 | |
| DB0DAN | 2026-09-01 12:58:25 | 52.90112 | 10.82332 | 0° | 0km/h | 32041m | 0m/s | -15.4°C | 81.4% | 519.51hPa | 2.5V | 00:00:00 | 00:00:00 | 00:00:00 | |
| DF8AY | 2026-09-01 12:58:24 | 52.90112 | 10.82332 | 0° | 0km/h | 32041m | 0m/s | -15.5°C | 85.4% | 518.6hPa | 2.6V | 02:53:52 | 02:29:13 | 00:00:00 | |
| DL2RXE-15 | 2026-09-01 12:58:20 | 52.90112 | 10.82332 | 0° | 0km/h | 32041m | 0.0m/s | -15.7°C | 81.7% | 517.0hPa | 2.6V | 00:00:00 | 00:00:00 | 00:00:00 | |
| BIOWL1-15 | 2026-09-01 12:58:18 | 52.90112 | 10.82332 | 0° | 0km/h | 32041m | 0m/s | -15.8°C | 85.9% | 515.8hPa | 2.6V | 02:53:52 | 02:29:08 | 00:00:00 | |
| DF8AY | 2026-09-01 12:58:12 | 52.90112 | 10.82332 | 0° | 0km/h | 32041m | 0m/s | -16.1°C | 86.6% | 512.5hPa | 2.6V | 02:53:52 | 02:29:02 | 00:00:00 | |
| DB0DAN | 2026-09-01 12:58:10 | 52.90112 | 10.82332 | 0° | 0km/h | 32041m | 0m/s | -16.3°C | 83.2% | 511.5hPa | 2.6V | 00:00:00 | 00:00:00 | 00:00:00 | |
| DL4BBY-15 | 2026-09-01 12:58:08 | 52.90112 | 10.82332 | 0° | 0km/h | 32041m | 0.0m/s | -15.2°C | 0% | 0hPa | 2.6V | 00:00:00 | 00:00:00 | 00:00:00 | |
| AA1-15 | 2026-09-01 12:58:07 | 52.90112 | 10.82332 | 0° | 0km/h | 32041m | 0m/s | -16.4°C | 86.3% | 509.9hPa | 2.6V | 02:53:52 | 02:28:57 | 00:00:00 | |
| BIOWL1-15 | 2026-09-01 12:58:07 | 52.90112 | 10.82332 | 0° | 0km/h | 32041m | 0m/s | -16.5°C | 86.2% | 508.9hPa | 2.6V | 02:53:52 | 02:28:55 | 00:00:00 | |
| DF8AY | 2026-09-01 12:58:02 | 52.90112 | 10.82332 | 0° | 0km/h | 32041m | 0m/s | -16.7°C | 86.4% | 507.3hPa | 2.5V | 02:53:52 | 02:28:52 | 00:00:00 | |
| DL1XH-west | 2026-09-01 12:58:02 | 52.90112 | 10.82332 | 0° | 0km/h | 32041m | 0m/s | -16.7°C | 86.6% | 506.8hPa | 2.6V | 02:53:52 | 02:28:51 | 00:00:00 | |
| AA1-15 | 2026-09-01 12:57:56 | 52.90112 | 10.82332 | 0° | 0km/h | 32041m | 0m/s | -16.9°C | 87% | 504.2hPa | 2.6V | 02:53:52 | 02:28:46 | 00:00:00 | |
| DB0DAN | 2026-09-01 12:57:55 | 52.90112 | 10.82332 | 0° | 0km/h | 32041m | 0m/s | -17°C | 84.5% | 503.49hPa | 2.6V | 00:00:00 | 00:00:00 | 00:00:00 | |
| BIOWL1-15 | 2026-09-01 12:57:55 | 52.90112 | 10.82332 | 0° | 0km/h | 32041m | 0m/s | -17°C | 87.4% | 503.5hPa | 2.6V | 02:53:52 | 02:28:45 | 00:00:00 | |
| SMARD9-10 | 2026-09-01 12:57:52 | 52.90112 | 10.82332 | 0° | 0km/h | 32041m | 0.0m/s | -17.1°C | 85.2% | 502.0hPa | 2.6V | 00:00:00 | 00:00:00 | 00:00:00 | |
| DF8AY | 2026-09-01 12:57:52 | 52.90112 | 10.82332 | 0° | 0km/h | 32041m | 0m/s | -17.1°C | 87.8% | 502hPa | 2.5V | 02:54:43 | 02:28:42 | 00:00:00 | |
| DL1XH-west | 2026-09-01 12:57:50 | 52.90112 | 10.82332 | 0° | 0km/h | 32041m | 0m/s | -17.3°C | 87.6% | 501hPa | 2.6V | 02:54:43 | 02:28:40 | 00:00:00 | |
| AA1-15 | 2026-09-01 12:57:45 | 52.90112 | 10.82332 | 0° | 0km/h | 32041m | 0m/s | -17.5°C | 88.1% | 498.4hPa | 2.5V | 02:54:43 | 02:28:35 | 00:00:00 | |
| BIOWL1-15 | 2026-09-01 12:57:44 | 52.90112 | 10.82332 | 0° | 0km/h | 32041m | 0m/s | -17.5°C | 88.3% | 497.9hPa | 2.6V | 02:54:43 | 02:28:34 | 00:00:00 | |
| DF8AY | 2026-09-01 12:57:41 | 52.90112 | 10.82332 | 0° | 0km/h | 32041m | 0m/s | -17.7°C | 88.2% | 496.4hPa | 2.5V | 02:54:43 | 02:28:31 | 00:00:00 | |
| DL1XH-west | 2026-09-01 12:57:40 | 52.90112 | 10.82332 | 0° | 0km/h | 32041m | 0m/s | -17.8°C | 88.2% | 495.9hPa | 2.5V | 02:54:43 | 02:28:30 | 00:00:00 | |
| DB0DAN | 2026-09-01 12:57:40 | 52.90112 | 10.82332 | 0° | 0km/h | 32041m | 0m/s | -17.8°C | 86% | 495.91hPa | 2.5V | 00:00:00 | 00:00:00 | 00:00:00 | |
| DL4BBY-15 | 2026-09-01 12:57:38 | 52.90112 | 10.82332 | 0° | 0km/h | 32041m | 0.0m/s | -16.8°C | 0% | 0hPa | 2.5V | 00:00:00 | 00:00:00 | 00:00:00 | |
| AA1-15 | 2026-09-01 12:57:34 | 52.90112 | 10.82332 | 0° | 0km/h | 32041m | 0m/s | -18.1°C | 88.7% | 492.8hPa | 2.5V | 02:54:43 | 02:28:24 | 00:00:00 | |
| DF8AY | 2026-09-01 12:57:30 | 52.90112 | 10.82332 | 0° | 0km/h | 32041m | 0m/s | -18.3°C | 89.3% | 490.8hPa | 2.5V | 02:54:43 | 02:28:20 | 00:00:00 | |
| DL1XH-west | 2026-09-01 12:57:29 | 52.90112 | 10.82332 | 0° | 0km/h | 32041m | 0m/s | -18.3°C | 89.4% | 490.5hPa | 2.5V | 02:54:43 | 02:28:19 | 00:00:00 | |
| DB0DAN | 2026-09-01 12:57:25 | 52.90112 | 10.82332 | 0° | 0km/h | 32041m | 0m/s | -18.5°C | 87.6% | 488.51hPa | 2.6V | 00:00:00 | 00:00:00 | 00:00:00 | |
| AA1-15 | 2026-09-01 12:57:24 | 52.90112 | 10.82332 | 0° | 0km/h | 32041m | 0m/s | -18.6°C | 88.6% | 488.1hPa | 2.5V | 02:54:43 | 02:28:14 | 00:00:00 | |
| BIOWL1-15 | 2026-09-01 12:57:21 | 52.90112 | 10.82332 | 0° | 0km/h | 32041m | 0m/s | -18.7°C | 88.2% | 486.2hPa | 2.6V | 02:54:43 | 02:28:10 | 00:00:00 | |
| DF8AY | 2026-09-01 12:57:19 | 52.90112 | 10.82332 | 0° | 0km/h | 32041m | 0m/s | -18.8°C | 88.4% | 485.7hPa | 2.5V | 02:54:43 | 02:28:09 | 00:00:00 | |
| DL2RXE-15 | 2026-09-01 12:57:15 | 52.90112 | 10.82332 | 0° | 0km/h | 32041m | 0.0m/s | -18.9°C | 86.5% | 484.4hPa | 2.5V | 00:00:00 | 00:00:00 | 00:00:00 | |
| AA1-15 | 2026-09-01 12:57:14 | 52.90112 | 10.82332 | 0° | 0km/h | 32041m | 0m/s | -18.9°C | 86.9% | 483.1hPa | 2.5V | 02:54:43 | 02:28:03 | 00:00:00 | |
| DB0DAN | 2026-09-01 12:57:10 | 52.90112 | 10.82332 | 0° | 0km/h | 32041m | 0m/s | -18.9°C | 84.4% | 481.7hPa | 2.6V | 00:00:00 | 00:00:00 | 00:00:00 | |
| BIOWL1-15 | 2026-09-01 12:57:10 | 52.90112 | 10.82332 | 0° | 0km/h | 32041m | 0m/s | -18.9°C | 86.6% | 481.7hPa | 2.6V | 02:54:43 | 02:28:00 | 00:00:00 | |
| DL1XH-west | 2026-09-01 12:57:09 | 52.90112 | 10.82332 | 0° | 0km/h | 32041m | 0m/s | -18.9°C | 86.3% | 481.4hPa | 2.6V | 02:54:43 | 02:27:59 | 00:00:00 | |
| DF8AY | 2026-09-01 12:57:08 | 52.90112 | 10.82332 | 0° | 0km/h | 32041m | 0m/s | -19°C | 85.9% | 480.9hPa | 2.5V | 02:54:43 | 02:27:58 | 00:00:00 | |
| DL4BBY-15 | 2026-09-01 12:57:08 | 52.90112 | 10.82332 | 0° | 0km/h | 32041m | 0.0m/s | -17.9°C | 0% | 0hPa | 2.5V | 00:00:00 | 00:00:00 | 00:00:00 | |
| TFSTFS | 2026-09-01 12:57:05 | 52.90112 | 10.82332 | 0° | 0km/h | 32041m | 0.0m/s | -19.1°C | 82.6% | 479.6hPa | 2.5V | 02:54:00 | 00:00:00 | 00:00:00 | |
| AA1-15 | 2026-09-01 12:57:02 | 52.90112 | 10.82332 | 0° | 0km/h | 32041m | 0m/s | -19.3°C | 85.2% | 478.2hPa | 2.5V | 02:55:34 | 02:27:52 | 00:00:00 | |
| DL1XH-west | 2026-09-01 12:56:58 | 52.90112 | 10.82332 | 0° | 0km/h | 32041m | 0m/s | -19.4°C | 85% | 476.5hPa | 2.6V | 02:55:34 | 02:27:48 | 00:00:00 | |
| DF8AY | 2026-09-01 12:56:57 | 52.90112 | 10.82332 | 0° | 0km/h | 32041m | 0m/s | -19.6°C | 84.9% | 474.3hPa | 2.6V | 02:55:34 | 02:27:43 | 00:00:00 | |
| BIOWL1-15 | 2026-09-01 12:56:55 | 52.90112 | 10.82332 | 0° | 0km/h | 32041m | 0m/s | -19.5°C | 84.3% | 475.2hPa | 2.6V | 02:56:25 | 02:27:45 | 00:00:00 | |
| DB0DAN | 2026-09-01 12:56:55 | 52.90112 | 10.82332 | 0° | 0km/h | 32041m | 0m/s | -19.5°C | 81.4% | 475.18hPa | 2.6V | 00:00:00 | 00:00:00 | 00:00:00 | |
| AA1-15 | 2026-09-01 12:56:51 | 52.90112 | 10.82332 | 0° | 0km/h | 32041m | 0m/s | -19.7°C | 85.2% | 473.4hPa | 2.5V | 02:55:34 | 02:27:41 | 00:00:00 | |
| DL1XH-west | 2026-09-01 12:56:48 | 52.90112 | 10.82332 | 0° | 0km/h | 32041m | 0m/s | -19.9°C | 85.3% | 472hPa | 2.6V | 02:55:34 | 02:27:38 | 00:00:00 | |
| BIOWL1-15 | 2026-09-01 12:56:45 | 52.90112 | 10.82332 | 0° | 0km/h | 32041m | 0m/s | -20.1°C | 84.8% | 470.6hPa | 2.5V | 02:56:25 | 02:27:35 | 00:00:00 | |
| TFSTFS | 2026-09-01 12:56:44 | 52.90112 | 10.82332 | 0° | 0km/h | 32041m | 0.0m/s | -20.1°C | 83.4% | 470.6hPa | 2.6V | 00:00:00 | 00:00:00 | 00:00:00 | |
| DF8AY | 2026-09-01 12:56:43 | 52.90112 | 10.82332 | 0° | 0km/h | 32041m | 0m/s | -20.1°C | 85.1% | 469.8hPa | 2.6V | 02:55:34 | 02:27:33 | 00:00:00 | |
| AA1-15 | 2026-09-01 12:56:40 | 52.90112 | 10.82332 | 0° | 0km/h | 32041m | 0m/s | -20.3°C | 83.9% | 468.4hPa | 2.5V | 02:55:34 | 02:27:30 | 00:00:00 | |
| DB0DAN | 2026-09-01 12:56:40 | 52.90112 | 10.82332 | 0° | 0km/h | 32041m | 0m/s | -20.3°C | 82.1% | 468.36hPa | 2.5V | 00:00:00 | 00:00:00 | 00:00:00 | |
| DL1XH-west | 2026-09-01 12:56:38 | 52.90112 | 10.82332 | 0° | 0km/h | 32041m | 0m/s | -20.5°C | 84% | 467hPa | 2.6V | 02:55:34 | 02:27:27 | 00:00:00 | |
| BIOWL1-15 | 2026-09-01 12:56:34 | 52.90112 | 10.82332 | 0° | 0km/h | 32041m | 0m/s | -20.7°C | 84.9% | 465.5hPa | 2.6V | 02:56:25 | 02:27:24 | 00:00:00 | |
| DF8AY | 2026-09-01 12:56:33 | 52.90112 | 10.82332 | 0° | 0km/h | 32041m | 0m/s | -20.7°C | 84.6% | 464.9hPa | 2.5V | 02:55:34 | 02:27:23 | 00:00:00 | |
| AA1-15 | 2026-09-01 12:56:30 | 52.90112 | 10.82332 | 0° | 0km/h | 32041m | 0m/s | -20.9°C | 85.4% | 463.2hPa | 2.6V | 02:55:34 | 02:27:20 | 00:00:00 | |
| AP2371 | 2026-09-01 12:56:29 | 52.90112 | 10.82332 | 0° | 0km/h | 32041m | 0.0m/s | -20.9°C | 81.8% | 463.2hPa | 2.6V | 00:00:00 | 00:00:00 | 00:00:00 | |
| DL1XH-west | 2026-09-01 12:56:26 | 52.90112 | 10.82332 | 0° | 0km/h | 32041m | 0m/s | -21.1°C | 84.6% | 460.7hPa | 2.6V | 02:55:34 | 02:27:16 | 00:00:00 | |
| DB0DAN | 2026-09-01 12:56:25 | 52.90112 | 10.82332 | 0° | 0km/h | 32041m | 0m/s | -21.2°C | 81.4% | 460.02hPa | 2.6V | 00:00:00 | 00:00:00 | 00:00:00 | |
| BIOWL1-15 | 2026-09-01 12:56:23 | 52.90112 | 10.82332 | 0° | 0km/h | 32041m | 0m/s | -21.6°C | 88.1% | 456.7hPa | 2.6V | 02:56:25 | 02:27:09 | 00:00:00 | |
| DF8AY | 2026-09-01 12:56:22 | 52.90112 | 10.82332 | 0° | 0km/h | 32041m | 0m/s | -21.5°C | 87.1% | 457.7hPa | 2.5V | 02:55:34 | 02:27:11 | 00:00:00 | |
| AA1-15 | 2026-09-01 12:56:18 | 52.90112 | 10.82332 | 0° | 0km/h | 32041m | 0m/s | -21.7°C | 88.2% | 456hPa | 2.6V | 02:55:34 | 02:27:08 | 00:00:00 | |
| DL1XH-west | 2026-09-01 12:56:16 | 52.90112 | 10.82332 | 0° | 0km/h | 32041m | 0m/s | -21.8°C | 88.3% | 454.8hPa | 2.6V | 02:55:34 | 02:27:06 | 00:00:00 | |
| DF8AY | 2026-09-01 12:56:12 | 52.90112 | 10.82332 | 0° | 0km/h | 32041m | 0m/s | -22.1°C | 86.6% | 452.6hPa | 2.6V | 02:56:25 | 02:27:02 | 00:00:00 | |
| DL2RXE-15 | 2026-09-01 12:56:11 | 52.90112 | 10.82332 | 0° | 0km/h | 32041m | 0.0m/s | -22.1°C | 83.3% | 452.6hPa | 2.5V | 00:00:00 | 00:00:00 | 00:00:00 | |
| DB0DAN | 2026-09-01 12:56:10 | 52.90112 | 10.82332 | 0° | 0km/h | 32041m | 0m/s | -22.2°C | 83% | 451.56hPa | 2.5V | 00:00:00 | 00:00:00 | 00:00:00 | |
| DB0DAN | 2026-09-01 12:56:10 | 52.90112 | 10.82332 | 0° | 0km/h | 32041m | 0m/s | -22.2°C | 82.8% | 451.14hPa | 2.5V | 00:00:00 | 00:00:00 | 00:00:00 | |
| BIOWL1-15 | 2026-09-01 12:56:10 | 52.90112 | 10.82332 | 0° | 0km/h | 32041m | 0m/s | -22.2°C | 86% | 451.6hPa | 2.5V | 02:56:25 | 02:27:00 | 00:00:00 | |
| DL4BBY-15 | 2026-09-01 12:56:08 | 52.90112 | 10.82332 | 0° | 0km/h | 32041m | 0.0m/s | -21.2°C | 0% | 0hPa | 2.6V | 00:00:00 | 00:00:00 | 00:00:00 | |
| AA1-15 | 2026-09-01 12:56:07 | 52.90112 | 10.82332 | 0° | 0km/h | 32041m | 0m/s | -22.4°C | 85.6% | 450.2hPa | 2.6V | 02:56:25 | 02:26:57 | 00:00:00 | |
| DL1XH-west | 2026-09-01 12:56:05 | 52.90112 | 10.82332 | 0° | 0km/h | 32041m | 0m/s | -22.4°C | 85.5% | 449.3hPa | 2.5V | 02:56:25 | 02:26:55 | 00:00:00 | |
| TFSTFS | 2026-09-01 12:56:03 | 52.90112 | 10.82332 | 0° | 0km/h | 32041m | 0.0m/s | -22.5°C | 83.0% | 448.9hPa | 2.6V | 02:56:00 | 00:00:00 | 00:00:00 | |
| DF8AY | 2026-09-01 12:56:02 | 52.90112 | 10.82332 | 0° | 0km/h | 32041m | 0m/s | -22.5°C | 85.6% | 447.9hPa | 2.6V | 02:56:25 | 02:26:52 | 00:00:00 | |
| BIOWL1-15 | 2026-09-01 12:56:02 | 52.90112 | 10.82332 | 0° | 0km/h | 32041m | 0m/s | -22.7°C | 85.5% | 446.3hPa | 2.6V | 02:56:25 | 02:26:48 | 00:00:00 | |
| AA1-15 | 2026-09-01 12:55:56 | 52.90112 | 10.82332 | 0° | 0km/h | 32041m | 0m/s | -22.8°C | 86.3% | 445.4hPa | 2.6V | 02:56:25 | 02:26:46 | 00:00:00 | |
| DB0DAN | 2026-09-01 12:55:55 | 52.90112 | 10.82332 | 0° | 0km/h | 32041m | 0m/s | -22.8°C | 83.2% | 444.94hPa | 2.5V | 00:00:00 | 00:00:00 | 00:00:00 | |
| DL1XH-west | 2026-09-01 12:55:55 | 52.90112 | 10.82332 | 0° | 0km/h | 32041m | 0m/s | -23.1°C | 86.1% | 442.8hPa | 2.5V | 02:56:25 | 02:26:40 | 00:00:00 | |
| DF8AY | 2026-09-01 12:55:51 | 52.90112 | 10.82332 | 0° | 0km/h | 32041m | 0m/s | -23°C | 86.5% | 443.3hPa | 2.6V | 02:56:25 | 02:26:41 | 00:00:00 | |
| BIOWL1-15 | 2026-09-01 12:55:47 | 52.90112 | 10.82332 | 0° | 0km/h | 32041m | 0m/s | -23.2°C | 86.3% | 441.5hPa | 2.6V | 02:56:25 | 02:26:37 | 00:00:00 | |
| AA1-15 | 2026-09-01 12:55:45 | 52.90112 | 10.82332 | 0° | 0km/h | 32041m | 0m/s | -23.3°C | 86.4% | 440.5hPa | 2.5V | 02:56:25 | 02:26:35 | 00:00:00 | |
| TFSTFS | 2026-09-01 12:55:42 | 52.90112 | 10.82332 | 0° | 0km/h | 32041m | 0.0m/s | -23.5°C | 83.8% | 439.5hPa | 2.6V | 02:56:00 | 00:00:00 | 00:00:00 | |
| DL1XH-west | 2026-09-01 12:55:41 | 52.90112 | 10.82332 | 0° | 0km/h | 32041m | 0m/s | -23.6°C | 87.5% | 438.7hPa | 2.6V | 02:56:25 | 02:26:31 | 00:00:00 | |
| DB0DAN | 2026-09-01 12:55:40 | 52.90112 | 10.82332 | 0° | 0km/h | 32041m | 0m/s | -23.7°C | 84.1% | 438.23hPa | 2.5V | 00:00:00 | 00:00:00 | 00:00:00 | |
| DL4BBY-15 | 2026-09-01 12:55:38 | 52.90112 | 10.82332 | 0° | 0km/h | 32041m | 0.0m/s | -22.7°C | 0% | 0hPa | 2.6V | 00:00:00 | 00:00:00 | 00:00:00 | |
| BIOWL1-15 | 2026-09-01 12:55:37 | 52.90112 | 10.82332 | 0° | 0km/h | 32041m | 0m/s | -23.8°C | 85.3% | 436.8hPa | 2.6V | 02:56:25 | 02:26:27 | 00:00:00 | |
| AA1-15 | 2026-09-01 12:55:34 | 52.90112 | 10.82332 | 0° | 0km/h | 32041m | 0m/s | -23.9°C | 83.3% | 435.2hPa | 2.5V | 02:56:25 | 02:26:24 | 00:00:00 | |
| DF8AY | 2026-09-01 12:55:31 | 52.90112 | 10.82332 | 0° | 0km/h | 32041m | 0m/s | -24°C | 82.2% | 433.9hPa | 2.6V | 02:56:25 | 02:26:21 | 00:00:00 | |
| DL1XH-west | 2026-09-01 12:55:30 | 52.90112 | 10.82332 | 0° | 0km/h | 32041m | 0m/s | -24°C | 82.1% | 433.6hPa | 2.5V | 02:56:25 | 02:26:20 | 00:00:00 | |
| SMARD9-10 | 2026-09-01 12:55:29 | 52.90112 | 10.82332 | 0° | 0km/h | 32041m | 0.0m/s | -24.0°C | 77.8% | 433.5hPa | 2.6V | 00:00:00 | 00:00:00 | 00:00:00 | |
| BIOWL1-15 | 2026-09-01 12:55:27 | 52.90112 | 10.82332 | 0° | 0km/h | 32041m | 0m/s | -24.7°C | 83.3% | 428.1hPa | 2.6V | 02:57:16 | 02:26:08 | 00:00:00 | |
| DB0DAN | 2026-09-01 12:55:25 | 52.90112 | 10.82332 | 0° | 0km/h | 32041m | 0m/s | -24.4°C | 78.8% | 431.44hPa | 2.5V | 00:00:00 | 00:00:00 | 00:00:00 | |
| AA1-15 | 2026-09-01 12:55:23 | 52.90112 | 10.82332 | 0° | 0km/h | 32041m | 0m/s | -24.5°C | 84% | 430.4hPa | 2.6V | 02:56:25 | 02:26:13 | 00:00:00 | |
| BIOWL1-15 | 2026-09-01 12:55:21 | 52.90112 | 10.82332 | 0° | 0km/h | 32041m | 0m/s | -24.9°C | 82.7% | 427hPa | 2.5V | 02:57:16 | 02:26:05 | 00:00:00 | |
| DL1XH-west | 2026-09-01 12:55:20 | 52.90112 | 10.82332 | 0° | 0km/h | 32041m | 0m/s | -24.6°C | 83.3% | 429hPa | 2.5V | 02:57:16 | 02:26:10 | 00:00:00 | |
| AP2371 | 2026-09-01 12:55:14 | 52.90112 | 10.82332 | 0° | 0km/h | 32041m | 0.0m/s | -24.9°C | 77.6% | 427.0hPa | 2.6V | 00:00:00 | 00:00:00 | 00:00:00 | |
| AA1-15 | 2026-09-01 12:55:12 | 52.90112 | 10.82332 | 0° | 0km/h | 32041m | 0m/s | -25.1°C | 80.8% | 425.7hPa | 2.6V | 02:57:16 | 02:26:02 | 00:00:00 | |
| TFSTFS | 2026-09-01 12:55:11 | 52.90112 | 10.82332 | 0° | 0km/h | 32041m | 0.0m/s | -25.1°C | 74.2% | 425.4hPa | 2.5V | 00:00:00 | 00:00:00 | 00:00:00 | |
| DB0DAN | 2026-09-01 12:55:10 | 52.90112 | 10.82332 | 0° | 0km/h | 32041m | 0m/s | -25.2°C | 72.8% | 424.98hPa | 2.5V | 00:00:00 | 00:00:00 | 00:00:00 | |
| DL1XH-west | 2026-09-01 12:55:09 | 52.90112 | 10.82332 | 0° | 0km/h | 32041m | 0m/s | -25.2°C | 77.2% | 424.5hPa | 2.5V | 02:57:16 | 02:25:59 | 00:00:00 | |
| DL4BBY-15 | 2026-09-01 12:55:08 | 52.90112 | 10.82332 | 0° | 0km/h | 32041m | 0.0m/s | -24.2°C | 0% | 0hPa | 2.6V | 00:00:00 | 00:00:00 | 00:00:00 | |
| BIOWL1-15 | 2026-09-01 12:55:04 | 52.90112 | 10.82332 | 0° | 0km/h | 32041m | 0m/s | -25.6°C | 76.1% | 421.5hPa | 2.6V | 02:57:16 | 02:25:51 | 00:00:00 | |
| AA1-15 | 2026-09-01 12:55:02 | 52.90112 | 10.82332 | 0° | 0km/h | 32041m | 0m/s | -25.6°C | 75.9% | 422hPa | 2.5V | 02:57:16 | 02:25:52 | 00:00:00 | |
| TFSTFS | 2026-09-01 12:55:00 | 52.90112 | 10.82332 | 0° | 0km/h | 32041m | 0.0m/s | -25.6°C | 71.2% | 421.5hPa | 2.6V | 02:57:00 | 00:00:00 | 00:00:00 | |
| DL1XH-west | 2026-09-01 12:54:59 | 52.90112 | 10.82332 | 0° | 0km/h | 32041m | 0m/s | -25.7°C | 76.1% | 420.8hPa | 2.6V | 02:57:16 | 02:25:49 | 00:00:00 | |
| DF8AY | 2026-09-01 12:54:58 | 52.90112 | 10.82332 | 0° | 0km/h | 32041m | 0m/s | -25.8°C | 76.3% | 420.3hPa | 2.5V | 02:57:16 | 02:25:48 | 00:00:00 | |
| DL4XJ-10 | 2026-09-01 12:54:58 | 52.90112 | 10.82332 | 0° | 0km/h | 32041m | 0.0m/s | -24.7°C | 0% | 0hPa | 2.6V | 00:00:00 | 00:00:00 | 00:00:00 | |
| DL2RXE-15 | 2026-09-01 12:54:57 | 52.90112 | 10.82332 | 0° | 0km/h | 32041m | 0.0m/s | -25.8°C | 70.6% | 420.3hPa | 2.6V | 00:00:00 | 00:00:00 | 00:00:00 | |
| DB0DAN | 2026-09-01 12:54:55 | 52.90112 | 10.82332 | 0° | 0km/h | 32041m | 0m/s | -26°C | 70.4% | 419.05hPa | 2.6V | 00:00:00 | 00:00:00 | 00:00:00 | |
| SMARD9-10 | 2026-09-01 12:54:54 | 52.90112 | 10.82332 | 0° | 0km/h | 32041m | 0.0m/s | -26.0°C | 70.4% | 419.1hPa | 2.5V | 02:57:00 | 00:00:00 | 00:00:00 | |
| AA1-15 | 2026-09-01 12:54:51 | 52.90112 | 10.82332 | 0° | 0km/h | 32041m | 0m/s | -26.2°C | 73.5% | 417.1hPa | 2.5V | 02:57:16 | 02:25:41 | 00:00:00 | |
| BIOWL1-15 | 2026-09-01 12:54:50 | 52.90112 | 10.82332 | 0° | 0km/h | 32041m | 0m/s | -26.5°C | 73.6% | 415hPa | 2.5V | 02:57:16 | 02:25:36 | 00:00:00 | |
| DL1XH-west | 2026-09-01 12:54:48 | 52.90112 | 10.82332 | 0° | 0km/h | 32041m | 0m/s | -26.4°C | 73.4% | 415.8hPa | 2.6V | 02:57:16 | 02:25:38 | 00:00:00 | |
| DL1LOL-11 | 2026-09-01 12:54:44 | 52.90112 | 10.82332 | 0° | 0km/h | 32041m | 0.0m/s | -26.5°C | 67.8% | 414.6hPa | 2.6V | 00:00:00 | 00:00:00 | 00:00:00 | |
| AA1-15 | 2026-09-01 12:54:41 | 52.90112 | 10.82332 | 0° | 0km/h | 32041m | 0m/s | -26.8°C | 72.7% | 413hPa | 2.6V | 02:57:16 | 02:25:31 | 00:00:00 | |
| DB0DAN | 2026-09-01 12:54:40 | 52.90112 | 10.82332 | 0° | 0km/h | 32041m | 0m/s | -26.8°C | 66.9% | 412.65hPa | 2.5V | 00:00:00 | 00:00:00 | 00:00:00 | |
| DL4BBY-15 | 2026-09-01 12:54:38 | 52.90112 | 10.82332 | 0° | 0km/h | 32041m | 0.0m/s | -25.8°C | 0% | 0hPa | 2.6V | 00:00:00 | 00:00:00 | 00:00:00 | |
| BIOWL1-15 | 2026-09-01 12:54:37 | 52.90112 | 10.82332 | 0° | 0km/h | 32041m | 0m/s | -27°C | 71.9% | 410.6hPa | 2.6V | 02:57:16 | 02:25:25 | 00:00:00 | |
| DL1XH-west | 2026-09-01 12:54:37 | 52.90112 | 10.82332 | 0° | 0km/h | 32041m | 0m/s | -26.9°C | 71.7% | 411.4hPa | 2.6V | 02:57:16 | 02:25:27 | 00:00:00 | |
| TFSTFS | 2026-09-01 12:54:37 | 52.90112 | 10.82332 | 0° | 0km/h | 32041m | 0.0m/s | -26.9°C | 66.6% | 411.4hPa | 2.6V | 02:57:00 | 00:00:00 | 00:00:00 | |
| DL4XJ-10 | 2026-09-01 12:54:36 | 52.90112 | 10.82332 | 0° | 0km/h | 32041m | 0.0m/s | -25.9°C | 0% | 0hPa | 2.6V | 00:00:00 | 00:00:00 | 00:00:00 | |
| AA1-15 | 2026-09-01 12:54:30 | 52.90112 | 10.82332 | 0° | 0km/h | 32041m | 0m/s | -27.4°C | 75.1% | 408.5hPa | 2.6V | 02:58:07 | 02:25:20 | 00:00:00 | |
| DL1XH-west | 2026-09-01 12:54:27 | 52.90112 | 10.82332 | 0° | 0km/h | 32041m | 0m/s | -27.6°C | 76.1% | 407.1hPa | 2.6V | 02:58:07 | 02:25:17 | 00:00:00 | |
| DF8AY | 2026-09-01 12:54:27 | 52.90112 | 10.82332 | 0° | 0km/h | 32041m | 0m/s | -27.8°C | 77% | 406hPa | 2.5V | 02:58:07 | 02:25:15 | 00:00:00 | |
| DB0DAN | 2026-09-01 12:54:25 | 52.90112 | 10.82332 | 0° | 0km/h | 32041m | 0m/s | -27.8°C | 70.5% | 406.03hPa | 2.5V | 00:00:00 | 00:00:00 | 00:00:00 | |
| AA1-15 | 2026-09-01 12:54:19 | 52.90112 | 10.82332 | 0° | 0km/h | 32041m | 0m/s | -28.1°C | 78.5% | 403.3hPa | 2.5V | 02:58:07 | 02:25:09 | 00:00:00 | |
| DL1XH-west | 2026-09-01 12:54:16 | 52.90112 | 10.82332 | 0° | 0km/h | 32041m | 0m/s | -28.3°C | 78.9% | 402.1hPa | 2.6V | 02:58:07 | 02:25:06 | 00:00:00 | |
| DF8AY | 2026-09-01 12:54:14 | 52.90112 | 10.82332 | 0° | 0km/h | 32041m | 0m/s | -28.4°C | 79.6% | 401.3hPa | 2.6V | 02:58:07 | 02:25:04 | 00:00:00 | |
| DB0DAN | 2026-09-01 12:54:10 | 52.90112 | 10.82332 | 0° | 0km/h | 32041m | 0m/s | -28.7°C | 72.6% | 399.72hPa | 2.5V | 00:00:00 | 00:00:00 | 00:00:00 | |
| AA1-15 | 2026-09-01 12:54:08 | 52.90112 | 10.82332 | 0° | 0km/h | 32041m | 0m/s | -28.8°C | 79.2% | 398.7hPa | 2.6V | 02:58:07 | 02:24:58 | 00:00:00 | |
| DL4BBY-15 | 2026-09-01 12:54:08 | 52.90112 | 10.82332 | 0° | 0km/h | 32041m | 0.0m/s | -27.7°C | 0% | 0hPa | 2.5V | 00:00:00 | 00:00:00 | 00:00:00 | |
| DL1XH-west | 2026-09-01 12:54:05 | 52.90112 | 10.82332 | 0° | 0km/h | 32041m | 0m/s | -28.9°C | 79.1% | 397.4hPa | 2.5V | 02:58:07 | 02:24:55 | 00:00:00 | |
| BIOWL1-15 | 2026-09-01 12:54:04 | 52.90112 | 10.82332 | 0° | 0km/h | 32041m | 0m/s | -29.2°C | 79.6% | 395hPa | 2.6V | 02:58:07 | 02:24:49 | 00:00:00 | |
| DF8AY | 2026-09-01 12:54:03 | 52.90112 | 10.82332 | 0° | 0km/h | 32041m | 0m/s | -29°C | 79.4% | 396.6hPa | 2.5V | 02:58:07 | 02:24:53 | 00:00:00 | |
| AA1-15 | 2026-09-01 12:53:59 | 52.90112 | 10.82332 | 0° | 0km/h | 32041m | 0m/s | -29.3°C | 79.9% | 394.6hPa | 2.5V | 02:58:07 | 02:24:48 | 00:00:00 | |
| DB0DAN | 2026-09-01 12:53:55 | 52.90112 | 10.82332 | 0° | 0km/h | 32041m | 0m/s | -29.5°C | 72.3% | 393.38hPa | 2.6V | 00:00:00 | 00:00:00 | 00:00:00 | |
| DL1XH-west | 2026-09-01 12:53:54 | 52.90112 | 10.82332 | 0° | 0km/h | 32041m | 0m/s | -29.6°C | 81% | 392.9hPa | 2.6V | 02:58:07 | 02:24:44 | 00:00:00 | |
| DF8AY | 2026-09-01 12:53:53 | 52.90112 | 10.82332 | 0° | 0km/h | 32041m | 0m/s | -29.7°C | 81.2% | 392.3hPa | 2.6V | 02:58:07 | 02:24:43 | 00:00:00 | |
| DL2RXE-15 | 2026-09-01 12:53:50 | 52.90112 | 10.82332 | 0° | 0km/h | 32041m | 0.0m/s | -29.9°C | 73.5% | 391.3hPa | 2.6V | 00:00:00 | 00:00:00 | 00:00:00 | |
| BIOWL1-15 | 2026-09-01 12:53:49 | 52.90112 | 10.82332 | 0° | 0km/h | 32041m | 0m/s | -30°C | 81.5% | 390.5hPa | 2.6V | 02:58:07 | 02:24:39 | 00:00:00 | |
| AA1-15 | 2026-09-01 12:53:47 | 52.90112 | 10.82332 | 0° | 0km/h | 32041m | 0m/s | -30.1°C | 81.6% | 389.6hPa | 2.5V | 02:58:07 | 02:24:37 | 00:00:00 | |
| DL1XH-west | 2026-09-01 12:53:43 | 52.90112 | 10.82332 | 0° | 0km/h | 32041m | 0m/s | -30.4°C | 81.6% | 388.2hPa | 2.6V | 02:58:07 | 02:24:33 | 00:00:00 | |
| DF8AY | 2026-09-01 12:53:42 | 52.90112 | 10.82332 | 0° | 0km/h | 32041m | 0m/s | -30.4°C | 81.8% | 387.8hPa | 2.5V | 02:58:07 | 02:24:32 | 00:00:00 | |
| DB0DAN | 2026-09-01 12:53:40 | 52.90112 | 10.82332 | 0° | 0km/h | 32041m | 0m/s | -30.6°C | 75.5% | 387.02hPa | 2.5V | 00:00:00 | 00:00:00 | 00:00:00 | |
| BIOWL1-15 | 2026-09-01 12:53:38 | 52.90112 | 10.82332 | 0° | 0km/h | 32041m | 0m/s | -30.8°C | 83.5% | 385.4hPa | 2.6V | 02:58:58 | 02:24:26 | 00:00:00 | |
| DL4BBY-15 | 2026-09-01 12:53:38 | 52.90112 | 10.82332 | 0° | 0km/h | 32041m | 0.0m/s | -29.6°C | 0% | 0hPa | 2.6V | 00:00:00 | 00:00:00 | 00:00:00 | |
| AA1-15 | 2026-09-01 12:53:37 | 52.90112 | 10.82332 | 0° | 0km/h | 32041m | 0m/s | -30.8°C | 83.1% | 385.7hPa | 2.6V | 02:58:58 | 02:24:27 | 00:00:00 | |
| DL1LOL-11 | 2026-09-01 12:53:36 | 52.90112 | 10.82332 | 0° | 0km/h | 32041m | 0.0m/s | -30.8°C | 76.6% | 385.7hPa | 2.5V | 00:00:00 | 00:00:00 | 00:00:00 | |
| DL1XH-west | 2026-09-01 12:53:33 | 52.90112 | 10.82332 | 0° | 0km/h | 32041m | 0m/s | -31.1°C | 84.5% | 384.1hPa | 2.5V | 02:58:58 | 02:24:23 | 00:00:00 | |
| DF8AY | 2026-09-01 12:53:31 | 52.90112 | 10.82332 | 0° | 0km/h | 32041m | 0m/s | -31.2°C | 84.5% | 383.4hPa | 2.6V | 02:58:58 | 02:24:21 | 00:00:00 | |
| BIOWL1-15 | 2026-09-01 12:53:27 | 52.90112 | 10.82332 | 0° | 0km/h | 32041m | 0m/s | -31.5°C | 84.8% | 381.7hPa | 2.5V | 02:58:58 | 02:24:17 | 00:00:00 | |
| AA1-15 | 2026-09-01 12:53:26 | 52.90112 | 10.82332 | 0° | 0km/h | 32041m | 0m/s | -31.6°C | 84.9% | 381.4hPa | 2.5V | 02:58:58 | 02:24:16 | 00:00:00 | |
| DB0DAN | 2026-09-01 12:53:25 | 52.90112 | 10.82332 | 0° | 0km/h | 32041m | 0m/s | -31.6°C | 79% | 380.84hPa | 2.6V | 00:00:00 | 00:00:00 | 00:00:00 | |
| DL1XH-west | 2026-09-01 12:53:22 | 52.90112 | 10.82332 | 0° | 0km/h | 32041m | 0m/s | -31.8°C | 84.9% | 379.7hPa | 2.5V | 02:58:58 | 02:24:12 | 00:00:00 | |
| DF8AY | 2026-09-01 12:53:21 | 52.90112 | 10.82332 | 0° | 0km/h | 32041m | 0m/s | -31.9°C | 84.7% | 379.3hPa | 2.5V | 02:58:58 | 02:24:11 | 00:00:00 | |
| BIOWL1-15 | 2026-09-01 12:53:16 | 52.90112 | 10.82332 | 0° | 0km/h | 32041m | 0m/s | -32.6°C | 85.7% | 374.7hPa | 2.5V | 02:58:58 | 02:23:59 | 00:00:00 | |
| AA1-15 | 2026-09-01 12:53:15 | 52.90112 | 10.82332 | 0° | 0km/h | 32041m | 0m/s | -32.3°C | 85.5% | 377hPa | 2.5V | 02:58:58 | 02:24:05 | 00:00:00 | |
| TFSTFS | 2026-09-01 12:53:14 | 52.90112 | 10.82332 | 0° | 0km/h | 32041m | 0.0m/s | -32.4°C | 79.2% | 376.2hPa | 2.6V | 00:00:00 | 00:00:00 | 00:00:00 | |
| DL1XH-west | 2026-09-01 12:53:11 | 52.90112 | 10.82332 | 0° | 0km/h | 32041m | 0m/s | -32.5°C | 85% | 375.5hPa | 2.6V | 02:58:58 | 02:24:01 | 00:00:00 | |
| DF8AY | 2026-09-01 12:53:10 | 52.90112 | 10.82332 | 0° | 0km/h | 32041m | 0m/s | -32.5°C | 85.4% | 375.1hPa | 2.5V | 02:58:58 | 02:24:00 | 00:00:00 | |
| DB0DAN | 2026-09-01 12:53:10 | 52.90112 | 10.82332 | 0° | 0km/h | 32041m | 0m/s | -32.5°C | 79.4% | 375.06hPa | 2.5V | 00:00:00 | 00:00:00 | 00:00:00 | |
| DL4BBY-15 | 2026-09-01 12:53:08 | 52.90112 | 10.82332 | 0° | 0km/h | 32041m | 0.0m/s | -31.6°C | 0% | 0hPa | 2.6V | 00:00:00 | 00:00:00 | 00:00:00 | |
| AA1-15 | 2026-09-01 12:53:05 | 52.90112 | 10.82332 | 0° | 0km/h | 32041m | 0m/s | -32.8°C | 86.3% | 373.1hPa | 2.6V | 02:58:58 | 02:23:55 | 00:00:00 | |
| DL1XH-west | 2026-09-01 12:53:01 | 52.90112 | 10.82332 | 0° | 0km/h | 32041m | 0m/s | -33°C | 85.2% | 371.4hPa | 2.6V | 02:58:58 | 02:23:51 | 00:00:00 | |
| DF8AY | 2026-09-01 12:52:59 | 52.90112 | 10.82332 | 0° | 0km/h | 32041m | 0m/s | -33.1°C | 84.2% | 370.6hPa | 2.5V | 02:58:58 | 02:23:49 | 00:00:00 | |
| DL1LOL-11 | 2026-09-01 12:52:56 | 52.90112 | 10.82332 | 0° | 0km/h | 32041m | 0.0m/s | -33.4°C | 77.2% | 368.9hPa | 2.6V | 00:00:00 | 00:00:00 | 00:00:00 | |
| DB0DAN | 2026-09-01 12:52:55 | 52.90112 | 10.82332 | 0° | 0km/h | 32041m | 0m/s | -33.4°C | 77.1% | 368.93hPa | 2.6V | 00:00:00 | 00:00:00 | 00:00:00 | |
| BIOWL1-15 | 2026-09-01 12:52:54 | 52.90112 | 10.82332 | 0° | 0km/h | 32041m | 0m/s | -33.5°C | 83.9% | 368.6hPa | 2.6V | 02:58:58 | 02:23:44 | 00:00:00 | |
| TFSTFS | 2026-09-01 12:52:51 | 52.90112 | 10.82332 | 0° | 0km/h | 32041m | 0.0m/s | -33.6°C | 77.3% | 367.8hPa | 2.5V | 00:00:00 | 00:00:00 | 00:00:00 | |
| DL1XH-west | 2026-09-01 12:52:50 | 52.90112 | 10.82332 | 0° | 0km/h | 32041m | 0m/s | -33.7°C | 84.2% | 367hPa | 2.5V | 02:58:58 | 02:23:40 | 00:00:00 | |
| DF8AY | 2026-09-01 12:52:50 | 52.90112 | 10.82332 | 0° | 0km/h | 32041m | 0m/s | -33.8°C | 84% | 366.2hPa | 2.6V | 02:59:49 | 02:23:38 | 00:00:00 | |
| BIOWL1-15 | 2026-09-01 12:52:44 | 52.90112 | 10.82332 | 0° | 0km/h | 32041m | 0m/s | -34.1°C | 85.6% | 364.6hPa | 2.6V | 02:59:49 | 02:23:34 | 00:00:00 | |
| DL1XH-west | 2026-09-01 12:52:40 | 52.90112 | 10.82332 | 0° | 0km/h | 32041m | 0m/s | -34.4°C | 86.7% | 363hPa | 2.5V | 02:59:49 | 02:23:30 | 00:00:00 | |
| DB0DAN | 2026-09-01 12:52:40 | 52.90112 | 10.82332 | 0° | 0km/h | 32041m | 0m/s | -34.4°C | 80.2% | 363.02hPa | 2.5V | 00:00:00 | 00:00:00 | 00:00:00 | |
| DL4BBY-15 | 2026-09-01 12:52:38 | 52.90112 | 10.82332 | 0° | 0km/h | 32041m | 0.0m/s | -33.5°C | 0% | 0hPa | 2.6V | 00:00:00 | 00:00:00 | 00:00:00 | |
| DF8AY | 2026-09-01 12:52:37 | 52.90112 | 10.82332 | 0° | 0km/h | 32041m | 0m/s | -34.6°C | 87% | 361.8hPa | 2.6V | 02:59:49 | 02:23:27 | 00:00:00 | |
| DL2RXE-15 | 2026-09-01 12:52:36 | 52.90112 | 10.82332 | 0° | 0km/h | 32041m | 0.0m/s | -34.6°C | 81.5% | 361.8hPa | 2.6V | 00:00:00 | 00:00:00 | 00:00:00 | |
| TFSTFS | 2026-09-01 12:52:35 | 52.90112 | 10.82332 | 0° | 0km/h | 32041m | 0.0m/s | -34.7°C | 81.9% | 361.4hPa | 2.6V | 02:59:00 | 00:00:00 | 00:00:00 | |
| AA1-15 | 2026-09-01 12:52:33 | 52.90112 | 10.82332 | 0° | 0km/h | 32041m | 0m/s | -34.8°C | 87.6% | 360.1hPa | 2.6V | 02:59:49 | 02:23:23 | 00:00:00 | |
| DL1XH-west | 2026-09-01 12:52:29 | 52.90112 | 10.82332 | 0° | 0km/h | 32041m | 0m/s | -35°C | 82.7% | 358.7hPa | 2.5V | 02:59:49 | 02:23:19 | 00:00:00 | |
| TFSTFS | 2026-09-01 12:52:29 | 52.90112 | 10.82332 | 0° | 0km/h | 32041m | 0.0m/s | -35.0°C | 79.1% | 358.7hPa | 2.6V | 02:59:00 | 00:00:00 | 00:00:00 | |
| DF8AY | 2026-09-01 12:52:27 | 52.90112 | 10.82332 | 0° | 0km/h | 32041m | 0m/s | -35.2°C | 80% | 357.5hPa | 2.6V | 02:59:49 | 02:23:16 | 00:00:00 | |
| DB0DAN | 2026-09-01 12:52:25 | 52.90112 | 10.82332 | 0° | 0km/h | 32041m | 0m/s | -35.3°C | 74.4% | 356.99hPa | 2.6V | 00:00:00 | 00:00:00 | 00:00:00 | |
| AA1-15 | 2026-09-01 12:52:22 | 52.90112 | 10.82332 | 0° | 0km/h | 32041m | 0m/s | -35.5°C | 73.3% | 355.8hPa | 2.6V | 02:59:49 | 02:23:12 | 00:00:00 | |
| SMARD9-10 | 2026-09-01 12:52:20 | 52.90112 | 10.82332 | 0° | 0km/h | 32041m | 0.0m/s | -35.5°C | 67.6% | 355.3hPa | 2.5V | 00:00:00 | 00:00:00 | 00:00:00 | |
| DL1XH-west | 2026-09-01 12:52:18 | 52.90112 | 10.82332 | 0° | 0km/h | 32041m | 0m/s | -35.8°C | 53.9% | 353.6hPa | 2.5V | 02:59:49 | 02:23:07 | 00:00:00 | |
| DF8AY | 2026-09-01 12:52:16 | 52.90112 | 10.82332 | 0° | 0km/h | 32041m | 0m/s | -35.5°C | 19.1% | 350hPa | 2.6V | 02:59:49 | 02:22:59 | 00:00:00 | |
| BIOWL1-15 | 2026-09-01 12:52:12 | 52.90112 | 10.82332 | 0° | 0km/h | 32041m | 0m/s | -35.5°C | 22.2% | 351.2hPa | 2.5V | 02:59:49 | 02:23:02 | 00:00:00 | |
| AA1-15 | 2026-09-01 12:52:11 | 52.90112 | 10.82332 | 0° | 0km/h | 32041m | 0m/s | -35.5°C | 21.3% | 350.8hPa | 2.6V | 02:59:49 | 02:23:01 | 00:00:00 | |
| DB0DAN | 2026-09-01 12:52:10 | 52.90112 | 10.82332 | 0° | 0km/h | 32041m | 0m/s | -35.5°C | 16.2% | 350.34hPa | 2.6V | 00:00:00 | 00:00:00 | 00:00:00 | |
| DL4BBY-15 | 2026-09-01 12:52:08 | 52.90112 | 10.82332 | 0° | 0km/h | 32041m | 0.0m/s | -34.4°C | 0% | 0hPa | 2.5V | 00:00:00 | 00:00:00 | 00:00:00 | |
| TFSTFS | 2026-09-01 12:52:07 | 52.90112 | 10.82332 | 0° | 0km/h | 32041m | 0.0m/s | -35.5°C | 14.3% | 349.6hPa | 2.5V | 02:59:00 | 00:00:00 | 00:00:00 | |
| DL1XH-west | 2026-09-01 12:52:06 | 52.90112 | 10.82332 | 0° | 0km/h | 32041m | 0m/s | -35.4°C | 16.7% | 348.8hPa | 2.5V | 02:59:49 | 02:22:56 | 00:00:00 | |
| BIOWL1-15 | 2026-09-01 12:52:01 | 52.90112 | 10.82332 | 0° | 0km/h | 32041m | 0m/s | -35.6°C | 15.9% | 346.9hPa | 2.5V | 02:59:49 | 02:22:51 | 00:00:00 | |
| AA1-15 | 2026-09-01 12:52:00 | 52.90112 | 10.82332 | 0° | 0km/h | 32041m | 0m/s | -35.7°C | 15.6% | 346.5hPa | 2.6V | 02:59:49 | 02:22:50 | 00:00:00 | |
| DL1XH-west | 2026-09-01 12:51:56 | 52.90112 | 10.82332 | 0° | 0km/h | 32041m | 0m/s | -35.8°C | 13.3% | 344.9hPa | 2.5V | 03:00:40 | 02:22:46 | 00:00:00 | |
| DB0DAN | 2026-09-01 12:51:55 | 52.90112 | 10.82332 | 0° | 0km/h | 32041m | 0m/s | -35.7°C | 9.5% | 344.57hPa | 2.5V | 00:00:00 | 00:00:00 | 00:00:00 | |
| BIOWL1-15 | 2026-09-01 12:51:50 | 52.90112 | 10.82332 | 0° | 0km/h | 32041m | 0m/s | -35.8°C | 11.5% | 342.6hPa | 2.5V | 03:00:40 | 02:22:40 | 00:00:00 | |
| AA1-15 | 2026-09-01 12:51:49 | 52.90112 | 10.82332 | 0° | 0km/h | 32041m | 0m/s | -35.8°C | 11.6% | 342.2hPa | 2.6V | 03:00:40 | 02:22:39 | 00:00:00 | |
| DL1XH-west | 2026-09-01 12:51:46 | 52.90112 | 10.82332 | 0° | 0km/h | 32041m | 0m/s | -35.9°C | 12.5% | 341hPa | 2.5V | 03:00:40 | 02:22:36 | 00:00:00 | |
| TFSTFS | 2026-09-01 12:51:45 | 52.90112 | 10.82332 | 0° | 0km/h | 32041m | 0.0m/s | -35.9°C | 9.5% | 341.0hPa | 2.5V | 03:00:00 | 00:00:00 | 00:00:00 | |
| DF8AY | 2026-09-01 12:51:40 | 52.90112 | 10.82332 | 0° | 0km/h | 32041m | 0m/s | -36.2°C | 13.7% | 338.7hPa | 2.5V | 03:00:40 | 02:22:30 | 00:00:00 | |
| BIOWL1-15 | 2026-09-01 12:51:39 | 52.90112 | 10.82332 | 0° | 0km/h | 32041m | 0m/s | -36.4°C | 13.7% | 337.5hPa | 2.6V | 03:00:40 | 02:22:27 | 00:00:00 | |
| AA1-15 | 2026-09-01 12:51:38 | 52.90112 | 10.82332 | 0° | 0km/h | 32041m | 0m/s | -36.4°C | 13.6% | 337.9hPa | 2.6V | 03:00:40 | 02:22:28 | 00:00:00 | |
| SMARD9-10 | 2026-09-01 12:51:37 | 52.90112 | 10.82332 | 0° | 0km/h | 32041m | 0.0m/s | -36.4°C | 10.3% | 337.9hPa | 2.5V | 00:00:00 | 00:00:00 | 00:00:00 | |
| DL1XH-west | 2026-09-01 12:51:35 | 52.90112 | 10.82332 | 0° | 0km/h | 32041m | 0m/s | -36.5°C | 13.7% | 336.7hPa | 2.5V | 03:00:40 | 02:22:25 | 00:00:00 | |
| BIOWL1-15 | 2026-09-01 12:51:29 | 52.90112 | 10.82332 | 0° | 0km/h | 32041m | 0m/s | -36.9°C | 13.6% | 334.4hPa | 2.6V | 03:00:40 | 02:22:19 | 00:00:00 | |
| AA1-15 | 2026-09-01 12:51:27 | 52.90112 | 10.82332 | 0° | 0km/h | 32041m | 0m/s | -37.1°C | 13.5% | 333.5hPa | 2.5V | 03:00:40 | 02:22:17 | 00:00:00 | |
| DB0DAN | 2026-09-01 12:51:25 | 52.90112 | 10.82332 | 0° | 0km/h | 32041m | 0m/s | -37.1°C | 10.2% | 332.73hPa | 2.5V | 00:00:00 | 00:00:00 | 00:00:00 | |
| DL1XH-west | 2026-09-01 12:51:25 | 52.90112 | 10.82332 | 0° | 0km/h | 32041m | 0m/s | -37.1°C | 13.4% | 332.7hPa | 2.5V | 03:00:40 | 02:22:15 | 00:00:00 | |
| TFSTFS | 2026-09-01 12:51:24 | 52.90112 | 10.82332 | 0° | 0km/h | 32041m | 0.0m/s | -37.1°C | 10.2% | 332.7hPa | 2.6V | 03:00:00 | 00:00:00 | 00:00:00 | |
| BIOWL1-15 | 2026-09-01 12:51:19 | 52.90112 | 10.82332 | 0° | 0km/h | 32041m | 0m/s | -37.5°C | 12.9% | 330.4hPa | 2.6V | 03:00:40 | 02:22:09 | 00:00:00 | |
| DF8AY | 2026-09-01 12:51:18 | 52.90112 | 10.82332 | 0° | 0km/h | 32041m | 0m/s | -37.5°C | 12.7% | 330hPa | 2.6V | 03:00:40 | 02:22:08 | 00:00:00 | |
| AP2371 | 2026-09-01 12:51:18 | 52.90112 | 10.82332 | 0° | 0km/h | 32041m | 0.0m/s | -37.5°C | 10.0% | 330.0hPa | 2.5V | 00:00:00 | 00:00:00 | 00:00:00 | |
| AA1-15 | 2026-09-01 12:51:16 | 52.90112 | 10.82332 | 0° | 0km/h | 32041m | 0m/s | -37.7°C | 12.7% | 329.2hPa | 2.5V | 03:00:40 | 02:22:06 | 00:00:00 | |
| DL1XH-west | 2026-09-01 12:51:14 | 52.90112 | 10.82332 | 0° | 0km/h | 32041m | 0m/s | -37.8°C | 12.5% | 328.5hPa | 2.5V | 03:00:40 | 02:22:04 | 00:00:00 | |
| DB0DAN | 2026-09-01 12:51:10 | 52.90112 | 10.82332 | 0° | 0km/h | 32041m | 0m/s | -37.9°C | 8.8% | 327.05hPa | 2.5V | 00:00:00 | 00:00:00 | 00:00:00 | |
| BIOWL1-15 | 2026-09-01 12:51:09 | 52.90112 | 10.82332 | 0° | 0km/h | 32041m | 0m/s | -37.9°C | 11.4% | 326.8hPa | 2.5V | 03:00:40 | 02:21:59 | 00:00:00 | |
| DF8AY | 2026-09-01 12:51:08 | 52.90112 | 10.82332 | 0° | 0km/h | 32041m | 0m/s | -37.9°C | 11.3% | 326.3hPa | 2.5V | 03:00:40 | 02:21:58 | 00:00:00 | |
| DL4BBY-15 | 2026-09-01 12:51:08 | 52.90112 | 10.82332 | 0° | 0km/h | 32041m | 0.0m/s | -36.9°C | 0% | 0hPa | 2.6V | 00:00:00 | 00:00:00 | 00:00:00 | |
| AA1-15 | 2026-09-01 12:51:05 | 52.90112 | 10.82332 | 0° | 0km/h | 32041m | 0m/s | -37.9°C | 11.3% | 325.3hPa | 2.6V | 03:01:31 | 02:21:55 | 00:00:00 | |
| TFSTFS | 2026-09-01 12:51:04 | 52.90112 | 10.82332 | 0° | 0km/h | 32041m | 0.0m/s | -37.9°C | 8.6% | 324.8hPa | 2.5V | 00:00:00 | 00:00:00 | 00:00:00 | |
| DL1XH-west | 2026-09-01 12:51:03 | 52.90112 | 10.82332 | 0° | 0km/h | 32041m | 0m/s | -38°C | 11.2% | 324.5hPa | 2.5V | 03:01:31 | 02:21:53 | 00:00:00 | |
| BIOWL1-15 | 2026-09-01 12:50:59 | 52.90112 | 10.82332 | 0° | 0km/h | 32041m | 0m/s | -38.5°C | 11.2% | 320.9hPa | 2.5V | 03:01:31 | 02:21:43 | 00:00:00 | |
| DF8AY | 2026-09-01 12:50:58 | 52.90112 | 10.82332 | 0° | 0km/h | 32041m | 0m/s | -38.2°C | 11.2% | 322.6hPa | 2.5V | 03:01:31 | 02:21:48 | 00:00:00 | |
| DB0DAN | 2026-09-01 12:50:55 | 52.90112 | 10.82332 | 0° | 0km/h | 32041m | 0m/s | -38.4°C | 8.6% | 321.62hPa | 2.6V | 00:00:00 | 00:00:00 | 00:00:00 | |
| AA1-15 | 2026-09-01 12:50:55 | 52.90112 | 10.82332 | 0° | 0km/h | 32041m | 0m/s | -38.4°C | 11.2% | 321.6hPa | 2.6V | 03:01:31 | 02:21:45 | 00:00:00 | |
| SMARD9-10 | 2026-09-01 12:50:53 | 52.90112 | 10.82332 | 0° | 0km/h | 32041m | 0.0m/s | -38.4°C | 8.7% | 321.3hPa | 2.5V | 00:00:00 | 00:00:00 | 00:00:00 | |
| DL1XH-west | 2026-09-01 12:50:52 | 52.90112 | 10.82332 | 0° | 0km/h | 32041m | 0m/s | -38.5°C | 11.2% | 320.5hPa | 2.5V | 03:01:31 | 02:21:42 | 00:00:00 | |
| BIOWL1-15 | 2026-09-01 12:50:49 | 52.90112 | 10.82332 | 0° | 0km/h | 32041m | 0m/s | -38.6°C | 11.1% | 318.7hPa | 2.5V | 03:01:31 | 02:21:37 | 00:00:00 | |
| DF8AY | 2026-09-01 12:50:48 | 52.90112 | 10.82332 | 0° | 0km/h | 32041m | 0m/s | -38.6°C | 11.1% | 318.9hPa | 2.6V | 03:01:31 | 02:21:38 | 00:00:00 | |
| AA1-15 | 2026-09-01 12:50:44 | 52.90112 | 10.82332 | 0° | 0km/h | 32041m | 0m/s | -38.8°C | 11.3% | 317.6hPa | 2.6V | 03:01:31 | 02:21:34 | 00:00:00 | |
| DL1XH-west | 2026-09-01 12:50:41 | 52.90112 | 10.82332 | 0° | 0km/h | 32041m | 0m/s | -39°C | 11.7% | 316.5hPa | 2.6V | 03:01:31 | 02:21:31 | 00:00:00 | |
| DB0DAN | 2026-09-01 12:50:40 | 52.90112 | 10.82332 | 0° | 0km/h | 32041m | 0m/s | -39.1°C | 9% | 316.03hPa | 2.6V | 00:00:00 | 00:00:00 | 00:00:00 | |
| DF8AY | 2026-09-01 12:50:38 | 52.90112 | 10.82332 | 0° | 0km/h | 32041m | 0m/s | -39.2°C | 12.5% | 315.3hPa | 2.5V | 03:01:31 | 02:21:28 | 00:00:00 | |
| DL4BBY-15 | 2026-09-01 12:50:38 | 52.90112 | 10.82332 | 0° | 0km/h | 32041m | 0.0m/s | -38.1°C | 0% | 0hPa | 2.5V | 00:00:00 | 00:00:00 | 00:00:00 | |
| AP2371 | 2026-09-01 12:50:37 | 52.90112 | 10.82332 | 0° | 0km/h | 32041m | 0.0m/s | -39.2°C | 9.4% | 315.3hPa | 2.5V | 00:00:00 | 00:00:00 | 00:00:00 | |
| BIOWL1-15 | 2026-09-01 12:50:36 | 52.90112 | 10.82332 | 0° | 0km/h | 32041m | 0m/s | -39.2°C | 13.4% | 314.6hPa | 2.5V | 03:01:31 | 02:21:26 | 00:00:00 | |
| DL1LOL-11 | 2026-09-01 12:50:34 | 52.90112 | 10.82332 | 0° | 0km/h | 32041m | 0.0m/s | -39.3°C | 10.5% | 314.2hPa | 2.6V | 00:00:00 | 00:00:00 | 00:00:00 | |
| AA1-15 | 2026-09-01 12:50:33 | 52.90112 | 10.82332 | 0° | 0km/h | 32041m | 0m/s | -39.4°C | 14.9% | 313.5hPa | 2.6V | 03:01:31 | 02:21:23 | 00:00:00 | |
| DL1XH-west | 2026-09-01 12:50:31 | 52.90112 | 10.82332 | 0° | 0km/h | 32041m | 0m/s | -39.5°C | 15.7% | 312.7hPa | 2.5V | 03:01:31 | 02:21:21 | 00:00:00 | |
| DF8AY | 2026-09-01 12:50:29 | 52.90112 | 10.82332 | 0° | 0km/h | 32041m | 0m/s | -39.7°C | 16.5% | 311.5hPa | 2.6V | 03:01:31 | 02:21:18 | 00:00:00 | |
| BIOWL1-15 | 2026-09-01 12:50:26 | 52.90112 | 10.82332 | 0° | 0km/h | 32041m | 0m/s | -39.9°C | 17.1% | 310.8hPa | 2.5V | 03:01:31 | 02:21:16 | 00:00:00 | |
| DB0DAN | 2026-09-01 12:50:25 | 52.90112 | 10.82332 | 0° | 0km/h | 32041m | 0m/s | -39.9°C | 13.3% | 310.43hPa | 2.5V | 00:00:00 | 00:00:00 | 00:00:00 | |
| AA1-15 | 2026-09-01 12:50:22 | 52.90112 | 10.82332 | 0° | 0km/h | 32041m | 0m/s | -40.2°C | 18.3% | 309.3hPa | 2.5V | 03:01:31 | 02:21:12 | 00:00:00 | |
| DL1XH-west | 2026-09-01 12:50:21 | 52.90112 | 10.82332 | 0° | 0km/h | 32041m | 0m/s | -40.3°C | 18.6% | 308.9hPa | 2.5V | 03:01:31 | 02:21:11 | 00:00:00 | |
| TFSTFS | 2026-09-01 12:50:19 | 52.90112 | 10.82332 | 0° | 0km/h | 32041m | 0.0m/s | -40.4°C | 14.3% | 308.5hPa | 2.5V | 00:00:00 | 00:00:00 | 00:00:00 | |
| BIOWL1-15 | 2026-09-01 12:50:18 | 52.90112 | 10.82332 | 0° | 0km/h | 32041m | 0m/s | -40.6°C | 20.5% | 307.1hPa | 2.5V | 03:01:31 | 02:21:06 | 00:00:00 | |
| DF8AY | 2026-09-01 12:50:17 | 52.90112 | 10.82332 | 0° | 0km/h | 32041m | 0m/s | -40.6°C | 20% | 307.4hPa | 2.5V | 03:01:31 | 02:21:07 | 00:00:00 | |
| AA1-15 | 2026-09-01 12:50:11 | 52.90112 | 10.82332 | 0° | 0km/h | 32041m | 0m/s | -40.9°C | 22.3% | 305.2hPa | 2.5V | 03:02:22 | 02:21:01 | 00:00:00 | |
| DB0DAN | 2026-09-01 12:50:10 | 52.90112 | 10.82332 | 0° | 0km/h | 32041m | 0m/s | -41°C | 16.9% | 304.92hPa | 2.5V | 00:00:00 | 00:00:00 | 00:00:00 | |
| DL1XH-west | 2026-09-01 12:50:10 | 52.90112 | 10.82332 | 0° | 0km/h | 32041m | 0m/s | -41°C | 22.6% | 304.9hPa | 2.5V | 03:02:22 | 02:21:00 | 00:00:00 | |
| DF7ER-10 | 2026-09-01 12:50:09 | 52.89964 | 10.82188 | 53° | 15km/h | 31913m | 5.5m/s | -41.1°C | 17.3% | 304.4hPa | 2.6V | 03:02:00 | 00:00:00 | 00:00:00 | |
| DL4BBY-15 | 2026-09-01 12:50:08 | 52.90112 | 10.82332 | 0° | 0km/h | 32041m | 0.0m/s | -40.1°C | 0% | 0hPa | 2.6V | 00:00:00 | 00:00:00 | 00:00:00 | |
| DF8AY | 2026-09-01 12:50:07 | 52.90112 | 10.82332 | 0° | 0km/h | 32041m | 0m/s | -41.2°C | 23.8% | 303.6hPa | 2.6V | 03:02:22 | 02:20:57 | 00:00:00 | |
| BIOWL1-15 | 2026-09-01 12:50:05 | 52.90112 | 10.82332 | 0° | 0km/h | 32041m | 0m/s | -41.4°C | 24.5% | 302.2hPa | 2.5V | 03:02:22 | 02:20:54 | 00:00:00 | |
| AA1-15 | 2026-09-01 12:50:00 | 52.90112 | 10.82332 | 0° | 0km/h | 32041m | 0m/s | -41.8°C | 25.3% | 300.6hPa | 2.5V | 03:02:22 | 02:20:50 | 00:00:00 | |
| AP2371 | 2026-09-01 12:49:59 | 52.90112 | 10.82332 | 0° | 0km/h | 32041m | 0.0m/s | -41.8°C | 19.3% | 300.6hPa | 2.5V | 03:02:00 | 00:00:00 | 00:00:00 | |
| DL1XH-west | 2026-09-01 12:49:58 | 52.90112 | 10.82332 | 0° | 0km/h | 32041m | 0m/s | -42.1°C | 25.6% | 299.3hPa | 2.5V | 03:02:22 | 02:20:47 | 00:00:00 | |
| DF8AY | 2026-09-01 12:49:57 | 52.90112 | 10.82332 | 0° | 0km/h | 32041m | 0m/s | -42.2°C | 25.8% | 298.9hPa | 2.5V | 03:02:22 | 02:20:46 | 00:00:00 | |
| BIOWL1-15 | 2026-09-01 12:49:56 | 52.90112 | 10.82332 | 0° | 0km/h | 32041m | 0m/s | -42.3°C | 25.8% | 298hPa | 2.6V | 03:02:22 | 02:20:44 | 00:00:00 | |
| MECKS9 | 2026-09-01 12:49:56 | 52.89986 | 10.82197 | 71° | 27km/h | 31845m | 6.0m/s | -42.1°C | 19.4% | 299.3hPa | 2.6V | 00:00:00 | 00:00:00 | 00:00:00 | |
| DB0DAN | 2026-09-01 12:49:55 | 52.90112 | 10.82332 | 0° | 0km/h | 32041m | 0m/s | -42.2°C | 19.6% | 298.37hPa | 2.6V | 00:00:00 | 00:00:00 | 00:00:00 | |
| DL1LOL-11 | 2026-09-01 12:49:53 | 52.90112 | 10.82332 | 0° | 0km/h | 32041m | 0.0m/s | -42.3°C | 19.6% | 298.0hPa | 2.5V | 00:00:00 | 00:00:00 | 00:00:00 | |
| DF8AY | 2026-09-01 12:49:51 | 52.90112 | 10.82332 | 0° | 0km/h | 32041m | 0m/s | -43°C | 26.1% | 294.5hPa | 2.5V | 03:02:22 | 02:20:36 | 00:00:00 | |
| SMARD9-10 | 2026-09-01 12:49:50 | 52.90112 | 10.82332 | 0° | 0km/h | 32041m | 0.0m/s | -42.6°C | 19.9% | 296.5hPa | 2.6V | 00:00:00 | 00:00:00 | 00:00:00 | |
| AA1-15 | 2026-09-01 12:49:49 | 52.90112 | 10.82332 | 0° | 0km/h | 32041m | 0m/s | -42.8°C | 26.1% | 295.3hPa | 2.6V | 03:02:22 | 02:20:38 | 00:00:00 | |
| DL2RXE-15 | 2026-09-01 12:49:48 | 52.90112 | 10.82332 | 0° | 0km/h | 32041m | 0.0m/s | -42.8°C | 20.1% | 295.7hPa | 2.6V | 00:00:00 | 00:00:00 | 00:00:00 | |
| DL1XH-west | 2026-09-01 12:49:47 | 52.90112 | 10.82332 | 0° | 0km/h | 32041m | 0m/s | -42.9°C | 26.1% | 294.9hPa | 2.6V | 03:02:22 | 02:20:37 | 00:00:00 | |
| BIOWL1-15 | 2026-09-01 12:49:43 | 52.90112 | 10.82332 | 0° | 0km/h | 32041m | 0m/s | -43.2°C | 25.7% | 293.2hPa | 2.6V | 03:02:22 | 02:20:33 | 00:00:00 | |
| AA1-15 | 2026-09-01 12:49:39 | 52.90112 | 10.82332 | 0° | 0km/h | 32041m | 0m/s | -43.7°C | 25.1% | 290.6hPa | 2.6V | 03:02:22 | 02:20:27 | 00:00:00 | |
| DL4BBY-15 | 2026-09-01 12:49:38 | 52.90112 | 10.82332 | 0° | 0km/h | 32041m | 0.0m/s | -42.6°C | 0% | 0hPa | 2.5V | 00:00:00 | 00:00:00 | 00:00:00 | |
| DL1XH-west | 2026-09-01 12:49:36 | 52.90112 | 10.82332 | 0° | 0km/h | 32041m | 0m/s | -43.8°C | 25.2% | 289.7hPa | 2.5V | 03:02:22 | 02:20:25 | 00:00:00 | |
| BIOWL1-15 | 2026-09-01 12:49:33 | 52.90112 | 10.82332 | 0° | 0km/h | 32041m | 0m/s | -43.9°C | 25.5% | 288.8hPa | 2.6V | 03:02:22 | 02:20:23 | 00:00:00 | |
| AA1-15 | 2026-09-01 12:49:29 | 52.90112 | 10.82332 | 0° | 0km/h | 32041m | 0m/s | -44.2°C | 28.5% | 285.9hPa | 2.5V | 03:02:22 | 02:20:17 | 00:00:00 | |
| DL1XH-west | 2026-09-01 12:49:26 | 52.90112 | 10.82332 | 0° | 0km/h | 32041m | 0m/s | -44.3°C | 29.1% | 285.5hPa | 2.5V | 03:02:22 | 02:20:16 | 00:00:00 | |
| DB0DAN | 2026-09-01 12:49:25 | 52.90112 | 10.82332 | 0° | 0km/h | 32041m | 0m/s | -44.4°C | 22.7% | 285.01hPa | 2.5V | 00:00:00 | 00:00:00 | 00:00:00 | |
| DF8AY | 2026-09-01 12:49:23 | 52.90112 | 10.82332 | 0° | 0km/h | 32041m | 0m/s | -44.5°C | 31.1% | 284.1hPa | 2.6V | 03:03:13 | 02:20:13 | 00:00:00 | |
| BIOWL1-15 | 2026-09-01 12:49:22 | 52.90112 | 10.82332 | 0° | 0km/h | 32041m | 0m/s | -44.6°C | 31.9% | 283.6hPa | 2.6V | 03:03:13 | 02:20:12 | 00:00:00 | |
| AA1-15 | 2026-09-01 12:49:18 | 52.90112 | 10.82332 | 0° | 0km/h | 32041m | 0m/s | -45°C | 35% | 281.7hPa | 2.6V | 03:03:13 | 02:20:08 | 00:00:00 | |
| DL1XH-west | 2026-09-01 12:49:16 | 52.90112 | 10.82332 | 0° | 0km/h | 32041m | 0m/s | -45.2°C | 37.3% | 280.8hPa | 2.6V | 03:03:13 | 02:20:06 | 00:00:00 | |
| BIOWL1-15 | 2026-09-01 12:49:15 | 52.90112 | 10.82332 | 0° | 0km/h | 32041m | 0m/s | -45.7°C | 42% | 278.4hPa | 2.5V | 03:03:13 | 02:20:01 | 00:00:00 | |
| DF8AY | 2026-09-01 12:49:12 | 52.90112 | 10.82332 | 0° | 0km/h | 32041m | 0m/s | -45.6°C | 40.9% | 278.8hPa | 2.6V | 03:03:13 | 02:20:02 | 00:00:00 | |
| DB0DAN | 2026-09-01 12:49:10 | 52.90112 | 10.82332 | 0° | 0km/h | 32041m | 0m/s | -45.8°C | 33.9% | 277.84hPa | 2.5V | 00:00:00 | 00:00:00 | 00:00:00 | |
| AA1-15 | 2026-09-01 12:49:08 | 52.90112 | 10.82332 | 0° | 0km/h | 32041m | 0m/s | -46.1°C | 45.3% | 276.3hPa | 2.5V | 03:03:13 | 02:19:57 | 00:00:00 | |
| DL1XH-west | 2026-09-01 12:49:05 | 52.90112 | 10.82332 | 0° | 0km/h | 32041m | 0m/s | -46.3°C | 46.4% | 275.3hPa | 2.6V | 03:03:13 | 02:19:55 | 00:00:00 | |
| DF7ER-10 | 2026-09-01 12:49:04 | 52.89964 | 10.82188 | 53° | 15km/h | 31913m | 5.5m/s | -46.3°C | 36.7% | 275.3hPa | 2.5V | 03:03:00 | 00:00:00 | 00:00:00 | |
| SMARD9-10 | 2026-09-01 12:49:03 | 52.90112 | 10.82332 | 0° | 0km/h | 32041m | 0.0m/s | -46.4°C | 37.1% | 274.6hPa | 2.5V | 00:00:00 | 00:00:00 | 00:00:00 | |
| DF8AY | 2026-09-01 12:49:02 | 52.90112 | 10.82332 | 0° | 0km/h | 32041m | 0m/s | -46.6°C | 46.7% | 273.5hPa | 2.5V | 03:03:13 | 02:19:52 | 00:00:00 | |
| BIOWL1-15 | 2026-09-01 12:49:01 | 52.90112 | 10.82332 | 0° | 0km/h | 32041m | 0m/s | -46.7°C | 46.8% | 273.1hPa | 2.5V | 03:03:13 | 02:19:51 | 00:00:00 | |
| TFSTFS | 2026-09-01 12:48:58 | 52.90112 | 10.82332 | 0° | 0km/h | 32041m | 0.0m/s | -46.9°C | 38.1% | 272.1hPa | 2.6V | 03:03:00 | 00:00:00 | 00:00:00 | |
| AA1-15 | 2026-09-01 12:48:57 | 52.90112 | 10.82332 | 0° | 0km/h | 32041m | 0m/s | -47.1°C | 46.6% | 271.3hPa | 2.6V | 03:03:13 | 02:19:47 | 00:00:00 | |
| DB0DAN | 2026-09-01 12:48:55 | 52.90112 | 10.82332 | 0° | 0km/h | 32041m | 0m/s | -47.3°C | 37.5% | 270.38hPa | 2.5V | 00:00:00 | 00:00:00 | 00:00:00 | |
| DL1XH-west | 2026-09-01 12:48:53 | 52.90112 | 10.82332 | 0° | 0km/h | 32041m | 0m/s | -47.5°C | 46.6% | 269.4hPa | 2.6V | 03:03:13 | 02:19:43 | 00:00:00 | |
| BIOWL1-15 | 2026-09-01 12:48:52 | 52.90112 | 10.82332 | 0° | 0km/h | 32041m | 0m/s | -47.7°C | 45.8% | 267.9hPa | 2.5V | 03:03:13 | 02:19:40 | 00:00:00 | |
| DF8AY | 2026-09-01 12:48:51 | 52.90112 | 10.82332 | 0° | 0km/h | 32041m | 0m/s | -47.6°C | 46.1% | 268.4hPa | 2.6V | 03:03:13 | 02:19:41 | 00:00:00 | |
| AA1-15 | 2026-09-01 12:48:47 | 52.90112 | 10.82332 | 0° | 0km/h | 32041m | 0m/s | -48.2°C | 46.2% | 265.6hPa | 2.5V | 03:03:13 | 02:19:35 | 00:00:00 | |
| DL1XH-west | 2026-09-01 12:48:42 | 52.90112 | 10.82332 | 0° | 0km/h | 32041m | 0m/s | -48.5°C | 46.3% | 264.1hPa | 2.5V | 03:03:13 | 02:19:32 | 00:00:00 | |
| DF8AY | 2026-09-01 12:48:41 | 52.90112 | 10.82332 | 0° | 0km/h | 32041m | 0m/s | -48.6°C | 46.5% | 263.6hPa | 2.5V | 03:03:13 | 02:19:31 | 00:00:00 | |
| DB0DAN | 2026-09-01 12:48:40 | 52.90112 | 10.82332 | 0° | 0km/h | 32041m | 0m/s | -48.7°C | 37.3% | 263.1hPa | 2.6V | 00:00:00 | 00:00:00 | 00:00:00 | |
| BIOWL1-15 | 2026-09-01 12:48:40 | 52.90112 | 10.82332 | 0° | 0km/h | 32041m | 0m/s | -48.7°C | 46.9% | 263.1hPa | 2.6V | 03:03:13 | 02:19:30 | 00:00:00 | |
| DL4BBY-15 | 2026-09-01 12:48:38 | 52.90112 | 10.82332 | 0° | 0km/h | 32041m | 0.0m/s | -47.9°C | 0% | 0hPa | 2.6V | 00:00:00 | 00:00:00 | 00:00:00 | |
| AA1-15 | 2026-09-01 12:48:34 | 52.90112 | 10.82332 | 0° | 0km/h | 32041m | 0m/s | -49.4°C | 48.9% | 259.6hPa | 2.6V | 03:04:04 | 02:19:23 | 00:00:00 | |
| DL1XH-west | 2026-09-01 12:48:32 | 52.90112 | 10.82332 | 0° | 0km/h | 32041m | 0m/s | -49.5°C | 49.2% | 259.2hPa | 2.6V | 03:04:04 | 02:19:22 | 00:00:00 | |
| BIOWL1-15 | 2026-09-01 12:48:30 | 52.90112 | 10.82332 | 0° | 0km/h | 32041m | 0m/s | -49.6°C | 49.6% | 258.3hPa | 2.5V | 03:04:04 | 02:19:20 | 00:00:00 | |
| DL1LOL-11 | 2026-09-01 12:48:29 | 52.90112 | 10.82332 | 0° | 0km/h | 32041m | 0.0m/s | -49.6°C | 39.8% | 258.3hPa | 2.6V | 03:04:00 | 00:00:00 | 00:00:00 | |
| AA1-15 | 2026-09-01 12:48:24 | 52.90112 | 10.82332 | 0° | 0km/h | 32041m | 0m/s | -50°C | 51% | 255.4hPa | 2.6V | 03:04:04 | 02:19:13 | 00:00:00 | |
| DL1XH-west | 2026-09-01 12:48:21 | 52.90112 | 10.82332 | 0° | 0km/h | 32041m | 0m/s | -50.4°C | 52.8% | 253.7hPa | 2.6V | 03:04:04 | 02:19:09 | 00:00:00 | |
| BIOWL1-15 | 2026-09-01 12:48:20 | 52.90112 | 10.82332 | 0° | 0km/h | 32041m | 0m/s | -50.5°C | 53.3% | 253.3hPa | 2.6V | 03:04:04 | 02:19:08 | 00:00:00 | |
| DF8AY | 2026-09-01 12:48:20 | 52.90112 | 10.82332 | 0° | 0km/h | 32041m | 0m/s | -50.8°C | 54.1% | 252hPa | 2.5V | 03:04:04 | 02:19:05 | 00:00:00 | |
| TFSTFS | 2026-09-01 12:48:16 | 52.90112 | 10.82332 | 0° | 0km/h | 32041m | 0.0m/s | -50.6°C | 42.5% | 252.8hPa | 2.6V | 00:00:00 | 00:00:00 | 00:00:00 | |
| AA1-15 | 2026-09-01 12:48:13 | 52.90112 | 10.82332 | 0° | 0km/h | 32041m | 0m/s | -50.9°C | 54.7% | 251.2hPa | 2.6V | 03:04:04 | 02:19:03 | 00:00:00 | |
| DL1XH-west | 2026-09-01 12:48:11 | 52.90112 | 10.82332 | 0° | 0km/h | 32041m | 0m/s | -51.1°C | 55.9% | 250.2hPa | 2.6V | 03:04:04 | 02:19:01 | 00:00:00 | |
| DB0DAN | 2026-09-01 12:48:10 | 52.90112 | 10.82332 | 0° | 0km/h | 32041m | 0m/s | -51.2°C | 44.8% | 249.89hPa | 2.5V | 00:00:00 | 00:00:00 | 00:00:00 | |
| BIOWL1-15 | 2026-09-01 12:48:09 | 52.90112 | 10.82332 | 0° | 0km/h | 32041m | 0m/s | -51.3°C | 56.7% | 249.4hPa | 2.5V | 03:04:04 | 02:18:59 | 00:00:00 | |
| DL4BBY-15 | 2026-09-01 12:48:08 | 52.90112 | 10.82332 | 0° | 0km/h | 32041m | 0.0m/s | -50.5°C | 0% | 0hPa | 2.6V | 00:00:00 | 00:00:00 | 00:00:00 | |
| DF8AY | 2026-09-01 12:48:06 | 52.90112 | 10.82332 | 0° | 0km/h | 32041m | 0m/s | -51.6°C | 57.4% | 248hPa | 2.6V | 03:04:04 | 02:18:56 | 00:00:00 | |
| AA1-15 | 2026-09-01 12:48:02 | 52.90112 | 10.82332 | 0° | 0km/h | 32041m | 0m/s | -52°C | 58.3% | 246.3hPa | 2.6V | 03:04:04 | 02:18:52 | 00:00:00 | |
| AP2371 | 2026-09-01 12:48:02 | 52.90112 | 10.82332 | 0° | 0km/h | 32041m | 0.0m/s | -51.9°C | 47.1% | 246.7hPa | 2.6V | 00:00:00 | 00:00:00 | 00:00:00 | |
| DL1XH-west | 2026-09-01 12:48:01 | 52.90112 | 10.82332 | 0° | 0km/h | 32041m | 0m/s | -52.1°C | 58.4% | 245.9hPa | 2.6V | 03:04:04 | 02:18:51 | 00:00:00 | |
| BIOWL1-15 | 2026-09-01 12:47:59 | 52.90112 | 10.82332 | 0° | 0km/h | 32041m | 0m/s | -53.3°C | 58.4% | 241.2hPa | 2.6V | 03:04:04 | 02:18:42 | 00:00:00 | |
| DL2RXE-15 | 2026-09-01 12:47:56 | 52.90112 | 10.82332 | 0° | 0km/h | 32041m | 0.0m/s | -52.7°C | 47.0% | 243.3hPa | 2.5V | 00:00:00 | 00:00:00 | 00:00:00 | |
| DF8AY | 2026-09-01 12:47:55 | 52.90112 | 10.82332 | 0° | 0km/h | 32041m | 0m/s | -52.9°C | 58.7% | 242.7hPa | 2.5V | 03:04:04 | 02:18:45 | 00:00:00 | |
| DB0DAN | 2026-09-01 12:47:55 | 52.90112 | 10.82332 | 0° | 0km/h | 32041m | 0m/s | -52.9°C | 47.3% | 242.73hPa | 2.5V | 00:00:00 | 00:00:00 | 00:00:00 | |
| TFSTFS | 2026-09-01 12:47:53 | 52.90112 | 10.82332 | 0° | 0km/h | 32041m | 0.0m/s | -53.0°C | 47.4% | 242.2hPa | 2.6V | 00:00:00 | 00:00:00 | 00:00:00 | |
| SMARD9-10 | 2026-09-01 12:47:52 | 52.90112 | 10.82332 | 0° | 0km/h | 32041m | 0.0m/s | -53.1°C | 47.6% | 241.7hPa | 2.6V | 00:00:00 | 00:00:00 | 00:00:00 | |
| DL1XH-west | 2026-09-01 12:47:51 | 52.90112 | 10.82332 | 0° | 0km/h | 32041m | 0m/s | -53.4°C | 58.1% | 240.8hPa | 2.6V | 03:04:04 | 02:18:41 | 00:00:00 | |
| BIOWL1-15 | 2026-09-01 12:47:48 | 52.90112 | 10.82332 | 0° | 0km/h | 32041m | 0m/s | -53.8°C | 56.8% | 238.7hPa | 2.5V | 03:04:04 | 02:18:37 | 00:00:00 | |
| DF8AY | 2026-09-01 12:47:45 | 52.90112 | 10.82332 | 0° | 0km/h | 32041m | 0m/s | -54°C | 56.1% | 237.6hPa | 2.6V | 03:04:04 | 02:18:35 | 00:00:00 | |
| DB0DAN | 2026-09-01 12:47:40 | 52.90112 | 10.82332 | 0° | 0km/h | 32041m | 0m/s | -54.6°C | 44.1% | 235.01hPa | 2.6V | 00:00:00 | 00:00:00 | 00:00:00 | |
| DL1XH-west | 2026-09-01 12:47:40 | 52.90112 | 10.82332 | 0° | 0km/h | 32041m | 0m/s | -54.6°C | 54.2% | 235hPa | 2.6V | 03:04:55 | 02:18:30 | 00:00:00 | |
| BIOWL1-15 | 2026-09-01 12:47:38 | 52.90112 | 10.82332 | 0° | 0km/h | 32041m | 0m/s | -54.8°C | 53.4% | 234hPa | 2.5V | 03:04:55 | 02:18:28 | 00:00:00 | |
| DL4BBY-15 | 2026-09-01 12:47:38 | 52.90112 | 10.82332 | 0° | 0km/h | 32041m | 0.0m/s | -53.8°C | 0% | 0hPa | 2.6V | 00:00:00 | 00:00:00 | 00:00:00 | |
| DF8AY | 2026-09-01 12:47:34 | 52.90112 | 10.82332 | 0° | 0km/h | 32041m | 0m/s | -55.2°C | 50.6% | 231.3hPa | 2.6V | 03:04:55 | 02:18:23 | 00:00:00 | |
| TFSTFS | 2026-09-01 12:47:32 | 52.90112 | 10.82332 | 0° | 0km/h | 32041m | 0.0m/s | -55.2°C | 41.2% | 231.3hPa | 2.5V | 03:04:00 | 00:00:00 | 00:00:00 | |
| AA1-15 | 2026-09-01 12:47:30 | 52.90112 | 10.82332 | 0° | 0km/h | 32041m | 0m/s | -55.5°C | 48.4% | 229.8hPa | 2.5V | 03:04:55 | 02:18:20 | 00:00:00 | |
| BIOWL1-15 | 2026-09-01 12:47:28 | 52.90112 | 10.82332 | 0° | 0km/h | 32041m | 0m/s | -55.7°C | 47.2% | 228.7hPa | 2.6V | 03:04:55 | 02:18:18 | 00:00:00 | |
| DB0DAN | 2026-09-01 12:47:25 | 52.90112 | 10.82332 | 0° | 0km/h | 32041m | 0m/s | -55.8°C | 37% | 227.26hPa | 2.5V | 00:00:00 | 00:00:00 | 00:00:00 | |
| DF8AY | 2026-09-01 12:47:23 | 52.90112 | 10.82332 | 0° | 0km/h | 32041m | 0m/s | -56°C | 44.7% | 226.3hPa | 2.6V | 03:04:55 | 02:18:13 | 00:00:00 | |
| AP2371 | 2026-09-01 12:47:21 | 52.90112 | 10.82332 | 0° | 0km/h | 32041m | 0.0m/s | -56.1°C | 36.5% | 225.8hPa | 2.5V | 00:00:00 | 00:00:00 | 00:00:00 | |
| AA1-15 | 2026-09-01 12:47:20 | 52.90112 | 10.82332 | 0° | 0km/h | 32041m | 0m/s | -56.3°C | 43.2% | 224.4hPa | 2.5V | 03:04:55 | 02:18:09 | 00:00:00 | |
| DF7ER-10 | 2026-09-01 12:47:20 | 52.89964 | 10.82188 | 53° | 15km/h | 31913m | 5.5m/s | -56.2°C | 36.0% | 224.9hPa | 2.6V | 03:04:00 | 00:00:00 | 00:00:00 | |
| SMARD9-10 | 2026-09-01 12:47:19 | 52.90112 | 10.82332 | 0° | 0km/h | 32041m | 0.0m/s | -56.3°C | 36.0% | 224.4hPa | 2.6V | 03:04:00 | 00:00:00 | 00:00:00 | |
| DL1XH-west | 2026-09-01 12:47:18 | 52.90112 | 10.82332 | 0° | 0km/h | 32041m | 0m/s | -56.3°C | 42.8% | 223.9hPa | 2.6V | 03:04:55 | 02:18:08 | 00:00:00 | |
| BIOWL1-15 | 2026-09-01 12:47:17 | 52.90112 | 10.82332 | 0° | 0km/h | 32041m | 0m/s | -56.4°C | 42.5% | 223.4hPa | 2.6V | 03:04:55 | 02:18:07 | 00:00:00 | |
| DF8AY | 2026-09-01 12:47:13 | 52.90112 | 10.82332 | 0° | 0km/h | 32041m | 0m/s | -56.8°C | 40.3% | 221.5hPa | 2.5V | 03:04:55 | 02:18:03 | 00:00:00 | |
| TFSTFS | 2026-09-01 12:47:13 | 52.90112 | 10.82332 | 0° | 0km/h | 32041m | 0.0m/s | -56.8°C | 34.6% | 221.5hPa | 2.6V | 03:04:00 | 00:00:00 | 00:00:00 | |
| DB0DAN | 2026-09-01 12:47:10 | 52.90112 | 10.82332 | 0° | 0km/h | 32041m | 0m/s | -56.8°C | 32.9% | 220.01hPa | 2.6V | 00:00:00 | 00:00:00 | 00:00:00 | |
| DF7ER-10 | 2026-09-01 12:47:09 | 52.89964 | 10.82188 | 53° | 15km/h | 31913m | 5.5m/s | -56.8°C | 32.9% | 220.0hPa | 2.6V | 03:04:00 | 00:00:00 | 00:00:00 | |
| DL4BBY-15 | 2026-09-01 12:47:08 | 52.90112 | 10.82332 | 0° | 0km/h | 32041m | 0.0m/s | -55.7°C | 0% | 0hPa | 2.6V | 00:00:00 | 00:00:00 | 00:00:00 | |
| DL1XH-west | 2026-09-01 12:47:07 | 52.90112 | 10.82332 | 0° | 0km/h | 32041m | 0m/s | -56.6°C | 36.2% | 218.6hPa | 2.6V | 03:04:55 | 02:17:57 | 00:00:00 | |
| DF8AY | 2026-09-01 12:47:02 | 52.90112 | 10.82332 | 0° | 0km/h | 32041m | 0m/s | -57°C | 32.2% | 216.1hPa | 2.5V | 03:04:55 | 02:17:52 | 00:00:00 | |
| DF7ER-10 | 2026-09-01 12:46:59 | 52.89964 | 10.82188 | 53° | 15km/h | 31913m | 5.5m/s | -56.8°C | 24.7% | 215.2hPa | 2.6V | 03:04:00 | 00:00:00 | 00:00:00 | |
| DG6HD-15 | 2026-09-01 12:46:57 | 52.90112 | 10.82332 | 0° | 0km/h | 32041m | 0.0m/s | -56.2°C | 22.3% | 214.2hPa | 2.6V | 03:04:00 | 00:00:00 | 00:00:00 | |
| DL1XH-west | 2026-09-01 12:46:56 | 52.90112 | 10.82332 | 0° | 0km/h | 32041m | 0m/s | -55.8°C | 27% | 213.2hPa | 2.6V | 03:04:55 | 02:17:46 | 00:00:00 | |
| DB0DAN | 2026-09-01 12:46:55 | 52.90112 | 10.82332 | 0° | 0km/h | 32041m | 0m/s | -55.7°C | 20.2% | 212.84hPa | 2.6V | 00:00:00 | 00:00:00 | 00:00:00 | |
| DF8AY | 2026-09-01 12:46:51 | 52.90112 | 10.82332 | 0° | 0km/h | 32041m | 0m/s | -55.9°C | 24.6% | 211hPa | 2.6V | 03:05:46 | 02:17:41 | 00:00:00 | |
| TFSTFS | 2026-09-01 12:46:49 | 52.90112 | 10.82332 | 0° | 0km/h | 32041m | 0.0m/s | -56.0°C | 19.0% | 210.6hPa | 2.6V | 00:00:00 | 00:00:00 | 00:00:00 | |
| DF7ER-10 | 2026-09-01 12:46:48 | 52.89964 | 10.82188 | 53° | 15km/h | 31913m | 5.5m/s | -56.2°C | 19.0% | 210.0hPa | 2.6V | 03:05:00 | 00:00:00 | 00:00:00 | |
| TFSTFS | 2026-09-01 12:46:47 | 52.90112 | 10.82332 | 0° | 0km/h | 32041m | 0.0m/s | -56.2°C | 18.3% | 209.7hPa | 2.6V | 00:00:00 | 00:00:00 | 00:00:00 | |
| BIOWL1-15 | 2026-09-01 12:46:45 | 52.90112 | 10.82332 | 0° | 0km/h | 32041m | 0m/s | -56.5°C | 21.9% | 208.2hPa | 2.6V | 03:05:46 | 02:17:35 | 00:00:00 | |
| SMARD9-10 | 2026-09-01 12:46:45 | 52.90112 | 10.82332 | 0° | 0km/h | 32041m | 0.0m/s | -56.5°C | 17.8% | 208.2hPa | 2.6V | 00:00:00 | 00:00:00 | 00:00:00 | |
| DF8AY | 2026-09-01 12:46:40 | 52.90112 | 10.82332 | 0° | 0km/h | 32041m | 0m/s | -56.8°C | 18.9% | 205.9hPa | 2.6V | 03:05:46 | 02:17:30 | 00:00:00 | |
| DB0DAN | 2026-09-01 12:46:40 | 52.90112 | 10.82332 | 0° | 0km/h | 32041m | 0m/s | -56.8°C | 15.8% | 205.9hPa | 2.6V | 00:00:00 | 00:00:00 | 00:00:00 | |
| DL4BBY-15 | 2026-09-01 12:46:38 | 52.90112 | 10.82332 | 0° | 0km/h | 32041m | 0.0m/s | -55.9°C | 0% | 0hPa | 2.6V | 00:00:00 | 00:00:00 | 00:00:00 | |
| DG6HD-15 | 2026-09-01 12:46:37 | 52.90112 | 10.82332 | 0° | 0km/h | 32041m | 0.0m/s | -56.8°C | 14.8% | 205.0hPa | 2.6V | 00:00:00 | 00:00:00 | 00:00:00 | |
| DL1XH-west | 2026-09-01 12:46:35 | 52.90112 | 10.82332 | 0° | 0km/h | 32041m | 0m/s | -56.5°C | 15.2% | 203.6hPa | 2.6V | 03:05:46 | 02:17:25 | 00:00:00 | |
| MECKS9 | 2026-09-01 12:46:33 | 52.89986 | 10.82197 | 71° | 27km/h | 31845m | 6.0m/s | -56.2°C | 12.2% | 203.1hPa | 2.6V | 00:00:00 | 00:00:00 | 00:00:00 | |
| AP2371 | 2026-09-01 12:46:32 | 52.90112 | 10.82332 | 0° | 0km/h | 32041m | 0.0m/s | -56.1°C | 11.4% | 202.7hPa | 2.6V | 00:00:00 | 00:00:00 | 00:00:00 | |
| DF8AY | 2026-09-01 12:46:30 | 52.90112 | 10.82332 | 0° | 0km/h | 32041m | 0m/s | -55.7°C | 11.8% | 201.3hPa | 2.6V | 03:05:46 | 02:17:20 | 00:00:00 | |
| TFSTFS | 2026-09-01 12:46:29 | 52.90112 | 10.82332 | 0° | 0km/h | 32041m | 0.0m/s | -55.2°C | 9.1% | 200.9hPa | 2.6V | 00:00:00 | 00:00:00 | 00:00:00 | |
| TFSTFS | 2026-09-01 12:46:26 | 52.90112 | 10.82332 | 0° | 0km/h | 32041m | 0.0m/s | -55.0°C | 7.9% | 199.5hPa | 2.6V | 00:00:00 | 00:00:00 | 00:00:00 | |
| DB0DAN | 2026-09-01 12:46:25 | 52.90112 | 10.82332 | 0° | 0km/h | 32041m | 0m/s | -55°C | 7.6% | 198.99hPa | 2.6V | 00:00:00 | 00:00:00 | 00:00:00 | |
| DL1XH-west | 2026-09-01 12:46:24 | 52.90112 | 10.82332 | 0° | 0km/h | 32041m | 0m/s | -55°C | 8.7% | 198.5hPa | 2.6V | 03:05:46 | 02:17:14 | 00:00:00 | |
| BIOWL1-15 | 2026-09-01 12:46:23 | 52.90112 | 10.82332 | 0° | 0km/h | 32041m | 0m/s | -54.9°C | 8.1% | 198.1hPa | 2.5V | 03:05:46 | 02:17:13 | 00:00:00 | |
| DF8AY | 2026-09-01 12:46:20 | 52.90112 | 10.82332 | 0° | 0km/h | 32041m | 0m/s | -53.9°C | 6.7% | 196.7hPa | 2.6V | 03:05:46 | 02:17:10 | 00:00:00 | |
| DL1XH-west | 2026-09-01 12:46:14 | 52.90112 | 10.82332 | 0° | 0km/h | 32041m | 0m/s | -53.3°C | 5% | 193.9hPa | 2.6V | 03:05:46 | 02:17:04 | 00:00:00 | |
| AA1-15 | 2026-09-01 12:46:14 | 52.90112 | 10.82332 | 0° | 0km/h | 32041m | 0m/s | -53.2°C | 4.8% | 193.5hPa | 2.6V | 03:05:46 | 02:17:03 | 00:00:00 | |
| BIOWL1-15 | 2026-09-01 12:46:12 | 52.90112 | 10.82332 | 0° | 0km/h | 32041m | 0m/s | -52.7°C | 4.2% | 192.6hPa | 2.5V | 03:05:46 | 02:17:01 | 00:00:00 | |
| DB0DAN | 2026-09-01 12:46:10 | 52.90112 | 10.82332 | 0° | 0km/h | 32041m | 0m/s | -52.6°C | 3.7% | 192.15hPa | 2.5V | 00:00:00 | 00:00:00 | 00:00:00 | |
| DF8AY | 2026-09-01 12:46:09 | 52.90112 | 10.82332 | 0° | 0km/h | 32041m | 0m/s | -52.5°C | 3.9% | 191.8hPa | 2.6V | 03:05:46 | 02:16:59 | 00:00:00 | |
| DL4BBY-15 | 2026-09-01 12:46:08 | 52.90112 | 10.82332 | 0° | 0km/h | 32041m | 0.0m/s | -51.6°C | 0% | 0hPa | 2.6V | 00:00:00 | 00:00:00 | 00:00:00 | |
| TFSTFS | 2026-09-01 12:46:07 | 52.90112 | 10.82332 | 0° | 0km/h | 32041m | 0.0m/s | -52.5°C | 3.5% | 191.4hPa | 2.6V | 00:00:00 | 00:00:00 | 00:00:00 | |
| AA1-15 | 2026-09-01 12:46:04 | 52.90112 | 10.82332 | 0° | 0km/h | 32041m | 0m/s | -52.2°C | 3.1% | 189.1hPa | 2.6V | 03:05:46 | 02:16:53 | 00:00:00 | |
| BIOWL1-15 | 2026-09-01 12:46:02 | 52.90112 | 10.82332 | 0° | 0km/h | 32041m | 0m/s | -52.2°C | 2.9% | 188.6hPa | 2.6V | 03:05:46 | 02:16:52 | 00:00:00 | |
| DF8AY | 2026-09-01 12:45:59 | 52.90112 | 10.82332 | 0° | 0km/h | 32041m | 0m/s | -52.1°C | 2.4% | 187.4hPa | 2.5V | 03:06:37 | 02:16:49 | 00:00:00 | |
| DB0DAN | 2026-09-01 12:45:55 | 52.90112 | 10.82332 | 0° | 0km/h | 32041m | 0m/s | -51.7°C | 2.2% | 185.69hPa | 2.5V | 00:00:00 | 00:00:00 | 00:00:00 | |
| DG6HD-15 | 2026-09-01 12:45:54 | 52.90112 | 10.82332 | 0° | 0km/h | 32041m | 0.0m/s | -51.7°C | 2.2% | 185.7hPa | 2.6V | 03:06:00 | 00:00:00 | 00:00:00 | |
| DL1XH-west | 2026-09-01 12:45:52 | 52.90112 | 10.82332 | 0° | 0km/h | 32041m | 0m/s | -51.2°C | 1.4% | 184.4hPa | 2.6V | 03:06:37 | 02:16:42 | 00:00:00 | |
| BIOWL1-15 | 2026-09-01 12:45:52 | 52.90112 | 10.82332 | 0° | 0km/h | 32041m | 0m/s | -51.1°C | 1.3% | 184hPa | 2.5V | 03:06:37 | 02:16:41 | 00:00:00 | |
| AP2371 | 2026-09-01 12:45:51 | 52.90112 | 10.82332 | 0° | 0km/h | 32041m | 0.0m/s | -51.2°C | 2.0% | 184.4hPa | 2.6V | 03:06:00 | 00:00:00 | 00:00:00 | |
| DF8AY | 2026-09-01 12:45:49 | 52.90112 | 10.82332 | 0° | 0km/h | 32041m | 0m/s | -51.1°C | 1.2% | 183.1hPa | 2.6V | 03:06:37 | 02:16:39 | 00:00:00 | |
| TFSTFS | 2026-09-01 12:45:46 | 52.90112 | 10.82332 | 0° | 0km/h | 32041m | 0.0m/s | -51.1°C | 1.8% | 182.3hPa | 2.6V | 03:06:00 | 00:00:00 | 00:00:00 | |
| DL1XH-west | 2026-09-01 12:45:42 | 52.90112 | 10.82332 | 0° | 0km/h | 32041m | 0m/s | -51.5°C | 0.9% | 180.3hPa | 2.6V | 03:06:37 | 02:16:32 | 00:00:00 | |
| BIOWL1-15 | 2026-09-01 12:45:41 | 52.90112 | 10.82332 | 0° | 0km/h | 32041m | 0m/s | -51.5°C | 0.9% | 179.9hPa | 2.6V | 03:06:37 | 02:16:31 | 00:00:00 | |
| DB0DAN | 2026-09-01 12:45:40 | 52.90112 | 10.82332 | 0° | 0km/h | 32041m | 0m/s | -51.4°C | 1.7% | 179.41hPa | 2.5V | 00:00:00 | 00:00:00 | 00:00:00 | |
| DF8AY | 2026-09-01 12:45:38 | 52.90112 | 10.82332 | 0° | 0km/h | 32041m | 0m/s | -51.5°C | 0.8% | 178.6hPa | 2.6V | 03:06:37 | 02:16:28 | 00:00:00 | |
| DL4BBY-15 | 2026-09-01 12:45:38 | 52.90112 | 10.82332 | 0° | 0km/h | 32041m | 0.0m/s | -50.5°C | 0% | 0hPa | 2.6V | 00:00:00 | 00:00:00 | 00:00:00 | |
| DL2RXE-15 | 2026-09-01 12:45:37 | 52.90112 | 10.82332 | 0° | 0km/h | 32041m | 0.0m/s | -51.5°C | 1.6% | 178.6hPa | 2.6V | 00:00:00 | 00:00:00 | 00:00:00 | |
| SMARD9-10 | 2026-09-01 12:45:36 | 52.90112 | 10.82332 | 0° | 0km/h | 32041m | 0.0m/s | -51.5°C | 1.6% | 178.1hPa | 2.6V | 03:06:00 | 00:00:00 | 00:00:00 | |
| DF7ER-10 | 2026-09-01 12:45:34 | 52.89964 | 10.82188 | 53° | 15km/h | 31913m | 5.5m/s | -51.7°C | 1.6% | 177.4hPa | 2.6V | 03:06:00 | 00:00:00 | 00:00:00 | |
| DG6HD-15 | 2026-09-01 12:45:33 | 52.90112 | 10.82332 | 0° | 0km/h | 32041m | 0.0m/s | -51.8°C | 1.6% | 176.9hPa | 2.6V | 03:06:00 | 00:00:00 | 00:00:00 | |
| DL1XH-west | 2026-09-01 12:45:32 | 52.90112 | 10.82332 | 0° | 0km/h | 32041m | 0m/s | -51.9°C | 0.6% | 176.1hPa | 2.6V | 03:06:37 | 02:16:22 | 00:00:00 | |
| BIOWL1-15 | 2026-09-01 12:45:30 | 52.90112 | 10.82332 | 0° | 0km/h | 32041m | 0m/s | -51.8°C | 0.4% | 175.2hPa | 2.6V | 03:06:37 | 02:16:20 | 00:00:00 | |
| DF8AY | 2026-09-01 12:45:28 | 52.90112 | 10.82332 | 0° | 0km/h | 32041m | 0m/s | -51.4°C | 0.3% | 174.4hPa | 2.5V | 03:06:37 | 02:16:18 | 00:00:00 | |
| DF7ER-10 | 2026-09-01 12:45:23 | 52.89964 | 10.82188 | 53° | 15km/h | 31913m | 5.5m/s | -51.2°C | 1.3% | 172.7hPa | 2.6V | 03:06:00 | 00:00:00 | 00:00:00 | |
| DL1LOL-11 | 2026-09-01 12:45:22 | 52.90112 | 10.82332 | 0° | 0km/h | 32041m | 0.0m/s | -51.0°C | 1.2% | 172.3hPa | 2.6V | 00:00:00 | 00:00:00 | 00:00:00 | |
| DL1XH-west | 2026-09-01 12:45:21 | 52.90112 | 10.82332 | 0° | 0km/h | 32041m | 0m/s | -51°C | 0.1% | 169.4hPa | 2.6V | 03:06:37 | 02:16:06 | 00:00:00 | |
| AA1-15 | 2026-09-01 12:45:18 | 52.90112 | 10.82332 | 0° | 0km/h | 32041m | 0m/s | -51°C | 0% | 169hPa | 2.6V | 03:06:37 | 02:16:05 | 00:00:00 | |
| DF8AY | 2026-09-01 12:45:18 | 52.90112 | 10.82332 | 0° | 0km/h | 32041m | 0m/s | -51.4°C | 0% | 166.9hPa | 2.6V | 03:06:37 | 02:16:00 | 00:00:00 | |
| DG6HD-15 | 2026-09-01 12:45:14 | 52.90112 | 10.82332 | 0° | 0km/h | 32041m | 0.0m/s | -51.0°C | 1.2% | 168.6hPa | 2.6V | 03:06:00 | 00:00:00 | 00:00:00 | |
| DF7ER-10 | 2026-09-01 12:45:13 | 52.89964 | 10.82188 | 53° | 15km/h | 31913m | 5.5m/s | -51.0°C | 1.2% | 168.6hPa | 2.6V | 03:06:00 | 00:00:00 | 00:00:00 | |
| DB0DAN | 2026-09-01 12:45:10 | 52.90112 | 10.82332 | 0° | 0km/h | 32041m | 0m/s | -51.4°C | 1.2% | 166.95hPa | 2.6V | 00:00:00 | 00:00:00 | 00:00:00 | |
| DL1XH-west | 2026-09-01 12:45:09 | 52.90112 | 10.82332 | 0° | 0km/h | 32041m | 0m/s | -51.5°C | 0.1% | 166.6hPa | 2.6V | 03:07:28 | 02:15:59 | 00:00:00 | |
| DL4BBY-15 | 2026-09-01 12:45:08 | 52.90112 | 10.82332 | 0° | 0km/h | 32041m | 0.0m/s | -50.6°C | 0% | 0hPa | 2.5V | 00:00:00 | 00:00:00 | 00:00:00 | |
| AA1-15 | 2026-09-01 12:45:07 | 52.90112 | 10.82332 | 0° | 0km/h | 32041m | 0m/s | -51.5°C | 0% | 165.3hPa | 2.5V | 03:07:28 | 02:15:56 | 00:00:00 | |
| TFSTFS | 2026-09-01 12:45:05 | 52.90112 | 10.82332 | 0° | 0km/h | 32041m | 0.0m/s | -51.5°C | 1.1% | 165.3hPa | 2.6V | 00:00:00 | 00:00:00 | 00:00:00 | |
| DL1XH-west | 2026-09-01 12:44:59 | 52.90112 | 10.82332 | 0° | 0km/h | 32041m | 0m/s | -51.8°C | 0% | 162.5hPa | 2.6V | 03:07:28 | 02:15:49 | 00:00:00 | |
| AA1-15 | 2026-09-01 12:44:56 | 52.90112 | 10.82332 | 0° | 0km/h | 32041m | 0m/s | -51.7°C | 0% | 161.3hPa | 2.5V | 03:07:28 | 02:15:46 | 00:00:00 | |
| DB0DAN | 2026-09-01 12:44:55 | 52.90112 | 10.82332 | 0° | 0km/h | 32041m | 0m/s | -51.6°C | 1% | 160.92hPa | 2.5V | 00:00:00 | 00:00:00 | 00:00:00 | |
| MECKS9 | 2026-09-01 12:44:54 | 52.89986 | 10.82197 | 71° | 27km/h | 31845m | 6.0m/s | -51.6°C | 1.0% | 160.9hPa | 2.5V | 00:00:00 | 00:00:00 | 00:00:00 | |
| DL2RXE-15 | 2026-09-01 12:44:52 | 52.90112 | 10.82332 | 0° | 0km/h | 32041m | 0.0m/s | -51.5°C | 1.0% | 160.1hPa | 2.5V | 00:00:00 | 00:00:00 | 00:00:00 | |
| BIOWL1-15 | 2026-09-01 12:44:51 | 52.90112 | 10.82332 | 0° | 0km/h | 32041m | 0m/s | -51.4°C | 0% | 159.3hPa | 2.5V | 03:07:28 | 02:15:41 | 00:00:00 | |
| DF8AY | 2026-09-01 12:44:49 | 52.90112 | 10.82332 | 0° | 0km/h | 32041m | 0m/s | -51.6°C | 0% | 157.8hPa | 2.6V | 03:07:28 | 02:15:37 | 00:00:00 | |
| DL1XH-west | 2026-09-01 12:44:48 | 52.90112 | 10.82332 | 0° | 0km/h | 32041m | 0m/s | -51.5°C | 0% | 158.2hPa | 2.6V | 03:07:28 | 02:15:38 | 00:00:00 | |
| AA1-15 | 2026-09-01 12:44:46 | 52.90112 | 10.82332 | 0° | 0km/h | 32041m | 0m/s | -51.7°C | 0% | 157hPa | 2.5V | 03:07:28 | 02:15:35 | 00:00:00 | |
| TFSTFS | 2026-09-01 12:44:44 | 52.90112 | 10.82332 | 0° | 0km/h | 32041m | 0.0m/s | -51.7°C | 1.0% | 157.0hPa | 2.5V | 00:00:00 | 00:00:00 | 00:00:00 | |
| DF7ER-10 | 2026-09-01 12:44:42 | 52.89964 | 10.82188 | 53° | 15km/h | 31913m | 5.5m/s | -51.8°C | 1.1% | 156.3hPa | 2.5V | 03:07:00 | 00:00:00 | 00:00:00 | |
| DL1LOL-11 | 2026-09-01 12:44:41 | 52.90112 | 10.82332 | 0° | 0km/h | 32041m | 0.0m/s | -51.8°C | 1.0% | 156.0hPa | 2.5V | 00:00:00 | 00:00:00 | 00:00:00 | |
| BIOWL1-15 | 2026-09-01 12:44:40 | 52.90112 | 10.82332 | 0° | 0km/h | 32041m | 0m/s | -51.7°C | 0% | 155.2hPa | 2.5V | 03:07:28 | 02:15:30 | 00:00:00 | |
| DB0DAN | 2026-09-01 12:44:40 | 52.90112 | 10.82332 | 0° | 0km/h | 32041m | 0m/s | -51.7°C | 1% | 155.18hPa | 2.5V | 00:00:00 | 00:00:00 | 00:00:00 | |
| DL4BBY-15 | 2026-09-01 12:44:38 | 52.90112 | 10.82332 | 0° | 0km/h | 32041m | 0.0m/s | -50.6°C | 0% | 0hPa | 2.6V | 00:00:00 | 00:00:00 | 00:00:00 | |
| DF8AY | 2026-09-01 12:44:37 | 52.90112 | 10.82332 | 0° | 0km/h | 32041m | 0m/s | -51.6°C | 0% | 154hPa | 2.6V | 03:07:28 | 02:15:27 | 00:00:00 | |
| AA1-15 | 2026-09-01 12:44:35 | 52.90112 | 10.82332 | 0° | 0km/h | 32041m | 0m/s | -51.2°C | 0% | 153.3hPa | 2.6V | 03:07:28 | 02:15:25 | 00:00:00 | |
| DG6HD-15 | 2026-09-01 12:44:32 | 52.90112 | 10.82332 | 0° | 0km/h | 32041m | 0.0m/s | -51.3°C | 0.9% | 152.5hPa | 2.6V | 03:07:00 | 00:00:00 | 00:00:00 | |
| BIOWL1-15 | 2026-09-01 12:44:30 | 52.90112 | 10.82332 | 0° | 0km/h | 32041m | 0m/s | -51°C | 0% | 151.4hPa | 2.6V | 03:07:28 | 02:15:20 | 00:00:00 | |
| DL1XH-west | 2026-09-01 12:44:27 | 52.90112 | 10.82332 | 0° | 0km/h | 32041m | 0m/s | -50.6°C | 0% | 150.2hPa | 2.5V | 03:07:28 | 02:15:17 | 00:00:00 | |
| DB0DAN | 2026-09-01 12:44:25 | 52.90112 | 10.82332 | 0° | 0km/h | 32041m | 0m/s | -50.7°C | 0.9% | 149.59hPa | 2.6V | 00:00:00 | 00:00:00 | 00:00:00 | |
| AA1-15 | 2026-09-01 12:44:24 | 52.90112 | 10.82332 | 0° | 0km/h | 32041m | 0m/s | -50.6°C | 0% | 149.2hPa | 2.6V | 03:07:28 | 02:15:14 | 00:00:00 | |
| BIOWL1-15 | 2026-09-01 12:44:22 | 52.90112 | 10.82332 | 0° | 0km/h | 32041m | 0m/s | -50.3°C | 0% | 147.7hPa | 2.6V | 03:07:28 | 02:15:10 | 00:00:00 | |
| DF8AY | 2026-09-01 12:44:17 | 52.90112 | 10.82332 | 0° | 0km/h | 32041m | 0m/s | -50.5°C | 0% | 144.8hPa | 2.5V | 03:08:19 | 02:15:02 | 00:00:00 | |
| AA1-15 | 2026-09-01 12:44:14 | 52.90112 | 10.82332 | 0° | 0km/h | 32041m | 0m/s | -50.4°C | 0% | 145.2hPa | 2.6V | 03:08:19 | 02:15:03 | 00:00:00 | |
| DG6HD-15 | 2026-09-01 12:44:12 | 52.90112 | 10.82332 | 0° | 0km/h | 32041m | 0.0m/s | -50.4°C | 0.9% | 145.2hPa | 2.6V | 03:08:00 | 00:00:00 | 00:00:00 | |
| DB0DAN | 2026-09-01 12:44:10 | 52.90112 | 10.82332 | 0° | 0km/h | 32041m | 0m/s | -50.8°C | 0.9% | 144hPa | 2.6V | 00:00:00 | 00:00:00 | 00:00:00 | |
| BIOWL1-15 | 2026-09-01 12:44:10 | 52.90112 | 10.82332 | 0° | 0km/h | 32041m | 0m/s | -50.8°C | 0% | 144hPa | 2.6V | 03:08:19 | 02:15:00 | 00:00:00 | |
| DL4BBY-15 | 2026-09-01 12:44:08 | 52.90112 | 10.82332 | 0° | 0km/h | 32041m | 0.0m/s | -50.0°C | 0% | 0hPa | 2.5V | 00:00:00 | 00:00:00 | 00:00:00 | |
| DF8AY | 2026-09-01 12:44:07 | 52.90112 | 10.82332 | 0° | 0km/h | 32041m | 0m/s | -51°C | 0% | 142.9hPa | 2.5V | 03:08:19 | 02:14:57 | 00:00:00 | |
| TFSTFS | 2026-09-01 12:44:03 | 52.90112 | 10.82332 | 0° | 0km/h | 32041m | 0.0m/s | -51.0°C | 0.9% | 141.8hPa | 2.6V | 03:08:00 | 00:00:00 | 00:00:00 | |
| AA1-15 | 2026-09-01 12:44:02 | 52.90112 | 10.82332 | 0° | 0km/h | 32041m | 0m/s | -51.1°C | 0% | 141.2hPa | 2.6V | 03:08:19 | 02:14:52 | 00:00:00 | |
| DL1XH-west | 2026-09-01 12:44:02 | 52.90112 | 10.82332 | 0° | 0km/h | 32041m | 0m/s | -51.2°C | 0% | 140.7hPa | 2.6V | 03:08:19 | 02:14:51 | 00:00:00 | |
| DL1LOL-11 | 2026-09-01 12:44:00 | 52.90112 | 10.82332 | 0° | 0km/h | 32041m | 0.0m/s | -51.2°C | 0.9% | 140.4hPa | 2.5V | 00:00:00 | 00:00:00 | 00:00:00 | |
| BIOWL1-15 | 2026-09-01 12:43:58 | 52.90112 | 10.82332 | 0° | 0km/h | 32041m | 0m/s | -50.9°C | 0% | 139.7hPa | 2.5V | 03:08:19 | 02:14:48 | 00:00:00 | |
| DF8AY | 2026-09-01 12:43:56 | 52.90112 | 10.82332 | 0° | 0km/h | 32041m | 0m/s | -50.4°C | 0% | 138.9hPa | 2.6V | 03:08:19 | 02:14:46 | 00:00:00 | |
| DB0DAN | 2026-09-01 12:43:55 | 52.90112 | 10.82332 | 0° | 0km/h | 32041m | 0m/s | -50.4°C | 0.8% | 138.6hPa | 2.6V | 00:00:00 | 00:00:00 | 00:00:00 | |
| AP2371 | 2026-09-01 12:43:53 | 52.90112 | 10.82332 | 0° | 0km/h | 32041m | 0.0m/s | -50.4°C | 0.8% | 138.2hPa | 2.6V | 00:00:00 | 00:00:00 | 00:00:00 | |
| AA1-15 | 2026-09-01 12:43:51 | 52.90112 | 10.82332 | 0° | 0km/h | 32041m | 0m/s | -50.4°C | 0% | 137.2hPa | 2.6V | 03:08:19 | 02:14:41 | 00:00:00 | |
| BIOWL1-15 | 2026-09-01 12:43:50 | 52.90112 | 10.82332 | 0° | 0km/h | 32041m | 0m/s | -50.7°C | 0% | 135.4hPa | 2.6V | 03:08:19 | 02:14:36 | 00:00:00 | |
| DF8AY | 2026-09-01 12:43:46 | 52.90112 | 10.82332 | 0° | 0km/h | 32041m | 0m/s | -50.5°C | 0% | 135hPa | 2.6V | 03:08:19 | 02:14:35 | 00:00:00 | |
| DL1XH-west | 2026-09-01 12:43:41 | 52.90112 | 10.82332 | 0° | 0km/h | 32041m | 0m/s | -50.7°C | 0% | 133.7hPa | 2.6V | 03:08:19 | 02:14:31 | 00:00:00 | |
| AA1-15 | 2026-09-01 12:43:40 | 52.90112 | 10.82332 | 0° | 0km/h | 32041m | 0m/s | -51°C | 0% | 132.6hPa | 2.5V | 03:08:19 | 02:14:28 | 00:00:00 | |
| DB0DAN | 2026-09-01 12:43:40 | 52.90112 | 10.82332 | 0° | 0km/h | 32041m | 0m/s | -50.9°C | 0.8% | 133.37hPa | 2.6V | 00:00:00 | 00:00:00 | 00:00:00 | |
| DL4BBY-15 | 2026-09-01 12:43:38 | 52.90112 | 10.82332 | 0° | 0km/h | 32041m | 0.0m/s | -50.0°C | 0% | 0hPa | 2.5V | 00:00:00 | 00:00:00 | 00:00:00 | |
| BIOWL1-15 | 2026-09-01 12:43:38 | 52.90112 | 10.82332 | 0° | 0km/h | 32041m | 0m/s | -51.2°C | 0% | 130.6hPa | 2.6V | 03:08:19 | 02:14:22 | 00:00:00 | |
| DL2RXE-15 | 2026-09-01 12:43:37 | 52.90112 | 10.82332 | 0° | 0km/h | 32041m | 0.0m/s | -51.0°C | 0.8% | 132.6hPa | 2.5V | 00:00:00 | 00:00:00 | 00:00:00 | |
| DL1XH-west | 2026-09-01 12:43:30 | 52.90112 | 10.82332 | 0° | 0km/h | 32041m | 0m/s | -51.2°C | 0% | 130hPa | 2.5V | 03:08:19 | 02:14:20 | 00:00:00 | |
| BIOWL1-15 | 2026-09-01 12:43:27 | 52.90112 | 10.82332 | 0° | 0km/h | 32041m | 0m/s | -51.3°C | 0% | 128.4hPa | 2.5V | 03:09:10 | 02:14:15 | 00:00:00 | |
| DB0DAN | 2026-09-01 12:43:25 | 52.90112 | 10.82332 | 0° | 0km/h | 32041m | 0m/s | -51.3°C | 0.8% | 128.39hPa | 2.5V | 00:00:00 | 00:00:00 | 00:00:00 | |
| DF8AY | 2026-09-01 12:43:22 | 52.90112 | 10.82332 | 0° | 0km/h | 32041m | 0m/s | -51.2°C | 0% | 127.5hPa | 2.6V | 03:10:01 | 02:14:12 | 00:00:00 | |
| AA1-15 | 2026-09-01 12:43:18 | 52.90112 | 10.82332 | 0° | 0km/h | 32041m | 0m/s | -51.2°C | 0% | 125hPa | 2.6V | 03:09:10 | 02:14:05 | 00:00:00 | |
| DL1XH-west | 2026-09-01 12:43:18 | 52.90112 | 10.82332 | 0° | 0km/h | 32041m | 0m/s | -51.2°C | 0% | 125.7hPa | 2.7V | 03:09:10 | 02:14:07 | 00:00:00 | |
| DL1LOL-11 | 2026-09-01 12:43:17 | 52.90112 | 10.82332 | 0° | 0km/h | 32041m | 0.0m/s | -51.2°C | 0.7% | 126.0hPa | 2.6V | 03:09:00 | 00:00:00 | 00:00:00 | |
| BIOWL1-15 | 2026-09-01 12:43:16 | 52.90112 | 10.82332 | 0° | 0km/h | 32041m | 0m/s | -51.2°C | 0% | 124.7hPa | 2.6V | 03:09:10 | 02:14:04 | 00:00:00 | |
| SMARD9-10 | 2026-09-01 12:43:12 | 52.90112 | 10.82332 | 0° | 0km/h | 32041m | 0.0m/s | -51.2°C | 0.7% | 124.3hPa | 2.6V | 00:00:00 | 00:00:00 | 00:00:00 | |
| DF8AY | 2026-09-01 12:43:11 | 52.90112 | 10.82332 | 0° | 0km/h | 32041m | 0m/s | -50.9°C | 0% | 122.7hPa | 2.6V | 03:10:01 | 02:13:58 | 00:00:00 | |
| DB0DAN | 2026-09-01 12:43:10 | 52.90112 | 10.82332 | 0° | 0km/h | 32041m | 0m/s | -51.1°C | 0.7% | 123.32hPa | 2.7V | 00:00:00 | 00:00:00 | 00:00:00 | |
| DG6HD-15 | 2026-09-01 12:43:10 | 52.90112 | 10.82332 | 0° | 0km/h | 32041m | 0.0m/s | -51.1°C | 0.7% | 123.3hPa | 2.5V | 00:00:00 | 00:00:00 | 00:00:00 | |
| DL4BBY-15 | 2026-09-01 12:43:08 | 52.90112 | 10.82332 | 0° | 0km/h | 32041m | 0.0m/s | -49.9°C | 0% | 0hPa | 2.5V | 00:00:00 | 00:00:00 | 00:00:00 | |
| DL1XH-west | 2026-09-01 12:43:07 | 52.90112 | 10.82332 | 0° | 0km/h | 32041m | 0m/s | -50.7°C | 0% | 122.3hPa | 2.5V | 03:09:10 | 02:13:57 | 00:00:00 | |
| AA1-15 | 2026-09-01 12:43:06 | 52.90112 | 10.82332 | 0° | 0km/h | 32041m | 0m/s | -50.7°C | 0% | 122hPa | 2.5V | 03:09:10 | 02:13:56 | 00:00:00 | |
| BIOWL1-15 | 2026-09-01 12:43:04 | 52.90112 | 10.82332 | 0° | 0km/h | 32041m | 0m/s | -50.5°C | 0% | 120.5hPa | 2.5V | 03:09:10 | 02:13:51 | 00:00:00 | |
| DF8AY | 2026-09-01 12:43:00 | 52.90112 | 10.82332 | 0° | 0km/h | 32041m | 0m/s | -50.5°C | 0% | 120.1hPa | 2.5V | 03:10:01 | 02:13:50 | 00:00:00 | |
| TFSTFS | 2026-09-01 12:42:59 | 52.90112 | 10.82332 | 0° | 0km/h | 32041m | 0.0m/s | -50.5°C | 0.7% | 120.1hPa | 2.6V | 00:00:00 | 00:00:00 | 00:00:00 | |
| DL1XH-west | 2026-09-01 12:42:56 | 52.90112 | 10.82332 | 0° | 0km/h | 32041m | 0m/s | -50.5°C | 0% | 118.8hPa | 2.6V | 03:09:10 | 02:13:46 | 00:00:00 | |
| AA1-15 | 2026-09-01 12:42:55 | 52.90112 | 10.82332 | 0° | 0km/h | 32041m | 0m/s | -50.6°C | 0% | 118.5hPa | 2.5V | 03:09:10 | 02:13:45 | 00:00:00 | |
| DB0DAN | 2026-09-01 12:42:55 | 52.90112 | 10.82332 | 0° | 0km/h | 32041m | 0m/s | -50.6°C | 0.7% | 118.51hPa | 2.5V | 00:00:00 | 00:00:00 | 00:00:00 | |
| BIOWL1-15 | 2026-09-01 12:42:52 | 52.90112 | 10.82332 | 0° | 0km/h | 32041m | 0m/s | -50.9°C | 0% | 117.3hPa | 2.7V | 03:09:10 | 02:13:41 | 00:00:00 | |
| DF8AY | 2026-09-01 12:42:50 | 52.90112 | 10.82332 | 0° | 0km/h | 32041m | 0m/s | -51°C | 0% | 116.9hPa | 2.6V | 03:10:01 | 02:13:40 | 00:00:00 | |
| DG6HD-15 | 2026-09-01 12:42:48 | 52.90112 | 10.82332 | 0° | 0km/h | 32041m | 0.0m/s | -51.0°C | 0.7% | 116.6hPa | 2.6V | 00:00:00 | 00:00:00 | 00:00:00 | |
| DL2RXE-15 | 2026-09-01 12:42:47 | 52.90112 | 10.82332 | 0° | 0km/h | 32041m | 0.0m/s | -50.9°C | 0.7% | 116.3hPa | 2.6V | 00:00:00 | 00:00:00 | 00:00:00 | |
| DL1XH-west | 2026-09-01 12:42:45 | 52.90112 | 10.82332 | 0° | 0km/h | 32041m | 0m/s | -51.2°C | 0% | 115.3hPa | 2.6V | 03:09:10 | 02:13:35 | 00:00:00 | |
| BIOWL1-15 | 2026-09-01 12:42:42 | 52.90112 | 10.82332 | 0° | 0km/h | 32041m | 0m/s | -51.5°C | 0% | 114.4hPa | 2.5V | 03:09:10 | 02:13:32 | 00:00:00 | |
| DB0DAN | 2026-09-01 12:42:40 | 52.90112 | 10.82332 | 0° | 0km/h | 32041m | 0m/s | -51.4°C | 0.7% | 113.86hPa | 2.7V | 00:00:00 | 00:00:00 | 00:00:00 | |
| DF8AY | 2026-09-01 12:42:38 | 52.90112 | 10.82332 | 0° | 0km/h | 32041m | 0m/s | -51.4°C | 0% | 113.2hPa | 2.6V | 03:10:01 | 02:13:28 | 00:00:00 | |
| DL4BBY-15 | 2026-09-01 12:42:38 | 52.90112 | 10.82332 | 0° | 0km/h | 32041m | 0.0m/s | -50.5°C | 0% | 0hPa | 2.6V | 00:00:00 | 00:00:00 | 00:00:00 | |
| DL1XH-west | 2026-09-01 12:42:35 | 52.90112 | 10.82332 | 0° | 0km/h | 32041m | 0m/s | -51.5°C | 0% | 112.2hPa | 2.6V | 03:10:01 | 02:13:25 | 00:00:00 | |
| BIOWL1-15 | 2026-09-01 12:42:32 | 52.90112 | 10.82332 | 0° | 0km/h | 32041m | 0m/s | -51.3°C | 0% | 110.9hPa | 2.5V | 03:10:01 | 02:13:21 | 00:00:00 | |
| DF8AY | 2026-09-01 12:42:28 | 52.90112 | 10.82332 | 0° | 0km/h | 32041m | 0m/s | -51.4°C | 0% | 110hPa | 2.7V | 03:10:01 | 02:13:18 | 00:00:00 | |
| DG6HD-15 | 2026-09-01 12:42:28 | 52.90112 | 10.82332 | 0° | 0km/h | 32041m | 0.0m/s | -51.4°C | 0.6% | 110.0hPa | 2.5V | 00:00:00 | 00:00:00 | 00:00:00 | |
| DB0DAN | 2026-09-01 12:42:25 | 52.90112 | 10.82332 | 0° | 0km/h | 32041m | 0m/s | -51.3°C | 0.7% | 109.07hPa | 2.5V | 00:00:00 | 00:00:00 | 00:00:00 | |
| DL1XH-west | 2026-09-01 12:42:23 | 52.90112 | 10.82332 | 0° | 0km/h | 32041m | 0m/s | -51°C | 0% | 108.5hPa | 2.7V | 03:10:01 | 02:13:13 | 00:00:00 | |
| AA1-15 | 2026-09-01 12:42:22 | 52.90112 | 10.82332 | 0° | 0km/h | 32041m | 0m/s | -51°C | 0% | 107.9hPa | 2.7V | 03:10:01 | 02:13:11 | 00:00:00 | |
| BIOWL1-15 | 2026-09-01 12:42:20 | 52.90112 | 10.82332 | 0° | 0km/h | 32041m | 0m/s | -50.9°C | 0% | 107.6hPa | 2.6V | 03:10:01 | 02:13:10 | 00:00:00 | |
| TFSTFS | 2026-09-01 12:42:18 | 52.90112 | 10.82332 | 0° | 0km/h | 32041m | 0.0m/s | -50.9°C | 0.6% | 107.3hPa | 2.6V | 03:10:00 | 00:00:00 | 00:00:00 | |
| DF8AY | 2026-09-01 12:42:16 | 52.90112 | 10.82332 | 0° | 0km/h | 32041m | 0m/s | -50.9°C | 0% | 106.4hPa | 2.6V | 03:10:01 | 02:13:06 | 00:00:00 | |
| DL1XH-west | 2026-09-01 12:42:12 | 52.90112 | 10.82332 | 0° | 0km/h | 32041m | 0m/s | -50.7°C | 0% | 105.3hPa | 2.6V | 03:10:01 | 02:13:02 | 00:00:00 | |
| HSKMA3-T | 2026-09-01 12:42:11 | 52.90112 | 10.82332 | 0° | 0km/h | 32041m | 0m/s | -50.8°C | 0% | 105hPa | 2.7V | 03:10:01 | 02:13:01 | 00:00:00 | |
| AA1-15 | 2026-09-01 12:42:10 | 52.90112 | 10.82332 | 0° | 0km/h | 32041m | 0m/s | -50.8°C | 0% | 104.7hPa | 2.7V | 03:10:01 | 02:13:00 | 00:00:00 | |
| DB0DAN | 2026-09-01 12:42:10 | 52.90112 | 10.82332 | 0° | 0km/h | 32041m | 0m/s | -50.8°C | 0.6% | 104.69hPa | 2.7V | 00:00:00 | 00:00:00 | 00:00:00 | |
| BIOWL7-15 | 2026-09-01 12:42:09 | 52.90112 | 10.82332 | 0° | 0km/h | 32041m | 0.0m/s | -50.8°C | 0.6% | 104.7hPa | 2.7V | 00:00:00 | 00:00:00 | 00:00:00 | |
| DL4BBY-15 | 2026-09-01 12:42:08 | 52.90112 | 10.82332 | 0° | 0km/h | 32041m | 0.0m/s | -49.8°C | 0% | 0hPa | 2.7V | 00:00:00 | 00:00:00 | 00:00:00 | |
| DG6HD-15 | 2026-09-01 12:42:07 | 52.90112 | 10.82332 | 0° | 0km/h | 32041m | 0.0m/s | -50.8°C | 0.6% | 104.1hPa | 2.7V | 00:00:00 | 00:00:00 | 00:00:00 | |
| SMARD9-10 | 2026-09-01 12:42:04 | 52.90112 | 10.82332 | 0° | 0km/h | 32041m | 0.0m/s | -50.9°C | 0.6% | 103.3hPa | 2.7V | 00:00:00 | 00:00:00 | 00:00:00 | |
| DL4XJ-10 | 2026-09-01 12:42:03 | 52.90112 | 10.82332 | 0° | 0km/h | 32041m | 0.0m/s | -49.8°C | 0% | 0hPa | 2.7V | 00:00:00 | 00:00:00 | 00:00:00 | |
| DL1XH-west | 2026-09-01 12:42:01 | 52.90112 | 10.82332 | 0° | 0km/h | 32041m | 0m/s | -50.8°C | 0% | 102.2hPa | 2.7V | 03:10:01 | 02:12:51 | 00:00:00 | |
| DF8AY | 2026-09-01 12:42:01 | 52.90112 | 10.82332 | 0° | 0km/h | 32041m | 0m/s | -50.8°C | 0% | 100.7hPa | 2.6V | 03:10:01 | 02:12:45 | 00:00:00 | |
| BIOWL1-15 | 2026-09-01 12:41:59 | 52.90112 | 10.82332 | 0° | 0km/h | 32041m | 0m/s | -50.8°C | 0% | 101.7hPa | 2.5V | 03:10:01 | 02:12:49 | 00:00:00 | |
| HSKMA3-T | 2026-09-01 12:41:56 | 52.90112 | 10.82332 | 0° | 0km/h | 32041m | 0m/s | -50.8°C | 0% | 100.9hPa | 2.6V | 03:10:01 | 02:12:46 | 00:00:00 | |
| DB0DAN | 2026-09-01 12:41:55 | 52.90112 | 10.82332 | 0° | 0km/h | 32041m | 0m/s | -50.8°C | 0.6% | 100.66hPa | 2.6V | 00:00:00 | 00:00:00 | 00:00:00 | |
| DL1XH-west | 2026-09-01 12:41:50 | 52.90112 | 10.82332 | 0° | 0km/h | 32041m | 0m/s | -50.7°C | 0% | 99.3hPa | 2.7V | 03:10:01 | 02:12:40 | 00:00:00 | |
| BIOWL1-15 | 2026-09-01 12:41:48 | 52.90112 | 10.82332 | 0° | 0km/h | 32041m | 0m/s | -50.8°C | 0% | 98.8hPa | 2.7V | 03:10:01 | 02:12:38 | 00:00:00 | |
| DG6HD-15 | 2026-09-01 12:41:47 | 52.90112 | 10.82332 | 0° | 0km/h | 32041m | 0.0m/s | -50.8°C | 0.6% | 98.8hPa | 2.6V | 00:00:00 | 00:00:00 | 00:00:00 | |
| HSKMA3-T | 2026-09-01 12:41:46 | 52.90112 | 10.82332 | 0° | 0km/h | 32041m | 0m/s | -51°C | 0% | 98.3hPa | 2.6V | 03:10:01 | 02:12:36 | 00:00:00 | |
| DL2RXE-15 | 2026-09-01 12:41:45 | 52.90112 | 10.82332 | 0° | 0km/h | 32041m | 0.0m/s | -50.9°C | 0.6% | 98.1hPa | 2.7V | 03:10:00 | 00:00:00 | 00:00:00 | |
| DF8AY | 2026-09-01 12:41:43 | 52.90112 | 10.82332 | 0° | 0km/h | 32041m | 0m/s | -50.8°C | 0% | 97.5hPa | 2.7V | 03:10:52 | 02:12:33 | 00:00:00 | |
| DL4XJ-10 | 2026-09-01 12:41:43 | 52.90112 | 10.82332 | 0° | 0km/h | 32041m | 0.0m/s | -49.8°C | 0% | 0hPa | 2.6V | 00:00:00 | 00:00:00 | 00:00:00 | |
| BIOWL1-15 | 2026-09-01 12:41:40 | 52.90112 | 10.82332 | 0° | 0km/h | 32041m | 0m/s | -50.3°C | 0% | 96.2hPa | 2.6V | 03:10:52 | 02:12:28 | 00:00:00 | |
| DB0DAN | 2026-09-01 12:41:40 | 52.90112 | 10.82332 | 0° | 0km/h | 32041m | 0m/s | -50.5°C | 0.5% | 96.79hPa | 2.5V | 00:00:00 | 00:00:00 | 00:00:00 | |
| DL1XH-west | 2026-09-01 12:41:39 | 52.90112 | 10.82332 | 0° | 0km/h | 32041m | 0m/s | -50.4°C | 0% | 96.5hPa | 2.5V | 03:10:52 | 02:12:29 | 00:00:00 | |
| DL4BBY-15 | 2026-09-01 12:41:38 | 52.90112 | 10.82332 | 0° | 0km/h | 32041m | 0.0m/s | -49.4°C | 0% | 0hPa | 2.7V | 00:00:00 | 00:00:00 | 00:00:00 | |
| AA1-15 | 2026-09-01 12:41:37 | 52.90112 | 10.82332 | 0° | 0km/h | 32041m | 0m/s | -50.2°C | 0% | 96hPa | 2.7V | 03:10:52 | 02:12:27 | 00:00:00 | |
| HSKMA3-T | 2026-09-01 12:41:33 | 52.90112 | 10.82332 | 0° | 0km/h | 32041m | 0m/s | -50.3°C | 0% | 94.8hPa | 2.6V | 03:10:52 | 02:12:23 | 00:00:00 | |
| DF8AY | 2026-09-01 12:41:32 | 52.90112 | 10.82332 | 0° | 0km/h | 32041m | 0m/s | -50.3°C | 0% | 94.5hPa | 2.6V | 03:10:52 | 02:12:22 | 00:00:00 | |
| DL1XH-west | 2026-09-01 12:41:29 | 52.90112 | 10.82332 | 0° | 0km/h | 32041m | 0m/s | -50.3°C | 0% | 93.5hPa | 2.5V | 03:10:52 | 02:12:18 | 00:00:00 | |
| AA1-15 | 2026-09-01 12:41:27 | 52.90112 | 10.82332 | 0° | 0km/h | 32041m | 0m/s | -50.3°C | 0% | 92.9hPa | 2.7V | 03:10:52 | 02:12:16 | 00:00:00 | |
| DB0DAN | 2026-09-01 12:41:25 | 52.90112 | 10.82332 | 0° | 0km/h | 32041m | 0m/s | -50.1°C | 0.6% | 92.6hPa | 2.7V | 00:00:00 | 00:00:00 | 00:00:00 | |
| DL4XJ-10 | 2026-09-01 12:41:23 | 52.90112 | 10.82332 | 0° | 0km/h | 32041m | 0.0m/s | -48.9°C | 0% | 0hPa | 2.5V | 00:00:00 | 00:00:00 | 00:00:00 | |
| HSKMA3-T | 2026-09-01 12:41:22 | 52.90112 | 10.82332 | 0° | 0km/h | 32041m | 0m/s | -49.9°C | 0% | 91.9hPa | 2.5V | 03:10:52 | 02:12:12 | 00:00:00 | |
| DF8AY | 2026-09-01 12:41:21 | 52.90112 | 10.82332 | 0° | 0km/h | 32041m | 0m/s | -49.9°C | 0% | 91.7hPa | 2.5V | 03:10:52 | 02:12:11 | 00:00:00 | |
| BIOWL1-15 | 2026-09-01 12:41:19 | 52.90112 | 10.82332 | 0° | 0km/h | 32041m | 0m/s | -50.2°C | 0% | 90.6hPa | 2.7V | 03:10:52 | 02:12:07 | 00:00:00 | |
| DL1XH-west | 2026-09-01 12:41:18 | 52.90112 | 10.82332 | 0° | 0km/h | 32041m | 0m/s | -50.1°C | 0% | 90.9hPa | 2.7V | 03:10:52 | 02:12:08 | 00:00:00 | |
| AA1-15 | 2026-09-01 12:41:16 | 52.90112 | 10.82332 | 0° | 0km/h | 32041m | 0m/s | -50°C | 0% | 90.4hPa | 2.7V | 03:10:52 | 02:12:06 | 00:00:00 | |
| HSKMA3-T | 2026-09-01 12:41:12 | 52.90112 | 10.82332 | 0° | 0km/h | 32041m | 0m/s | -49.8°C | 0% | 89.3hPa | 2.7V | 03:10:52 | 02:12:02 | 00:00:00 | |
| DF8AY | 2026-09-01 12:41:10 | 52.90112 | 10.82332 | 0° | 0km/h | 32041m | 0m/s | -49.6°C | 0% | 88.9hPa | 2.6V | 03:10:52 | 02:12:00 | 00:00:00 | |
| DL4BBY-15 | 2026-09-01 12:41:08 | 52.90112 | 10.82332 | 0° | 0km/h | 32041m | 0.0m/s | -48.4°C | 0% | 0hPa | 2.7V | 00:00:00 | 00:00:00 | 00:00:00 | |
| DL1XH-west | 2026-09-01 12:41:07 | 52.90112 | 10.82332 | 0° | 0km/h | 32041m | 0m/s | -49.3°C | 0% | 88.1hPa | 2.7V | 03:10:52 | 02:11:57 | 00:00:00 | |
| BIOWL1-15 | 2026-09-01 12:41:06 | 52.90112 | 10.82332 | 0° | 0km/h | 32041m | 0m/s | -49.3°C | 0% | 87.8hPa | 2.7V | 03:10:52 | 02:11:56 | 00:00:00 | |
| DL1LOL-11 | 2026-09-01 12:41:05 | 52.90112 | 10.82332 | 0° | 0km/h | 32041m | 0.0m/s | -49.3°C | 0.4% | 87.8hPa | 2.7V | 00:00:00 | 00:00:00 | 00:00:00 | |
| DL4XJ-10 | 2026-09-01 12:41:03 | 52.90112 | 10.82332 | 0° | 0km/h | 32041m | 0.0m/s | -48.2°C | 0% | 0hPa | 2.7V | 00:00:00 | 00:00:00 | 00:00:00 | |
| HSKMA3-T | 2026-09-01 12:41:02 | 52.90112 | 10.82332 | 0° | 0km/h | 32041m | 0m/s | -49.3°C | 0% | 86.8hPa | 2.7V | 03:10:52 | 02:11:52 | 00:00:00 | |
| DF8AY | 2026-09-01 12:40:59 | 52.90112 | 10.82332 | 0° | 0km/h | 32041m | 0m/s | -49.6°C | 0% | 85.8hPa | 2.5V | 03:10:52 | 02:11:48 | 00:00:00 | |
| DL1XH-west | 2026-09-01 12:40:57 | 52.90112 | 10.82332 | 0° | 0km/h | 32041m | 0m/s | -49.6°C | 0% | 85.5hPa | 2.6V | 03:10:52 | 02:11:47 | 00:00:00 | |
| BIOWL1-15 | 2026-09-01 12:40:56 | 52.90112 | 10.82332 | 0° | 0km/h | 32041m | 0m/s | -49.5°C | 0% | 85.3hPa | 2.7V | 03:10:52 | 02:11:46 | 00:00:00 | |
| DB0DAN | 2026-09-01 12:40:55 | 52.90112 | 10.82332 | 0° | 0km/h | 32041m | 0m/s | -49.4°C | 0.5% | 85.07hPa | 2.6V | 00:00:00 | 00:00:00 | 00:00:00 | |
| HSKMA3-T | 2026-09-01 12:40:51 | 52.90112 | 10.82332 | 0° | 0km/h | 32041m | 0m/s | -48.9°C | 0% | 84.1hPa | 2.6V | 03:11:43 | 02:11:41 | 00:00:00 | |
| MECKS9 | 2026-09-01 12:40:49 | 52.89986 | 10.82197 | 71° | 27km/h | 31845m | 6.0m/s | -49.0°C | 0.5% | 83.9hPa | 2.7V | 00:00:00 | 00:00:00 | 00:00:00 | |
| DL2RXE-15 | 2026-09-01 12:40:48 | 52.90112 | 10.82332 | 0° | 0km/h | 32041m | 0.0m/s | -48.9°C | 0.5% | 83.7hPa | 2.7V | 03:11:00 | 00:00:00 | 00:00:00 | |
| DL1XH-west | 2026-09-01 12:40:46 | 52.90112 | 10.82332 | 0° | 0km/h | 32041m | 0m/s | -48.8°C | 0% | 82.9hPa | 2.7V | 03:11:43 | 02:11:36 | 00:00:00 | |
| AA1-15 | 2026-09-01 12:40:45 | 52.90112 | 10.82332 | 0° | 0km/h | 32041m | 0m/s | -48.6°C | 0% | 82.7hPa | 2.6V | 03:11:43 | 02:11:35 | 00:00:00 | |
| DL4XJ-10 | 2026-09-01 12:40:43 | 52.90112 | 10.82332 | 0° | 0km/h | 32041m | 0.0m/s | -47.5°C | 0% | 0hPa | 2.7V | 00:00:00 | 00:00:00 | 00:00:00 | |
| HSKMA3-T | 2026-09-01 12:40:41 | 52.90112 | 10.82332 | 0° | 0km/h | 32041m | 0m/s | -48.4°C | 0% | 81.8hPa | 2.7V | 03:11:43 | 02:11:31 | 00:00:00 | |
| DB0DAN | 2026-09-01 12:40:40 | 52.90112 | 10.82332 | 0° | 0km/h | 32041m | 0m/s | -48.5°C | 0.4% | 81.5hPa | 2.7V | 00:00:00 | 00:00:00 | 00:00:00 | |
| DL4BBY-15 | 2026-09-01 12:40:38 | 52.90112 | 10.82332 | 0° | 0km/h | 32041m | 0.0m/s | -47.7°C | 0% | 0hPa | 2.6V | 00:00:00 | 00:00:00 | 00:00:00 | |
| DL1XH-west | 2026-09-01 12:40:36 | 52.90112 | 10.82332 | 0° | 0km/h | 32041m | 0m/s | -49°C | 0% | 80.6hPa | 2.6V | 03:11:43 | 02:11:26 | 00:00:00 | |
| AA1-15 | 2026-09-01 12:40:34 | 52.90112 | 10.82332 | 0° | 0km/h | 32041m | 0m/s | -49.3°C | 0% | 79.8hPa | 2.7V | 03:11:43 | 02:11:23 | 00:00:00 | |
| DF8AY | 2026-09-01 12:40:34 | 52.90112 | 10.82332 | 0° | 0km/h | 32041m | 0m/s | -50°C | 0% | 78.7hPa | 2.7V | 03:11:43 | 02:11:18 | 00:00:00 | |
| BIOWL1-15 | 2026-09-01 12:40:34 | 52.90112 | 10.82332 | 0° | 0km/h | 32041m | 0m/s | -49.2°C | 0% | 80.1hPa | 2.7V | 03:11:43 | 02:11:24 | 00:00:00 | |
| HSKMA3-T | 2026-09-01 12:40:30 | 52.90112 | 10.82332 | 0° | 0km/h | 32041m | 0m/s | -49.7°C | 0% | 79.2hPa | 2.6V | 03:11:43 | 02:11:20 | 00:00:00 | |
| AP2371 | 2026-09-01 12:40:28 | 52.90112 | 10.82332 | 0° | 0km/h | 32041m | 0.0m/s | -49.9°C | 0.4% | 78.9hPa | 2.7V | 00:00:00 | 00:00:00 | 00:00:00 | |
| DF7ER-10 | 2026-09-01 12:40:26 | 52.89964 | 10.82188 | 53° | 15km/h | 31913m | 5.5m/s | -50.2°C | 0.5% | 78.5hPa | 2.7V | 03:11:00 | 00:00:00 | 00:00:00 | |
| DB0DAN | 2026-09-01 12:40:25 | 52.90112 | 10.82332 | 0° | 0km/h | 32041m | 0m/s | -50.5°C | 0.5% | 78.05hPa | 2.7V | 00:00:00 | 00:00:00 | 00:00:00 | |
| DL1XH-west | 2026-09-01 12:40:25 | 52.90112 | 10.82332 | 0° | 0km/h | 32041m | 0m/s | -50.5°C | 0% | 78hPa | 2.7V | 03:11:43 | 02:11:15 | 00:00:00 | |
| AA1-15 | 2026-09-01 12:40:23 | 52.90112 | 10.82332 | 0° | 0km/h | 32041m | 0m/s | -50.4°C | 0% | 77.4hPa | 2.6V | 03:11:43 | 02:11:12 | 00:00:00 | |
| DL4XJ-10 | 2026-09-01 12:40:23 | 52.90112 | 10.82332 | 0° | 0km/h | 32041m | 0.0m/s | -49.5°C | 0% | 0hPa | 2.7V | 00:00:00 | 00:00:00 | 00:00:00 | |
| HSKMA3-T | 2026-09-01 12:40:20 | 52.90112 | 10.82332 | 0° | 0km/h | 32041m | 0m/s | -50.5°C | 0% | 77hPa | 2.7V | 03:11:43 | 02:11:10 | 00:00:00 | |
| DF8AY | 2026-09-01 12:40:18 | 52.90112 | 10.82332 | 0° | 0km/h | 32041m | 0m/s | -50.6°C | 0% | 76.5hPa | 2.7V | 03:11:43 | 02:11:08 | 00:00:00 | |
| DL1XH-west | 2026-09-01 12:40:15 | 52.90112 | 10.82332 | 0° | 0km/h | 32041m | 0m/s | -50.8°C | 0% | 76hPa | 2.6V | 03:11:43 | 02:11:05 | 00:00:00 | |
| SMARD9-10 | 2026-09-01 12:40:13 | 52.90112 | 10.82332 | 0° | 0km/h | 32041m | 0.0m/s | -50.8°C | 0.5% | 75.7hPa | 2.7V | 00:00:00 | 00:00:00 | 00:00:00 | |
| AA1-15 | 2026-09-01 12:40:11 | 52.90112 | 10.82332 | 0° | 0km/h | 32041m | 0m/s | -50.7°C | 0% | 75.1hPa | 2.7V | 03:11:43 | 02:11:01 | 00:00:00 | |
| BIOWL1-15 | 2026-09-01 12:40:10 | 52.90112 | 10.82332 | 0° | 0km/h | 32041m | 0m/s | -50.7°C | 0% | 74.9hPa | 2.5V | 03:11:43 | 02:11:00 | 00:00:00 | |
| DB0DAN | 2026-09-01 12:40:10 | 52.90112 | 10.82332 | 0° | 0km/h | 32041m | 0m/s | -50.7°C | 0.5% | 74.9hPa | 2.5V | 00:00:00 | 00:00:00 | 00:00:00 | |
| HSKMA3-T | 2026-09-01 12:40:08 | 52.90112 | 10.82332 | 0° | 0km/h | 32041m | 0m/s | -50.9°C | 0% | 74.5hPa | 2.6V | 03:11:43 | 02:10:58 | 00:00:00 | |
| DL4BBY-15 | 2026-09-01 12:40:08 | 52.90112 | 10.82332 | 0° | 0km/h | 32041m | 0.0m/s | -50.0°C | 0% | 0hPa | 2.7V | 00:00:00 | 00:00:00 | 00:00:00 | |
| DF8AY | 2026-09-01 12:40:07 | 52.90112 | 10.82332 | 0° | 0km/h | 32041m | 0m/s | -51°C | 0% | 74.3hPa | 2.7V | 03:11:43 | 02:10:57 | 00:00:00 | |
| TFSTFS | 2026-09-01 12:40:06 | 52.90112 | 10.82332 | 0° | 0km/h | 32041m | 0.0m/s | -51.0°C | 0.5% | 74.3hPa | 2.7V | 03:11:00 | 00:00:00 | 00:00:00 | |
| DF7ER-10 | 2026-09-01 12:40:05 | 52.89964 | 10.82188 | 53° | 15km/h | 31913m | 5.5m/s | -51.1°C | 0.6% | 74.1hPa | 2.7V | 03:11:00 | 00:00:00 | 00:00:00 | |
| DK7RCA | 2026-09-01 12:40:04 | 52.90110 | 10.81225 | 75° | 22km/h | 30841m | 4.7m/s | -50.9°C | 0.6% | 73.7hPa | 2.7V | 03:11:00 | 00:00:00 | 00:00:00 | |
| DL4XJ-10 | 2026-09-01 12:40:03 | 52.90112 | 10.82332 | 0° | 0km/h | 32041m | 0.0m/s | -49.9°C | 0% | 0hPa | 2.7V | 00:00:00 | 00:00:00 | 00:00:00 | |
| DL1XH-west | 2026-09-01 12:40:03 | 52.90112 | 10.82332 | 0° | 0km/h | 32041m | 0m/s | -50.8°C | 0% | 73.5hPa | 2.6V | 03:12:34 | 02:10:53 | 00:00:00 | |
| BIOWL1-15 | 2026-09-01 12:40:00 | 52.90112 | 10.82332 | 0° | 0km/h | 32041m | 0m/s | -50.8°C | 0% | 72.9hPa | 2.7V | 03:12:34 | 02:10:50 | 00:00:00 | |
| DG6HD-15 | 2026-09-01 12:39:59 | 52.90112 | 10.82332 | 0° | 0km/h | 32041m | 0.0m/s | -50.8°C | 0.5% | 72.9hPa | 2.7V | 03:12:00 | 00:00:00 | 00:00:00 | |
| HSKMA3-T | 2026-09-01 12:39:58 | 52.90112 | 10.82332 | 0° | 0km/h | 32041m | 0m/s | -50.9°C | 0% | 72.5hPa | 2.7V | 03:12:34 | 02:10:48 | 00:00:00 | |
| DB0DAN | 2026-09-01 12:39:55 | 52.90112 | 10.82332 | 0° | 0km/h | 32041m | 0m/s | -50.7°C | 0.5% | 71.88hPa | 2.6V | 00:00:00 | 00:00:00 | 00:00:00 | |
| DL1XH-west | 2026-09-01 12:39:53 | 52.90112 | 10.82332 | 0° | 0km/h | 32041m | 0m/s | -50.5°C | 0% | 71.5hPa | 2.7V | 03:12:34 | 02:10:43 | 00:00:00 | |
| TFSTFS | 2026-09-01 12:39:52 | 52.90112 | 10.82332 | 0° | 0km/h | 32041m | 0.0m/s | -50.5°C | 0.5% | 71.5hPa | 2.7V | 03:12:00 | 00:00:00 | 00:00:00 | |
| AA1-15 | 2026-09-01 12:39:51 | 52.90112 | 10.82332 | 0° | 0km/h | 32041m | 0m/s | -50.8°C | 0% | 70.9hPa | 2.7V | 03:12:34 | 02:10:40 | 00:00:00 | |
| BIOWL1-15 | 2026-09-01 12:39:48 | 52.90112 | 10.82332 | 0° | 0km/h | 32041m | 0m/s | -50.9°C | 0% | 70.5hPa | 2.6V | 03:12:34 | 02:10:38 | 00:00:00 | |
| HSKMA3-T | 2026-09-01 12:39:47 | 52.90112 | 10.82332 | 0° | 0km/h | 32041m | 0m/s | -50.9°C | 0% | 70.3hPa | 2.6V | 03:12:34 | 02:10:37 | 00:00:00 | |
| TFSTFS | 2026-09-01 12:39:45 | 52.90112 | 10.82332 | 0° | 0km/h | 32041m | 0.0m/s | -50.9°C | 0.5% | 70.1hPa | 2.6V | 03:12:00 | 00:00:00 | 00:00:00 | |
| DF7ER-10 | 2026-09-01 12:39:44 | 52.89964 | 10.82188 | 53° | 15km/h | 31913m | 5.5m/s | -50.8°C | 0.5% | 70.0hPa | 2.6V | 03:12:00 | 00:00:00 | 00:00:00 | |
| DL4XJ-10 | 2026-09-01 12:39:43 | 52.90112 | 10.82332 | 0° | 0km/h | 32041m | 0.0m/s | -49.7°C | 0% | 0hPa | 2.6V | 00:00:00 | 00:00:00 | 00:00:00 | |
| DL1XH-west | 2026-09-01 12:39:42 | 52.90112 | 10.82332 | 0° | 0km/h | 32041m | 0m/s | -50.6°C | 0% | 69.5hPa | 2.6V | 03:12:34 | 02:10:32 | 00:00:00 | |
| AA1-15 | 2026-09-01 12:39:40 | 52.90112 | 10.82332 | 0° | 0km/h | 32041m | 0m/s | -50°C | 0% | 68.7hPa | 2.7V | 03:12:34 | 02:10:28 | 00:00:00 | |
| DB0DAN | 2026-09-01 12:39:40 | 52.90112 | 10.82332 | 0° | 0km/h | 32041m | 0m/s | -50.2°C | 0.5% | 69.07hPa | 2.6V | 00:00:00 | 00:00:00 | 00:00:00 | |
| DG6HD-15 | 2026-09-01 12:39:39 | 52.90112 | 10.82332 | 0° | 0km/h | 32041m | 0.0m/s | -50.2°C | 0.5% | 69.1hPa | 2.7V | 03:12:00 | 00:00:00 | 00:00:00 | |
| DL4BBY-15 | 2026-09-01 12:39:38 | 52.90112 | 10.82332 | 0° | 0km/h | 32041m | 0.0m/s | -49.1°C | 0% | 0hPa | 2.7V | 00:00:00 | 00:00:00 | 00:00:00 | |
| BIOWL1-15 | 2026-09-01 12:39:38 | 52.90112 | 10.82332 | 0° | 0km/h | 32041m | 0m/s | -50.3°C | 0% | 68.4hPa | 2.7V | 03:12:34 | 02:10:26 | 00:00:00 | |
| HSKMA3-T | 2026-09-01 12:39:37 | 52.90112 | 10.82332 | 0° | 0km/h | 32041m | 0m/s | -50.2°C | 0% | 68.5hPa | 2.7V | 03:12:34 | 02:10:27 | 00:00:00 | |
| DF8AY | 2026-09-01 12:39:33 | 52.90112 | 10.82332 | 0° | 0km/h | 32041m | 0m/s | -50.9°C | 0% | 65.8hPa | 2.7V | 03:12:34 | 02:10:13 | 00:00:00 | |
| SMARD9-10 | 2026-09-01 12:39:29 | 52.90112 | 10.82332 | 0° | 0km/h | 32041m | 0.0m/s | -50.5°C | 0.5% | 67.2hPa | 2.6V | 00:00:00 | 00:00:00 | 00:00:00 | |
| BIOWL1-15 | 2026-09-01 12:39:27 | 52.90112 | 10.82332 | 0° | 0km/h | 32041m | 0m/s | -50.7°C | 0% | 66.7hPa | 2.6V | 03:12:34 | 02:10:17 | 00:00:00 | |
| HSKMA3-T | 2026-09-01 12:39:26 | 52.90112 | 10.82332 | 0° | 0km/h | 32041m | 0m/s | -50.8°C | 0% | 66.5hPa | 2.6V | 03:12:34 | 02:10:16 | 00:00:00 | |
| DB0DAN | 2026-09-01 12:39:25 | 52.90112 | 10.82332 | 0° | 0km/h | 32041m | 0m/s | -50.9°C | 0.5% | 66.21hPa | 2.7V | 00:00:00 | 00:00:00 | 00:00:00 | |
| DL4XJ-10 | 2026-09-01 12:39:24 | 52.90112 | 10.82332 | 0° | 0km/h | 32041m | 0.0m/s | -49.9°C | 0% | 0hPa | 2.7V | 00:00:00 | 00:00:00 | 00:00:00 | |
| DK7RCA | 2026-09-01 12:39:21 | 52.90110 | 10.81225 | 75° | 22km/h | 30841m | 4.7m/s | -50.8°C | 0.5% | 65.6hPa | 2.7V | 00:00:00 | 00:00:00 | 00:00:00 | |
| DG6HD-15 | 2026-09-01 12:39:19 | 52.90112 | 10.82332 | 0° | 0km/h | 32041m | 0.0m/s | -50.7°C | 0.5% | 65.1hPa | 2.7V | 03:12:00 | 00:00:00 | 00:00:00 | |
| AA1-15 | 2026-09-01 12:39:17 | 52.90112 | 10.82332 | 0° | 0km/h | 32041m | 0m/s | -50.9°C | 0% | 64.7hPa | 2.7V | 03:12:34 | 02:10:07 | 00:00:00 | |
| HSKMA3-T | 2026-09-01 12:39:15 | 52.90112 | 10.82332 | 0° | 0km/h | 32041m | 0m/s | -50.9°C | 0% | 64.3hPa | 2.7V | 03:12:34 | 02:10:05 | 00:00:00 | |
| DF8AY | 2026-09-01 12:39:12 | 52.90112 | 10.82332 | 0° | 0km/h | 32041m | 0m/s | -50.6°C | 0% | 63.4hPa | 2.7V | 03:13:25 | 02:10:01 | 00:00:00 | |
| TFSTFS | 2026-09-01 12:39:11 | 52.90112 | 10.82332 | 0° | 0km/h | 32041m | 0.0m/s | -50.8°C | 0.5% | 63.6hPa | 2.7V | 00:00:00 | 00:00:00 | 00:00:00 | |
| DB0DAN | 2026-09-01 12:39:10 | 52.90112 | 10.82332 | 0° | 0km/h | 32041m | 0m/s | -50.4°C | 0.5% | 63.24hPa | 2.7V | 00:00:00 | 00:00:00 | 00:00:00 | |
| DL4BBY-15 | 2026-09-01 12:39:08 | 52.90112 | 10.82332 | 0° | 0km/h | 32041m | 0.0m/s | -49.6°C | 0% | 0hPa | 2.7V | 00:00:00 | 00:00:00 | 00:00:00 | |
| BIOWL1-15 | 2026-09-01 12:39:06 | 52.90112 | 10.82332 | 0° | 0km/h | 32041m | 0m/s | -50.8°C | 0% | 62.5hPa | 2.7V | 03:13:25 | 02:09:56 | 00:00:00 | |
| HSKMA3-T | 2026-09-01 12:39:05 | 52.90112 | 10.82332 | 0° | 0km/h | 32041m | 0m/s | -51°C | 0% | 62.3hPa | 2.7V | 03:13:25 | 02:09:55 | 00:00:00 | |
| DL1XH-west | 2026-09-01 12:39:04 | 52.90112 | 10.82332 | 0° | 0km/h | 32041m | 0m/s | -51.4°C | 0% | 61.9hPa | 2.7V | 03:13:25 | 02:09:53 | 00:00:00 | |
| DL4XJ-10 | 2026-09-01 12:39:03 | 52.90112 | 10.82332 | 0° | 0km/h | 32041m | 0.0m/s | -50.4°C | 0% | 0hPa | 2.6V | 00:00:00 | 00:00:00 | 00:00:00 | |
| DF8AY | 2026-09-01 12:39:02 | 52.90112 | 10.82332 | 0° | 0km/h | 32041m | 0m/s | -51.9°C | 0% | 61.4hPa | 2.6V | 03:13:25 | 02:09:50 | 00:00:00 | |
| DK7RCA | 2026-09-01 12:39:00 | 52.90110 | 10.81225 | 75° | 22km/h | 30841m | 4.7m/s | -51.8°C | 0.6% | 61.5hPa | 2.6V | 03:13:00 | 00:00:00 | 00:00:00 | |
| DG6HD-15 | 2026-09-01 12:38:58 | 52.90112 | 10.82332 | 0° | 0km/h | 32041m | 0.0m/s | -52.2°C | 0.6% | 61.0hPa | 2.6V | 03:13:00 | 00:00:00 | 00:00:00 | |
| BIOWL1-15 | 2026-09-01 12:38:56 | 52.90112 | 10.82332 | 0° | 0km/h | 32041m | 0m/s | -52.5°C | 0% | 60.6hPa | 2.6V | 03:13:25 | 02:09:46 | 00:00:00 | |
| DB0DAN | 2026-09-01 12:38:55 | 52.90112 | 10.82332 | 0° | 0km/h | 32041m | 0m/s | -52.7°C | 0.6% | 60.39hPa | 2.6V | 00:00:00 | 00:00:00 | 00:00:00 | |
| HSKMA3-T | 2026-09-01 12:38:55 | 52.90112 | 10.82332 | 0° | 0km/h | 32041m | 0m/s | -52.7°C | 0% | 60.4hPa | 2.6V | 03:13:25 | 02:09:45 | 00:00:00 | |
| AP2371 | 2026-09-01 12:38:54 | 52.90112 | 10.82332 | 0° | 0km/h | 32041m | 0.0m/s | -52.7°C | 0.6% | 60.4hPa | 2.7V | 00:00:00 | 00:00:00 | 00:00:00 | |
| DL1XH-west | 2026-09-01 12:38:52 | 52.90112 | 10.82332 | 0° | 0km/h | 32041m | 0m/s | -52.9°C | 0% | 59.8hPa | 2.7V | 03:13:25 | 02:09:42 | 00:00:00 | |
| DF8AY | 2026-09-01 12:38:48 | 52.90112 | 10.82332 | 0° | 0km/h | 32041m | 0m/s | -52.7°C | 0% | 59hPa | 2.6V | 03:13:25 | 02:09:38 | 00:00:00 | |
| HSKMA3-T | 2026-09-01 12:38:46 | 52.90112 | 10.82332 | 0° | 0km/h | 32041m | 0m/s | -52.6°C | 0% | 58.5hPa | 2.7V | 03:13:25 | 02:09:35 | 00:00:00 | |
| DL4XJ-10 | 2026-09-01 12:38:43 | 52.90112 | 10.82332 | 0° | 0km/h | 32041m | 0.0m/s | -51.3°C | 0% | 0hPa | 2.7V | 00:00:00 | 00:00:00 | 00:00:00 | |
| DL1XH-west | 2026-09-01 12:38:41 | 52.90112 | 10.82332 | 0° | 0km/h | 32041m | 0m/s | -51.8°C | 0% | 57.8hPa | 2.7V | 03:13:25 | 02:09:31 | 00:00:00 | |
| DB0DAN | 2026-09-01 12:38:40 | 52.90112 | 10.82332 | 0° | 0km/h | 32041m | 0m/s | -51.7°C | 0.5% | 57.67hPa | 2.7V | 00:00:00 | 00:00:00 | 00:00:00 | |
| DF8AY | 2026-09-01 12:38:38 | 52.90112 | 10.82332 | 0° | 0km/h | 32041m | 0m/s | -51.2°C | 0% | 56.3hPa | 2.6V | 03:13:25 | 02:09:22 | 00:00:00 | |
| DL4BBY-15 | 2026-09-01 12:38:38 | 52.90112 | 10.82332 | 0° | 0km/h | 32041m | 0.0m/s | -50.3°C | 0% | 0hPa | 2.7V | 00:00:00 | 00:00:00 | 00:00:00 | |
| DG6HD-15 | 2026-09-01 12:38:36 | 52.90112 | 10.82332 | 0° | 0km/h | 32041m | 0.0m/s | -51.2°C | 0.5% | 57.2hPa | 2.7V | 03:13:00 | 00:00:00 | 00:00:00 | |
| HSKMA3-T | 2026-09-01 12:38:35 | 52.90112 | 10.82332 | 0° | 0km/h | 32041m | 0m/s | -51.2°C | 0% | 56.8hPa | 2.7V | 03:13:25 | 02:09:25 | 00:00:00 | |
| BIOWL1-15 | 2026-09-01 12:38:33 | 52.90112 | 10.82332 | 0° | 0km/h | 32041m | 0m/s | -51.3°C | 0% | 56.5hPa | 2.7V | 03:13:25 | 02:09:23 | 00:00:00 | |
| DL1XH-west | 2026-09-01 12:38:30 | 52.90112 | 10.82332 | 0° | 0km/h | 32041m | 0m/s | -51.2°C | 0% | 55.9hPa | 2.7V | 03:13:25 | 02:09:20 | 00:00:00 | |
| HSKMA3-T | 2026-09-01 12:38:25 | 52.90112 | 10.82332 | 0° | 0km/h | 32041m | 0m/s | -51.3°C | 0% | 55.1hPa | 2.6V | 03:13:25 | 02:09:15 | 00:00:00 | |
| DB0DAN | 2026-09-01 12:38:25 | 52.90112 | 10.82332 | 0° | 0km/h | 32041m | 0m/s | -51.3°C | 0.5% | 55.06hPa | 2.6V | 00:00:00 | 00:00:00 | 00:00:00 | |
| DL4XJ-10 | 2026-09-01 12:38:23 | 52.90112 | 10.82332 | 0° | 0km/h | 32041m | 0.0m/s | -50.5°C | 0% | 0hPa | 2.7V | 00:00:00 | 00:00:00 | 00:00:00 | |
| AA1-15 | 2026-09-01 12:38:22 | 52.90112 | 10.82332 | 0° | 0km/h | 32041m | 0m/s | -51.6°C | 0% | 54.5hPa | 2.7V | 03:13:25 | 02:09:12 | 00:00:00 | |
| DF7ER-10 | 2026-09-01 12:38:21 | 52.89964 | 10.82188 | 53° | 15km/h | 31913m | 5.5m/s | -51.8°C | 0.6% | 54.3hPa | 2.6V | 03:14:00 | 00:00:00 | 00:00:00 | |
| DL2RXE-15 | 2026-09-01 12:38:19 | 52.90112 | 10.82332 | 0° | 0km/h | 32041m | 0.0m/s | -51.9°C | 0.5% | 54.2hPa | 2.6V | 03:14:00 | 00:00:00 | 00:00:00 | |
| DF8AY | 2026-09-01 12:38:14 | 52.90112 | 10.82332 | 0° | 0km/h | 32041m | 0m/s | -51.9°C | 0% | 53.2hPa | 2.6V | 03:15:58 | 02:09:04 | 00:00:00 | |
| AA1-15 | 2026-09-01 12:38:12 | 52.90112 | 10.82332 | 0° | 0km/h | 32041m | 0m/s | -51.8°C | 0% | 52.8hPa | 2.7V | 03:14:16 | 02:09:02 | 00:00:00 | |
| BIOWL1-15 | 2026-09-01 12:38:11 | 52.90112 | 10.82332 | 0° | 0km/h | 32041m | 0m/s | -51.7°C | 0% | 52.6hPa | 2.7V | 03:14:16 | 02:09:01 | 00:00:00 | |
| DB0DAN | 2026-09-01 12:38:10 | 52.90112 | 10.82332 | 0° | 0km/h | 32041m | 0m/s | -51.7°C | 0.5% | 52.48hPa | 2.7V | 00:00:00 | 00:00:00 | 00:00:00 | |
| DL4BBY-15 | 2026-09-01 12:38:08 | 52.90112 | 10.82332 | 0° | 0km/h | 32041m | 0.0m/s | -50.9°C | 0% | 0hPa | 2.7V | 00:00:00 | 00:00:00 | 00:00:00 | |
| TFSTFS | 2026-09-01 12:38:05 | 52.90112 | 10.82332 | 0° | 0km/h | 32041m | 0.0m/s | -52.1°C | 0.5% | 51.9hPa | 2.7V | 03:14:00 | 00:00:00 | 00:00:00 | |
| DF8AY | 2026-09-01 12:38:04 | 52.90112 | 10.82332 | 0° | 0km/h | 32041m | 0m/s | -52.2°C | 0% | 51.5hPa | 2.7V | 03:15:58 | 02:08:54 | 00:00:00 | |
| DL4XJ-10 | 2026-09-01 12:38:03 | 52.90112 | 10.82332 | 0° | 0km/h | 32041m | 0.0m/s | -51.4°C | 0% | 0hPa | 2.6V | 00:00:00 | 00:00:00 | 00:00:00 | |
| DL1XH-west | 2026-09-01 12:38:03 | 52.90112 | 10.82332 | 0° | 0km/h | 32041m | 0m/s | -52.3°C | 0% | 51.4hPa | 2.6V | 03:14:16 | 02:08:53 | 00:00:00 | |
| AA1-15 | 2026-09-01 12:38:02 | 52.90112 | 10.82332 | 0° | 0km/h | 32041m | 0m/s | -52.3°C | 0% | 51.2hPa | 2.6V | 03:14:16 | 02:08:52 | 00:00:00 | |
| BIOWL1-15 | 2026-09-01 12:38:01 | 52.90112 | 10.82332 | 0° | 0km/h | 32041m | 0m/s | -52.3°C | 0% | 50.3hPa | 2.6V | 03:14:16 | 02:08:47 | 00:00:00 | |
| DF7ER-10 | 2026-09-01 12:37:59 | 52.89964 | 10.82188 | 53° | 15km/h | 31913m | 5.5m/s | -52.3°C | 0.6% | 50.9hPa | 2.7V | 03:14:00 | 00:00:00 | 00:00:00 | |
| DG6HD-15 | 2026-09-01 12:37:57 | 52.90112 | 10.82332 | 0° | 0km/h | 32041m | 0.0m/s | -52.3°C | 0.6% | 50.3hPa | 2.7V | 03:14:00 | 00:00:00 | 00:00:00 | |
| DB0DAN | 2026-09-01 12:37:55 | 52.90112 | 10.82332 | 0° | 0km/h | 32041m | 0m/s | -52.2°C | 0.6% | 50.04hPa | 2.7V | 00:00:00 | 00:00:00 | 00:00:00 | |
| DF8AY | 2026-09-01 12:37:53 | 52.90112 | 10.82332 | 0° | 0km/h | 32041m | 0m/s | -51.7°C | 0% | 49.7hPa | 2.6V | 03:15:58 | 02:08:43 | 00:00:00 | |
| AA1-15 | 2026-09-01 12:37:52 | 52.90112 | 10.82332 | 0° | 0km/h | 32041m | 0m/s | -51.7°C | 0% | 49.5hPa | 2.7V | 03:14:16 | 02:08:41 | 00:00:00 | |
| DL1XH-west | 2026-09-01 12:37:52 | 52.90112 | 10.82332 | 0° | 0km/h | 32041m | 0m/s | -51.7°C | 0% | 49.6hPa | 2.6V | 03:14:16 | 02:08:42 | 00:00:00 | |
| BIOWL1-15 | 2026-09-01 12:37:50 | 52.90112 | 10.82332 | 0° | 0km/h | 32041m | 0m/s | -51.7°C | 0% | 49.3hPa | 2.7V | 03:14:16 | 02:08:40 | 00:00:00 | |
| DF7ER-10 | 2026-09-01 12:37:48 | 52.89964 | 10.82188 | 53° | 15km/h | 31913m | 5.5m/s | -51.7°C | 0.6% | 49.2hPa | 2.7V | 03:14:00 | 00:00:00 | 00:00:00 | |
| DL1LOL-11 | 2026-09-01 12:37:47 | 52.90112 | 10.82332 | 0° | 0km/h | 32041m | 0.0m/s | -51.4°C | 0.5% | 48.8hPa | 2.7V | 00:00:00 | 00:00:00 | 00:00:00 | |
| DL4XJ-10 | 2026-09-01 12:37:43 | 52.90112 | 10.82332 | 0° | 0km/h | 32041m | 0.0m/s | -50.4°C | 0% | 0hPa | 2.7V | 00:00:00 | 00:00:00 | 00:00:00 | |
| DF8AY | 2026-09-01 12:37:42 | 52.90112 | 10.82332 | 0° | 0km/h | 32041m | 0m/s | -51.7°C | 0% | 47.7hPa | 2.7V | 03:15:58 | 02:08:30 | 00:00:00 | |
| DL1XH-west | 2026-09-01 12:37:41 | 52.90112 | 10.82332 | 0° | 0km/h | 32041m | 0m/s | -51.6°C | 0% | 47.8hPa | 2.7V | 03:14:16 | 02:08:31 | 00:00:00 | |
| DB0DAN | 2026-09-01 12:37:40 | 52.90112 | 10.82332 | 0° | 0km/h | 32041m | 0m/s | -51.7°C | 0.5% | 47.68hPa | 2.7V | 00:00:00 | 00:00:00 | 00:00:00 | |
| BIOWL1-15 | 2026-09-01 12:37:38 | 52.90112 | 10.82332 | 0° | 0km/h | 32041m | 0m/s | -51.7°C | 0% | 47.3hPa | 2.6V | 03:14:16 | 02:08:28 | 00:00:00 | |
| DL4BBY-15 | 2026-09-01 12:37:38 | 52.90112 | 10.82332 | 0° | 0km/h | 32041m | 0.0m/s | -50.8°C | 0% | 0hPa | 2.7V | 00:00:00 | 00:00:00 | 00:00:00 | |
| DG6HD-15 | 2026-09-01 12:37:37 | 52.90112 | 10.82332 | 0° | 0km/h | 32041m | 0.0m/s | -51.5°C | 0.5% | 47.2hPa | 2.7V | 03:14:00 | 00:00:00 | 00:00:00 | |
| DL1XH-west | 2026-09-01 12:37:31 | 52.90112 | 10.82332 | 0° | 0km/h | 32041m | 0m/s | -51.6°C | 0% | 46.3hPa | 2.7V | 03:14:16 | 02:08:21 | 00:00:00 | |
| HSKMA3-T | 2026-09-01 12:37:31 | 52.90112 | 10.82332 | 0° | 0km/h | 32041m | 0m/s | -51.7°C | 0% | 46.2hPa | 2.7V | 03:15:07 | 02:08:20 | 00:00:00 | |
| DF8AY | 2026-09-01 12:37:30 | 52.90112 | 10.82332 | 0° | 0km/h | 32041m | 0m/s | -51.8°C | 0% | 45.5hPa | 2.7V | 03:15:58 | 02:08:15 | 00:00:00 | |
| SMARD9-10 | 2026-09-01 12:37:28 | 52.90112 | 10.82332 | 0° | 0km/h | 32041m | 0.0m/s | -51.8°C | 0.5% | 46.1hPa | 2.6V | 00:00:00 | 00:00:00 | 00:00:00 | |
| BIOWL1-15 | 2026-09-01 12:37:27 | 52.90112 | 10.82332 | 0° | 0km/h | 32041m | 0m/s | -51.9°C | 0% | 45.8hPa | 2.6V | 03:15:07 | 02:08:17 | 00:00:00 | |
| DF7ER-10 | 2026-09-01 12:37:26 | 52.89964 | 10.82188 | 53° | 15km/h | 31913m | 5.5m/s | -51.9°C | 0.6% | 45.8hPa | 2.7V | 03:15:00 | 00:00:00 | 00:00:00 | |
| DL4XJ-10 | 2026-09-01 12:37:22 | 52.90112 | 10.82332 | 0° | 0km/h | 32041m | 0.0m/s | -50.5°C | 0% | 0hPa | 2.7V | 00:00:00 | 00:00:00 | 00:00:00 | |
| TFSTFS | 2026-09-01 12:37:21 | 52.90112 | 10.82332 | 0° | 0km/h | 32041m | 0.0m/s | -51.5°C | 0.5% | 45.1hPa | 2.7V | 00:00:00 | 00:00:00 | 00:00:00 | |
| DL1XH-west | 2026-09-01 12:37:20 | 52.90112 | 10.82332 | 0° | 0km/h | 32041m | 0m/s | -51.6°C | 0% | 44.8hPa | 2.7V | 03:15:07 | 02:08:10 | 00:00:00 | |
| HSKMA3-T | 2026-09-01 12:37:18 | 52.90112 | 10.82332 | 0° | 0km/h | 32041m | 0m/s | -51.6°C | 0% | 44.5hPa | 2.6V | 03:15:07 | 02:08:08 | 00:00:00 | |
| BIOWL1-15 | 2026-09-01 12:37:17 | 52.90112 | 10.82332 | 0° | 0km/h | 32041m | 0m/s | -51.5°C | 0% | 44.4hPa | 2.6V | 03:15:07 | 02:08:07 | 00:00:00 | |
| DG6HD-15 | 2026-09-01 12:37:16 | 52.90112 | 10.82332 | 0° | 0km/h | 32041m | 0.0m/s | -51.5°C | 0.5% | 44.4hPa | 2.7V | 03:15:00 | 00:00:00 | 00:00:00 | |
| DF8AY | 2026-09-01 12:37:15 | 52.90112 | 10.82332 | 0° | 0km/h | 32041m | 0m/s | -51°C | 0% | 43.6hPa | 2.7V | 03:15:58 | 02:08:01 | 00:00:00 | |
| DK7RCA | 2026-09-01 12:37:12 | 52.90110 | 10.81225 | 75° | 22km/h | 30841m | 4.7m/s | -51.3°C | 0.5% | 43.9hPa | 2.7V | 00:00:00 | 00:00:00 | 00:00:00 | |
| DB0DAN | 2026-09-01 12:37:10 | 52.90112 | 10.82332 | 0° | 0km/h | 32041m | 0m/s | -50.9°C | 0.5% | 43.43hPa | 2.7V | 00:00:00 | 00:00:00 | 00:00:00 | |
| AA1-15 | 2026-09-01 12:37:09 | 52.90112 | 10.82332 | 0° | 0km/h | 32041m | 0m/s | -50.7°C | 0% | 43.1hPa | 2.6V | 03:15:07 | 02:07:58 | 00:00:00 | |
| DL4BBY-15 | 2026-09-01 12:37:08 | 52.90112 | 10.82332 | 0° | 0km/h | 32041m | 0.0m/s | -49.7°C | 0% | 0hPa | 2.6V | 00:00:00 | 00:00:00 | 00:00:00 | |
| HSKMA3-T | 2026-09-01 12:37:07 | 52.90112 | 10.82332 | 0° | 0km/h | 32041m | 0m/s | -50.5°C | 0% | 42.9hPa | 2.6V | 03:15:07 | 02:07:57 | 00:00:00 | |
| BIOWL1-15 | 2026-09-01 12:37:06 | 52.90112 | 10.82332 | 0° | 0km/h | 32041m | 0m/s | -50.6°C | 0% | 42.9hPa | 2.7V | 03:15:07 | 02:07:56 | 00:00:00 | |
| DF8AY | 2026-09-01 12:37:05 | 52.90112 | 10.82332 | 0° | 0km/h | 32041m | 0m/s | -50.7°C | 0% | 42.7hPa | 2.7V | 03:15:58 | 02:07:55 | 00:00:00 | |
| TFSTFS | 2026-09-01 12:37:03 | 52.90112 | 10.82332 | 0° | 0km/h | 32041m | 0.0m/s | -50.8°C | 0.5% | 42.5hPa | 2.6V | 03:15:00 | 00:00:00 | 00:00:00 | |
| AP2371 | 2026-09-01 12:37:02 | 52.90112 | 10.82332 | 0° | 0km/h | 32041m | 0.0m/s | -50.8°C | 0.5% | 42.5hPa | 2.6V | 00:00:00 | 00:00:00 | 00:00:00 | |
| DL1XH-west | 2026-09-01 12:36:58 | 52.90112 | 10.82332 | 0° | 0km/h | 32041m | 0m/s | -51.1°C | 0% | 41.6hPa | 2.6V | 03:15:07 | 02:07:47 | 00:00:00 | |
| DG6HD-15 | 2026-09-01 12:36:58 | 52.90112 | 10.82332 | 0° | 0km/h | 32041m | 0.0m/s | -51.2°C | 0.5% | 41.5hPa | 2.7V | 03:15:00 | 00:00:00 | 00:00:00 | |
| BIOWL1-15 | 2026-09-01 12:36:56 | 52.90112 | 10.82332 | 0° | 0km/h | 32041m | 0m/s | -51.2°C | 0% | 41.5hPa | 2.7V | 03:15:07 | 02:07:46 | 00:00:00 | |
| DF8AY | 2026-09-01 12:36:55 | 52.90112 | 10.82332 | 0° | 0km/h | 32041m | 0m/s | -51.1°C | 0% | 41.4hPa | 2.7V | 03:15:58 | 02:07:45 | 00:00:00 | |
| DB0DAN | 2026-09-01 12:36:55 | 52.90112 | 10.82332 | 0° | 0km/h | 32041m | 0m/s | -51.1°C | 0.5% | 41.38hPa | 2.7V | 00:00:00 | 00:00:00 | 00:00:00 | |
| DL1XH-west | 2026-09-01 12:36:47 | 52.90112 | 10.82332 | 0° | 0km/h | 32041m | 0m/s | -51.3°C | 0% | 40.2hPa | 2.6V | 03:15:07 | 02:07:37 | 00:00:00 | |
| HSKMA3-T | 2026-09-01 12:36:46 | 52.90112 | 10.82332 | 0° | 0km/h | 32041m | 0m/s | -51.4°C | 0% | 40.1hPa | 2.7V | 03:15:07 | 02:07:36 | 00:00:00 | |
| BIOWL1-15 | 2026-09-01 12:36:45 | 52.90112 | 10.82332 | 0° | 0km/h | 32041m | 0m/s | -51.4°C | 0% | 39.4hPa | 2.7V | 03:15:07 | 02:07:31 | 00:00:00 | |
| SMARD9-10 | 2026-09-01 12:36:44 | 52.90112 | 10.82332 | 0° | 0km/h | 32041m | 0.0m/s | -51.6°C | 0.5% | 40.0hPa | 2.6V | 00:00:00 | 00:00:00 | 00:00:00 | |
| DF8AY | 2026-09-01 12:36:43 | 52.90112 | 10.82332 | 0° | 0km/h | 32041m | 0m/s | -51.6°C | 0% | 39.7hPa | 2.6V | 03:15:58 | 02:07:33 | 00:00:00 | |
| TFSTFS | 2026-09-01 12:36:41 | 52.90112 | 10.82332 | 0° | 0km/h | 32041m | 0.0m/s | -51.4°C | 0.5% | 39.4hPa | 2.7V | 03:15:00 | 00:00:00 | 00:00:00 | |
| DB0DAN | 2026-09-01 12:36:40 | 52.90112 | 10.82332 | 0° | 0km/h | 32041m | 0m/s | -51.5°C | 0.5% | 39.34hPa | 2.7V | 00:00:00 | 00:00:00 | 00:00:00 | |
| DL2RXE-15 | 2026-09-01 12:36:39 | 52.90112 | 10.82332 | 0° | 0km/h | 32041m | 0.0m/s | -51.5°C | 0.5% | 39.3hPa | 2.6V | 03:15:00 | 00:00:00 | 00:00:00 | |
| DL4BBY-15 | 2026-09-01 12:36:38 | 52.90112 | 10.82332 | 0° | 0km/h | 32041m | 0.0m/s | -50.6°C | 0% | 0hPa | 2.6V | 00:00:00 | 00:00:00 | 00:00:00 | |
| DL1XH-west | 2026-09-01 12:36:37 | 52.90112 | 10.82332 | 0° | 0km/h | 32041m | 0m/s | -51.5°C | 0% | 38.9hPa | 2.6V | 03:15:58 | 02:07:27 | 00:00:00 | |
| BIOWL1-15 | 2026-09-01 12:36:35 | 52.90112 | 10.82332 | 0° | 0km/h | 32041m | 0m/s | -51.6°C | 0% | 38.6hPa | 2.7V | 03:15:58 | 02:07:25 | 00:00:00 | |
| DG6HD-15 | 2026-09-01 12:36:34 | 52.90112 | 10.82332 | 0° | 0km/h | 32041m | 0.0m/s | -51.6°C | 0.5% | 38.6hPa | 2.6V | 03:15:00 | 00:00:00 | 00:00:00 | |
| DF8AY | 2026-09-01 12:36:33 | 52.90112 | 10.82332 | 0° | 0km/h | 32041m | 0m/s | -51.6°C | 0% | 38.4hPa | 2.6V | 03:15:58 | 02:07:23 | 00:00:00 | |
| DL1CLM-18 | 2026-09-01 12:36:30 | 52.90112 | 10.82332 | 0° | 0km/h | 32041m | 0.0m/s | -51.7°C | 0.5% | 37.9hPa | 2.6V | 00:00:00 | 00:00:00 | 00:00:00 | |
| DK7RCA | 2026-09-01 12:36:28 | 52.90110 | 10.81225 | 75° | 22km/h | 30841m | 4.7m/s | -51.6°C | 0.5% | 37.8hPa | 2.6V | 03:15:00 | 00:00:00 | 00:00:00 | |
| DL4XJ-10 | 2026-09-01 12:36:27 | 52.90112 | 10.82332 | 0° | 0km/h | 32041m | 0.0m/s | -50.6°C | 0% | 0hPa | 2.6V | 00:00:00 | 00:00:00 | 00:00:00 | |
| DL1XH-west | 2026-09-01 12:36:27 | 52.90112 | 10.82332 | 0° | 0km/h | 32041m | 0m/s | -51.5°C | 0% | 37.5hPa | 2.6V | 03:15:58 | 02:07:17 | 00:00:00 | |
| BIOWL1-15 | 2026-09-01 12:36:25 | 52.90112 | 10.82332 | 0° | 0km/h | 32041m | 0m/s | -51.6°C | 0% | 36.9hPa | 2.6V | 03:15:58 | 02:07:13 | 00:00:00 | |
| HSKMA3-T | 2026-09-01 12:36:25 | 52.90112 | 10.82332 | 0° | 0km/h | 32041m | 0m/s | -51.4°C | 0% | 37.2hPa | 2.7V | 03:15:58 | 02:07:15 | 00:00:00 | |
| DB0DAN | 2026-09-01 12:36:25 | 52.90112 | 10.82332 | 0° | 0km/h | 32041m | 0m/s | -51.4°C | 0.5% | 37.17hPa | 2.7V | 00:00:00 | 00:00:00 | 00:00:00 | |
| DF8AY | 2026-09-01 12:36:22 | 52.90112 | 10.82332 | 0° | 0km/h | 32041m | 0m/s | -51.7°C | 0% | 36.8hPa | 2.6V | 03:15:58 | 02:07:12 | 00:00:00 | |
| 13BRC | 2026-09-01 12:36:21 | 52.90112 | 10.82332 | 0° | 0km/h | 32041m | 0.0m/s | -51.7°C | 0.5% | 36.8hPa | 2.6V | 03:15:00 | 00:00:00 | 00:00:00 | |
| SMARD9-10 | 2026-09-01 12:36:19 | 52.90112 | 10.82332 | 0° | 0km/h | 32041m | 0.0m/s | -51.7°C | 0.5% | 36.6hPa | 2.6V | 00:00:00 | 00:00:00 | 00:00:00 | |
| DG6HD-15 | 2026-09-01 12:36:18 | 52.90112 | 10.82332 | 0° | 0km/h | 32041m | 0.0m/s | -52.1°C | 0.5% | 35.9hPa | 2.6V | 03:15:00 | 00:00:00 | 00:00:00 | |
| DL1XH-west | 2026-09-01 12:36:17 | 52.90112 | 10.82332 | 0° | 0km/h | 32041m | 0m/s | -51.9°C | 0% | 36.2hPa | 2.6V | 03:15:58 | 02:07:07 | 00:00:00 | |
| HSKMA3-T | 2026-09-01 12:36:15 | 52.90112 | 10.82332 | 0° | 0km/h | 32041m | 0m/s | -52.1°C | 0% | 35.9hPa | 2.6V | 03:15:58 | 02:07:05 | 00:00:00 | |
| AP2371 | 2026-09-01 12:36:14 | 52.90112 | 10.82332 | 0° | 0km/h | 32041m | 0.0m/s | -52.2°C | 0.5% | 35.8hPa | 2.7V | 00:00:00 | 00:00:00 | 00:00:00 | |
| DF8AY | 2026-09-01 12:36:11 | 52.90112 | 10.82332 | 0° | 0km/h | 32041m | 0m/s | -52.6°C | 0% | 35.5hPa | 2.7V | 03:15:58 | 02:07:01 | 00:00:00 | |
| DB0DAN | 2026-09-01 12:36:10 | 52.90112 | 10.82332 | 0° | 0km/h | 32041m | 0m/s | -52.7°C | 0.5% | 35.32hPa | 2.6V | 00:00:00 | 00:00:00 | 00:00:00 | |
| DL4BBY-15 | 2026-09-01 12:36:08 | 52.90112 | 10.82332 | 0° | 0km/h | 32041m | 0.0m/s | -51.8°C | 0% | 0hPa | 2.7V | 00:00:00 | 00:00:00 | 00:00:00 | |
| DL1XH-west | 2026-09-01 12:36:06 | 52.90112 | 10.82332 | 0° | 0km/h | 32041m | 0m/s | -52.9°C | 0% | 34.8hPa | 2.7V | 03:15:58 | 02:06:56 | 00:00:00 | |
| DL4XJ-10 | 2026-09-01 12:36:06 | 52.90112 | 10.82332 | 0° | 0km/h | 32041m | 0.0m/s | -52.0°C | 0% | 0hPa | 2.6V | 00:00:00 | 00:00:00 | 00:00:00 | |
| HSKMA3-T | 2026-09-01 12:36:04 | 52.90112 | 10.82332 | 0° | 0km/h | 32041m | 0m/s | -53°C | 0% | 34.6hPa | 2.6V | 03:15:58 | 02:06:54 | 00:00:00 | |
| BIOWL1-15 | 2026-09-01 12:36:02 | 52.90112 | 10.82332 | 0° | 0km/h | 32041m | 0m/s | -52.9°C | 0% | 34.4hPa | 2.7V | 03:15:58 | 02:06:52 | 00:00:00 | |
| DF8AY | 2026-09-01 12:36:00 | 52.90112 | 10.82332 | 0° | 0km/h | 32041m | 0m/s | -52.8°C | 0% | 34.1hPa | 2.6V | 03:15:58 | 02:06:50 | 00:00:00 | |
| TFSTFS | 2026-09-01 12:35:58 | 52.90112 | 10.82332 | 0° | 0km/h | 32041m | 0.0m/s | -52.8°C | 0.6% | 34.0hPa | 2.7V | 00:00:00 | 00:00:00 | 00:00:00 | |
| DL1XH-west | 2026-09-01 12:35:56 | 52.90112 | 10.82332 | 0° | 0km/h | 32041m | 0m/s | -52.3°C | 0% | 33.7hPa | 2.7V | 03:15:58 | 02:06:46 | 00:00:00 | |
| DB0DAN | 2026-09-01 12:35:55 | 52.90112 | 10.82332 | 0° | 0km/h | 32041m | 0m/s | -52.2°C | 0.5% | 33.57hPa | 2.6V | 00:00:00 | 00:00:00 | 00:00:00 | |
| BIOWL1-15 | 2026-09-01 12:35:54 | 52.90112 | 10.82332 | 0° | 0km/h | 32041m | 0m/s | -52.3°C | 0% | 33hPa | 2.7V | 03:15:58 | 02:06:40 | 00:00:00 | |
| 13BRC | 2026-09-01 12:35:54 | 52.90112 | 10.82332 | 0° | 0km/h | 32041m | 0.0m/s | -52.2°C | 0.5% | 33.5hPa | 2.7V | 03:15:00 | 00:00:00 | 00:00:00 | |
| AA1-15 | 2026-09-01 12:35:53 | 52.90112 | 10.82332 | 0° | 0km/h | 32041m | 0m/s | -52.2°C | 0% | 33.2hPa | 2.7V | 03:15:58 | 02:06:42 | 00:00:00 | |
| HSKMA3-T | 2026-09-01 12:35:53 | 52.90112 | 10.82332 | 0° | 0km/h | 32041m | 0m/s | -52.2°C | 0% | 33.3hPa | 2.7V | 03:15:58 | 02:06:43 | 00:00:00 | |
| DF7ER-10 | 2026-09-01 12:35:52 | 52.89964 | 10.82188 | 53° | 15km/h | 31913m | 5.5m/s | -52.2°C | 0.5% | 33.3hPa | 2.7V | 03:15:00 | 00:00:00 | 00:00:00 | |
| DL4XJ-10 | 2026-09-01 12:35:46 | 52.90112 | 10.82332 | 0° | 0km/h | 32041m | 0.0m/s | -51.4°C | 0% | 0hPa | 2.7V | 00:00:00 | 00:00:00 | 00:00:00 | |
| DL1XH-west | 2026-09-01 12:35:45 | 52.90112 | 10.82332 | 0° | 0km/h | 32041m | 0m/s | -52.2°C | 0% | 32.4hPa | 2.7V | 03:16:49 | 02:06:35 | 00:00:00 | |
| AA1-15 | 2026-09-01 12:35:43 | 52.90112 | 10.82332 | 0° | 0km/h | 32041m | 0m/s | -51.8°C | 0% | 32hPa | 2.6V | 03:16:49 | 02:06:31 | 00:00:00 | |
| HSKMA3-T | 2026-09-01 12:35:42 | 52.90112 | 10.82332 | 0° | 0km/h | 32041m | 0m/s | -51.9°C | 0% | 32.1hPa | 2.6V | 03:16:49 | 02:06:32 | 00:00:00 | |
| BIOWL1-15 | 2026-09-01 12:35:40 | 52.90112 | 10.82332 | 0° | 0km/h | 32041m | 0m/s | -51.8°C | 0% | 31.9hPa | 2.7V | 03:16:49 | 02:06:30 | 00:00:00 | |
| DB0DAN | 2026-09-01 12:35:40 | 52.90112 | 10.82332 | 0° | 0km/h | 32041m | 0m/s | -51.8°C | 0.5% | 31.94hPa | 2.7V | 00:00:00 | 00:00:00 | 00:00:00 | |
| DF8AY | 2026-09-01 12:35:38 | 52.90112 | 10.82332 | 0° | 0km/h | 32041m | 0m/s | -51.8°C | 0% | 31.7hPa | 2.7V | 03:16:49 | 02:06:28 | 00:00:00 | |
| DL4BBY-15 | 2026-09-01 12:35:38 | 52.90112 | 10.82332 | 0° | 0km/h | 32041m | 0.0m/s | -50.9°C | 0% | 0hPa | 2.7V | 00:00:00 | 00:00:00 | 00:00:00 | |
| DL1XH-west | 2026-09-01 12:35:35 | 52.90112 | 10.82332 | 0° | 0km/h | 32041m | 0m/s | -51.6°C | 0% | 31.5hPa | 2.7V | 03:16:49 | 02:06:25 | 00:00:00 | |
| SMARD9-10 | 2026-09-01 12:35:33 | 52.90112 | 10.82332 | 0° | 0km/h | 32041m | 0.0m/s | -51.5°C | 0.4% | 31.3hPa | 2.7V | 00:00:00 | 00:00:00 | 00:00:00 | |
| DG6HD-15 | 2026-09-01 12:35:32 | 52.90112 | 10.82332 | 0° | 0km/h | 32041m | 0.0m/s | -51.4°C | 0.5% | 31.2hPa | 2.7V | 03:16:00 | 00:00:00 | 00:00:00 | |
| AA1-15 | 2026-09-01 12:35:31 | 52.90112 | 10.82332 | 0° | 0km/h | 32041m | 0m/s | -51.3°C | 0% | 30.8hPa | 2.7V | 03:16:49 | 02:06:20 | 00:00:00 | |
| HSKMA3-T | 2026-09-01 12:35:31 | 52.90112 | 10.82332 | 0° | 0km/h | 32041m | 0m/s | -51.3°C | 0% | 31hPa | 2.6V | 03:16:49 | 02:06:21 | 00:00:00 | |
| BIOWL1-15 | 2026-09-01 12:35:28 | 52.90112 | 10.82332 | 0° | 0km/h | 32041m | 0m/s | -51.4°C | 0% | 30.6hPa | 2.7V | 03:16:49 | 02:06:18 | 00:00:00 | |
| DB0DAN | 2026-09-01 12:35:25 | 52.90112 | 10.82332 | 0° | 0km/h | 32041m | 0m/s | -51.4°C | 0.5% | 30.27hPa | 2.6V | 00:00:00 | 00:00:00 | 00:00:00 | |
| DL1XH-west | 2026-09-01 12:35:25 | 52.90112 | 10.82332 | 0° | 0km/h | 32041m | 0m/s | -51.4°C | 0% | 30.3hPa | 2.6V | 03:16:49 | 02:06:15 | 00:00:00 | |
| DL4XJ-10 | 2026-09-01 12:35:25 | 52.90112 | 10.82332 | 0° | 0km/h | 32041m | 0.0m/s | -50.4°C | 0% | 0hPa | 2.7V | 00:00:00 | 00:00:00 | 00:00:00 | |
| AP2371 | 2026-09-01 12:35:24 | 52.90112 | 10.82332 | 0° | 0km/h | 32041m | 0.0m/s | -51.4°C | 0.5% | 30.3hPa | 2.7V | 00:00:00 | 00:00:00 | 00:00:00 | |
| HSKMA3-T | 2026-09-01 12:35:21 | 52.90112 | 10.82332 | 0° | 0km/h | 32041m | 0m/s | -51.3°C | 0% | 29.8hPa | 2.7V | 03:16:49 | 02:06:11 | 00:00:00 | |
| AA1-15 | 2026-09-01 12:35:21 | 52.90112 | 10.82332 | 0° | 0km/h | 32041m | 0m/s | -51.3°C | 0% | 29.7hPa | 2.7V | 03:16:49 | 02:06:10 | 00:00:00 | |
| DL1CLM-18 | 2026-09-01 12:35:20 | 52.90112 | 10.82332 | 0° | 0km/h | 32041m | 0.0m/s | -51.3°C | 0.5% | 29.8hPa | 2.7V | 00:00:00 | 00:00:00 | 00:00:00 | |
| DF8AY | 2026-09-01 12:35:17 | 52.90112 | 10.82332 | 0° | 0km/h | 32041m | 0m/s | -51.2°C | 0% | 29.4hPa | 2.7V | 03:16:49 | 02:06:07 | 00:00:00 | |
| DL1XH-west | 2026-09-01 12:35:15 | 52.90112 | 10.82332 | 0° | 0km/h | 32041m | 0m/s | -51.1°C | 0% | 29.2hPa | 2.7V | 03:16:49 | 02:06:05 | 00:00:00 | |
| HSKMA3-T | 2026-09-01 12:35:11 | 52.90112 | 10.82332 | 0° | 0km/h | 32041m | 0m/s | -51°C | 0% | 28.7hPa | 2.7V | 03:16:49 | 02:06:01 | 00:00:00 | |
| AA1-15 | 2026-09-01 12:35:10 | 52.90112 | 10.82332 | 0° | 0km/h | 32041m | 0m/s | -50.6°C | 0% | 28.5hPa | 2.7V | 03:16:49 | 02:05:59 | 00:00:00 | |
| DB0DAN | 2026-09-01 12:35:10 | 52.90112 | 10.82332 | 0° | 0km/h | 32041m | 0m/s | -50.8°C | 0.5% | 28.63hPa | 2.7V | 00:00:00 | 00:00:00 | 00:00:00 | |
| DL4BBY-15 | 2026-09-01 12:35:08 | 52.90112 | 10.82332 | 0° | 0km/h | 32041m | 0.0m/s | -49.5°C | 0% | 0hPa | 2.6V | 00:00:00 | 00:00:00 | 00:00:00 | |
| DF8AY | 2026-09-01 12:35:06 | 52.90112 | 10.82332 | 0° | 0km/h | 32041m | 0m/s | -50°C | 0% | 28.2hPa | 2.6V | 03:16:49 | 02:05:56 | 00:00:00 | |
| DL1XH-west | 2026-09-01 12:35:05 | 52.90112 | 10.82332 | 0° | 0km/h | 32041m | 0m/s | -49.9°C | 0% | 28.1hPa | 2.7V | 03:16:49 | 02:05:55 | 00:00:00 | |
| DL4XJ-10 | 2026-09-01 12:35:05 | 52.90112 | 10.82332 | 0° | 0km/h | 32041m | 0.0m/s | -49.0°C | 0% | 0hPa | 2.7V | 00:00:00 | 00:00:00 | 00:00:00 | |
| BIOWL1-15 | 2026-09-01 12:35:03 | 52.90112 | 10.82332 | 0° | 0km/h | 32041m | 0m/s | -49.7°C | 0% | 27.9hPa | 2.7V | 03:16:49 | 02:05:53 | 00:00:00 | |
| HSKMA3-T | 2026-09-01 12:35:00 | 52.90112 | 10.82332 | 0° | 0km/h | 32041m | 0m/s | -49.4°C | 0% | 27.6hPa | 2.6V | 03:16:49 | 02:05:50 | 00:00:00 | |
| SMARD9-10 | 2026-09-01 12:34:59 | 52.90112 | 10.82332 | 0° | 0km/h | 32041m | 0.0m/s | -49.4°C | 0.4% | 27.6hPa | 2.7V | 00:00:00 | 00:00:00 | 00:00:00 | |
| AA1-15 | 2026-09-01 12:34:58 | 52.90112 | 10.82332 | 0° | 0km/h | 32041m | 0m/s | -49.5°C | 0% | 27.4hPa | 2.7V | 03:16:49 | 02:05:48 | 00:00:00 | |
| DF8AY | 2026-09-01 12:34:56 | 52.90112 | 10.82332 | 0° | 0km/h | 32041m | 0m/s | -49.5°C | 0% | 27.2hPa | 2.6V | 03:17:40 | 02:05:46 | 00:00:00 | |
| DB0DAN | 2026-09-01 12:34:55 | 52.90112 | 10.82332 | 0° | 0km/h | 32041m | 0m/s | -49.5°C | 0.4% | 27.1hPa | 2.6V | 00:00:00 | 00:00:00 | 00:00:00 | |
| DL1XH-west | 2026-09-01 12:34:54 | 52.90112 | 10.82332 | 0° | 0km/h | 32041m | 0m/s | -49.1°C | 0% | 26.9hPa | 2.7V | 03:17:40 | 02:05:43 | 00:00:00 | |
| TFSTFS | 2026-09-01 12:34:54 | 52.90112 | 10.82332 | 0° | 0km/h | 32041m | 0.0m/s | -49.3°C | 0.4% | 27.0hPa | 2.7V | 00:00:00 | 00:00:00 | 00:00:00 | |
| BIOWL1-15 | 2026-09-01 12:34:53 | 52.90112 | 10.82332 | 0° | 0km/h | 32041m | 0m/s | -49.1°C | 0% | 26.7hPa | 2.7V | 03:18:31 | 02:05:41 | 00:00:00 | |
| DG6HD-15 | 2026-09-01 12:34:51 | 52.90112 | 10.82332 | 0° | 0km/h | 32041m | 0.0m/s | -49.1°C | 0.4% | 26.8hPa | 2.6V | 03:17:00 | 00:00:00 | 00:00:00 | |
| HSKMA3-T | 2026-09-01 12:34:50 | 52.90112 | 10.82332 | 0° | 0km/h | 32041m | 0m/s | -49.1°C | 0% | 26.7hPa | 2.6V | 03:17:40 | 02:05:40 | 00:00:00 | |
| AA1-15 | 2026-09-01 12:34:48 | 52.90112 | 10.82332 | 0° | 0km/h | 32041m | 0m/s | -49.3°C | 0% | 26.4hPa | 2.6V | 03:17:40 | 02:05:38 | 00:00:00 | |
| DF8AY | 2026-09-01 12:34:45 | 52.90112 | 10.82332 | 0° | 0km/h | 32041m | 0m/s | -49.3°C | 0% | 26.1hPa | 2.7V | 03:17:40 | 02:05:35 | 00:00:00 | |
| DL4XJ-10 | 2026-09-01 12:34:45 | 52.90112 | 10.82332 | 0° | 0km/h | 32041m | 0.0m/s | -48.3°C | 0% | 0hPa | 2.6V | 00:00:00 | 00:00:00 | 00:00:00 | |
| DL1XH-west | 2026-09-01 12:34:43 | 52.90112 | 10.82332 | 0° | 0km/h | 32041m | 0m/s | -49.2°C | 0% | 25.8hPa | 2.6V | 03:17:40 | 02:05:32 | 00:00:00 | |
| DB0DAN | 2026-09-01 12:34:40 | 52.90112 | 10.82332 | 0° | 0km/h | 32041m | 0m/s | -49.3°C | 0.4% | 25.53hPa | 2.7V | 00:00:00 | 00:00:00 | 00:00:00 | |
| HSKMA3-T | 2026-09-01 12:34:39 | 52.90112 | 10.82332 | 0° | 0km/h | 32041m | 0m/s | -49.3°C | 0% | 25.4hPa | 2.7V | 03:17:40 | 02:05:29 | 00:00:00 | |
| AA1-15 | 2026-09-01 12:34:38 | 52.90112 | 10.82332 | 0° | 0km/h | 32041m | 0m/s | -49.2°C | 0% | 25.3hPa | 2.6V | 03:17:40 | 02:05:27 | 00:00:00 | |
| DF8AY | 2026-09-01 12:34:35 | 52.90112 | 10.82332 | 0° | 0km/h | 32041m | 0m/s | -49.1°C | 0% | 25hPa | 2.6V | 03:17:40 | 02:05:25 | 00:00:00 | |
| DL1XH-west | 2026-09-01 12:34:32 | 52.90112 | 10.82332 | 0° | 0km/h | 32041m | 0m/s | -48.9°C | 0% | 24.8hPa | 2.7V | 03:17:40 | 02:05:22 | 00:00:00 | |
| DG6HD-15 | 2026-09-01 12:34:31 | 52.90112 | 10.82332 | 0° | 0km/h | 32041m | 0.0m/s | -48.9°C | 0.4% | 24.8hPa | 2.7V | 03:17:00 | 00:00:00 | 00:00:00 | |
| DL2RXE-15 | 2026-09-01 12:34:30 | 52.90112 | 10.82332 | 0° | 0km/h | 32041m | 0.0m/s | -49.0°C | 0.4% | 24.7hPa | 2.7V | 00:00:00 | 00:00:00 | 00:00:00 | |
| HSKMA3-T | 2026-09-01 12:34:28 | 52.90112 | 10.82332 | 0° | 0km/h | 32041m | 0m/s | -48.9°C | 0% | 24.4hPa | 2.7V | 03:17:40 | 02:05:18 | 00:00:00 | |
| AA1-15 | 2026-09-01 12:34:27 | 52.90112 | 10.82332 | 0° | 0km/h | 32041m | 0m/s | -48.9°C | 0% | 24.3hPa | 2.7V | 03:17:40 | 02:05:17 | 00:00:00 | |
| DL4XJ-10 | 2026-09-01 12:34:25 | 52.90112 | 10.82332 | 0° | 0km/h | 32041m | 0.0m/s | -48.0°C | 0% | 0hPa | 2.6V | 00:00:00 | 00:00:00 | 00:00:00 | |
| BIOWL1-15 | 2026-09-01 12:34:24 | 52.90112 | 10.82332 | 0° | 0km/h | 32041m | 0m/s | -49°C | 0% | 24hPa | 2.6V | 03:18:31 | 02:05:14 | 00:00:00 | |
| DF8AY | 2026-09-01 12:34:23 | 52.90112 | 10.82332 | 0° | 0km/h | 32041m | 0m/s | -49°C | 0% | 23.9hPa | 2.6V | 03:17:40 | 02:05:13 | 00:00:00 | |
| DL1XH-west | 2026-09-01 12:34:22 | 52.90112 | 10.82332 | 0° | 0km/h | 32041m | 0m/s | -48.6°C | 0% | 23.6hPa | 2.7V | 03:17:40 | 02:05:10 | 00:00:00 | |
| HSKMA3-T | 2026-09-01 12:34:18 | 52.90112 | 10.82332 | 0° | 0km/h | 32041m | 0m/s | -48.5°C | 0% | 23.4hPa | 2.7V | 03:17:40 | 02:05:08 | 00:00:00 | |
| AA1-15 | 2026-09-01 12:34:17 | 52.90112 | 10.82332 | 0° | 0km/h | 32041m | 0m/s | -48.4°C | 0% | 23.3hPa | 2.6V | 03:17:40 | 02:05:07 | 00:00:00 | |
| BIOWL1-15 | 2026-09-01 12:34:14 | 52.90112 | 10.82332 | 0° | 0km/h | 32041m | 0m/s | -48°C | 0% | 22.6hPa | 2.7V | 03:18:31 | 02:05:00 | 00:00:00 | |
| DF8AY | 2026-09-01 12:34:13 | 52.90112 | 10.82332 | 0° | 0km/h | 32041m | 0m/s | -47.9°C | 0% | 22.9hPa | 2.7V | 03:17:40 | 02:05:03 | 00:00:00 | |
| DG6HD-15 | 2026-09-01 12:34:12 | 52.90112 | 10.82332 | 0° | 0km/h | 32041m | 0.0m/s | -47.9°C | 0.3% | 22.7hPa | 2.7V | 03:17:00 | 00:00:00 | 00:00:00 | |
| TFSTFS | 2026-09-01 12:34:11 | 52.90112 | 10.82332 | 0° | 0km/h | 32041m | 0.0m/s | -47.8°C | 0.3% | 22.8hPa | 2.7V | 00:00:00 | 00:00:00 | 00:00:00 | |
| DL1XH-west | 2026-09-01 12:34:08 | 52.90112 | 10.82332 | 0° | 0km/h | 32041m | 0m/s | -48°C | 0% | 22.4hPa | 2.7V | 03:17:40 | 02:04:58 | 00:00:00 | |
| DL4BBY-15 | 2026-09-01 12:34:08 | 52.90112 | 10.82332 | 0° | 0km/h | 32041m | 0.0m/s | -47.1°C | 0% | 0hPa | 2.7V | 00:00:00 | 00:00:00 | 00:00:00 | |
| AA1-15 | 2026-09-01 12:34:07 | 52.90112 | 10.82332 | 0° | 0km/h | 32041m | 0m/s | -48°C | 0% | 22.1hPa | 2.7V | 03:18:31 | 02:04:55 | 00:00:00 | |
| DF7ER-10 | 2026-09-01 12:34:07 | 52.89964 | 10.82188 | 53° | 15km/h | 31913m | 5.5m/s | -48.0°C | 0.3% | 22.3hPa | 2.7V | 03:17:00 | 00:00:00 | 00:00:00 | |
| 13BRC | 2026-09-01 12:34:05 | 52.90112 | 10.82332 | 0° | 0km/h | 32041m | 0.0m/s | -48.0°C | 0.3% | 22.2hPa | 2.7V | 03:18:00 | 00:00:00 | 00:00:00 | |
| DF8AY | 2026-09-01 12:34:02 | 52.90112 | 10.82332 | 0° | 0km/h | 32041m | 0m/s | -48.4°C | 0% | 21.8hPa | 2.7V | 03:18:31 | 02:04:52 | 00:00:00 | |
| HSKMA3-T | 2026-09-01 12:33:58 | 52.90112 | 10.82332 | 0° | 0km/h | 32041m | 0m/s | -48.9°C | 0% | 21.4hPa | 2.7V | 03:18:31 | 02:04:48 | 00:00:00 | |
| BIOWL1-15 | 2026-09-01 12:33:58 | 52.90112 | 10.82332 | 0° | 0km/h | 32041m | 0m/s | -49°C | 0% | 21.3hPa | 2.7V | 03:18:31 | 02:04:47 | 00:00:00 | |
| TFSTFS | 2026-09-01 12:33:57 | 52.90112 | 10.82332 | 0° | 0km/h | 32041m | 0.0m/s | -48.9°C | 0.4% | 21.4hPa | 2.7V | 00:00:00 | 00:00:00 | 00:00:00 | |
| AA1-15 | 2026-09-01 12:33:53 | 52.90112 | 10.82332 | 0° | 0km/h | 32041m | 0m/s | -48.8°C | 0% | 21hPa | 2.7V | 03:18:31 | 02:04:43 | 00:00:00 | |
| DL1CLM-18 | 2026-09-01 12:33:52 | 52.90112 | 10.82332 | 0° | 0km/h | 32041m | 0.0m/s | -48.8°C | 0.4% | 20.9hPa | 2.6V | 00:00:00 | 00:00:00 | 00:00:00 | |
| DF8AY | 2026-09-01 12:33:51 | 52.90112 | 10.82332 | 0° | 0km/h | 32041m | 0m/s | -48.9°C | 0% | 20.8hPa | 2.6V | 03:18:31 | 02:04:41 | 00:00:00 | |
| DL4XJ-10 | 2026-09-01 12:33:51 | 52.90112 | 10.82332 | 0° | 0km/h | 32041m | 0.0m/s | -47.9°C | 0% | 0hPa | 2.7V | 00:00:00 | 00:00:00 | 00:00:00 | |
| DL1XH-west | 2026-09-01 12:33:48 | 52.90112 | 10.82332 | 0° | 0km/h | 32041m | 0m/s | -49°C | 0% | 20.5hPa | 2.7V | 03:18:31 | 02:04:38 | 00:00:00 | |
| BIOWL1-15 | 2026-09-01 12:33:47 | 52.90112 | 10.82332 | 0° | 0km/h | 32041m | 0m/s | -49°C | 0% | 20.5hPa | 2.7V | 03:18:31 | 02:04:37 | 00:00:00 | |
| AP2371 | 2026-09-01 12:33:46 | 52.90112 | 10.82332 | 0° | 0km/h | 32041m | 0.0m/s | -49.0°C | 0.4% | 20.4hPa | 2.7V | 00:00:00 | 00:00:00 | 00:00:00 | |
| 13BRC | 2026-09-01 12:33:44 | 52.90112 | 10.82332 | 0° | 0km/h | 32041m | 0.0m/s | -48.9°C | 0.4% | 20.3hPa | 2.7V | 03:18:00 | 00:00:00 | 00:00:00 | |
| AA1-15 | 2026-09-01 12:33:43 | 52.90112 | 10.82332 | 0° | 0km/h | 32041m | 0m/s | -48.8°C | 0% | 20.1hPa | 2.7V | 03:18:31 | 02:04:33 | 00:00:00 | |
| SMARD9-10 | 2026-09-01 12:33:43 | 52.90112 | 10.82332 | 0° | 0km/h | 32041m | 0.0m/s | -48.9°C | 0.4% | 20.2hPa | 2.7V | 00:00:00 | 00:00:00 | 00:00:00 | |
| DF8AY | 2026-09-01 12:33:41 | 52.90112 | 10.82332 | 0° | 0km/h | 32041m | 0m/s | -48.6°C | 0% | 19.9hPa | 2.7V | 03:18:31 | 02:04:31 | 00:00:00 | |
| TFSTFS | 2026-09-01 12:33:38 | 52.90112 | 10.82332 | 0° | 0km/h | 32041m | 0.0m/s | -48.1°C | 0.3% | 19.7hPa | 2.6V | 00:00:00 | 00:00:00 | 00:00:00 | |
| HSKMA3-T | 2026-09-01 12:33:37 | 52.90112 | 10.82332 | 0° | 0km/h | 32041m | 0m/s | -48°C | 0% | 19.7hPa | 2.6V | 03:18:31 | 02:04:27 | 00:00:00 | |
| DL1CLM-18 | 2026-09-01 12:33:37 | 52.90112 | 10.82332 | 0° | 0km/h | 32041m | 0.0m/s | -48.0°C | 0.3% | 19.7hPa | 2.6V | 00:00:00 | 00:00:00 | 00:00:00 | |
| MECKS9 | 2026-09-01 12:33:36 | 52.89986 | 10.82197 | 71° | 27km/h | 31845m | 6.0m/s | -47.8°C | 0.3% | 19.6hPa | 2.6V | 03:18:00 | 00:00:00 | 00:00:00 | |
| DF7ER-10 | 2026-09-01 12:33:33 | 52.89964 | 10.82188 | 53° | 15km/h | 31913m | 5.5m/s | -47.2°C | 0.3% | 19.4hPa | 2.6V | 03:18:00 | 00:00:00 | 00:00:00 | |
| AA1-15 | 2026-09-01 12:33:33 | 52.90112 | 10.82332 | 0° | 0km/h | 32041m | 0m/s | -46.8°C | 0% | 19.3hPa | 2.7V | 03:18:31 | 02:04:22 | 00:00:00 | |
| DL4XJ-10 | 2026-09-01 12:33:31 | 52.90112 | 10.82332 | 0° | 0km/h | 32041m | 0.0m/s | -45.8°C | 0% | 0hPa | 2.6V | 00:00:00 | 00:00:00 | 00:00:00 | |
| DF8AY | 2026-09-01 12:33:30 | 52.90112 | 10.82332 | 0° | 0km/h | 32041m | 0m/s | -46.7°C | 0% | 19.1hPa | 2.6V | 03:18:31 | 02:04:20 | 00:00:00 | |
| DG6HD-15 | 2026-09-01 12:33:29 | 52.90112 | 10.82332 | 0° | 0km/h | 32041m | 0.0m/s | -46.7°C | 0.3% | 19.1hPa | 2.7V | 03:18:00 | 00:00:00 | 00:00:00 | |
| BIOWL1-15 | 2026-09-01 12:33:28 | 52.90112 | 10.82332 | 0° | 0km/h | 32041m | 0m/s | -46.5°C | 0% | 18.7hPa | 2.7V | 03:18:31 | 02:04:16 | 00:00:00 | |
| DL1XH-west | 2026-09-01 12:33:27 | 52.90112 | 10.82332 | 0° | 0km/h | 32041m | 0m/s | -46.6°C | 0% | 18.9hPa | 2.7V | 03:18:31 | 02:04:17 | 00:00:00 | |
| MECKS9 | 2026-09-01 12:33:24 | 52.89986 | 10.82197 | 71° | 27km/h | 31845m | 6.0m/s | -46.5°C | 0.3% | 18.7hPa | 2.7V | 03:18:00 | 00:00:00 | 00:00:00 | |
| 13BRC | 2026-09-01 12:33:23 | 52.90112 | 10.82332 | 0° | 0km/h | 32041m | 0.0m/s | -46.3°C | 0.3% | 18.6hPa | 2.7V | 03:18:00 | 00:00:00 | 00:00:00 | |
| AA1-15 | 2026-09-01 12:33:22 | 52.90112 | 10.82332 | 0° | 0km/h | 32041m | 0m/s | -46.3°C | 0% | 18.4hPa | 2.7V | 03:18:31 | 02:04:12 | 00:00:00 | |
| DF8AY | 2026-09-01 12:33:21 | 52.90112 | 10.82332 | 0° | 0km/h | 32041m | 0m/s | -46.3°C | 0% | 18.3hPa | 2.7V | 03:18:31 | 02:04:10 | 00:00:00 | |
| DL1XH-west | 2026-09-01 12:33:16 | 52.90112 | 10.82332 | 0° | 0km/h | 32041m | 0m/s | -46.2°C | 0% | 18hPa | 2.7V | 03:18:31 | 02:04:06 | 00:00:00 | |
| BIOWL1-15 | 2026-09-01 12:33:15 | 52.90112 | 10.82332 | 0° | 0km/h | 32041m | 0m/s | -46.3°C | 0% | 17.9hPa | 2.7V | 03:19:22 | 02:04:05 | 00:00:00 | |
| AA1-15 | 2026-09-01 12:33:11 | 52.90112 | 10.82332 | 0° | 0km/h | 32041m | 0m/s | -46.8°C | 0% | 17.6hPa | 2.7V | 03:19:22 | 02:04:01 | 00:00:00 | |
| DL4XJ-10 | 2026-09-01 12:33:11 | 52.90112 | 10.82332 | 0° | 0km/h | 32041m | 0.0m/s | -45.8°C | 0% | 0hPa | 2.7V | 00:00:00 | 00:00:00 | 00:00:00 | |
| DB0DAN | 2026-09-01 12:33:10 | 52.90112 | 10.82332 | 0° | 0km/h | 32041m | 0m/s | -46.7°C | 0.3% | 17.57hPa | 2.7V | 00:00:00 | 00:00:00 | 00:00:00 | |
| DF8AY | 2026-09-01 12:33:09 | 52.90112 | 10.82332 | 0° | 0km/h | 32041m | 0m/s | -46.7°C | 0% | 17.5hPa | 2.7V | 03:19:22 | 02:03:59 | 00:00:00 | |
| DL1LOL-11 | 2026-09-01 12:33:09 | 52.90112 | 10.82332 | 0° | 0km/h | 32041m | 0.0m/s | -46.7°C | 0.3% | 17.5hPa | 2.7V | 00:00:00 | 00:00:00 | 00:00:00 | |
| DL4BBY-15 | 2026-09-01 12:33:08 | 52.90112 | 10.82332 | 0° | 0km/h | 32041m | 0.0m/s | -45.7°C | 0% | 0hPa | 2.7V | 00:00:00 | 00:00:00 | 00:00:00 | |
| HSKMA3-T | 2026-09-01 12:33:06 | 52.90112 | 10.82332 | 0° | 0km/h | 32041m | 0m/s | -46.9°C | 0% | 17.2hPa | 2.7V | 03:19:22 | 02:03:56 | 00:00:00 | |
| BIOWL1-15 | 2026-09-01 12:33:05 | 52.90112 | 10.82332 | 0° | 0km/h | 32041m | 0m/s | -47.1°C | 0% | 17.1hPa | 2.7V | 03:19:22 | 02:03:55 | 00:00:00 | |
| 13BRC | 2026-09-01 12:33:03 | 52.90112 | 10.82332 | 0° | 0km/h | 32041m | 0.0m/s | -47.3°C | 0.3% | 16.9hPa | 2.7V | 00:00:00 | 00:00:00 | 00:00:00 | |
| AP2371 | 2026-09-01 12:33:02 | 52.90112 | 10.82332 | 0° | 0km/h | 32041m | 0.0m/s | -47.3°C | 0.3% | 17.0hPa | 2.7V | 03:19:00 | 00:00:00 | 00:00:00 | |
| DF8AY | 2026-09-01 12:32:59 | 52.90112 | 10.82332 | 0° | 0km/h | 32041m | 0m/s | -47.1°C | 0% | 16.7hPa | 2.7V | 03:19:22 | 02:03:49 | 00:00:00 | |
| TFSTFS | 2026-09-01 12:32:58 | 52.90112 | 10.82332 | 0° | 0km/h | 32041m | 0.0m/s | -47.1°C | 0.3% | 16.6hPa | 2.7V | 03:19:00 | 00:00:00 | 00:00:00 | |
| DL1XH-west | 2026-09-01 12:32:55 | 52.90112 | 10.82332 | 0° | 0km/h | 32041m | 0m/s | -47.1°C | 0% | 16.4hPa | 2.7V | 03:19:22 | 02:03:45 | 00:00:00 | |
| BIOWL1-15 | 2026-09-01 12:32:54 | 52.90112 | 10.82332 | 0° | 0km/h | 32041m | 0m/s | -46.9°C | 0% | 16.1hPa | 2.6V | 03:19:22 | 02:03:41 | 00:00:00 | |
| DL4XJ-10 | 2026-09-01 12:32:51 | 52.90112 | 10.82332 | 0° | 0km/h | 32041m | 0.0m/s | -46.0°C | 0% | 0hPa | 2.7V | 00:00:00 | 00:00:00 | 00:00:00 | |
| AA1-15 | 2026-09-01 12:32:50 | 52.90112 | 10.82332 | 0° | 0km/h | 32041m | 0m/s | -46.9°C | 0% | 15.9hPa | 2.7V | 03:19:22 | 02:03:39 | 00:00:00 | |
| DF8AY | 2026-09-01 12:32:48 | 52.90112 | 10.82332 | 0° | 0km/h | 32041m | 0m/s | -46.9°C | 0% | 15.9hPa | 2.7V | 03:19:22 | 02:03:38 | 00:00:00 | |
| DG6HD-15 | 2026-09-01 12:32:47 | 52.90112 | 10.82332 | 0° | 0km/h | 32041m | 0.0m/s | -46.9°C | 0.3% | 15.9hPa | 2.7V | 03:19:00 | 00:00:00 | 00:00:00 | |
| HSKMA3-T | 2026-09-01 12:32:45 | 52.90112 | 10.82332 | 0° | 0km/h | 32041m | 0m/s | -46.6°C | 0% | 0hPa | 2.7V | 03:19:22 | 02:03:35 | 00:00:00 | |
| DL1XH-west | 2026-09-01 12:32:44 | 52.90112 | 10.82332 | 0° | 0km/h | 32041m | 0m/s | -46.4°C | 0% | 15.6hPa | 2.7V | 03:19:22 | 02:03:34 | 00:00:00 | |
| BIOWL1-15 | 2026-09-01 12:32:42 | 52.90112 | 10.82332 | 0° | 0km/h | 32041m | 0m/s | -46.3°C | 0% | 15.4hPa | 2.7V | 03:19:22 | 02:03:32 | 00:00:00 | |
| DB0DAN | 2026-09-01 12:32:40 | 52.90112 | 10.82332 | 0° | 0km/h | 32041m | 0m/s | -46.5°C | 0.3% | 15.26hPa | 2.6V | 00:00:00 | 00:00:00 | 00:00:00 | |
| MECKS9 | 2026-09-01 12:32:39 | 52.89986 | 10.82197 | 71° | 27km/h | 31845m | 6.0m/s | -46.5°C | 0.3% | 15.3hPa | 2.7V | 00:00:00 | 00:00:00 | 00:00:00 | |
| AA1-15 | 2026-09-01 12:32:39 | 52.90112 | 10.82332 | 0° | 0km/h | 32041m | 0m/s | -46.6°C | 0% | 15.1hPa | 2.7V | 03:19:22 | 02:03:28 | 00:00:00 | |
| DL4BBY-15 | 2026-09-01 12:32:38 | 52.90112 | 10.82332 | 0° | 0km/h | 32041m | 0.0m/s | -45.6°C | 0% | 0hPa | 2.7V | 00:00:00 | 00:00:00 | 00:00:00 | |
| DF8AY | 2026-09-01 12:32:37 | 52.90112 | 10.82332 | 0° | 0km/h | 32041m | 0m/s | -46.7°C | 0% | 15hPa | 2.7V | 03:19:22 | 02:03:27 | 00:00:00 | |
| 13BRC | 2026-09-01 12:32:35 | 52.90112 | 10.82332 | 0° | 0km/h | 32041m | 0.0m/s | -46.9°C | 0.3% | 15.0hPa | 2.7V | 00:00:00 | 00:00:00 | 00:00:00 | |
| DL1XH-west | 2026-09-01 12:32:34 | 52.90112 | 10.82332 | 0° | 0km/h | 32041m | 0m/s | -47.1°C | 0% | 14.8hPa | 2.7V | 03:19:22 | 02:03:24 | 00:00:00 | |
| BIOWL1-15 | 2026-09-01 12:32:31 | 52.90112 | 10.82332 | 0° | 0km/h | 32041m | 0m/s | -46.7°C | 0% | 14.5hPa | 2.6V | 03:19:22 | 02:03:19 | 00:00:00 | |
| DL4XJ-10 | 2026-09-01 12:32:31 | 52.90112 | 10.82332 | 0° | 0km/h | 32041m | 0.0m/s | -46.0°C | 0% | 0hPa | 2.7V | 00:00:00 | 00:00:00 | 00:00:00 | |
| AA1-15 | 2026-09-01 12:32:28 | 52.90112 | 10.82332 | 0° | 0km/h | 32041m | 0m/s | -46.6°C | 0% | 14.4hPa | 2.7V | 03:19:22 | 02:03:18 | 00:00:00 | |
| DF8AY | 2026-09-01 12:32:27 | 52.90112 | 10.82332 | 0° | 0km/h | 32041m | 0m/s | -46.5°C | 0% | 14.3hPa | 2.7V | 03:19:22 | 02:03:17 | 00:00:00 | |
| AP2371 | 2026-09-01 12:32:25 | 52.90112 | 10.82332 | 0° | 0km/h | 32041m | 0.0m/s | -46.4°C | 0.3% | 14.2hPa | 2.7V | 03:19:00 | 00:00:00 | 00:00:00 | |
| DL1XH-west | 2026-09-01 12:32:24 | 52.90112 | 10.82332 | 0° | 0km/h | 32041m | 0m/s | -46.1°C | 0% | 14.1hPa | 2.7V | 03:20:13 | 02:03:13 | 00:00:00 | |
| HSKMA3-T | 2026-09-01 12:32:23 | 52.90112 | 10.82332 | 0° | 0km/h | 32041m | 0m/s | 0°C | 0% | 0hPa | 2.7V | 18:12:15 | 02:03:12 | 00:00:00 | |
| SMARD9-10 | 2026-09-01 12:32:20 | 52.90112 | 10.82332 | 0° | 0km/h | 32041m | 0.0m/s | -45.6°C | 0.3% | 13.8hPa | 2.7V | 00:00:00 | 00:00:00 | 00:00:00 | |
| BIOWL1-15 | 2026-09-01 12:32:18 | 52.90112 | 10.82332 | 0° | 0km/h | 32041m | 0m/s | -44.5°C | 0% | 13hPa | 2.7V | 03:20:13 | 02:02:57 | 00:00:00 | |
| AA1-15 | 2026-09-01 12:32:18 | 52.90112 | 10.82332 | 0° | 0km/h | 32041m | 0m/s | -45.5°C | 0% | 13.7hPa | 2.7V | 03:20:13 | 02:03:07 | 00:00:00 | |
| DF8AY | 2026-09-01 12:32:18 | 52.90112 | 10.82332 | 0° | 0km/h | 32041m | 0m/s | -44.9°C | 0% | 13.2hPa | 2.7V | 03:20:13 | 02:03:01 | 00:00:00 | |
| TFSTFS | 2026-09-01 12:32:15 | 52.90112 | 10.82332 | 0° | 0km/h | 32041m | 0.0m/s | -45.3°C | 0.3% | 13.5hPa | 2.7V | 03:20:00 | 00:00:00 | 00:00:00 | |
| 13BRC | 2026-09-01 12:32:14 | 52.90112 | 10.82332 | 0° | 0km/h | 32041m | 0.0m/s | -45.3°C | 0.3% | 13.5hPa | 2.7V | 03:20:00 | 00:00:00 | 00:00:00 | |
| DL1XH-west | 2026-09-01 12:32:14 | 52.90112 | 10.82332 | 0° | 0km/h | 32041m | 0m/s | -45.2°C | 0% | 13.4hPa | 2.6V | 03:20:13 | 02:03:04 | 00:00:00 | |
| HSKMA3-T | 2026-09-01 12:32:12 | 52.90112 | 10.82332 | 0° | 0km/h | 32041m | 0m/s | 0°C | 0% | 0hPa | 2.7V | 18:12:15 | 02:03:02 | 00:00:00 | |
| DL4XJ-10 | 2026-09-01 12:32:11 | 52.90112 | 10.82332 | 0° | 0km/h | 32041m | 0.0m/s | -43.9°C | 0% | 0hPa | 2.7V | 00:00:00 | 00:00:00 | 00:00:00 | |
| DF7ER-10 | 2026-09-01 12:32:10 | 52.89964 | 10.82188 | 53° | 15km/h | 31913m | 5.5m/s | -44.8°C | 0.3% | 13.1hPa | 2.7V | 03:20:00 | 00:00:00 | 00:00:00 | |
| DL4BBY-15 | 2026-09-01 12:32:08 | 52.90112 | 10.82332 | 0° | 0km/h | 32041m | 0.0m/s | -43.6°C | 0% | 0hPa | 2.7V | 00:00:00 | 00:00:00 | 00:00:00 | |
| DF8AY | 2026-09-01 12:32:06 | 52.90112 | 10.82332 | 0° | 0km/h | 32041m | 0m/s | -44.4°C | 0% | 12.8hPa | 2.7V | 03:20:13 | 02:02:55 | 00:00:00 | |
| DL1LOL-11 | 2026-09-01 12:32:05 | 52.90112 | 10.82332 | 0° | 0km/h | 32041m | 0.0m/s | -44.4°C | 0.2% | 12.8hPa | 2.6V | 00:00:00 | 00:00:00 | 00:00:00 | |
| DL1XH-west | 2026-09-01 12:32:03 | 52.90112 | 10.82332 | 0° | 0km/h | 32041m | 0m/s | -44.4°C | 0% | 12.7hPa | 2.6V | 03:20:13 | 02:02:53 | 00:00:00 | |
| BIOWL1-15 | 2026-09-01 12:32:02 | 52.90112 | 10.82332 | 0° | 0km/h | 32041m | 0m/s | -44.4°C | 0% | 12.6hPa | 2.6V | 03:20:13 | 02:02:52 | 00:00:00 | |
| AA1-15 | 2026-09-01 12:31:56 | 52.90112 | 10.82332 | 0° | 0km/h | 32041m | 0m/s | -44.9°C | 0% | 12.2hPa | 2.7V | 03:20:13 | 02:02:46 | 00:00:00 | |
| DF8AY | 2026-09-01 12:31:55 | 52.90112 | 10.82332 | 0° | 0km/h | 32041m | 0m/s | -44.9°C | 0% | 12.2hPa | 2.7V | 03:20:13 | 02:02:45 | 00:00:00 | |
| DB0DAN | 2026-09-01 12:31:55 | 52.90112 | 10.82332 | 0° | 0km/h | 32041m | 0m/s | -44.9°C | 0.3% | 12.17hPa | 2.7V | 00:00:00 | 00:00:00 | 00:00:00 | |
| TFSTFS | 2026-09-01 12:31:55 | 52.90112 | 10.82332 | 0° | 0km/h | 32041m | 0.0m/s | -44.9°C | 0.3% | 12.2hPa | 2.6V | 03:20:00 | 00:00:00 | 00:00:00 | |
| 13BRC | 2026-09-01 12:31:53 | 52.90112 | 10.82332 | 0° | 0km/h | 32041m | 0.0m/s | -44.9°C | 0.3% | 12.0hPa | 2.6V | 03:20:00 | 00:00:00 | 00:00:00 | |
| DL1XH-west | 2026-09-01 12:31:52 | 52.90112 | 10.82332 | 0° | 0km/h | 32041m | 0m/s | -44.9°C | 0% | 11.9hPa | 2.6V | 03:20:13 | 02:02:42 | 00:00:00 | |
| BIOWL1-15 | 2026-09-01 12:31:51 | 52.90112 | 10.82332 | 0° | 0km/h | 32041m | 0m/s | -44.9°C | 0% | 11.9hPa | 2.7V | 03:20:13 | 02:02:41 | 00:00:00 | |
| DL4XJ-10 | 2026-09-01 12:31:51 | 52.90112 | 10.82332 | 0° | 0km/h | 32041m | 0.0m/s | -43.9°C | 0% | 0hPa | 2.7V | 00:00:00 | 00:00:00 | 00:00:00 | |
| AA1-15 | 2026-09-01 12:31:46 | 52.90112 | 10.82332 | 0° | 0km/h | 32041m | 0m/s | -43.9°C | 0% | 11.5hPa | 2.7V | 03:20:13 | 02:02:35 | 00:00:00 | |
| DF8AY | 2026-09-01 12:31:43 | 52.90112 | 10.82332 | 0° | 0km/h | 32041m | 0m/s | -43.5°C | 0% | 11.3hPa | 2.7V | 03:20:13 | 02:02:33 | 00:00:00 | |
| DL1XH-west | 2026-09-01 12:31:41 | 52.90112 | 10.82332 | 0° | 0km/h | 32041m | 0m/s | -43°C | 0% | 11.2hPa | 2.6V | 03:20:13 | 02:02:31 | 00:00:00 | |
| DL4BBY-15 | 2026-09-01 12:31:38 | 52.90112 | 10.82332 | 0° | 0km/h | 32041m | 0.0m/s | -40.9°C | 0% | 0hPa | 2.6V | 00:00:00 | 00:00:00 | 00:00:00 | |
| AA1-15 | 2026-09-01 12:31:36 | 52.90112 | 10.82332 | 0° | 0km/h | 32041m | 0m/s | -40.9°C | 0% | 10.9hPa | 2.6V | 03:20:13 | 02:02:25 | 00:00:00 | |
| SMARD9-10 | 2026-09-01 12:31:34 | 52.90112 | 10.82332 | 0° | 0km/h | 32041m | 0.0m/s | -40.9°C | 0.2% | 10.9hPa | 2.7V | 00:00:00 | 00:00:00 | 00:00:00 | |
| DF8AY | 2026-09-01 12:31:33 | 52.90112 | 10.82332 | 0° | 0km/h | 32041m | 0m/s | -40.5°C | 0% | 10.7hPa | 2.7V | 03:24:28 | 02:02:23 | 00:00:00 | |
| 13BRC | 2026-09-01 12:31:32 | 52.90112 | 10.82332 | 0° | 0km/h | 32041m | 0.0m/s | -40.5°C | 0.2% | 10.6hPa | 2.7V | 03:21:00 | 00:00:00 | 00:00:00 | |
| DL4XJ-10 | 2026-09-01 12:31:31 | 52.90112 | 10.82332 | 0° | 0km/h | 32041m | 0.0m/s | -39.4°C | 0% | 0hPa | 2.7V | 00:00:00 | 00:00:00 | 00:00:00 | |
| BIOWL1-15 | 2026-09-01 12:31:30 | 52.90112 | 10.82332 | 0° | 0km/h | 32041m | 0m/s | -39.8°C | 0% | 10.4hPa | 2.7V | 03:22:46 | 02:02:17 | 00:00:00 | |
| DL1XH-west | 2026-09-01 12:31:30 | 52.90112 | 10.82332 | 0° | 0km/h | 32041m | 0m/s | -40.3°C | 0% | 10.5hPa | 2.6V | 03:21:04 | 02:02:20 | 00:00:00 | |
| MECKS9 | 2026-09-01 12:31:29 | 52.89986 | 10.82197 | 71° | 27km/h | 31845m | 6.0m/s | -40.3°C | 0.2% | 10.5hPa | 2.6V | 03:21:00 | 00:00:00 | 00:00:00 | |
| DG6HD-15 | 2026-09-01 12:31:26 | 52.90112 | 10.82332 | 0° | 0km/h | 32041m | 0.0m/s | -39.7°C | 0.1% | 10.3hPa | 2.6V | 03:21:00 | 00:00:00 | 00:00:00 | |
| AA1-15 | 2026-09-01 12:31:25 | 52.90112 | 10.82332 | 0° | 0km/h | 32041m | 0m/s | -39.6°C | 0% | 10.2hPa | 2.6V | 03:21:04 | 02:02:15 | 00:00:00 | |
| DF8AY | 2026-09-01 12:31:22 | 52.90112 | 10.82332 | 0° | 0km/h | 32041m | 0m/s | -39.1°C | 0% | 10.1hPa | 2.7V | 03:24:28 | 02:02:12 | 00:00:00 | |
| DG6HD-15 | 2026-09-01 12:31:20 | 52.90112 | 10.82332 | 0° | 0km/h | 32041m | 0.0m/s | -37.8°C | 0.1% | 9.1hPa | 2.6V | 03:21:00 | 00:00:00 | 00:00:00 | |
| DL1XH-west | 2026-09-01 12:31:19 | 52.90112 | 10.82332 | 0° | 0km/h | 32041m | 0m/s | -38.9°C | 0% | 9.9hPa | 2.6V | 03:21:04 | 02:02:09 | 00:00:00 | |
| MECKS9 | 2026-09-01 12:31:19 | 52.89986 | 10.82197 | 71° | 27km/h | 31845m | 6.0m/s | -38.9°C | 0.2% | 9.9hPa | 2.7V | 03:21:00 | 00:00:00 | 00:00:00 | |
| AP2371 | 2026-09-01 12:31:17 | 52.90112 | 10.82332 | 0° | 0km/h | 32041m | 0.0m/s | -38.9°C | 0.1% | 9.8hPa | 2.7V | 00:00:00 | 00:00:00 | 00:00:00 | |
| AA1-15 | 2026-09-01 12:31:14 | 52.90112 | 10.82332 | 0° | 0km/h | 32041m | 0m/s | -38.6°C | 0% | 9.5hPa | 2.7V | 03:21:04 | 02:02:03 | 00:00:00 | |
| TFSTFS | 2026-09-01 12:31:12 | 52.90112 | 10.82332 | 0° | 0km/h | 32041m | 0.0m/s | -38.6°C | 0.1% | 9.5hPa | 2.7V | 03:21:00 | 00:00:00 | 00:00:00 | |
| DF8AY | 2026-09-01 12:31:11 | 52.90112 | 10.82332 | 0° | 0km/h | 32041m | 0m/s | -38.6°C | 0% | 9.4hPa | 2.7V | 03:24:28 | 02:02:01 | 00:00:00 | |
| DL4XJ-10 | 2026-09-01 12:31:11 | 52.90112 | 10.82332 | 0° | 0km/h | 32041m | 0.0m/s | -37.6°C | 0% | 0hPa | 2.6V | 00:00:00 | 00:00:00 | 00:00:00 | |
| DB0DAN | 2026-09-01 12:31:10 | 52.90112 | 10.82332 | 0° | 0km/h | 32041m | 0m/s | -38.5°C | 0.1% | 9.35hPa | 2.6V | 00:00:00 | 00:00:00 | 00:00:00 | |
| DL1XH-west | 2026-09-01 12:31:08 | 52.90112 | 10.82332 | 0° | 0km/h | 32041m | 0m/s | -38.1°C | 0% | 9.2hPa | 2.7V | 03:21:04 | 02:01:58 | 00:00:00 | |
| BIOWL1-15 | 2026-09-01 12:31:05 | 52.90112 | 10.82332 | 0° | 0km/h | 32041m | 0m/s | -37.7°C | 0% | 9.1hPa | 2.7V | 03:22:46 | 02:01:55 | 00:00:00 | |
| AA1-15 | 2026-09-01 12:31:02 | 52.90112 | 10.82332 | 0° | 0km/h | 32041m | 0m/s | -37.5°C | 0% | 9hPa | 2.7V | 03:21:04 | 02:01:52 | 00:00:00 | |
| SMARD9-10 | 2026-09-01 12:31:01 | 52.90112 | 10.82332 | 0° | 0km/h | 32041m | 0.0m/s | -37.3°C | 0.1% | 9.0hPa | 2.6V | 00:00:00 | 00:00:00 | 00:00:00 | |
| DF8AY | 2026-09-01 12:30:58 | 52.90112 | 10.82332 | 0° | 0km/h | 32041m | 0m/s | -37.3°C | 0% | 8.8hPa | 2.6V | 03:24:28 | 02:01:48 | 00:00:00 | |
| DL1XH-west | 2026-09-01 12:30:57 | 52.90112 | 10.82332 | 0° | 0km/h | 32041m | 0m/s | -37.3°C | 0% | 8.8hPa | 2.7V | 03:21:04 | 02:01:47 | 00:00:00 | |
| DB0DAN | 2026-09-01 12:30:55 | 52.90112 | 10.82332 | 0° | 0km/h | 32041m | 0m/s | -37.1°C | 0.1% | 8.71hPa | 2.7V | 00:00:00 | 00:00:00 | 00:00:00 | |
| AA1-15 | 2026-09-01 12:30:52 | 52.90112 | 10.82332 | 0° | 0km/h | 32041m | 0m/s | -36.5°C | 0% | 8.6hPa | 2.7V | 03:21:04 | 02:01:42 | 00:00:00 | |
| DL4XJ-10 | 2026-09-01 12:30:51 | 52.90112 | 10.82332 | 0° | 0km/h | 32041m | 0.0m/s | -35.3°C | 0% | 0hPa | 2.6V | 00:00:00 | 00:00:00 | 00:00:00 | |
| 13BRC | 2026-09-01 12:30:50 | 52.90112 | 10.82332 | 0° | 0km/h | 32041m | 0.0m/s | -36.3°C | 0% | 8.6hPa | 2.6V | 03:21:00 | 00:00:00 | 00:00:00 | |
| DL1XH-west | 2026-09-01 12:30:47 | 52.90112 | 10.82332 | 0° | 0km/h | 32041m | 0m/s | -35.6°C | 0% | 8.5hPa | 2.6V | 03:21:04 | 02:01:37 | 00:00:00 | |
| MECKS9 | 2026-09-01 12:30:46 | 52.89986 | 10.82197 | 71° | 27km/h | 31845m | 6.0m/s | -35.6°C | 0.1% | 8.5hPa | 2.6V | 03:21:00 | 00:00:00 | 00:00:00 | |
| DG6HD-15 | 2026-09-01 12:30:44 | 52.90112 | 10.82332 | 0° | 0km/h | 32041m | 0.0m/s | -34.9°C | 0.1% | 8.3hPa | 2.6V | 03:21:00 | 00:00:00 | 00:00:00 | |
| AA1-15 | 2026-09-01 12:30:41 | 52.90112 | 10.82332 | 0° | 0km/h | 32041m | 0m/s | -34.3°C | 0% | 8.3hPa | 2.6V | 03:21:55 | 02:01:31 | 00:00:00 | |
| DB0DAN | 2026-09-01 12:30:40 | 52.90112 | 10.82332 | 0° | 0km/h | 32041m | 0m/s | -34.2°C | 0.1% | 8.2hPa | 2.6V | 00:00:00 | 00:00:00 | 00:00:00 | |
| DL1LOL-11 | 2026-09-01 12:30:39 | 52.90112 | 10.82332 | 0° | 0km/h | 32041m | 0.0m/s | -34.2°C | 0.1% | 8.2hPa | 2.7V | 03:21:00 | 00:00:00 | 00:00:00 | |
| DL4BBY-15 | 2026-09-01 12:30:38 | 52.90112 | 10.82332 | 0° | 0km/h | 32041m | 0.0m/s | -33.1°C | 0% | 0hPa | 2.7V | 00:00:00 | 00:00:00 | 00:00:00 | |
| DL1XH-west | 2026-09-01 12:30:36 | 52.90112 | 10.82332 | 0° | 0km/h | 32041m | 0m/s | -34°C | 0% | 8.1hPa | 2.7V | 03:21:55 | 02:01:26 | 00:00:00 | |
| MECKS9 | 2026-09-01 12:30:35 | 52.89986 | 10.82197 | 71° | 27km/h | 31845m | 6.0m/s | -34.0°C | 0.1% | 8.1hPa | 2.7V | 00:00:00 | 00:00:00 | 00:00:00 | |
| DF7ER-10 | 2026-09-01 12:30:33 | 52.89964 | 10.82188 | 53° | 15km/h | 31913m | 5.5m/s | -33.8°C | 0.1% | 8.1hPa | 2.7V | 03:21:00 | 00:00:00 | 00:00:00 | |
| DL4XJ-10 | 2026-09-01 12:30:31 | 52.90112 | 10.82332 | 0° | 0km/h | 32041m | 0.0m/s | -33.1°C | 0% | 0hPa | 2.7V | 00:00:00 | 00:00:00 | 00:00:00 | |
| AA1-15 | 2026-09-01 12:30:30 | 52.90112 | 10.82332 | 0° | 0km/h | 32041m | 0m/s | -34.2°C | 0% | 7.8hPa | 2.7V | 03:21:55 | 02:01:20 | 00:00:00 | |
| BIOWL1-15 | 2026-09-01 12:30:29 | 52.90112 | 10.82332 | 0° | 0km/h | 32041m | 0m/s | -34.1°C | 0% | 7.9hPa | 2.7V | 03:22:46 | 02:01:12 | 00:00:00 | |
| DL1XH-west | 2026-09-01 12:30:26 | 52.90112 | 10.82332 | 0° | 0km/h | 32041m | 0m/s | -34.3°C | 0% | 7.8hPa | 2.7V | 03:21:55 | 02:01:16 | 00:00:00 | |
| DB0DAN | 2026-09-01 12:30:25 | 52.90112 | 10.82332 | 0° | 0km/h | 32041m | 0m/s | -34.1°C | 0% | 7.83hPa | 2.7V | 00:00:00 | 00:00:00 | 00:00:00 | |
| DF8AY | 2026-09-01 12:30:25 | 52.90112 | 10.82332 | 0° | 0km/h | 32041m | 0m/s | -34.1°C | 0% | 7.8hPa | 2.7V | 03:24:28 | 02:01:15 | 00:00:00 | |
| DG6HD-15 | 2026-09-01 12:30:23 | 52.90112 | 10.82332 | 0° | 0km/h | 32041m | 0.0m/s | -34.1°C | 0.1% | 7.8hPa | 2.7V | 03:21:00 | 00:00:00 | 00:00:00 | |
| DF7ER-10 | 2026-09-01 12:30:22 | 52.89964 | 10.82188 | 53° | 15km/h | 31913m | 5.5m/s | -34.1°C | 0.1% | 7.8hPa | 2.7V | 03:21:00 | 00:00:00 | 00:00:00 | |
| SMARD9-10 | 2026-09-01 12:30:20 | 52.90112 | 10.82332 | 0° | 0km/h | 32041m | 0.0m/s | -34.1°C | 0.1% | 7.8hPa | 2.7V | 00:00:00 | 00:00:00 | 00:00:00 | |
| BIOWL1-15 | 2026-09-01 12:30:19 | 52.90112 | 10.82332 | 0° | 0km/h | 32041m | 0m/s | -34°C | 0% | 7.9hPa | 2.7V | 03:22:46 | 02:01:07 | 00:00:00 | |
| AA1-15 | 2026-09-01 12:30:19 | 52.90112 | 10.82332 | 0° | 0km/h | 32041m | 0m/s | -34°C | 0% | 7.9hPa | 2.7V | 03:21:55 | 02:01:06 | 00:00:00 | |
| AP2371 | 2026-09-01 12:30:18 | 52.90112 | 10.82332 | 0° | 0km/h | 32041m | 0.0m/s | -34.0°C | 0.1% | 7.9hPa | 2.7V | 00:00:00 | 00:00:00 | 00:00:00 | |
| DL1XH-west | 2026-09-01 12:30:15 | 52.90112 | 10.82332 | 0° | 0km/h | 32041m | 0m/s | -34°C | 0% | 7.9hPa | 2.7V | 03:21:55 | 02:01:05 | 00:00:00 | |
| DL1LOL-11 | 2026-09-01 12:30:12 | 52.90112 | 10.82332 | 0° | 0km/h | 32041m | 0.0m/s | -34.0°C | 0.1% | 7.9hPa | 2.7V | 03:21:00 | 00:00:00 | 00:00:00 | |
| DL4XJ-10 | 2026-09-01 12:30:11 | 52.90112 | 10.82332 | 0° | 0km/h | 32041m | 0.0m/s | -32.9°C | 0% | 0hPa | 2.7V | 00:00:00 | 00:00:00 | 00:00:00 | |
| DK7RCA | 2026-09-01 12:30:10 | 52.90110 | 10.81225 | 75° | 22km/h | 30841m | 4.7m/s | -34.0°C | 0.1% | 8.0hPa | 2.7V | 00:00:00 | 00:00:00 | 00:00:00 | |
| TFSTFS | 2026-09-01 12:30:08 | 52.90112 | 10.82332 | 0° | 0km/h | 32041m | 0.0m/s | -34.1°C | 0.1% | 8.0hPa | 2.7V | 00:00:00 | 00:00:00 | 00:00:00 | |
| 13BRC | 2026-09-01 12:30:07 | 52.90112 | 10.82332 | 0° | 0km/h | 32041m | 0.0m/s | -34.1°C | 0% | 0hPa | 2.7V | 00:00:00 | 00:00:00 | 00:00:00 | |
| DL1XH-west | 2026-09-01 12:30:05 | 52.90112 | 10.82332 | 0° | 0km/h | 32041m | 0m/s | -34.1°C | 0% | 8hPa | 2.7V | 03:21:55 | 02:00:55 | 00:00:00 | |
| BIOWL1-15 | 2026-09-01 12:30:00 | 52.90112 | 10.82332 | 0° | 0km/h | 32041m | 0m/s | -33.9°C | 0% | 8hPa | 2.6V | 03:22:46 | 02:00:50 | 00:00:00 | |
| DF8AY | 2026-09-01 12:29:54 | 52.90112 | 10.82332 | 0° | 0km/h | 32041m | 0m/s | -34°C | 0% | 8.1hPa | 2.6V | 03:24:28 | 02:00:44 | 00:00:00 | |
| DL1XH-west | 2026-09-01 12:29:53 | 52.90112 | 10.82332 | 0° | 0km/h | 32041m | 0m/s | -34°C | 0% | 8.1hPa | 2.6V | 03:21:55 | 02:00:43 | 00:00:00 | |
| DL4XJ-10 | 2026-09-01 12:29:51 | 52.90112 | 10.82332 | 0° | 0km/h | 32041m | 0.0m/s | -33.0°C | 0% | 0hPa | 2.7V | 00:00:00 | 00:00:00 | 00:00:00 | |
| BIOWL1-15 | 2026-09-01 12:29:49 | 52.90112 | 10.82332 | 0° | 0km/h | 32041m | 0m/s | -33.9°C | 0% | 8.1hPa | 2.7V | 03:22:46 | 02:00:39 | 00:00:00 | |
| TFSTFS | 2026-09-01 12:29:47 | 52.90112 | 10.82332 | 0° | 0km/h | 32041m | 0.0m/s | -34.0°C | 0.1% | 8.1hPa | 2.7V | 03:22:00 | 00:00:00 | 00:00:00 | |
| DL1LOL-11 | 2026-09-01 12:29:46 | 52.90112 | 10.82332 | 0° | 0km/h | 32041m | 0.0m/s | -34.0°C | 0.1% | 8.1hPa | 2.7V | 00:00:00 | 00:00:00 | 00:00:00 | |
| 13BRC | 2026-09-01 12:29:45 | 52.90112 | 10.82332 | 0° | 0km/h | 32041m | 0.0m/s | 0°C | 0% | 0hPa | 2.7V | 03:22:00 | 00:00:00 | 00:00:00 | |
| AA1-15 | 2026-09-01 12:29:44 | 52.90112 | 10.82332 | 0° | 0km/h | 32041m | 0m/s | -34.1°C | 0% | 8.1hPa | 2.7V | 03:22:46 | 02:00:34 | 00:00:00 | |
| DF8AY | 2026-09-01 12:29:43 | 52.90112 | 10.82332 | 0° | 0km/h | 32041m | 0m/s | -34°C | 0% | 8.1hPa | 2.6V | 03:24:28 | 02:00:32 | 00:00:00 | |
| DL1XH-west | 2026-09-01 12:29:43 | 52.90112 | 10.82332 | 0° | 0km/h | 32041m | 0m/s | -34.1°C | 0% | 8.1hPa | 2.7V | 03:22:46 | 02:00:33 | 00:00:00 | |
| DG6HD-15 | 2026-09-01 12:29:41 | 52.90112 | 10.82332 | 0° | 0km/h | 32041m | 0.0m/s | -34.0°C | 0.1% | 8.1hPa | 2.6V | 03:22:00 | 00:00:00 | 00:00:00 | |
| DB0DAN | 2026-09-01 12:29:40 | 52.90112 | 10.82332 | 0° | 0km/h | 32041m | 0m/s | -34.1°C | 0.1% | 8.16hPa | 2.6V | 00:00:00 | 00:00:00 | 00:00:00 | |
| BIOWL1-15 | 2026-09-01 12:29:40 | 52.90112 | 10.82332 | 0° | 0km/h | 32041m | 0m/s | -34°C | 0% | 8.2hPa | 2.7V | 03:22:46 | 02:00:28 | 00:00:00 | |
| DF7ER-10 | 2026-09-01 12:29:39 | 52.89964 | 10.82188 | 53° | 15km/h | 31913m | 5.5m/s | -34.1°C | 0.1% | 8.2hPa | 2.7V | 03:22:00 | 00:00:00 | 00:00:00 | |
| DL4BBY-15 | 2026-09-01 12:29:38 | 52.90112 | 10.82332 | 0° | 0km/h | 32041m | 0.0m/s | -32.9°C | 0% | 0hPa | 2.7V | 00:00:00 | 00:00:00 | 00:00:00 | |
| SMARD9-10 | 2026-09-01 12:29:34 | 52.90112 | 10.82332 | 0° | 0km/h | 32041m | 0.0m/s | -34.2°C | 0.1% | 8.2hPa | 2.7V | 03:22:00 | 00:00:00 | 00:00:00 | |
| DL1XH-west | 2026-09-01 12:29:33 | 52.90112 | 10.82332 | 0° | 0km/h | 32041m | 0m/s | -34.2°C | 0% | 8.2hPa | 2.7V | 03:22:46 | 02:00:23 | 00:00:00 | |
| DL4XJ-10 | 2026-09-01 12:29:31 | 52.90112 | 10.82332 | 0° | 0km/h | 32041m | 0.0m/s | -33.4°C | 0% | 0hPa | 2.6V | 00:00:00 | 00:00:00 | 00:00:00 | |
| BIOWL1-15 | 2026-09-01 12:29:29 | 52.90112 | 10.82332 | 0° | 0km/h | 32041m | 0m/s | -34.5°C | 0% | 8.3hPa | 2.6V | 03:22:46 | 02:00:17 | 00:00:00 | |
| DL1XH-west | 2026-09-01 12:29:23 | 52.90112 | 10.82332 | 0° | 0km/h | 32041m | 0m/s | -34.8°C | 0% | 8.3hPa | 2.7V | 03:22:46 | 02:00:13 | 00:00:00 | |
| DF8AY | 2026-09-01 12:29:22 | 52.90112 | 10.82332 | 0° | 0km/h | 32041m | 0m/s | -34.9°C | 0% | 8.3hPa | 2.6V | 03:24:28 | 02:00:12 | 00:00:00 | |
| DG6HD-15 | 2026-09-01 12:29:20 | 52.90112 | 10.82332 | 0° | 0km/h | 32041m | 0.0m/s | -34.9°C | 0.1% | 8.3hPa | 2.6V | 03:22:00 | 00:00:00 | 00:00:00 | |
| 13BRC | 2026-09-01 12:29:19 | 52.90112 | 10.82332 | 0° | 0km/h | 32041m | 0.0m/s | 0°C | 0% | 0hPa | 2.6V | 03:22:00 | 00:00:00 | 00:00:00 | |
| BIOWL1-15 | 2026-09-01 12:29:18 | 52.90112 | 10.82332 | 0° | 0km/h | 32041m | 0m/s | -35.2°C | 0% | 8.3hPa | 2.6V | 03:22:46 | 02:00:06 | 00:00:00 | |
| DL1LOL-11 | 2026-09-01 12:29:17 | 52.90112 | 10.82332 | 0° | 0km/h | 32041m | 0.0m/s | -35.0°C | 0.1% | 8.3hPa | 2.7V | 00:00:00 | 00:00:00 | 00:00:00 | |
| DL1XH-west | 2026-09-01 12:29:13 | 52.90112 | 10.82332 | 0° | 0km/h | 32041m | 0m/s | -35.2°C | 0% | 8.4hPa | 2.7V | 03:22:46 | 02:00:03 | 00:00:00 | |
| AA1-15 | 2026-09-01 12:29:12 | 52.90112 | 10.82332 | 0° | 0km/h | 32041m | 0m/s | -35.2°C | 0% | 8.4hPa | 2.7V | 03:22:46 | 02:00:02 | 00:00:00 | |
| AP2371 | 2026-09-01 12:29:12 | 52.90112 | 10.82332 | 0° | 0km/h | 32041m | 0.0m/s | -35.2°C | 0.1% | 8.4hPa | 2.7V | 00:00:00 | 00:00:00 | 00:00:00 | |
| DL4XJ-10 | 2026-09-01 12:29:11 | 52.90112 | 10.82332 | 0° | 0km/h | 32041m | 0.0m/s | -34.2°C | 0% | 0hPa | 2.7V | 00:00:00 | 00:00:00 | 00:00:00 | |
| DB0DAN | 2026-09-01 12:29:10 | 52.90112 | 10.82332 | 0° | 0km/h | 32041m | 0m/s | -35.4°C | 0.1% | 8.4hPa | 2.7V | 00:00:00 | 00:00:00 | 00:00:00 | |
| DF7ER-10 | 2026-09-01 12:29:09 | 52.89964 | 10.82188 | 53° | 15km/h | 31913m | 5.5m/s | -35.5°C | 0.1% | 8.4hPa | 2.7V | 03:22:00 | 00:00:00 | 00:00:00 | |
| DL4BBY-15 | 2026-09-01 12:29:08 | 52.90112 | 10.82332 | 0° | 0km/h | 32041m | 0.0m/s | -34.5°C | 0% | 0hPa | 2.7V | 00:00:00 | 00:00:00 | 00:00:00 | |
| BIOWL1-15 | 2026-09-01 12:29:05 | 52.90112 | 10.82332 | 0° | 0km/h | 32041m | 0m/s | -35.6°C | 0% | 8.4hPa | 2.7V | 03:22:46 | 01:59:55 | 00:00:00 | |
| AA1-15 | 2026-09-01 12:29:02 | 52.90112 | 10.82332 | 0° | 0km/h | 32041m | 0m/s | -36.1°C | 0% | 8.4hPa | 2.6V | 03:22:46 | 01:59:52 | 00:00:00 | |
| DG6HD-15 | 2026-09-01 12:29:01 | 52.90112 | 10.82332 | 0° | 0km/h | 32041m | 0.0m/s | -36.0°C | 0.1% | 8.5hPa | 2.6V | 03:22:00 | 00:00:00 | 00:00:00 | |
| SMARD9-10 | 2026-09-01 12:28:59 | 52.90112 | 10.82332 | 0° | 0km/h | 32041m | 0.0m/s | -36.1°C | 0.1% | 8.5hPa | 2.6V | 00:00:00 | 00:00:00 | 00:00:00 | |
| DF7ER-10 | 2026-09-01 12:28:58 | 52.89964 | 10.82188 | 53° | 15km/h | 31913m | 5.5m/s | -36.0°C | 0.1% | 8.5hPa | 2.6V | 03:23:00 | 00:00:00 | 00:00:00 | |
| DL1LOL-11 | 2026-09-01 12:28:57 | 52.90112 | 10.82332 | 0° | 0km/h | 32041m | 0.0m/s | -35.9°C | 0.1% | 8.5hPa | 2.6V | 00:00:00 | 00:00:00 | 00:00:00 | |
| DB0DAN | 2026-09-01 12:28:55 | 52.90112 | 10.82332 | 0° | 0km/h | 32041m | 0m/s | -36.1°C | 0.1% | 8.49hPa | 2.6V | 00:00:00 | 00:00:00 | 00:00:00 | |
| BIOWL1-15 | 2026-09-01 12:28:53 | 52.90112 | 10.82332 | 0° | 0km/h | 32041m | 0m/s | -36.2°C | 0% | 8.5hPa | 2.7V | 03:23:37 | 01:59:43 | 00:00:00 | |
| DF8AY | 2026-09-01 12:28:52 | 52.90112 | 10.82332 | 0° | 0km/h | 32041m | 0m/s | -36.2°C | 0% | 8.6hPa | 2.7V | 03:24:28 | 01:59:42 | 00:00:00 | |
| DL1XH-west | 2026-09-01 12:28:51 | 52.90112 | 10.82332 | 0° | 0km/h | 32041m | 0m/s | -36.3°C | 0% | 8.5hPa | 2.7V | 03:23:37 | 01:59:41 | 00:00:00 | |
| AA1-15 | 2026-09-01 12:28:51 | 52.90112 | 10.82332 | 0° | 0km/h | 32041m | 0m/s | -36.3°C | 0% | 8.6hPa | 2.6V | 03:23:37 | 01:59:40 | 00:00:00 | |
| DL4XJ-10 | 2026-09-01 12:28:51 | 52.90112 | 10.82332 | 1° | 2km/h | 32041m | 0.0m/s | -35.3°C | 0% | 0hPa | 2.6V | 00:00:00 | 00:00:00 | 00:00:00 | |
| BIOWL1-15 | 2026-09-01 12:28:42 | 52.90112 | 10.82332 | 0° | 0km/h | 32041m | 0m/s | -36.7°C | 0% | 8.6hPa | 2.6V | 03:23:37 | 01:59:32 | 00:00:00 | |
| DL1XH-west | 2026-09-01 12:28:41 | 52.90112 | 10.82332 | 0° | 0km/h | 32041m | 0m/s | -36.7°C | 0% | 8.6hPa | 2.7V | 03:23:37 | 01:59:31 | 00:00:00 | |
| DG6HD-15 | 2026-09-01 12:28:41 | 52.90112 | 10.82332 | 0° | 0km/h | 32041m | 0.0m/s | -36.7°C | 0.1% | 8.6hPa | 2.7V | 03:23:00 | 00:00:00 | 00:00:00 | |
| DB0DAN | 2026-09-01 12:28:40 | 52.90112 | 10.82332 | 0° | 0km/h | 32041m | 0m/s | -36.7°C | 0.1% | 8.63hPa | 2.7V | 00:00:00 | 00:00:00 | 00:00:00 | |
| AA1-15 | 2026-09-01 12:28:40 | 52.90112 | 10.82332 | 0° | 0km/h | 32041m | 0m/s | -36.8°C | 0% | 8.7hPa | 2.7V | 03:23:37 | 01:59:29 | 00:00:00 | |
| DL4BBY-15 | 2026-09-01 12:28:38 | 52.90112 | 10.82332 | 1° | 16km/h | 32041m | 0.0m/s | -35.9°C | 0% | 0hPa | 2.7V | 00:00:00 | 00:00:00 | 00:00:00 | |
| 13BRC | 2026-09-01 12:28:37 | 52.90112 | 10.82332 | 0° | 0km/h | 32041m | 0.0m/s | 0°C | 0% | 0hPa | 2.7V | 00:00:00 | 00:00:00 | 00:00:00 | |
| BIOWL1-15 | 2026-09-01 12:28:30 | 52.90079 | 10.82308 | 24° | 47km/h | 32023m | 6.1m/s | -37.2°C | 0% | 8.7hPa | 2.7V | 03:23:37 | 01:59:20 | 00:00:00 | |
| AA1-15 | 2026-09-01 12:28:28 | 52.90057 | 10.82292 | 24° | 47km/h | 32010m | 6.1m/s | -37.2°C | 0% | 8.7hPa | 2.6V | 03:23:37 | 01:59:18 | 00:00:00 | |
| DF7ER-10 | 2026-09-01 12:28:26 | 52.89964 | 10.82188 | 53° | 15km/h | 31913m | 5.5m/s | -37.1°C | 0.1% | 8.7hPa | 2.7V | 03:23:00 | 00:00:00 | 00:00:00 | |
| DB0DAN | 2026-09-01 12:28:25 | 52.90024 | 10.82268 | 24° | 46km/h | 31992m | 6.1m/s | -37.2°C | 0.1% | 8.74hPa | 2.7V | 00:00:00 | 00:00:00 | 00:00:00 | |
| SMARD9-10 | 2026-09-01 12:28:24 | 52.90025 | 10.82268 | 25° | 47km/h | 31992m | 6.1m/s | -37.2°C | 0.1% | 8.7hPa | 2.7V | 00:00:00 | 00:00:00 | 00:00:00 | |
| DG6HD-15 | 2026-09-01 12:28:22 | 52.89989 | 10.82242 | 0° | 0km/h | 31973m | 0.0m/s | -37.3°C | 0.1% | 8.8hPa | 2.7V | 03:23:00 | 00:00:00 | 00:00:00 | |
| DL1XH-west | 2026-09-01 12:28:19 | 52.89989 | 10.82242 | 0° | 0km/h | 31972m | 0m/s | -37.2°C | 0% | 8.8hPa | 2.7V | 03:23:37 | 01:59:09 | 00:00:00 | |
| BIOWL1-15 | 2026-09-01 12:28:18 | 52.89989 | 10.82242 | 0° | 0km/h | 31972m | 0m/s | -37.2°C | 0% | 8.8hPa | 2.7V | 03:23:37 | 01:59:08 | 00:00:00 | |
| 13BRC | 2026-09-01 12:28:16 | 52.89989 | 10.82242 | 0° | 0km/h | 31973m | 0.0m/s | 0°C | 0% | 0hPa | 2.6V | 00:00:00 | 00:00:00 | 00:00:00 | |
| DF7ER-10 | 2026-09-01 12:28:15 | 52.89964 | 10.82188 | 53° | 15km/h | 31913m | 5.5m/s | -37.2°C | 0.1% | 8.8hPa | 2.6V | 03:23:00 | 00:00:00 | 00:00:00 | |
| DL4XJ-10 | 2026-09-01 12:28:10 | 52.89989 | 10.82242 | 0° | 0km/h | 31972m | 0.0m/s | -36.2°C | 0% | 0hPa | 2.6V | 00:00:00 | 00:00:00 | 00:00:00 | |
| DL1XH-west | 2026-09-01 12:28:08 | 52.89989 | 10.82242 | 0° | 0km/h | 31972m | 0m/s | -37.3°C | 0% | 8.9hPa | 2.6V | 03:24:28 | 01:58:58 | 00:00:00 | |
| DL4BBY-15 | 2026-09-01 12:28:08 | 52.89989 | 10.82242 | 1° | 2km/h | 31972m | 0.0m/s | -36.3°C | 0% | 0hPa | 2.7V | 00:00:00 | 00:00:00 | 00:00:00 | |
| DL1CLM-18 | 2026-09-01 12:28:06 | 52.89989 | 10.82242 | 0° | 0km/h | 31973m | 0.0m/s | -37.5°C | 0.1% | 8.9hPa | 2.7V | 00:00:00 | 00:00:00 | 00:00:00 | |
| BIOWL1-15 | 2026-09-01 12:28:01 | 52.89989 | 10.82242 | 0° | 0km/h | 31972m | 0m/s | -37.8°C | 0% | 8.9hPa | 2.7V | 03:24:28 | 01:58:51 | 00:00:00 | |
| DG6HD-15 | 2026-09-01 12:27:59 | 52.89989 | 10.82242 | 0° | 0km/h | 31973m | 0.0m/s | -37.7°C | 0.1% | 9.0hPa | 2.6V | 03:24:00 | 00:00:00 | 00:00:00 | |
| DL1XH-west | 2026-09-01 12:27:58 | 52.89989 | 10.82242 | 0° | 0km/h | 31972m | 0m/s | -37.6°C | 0% | 8.9hPa | 2.6V | 03:24:28 | 01:58:48 | 00:00:00 | |
| AA1-15 | 2026-09-01 12:27:57 | 52.89989 | 10.82242 | 0° | 0km/h | 31972m | 0m/s | -37.5°C | 0% | 9hPa | 2.7V | 03:24:28 | 01:58:47 | 00:00:00 | |
| DB0DAN | 2026-09-01 12:27:55 | 52.89989 | 10.82242 | 0° | 0km/h | 31972m | 0m/s | -37.7°C | 0.1% | 9hPa | 2.7V | 00:00:00 | 00:00:00 | 00:00:00 | |
| DF8AY | 2026-09-01 12:27:53 | 52.89989 | 10.82242 | 0° | 0km/h | 31972m | 0m/s | -37.9°C | 0% | 9hPa | 2.6V | 03:24:28 | 01:58:43 | 00:00:00 | |
| BIOWL1-15 | 2026-09-01 12:27:52 | 52.89989 | 10.82242 | 0° | 0km/h | 31972m | 0m/s | -37.8°C | 0% | 9hPa | 2.7V | 03:24:28 | 01:58:40 | 00:00:00 | |
| DL4XJ-10 | 2026-09-01 12:27:50 | 52.89989 | 10.82242 | 1° | 9km/h | 31972m | 0.0m/s | -36.8°C | 0% | 0hPa | 2.7V | 00:00:00 | 00:00:00 | 00:00:00 | |
| DL1XH-west | 2026-09-01 12:27:48 | 52.89989 | 10.82242 | 0° | 0km/h | 31972m | 0m/s | -37.9°C | 0% | 9.1hPa | 2.7V | 03:24:28 | 01:58:38 | 00:00:00 | |
| BUE01 | 2026-09-01 12:27:47 | 52.89980 | 10.82215 | 201° | 22km/h | 31875m | 4.5m/s | -38.7°C | 0.1% | 9.2hPa | 2.6V | 00:00:00 | 00:00:00 | 00:00:00 | |
| AA1-15 | 2026-09-01 12:27:46 | 52.89989 | 10.82242 | 0° | 0km/h | 31972m | 0m/s | -37.8°C | 0% | 9.1hPa | 2.6V | 03:24:28 | 01:58:36 | 00:00:00 | |
| DF7ER-10 | 2026-09-01 12:27:44 | 52.89964 | 10.82188 | 53° | 15km/h | 31913m | 5.5m/s | -37.9°C | 0.1% | 9.1hPa | 2.6V | 03:24:00 | 00:00:00 | 00:00:00 | |
| TFSTFS | 2026-09-01 12:27:43 | 52.89989 | 10.82242 | 0° | 0km/h | 31973m | 0.0m/s | -37.9°C | 0.1% | 9.1hPa | 2.6V | 00:00:00 | 00:00:00 | 00:00:00 | |
| DB0DAN | 2026-09-01 12:27:40 | 52.89982 | 10.82227 | 52° | 15km/h | 31956m | 5.5m/s | -38.3°C | 0.1% | 9.13hPa | 2.6V | 00:00:00 | 00:00:00 | 00:00:00 | |
| BIOWL1-15 | 2026-09-01 12:27:39 | 52.89977 | 10.82217 | 52° | 15km/h | 31945m | 5.5m/s | -38.4°C | 0% | 9.1hPa | 2.7V | 03:24:28 | 01:58:28 | 00:00:00 | |
| DL1XH-west | 2026-09-01 12:27:37 | 52.89975 | 10.82212 | 52° | 15km/h | 31939m | 5.5m/s | -38.4°C | 0% | 9.2hPa | 2.7V | 03:24:28 | 01:58:27 | 00:00:00 | |
| AA1-15 | 2026-09-01 12:27:35 | 52.89970 | 10.82202 | 52° | 15km/h | 31928m | 5.5m/s | -38.3°C | 0% | 9.2hPa | 2.6V | 03:24:28 | 01:58:25 | 00:00:00 | |
| AM1SDL-15 | 2026-09-01 12:27:32 | 52.89964 | 10.82188 | 52° | 18km/h | 31913m | 5.5m/s | -38.2°C | 1.7% | 9.1hPa | 2.6V | 00:00:00 | 01:58:22 | 00:00:00 | |
| DO2SHX-10 | 2026-09-01 12:27:31 | 52.89962 | 10.82186 | 346° | 13km/h | 31907m | 6.3m/s | -38.2°C | 1.7% | 9.2hPa | 2.6V | 00:00:00 | 01:58:21 | 00:00:00 | |
| DL4XJ-10 | 2026-09-01 12:27:30 | 52.89962 | 10.82188 | 247° | 24km/h | 31901m | 6.9m/s | -37.3°C | 0% | 0hPa | 2.7V | 00:00:00 | 00:00:00 | 00:00:00 | |
| DM0DOS-11 | 2026-09-01 12:27:29 | 52.89969 | 10.82202 | 225° | 27km/h | 31886m | 7.1m/s | -38.5°C | 1.7% | 9.2hPa | 2.7V | 03:24:19 | 01:58:18 | 00:00:00 | |
| BIOWL1-15 | 2026-09-01 12:27:27 | 52.89974 | 10.82210 | 214° | 27km/h | 31880m | 5.6m/s | -38.6°C | 0% | 9.2hPa | 2.7V | 03:24:28 | 01:58:17 | 00:00:00 | |
| DL1XH-west | 2026-09-01 12:27:26 | 52.89980 | 10.82215 | 202° | 24km/h | 31875m | 4.5m/s | -38.7°C | 0% | 9.2hPa | 2.6V | 03:24:28 | 01:58:16 | 00:00:00 | |
| DB0DAN | 2026-09-01 12:27:25 | 52.89984 | 10.82217 | 185° | 15km/h | 31870m | 4.8m/s | -38.8°C | 0.1% | 9.23hPa | 2.6V | 00:00:00 | 00:00:00 | 00:00:00 | |
| AA1-15 | 2026-09-01 12:27:24 | 52.89987 | 10.82216 | 153° | 11km/h | 31864m | 6.4m/s | -38.9°C | 0% | 9.3hPa | 2.7V | 03:24:28 | 01:58:14 | 00:00:00 | |
| BIOWL1-15 | 2026-09-01 12:27:17 | 52.89986 | 10.82130 | 123° | 29km/h | 31815m | 4.9m/s | -38.6°C | 0% | 9.3hPa | 2.7V | 03:25:19 | 01:58:06 | 00:00:00 | |
| DL1XH-west | 2026-09-01 12:27:16 | 52.89991 | 10.82122 | 142° | 24km/h | 31810m | 6.6m/s | -38.7°C | 0% | 9.3hPa | 2.7V | 03:25:19 | 01:58:05 | 00:00:00 | |
| AA1-15 | 2026-09-01 12:27:14 | 52.90000 | 10.82119 | 203° | 20km/h | 31794m | 7.4m/s | -38.6°C | 0% | 9.3hPa | 2.6V | 03:25:19 | 01:58:03 | 00:00:00 | |
| MECKS9 | 2026-09-01 12:27:13 | 52.90000 | 10.82119 | 204° | 20km/h | 31795m | 7.4m/s | -38.6°C | 0.1% | 9.3hPa | 2.6V | 03:25:00 | 00:00:00 | 00:00:00 | |
| S3001 | 2026-09-01 12:27:12 | 52.90008 | 10.82130 | 223° | 18km/h | 31783m | 3.9m/s | -38.6°C | 0.1% | 9.4hPa | 2.6V | 00:00:00 | 00:00:00 | 00:00:00 | |
| GOEST3-10 | 2026-09-01 12:27:11 | 52.90008 | 10.82130 | 224° | 18km/h | 31784m | 3.8m/s | -38.5°C | 1.8% | 9.3hPa | 2.6V | 03:24:00 | 00:00:00 | 00:00:00 | |
| DL1XH1-15 | 2026-09-01 12:27:10 | 52.90018 | 10.82131 | 124° | 18km/h | 31768m | 7.1m/s | -38.7°C | 1.8% | 9.4hPa | 2.6V | 03:24:39 | 01:57:58 | 00:00:00 | |
| DB0DAN | 2026-09-01 12:27:10 | 52.90012 | 10.82134 | 205° | 15km/h | 31779m | 3.8m/s | -38.6°C | 0.1% | 9.36hPa | 2.7V | 00:00:00 | 00:00:00 | 00:00:00 | |
| BIOWL1-15 | 2026-09-01 12:27:05 | 52.90021 | 10.82090 | 83° | 44km/h | 31747m | 5.6m/s | -38.8°C | 0% | 9.4hPa | 2.7V | 03:25:19 | 01:57:55 | 00:00:00 | |
| AA1-15 | 2026-09-01 12:27:03 | 52.90015 | 10.82058 | 63° | 35km/h | 31736m | 5m/s | -38.6°C | 0% | 9.4hPa | 2.6V | 03:25:19 | 01:57:53 | 00:00:00 | |
| DF8AY | 2026-09-01 12:27:02 | 52.90011 | 10.82049 | 50° | 22km/h | 31731m | 4.6m/s | -38.5°C | 0% | 9.4hPa | 2.6V | 03:25:19 | 01:57:52 | 00:00:00 | |
| DL1NUX | 2026-09-01 12:27:02 | 52.90015 | 10.82061 | 220° | 27km/h | 31698m | 6m/s | -38.6°C | 1.7% | 9.5hPa | 2.6V | 03:24:50 | 01:57:47 | 00:00:00 | |
| DL1XH-west | 2026-09-01 12:26:55 | 52.90025 | 10.82073 | 217° | 18km/h | 31688m | 5.9m/s | -38.6°C | 0% | 9.5hPa | 2.7V | 03:25:19 | 01:57:45 | 00:00:00 | |
| DB0DAN | 2026-09-01 12:26:55 | 52.90025 | 10.82073 | 217° | 16km/h | 31688m | 5.9m/s | -38.6°C | 0.1% | 9.47hPa | 2.7V | 00:00:00 | 00:00:00 | 00:00:00 | |
| AA1-15 | 2026-09-01 12:26:53 | 52.90028 | 10.82076 | 86° | 5km/h | 31676m | 5.7m/s | -38.7°C | 0% | 9.5hPa | 2.6V | 03:25:19 | 01:57:43 | 00:00:00 | |
| DD8BA-10 | 2026-09-01 12:26:53 | 52.90028 | 10.82076 | 87° | 16km/h | 31677m | 5.6m/s | -38.6°C | 1.7% | 9.5hPa | 2.6V | 03:24:00 | 00:00:00 | 00:00:00 | |
| DL1NUX | 2026-09-01 12:26:52 | 52.90023 | 10.82025 | 86° | 13km/h | 31641m | 4.8m/s | -39°C | 1.7% | 9.6hPa | 2.6V | 03:25:00 | 01:57:37 | 00:00:00 | |
| DF8AY | 2026-09-01 12:26:47 | 52.90023 | 10.82022 | 69° | 2km/h | 31635m | 7.3m/s | -39°C | 0% | 9.6hPa | 2.7V | 03:25:19 | 01:57:36 | 00:00:00 | |
| BIOWL1-15 | 2026-09-01 12:26:45 | 52.90022 | 10.82024 | 285° | 9km/h | 31628m | 7.8m/s | -39°C | 0% | 9.6hPa | 2.7V | 03:25:19 | 01:57:35 | 00:00:00 | |
| AA1-15 | 2026-09-01 12:26:42 | 52.90022 | 10.82048 | 259° | 24km/h | 31611m | 4m/s | -39°C | 0% | 9.6hPa | 2.6V | 03:25:19 | 01:57:32 | 00:00:00 | |
| DF7ER-10 | 2026-09-01 12:26:42 | 52.90022 | 10.82047 | 260° | 24km/h | 31611m | 4.0m/s | -39.0°C | 0.2% | 9.6hPa | 2.7V | 03:25:00 | 00:00:00 | 00:00:00 | |
| DB0DAN | 2026-09-01 12:26:40 | 52.90027 | 10.82061 | 205° | 15km/h | 31600m | 6.3m/s | -39°C | 0.2% | 9.63hPa | 2.7V | 00:00:00 | 00:00:00 | 00:00:00 | |
| DF8AY | 2026-09-01 12:26:37 | 52.90040 | 10.82020 | 77° | 31km/h | 31569m | 6m/s | -39.2°C | 0% | 9.7hPa | 2.7V | 03:25:19 | 01:57:25 | 00:00:00 | |
| BIOWL1-15 | 2026-09-01 12:26:36 | 52.90037 | 10.82010 | 63° | 24km/h | 31564m | 5.8m/s | -39.1°C | 0% | 9.7hPa | 2.7V | 03:25:19 | 01:57:24 | 00:00:00 | |
| AA1-15 | 2026-09-01 12:26:32 | 52.90031 | 10.81999 | 17° | 13km/h | 31552m | 6.1m/s | -39.2°C | 0% | 9.7hPa | 2.6V | 03:25:19 | 01:57:22 | 00:00:00 | |
| DF8AY | 2026-09-01 12:26:26 | 52.90038 | 10.81967 | 82° | 27km/h | 31491m | 6.1m/s | -39.4°C | 0% | 9.8hPa | 2.6V | 03:27:01 | 01:57:12 | 00:00:00 | |
| DB0DAN | 2026-09-01 12:26:25 | 52.90036 | 10.81993 | 120° | 16km/h | 31508m | 6m/s | -39.3°C | 0.1% | 9.77hPa | 2.7V | 00:00:00 | 00:00:00 | 00:00:00 | |
| BIOWL1-15 | 2026-09-01 12:26:24 | 52.90038 | 10.81986 | 102° | 20km/h | 31503m | 6m/s | -39.2°C | 0% | 9.8hPa | 2.7V | 03:26:10 | 01:57:14 | 00:00:00 | |
| DL1XH-west | 2026-09-01 12:26:23 | 52.90038 | 10.81977 | 90° | 24km/h | 31497m | 5.8m/s | -39.3°C | 0% | 9.8hPa | 2.6V | 03:26:10 | 01:57:13 | 00:00:00 | |
| DF8AY | 2026-09-01 12:26:21 | 52.90021 | 10.81877 | 41° | 18km/h | 31442m | 5.2m/s | -39.3°C | 0% | 9.8hPa | 2.7V | 03:27:01 | 01:57:04 | 00:00:00 | |
| DB0UT-7 | 2026-09-01 12:26:21 | 52.90037 | 10.81955 | 80° | 22km/h | 31485m | 6.6m/s | -39.3°C | 1.8% | 9.7hPa | 2.7V | 00:00:00 | 00:00:00 | 00:00:00 | |
| AA1-15 | 2026-09-01 12:26:21 | 52.90037 | 10.81955 | 80° | 31km/h | 31485m | 6.6m/s | -39.3°C | 0% | 9.8hPa | 2.7V | 03:26:10 | 01:57:11 | 00:00:00 | |
| DL1XH1-15 | 2026-09-01 12:26:20 | 52.90033 | 10.81914 | 79° | 33km/h | 31466m | 5m/s | -39.4°C | 1.8% | 9.8hPa | 2.6V | 03:25:29 | 01:57:08 | 00:00:00 | |
| BIOWL1-15 | 2026-09-01 12:26:14 | 52.90018 | 10.81862 | 118° | 16km/h | 31425m | 7.8m/s | -39.3°C | 0% | 9.9hPa | 2.7V | 03:26:10 | 01:57:01 | 00:00:00 | |
| DL1XH-west | 2026-09-01 12:26:13 | 52.90017 | 10.81867 | 87° | 11km/h | 31432m | 5.8m/s | -39.4°C | 0% | 9.9hPa | 2.6V | 03:26:10 | 01:57:02 | 00:00:00 | |
| DL1ZP-14 | 2026-09-01 12:26:12 | 52.90017 | 10.81867 | 86° | 11km/h | 31432m | 5.8m/s | -39.4°C | 0.1% | 9.9hPa | 2.6V | 00:00:00 | 00:00:00 | 00:00:00 | |
| DB0DAN | 2026-09-01 12:26:10 | 52.90021 | 10.81855 | 132° | 24km/h | 31417m | 7.1m/s | -39.3°C | 0.2% | 9.93hPa | 2.7V | 00:00:00 | 00:00:00 | 00:00:00 | |
| AA1-15 | 2026-09-01 12:26:10 | 52.90021 | 10.81855 | 132° | 24km/h | 31417m | 7.1m/s | -39.3°C | 0% | 9.9hPa | 2.7V | 03:26:10 | 01:57:00 | 00:00:00 | |
| DL1CLM-18 | 2026-09-01 12:26:10 | 52.90021 | 10.81855 | 133° | 24km/h | 31418m | 7.1m/s | -39.3°C | 0.2% | 9.9hPa | 2.6V | 00:00:00 | 00:00:00 | 00:00:00 | |
| DM0DOS-11 | 2026-09-01 12:26:09 | 52.90031 | 10.81838 | 131° | 27km/h | 31404m | 5.9m/s | -39.4°C | 1.8% | 9.9hPa | 2.6V | 03:25:39 | 01:56:58 | 00:00:00 | |
| DL1NUX | 2026-09-01 12:26:08 | 52.90035 | 10.81830 | 123° | 26km/h | 31398m | 6.7m/s | -39.4°C | 1.8% | 9.9hPa | 2.6V | 03:25:40 | 01:56:57 | 00:00:00 | |
| DF8AY | 2026-09-01 12:26:04 | 52.90036 | 10.81798 | 69° | 22km/h | 31374m | 6.6m/s | -39.6°C | 0% | 10hPa | 2.6V | 03:27:01 | 01:56:53 | 00:00:00 | |
| DL1XH-west | 2026-09-01 12:26:03 | 52.90032 | 10.81779 | 74° | 27km/h | 31361m | 6.3m/s | -39.6°C | 0% | 10hPa | 2.7V | 03:26:10 | 01:56:51 | 00:00:00 | |
| BIOWL1-15 | 2026-09-01 12:26:03 | 52.90031 | 10.81768 | 79° | 26km/h | 31355m | 5.5m/s | -39.5°C | 0% | 10hPa | 2.7V | 03:26:10 | 01:56:50 | 00:00:00 | |
| DL1NUX | 2026-09-01 12:26:02 | 52.90028 | 10.81743 | 79° | 13km/h | 31337m | 7.4m/s | -39.6°C | 1.8% | 10hPa | 2.6V | 03:25:50 | 01:56:47 | 00:00:00 | |
| AA1-15 | 2026-09-01 12:25:59 | 52.90030 | 10.81758 | 81° | 22km/h | 31350m | 5.3m/s | -39.6°C | 0% | 10hPa | 2.7V | 03:26:10 | 01:56:49 | 00:00:00 | |
| SP3WXH-11 | 2026-09-01 12:25:57 | 52.90028 | 10.81735 | 107° | 9km/h | 31325m | 4.7m/s | -39.8°C | 0.2% | 10.0hPa | 2.7V | 00:00:00 | 00:00:00 | 00:00:00 | |
| DB0DAN | 2026-09-01 12:25:55 | 52.90028 | 10.81735 | 108° | 9km/h | 31325m | 4.7m/s | -39.8°C | 0.2% | 10.04hPa | 2.7V | 00:00:00 | 00:00:00 | 00:00:00 | |
| DF8AY | 2026-09-01 12:25:53 | 52.90032 | 10.81723 | 118° | 22km/h | 31314m | 6.9m/s | -39.9°C | 0% | 10hPa | 2.6V | 03:27:01 | 01:56:43 | 00:00:00 | |
| DL1XH-west | 2026-09-01 12:25:51 | 52.90041 | 10.81687 | 105° | 37km/h | 31295m | 4.8m/s | -40°C | 0% | 10.1hPa | 2.7V | 03:26:10 | 01:56:40 | 00:00:00 | |
| DM0DOS-11 | 2026-09-01 12:25:51 | 52.90042 | 10.81660 | 82° | 27km/h | 31283m | 6.8m/s | -39.9°C | 1.8% | 10.1hPa | 2.6V | 03:25:59 | 01:56:38 | 00:00:00 | |
| BIOWL1-15 | 2026-09-01 12:25:49 | 52.90042 | 10.81673 | 95° | 33km/h | 31290m | 5.6m/s | -40°C | 0% | 10.1hPa | 2.7V | 03:26:10 | 01:56:39 | 00:00:00 | |
| DO2SHX-10 | 2026-09-01 12:25:49 | 52.90042 | 10.81673 | 96° | 24km/h | 31290m | 5.5m/s | -40.0°C | 1.9% | 10.0hPa | 2.7V | 00:00:00 | 01:56:39 | 00:00:00 | |
| DL1NUX | 2026-09-01 12:25:48 | 52.90038 | 10.81643 | 53° | 18km/h | 31271m | 5.7m/s | -40.1°C | 1.9% | 10.1hPa | 2.7V | 03:26:01 | 01:56:36 | 00:00:00 | |
| AA1-15 | 2026-09-01 12:25:48 | 52.90042 | 10.81660 | 83° | 27km/h | 31283m | 6.8m/s | -39.9°C | 0% | 10.1hPa | 2.6V | 03:26:10 | 01:56:38 | 00:00:00 | |
| EDDB2-12 | 2026-09-01 12:25:47 | 52.90040 | 10.81650 | 68° | 22km/h | 31277m | 6.2m/s | -40.0°C | 0.1% | 10.1hPa | 2.6V | 00:00:00 | 00:00:00 | 00:00:00 | |
| SONDE2-11 | 2026-09-01 12:25:46 | 52.90038 | 10.81643 | 53° | 16km/h | 31271m | 5.7m/s | -40.1°C | 0.2% | 10.1hPa | 2.6V | 00:00:00 | 00:00:00 | 00:00:00 | |
| DF8AY | 2026-09-01 12:25:43 | 52.90033 | 10.81622 | 106° | 15km/h | 31247m | 5.8m/s | -40.1°C | 0% | 10.2hPa | 2.6V | 03:27:01 | 01:56:32 | 00:00:00 | |
| DO2SHX-10 | 2026-09-01 12:25:42 | 52.90033 | 10.81622 | 107° | 16km/h | 31247m | 5.7m/s | -40.0°C | 1.9% | 10.1hPa | 2.7V | 00:00:00 | 01:56:32 | 00:00:00 | |
| DB0DAN | 2026-09-01 12:25:40 | 52.90037 | 10.81611 | 120° | 16km/h | 31235m | 6.5m/s | -40.1°C | 0.2% | 10.19hPa | 2.7V | 00:00:00 | 00:00:00 | 00:00:00 | |
| DL1XH-west | 2026-09-01 12:25:40 | 52.90037 | 10.81611 | 120° | 16km/h | 31235m | 6.5m/s | -40.1°C | 0% | 10.2hPa | 2.7V | 03:26:10 | 01:56:30 | 00:00:00 | |
| DL1XH1-15 | 2026-09-01 12:25:40 | 52.90040 | 10.81598 | 109° | 16km/h | 31222m | 6.1m/s | -40.1°C | 1.8% | 10.2hPa | 2.6V | 03:26:09 | 01:56:28 | 00:00:00 | |
| AA1-15 | 2026-09-01 12:25:38 | 52.90040 | 10.81598 | 110° | 16km/h | 31222m | 6.1m/s | -40.1°C | 0% | 10.2hPa | 2.6V | 03:26:10 | 01:56:28 | 00:00:00 | |
| DL4BBY-15 | 2026-09-01 12:25:38 | 52.90040 | 10.81598 | 110° | 15km/h | 31222m | 6.1m/s | -39.1°C | 0% | 0hPa | 2.6V | 00:00:00 | 00:00:00 | 00:00:00 | |
| MECKS9 | 2026-09-01 12:25:37 | 52.90040 | 10.81598 | 111° | 16km/h | 31222m | 6.1m/s | -40.1°C | 0.1% | 10.2hPa | 2.6V | 00:00:00 | 00:00:00 | 00:00:00 | |
| DO2SHX-10 | 2026-09-01 12:25:36 | 52.90042 | 10.81584 | 97° | 24km/h | 31210m | 5.8m/s | -40.2°C | 1.9% | 10.1hPa | 2.6V | 00:00:00 | 01:56:26 | 00:00:00 | |
| TFSTFS | 2026-09-01 12:25:35 | 52.90042 | 10.81575 | 97° | 24km/h | 31204m | 6.6m/s | -40.3°C | 0.2% | 10.2hPa | 2.6V | 00:00:00 | 00:00:00 | 00:00:00 | |
| DG6HD-15 | 2026-09-01 12:25:34 | 52.90043 | 10.81564 | 103° | 27km/h | 31197m | 6.6m/s | -40.2°C | 0.2% | 10.2hPa | 2.6V | 03:27:00 | 00:00:00 | 00:00:00 | |
| DO2SHX-10 | 2026-09-01 12:25:33 | 52.90045 | 10.81553 | 107° | 24km/h | 31191m | 5.1m/s | -40.3°C | 1.9% | 10.2hPa | 2.6V | 03:26:00 | 01:56:23 | 00:00:00 | |
| DM0DOS-11 | 2026-09-01 12:25:31 | 52.90049 | 10.81529 | 315° | 7km/h | 31162m | 5m/s | -40.4°C | 1.9% | 10.3hPa | 2.6V | 03:26:19 | 01:56:18 | 00:00:00 | |
| DL1XH-west | 2026-09-01 12:25:29 | 52.90050 | 10.81528 | 347° | 2km/h | 31168m | 6.9m/s | -40.4°C | 0% | 10.3hPa | 2.7V | 03:27:01 | 01:56:19 | 00:00:00 | |
| AA1-15 | 2026-09-01 12:25:27 | 52.90048 | 10.81532 | 323° | 9km/h | 31157m | 4m/s | -40.6°C | 0% | 10.3hPa | 2.6V | 03:27:01 | 01:56:17 | 00:00:00 | |
| DF8AY | 2026-09-01 12:25:21 | 52.90052 | 10.81490 | 117° | 24km/h | 31114m | 6.5m/s | -40.7°C | 0% | 10.3hPa | 2.7V | 03:27:01 | 01:56:10 | 00:00:00 | |
| DM0DOS-11 | 2026-09-01 12:25:19 | 52.90057 | 10.81477 | 136° | 11km/h | 31102m | 5.9m/s | -40.6°C | 1.9% | 10.4hPa | 2.6V | 03:26:29 | 01:56:08 | 00:00:00 | |
| DL1XH-west | 2026-09-01 12:25:19 | 52.90058 | 10.81477 | 136° | 11km/h | 31102m | 5.9m/s | -40.6°C | 0% | 10.4hPa | 2.6V | 03:27:01 | 01:56:08 | 00:00:00 | |
| AA1-15 | 2026-09-01 12:25:16 | 52.90061 | 10.81474 | 160° | 5km/h | 31090m | 6.2m/s | -40.7°C | 0% | 10.4hPa | 2.7V | 03:27:01 | 01:56:06 | 00:00:00 | |
| GOEST3-10 | 2026-09-01 12:25:16 | 52.90061 | 10.81474 | 161° | 7km/h | 31090m | 6.1m/s | -40.6°C | 1.9% | 10.4hPa | 2.6V | 00:00:00 | 01:56:06 | 00:00:00 | |
| DO2SHX-10 | 2026-09-01 12:25:15 | 52.90062 | 10.81473 | 120° | 7km/h | 31084m | 6.4m/s | -40.7°C | 1.9% | 10.4hPa | 2.6V | 00:00:00 | 01:56:05 | 00:00:00 | |
| DG6HD-15 | 2026-09-01 12:25:14 | 52.90062 | 10.81470 | 111° | 7km/h | 31077m | 6.5m/s | -40.6°C | 0.2% | 10.4hPa | 2.6V | 03:27:00 | 00:00:00 | 00:00:00 | |
| DD8BA-10 | 2026-09-01 12:25:13 | 52.90063 | 10.81467 | 96° | 15km/h | 31071m | 6.3m/s | -40.5°C | 1.9% | 10.4hPa | 2.6V | 00:00:00 | 00:00:00 | 00:00:00 | |
| DO2SHX-10 | 2026-09-01 12:25:12 | 52.90063 | 10.81462 | 93° | 9km/h | 31065m | 5.0m/s | -40.6°C | 1.9% | 10.4hPa | 2.6V | 00:00:00 | 01:56:02 | 00:00:00 | |
| DL1NUX | 2026-09-01 12:25:11 | 52.90063 | 10.81434 | 96° | 22km/h | 31029m | 7.9m/s | -40.8°C | 1.9% | 10.5hPa | 2.7V | 03:26:41 | 01:55:56 | 00:00:00 | |
| SONCRA | 2026-09-01 12:25:11 | 52.90063 | 10.81455 | 86° | 5km/h | 31053m | 7.1m/s | -40.8°C | 0.1% | 10.5hPa | 2.7V | 00:00:00 | 00:00:00 | 00:00:00 | |
| DF8AY | 2026-09-01 12:25:10 | 52.90063 | 10.81455 | 86° | 7km/h | 31053m | 7.1m/s | -40.8°C | 0% | 10.5hPa | 2.7V | 03:27:01 | 01:56:00 | 00:00:00 | |
| DL1XH-15 | 2026-09-01 12:25:10 | 52.90064 | 10.81424 | 100° | 27km/h | 31022m | 6.2m/s | -40.8°C | 1.9% | 10.5hPa | 2.7V | 03:26:42 | 01:55:55 | 00:00:00 | |
| DB0DAN | 2026-09-01 12:25:10 | 52.90063 | 10.81455 | 86° | 7km/h | 31053m | 7.1m/s | -40.8°C | 0.1% | 10.47hPa | 2.7V | 00:00:00 | 00:00:00 | 00:00:00 | |
| DL4XJ-10 | 2026-09-01 12:25:10 | 52.90063 | 10.81455 | 87° | 15km/h | 31053m | 7.0m/s | -39.8°C | 0% | 0hPa | 2.6V | 00:00:00 | 00:00:00 | 00:00:00 | |
| DM0DOS-11 | 2026-09-01 12:25:09 | 52.90063 | 10.81448 | 90° | 11km/h | 31041m | 4.8m/s | -40.7°C | 1.9% | 10.5hPa | 2.6V | 03:26:39 | 01:55:58 | 00:00:00 | |
| DL1XH-west | 2026-09-01 12:25:08 | 52.90063 | 10.81448 | 90° | 11km/h | 31041m | 4.8m/s | -40.7°C | 0% | 10.5hPa | 2.6V | 03:27:01 | 01:55:58 | 00:00:00 | |
| AA1-15 | 2026-09-01 12:25:06 | 52.90063 | 10.81434 | 97° | 22km/h | 31029m | 7.9m/s | -40.8°C | 0% | 10.5hPa | 2.7V | 03:27:01 | 01:55:56 | 00:00:00 | |
| BIOWL1-15 | 2026-09-01 12:25:06 | 52.90068 | 10.81403 | 115° | 24km/h | 31011m | 5.8m/s | -40.8°C | 0% | 10.5hPa | 2.6V | 03:27:01 | 01:55:53 | 00:00:00 | |
| DF8AY | 2026-09-01 12:25:05 | 52.90078 | 10.81386 | 157° | 15km/h | 30992m | 5.5m/s | -40.8°C | 0% | 10.6hPa | 2.7V | 03:27:01 | 01:55:50 | 00:00:00 | |
| DL3AQ-11 | 2026-09-01 12:25:04 | 52.90068 | 10.81403 | 115° | 24km/h | 31012m | 5.8m/s | -40.8°C | 0.2% | 10.5hPa | 2.6V | 00:00:00 | 00:00:00 | 00:00:00 | |
| DD8BA-10 | 2026-09-01 12:25:03 | 52.90068 | 10.81403 | 116° | 15km/h | 31012m | 5.7m/s | -40.7°C | 1.9% | 10.5hPa | 2.6V | 00:00:00 | 00:00:00 | 00:00:00 | |
| NBG1-10 | 2026-09-01 12:25:02 | 52.90071 | 10.81395 | 130° | 20km/h | 31005m | 7.0m/s | -40.7°C | 1.9% | 10.5hPa | 2.7V | 00:00:00 | 01:55:52 | 00:00:00 | |
| DL1NUX | 2026-09-01 12:25:01 | 52.90085 | 10.81372 | 86° | 13km/h | 30968m | 5.6m/s | -40.8°C | 1.8% | 10.6hPa | 2.7V | 03:26:51 | 01:55:46 | 00:00:00 | |
| DL1XH-15 | 2026-09-01 12:25:00 | 52.90085 | 10.81367 | 73° | 13km/h | 30962m | 5.7m/s | -40.9°C | 1.8% | 10.6hPa | 2.7V | 03:26:52 | 01:55:45 | 00:00:00 | |
| DL1XH-west | 2026-09-01 12:24:58 | 52.90084 | 10.81381 | 136° | 11km/h | 30980m | 6.7m/s | -40.8°C | 0% | 10.6hPa | 2.6V | 03:27:01 | 01:55:48 | 00:00:00 | |
| AA1-15 | 2026-09-01 12:24:55 | 52.90085 | 10.81367 | 74° | 13km/h | 30962m | 5.7m/s | -40.9°C | 0% | 10.6hPa | 2.7V | 03:27:01 | 01:55:45 | 00:00:00 | |
| DB0DAN | 2026-09-01 12:24:55 | 52.90085 | 10.81367 | 74° | 13km/h | 30962m | 5.7m/s | -40.9°C | 0.2% | 10.6hPa | 2.7V | 00:00:00 | 00:00:00 | 00:00:00 | |
| BIOWL1-15 | 2026-09-01 12:24:54 | 52.90084 | 10.81362 | 69° | 11km/h | 30956m | 6.9m/s | -41.1°C | 0% | 10.6hPa | 2.7V | 03:27:01 | 01:55:44 | 00:00:00 | |
| SP3WXH-11 | 2026-09-01 12:24:54 | 52.90083 | 10.81359 | 65° | 7km/h | 30950m | 6.4m/s | -41.2°C | 0.2% | 10.6hPa | 2.6V | 00:00:00 | 00:00:00 | 00:00:00 | |
| DF8AY | 2026-09-01 12:24:52 | 52.90109 | 10.81288 | 130° | 18km/h | 30885m | 5.1m/s | -41.4°C | 0% | 10.7hPa | 2.6V | 03:29:34 | 01:55:32 | 00:00:00 | |
| DL3AQ-11 | 2026-09-01 12:24:51 | 52.90083 | 10.81349 | 112° | 11km/h | 30932m | 6.5m/s | -41.2°C | 0.2% | 10.7hPa | 2.7V | 00:00:00 | 00:00:00 | 00:00:00 | |
| DL1XH-15 | 2026-09-01 12:24:50 | 52.90098 | 10.81306 | 131° | 24km/h | 30902m | 6.6m/s | -41.2°C | 1.9% | 10.7hPa | 2.7V | 03:27:02 | 01:55:35 | 00:00:00 | |
| MECKS9 | 2026-09-01 12:24:50 | 52.90083 | 10.81349 | 114° | 13km/h | 30932m | 6.5m/s | -41.2°C | 0.2% | 10.7hPa | 2.7V | 00:00:00 | 00:00:00 | 00:00:00 | |
| TFSTFS | 2026-09-01 12:24:49 | 52.90083 | 10.81349 | 114° | 13km/h | 30932m | 6.5m/s | -41.2°C | 0.2% | 10.7hPa | 2.7V | 00:00:00 | 00:00:00 | 00:00:00 | |
| DL1NUX | 2026-09-01 12:24:48 | 52.90094 | 10.81314 | 124° | 27km/h | 30908m | 5.3m/s | -41.1°C | 1.9% | 10.7hPa | 2.7V | 03:27:01 | 01:55:36 | 00:00:00 | |
| DL1XH-west | 2026-09-01 12:24:47 | 52.90094 | 10.81314 | 124° | 27km/h | 30908m | 5.3m/s | -41.2°C | 0% | 10.7hPa | 2.7V | 03:27:01 | 01:55:36 | 00:00:00 | |
| AA1-15 | 2026-09-01 12:24:44 | 52.90102 | 10.81299 | 141° | 22km/h | 30895m | 6.1m/s | -41.3°C | 0% | 10.7hPa | 2.7V | 03:27:52 | 01:55:34 | 00:00:00 | |
| BIOWL1-15 | 2026-09-01 12:24:43 | 52.90112 | 10.81282 | 117° | 20km/h | 30879m | 7.1m/s | -41.4°C | 0% | 10.8hPa | 2.7V | 03:27:52 | 01:55:31 | 00:00:00 | |
| DF8AY-15 | 2026-09-01 12:24:43 | 52.90106 | 10.81294 | 140° | 22km/h | 30890m | 5.0m/s | -41.3°C | 1.9% | 10.7hPa | 2.7V | 00:00:00 | 01:55:33 | 00:00:00 | |
| DO2SHX-10 | 2026-09-01 12:24:42 | 52.90109 | 10.81288 | 131° | 20km/h | 30885m | 5.0m/s | -41.3°C | 1.9% | 10.7hPa | 2.7V | 00:00:00 | 01:55:32 | 00:00:00 | |
| DL1NUX | 2026-09-01 12:24:41 | 52.90111 | 10.81234 | 72° | 22km/h | 30846m | 5.7m/s | -41.4°C | 1.9% | 10.8hPa | 2.7V | 03:27:11 | 01:55:26 | 00:00:00 | |
| EDDB2-11 | 2026-09-01 12:24:41 | 52.90114 | 10.81273 | 101° | 22km/h | 30872m | 7.0m/s | -41.4°C | 0.2% | 10.8hPa | 2.7V | 00:00:00 | 00:00:00 | 00:00:00 | |
| DL1XH-15 | 2026-09-01 12:24:40 | 52.90110 | 10.81225 | 74° | 22km/h | 30841m | 4.7m/s | -41.5°C | 1.9% | 10.8hPa | 2.7V | 03:27:12 | 01:55:25 | 00:00:00 | |
| DB0DAN | 2026-09-01 12:24:40 | 52.90114 | 10.81273 | 101° | 22km/h | 30872m | 7m/s | -41.4°C | 0.2% | 10.76hPa | 2.7V | 00:00:00 | 00:00:00 | 00:00:00 | |
| DL1XH-west | 2026-09-01 12:24:37 | 52.90111 | 10.81234 | 72° | 22km/h | 30846m | 5.7m/s | -41.4°C | 0% | 10.8hPa | 2.7V | 03:27:52 | 01:55:26 | 00:00:00 | |
| AA1-15 | 2026-09-01 12:24:33 | 52.90108 | 10.81206 | 89° | 26km/h | 30830m | 6.9m/s | -41.8°C | 0% | 10.9hPa | 2.6V | 03:27:52 | 01:55:23 | 00:00:00 | |
| DF8AY | 2026-09-01 12:24:33 | 52.90108 | 10.81194 | 96° | 29km/h | 30824m | 6.9m/s | -42°C | 0% | 10.8hPa | 2.6V | 03:29:34 | 01:55:22 | 00:00:00 | |
| BIOWL1-15 | 2026-09-01 12:24:32 | 52.90115 | 10.81151 | 103° | 16km/h | 30800m | 7.1m/s | -42.2°C | 0% | 10.9hPa | 2.6V | 03:27:52 | 01:55:18 | 00:00:00 | |
| GOEST3-10 | 2026-09-01 12:24:31 | 52.90109 | 10.81182 | 102° | 26km/h | 30817m | 5.7m/s | -42.0°C | 1.9% | 10.8hPa | 2.7V | 03:27:00 | 00:00:00 | 00:00:00 | |
| DO2SHX-10 | 2026-09-01 12:24:30 | 52.90111 | 10.81170 | 106° | 24km/h | 30812m | 5.3m/s | -42.1°C | 1.9% | 10.8hPa | 2.7V | 00:00:00 | 01:55:20 | 00:00:00 | |
| DO9LL-15 | 2026-09-01 12:24:29 | 52.90113 | 10.81159 | 109° | 22km/h | 30807m | 5.6m/s | -42.2°C | 2.0% | 10.8hPa | 2.7V | 00:00:00 | 01:55:19 | 00:00:00 | |
| DO3MHA-11 | 2026-09-01 12:24:28 | 52.90114 | 10.81151 | 104° | 11km/h | 30800m | 7.0m/s | -42.1°C | 2.0% | 10.8hPa | 2.7V | 00:00:00 | 01:55:18 | 00:00:00 | |
| DL1NUX | 2026-09-01 12:24:28 | 52.90113 | 10.81141 | 46° | 13km/h | 30787m | 5.7m/s | -42.2°C | 1.9% | 10.9hPa | 2.7V | 03:27:21 | 01:55:16 | 00:00:00 | |
| DL1XH-15 | 2026-09-01 12:24:27 | 52.90111 | 10.81137 | 40° | 18km/h | 30782m | 5.4m/s | -42.3°C | 1.9% | 10.9hPa | 2.7V | 03:27:22 | 01:55:15 | 00:00:00 | |
| DL1XH-west | 2026-09-01 12:24:25 | 52.90111 | 10.81137 | 41° | 18km/h | 30782m | 5.4m/s | -42.3°C | 0% | 10.9hPa | 2.7V | 03:27:52 | 01:55:15 | 00:00:00 | |
| AA1-15 | 2026-09-01 12:24:22 | 52.90097 | 10.81108 | 64° | 38km/h | 30764m | 6.2m/s | -42.8°C | 0% | 10.9hPa | 2.6V | 03:27:52 | 01:55:12 | 00:00:00 | |
| BIOWL1-15 | 2026-09-01 12:24:22 | 52.90094 | 10.81093 | 70° | 38km/h | 30758m | 5m/s | -42.8°C | 0% | 10.9hPa | 2.7V | 03:27:52 | 01:55:11 | 00:00:00 | |
| DO2SHX-10 | 2026-09-01 12:24:21 | 52.90094 | 10.81093 | 71° | 35km/h | 30759m | 4.9m/s | -42.8°C | 2.0% | 10.9hPa | 2.6V | 03:27:00 | 01:55:11 | 00:00:00 | |
| DL1LOL-11 | 2026-09-01 12:24:19 | 52.90089 | 10.81066 | 80° | 29km/h | 30748m | 6.5m/s | -42.8°C | 0.2% | 11.0hPa | 2.6V | 00:00:00 | 00:00:00 | 00:00:00 | |
| DO2SHX-10 | 2026-09-01 12:24:18 | 52.90088 | 10.81056 | 81° | 13km/h | 30742m | 6.6m/s | -42.8°C | 2.1% | 10.9hPa | 2.6V | 00:00:00 | 01:55:08 | 00:00:00 | |
| DL1XH-15 | 2026-09-01 12:24:17 | 52.90087 | 10.81042 | 82° | 9km/h | 30724m | 6.9m/s | -43°C | 2.1% | 11hPa | 2.7V | 03:27:32 | 01:55:05 | 00:00:00 | |
| DL1XH-west | 2026-09-01 12:24:15 | 52.90087 | 10.81042 | 82° | 9km/h | 30724m | 6.9m/s | -43°C | 0% | 11hPa | 2.7V | 03:27:52 | 01:55:05 | 00:00:00 | |
| DF8AY | 2026-09-01 12:24:12 | 52.90083 | 10.81027 | 51° | 18km/h | 30706m | 5.5m/s | -43.1°C | 0% | 11.1hPa | 2.6V | 03:29:34 | 01:55:02 | 00:00:00 | |
| AA1-15 | 2026-09-01 12:24:11 | 52.90080 | 10.81021 | 46° | 18km/h | 30700m | 6.6m/s | -43.2°C | 0% | 11hPa | 2.7V | 03:27:52 | 01:55:01 | 00:00:00 | |
| BIOWL1-15 | 2026-09-01 12:24:11 | 52.90067 | 10.81004 | 43° | 24km/h | 30681m | 4.8m/s | -43.2°C | 0% | 11.1hPa | 2.6V | 03:27:52 | 01:54:58 | 00:00:00 | |
| DL3AQ-11 | 2026-09-01 12:24:11 | 52.90076 | 10.81015 | 37° | 20km/h | 30693m | 7.1m/s | -43.3°C | 0.2% | 11.1hPa | 2.7V | 00:00:00 | 00:00:00 | 00:00:00 | |
| DL1XH-15 | 2026-09-01 12:24:10 | 52.90058 | 10.80978 | 74° | 27km/h | 30664m | 6.8m/s | -43.4°C | 2.1% | 11.1hPa | 2.7V | 03:27:42 | 01:54:55 | 00:00:00 | |
| DB0DAN | 2026-09-01 12:24:10 | 52.90076 | 10.81015 | 37° | 20km/h | 30693m | 7.1m/s | -43.3°C | 0.2% | 11.07hPa | 2.7V | 00:00:00 | 00:00:00 | 00:00:00 | |
| DL1XH-west | 2026-09-01 12:24:05 | 52.90058 | 10.80978 | 74° | 27km/h | 30664m | 6.8m/s | -43.4°C | 0% | 11.1hPa | 2.7V | 03:27:52 | 01:54:55 | 00:00:00 | |
| DF8AY | 2026-09-01 12:24:02 | 52.90053 | 10.80947 | 70° | 18km/h | 30649m | 4.2m/s | -43.5°C | 0% | 11.1hPa | 2.6V | 03:29:34 | 01:54:52 | 00:00:00 | |
| DL1NUX | 2026-09-01 12:24:01 | 52.90040 | 10.80963 | 319° | 13km/h | 30614m | 5m/s | -43.8°C | 2.2% | 11.2hPa | 2.7V | 03:27:51 | 01:54:46 | 00:00:00 | |
| AA1-15 | 2026-09-01 12:24:00 | 52.90050 | 10.80940 | 342° | 9km/h | 30637m | 7.7m/s | -43.7°C | 0% | 11.2hPa | 2.7V | 03:27:52 | 01:54:50 | 00:00:00 | |
| DL3AQ-11 | 2026-09-01 12:24:00 | 52.90047 | 10.80944 | 304° | 15km/h | 30630m | 7.1m/s | -43.8°C | 0.2% | 11.1hPa | 2.6V | 00:00:00 | 00:00:00 | 00:00:00 | |
| DM0DOS-11 | 2026-09-01 12:23:59 | 52.90045 | 10.80950 | 297° | 22km/h | 30623m | 5.2m/s | -43.8°C | 2.2% | 11.2hPa | 2.6V | 03:27:49 | 01:54:48 | 00:00:00 | |
| BIOWL1-15 | 2026-09-01 12:23:57 | 52.90042 | 10.80958 | 301° | 18km/h | 30619m | 3.8m/s | -43.8°C | 0% | 11.2hPa | 2.6V | 03:27:52 | 01:54:47 | 00:00:00 | |
| DO2SHX-10 | 2026-09-01 12:23:57 | 52.90042 | 10.80958 | 301° | 13km/h | 30619m | 3.7m/s | -43.7°C | 2.2% | 11.1hPa | 2.7V | 03:27:00 | 01:54:47 | 00:00:00 | |
| DB0DAN | 2026-09-01 12:23:55 | 52.90038 | 10.80964 | 19° | 9km/h | 30609m | 6.5m/s | -44°C | 0.2% | 11.22hPa | 2.7V | 00:00:00 | 00:00:00 | 00:00:00 | |
| DL1XH-west | 2026-09-01 12:23:55 | 52.90038 | 10.80964 | 19° | 9km/h | 30609m | 6.5m/s | -44°C | 0% | 11.2hPa | 2.7V | 03:27:52 | 01:54:45 | 00:00:00 | |
| SMARD9-15 | 2026-09-01 12:23:53 | 52.90029 | 10.80936 | 64° | 38km/h | 30590m | 5.2m/s | -44.2°C | 0.2% | 11.2hPa | 2.7V | 00:00:00 | 00:00:00 | 00:00:00 | |
| DF8AY | 2026-09-01 12:23:53 | 52.90029 | 10.80936 | 65° | 40km/h | 30590m | 5.2m/s | -44.2°C | 0% | 11.2hPa | 2.6V | 03:29:34 | 01:54:42 | 00:00:00 | |
| SP3WXH-11 | 2026-09-01 12:23:52 | 52.90024 | 10.80921 | 59° | 42km/h | 30585m | 5.2m/s | -44.1°C | 0.2% | 11.2hPa | 2.7V | 00:00:00 | 00:00:00 | 00:00:00 | |
| DL1NUX | 2026-09-01 12:23:51 | 52.89993 | 10.80892 | 330° | 20km/h | 30555m | 6.3m/s | -44.1°C | 2.3% | 11.3hPa | 2.7V | 03:28:01 | 01:54:36 | 00:00:00 | |
| AA1-15 | 2026-09-01 12:23:50 | 52.90018 | 10.80907 | 50° | 40km/h | 30579m | 5.9m/s | -44.2°C | 0% | 11.2hPa | 2.7V | 03:28:43 | 01:54:40 | 00:00:00 | |
| DO2SHX-10 | 2026-09-01 12:23:50 | 52.90018 | 10.80907 | 51° | 35km/h | 30579m | 5.8m/s | -44.1°C | 2.3% | 11.2hPa | 2.7V | 00:00:00 | 01:54:40 | 00:00:00 | |
| DL1XH-15 | 2026-09-01 12:23:49 | 52.89989 | 10.80897 | 308° | 16km/h | 30549m | 7m/s | -44.2°C | 2.3% | 11.3hPa | 2.7V | 03:28:02 | 01:54:35 | 00:00:00 | |
| DM0DOS-11 | 2026-09-01 12:23:49 | 52.90004 | 10.80891 | 15° | 29km/h | 30567m | 6.1m/s | -44.1°C | 2.3% | 11.3hPa | 2.6V | 03:27:59 | 01:54:38 | 00:00:00 | |
| BIOWL1-15 | 2026-09-01 12:23:47 | 52.89992 | 10.80892 | 330° | 20km/h | 30555m | 6.3m/s | -44.1°C | 0% | 11.3hPa | 2.7V | 03:28:43 | 01:54:36 | 00:00:00 | |
| DL1XH-west | 2026-09-01 12:23:45 | 52.89989 | 10.80897 | 309° | 16km/h | 30549m | 7m/s | -44.2°C | 0% | 11.3hPa | 2.7V | 03:28:43 | 01:54:35 | 00:00:00 | |
| DF8AY | 2026-09-01 12:23:41 | 52.89989 | 10.80909 | 175° | 4km/h | 30525m | 5.8m/s | -44.3°C | 0% | 11.4hPa | 2.7V | 03:29:34 | 01:54:31 | 00:00:00 | |
| DB0DAN | 2026-09-01 12:23:40 | 52.89990 | 10.80908 | 102° | 4km/h | 30519m | 6.1m/s | -44.3°C | 0.2% | 11.35hPa | 2.7V | 00:00:00 | 00:00:00 | 00:00:00 | |
| DL1NUX | 2026-09-01 12:23:39 | 52.89983 | 10.80898 | 49° | 11km/h | 30495m | 6.7m/s | -44.3°C | 2.4% | 11.4hPa | 2.7V | 03:28:11 | 01:54:26 | 00:00:00 | |
| DM0DOS-11 | 2026-09-01 12:23:39 | 52.89988 | 10.80904 | 35° | 9km/h | 30507m | 5.7m/s | -44.3°C | 2.4% | 11.4hPa | 2.6V | 03:28:09 | 01:54:28 | 00:00:00 | |
| AA1-15 | 2026-09-01 12:23:39 | 52.89989 | 10.80906 | 43° | 5km/h | 30513m | 6m/s | -44.3°C | 0% | 11.4hPa | 2.7V | 03:28:43 | 01:54:29 | 00:00:00 | |
| EDDB2-11 | 2026-09-01 12:23:39 | 52.89988 | 10.80904 | 35° | 9km/h | 30507m | 5.7m/s | -44.3°C | 0.2% | 11.4hPa | 2.7V | 00:00:00 | 00:00:00 | 00:00:00 | |
| SONCRA | 2026-09-01 12:23:38 | 52.89986 | 10.80901 | 38° | 11km/h | 30502m | 5.8m/s | -44.3°C | 0.3% | 11.4hPa | 2.7V | 00:00:00 | 00:00:00 | 00:00:00 | |
| DL1XH-15 | 2026-09-01 12:23:37 | 52.89982 | 10.80894 | 62° | 11km/h | 30489m | 6.4m/s | -44.3°C | 2.4% | 11.4hPa | 2.7V | 03:28:12 | 01:54:25 | 00:00:00 | |
| BIOWL1-15 | 2026-09-01 12:23:36 | 52.89983 | 10.80898 | 50° | 11km/h | 30495m | 6.7m/s | -44.3°C | 0% | 11.4hPa | 2.7V | 03:28:43 | 01:54:26 | 00:00:00 | |
| DL1XH-west | 2026-09-01 12:23:35 | 52.89982 | 10.80894 | 62° | 11km/h | 30489m | 6.4m/s | -44.3°C | 0% | 11.4hPa | 2.7V | 03:28:43 | 01:54:25 | 00:00:00 | |
| S3001 | 2026-09-01 12:23:34 | 52.89981 | 10.80890 | 72° | 11km/h | 30483m | 5.7m/s | -44.3°C | 0.3% | 11.4hPa | 2.6V | 00:00:00 | 00:00:00 | 00:00:00 | |
| TFSTFS | 2026-09-01 12:23:33 | 52.89980 | 10.80886 | 68° | 11km/h | 30478m | 5.0m/s | -44.3°C | 0.2% | 11.5hPa | 2.6V | 00:00:00 | 00:00:00 | 00:00:00 | |
| DO2SHX-10 | 2026-09-01 12:23:32 | 52.89978 | 10.80882 | 48° | 11km/h | 30473m | 5.3m/s | -44.3°C | 2.3% | 11.4hPa | 2.6V | 03:28:00 | 01:54:22 | 00:00:00 | |
| DL3AQ-11 | 2026-09-01 12:23:31 | 52.89974 | 10.80878 | 9° | 13km/h | 30460m | 6.5m/s | -44.4°C | 0.3% | 11.5hPa | 2.7V | 00:00:00 | 00:00:00 | 00:00:00 | |
| DL1XH-15 | 2026-09-01 12:23:30 | 52.89970 | 10.80876 | 155° | 11km/h | 30428m | 6m/s | -44.7°C | 2.3% | 11.5hPa | 2.7V | 03:28:22 | 01:54:15 | 00:00:00 | |
| DG6HD-15 | 2026-09-01 12:23:30 | 52.89973 | 10.80878 | 11° | 13km/h | 30460m | 6.5m/s | -44.4°C | 0.3% | 11.5hPa | 2.6V | 03:28:00 | 00:00:00 | 00:00:00 | |
| DM0DOS-11 | 2026-09-01 12:23:29 | 52.89968 | 10.80877 | 357° | 5km/h | 30448m | 5.3m/s | -44.6°C | 2.4% | 11.4hPa | 2.6V | 03:28:19 | 01:54:18 | 00:00:00 | |
| AA1-15 | 2026-09-01 12:23:28 | 52.89968 | 10.80877 | 358° | 5km/h | 30448m | 5.3m/s | -44.6°C | 0% | 11.5hPa | 2.6V | 03:28:43 | 01:54:18 | 00:00:00 | |
| DL1NUX | 2026-09-01 12:23:28 | 52.89968 | 10.80877 | 162° | 5km/h | 30435m | 6.9m/s | -44.6°C | 2.3% | 11.5hPa | 2.7V | 03:28:21 | 01:54:16 | 00:00:00 | |
| BIOWL1-15 | 2026-09-01 12:23:26 | 52.89974 | 10.80870 | 117° | 11km/h | 30416m | 6.8m/s | -44.8°C | 0% | 11.6hPa | 2.6V | 03:28:43 | 01:54:13 | 00:00:00 | |
| DL1XH-west | 2026-09-01 12:23:25 | 52.89970 | 10.80876 | 155° | 11km/h | 30428m | 6m/s | -44.7°C | 0% | 11.5hPa | 2.7V | 03:28:43 | 01:54:15 | 00:00:00 | |
| DB0DAN | 2026-09-01 12:23:25 | 52.89970 | 10.80876 | 155° | 11km/h | 30428m | 6m/s | -44.7°C | 0.2% | 11.52hPa | 2.7V | 00:00:00 | 00:00:00 | 00:00:00 | |
| DB0NH | 2026-09-01 12:23:24 | 52.89973 | 10.80873 | 141° | 9km/h | 30423m | 5.8m/s | -44.7°C | 2.3% | 11.5hPa | 2.7V | 00:00:00 | 01:54:14 | 00:00:00 | |
| DD8BA-10 | 2026-09-01 12:23:23 | 52.89974 | 10.80870 | 118° | 7km/h | 30417m | 6.8m/s | -44.7°C | 2.3% | 11.5hPa | 2.7V | 00:00:00 | 00:00:00 | 00:00:00 | |
| DF7ER-10 | 2026-09-01 12:23:22 | 52.89975 | 10.80870 | 118° | 11km/h | 30417m | 6.8m/s | -44.8°C | 0.3% | 11.6hPa | 2.7V | 03:28:00 | 00:00:00 | 00:00:00 | |
| SP3BTT-10 | 2026-09-01 12:23:21 | 52.89974 | 10.80860 | 74° | 11km/h | 30404m | 5.3m/s | -44.9°C | 2.4% | 11.5hPa | 2.7V | 00:00:00 | 00:00:00 | 00:00:00 | |
| DL1XH-15 | 2026-09-01 12:23:20 | 52.89974 | 10.80845 | 297° | 4km/h | 30367m | 7.4m/s | -45°C | 2.4% | 11.6hPa | 2.7V | 03:28:32 | 01:54:05 | 00:00:00 | |
| DL1NUX | 2026-09-01 12:23:20 | 52.89974 | 10.80844 | 202° | 2km/h | 30373m | 5.7m/s | -44.9°C | 2.3% | 11.6hPa | 2.7V | 03:28:31 | 01:54:06 | 00:00:00 | |
| AA1-15 | 2026-09-01 12:23:18 | 52.89973 | 10.80847 | 101° | 7km/h | 30385m | 6.6m/s | -44.8°C | 0% | 11.6hPa | 2.6V | 03:28:43 | 01:54:08 | 00:00:00 | |
| DL1XH-west | 2026-09-01 12:23:14 | 52.89973 | 10.80846 | 309° | 7km/h | 30360m | 6.4m/s | -45°C | 0% | 11.7hPa | 2.7V | 03:28:43 | 01:54:04 | 00:00:00 | |
| BIOWL1-15 | 2026-09-01 12:23:13 | 52.89988 | 10.80812 | 67° | 11km/h | 30299m | 6m/s | -44.9°C | 0% | 11.8hPa | 2.7V | 03:28:43 | 01:53:54 | 00:00:00 | |
| AP2371 | 2026-09-01 12:23:13 | 52.89972 | 10.80848 | 304° | 5km/h | 30355m | 4.9m/s | -44.9°C | 0.3% | 11.7hPa | 2.7V | 00:00:00 | 00:00:00 | 00:00:00 | |
| DF7ER-10 | 2026-09-01 12:23:12 | 52.89972 | 10.80849 | 213° | 2km/h | 30350m | 5.1m/s | -44.9°C | 0.3% | 11.7hPa | 2.7V | 03:28:00 | 00:00:00 | 00:00:00 | |
| MECKS9 | 2026-09-01 12:23:11 | 52.89973 | 10.80849 | 160° | 7km/h | 30344m | 7.1m/s | -44.9°C | 0.3% | 11.7hPa | 2.7V | 03:28:00 | 00:00:00 | 00:00:00 | |
| DL1NUX | 2026-09-01 12:23:10 | 52.89988 | 10.80823 | 106° | 16km/h | 30311m | 6.6m/s | -44.9°C | 2.4% | 11.7hPa | 2.7V | 03:28:41 | 01:53:56 | 00:00:00 | |
| DB0DAN | 2026-09-01 12:23:10 | 52.89976 | 10.80847 | 149° | 15km/h | 30336m | 7.3m/s | -44.9°C | 0.3% | 11.67hPa | 2.7V | 00:00:00 | 00:00:00 | 00:00:00 | |
| DL4XJ-10 | 2026-09-01 12:23:10 | 52.89976 | 10.80847 | 149° | 13km/h | 30337m | 7.2m/s | -43.9°C | 0% | 0hPa | 2.7V | 00:00:00 | 00:00:00 | 00:00:00 | |
| DL1XH-15 | 2026-09-01 12:23:09 | 52.89988 | 10.80812 | 66° | 11km/h | 30299m | 6m/s | -44.9°C | 2.4% | 11.8hPa | 2.7V | 03:28:43 | 01:53:54 | 00:00:00 | |
| AA1-15 | 2026-09-01 12:23:07 | 52.89987 | 10.80830 | 122° | 20km/h | 30318m | 6.7m/s | -44.8°C | 0% | 11.7hPa | 2.6V | 03:28:43 | 01:53:57 | 00:00:00 | |
| DL1XH-west | 2026-09-01 12:23:03 | 52.89987 | 10.80808 | 62° | 7km/h | 30293m | 6.6m/s | -44.9°C | 0% | 11.8hPa | 2.6V | 03:29:34 | 01:53:53 | 00:00:00 | |
| BIOWL1-15 | 2026-09-01 12:23:02 | 52.89987 | 10.80807 | 100° | 2km/h | 30286m | 7m/s | -45°C | 0% | 11.8hPa | 2.6V | 03:29:34 | 01:53:52 | 00:00:00 | |
| DF7ER-10 | 2026-09-01 12:23:02 | 52.89987 | 10.80806 | 101° | 2km/h | 30286m | 7.0m/s | -45.0°C | 0.3% | 11.8hPa | 2.6V | 03:29:00 | 00:00:00 | 00:00:00 | |
| DF8AY | 2026-09-01 12:23:02 | 52.89987 | 10.80806 | 181° | 4km/h | 30279m | 6.3m/s | -45.1°C | 0% | 11.8hPa | 2.7V | 03:29:34 | 01:53:51 | 00:00:00 | |
| MECKS9 | 2026-09-01 12:23:01 | 52.89988 | 10.80806 | 182° | 5km/h | 30280m | 6.3m/s | -45.1°C | 0.2% | 11.8hPa | 2.6V | 00:00:00 | 00:00:00 | 00:00:00 | |
| DL1XH1-15 | 2026-09-01 12:23:00 | 52.89992 | 10.80808 | 185° | 4km/h | 30261m | 6.6m/s | -45°C | 2.4% | 11.8hPa | 2.6V | 03:28:49 | 01:53:48 | 00:00:00 | |
| DL1XH-15 | 2026-09-01 12:22:59 | 52.89990 | 10.80794 | 94° | 18km/h | 30236m | 6.5m/s | -44.9°C | 2.4% | 11.9hPa | 2.7V | 03:28:53 | 01:53:44 | 00:00:00 | |
| DL1NUX | 2026-09-01 12:22:59 | 52.89991 | 10.80805 | 64° | 9km/h | 30247m | 6.1m/s | -45°C | 2.4% | 11.8hPa | 2.7V | 03:28:51 | 01:53:46 | 00:00:00 | |
| AA1-15 | 2026-09-01 12:22:56 | 52.89991 | 10.80805 | 65° | 9km/h | 30248m | 6.1m/s | -45°C | 0% | 11.8hPa | 2.7V | 03:29:34 | 01:53:46 | 00:00:00 | |
| DB0DAN | 2026-09-01 12:22:55 | 52.89990 | 10.80800 | 77° | 13km/h | 30242m | 5.7m/s | -45°C | 0.3% | 11.85hPa | 2.7V | 00:00:00 | 00:00:00 | 00:00:00 | |
| DL1XH-west | 2026-09-01 12:22:53 | 52.89991 | 10.80786 | 105° | 22km/h | 30229m | 7.3m/s | -45°C | 0% | 11.9hPa | 2.6V | 03:29:34 | 01:53:43 | 00:00:00 | |
| BIOWL1-15 | 2026-09-01 12:22:52 | 52.89993 | 10.80776 | 109° | 24km/h | 30222m | 5.9m/s | -45°C | 0% | 11.9hPa | 2.6V | 03:29:34 | 01:53:42 | 00:00:00 | |
| DM0DOS-11 | 2026-09-01 12:22:51 | 52.89994 | 10.80743 | 57° | 15km/h | 30197m | 5.9m/s | -45°C | 2.4% | 11.9hPa | 2.7V | 03:28:59 | 01:53:38 | 00:00:00 | |
| DF8AY | 2026-09-01 12:22:49 | 52.89996 | 10.80749 | 81° | 18km/h | 30204m | 7.1m/s | -45°C | 0% | 11.9hPa | 2.7V | 03:29:34 | 01:53:39 | 00:00:00 | |
| DL1XH-15 | 2026-09-01 12:22:49 | 52.89988 | 10.80737 | 297° | 2km/h | 30172m | 5.9m/s | -45.1°C | 2.4% | 12hPa | 2.7V | 03:29:03 | 01:53:34 | 00:00:00 | |
| AA1-15 | 2026-09-01 12:22:45 | 52.89989 | 10.80737 | 355° | 4km/h | 30179m | 7m/s | -45°C | 0% | 12hPa | 2.6V | 03:29:34 | 01:53:35 | 00:00:00 | |
| AM1SDL-15 | 2026-09-01 12:22:45 | 52.89988 | 10.80737 | 298° | 11km/h | 30173m | 5.9m/s | -45.0°C | 2.4% | 11.9hPa | 2.6V | 00:00:00 | 01:53:34 | 00:00:00 | |
| DO2SHX-10 | 2026-09-01 12:22:44 | 52.89988 | 10.80737 | 298° | 2km/h | 30173m | 5.9m/s | -45.0°C | 2.4% | 11.9hPa | 2.6V | 03:29:00 | 01:53:34 | 00:00:00 | |
| DD8BA-10 | 2026-09-01 12:22:43 | 52.89988 | 10.80737 | 120° | 15km/h | 30167m | 4.8m/s | -44.9°C | 2.4% | 12.0hPa | 2.6V | 00:00:00 | 00:00:00 | 00:00:00 | |
| DL1XH-west | 2026-09-01 12:22:43 | 52.89988 | 10.80737 | 120° | 0km/h | 30167m | 4.9m/s | -45°C | 0% | 12hPa | 2.7V | 03:29:34 | 01:53:33 | 00:00:00 | |
| DL1NUX | 2026-09-01 12:22:42 | 52.89981 | 10.80693 | 91° | 18km/h | 30122m | 5.7m/s | -45°C | 2.4% | 12.1hPa | 2.6V | 03:29:11 | 01:53:26 | 00:00:00 | |
| DF8AY | 2026-09-01 12:22:40 | 52.89984 | 10.80720 | 69° | 22km/h | 30142m | 6.4m/s | -45°C | 0% | 12.1hPa | 2.7V | 03:29:34 | 01:53:29 | 00:00:00 | |
| DL3AQ-11 | 2026-09-01 12:22:40 | 52.89984 | 10.80720 | 69° | 22km/h | 30142m | 6.4m/s | -45.0°C | 0.3% | 12.1hPa | 2.7V | 00:00:00 | 00:00:00 | 00:00:00 | |
| DL1XH-15 | 2026-09-01 12:22:39 | 52.89981 | 10.80682 | 74° | 9km/h | 30112m | 5m/s | -45°C | 2.4% | 12.1hPa | 2.7V | 03:29:13 | 01:53:24 | 00:00:00 | |
| AA1-15 | 2026-09-01 12:22:34 | 52.89981 | 10.80682 | 75° | 9km/h | 30112m | 5m/s | -45°C | 0% | 12.1hPa | 2.7V | 03:29:34 | 01:53:24 | 00:00:00 | |
| BIOWL1-15 | 2026-09-01 12:22:32 | 52.89969 | 10.80672 | 16° | 18km/h | 30087m | 5.3m/s | -44.9°C | 0% | 12.1hPa | 2.6V | 03:29:34 | 01:53:20 | 00:00:00 | |
| DF7ER-10 | 2026-09-01 12:22:31 | 52.89973 | 10.80674 | 15° | 18km/h | 30093m | 6.2m/s | -45.0°C | 0.3% | 12.1hPa | 2.7V | 03:29:00 | 00:00:00 | 00:00:00 | |
| DM0DOS-11 | 2026-09-01 12:22:30 | 52.89962 | 10.80667 | 45° | 11km/h | 30075m | 7m/s | -44.9°C | 2.4% | 12.2hPa | 2.7V | 03:29:19 | 01:53:18 | 00:00:00 | |
| DF8AY | 2026-09-01 12:22:30 | 52.89965 | 10.80670 | 26° | 15km/h | 30081m | 5.6m/s | -44.9°C | 0% | 12.2hPa | 2.7V | 03:29:34 | 01:53:19 | 00:00:00 | |
| DO9LL-15 | 2026-09-01 12:22:30 | 52.89965 | 10.80669 | 27° | 9km/h | 30082m | 5.5m/s | -44.9°C | 2.4% | 12.1hPa | 2.6V | 00:00:00 | 01:53:19 | 00:00:00 | |
| MECKS9 | 2026-09-01 12:22:29 | 52.89965 | 10.80669 | 27° | 15km/h | 30082m | 5.6m/s | -44.9°C | 0.3% | 12.2hPa | 2.6V | 00:00:00 | 00:00:00 | 00:00:00 | |
| DF8AY-15 | 2026-09-01 12:22:28 | 52.89962 | 10.80666 | 46° | 11km/h | 30075m | 7.0m/s | -44.9°C | 2.4% | 12.1hPa | 2.6V | 03:29:00 | 01:53:18 | 00:00:00 | |
| DL1NUX | 2026-09-01 12:22:27 | 52.89961 | 10.80658 | 98° | 13km/h | 30062m | 5.3m/s | -44.8°C | 2.4% | 12.2hPa | 2.6V | 03:29:21 | 01:53:16 | 00:00:00 | |
| DB0DAN | 2026-09-01 12:22:25 | 52.89961 | 10.80653 | 96° | 13km/h | 30057m | 5.7m/s | -44.9°C | 0.3% | 12.19hPa | 2.6V | 00:00:00 | 00:00:00 | 00:00:00 | |
| AA1-15 | 2026-09-01 12:22:24 | 52.89958 | 10.80637 | 41° | 15km/h | 30038m | 5.4m/s | -44.8°C | 0% | 12.2hPa | 2.7V | 03:29:34 | 01:53:12 | 00:00:00 | |
| DO2SHX-10 | 2026-09-01 12:22:23 | 52.89960 | 10.80642 | 62° | 13km/h | 30044m | 6.0m/s | -44.7°C | 2.4% | 12.2hPa | 2.6V | 00:00:00 | 01:53:13 | 00:00:00 | |
| DL1NUX | 2026-09-01 12:22:22 | 52.89952 | 10.80640 | 275° | 5km/h | 29997m | 5.8m/s | -44.5°C | 2.3% | 12.3hPa | 2.6V | 03:29:32 | 01:53:05 | 00:00:00 | |
| BIOWL1-15 | 2026-09-01 12:22:20 | 52.89951 | 10.80634 | 239° | 5km/h | 30008m | 5.6m/s | -44.6°C | 0% | 12.3hPa | 2.7V | 03:29:34 | 01:53:07 | 00:00:00 | |
| DF8AY | 2026-09-01 12:22:20 | 52.89951 | 10.80632 | 356° | 5km/h | 30022m | 7.2m/s | -44.7°C | 0% | 12.2hPa | 2.7V | 03:29:34 | 01:53:09 | 00:00:00 | |
| DM0DOS-11 | 2026-09-01 12:22:19 | 52.89951 | 10.80633 | 272° | 2km/h | 30014m | 7.1m/s | -44.7°C | 2.3% | 12.2hPa | 2.7V | 03:29:29 | 01:53:08 | 00:00:00 | |
| AA1-15 | 2026-09-01 12:22:12 | 52.89942 | 10.80643 | 12° | 15km/h | 29973m | 4.5m/s | -44.5°C | 0% | 12.3hPa | 2.7V | 03:30:25 | 01:53:01 | 00:00:00 | |
| DO2SHX-10 | 2026-09-01 12:22:12 | 52.89942 | 10.80643 | 12° | 11km/h | 29973m | 4.5m/s | -44.5°C | 2.3% | 12.3hPa | 2.7V | 00:00:00 | 01:53:01 | 00:00:00 | |
| DL4XJ-10 | 2026-09-01 12:22:11 | 52.89939 | 10.80642 | 23° | 9km/h | 29968m | 6.0m/s | -43.6°C | 0% | 0hPa | 2.6V | 00:00:00 | 00:00:00 | 00:00:00 | |
| DL1NUX | 2026-09-01 12:22:10 | 52.89941 | 10.80622 | 87° | 5km/h | 29930m | 5.2m/s | -44.5°C | 2.3% | 12.4hPa | 2.6V | 03:29:43 | 01:52:54 | 00:00:00 | |
| DB0DAN | 2026-09-01 12:22:10 | 52.89939 | 10.80642 | 23° | 11km/h | 29968m | 6m/s | -44.6°C | 0.3% | 12.35hPa | 2.6V | 00:00:00 | 00:00:00 | 00:00:00 | |
| DF7ER-10 | 2026-09-01 12:22:10 | 52.89939 | 10.80642 | 24° | 11km/h | 29968m | 6.0m/s | -44.6°C | 0.3% | 12.4hPa | 2.6V | 03:30:00 | 00:00:00 | 00:00:00 | |
| DM0DOS-11 | 2026-09-01 12:22:09 | 52.89938 | 10.80637 | 115° | 7km/h | 29954m | 6.4m/s | -44.5°C | 2.3% | 12.4hPa | 2.6V | 03:29:39 | 01:52:58 | 00:00:00 | |
| DF8AY | 2026-09-01 12:22:09 | 52.89938 | 10.80637 | 115° | 7km/h | 29954m | 6.4m/s | -44.5°C | 0% | 12.4hPa | 2.6V | 03:30:25 | 01:52:58 | 00:00:00 | |
| DG6HD-15 | 2026-09-01 12:22:08 | 52.89938 | 10.80637 | 116° | 7km/h | 29954m | 6.4m/s | -44.5°C | 0.2% | 12.4hPa | 2.6V | 03:30:00 | 00:00:00 | 00:00:00 | |
| DL1XH-15 | 2026-09-01 12:22:07 | 52.89941 | 10.80622 | 87° | 5km/h | 29930m | 5.2m/s | -44.5°C | 2.3% | 12.4hPa | 2.6V | 03:29:43 | 01:52:54 | 00:00:00 | |
| BIOWL1-15 | 2026-09-01 12:22:07 | 52.89941 | 10.80622 | 88° | 5km/h | 29930m | 5.3m/s | -44.5°C | 0% | 12.4hPa | 2.6V | 03:30:25 | 01:52:54 | 00:00:00 | |
| AA1-15 | 2026-09-01 12:22:02 | 52.89941 | 10.80622 | 262° | 5km/h | 29912m | 7.4m/s | -44.4°C | 0% | 12.5hPa | 2.7V | 03:30:25 | 01:52:51 | 00:00:00 | |
| S3001 | 2026-09-01 12:22:01 | 52.89941 | 10.80622 | 261° | 5km/h | 29913m | 7.4m/s | -44.4°C | 0.3% | 12.5hPa | 2.6V | 00:00:00 | 00:00:00 | 00:00:00 | |
| DL3AQ-11 | 2026-09-01 12:22:00 | 52.89941 | 10.80629 | 263° | 9km/h | 29901m | 5.0m/s | -44.4°C | 0.2% | 12.5hPa | 2.6V | 00:00:00 | 00:00:00 | 00:00:00 | |
| DM0DOS-11 | 2026-09-01 12:21:59 | 52.89941 | 10.80633 | 282° | 9km/h | 29895m | 5.5m/s | -44.3°C | 2.3% | 12.5hPa | 2.6V | 03:29:49 | 01:52:48 | 00:00:00 | |
| DF8AY | 2026-09-01 12:21:58 | 52.89941 | 10.80633 | 282° | 9km/h | 29895m | 5.5m/s | -44.3°C | 0% | 12.5hPa | 2.6V | 03:30:25 | 01:52:48 | 00:00:00 | |
| DL1XH-west | 2026-09-01 12:21:57 | 52.89940 | 10.80637 | 307° | 9km/h | 29889m | 7.3m/s | -44.3°C | 0% | 12.5hPa | 2.7V | 03:30:25 | 01:52:47 | 00:00:00 | |
| BIOWL1-15 | 2026-09-01 12:21:56 | 52.89936 | 10.80640 | 354° | 13km/h | 29876m | 5.2m/s | -44.5°C | 0% | 12.6hPa | 2.7V | 03:30:25 | 01:52:45 | 00:00:00 | |
| DB0DAN | 2026-09-01 12:21:55 | 52.89936 | 10.80640 | 354° | 11km/h | 29876m | 5.2m/s | -44.5°C | 0.3% | 12.56hPa | 2.7V | 00:00:00 | 00:00:00 | 00:00:00 | |
| DM0DOS-11 | 2026-09-01 12:21:54 | 52.89944 | 10.80659 | 228° | 18km/h | 29834m | 6.7m/s | -44.5°C | 2.3% | 12.6hPa | 2.6V | 03:29:59 | 01:52:38 | 00:00:00 | |
| AA1-15 | 2026-09-01 12:21:50 | 52.89936 | 10.80648 | 215° | 20km/h | 29846m | 6.4m/s | -44.4°C | 0% | 12.6hPa | 2.7V | 03:30:25 | 01:52:40 | 00:00:00 | |
| DF8AY | 2026-09-01 12:21:48 | 52.89948 | 10.80674 | 258° | 11km/h | 29816m | 5.8m/s | -44.5°C | 0% | 12.7hPa | 2.7V | 03:30:25 | 01:52:35 | 00:00:00 | |
| DG6HD-15 | 2026-09-01 12:21:48 | 52.89944 | 10.80659 | 230° | 18km/h | 29834m | 6.7m/s | -44.5°C | 0.3% | 12.6hPa | 2.7V | 03:30:00 | 00:00:00 | 00:00:00 | |
| DO2SHX-10 | 2026-09-01 12:21:47 | 52.89947 | 10.80664 | 244° | 13km/h | 29828m | 6.6m/s | -44.5°C | 2.2% | 12.6hPa | 2.7V | 00:00:00 | 01:52:37 | 00:00:00 | |
| DL1XH-west | 2026-09-01 12:21:47 | 52.89948 | 10.80670 | 256° | 13km/h | 29821m | 5.3m/s | -44.4°C | 0% | 12.7hPa | 2.6V | 03:30:25 | 01:52:36 | 00:00:00 | |
| GOEST3-10 | 2026-09-01 12:21:46 | 52.89948 | 10.80670 | 257° | 7km/h | 29822m | 5.2m/s | -44.4°C | 2.3% | 12.6hPa | 2.7V | 00:00:00 | 01:52:36 | 00:00:00 | |
| DL3AQ-11 | 2026-09-01 12:21:44 | 52.89950 | 10.80680 | 235° | 4km/h | 29803m | 6.2m/s | -44.6°C | 0.2% | 12.7hPa | 2.7V | 00:00:00 | 00:00:00 | 00:00:00 | |
| DD8BA-10 | 2026-09-01 12:21:43 | 52.89950 | 10.80680 | 236° | 9km/h | 29803m | 6.2m/s | -44.6°C | 2.3% | 12.6hPa | 2.7V | 00:00:00 | 00:00:00 | 00:00:00 | |
| TFSTFS | 2026-09-01 12:21:42 | 52.89950 | 10.80682 | 0° | 0km/h | 29797m | 5.0m/s | -44.6°C | 0.3% | 12.7hPa | 2.7V | 03:30:00 | 00:00:00 | 00:00:00 | |
| DO2SHX-10 | 2026-09-01 12:21:41 | 52.89949 | 10.80682 | 20° | 7km/h | 29791m | 6.1m/s | -44.6°C | 2.3% | 12.6hPa | 2.7V | 00:00:00 | 01:52:31 | 00:00:00 | |
| DL1XH1-15 | 2026-09-01 12:21:40 | 52.89944 | 10.80681 | 331° | 5km/h | 29772m | 4.6m/s | -44.7°C | 2.3% | 12.8hPa | 2.7V | 03:30:09 | 01:52:28 | 00:00:00 | |
| DB0DAN | 2026-09-01 12:21:40 | 52.89948 | 10.80681 | 15° | 7km/h | 29784m | 7.7m/s | -44.8°C | 0.3% | 12.74hPa | 2.7V | 00:00:00 | 00:00:00 | 00:00:00 | |
| AA1-15 | 2026-09-01 12:21:39 | 52.89946 | 10.80680 | 3° | 9km/h | 29777m | 5.5m/s | -44.8°C | 0% | 12.7hPa | 2.7V | 03:30:25 | 01:52:29 | 00:00:00 | |
| DF8AY | 2026-09-01 12:21:38 | 52.89944 | 10.80681 | 332° | 5km/h | 29772m | 4.6m/s | -44.7°C | 0% | 12.8hPa | 2.7V | 03:30:25 | 01:52:28 | 00:00:00 | |
| DF7ER-10 | 2026-09-01 12:21:38 | 52.89944 | 10.80681 | 333° | 5km/h | 29773m | 4.6m/s | -44.7°C | 0.3% | 12.8hPa | 2.7V | 03:30:00 | 00:00:00 | 00:00:00 | |
| DL1NUX | 2026-09-01 12:21:37 | 52.89952 | 10.80694 | 216° | 20km/h | 29748m | 4.7m/s | -44.8°C | 2.4% | 12.8hPa | 2.7V | 03:30:13 | 01:52:24 | 00:00:00 | |
| DL1XH-west | 2026-09-01 12:21:36 | 52.89945 | 10.80685 | 227° | 13km/h | 29759m | 7.4m/s | -44.8°C | 0% | 12.8hPa | 2.6V | 03:30:25 | 01:52:26 | 00:00:00 | |
| GOEST3-10 | 2026-09-01 12:21:36 | 52.89945 | 10.80685 | 227° | 16km/h | 29760m | 7.4m/s | -44.8°C | 2.3% | 12.7hPa | 2.6V | 00:00:00 | 01:52:26 | 00:00:00 | |
| EDDB2-11 | 2026-09-01 12:21:35 | 52.89952 | 10.80695 | 216° | 20km/h | 29748m | 4.7m/s | -44.8°C | 0.3% | 12.8hPa | 2.7V | 00:00:00 | 00:00:00 | 00:00:00 | |
| BUE01 | 2026-09-01 12:21:34 | 52.89952 | 10.80695 | 216° | 20km/h | 29748m | 4.7m/s | -44.8°C | 0.3% | 12.8hPa | 2.7V | 00:00:00 | 00:00:00 | 00:00:00 | |
| DJ8HS-15 | 2026-09-01 12:21:33 | 52.89956 | 10.80699 | 218° | 11km/h | 29743m | 5.4m/s | -44.8°C | 2.3% | 12.8hPa | 2.7V | 00:00:00 | 01:52:23 | 00:00:00 | |
| DO2SHX-10 | 2026-09-01 12:21:32 | 52.89959 | 10.80703 | 220° | 7km/h | 29737m | 6.3m/s | -44.7°C | 2.3% | 12.8hPa | 2.7V | 03:30:00 | 01:52:22 | 00:00:00 | |
| DM0DOS-11 | 2026-09-01 12:21:31 | 52.89962 | 10.80701 | 92° | 7km/h | 29714m | 6.5m/s | -44.8°C | 2.3% | 12.9hPa | 2.7V | 03:30:19 | 01:52:18 | 00:00:00 | |
| BIOWL1-15 | 2026-09-01 12:21:30 | 52.89964 | 10.80696 | 157° | 9km/h | 29701m | 6.1m/s | -44.8°C | 0% | 12.9hPa | 2.7V | 03:30:25 | 01:52:16 | 00:00:00 | |
| AA1-15 | 2026-09-01 12:21:28 | 52.89962 | 10.80701 | 93° | 7km/h | 29714m | 6.5m/s | -44.8°C | 0% | 12.9hPa | 2.7V | 03:30:25 | 01:52:18 | 00:00:00 | |
| DF8AY | 2026-09-01 12:21:28 | 52.89962 | 10.80698 | 121° | 7km/h | 29707m | 6.4m/s | -44.8°C | 0% | 12.9hPa | 2.7V | 03:30:25 | 01:52:17 | 00:00:00 | |
| DO3MHA-11 | 2026-09-01 12:21:28 | 52.89962 | 10.80701 | 93° | 11km/h | 29714m | 6.4m/s | -44.7°C | 2.3% | 12.8hPa | 2.7V | 03:30:00 | 01:52:18 | 00:00:00 | |
| DL1NUX | 2026-09-01 12:21:27 | 52.89969 | 10.80696 | 203° | 13km/h | 29689m | 5.9m/s | -44.8°C | 2.3% | 12.9hPa | 2.6V | 03:30:23 | 01:52:14 | 00:00:00 | |
| DL1XH-west | 2026-09-01 12:21:25 | 52.89966 | 10.80695 | 183° | 11km/h | 29695m | 6.1m/s | -44.8°C | 0% | 12.9hPa | 2.6V | 03:30:25 | 01:52:15 | 00:00:00 | |
| SO1NDE-10 | 2026-09-01 12:21:25 | 52.89966 | 10.80695 | 183° | 13km/h | 29695m | 6.0m/s | -44.7°C | 2.3% | 12.9hPa | 2.6V | 00:00:00 | 01:52:15 | 00:00:00 | |
| DB0NH | 2026-09-01 12:21:24 | 52.89969 | 10.80696 | 204° | 13km/h | 29689m | 5.9m/s | -44.8°C | 2.3% | 12.9hPa | 2.7V | 00:00:00 | 01:52:14 | 00:00:00 | |
| DD8BA-10 | 2026-09-01 12:21:23 | 52.89971 | 10.80699 | 226° | 13km/h | 29683m | 6.6m/s | -44.9°C | 2.3% | 12.9hPa | 2.7V | 00:00:00 | 00:00:00 | 00:00:00 | |
| SMARD9-10 | 2026-09-01 12:21:22 | 52.89973 | 10.80703 | 247° | 13km/h | 29677m | 6.1m/s | -44.9°C | 0.3% | 13.0hPa | 2.7V | 03:30:00 | 00:00:00 | 00:00:00 | |
| DB0UT-7 | 2026-09-01 12:21:21 | 52.89974 | 10.80708 | 255° | 13km/h | 29671m | 5.7m/s | -44.8°C | 2.3% | 12.9hPa | 2.7V | 00:00:00 | 00:00:00 | 00:00:00 | |
| DL1XH1-15 | 2026-09-01 12:21:20 | 52.89981 | 10.80721 | 204° | 15km/h | 29653m | 6.9m/s | -44.8°C | 2.3% | 13hPa | 2.7V | 03:30:29 | 01:52:08 | 00:00:00 | |
| AA1-15 | 2026-09-01 12:21:18 | 52.89984 | 10.80723 | 182° | 15km/h | 29646m | 5.4m/s | -44.8°C | 0% | 13hPa | 2.7V | 03:31:16 | 01:52:07 | 00:00:00 | |
| DL1NUX | 2026-09-01 12:21:17 | 52.89992 | 10.80717 | 111° | 7km/h | 29628m | 7.8m/s | -44.9°C | 2.3% | 13hPa | 2.6V | 03:30:33 | 01:52:04 | 00:00:00 | |
| DF8AY | 2026-09-01 12:21:16 | 52.89988 | 10.80722 | 160° | 13km/h | 29641m | 4.8m/s | -44.9°C | 0% | 13hPa | 2.7V | 03:31:16 | 01:52:06 | 00:00:00 | |
| DL1XH-west | 2026-09-01 12:21:15 | 52.89992 | 10.80717 | 111° | 7km/h | 29628m | 7.8m/s | -44.9°C | 0% | 13hPa | 2.6V | 03:31:16 | 01:52:04 | 00:00:00 | |
| AA1-15 | 2026-09-01 12:21:08 | 52.90006 | 10.80706 | 199° | 11km/h | 29584m | 7.5m/s | -45.1°C | 0% | 13.1hPa | 2.6V | 03:31:16 | 01:51:57 | 00:00:00 | |
| DL1NUX | 2026-09-01 12:21:07 | 52.90015 | 10.80713 | 204° | 15km/h | 29566m | 6.8m/s | -45.2°C | 2.4% | 13.2hPa | 2.7V | 03:30:43 | 01:51:54 | 00:00:00 | |
| BIOWL1-15 | 2026-09-01 12:21:07 | 52.90015 | 10.80713 | 205° | 15km/h | 29566m | 6.8m/s | -45.2°C | 0% | 13.2hPa | 2.7V | 03:31:16 | 01:51:54 | 00:00:00 | |
| DF8AY | 2026-09-01 12:21:06 | 52.90009 | 10.80708 | 208° | 11km/h | 29577m | 5.6m/s | -45.1°C | 0% | 13.2hPa | 2.7V | 03:31:16 | 01:51:56 | 00:00:00 | |
| DL1XH-west | 2026-09-01 12:21:04 | 52.90018 | 10.80715 | 194° | 16km/h | 29559m | 6.2m/s | -45.1°C | 0% | 13.2hPa | 2.6V | 03:31:16 | 01:51:53 | 00:00:00 | |
| DD8BA-10 | 2026-09-01 12:21:04 | 52.90018 | 10.80715 | 195° | 15km/h | 29560m | 6.1m/s | -45.1°C | 2.3% | 13.1hPa | 2.6V | 00:00:00 | 00:00:00 | 00:00:00 | |
| DO2SHX-10 | 2026-09-01 12:21:03 | 52.90022 | 10.80716 | 186° | 9km/h | 29554m | 4.4m/s | -45.1°C | 2.3% | 13.2hPa | 2.7V | 00:00:00 | 01:51:52 | 00:00:00 | |
| DL1CLM-18 | 2026-09-01 12:21:02 | 52.90022 | 10.80716 | 186° | 13km/h | 29554m | 4.5m/s | -45.1°C | 0.3% | 13.2hPa | 2.7V | 03:31:00 | 00:00:00 | 00:00:00 | |
| GOEST3-10 | 2026-09-01 12:21:01 | 52.90025 | 10.80716 | 171° | 11km/h | 29549m | 5.2m/s | -45.2°C | 2.3% | 13.1hPa | 2.7V | 00:00:00 | 00:00:00 | 00:00:00 | |
| DO2SHX-10 | 2026-09-01 12:20:59 | 52.90027 | 10.80712 | 93° | 13km/h | 29536m | 6.4m/s | -45.1°C | 2.3% | 13.2hPa | 2.7V | 00:00:00 | 01:51:49 | 00:00:00 | |
| DL1XH-15 | 2026-09-01 12:20:58 | 52.90036 | 10.80680 | 140° | 26km/h | 29507m | 4.9m/s | -45.2°C | 2.3% | 13.2hPa | 2.7V | 03:30:53 | 01:51:44 | 00:00:00 | |
| AA1-15 | 2026-09-01 12:20:57 | 52.90028 | 10.80701 | 101° | 16km/h | 29525m | 5.2m/s | -45.3°C | 0% | 13.2hPa | 2.6V | 03:31:16 | 01:51:47 | 00:00:00 | |
| DF8AY | 2026-09-01 12:20:55 | 52.90032 | 10.80687 | 129° | 24km/h | 29513m | 6.3m/s | -45.2°C | 0% | 13.3hPa | 2.6V | 03:31:16 | 01:51:45 | 00:00:00 | |
| DB0DAN | 2026-09-01 12:20:55 | 52.90032 | 10.80687 | 128° | 22km/h | 29513m | 6.3m/s | -45.2°C | 0.3% | 13.28hPa | 2.6V | 00:00:00 | 00:00:00 | 00:00:00 | |
| BIOWL1-15 | 2026-09-01 12:20:53 | 52.90049 | 10.80669 | 178° | 13km/h | 29490m | 6.9m/s | -45.3°C | 0% | 13.3hPa | 2.6V | 03:31:16 | 01:51:41 | 00:00:00 | |
| DL1XH-west | 2026-09-01 12:20:53 | 52.90046 | 10.80670 | 161° | 18km/h | 29496m | 6.2m/s | -45.3°C | 0% | 13.3hPa | 2.7V | 03:31:16 | 01:51:42 | 00:00:00 | |
| DL3AQ-11 | 2026-09-01 12:20:51 | 52.90052 | 10.80670 | 214° | 7km/h | 29483m | 6.2m/s | -45.3°C | 0.3% | 13.3hPa | 2.7V | 00:00:00 | 00:00:00 | 00:00:00 | |
| BIOWL9-15 | 2026-09-01 12:20:49 | 52.90054 | 10.80676 | 240° | 9km/h | 29472m | 4.7m/s | -45.5°C | 0.3% | 13.3hPa | 2.7V | 00:00:00 | 00:00:00 | 00:00:00 | |
| DL1XH-15 | 2026-09-01 12:20:48 | 52.90068 | 10.80678 | 151° | 26km/h | 29449m | 6.1m/s | -45.4°C | 2.4% | 13.4hPa | 2.7V | 03:31:03 | 01:51:34 | 00:00:00 | |
| AA1-15 | 2026-09-01 12:20:47 | 52.90056 | 10.80679 | 220° | 11km/h | 29467m | 5.8m/s | -45.4°C | 0% | 13.3hPa | 2.7V | 03:31:16 | 01:51:37 | 00:00:00 | |
| DF8AY | 2026-09-01 12:20:45 | 52.90063 | 10.80681 | 168° | 22km/h | 29455m | 6m/s | -45.4°C | 0% | 13.4hPa | 2.6V | 03:31:16 | 01:51:35 | 00:00:00 | |
| SP3WXH-11 | 2026-09-01 12:20:45 | 52.90069 | 10.80677 | 151° | 24km/h | 29449m | 6.1m/s | -45.4°C | 0.3% | 13.4hPa | 2.7V | 00:00:00 | 00:00:00 | 00:00:00 | |
| DL1XH-west | 2026-09-01 12:20:43 | 52.90079 | 10.80662 | 126° | 29km/h | 29435m | 7.1m/s | -45.5°C | 0% | 13.4hPa | 2.7V | 03:31:16 | 01:51:32 | 00:00:00 | |
| BIOWL1-15 | 2026-09-01 12:20:42 | 52.90086 | 10.80641 | 113° | 27km/h | 29424m | 4.9m/s | -45.5°C | 0% | 13.4hPa | 2.6V | 03:31:16 | 01:51:30 | 00:00:00 | |
| DB0DAN | 2026-09-01 12:20:40 | 52.90086 | 10.80641 | 113° | 27km/h | 29424m | 4.9m/s | -45.5°C | 0.3% | 13.45hPa | 2.6V | 00:00:00 | 00:00:00 | 00:00:00 | |
| DL1XH1-15 | 2026-09-01 12:20:39 | 52.90091 | 10.80622 | 123° | 22km/h | 29412m | 6.5m/s | -45.5°C | 2.4% | 13.5hPa | 2.6V | 03:31:09 | 01:51:28 | 00:00:00 | |
| DL4BBY-15 | 2026-09-01 12:20:38 | 52.90091 | 10.80622 | 124° | 15km/h | 29412m | 6.5m/s | -44.5°C | 0% | 0hPa | 2.6V | 00:00:00 | 00:00:00 | 00:00:00 | |
| DL1NUX | 2026-09-01 12:20:37 | 52.90100 | 10.80609 | 43° | 2km/h | 29387m | 7.8m/s | -45.5°C | 2.4% | 13.5hPa | 2.6V | 03:31:13 | 01:51:24 | 00:00:00 | |
| DF8AY | 2026-09-01 12:20:36 | 52.90099 | 10.80610 | 147° | 5km/h | 29394m | 6.7m/s | -45.5°C | 0% | 13.5hPa | 2.7V | 03:31:16 | 01:51:25 | 00:00:00 | |
| DF7ER-10 | 2026-09-01 12:20:34 | 52.90099 | 10.80610 | 148° | 5km/h | 29394m | 6.7m/s | -45.5°C | 0.3% | 13.5hPa | 2.6V | 03:31:00 | 00:00:00 | 00:00:00 | |
| DL1XH1-15 | 2026-09-01 12:20:33 | 52.90106 | 10.80598 | 131° | 22km/h | 29351m | 5.5m/s | -45.4°C | 2.4% | 13.6hPa | 2.6V | 03:31:19 | 01:51:18 | 00:00:00 | |
| BIOWL1-15 | 2026-09-01 12:20:32 | 52.90098 | 10.80609 | 39° | 2km/h | 29374m | 4.2m/s | -45.5°C | 0% | 13.6hPa | 2.7V | 03:31:16 | 01:51:22 | 00:00:00 | |
| DL1XH-west | 2026-09-01 12:20:32 | 52.90098 | 10.80608 | 138° | 4km/h | 29369m | 6.1m/s | -45.4°C | 0% | 13.6hPa | 2.7V | 03:31:16 | 01:51:21 | 00:00:00 | |
| DK1YY | 2026-09-01 12:20:31 | 52.90103 | 10.80603 | 144° | 16km/h | 29357m | 5.5m/s | 0°C | -1.0% | -1.0hPa | 2.6V | 00:00:00 | 00:00:00 | 00:00:00 | |
| AM1SDL-15 | 2026-09-01 12:20:30 | 52.90103 | 10.80603 | 145° | 26km/h | 29357m | 5.4m/s | -45.4°C | 2.4% | 13.5hPa | 2.6V | 00:00:00 | 01:51:19 | 00:00:00 | |
| DO2SHX-10 | 2026-09-01 12:20:29 | 52.90103 | 10.80603 | 145° | 20km/h | 29357m | 5.4m/s | -45.4°C | 2.4% | 13.5hPa | 2.7V | 00:00:00 | 01:51:19 | 00:00:00 | |
| DF8AY-15 | 2026-09-01 12:20:28 | 52.90106 | 10.80598 | 132° | 16km/h | 29351m | 5.5m/s | -45.3°C | 2.4% | 13.5hPa | 2.7V | 00:00:00 | 01:51:18 | 00:00:00 | |
| DL1NUX | 2026-09-01 12:20:27 | 52.90116 | 10.80560 | 104° | 26km/h | 29326m | 5.7m/s | -45.4°C | 2.4% | 13.7hPa | 2.7V | 03:31:23 | 01:51:14 | 00:00:00 | |
| AA1-15 | 2026-09-01 12:20:24 | 52.90116 | 10.80560 | 105° | 26km/h | 29326m | 5.7m/s | -45.4°C | 0% | 13.7hPa | 2.7V | 03:32:07 | 01:51:14 | 00:00:00 | |
| DL1XH-west | 2026-09-01 12:20:21 | 52.90121 | 10.80536 | 105° | 13km/h | 29309m | 4.7m/s | -45.4°C | 0% | 13.7hPa | 2.6V | 03:32:07 | 01:51:11 | 00:00:00 | |
| DB0UT-7 | 2026-09-01 12:20:21 | 52.90121 | 10.80536 | 106° | 18km/h | 29309m | 4.7m/s | -45.4°C | 2.3% | 13.7hPa | 2.6V | 00:00:00 | 00:00:00 | 00:00:00 | |
| DO2SHX-10 | 2026-09-01 12:20:20 | 52.90121 | 10.80532 | 81° | 9km/h | 29303m | 6.5m/s | -45.4°C | 2.3% | 13.7hPa | 2.7V | 03:31:00 | 01:51:10 | 00:00:00 | |
| SMARD9-10 | 2026-09-01 12:20:19 | 52.90121 | 10.80532 | 82° | 9km/h | 29303m | 6.6m/s | -45.4°C | 0.3% | 13.7hPa | 2.7V | 00:00:00 | 00:00:00 | 00:00:00 | |
| BIOWL9-15 | 2026-09-01 12:20:18 | 52.90116 | 10.80526 | 10° | 7km/h | 29284m | 4.9m/s | -45.5°C | 0.3% | 13.8hPa | 2.7V | 00:00:00 | 00:00:00 | 00:00:00 | |
| GOEST3-10 | 2026-09-01 12:20:17 | 52.90114 | 10.80526 | 17° | 11km/h | 29278m | 6.2m/s | -45.5°C | 2.4% | 13.7hPa | 2.7V | 00:00:00 | 01:51:06 | 00:00:00 | |
| TFSTFS | 2026-09-01 12:20:16 | 52.90114 | 10.80526 | 17° | 4km/h | 29278m | 6.3m/s | -45.6°C | 0.3% | 13.8hPa | 2.7V | 00:00:00 | 00:00:00 | 00:00:00 | |
| DL1XH-15 | 2026-09-01 12:20:15 | 52.90116 | 10.80523 | 142° | 11km/h | 29265m | 5.8m/s | -45.6°C | 2.4% | 13.8hPa | 2.7V | 03:31:33 | 01:51:04 | 00:00:00 | |
| BIOWL1-15 | 2026-09-01 12:20:14 | 52.90120 | 10.80488 | 80° | 22km/h | 29236m | 4.9m/s | -45.8°C | 0% | 13.8hPa | 2.6V | 03:32:07 | 01:50:59 | 00:00:00 | |
| AA1-15 | 2026-09-01 12:20:14 | 52.90118 | 10.80519 | 128° | 15km/h | 29260m | 4.9m/s | -45.6°C | 0% | 13.8hPa | 2.7V | 03:32:07 | 01:51:03 | 00:00:00 | |
| DM0DOS-11 | 2026-09-01 12:20:13 | 52.90120 | 10.80480 | 78° | 18km/h | 29230m | 6.9m/s | -45.9°C | 2.4% | 13.8hPa | 2.7V | 03:31:39 | 01:50:58 | 00:00:00 | |
| DL1XH-west | 2026-09-01 12:20:11 | 52.90121 | 10.80506 | 96° | 20km/h | 29248m | 6.8m/s | -45.7°C | 0% | 13.8hPa | 2.6V | 03:32:07 | 01:51:01 | 00:00:00 | |
| DB0DAN | 2026-09-01 12:20:10 | 52.90121 | 10.80497 | 85° | 22km/h | 29242m | 5.5m/s | -45.8°C | 0.3% | 13.82hPa | 2.6V | 00:00:00 | 00:00:00 | 00:00:00 | |
| DL4XJ-10 | 2026-09-01 12:20:10 | 52.90121 | 10.80497 | 86° | 22km/h | 29242m | 5.5m/s | -44.8°C | 0% | 0hPa | 2.6V | 00:00:00 | 00:00:00 | 00:00:00 | |
| DO2LYB-13 | 2026-09-01 12:20:09 | 52.90121 | 10.80497 | 86° | 22km/h | 29242m | 5.5m/s | -45.8°C | 0% | 0hPa | 2.6V | 00:00:00 | 00:00:00 | 00:00:00 | |
| DO2SHX-10 | 2026-09-01 12:20:08 | 52.90119 | 10.80480 | 79° | 15km/h | 29231m | 6.9m/s | -45.9°C | 2.4% | 13.8hPa | 2.6V | 03:31:00 | 01:50:58 | 00:00:00 | |
| DL1XH-15 | 2026-09-01 12:20:06 | 52.90114 | 10.80459 | 50° | 15km/h | 29206m | 7.1m/s | -46°C | 2.4% | 13.9hPa | 2.6V | 03:31:43 | 01:50:54 | 00:00:00 | |
| AA1-15 | 2026-09-01 12:20:02 | 52.90108 | 10.80448 | 56° | 20km/h | 29193m | 5.1m/s | -46.1°C | 0% | 13.9hPa | 2.7V | 03:32:07 | 01:50:52 | 00:00:00 | |
| DO2SHX-10 | 2026-09-01 12:20:02 | 52.90108 | 10.80447 | 57° | 20km/h | 29194m | 5.0m/s | -46.0°C | 2.4% | 13.9hPa | 2.6V | 00:00:00 | 01:50:52 | 00:00:00 | |
| DM0DOS-11 | 2026-09-01 12:20:01 | 52.90107 | 10.80416 | 110° | 24km/h | 29169m | 5.2m/s | -46.2°C | 2.5% | 14hPa | 2.6V | 03:31:49 | 01:50:48 | 00:00:00 | |
| DL1XH-west | 2026-09-01 12:20:01 | 52.90106 | 10.80440 | 71° | 20km/h | 29188m | 5.3m/s | -46.2°C | 0% | 14hPa | 2.7V | 03:32:07 | 01:50:51 | 00:00:00 | |
| BIOWL1-15 | 2026-09-01 12:20:00 | 52.90105 | 10.80433 | 85° | 18km/h | 29182m | 7.2m/s | -46.2°C | 0% | 14hPa | 2.7V | 03:32:07 | 01:50:50 | 00:00:00 | |
| DL1ZP-14 | 2026-09-01 12:20:00 | 52.90106 | 10.80424 | 102° | 20km/h | 29175m | 6.6m/s | -46.2°C | 0.3% | 14.0hPa | 2.6V | 00:00:00 | 00:00:00 | 00:00:00 | |
| DL3AQ-11 | 2026-09-01 12:19:59 | 52.90106 | 10.80424 | 102° | 20km/h | 29175m | 6.6m/s | -46.2°C | 0.3% | 14.0hPa | 2.7V | 00:00:00 | 00:00:00 | 00:00:00 | |
| S3001 | 2026-09-01 12:19:57 | 52.90110 | 10.80405 | 107° | 27km/h | 29164m | 5.3m/s | -46.2°C | 0.3% | 14.0hPa | 2.7V | 00:00:00 | 00:00:00 | 00:00:00 | |
| DO2SHX-10 | 2026-09-01 12:19:56 | 52.90111 | 10.80393 | 99° | 31km/h | 29159m | 6.3m/s | -46.2°C | 2.5% | 14.0hPa | 2.7V | 03:31:00 | 01:50:46 | 00:00:00 | |
| DL1XH-15 | 2026-09-01 12:19:55 | 52.90110 | 10.80368 | 69° | 31km/h | 29146m | 5.9m/s | -46.3°C | 2.5% | 14.1hPa | 2.7V | 03:31:53 | 01:50:44 | 00:00:00 | |
| DB0DAN | 2026-09-01 12:19:55 | 52.90111 | 10.80381 | 84° | 29km/h | 29152m | 6.4m/s | -46.3°C | 0.3% | 14.02hPa | 2.7V | 00:00:00 | 00:00:00 | 00:00:00 | |
| DF8AY | 2026-09-01 12:19:54 | 52.90106 | 10.80357 | 61° | 29km/h | 29140m | 5.5m/s | -46.3°C | 0% | 14.1hPa | 2.6V | 03:32:07 | 01:50:43 | 00:00:00 | |
| DL1XH-west | 2026-09-01 12:19:51 | 52.90099 | 10.80339 | 49° | 22km/h | 29128m | 6.4m/s | -46.3°C | 0% | 14.1hPa | 2.7V | 03:32:07 | 01:50:41 | 00:00:00 | |
| BIOWL1-15 | 2026-09-01 12:19:49 | 52.90087 | 10.80310 | 65° | 27km/h | 29104m | 7m/s | -46.3°C | 0% | 14.1hPa | 2.6V | 03:32:07 | 01:50:37 | 00:00:00 | |
| SP3BTT-10 | 2026-09-01 12:19:49 | 52.90092 | 10.80326 | 55° | 16km/h | 29116m | 5.5m/s | -46.3°C | 2.5% | 14.1hPa | 2.7V | 00:00:00 | 00:00:00 | 00:00:00 | |
| MECKS9 | 2026-09-01 12:19:48 | 52.90090 | 10.80319 | 63° | 22km/h | 29111m | 5.8m/s | -46.4°C | 0.3% | 14.1hPa | 2.6V | 00:00:00 | 00:00:00 | 00:00:00 | |
| DO2SHX-10 | 2026-09-01 12:19:47 | 52.90087 | 10.80310 | 65° | 31km/h | 29104m | 7.0m/s | -46.3°C | 2.5% | 14.1hPa | 2.6V | 00:00:00 | 01:50:37 | 00:00:00 | |
| GOEST3-10 | 2026-09-01 12:19:46 | 52.90084 | 10.80298 | 69° | 35km/h | 29097m | 6.2m/s | -46.3°C | 2.4% | 14.1hPa | 2.7V | 00:00:00 | 01:50:36 | 00:00:00 | |
| DL1XH-15 | 2026-09-01 12:19:45 | 52.90079 | 10.80270 | 75° | 37km/h | 29086m | 5.6m/s | -46.4°C | 2.4% | 14.2hPa | 2.7V | 03:32:03 | 01:50:34 | 00:00:00 | |
| DF8AY | 2026-09-01 12:19:43 | 52.90049 | 10.80184 | 30° | 31km/h | 29039m | 5.8m/s | -46.4°C | 0% | 14.3hPa | 2.7V | 03:32:58 | 01:50:26 | 00:00:00 | |
| DL1XH-west | 2026-09-01 12:19:41 | 52.90074 | 10.80232 | 73° | 27km/h | 29068m | 4.4m/s | -46.4°C | 0% | 14.2hPa | 2.6V | 03:32:07 | 01:50:31 | 00:00:00 | |
| AA1-15 | 2026-09-01 12:19:40 | 52.90071 | 10.80221 | 63° | 27km/h | 29062m | 5.2m/s | -46.3°C | 0% | 14.2hPa | 2.6V | 03:32:07 | 01:50:30 | 00:00:00 | |
| DB0DAN | 2026-09-01 12:19:40 | 52.90071 | 10.80221 | 63° | 26km/h | 29062m | 5.2m/s | -46.3°C | 0.3% | 14.25hPa | 2.6V | 00:00:00 | 00:00:00 | 00:00:00 | |
| BIOWL1-15 | 2026-09-01 12:19:39 | 52.90056 | 10.80192 | 36° | 35km/h | 29044m | 5.5m/s | -46.4°C | 0% | 14.3hPa | 2.7V | 03:32:58 | 01:50:27 | 00:00:00 | |
| DF8AY | 2026-09-01 12:19:34 | 52.90028 | 10.80163 | 44° | 22km/h | 29014m | 6.4m/s | -46.5°C | 0% | 14.3hPa | 2.7V | 03:32:58 | 01:50:22 | 00:00:00 | |
| DL1XH-west | 2026-09-01 12:19:32 | 52.90024 | 10.80155 | 52° | 26km/h | 29007m | 6.8m/s | -46.5°C | 0% | 14.3hPa | 2.7V | 03:32:58 | 01:50:21 | 00:00:00 | |
| AA1-15 | 2026-09-01 12:19:30 | 52.90015 | 10.80136 | 56° | 31km/h | 28995m | 5.1m/s | -46.5°C | 0% | 14.3hPa | 2.6V | 03:32:58 | 01:50:19 | 00:00:00 | |
| DL1XH1-15 | 2026-09-01 12:19:29 | 52.90011 | 10.80126 | 54° | 29km/h | 28989m | 6.1m/s | -46.5°C | 2.5% | 14.4hPa | 2.6V | 03:32:19 | 01:50:18 | 00:00:00 | |
| BIOWL1-15 | 2026-09-01 12:19:28 | 52.89968 | 10.80093 | 14° | 44km/h | 28954m | 5.6m/s | -46.7°C | 0% | 14.5hPa | 2.6V | 03:32:58 | 01:50:12 | 00:00:00 | |
| DL1CLM-18 | 2026-09-01 12:19:28 | 52.90011 | 10.80126 | 55° | 29km/h | 28990m | 6.1m/s | -46.5°C | 0.3% | 14.4hPa | 2.7V | 00:00:00 | 00:00:00 | 00:00:00 | |
| DL1NUX | 2026-09-01 12:19:27 | 52.89987 | 10.80101 | 16° | 35km/h | 28967m | 6.6m/s | -46.6°C | 2.5% | 14.4hPa | 2.7V | 03:32:23 | 01:50:14 | 00:00:00 | |
| AP2371 | 2026-09-01 12:19:26 | 52.90006 | 10.80117 | 47° | 26km/h | 28983m | 6.2m/s | -46.5°C | 0.3% | 14.4hPa | 2.7V | 03:32:00 | 00:00:00 | 00:00:00 | |
| DB0DAN | 2026-09-01 12:19:25 | 52.89995 | 10.80106 | 20° | 29km/h | 28973m | 4.7m/s | -46.5°C | 0.3% | 14.44hPa | 2.7V | 00:00:00 | 00:00:00 | 00:00:00 | |
| DF8AY | 2026-09-01 12:19:21 | 52.89926 | 10.80075 | 24° | 20km/h | 28919m | 6.6m/s | -46.9°C | 0% | 14.6hPa | 2.6V | 03:32:58 | 01:50:06 | 00:00:00 | |
| DL1XH-west | 2026-09-01 12:19:20 | 52.89948 | 10.80085 | 13° | 35km/h | 28943m | 6.3m/s | -46.8°C | 0% | 14.5hPa | 2.7V | 03:32:58 | 01:50:10 | 00:00:00 | |
| BIOWL1-15 | 2026-09-01 12:19:20 | 52.89930 | 10.80078 | 19° | 18km/h | 28924m | 5.2m/s | -46.9°C | 0% | 14.5hPa | 2.6V | 03:32:58 | 01:50:07 | 00:00:00 | |
| DO2SHX-10 | 2026-09-01 12:19:20 | 52.89948 | 10.80085 | 14° | 27km/h | 28944m | 6.2m/s | -46.8°C | 2.5% | 14.4hPa | 2.7V | 03:32:00 | 01:50:10 | 00:00:00 | |
| DL1XH1-15 | 2026-09-01 12:19:19 | 52.89935 | 10.80080 | 12° | 22km/h | 28930m | 5.8m/s | -46.9°C | 2.6% | 14.5hPa | 2.7V | 03:32:29 | 01:50:08 | 00:00:00 | |
| AA1-15 | 2026-09-01 12:19:18 | 52.89935 | 10.80080 | 13° | 22km/h | 28930m | 5.8m/s | -46.9°C | 0% | 14.5hPa | 2.7V | 03:32:58 | 01:50:08 | 00:00:00 | |
| SMARD9-10 | 2026-09-01 12:19:18 | 52.89940 | 10.80082 | 14° | 27km/h | 28937m | 7.1m/s | -46.9°C | 0.3% | 14.5hPa | 2.7V | 00:00:00 | 00:00:00 | 00:00:00 | |
| DO2SHX-10 | 2026-09-01 12:19:17 | 52.89930 | 10.80078 | 19° | 20km/h | 28925m | 5.1m/s | -46.8°C | 2.6% | 14.5hPa | 2.7V | 00:00:00 | 01:50:07 | 00:00:00 | |
| GOEST3-10 | 2026-09-01 12:19:16 | 52.89925 | 10.80075 | 24° | 27km/h | 28919m | 6.5m/s | -46.9°C | 2.6% | 14.5hPa | 2.7V | 00:00:00 | 01:50:06 | 00:00:00 | |
| DL1XH-15 | 2026-09-01 12:19:15 | 52.89915 | 10.80066 | 27° | 27km/h | 28906m | 5.3m/s | -46.8°C | 2.6% | 14.6hPa | 2.7V | 03:32:33 | 01:50:04 | 00:00:00 | |
| DF8AY | 2026-09-01 12:19:11 | 52.89892 | 10.80053 | 7° | 35km/h | 28890m | 6.3m/s | -46.8°C | 0% | 14.6hPa | 2.6V | 03:32:58 | 01:50:01 | 00:00:00 | |
| DL1XH-west | 2026-09-01 12:19:10 | 52.89884 | 10.80053 | 357° | 37km/h | 28883m | 6.2m/s | -46.7°C | 0% | 14.6hPa | 2.6V | 03:32:58 | 01:50:00 | 00:00:00 | |
| DM0DOS-11 | 2026-09-01 12:19:10 | 52.89863 | 10.80058 | 350° | 47km/h | 28872m | 5.7m/s | -46.8°C | 2.6% | 14.7hPa | 2.7V | 03:32:39 | 01:49:58 | 00:00:00 | |
| AA1-15 | 2026-09-01 12:19:08 | 52.89851 | 10.80061 | 352° | 51km/h | 28865m | 6.5m/s | -46.7°C | 0% | 14.7hPa | 2.7V | 03:32:58 | 01:49:57 | 00:00:00 | |
| GOEST3-10 | 2026-09-01 12:19:06 | 52.89837 | 10.80063 | 357° | 47km/h | 28859m | 6.8m/s | -46.7°C | 2.6% | 14.6hPa | 2.7V | 00:00:00 | 01:49:56 | 00:00:00 | |
| DF8AY | 2026-09-01 12:19:00 | 52.89677 | 10.80076 | 6° | 33km/h | 28750m | 5.5m/s | -46.2°C | 0% | 14.9hPa | 2.7V | 03:33:49 | 01:49:38 | 00:00:00 | |
| DL1XH-west | 2026-09-01 12:19:00 | 52.89778 | 10.80061 | 355° | 15km/h | 28822m | 6.6m/s | -46.6°C | 0% | 14.8hPa | 2.7V | 03:32:58 | 01:49:50 | 00:00:00 | |
| DL1XH1-15 | 2026-09-01 12:19:00 | 52.89771 | 10.80062 | 3° | 15km/h | 28810m | 6.4m/s | -46.4°C | 2.6% | 14.8hPa | 2.6V | 03:32:49 | 01:49:48 | 00:00:00 | |
| BIOWL1-15 | 2026-09-01 12:18:59 | 52.89657 | 10.80078 | 315° | 15km/h | 28724m | 5.9m/s | -46.1°C | 0% | 15hPa | 2.7V | 03:33:49 | 01:49:34 | 00:00:00 | |
| AA1-15 | 2026-09-01 12:18:57 | 52.89766 | 10.80061 | 5° | 22km/h | 28804m | 5.7m/s | -46.4°C | 0% | 14.8hPa | 2.6V | 03:32:58 | 01:49:47 | 00:00:00 | |
| DB0DAN | 2026-09-01 12:18:55 | 52.89751 | 10.80060 | 357° | 35km/h | 28793m | 5.8m/s | -46.4°C | 0.3% | 14.86hPa | 2.7V | 00:00:00 | 00:00:00 | 00:00:00 | |
| SO1NDE-10 | 2026-09-01 12:18:55 | 52.89751 | 10.80060 | 358° | 31km/h | 28793m | 5.7m/s | -46.3°C | 2.6% | 14.8hPa | 2.6V | 00:00:00 | 01:49:45 | 00:00:00 | |
| DB0NH | 2026-09-01 12:18:54 | 52.89741 | 10.80062 | 352° | 29km/h | 28787m | 6.7m/s | -46.2°C | 2.5% | 14.8hPa | 2.6V | 03:32:00 | 01:49:44 | 00:00:00 | |
| DO2SHX-10 | 2026-09-01 12:18:53 | 52.89730 | 10.80065 | 348° | 46km/h | 28780m | 7.1m/s | -46.2°C | 2.5% | 14.8hPa | 2.6V | 00:00:00 | 01:49:43 | 00:00:00 | |
| TFSTFS | 2026-09-01 12:18:52 | 52.89719 | 10.80070 | 347° | 46km/h | 28773m | 5.7m/s | -46.3°C | 0.3% | 14.9hPa | 2.7V | 00:00:00 | 00:00:00 | 00:00:00 | |
| DM0DOS-11 | 2026-09-01 12:18:51 | 52.89677 | 10.80076 | 6° | 33km/h | 28750m | 5.5m/s | -46.1°C | 2.4% | 14.9hPa | 2.7V | 03:32:59 | 01:49:38 | 00:00:00 | |
| DL1XH-west | 2026-09-01 12:18:49 | 52.89686 | 10.80077 | 1° | 40km/h | 28756m | 6.7m/s | -46.1°C | 0% | 14.9hPa | 2.7V | 03:32:58 | 01:49:39 | 00:00:00 | |
| AA1-15 | 2026-09-01 12:18:46 | 52.89664 | 10.80074 | 2° | 20km/h | 28738m | 7.5m/s | -46.2°C | 0% | 15hPa | 2.6V | 03:33:49 | 01:49:36 | 00:00:00 | |
| DF8AY | 2026-09-01 12:18:45 | 52.89660 | 10.80075 | 339° | 15km/h | 28731m | 7.4m/s | -46.2°C | 0% | 15hPa | 2.6V | 03:33:49 | 01:49:35 | 00:00:00 | |
| BIOWL9-15 | 2026-09-01 12:18:45 | 52.89657 | 10.80078 | 315° | 13km/h | 28724m | 5.9m/s | -46.1°C | 0.3% | 15.0hPa | 2.6V | 00:00:00 | 00:00:00 | 00:00:00 | |
| BIOWL1-15 | 2026-09-01 12:18:44 | 52.89578 | 10.80116 | 333° | 35km/h | 28658m | 6.2m/s | -46.3°C | 0% | 15.2hPa | 2.6V | 03:33:49 | 01:49:23 | 00:00:00 | |
| SMARD9-15 | 2026-09-01 12:18:42 | 52.89646 | 10.80091 | 340° | 22km/h | 28708m | 6.6m/s | -46.2°C | 0.3% | 15.0hPa | 2.7V | 00:00:00 | 00:00:00 | 00:00:00 | |
| SP3WXH-11 | 2026-09-01 12:18:41 | 52.89640 | 10.80093 | 353° | 27km/h | 28701m | 6.6m/s | -46.2°C | 0.3% | 15.1hPa | 2.7V | 00:00:00 | 00:00:00 | 00:00:00 | |
| DM0DOS-11 | 2026-09-01 12:18:40 | 52.89623 | 10.80094 | 358° | 38km/h | 28689m | 5.6m/s | -46.3°C | 2.5% | 15.1hPa | 2.7V | 03:33:09 | 01:49:28 | 00:00:00 | |
| DB0DAN | 2026-09-01 12:18:40 | 52.89640 | 10.80093 | 354° | 26km/h | 28701m | 6.6m/s | -46.2°C | 0.3% | 15.06hPa | 2.6V | 00:00:00 | 00:00:00 | 00:00:00 | |
| DL1XH-west | 2026-09-01 12:18:39 | 52.89623 | 10.80094 | 359° | 38km/h | 28689m | 5.6m/s | -46.3°C | 0% | 15.1hPa | 2.7V | 03:33:49 | 01:49:28 | 00:00:00 | |
| DL1NUX | 2026-09-01 12:18:38 | 52.89586 | 10.80110 | 333° | 37km/h | 28664m | 5.4m/s | -46.3°C | 2.5% | 15.1hPa | 2.6V | 03:33:13 | 01:49:24 | 00:00:00 | |
| AA1-15 | 2026-09-01 12:18:36 | 52.89604 | 10.80098 | 346° | 40km/h | 28676m | 6.6m/s | -46.4°C | 0% | 15.1hPa | 2.7V | 03:33:49 | 01:49:26 | 00:00:00 | |
| DF8AY | 2026-09-01 12:18:35 | 52.89595 | 10.80103 | 338° | 38km/h | 28670m | 6m/s | -46.4°C | 0% | 15.1hPa | 2.6V | 03:33:49 | 01:49:25 | 00:00:00 | |
| BIOWL1-15 | 2026-09-01 12:18:35 | 52.89559 | 10.80132 | 331° | 22km/h | 28640m | 5.4m/s | -46°C | 0% | 15.2hPa | 2.7V | 03:33:49 | 01:49:20 | 00:00:00 | |
| DO2SHX-10 | 2026-09-01 12:18:35 | 52.89595 | 10.80103 | 338° | 37km/h | 28670m | 6.0m/s | -46.4°C | 2.5% | 15.1hPa | 2.6V | 00:00:00 | 01:49:25 | 00:00:00 | |
| DL1CLM-18 | 2026-09-01 12:18:34 | 52.89586 | 10.80110 | 335° | 37km/h | 28665m | 5.4m/s | -46.3°C | 0.3% | 15.1hPa | 2.6V | 00:00:00 | 00:00:00 | 00:00:00 | |
| DL1XH1-15 | 2026-09-01 12:18:33 | 52.89551 | 10.80143 | 308° | 18km/h | 28627m | 7.2m/s | -45.9°C | 2.5% | 15.2hPa | 2.6V | 03:33:19 | 01:49:18 | 00:00:00 | |
| DL1XH-west | 2026-09-01 12:18:28 | 52.89551 | 10.80143 | 309° | 18km/h | 28627m | 7.2m/s | -45.9°C | 0% | 15.2hPa | 2.6V | 03:33:49 | 01:49:18 | 00:00:00 | |
| AA1-15 | 2026-09-01 12:18:26 | 52.89546 | 10.80156 | 305° | 18km/h | 28614m | 5.6m/s | -45.9°C | 0% | 15.3hPa | 2.7V | 03:33:49 | 01:49:16 | 00:00:00 | |
| DB0DAN | 2026-09-01 12:18:25 | 52.89543 | 10.80161 | 320° | 16km/h | 28608m | 6.4m/s | -45.9°C | 0.3% | 15.26hPa | 2.7V | 00:00:00 | 00:00:00 | 00:00:00 | |
| DL1XH-15 | 2026-09-01 12:18:25 | 52.89539 | 10.80165 | 337° | 20km/h | 28602m | 7.5m/s | -45.7°C | 2.4% | 15.3hPa | 2.7V | 03:33:23 | 01:49:14 | 00:00:00 | |
| DF8AY | 2026-09-01 12:18:24 | 52.89539 | 10.80165 | 338° | 20km/h | 28602m | 7.5m/s | -45.7°C | 0% | 15.3hPa | 2.7V | 03:33:49 | 01:49:14 | 00:00:00 | |
| DL3AQ-11 | 2026-09-01 12:18:24 | 52.89534 | 10.80167 | 348° | 22km/h | 28595m | 6.4m/s | -45.6°C | 0.3% | 15.3hPa | 2.7V | 00:00:00 | 00:00:00 | 00:00:00 | |
| DO2SHX-10 | 2026-09-01 12:18:23 | 52.89534 | 10.80167 | 349° | 22km/h | 28595m | 6.3m/s | -45.6°C | 2.4% | 15.3hPa | 2.7V | 00:00:00 | 01:49:13 | 00:00:00 | |
| BIOWL1-15 | 2026-09-01 12:18:22 | 52.89491 | 10.80255 | 267° | 15km/h | 28463m | 5.5m/s | -46°C | 0% | 15.6hPa | 2.7V | 03:33:49 | 01:48:53 | 00:00:00 | |
| DM0DOS-11 | 2026-09-01 12:18:22 | 52.89512 | 10.80190 | 292° | 16km/h | 28556m | 6.4m/s | -45.8°C | 2.4% | 15.4hPa | 2.6V | 03:33:30 | 01:49:07 | 00:00:00 | |
| DD8BA-10 | 2026-09-01 12:18:22 | 52.89528 | 10.80169 | 352° | 18km/h | 28589m | 5.1m/s | -45.6°C | 2.4% | 15.3hPa | 2.7V | 00:00:00 | 00:00:00 | 00:00:00 | |
| DO2SHX-10 | 2026-09-01 12:18:21 | 52.89518 | 10.80174 | 330° | 16km/h | 28577m | 7.2m/s | -45.6°C | 2.4% | 15.3hPa | 2.7V | 03:33:00 | 01:49:10 | 00:00:00 | |
| DG6HD-15 | 2026-09-01 12:18:20 | 52.89518 | 10.80174 | 331° | 16km/h | 28577m | 7.3m/s | -45.7°C | 0.3% | 15.3hPa | 2.7V | 03:33:00 | 00:00:00 | 00:00:00 | |
| DL1NUX | 2026-09-01 12:18:18 | 52.89506 | 10.80210 | 293° | 16km/h | 28536m | 4.9m/s | -45.9°C | 2.4% | 15.4hPa | 2.7V | 03:33:33 | 01:49:04 | 00:00:00 | |
| DL1XH-west | 2026-09-01 12:18:17 | 52.89512 | 10.80190 | 292° | 16km/h | 28556m | 6.4m/s | -45.8°C | 0% | 15.4hPa | 2.6V | 03:33:49 | 01:49:07 | 00:00:00 | |
| AA1-15 | 2026-09-01 12:18:16 | 52.89510 | 10.80197 | 295° | 18km/h | 28549m | 7.9m/s | -45.9°C | 0% | 15.4hPa | 2.6V | 03:33:49 | 01:49:06 | 00:00:00 | |
| BIOWL1-15 | 2026-09-01 12:18:13 | 52.89493 | 10.80276 | 265° | 18km/h | 28444m | 5.7m/s | -45.8°C | 0% | 15.7hPa | 2.7V | 03:33:49 | 01:48:50 | 00:00:00 | |
| DF8AY | 2026-09-01 12:18:13 | 52.89505 | 10.80216 | 280° | 16km/h | 28530m | 7m/s | -45.9°C | 0% | 15.5hPa | 2.7V | 03:33:49 | 01:49:03 | 00:00:00 | |
| DL1XH1-15 | 2026-09-01 12:18:13 | 52.89502 | 10.80240 | 336° | 13km/h | 28495m | 7.4m/s | -46°C | 2.4% | 15.5hPa | 2.7V | 03:33:39 | 01:48:58 | 00:00:00 | |
| DJ8HS-15 | 2026-09-01 12:18:13 | 52.89505 | 10.80216 | 280° | 15km/h | 28530m | 6.9m/s | -45.8°C | 2.5% | 15.4hPa | 2.6V | 03:33:00 | 01:49:03 | 00:00:00 | |
| DD8BA-10 | 2026-09-01 12:18:12 | 52.89505 | 10.80222 | 268° | 13km/h | 28523m | 8.2m/s | -45.8°C | 2.4% | 15.4hPa | 2.6V | 03:33:00 | 00:00:00 | 00:00:00 | |
| DB0DAN | 2026-09-01 12:18:10 | 52.89505 | 10.80233 | 278° | 11km/h | 28509m | 5.3m/s | -45.8°C | 0.3% | 15.49hPa | 2.6V | 00:00:00 | 00:00:00 | 00:00:00 | |
| DL1XH-west | 2026-09-01 12:18:06 | 52.89495 | 10.80243 | 337° | 13km/h | 28483m | 6.4m/s | -46°C | 0% | 15.6hPa | 2.7V | 03:33:49 | 01:48:56 | 00:00:00 | |
| AA1-15 | 2026-09-01 12:18:05 | 52.89493 | 10.80246 | 315° | 11km/h | 28476m | 7.2m/s | -46°C | 0% | 15.6hPa | 2.6V | 03:33:49 | 01:48:55 | 00:00:00 | |
| DL1XH-15 | 2026-09-01 12:18:05 | 52.89492 | 10.80250 | 281° | 11km/h | 28469m | 6.1m/s | -46°C | 2.4% | 15.6hPa | 2.6V | 03:33:43 | 01:48:54 | 00:00:00 | |
| DF8AY | 2026-09-01 12:18:02 | 52.89492 | 10.80261 | 264° | 16km/h | 28457m | 6.8m/s | -45.9°C | 0% | 15.6hPa | 2.7V | 03:33:49 | 01:48:52 | 00:00:00 | |
| DL1XH1-15 | 2026-09-01 12:18:02 | 52.89495 | 10.80292 | 250° | 22km/h | 28432m | 6.8m/s | -45.8°C | 2.4% | 15.7hPa | 2.6V | 03:33:49 | 01:48:48 | 00:00:00 | |
| DL3AQ-11 | 2026-09-01 12:18:00 | 52.89493 | 10.80284 | 258° | 20km/h | 28438m | 5.3m/s | -45.8°C | 0.3% | 15.7hPa | 2.6V | 00:00:00 | 00:00:00 | 00:00:00 | |
| DO2SHX-10 | 2026-09-01 12:17:59 | 52.89493 | 10.80284 | 259° | 22km/h | 28439m | 5.3m/s | -45.7°C | 2.4% | 15.6hPa | 2.6V | 00:00:00 | 01:48:49 | 00:00:00 | |
| DL1NUX | 2026-09-01 12:17:58 | 52.89506 | 10.80318 | 231° | 11km/h | 28406m | 7.2m/s | -46.1°C | 2.5% | 15.7hPa | 2.7V | 03:33:53 | 01:48:44 | 00:00:00 | |
| BIOWL1-15 | 2026-09-01 12:17:57 | 52.89497 | 10.80301 | 240° | 22km/h | 28425m | 7.1m/s | -45.9°C | 0% | 15.7hPa | 2.6V | 03:34:40 | 01:48:47 | 00:00:00 | |
| DL1XH-west | 2026-09-01 12:17:56 | 52.89500 | 10.80308 | 230° | 20km/h | 28419m | 5.9m/s | -45.9°C | 0% | 15.7hPa | 2.7V | 03:34:40 | 01:48:46 | 00:00:00 | |
| DL1ZP-14 | 2026-09-01 12:17:56 | 52.89504 | 10.80314 | 225° | 15km/h | 28413m | 5.8m/s | -46.0°C | 0.3% | 15.8hPa | 2.7V | 00:00:00 | 00:00:00 | 00:00:00 | |
| DB0DAN | 2026-09-01 12:17:55 | 52.89504 | 10.80314 | 226° | 16km/h | 28413m | 5.8m/s | -46°C | 0.3% | 15.76hPa | 2.7V | 00:00:00 | 00:00:00 | 00:00:00 | |
| AA1-15 | 2026-09-01 12:17:55 | 52.89504 | 10.80314 | 226° | 16km/h | 28413m | 5.8m/s | -46°C | 0% | 15.8hPa | 2.7V | 03:34:40 | 01:48:45 | 00:00:00 | |
| DF8AY | 2026-09-01 12:17:52 | 52.89506 | 10.80324 | 290° | 4km/h | 28388m | 4.4m/s | -46.1°C | 0% | 15.8hPa | 2.7V | 03:34:40 | 01:48:41 | 00:00:00 | |
| DL1XH-west | 2026-09-01 12:17:45 | 52.89526 | 10.80351 | 223° | 22km/h | 28352m | 6.6m/s | -46.1°C | 0% | 15.9hPa | 2.6V | 03:34:40 | 01:48:35 | 00:00:00 | |
| DL1XH-15 | 2026-09-01 12:17:45 | 52.89530 | 10.80357 | 231° | 18km/h | 28345m | 6.9m/s | -46.1°C | 2.5% | 15.9hPa | 2.7V | 03:34:03 | 01:48:34 | 00:00:00 | |
| AA1-15 | 2026-09-01 12:17:44 | 52.89532 | 10.80362 | 245° | 15km/h | 28339m | 6.3m/s | -46.1°C | 0% | 15.9hPa | 2.7V | 03:34:40 | 01:48:33 | 00:00:00 | |
| DF8AY | 2026-09-01 12:17:41 | 52.89534 | 10.80371 | 250° | 7km/h | 28328m | 5.4m/s | -46.3°C | 0% | 15.9hPa | 2.6V | 03:34:40 | 01:48:31 | 00:00:00 | |
| DO2SHX-10 | 2026-09-01 12:17:41 | 52.89534 | 10.80371 | 251° | 9km/h | 28328m | 5.3m/s | -46.2°C | 2.5% | 15.9hPa | 2.6V | 00:00:00 | 01:48:31 | 00:00:00 | |
| SMARD9-15 | 2026-09-01 12:17:40 | 52.89537 | 10.80376 | 207° | 13km/h | 28316m | 6.3m/s | -46.1°C | 0.3% | 16.0hPa | 2.7V | 00:00:00 | 00:00:00 | 00:00:00 | |
| DG6HD-15 | 2026-09-01 12:17:39 | 52.89537 | 10.80376 | 208° | 13km/h | 28316m | 6.3m/s | -46.1°C | 0.3% | 16.0hPa | 2.7V | 00:00:00 | 00:00:00 | 00:00:00 | |
| DM0DOS-11 | 2026-09-01 12:17:38 | 52.89546 | 10.80381 | 196° | 22km/h | 28303m | 6m/s | -46.1°C | 2.4% | 16hPa | 2.7V | 03:34:10 | 01:48:27 | 00:00:00 | |
| BIOWL1-15 | 2026-09-01 12:17:36 | 52.89572 | 10.80393 | 180° | 16km/h | 28267m | 7.1m/s | -46.2°C | 0% | 16.1hPa | 2.7V | 03:34:40 | 01:48:21 | 00:00:00 | |
| DL1XH-15 | 2026-09-01 12:17:35 | 52.89561 | 10.80389 | 201° | 16km/h | 28285m | 6.8m/s | -46.3°C | 2.4% | 16.1hPa | 2.6V | 03:34:13 | 01:48:24 | 00:00:00 | |
| DL1XH-west | 2026-09-01 12:17:34 | 52.89568 | 10.80393 | 191° | 15km/h | 28273m | 5.3m/s | -46.2°C | 0% | 16.1hPa | 2.7V | 03:34:40 | 01:48:22 | 00:00:00 | |
| DF8AY | 2026-09-01 12:17:31 | 52.89577 | 10.80392 | 171° | 20km/h | 28260m | 6.6m/s | -46.2°C | 0% | 16.1hPa | 2.7V | 03:34:40 | 01:48:20 | 00:00:00 | |
| SONDE2-11 | 2026-09-01 12:17:30 | 52.89582 | 10.80390 | 160° | 22km/h | 28254m | 5.6m/s | -46.1°C | 0.3% | 16.1hPa | 2.7V | 00:00:00 | 00:00:00 | 00:00:00 | |
| DL4XJ-10 | 2026-09-01 12:17:29 | 52.89582 | 10.80390 | 161° | 20km/h | 28255m | 5.5m/s | -45.2°C | 0% | 0hPa | 2.7V | 00:00:00 | 00:00:00 | 00:00:00 | |
| DF8AY-15 | 2026-09-01 12:17:28 | 52.89587 | 10.80386 | 151° | 20km/h | 28249m | 5.5m/s | -46.1°C | 2.5% | 16.1hPa | 2.7V | 00:00:00 | 01:48:18 | 00:00:00 | |
| EDDB2-11 | 2026-09-01 12:17:27 | 52.89594 | 10.80377 | 132° | 15km/h | 28235m | 6.7m/s | -46.2°C | 0.3% | 16.2hPa | 2.7V | 00:00:00 | 00:00:00 | 00:00:00 | |
| GOEST3-10 | 2026-09-01 12:17:26 | 52.89594 | 10.80377 | 133° | 18km/h | 28235m | 6.6m/s | -46.2°C | 2.4% | 16.1hPa | 2.7V | 00:00:00 | 01:48:16 | 00:00:00 | |
| DL1XH-15 | 2026-09-01 12:17:25 | 52.89600 | 10.80368 | 140° | 16km/h | 28223m | 6.4m/s | -46.4°C | 2.5% | 16.2hPa | 2.7V | 03:34:23 | 01:48:14 | 00:00:00 | |
| SONCRA | 2026-09-01 12:17:25 | 52.89600 | 10.80368 | 140° | 16km/h | 28223m | 6.4m/s | -46.4°C | 0.3% | 16.2hPa | 2.7V | 00:00:00 | 00:00:00 | 00:00:00 | |
| DL1XH1-15 | 2026-09-01 12:17:24 | 52.89631 | 10.80350 | 152° | 15km/h | 28179m | 5.2m/s | -46.4°C | 2.5% | 16.3hPa | 2.7V | 03:34:30 | 01:48:07 | 00:00:00 | |
| DL1XH-west | 2026-09-01 12:17:22 | 52.89608 | 10.80360 | 160° | 22km/h | 28210m | 6.1m/s | -46.5°C | 0% | 16.2hPa | 2.6V | 03:34:40 | 01:48:12 | 00:00:00 | |
| DF8AY | 2026-09-01 12:17:19 | 52.89639 | 10.80341 | 140° | 24km/h | 28167m | 6.9m/s | -46.5°C | 0% | 16.3hPa | 2.6V | 03:34:40 | 01:48:05 | 00:00:00 | |
| DG6HD-15 | 2026-09-01 12:17:19 | 52.89624 | 10.80354 | 171° | 16km/h | 28192m | 7.0m/s | -46.4°C | 0.3% | 16.3hPa | 2.6V | 00:00:00 | 00:00:00 | 00:00:00 | |
| DO2SHX-10 | 2026-09-01 12:17:18 | 52.89631 | 10.80350 | 153° | 18km/h | 28180m | 5.2m/s | -46.4°C | 2.5% | 16.3hPa | 2.6V | 00:00:00 | 01:48:07 | 00:00:00 | |
| MECKS9 | 2026-09-01 12:17:17 | 52.89635 | 10.80346 | 145° | 18km/h | 28174m | 6.4m/s | -46.4°C | 0.3% | 16.3hPa | 2.6V | 03:34:00 | 00:00:00 | 00:00:00 | |
| DO2SHX-10 | 2026-09-01 12:17:14 | 52.89643 | 10.80334 | 134° | 27km/h | 28161m | 6.1m/s | -46.4°C | 2.5% | 16.3hPa | 2.6V | 00:00:00 | 01:48:04 | 00:00:00 | |
| DJ8HS-15 | 2026-09-01 12:17:13 | 52.89648 | 10.80325 | 127° | 16km/h | 28155m | 5.5m/s | -46.5°C | 2.5% | 16.3hPa | 2.7V | 00:00:00 | 01:48:03 | 00:00:00 | |
| DL1XH1-15 | 2026-09-01 12:17:12 | 52.89661 | 10.80276 | 119° | 22km/h | 28125m | 6.9m/s | -46.4°C | 2.5% | 16.4hPa | 2.7V | 03:34:39 | 01:47:58 | 00:00:00 | |
| AA1-15 | 2026-09-01 12:17:12 | 52.89652 | 10.80315 | 117° | 29km/h | 28149m | 6.9m/s | -46.6°C | 0% | 16.4hPa | 2.7V | 03:34:40 | 01:48:02 | 00:00:00 | |
| DL1XH-west | 2026-09-01 12:17:12 | 52.89655 | 10.80304 | 107° | 26km/h | 28142m | 6.7m/s | -46.6°C | 0% | 16.4hPa | 2.7V | 03:34:40 | 01:48:01 | 00:00:00 | |
| BIOWL1-15 | 2026-09-01 12:17:11 | 52.89671 | 10.80252 | 89° | 7km/h | 28094m | 5.6m/s | -46.5°C | 0% | 16.5hPa | 2.6V | 03:35:31 | 01:47:53 | 00:00:00 | |
| DB0DAN | 2026-09-01 12:17:10 | 52.89657 | 10.80294 | 105° | 24km/h | 28136m | 4.7m/s | -46.6°C | 0.3% | 16.43hPa | 2.6V | 00:00:00 | 00:00:00 | 00:00:00 | |
| DF8AY | 2026-09-01 12:17:08 | 52.89667 | 10.80263 | 133° | 16km/h | 28114m | 5m/s | -46.4°C | 0% | 16.5hPa | 2.7V | 03:35:31 | 01:47:56 | 00:00:00 | |
| SP3WXH-11 | 2026-09-01 12:17:08 | 52.89664 | 10.80269 | 130° | 20km/h | 28119m | 6.0m/s | -46.4°C | 0.3% | 16.5hPa | 2.6V | 00:00:00 | 00:00:00 | 00:00:00 | |
| DL1XH-15 | 2026-09-01 12:17:06 | 52.89670 | 10.80255 | 109° | 7km/h | 28101m | 7.5m/s | -46.5°C | 2.5% | 16.5hPa | 2.6V | 03:34:43 | 01:47:54 | 00:00:00 | |
| AA1-15 | 2026-09-01 12:17:01 | 52.89671 | 10.80247 | 118° | 7km/h | 28083m | 7.2m/s | -46.5°C | 0% | 16.6hPa | 2.7V | 03:35:31 | 01:47:51 | 00:00:00 | |
| DL1XH-west | 2026-09-01 12:17:01 | 52.89673 | 10.80244 | 131° | 9km/h | 28076m | 6.1m/s | -46.4°C | 0% | 16.6hPa | 2.7V | 03:35:31 | 01:47:50 | 00:00:00 | |
| BIOWL1-15 | 2026-09-01 12:17:00 | 52.89675 | 10.80236 | 100° | 11km/h | 28065m | 6m/s | -46.5°C | 0% | 16.6hPa | 2.6V | 03:35:31 | 01:47:48 | 00:00:00 | |
| EDDB2-12 | 2026-09-01 12:17:00 | 52.89674 | 10.80240 | 118° | 9km/h | 28071m | 5.1m/s | -46.5°C | 0.3% | 16.6hPa | 2.6V | 00:00:00 | 00:00:00 | 00:00:00 | |
| DL1XH1-15 | 2026-09-01 12:16:59 | 52.89675 | 10.80236 | 99° | 11km/h | 28065m | 6m/s | -46.5°C | 2.5% | 16.6hPa | 2.6V | 03:34:49 | 01:47:48 | 00:00:00 | |
| DF8AY | 2026-09-01 12:16:56 | 52.89672 | 10.80218 | 69° | 18km/h | 28046m | 5.4m/s | -46.6°C | 0% | 16.7hPa | 2.7V | 03:35:31 | 01:47:45 | 00:00:00 | |
| DB0DAN | 2026-09-01 12:16:55 | 52.89672 | 10.80218 | 69° | 16km/h | 28046m | 5.4m/s | -46.6°C | 0.3% | 16.66hPa | 2.7V | 00:00:00 | 00:00:00 | 00:00:00 | |
| BUE01 | 2026-09-01 12:16:55 | 52.89671 | 10.80211 | 75° | 16km/h | 28039m | 7.2m/s | -46.5°C | 0.3% | 16.7hPa | 2.7V | 00:00:00 | 00:00:00 | 00:00:00 | |
| DL1ZP-14 | 2026-09-01 12:16:54 | 52.89670 | 10.80204 | 86° | 15km/h | 28033m | 6.2m/s | -46.5°C | 0.3% | 16.7hPa | 2.7V | 00:00:00 | 00:00:00 | 00:00:00 | |
| DL1XH1-15 | 2026-09-01 12:16:53 | 52.89664 | 10.80176 | 33° | 18km/h | 28005m | 6.2m/s | -46.4°C | 2.5% | 16.8hPa | 2.7V | 03:34:59 | 01:47:38 | 00:00:00 | |
| DL1XH-west | 2026-09-01 12:16:50 | 52.89667 | 10.80181 | 49° | 15km/h | 28011m | 6.8m/s | -46.5°C | 0% | 16.8hPa | 2.7V | 03:35:31 | 01:47:39 | 00:00:00 | |
| AA1-15 | 2026-09-01 12:16:50 | 52.89669 | 10.80186 | 66° | 13km/h | 28018m | 5.9m/s | -46.6°C | 0% | 16.8hPa | 2.6V | 03:35:31 | 01:47:40 | 00:00:00 | |
| BIOWL1-15 | 2026-09-01 12:16:48 | 52.89656 | 10.80169 | 32° | 16km/h | 27994m | 5.9m/s | -46.5°C | 0% | 16.8hPa | 2.7V | 03:35:31 | 01:47:36 | 00:00:00 | |
| DF8AY | 2026-09-01 12:16:46 | 52.89653 | 10.80165 | 39° | 13km/h | 27988m | 7m/s | -46.5°C | 0% | 16.8hPa | 2.6V | 03:35:31 | 01:47:35 | 00:00:00 | |
| DO2SHX-10 | 2026-09-01 12:16:44 | 52.89651 | 10.80162 | 51° | 9km/h | 27982m | 5.4m/s | -46.5°C | 2.5% | 16.8hPa | 2.7V | 03:35:00 | 01:47:34 | 00:00:00 | |
| DK7RCA | 2026-09-01 12:16:42 | 52.89648 | 10.80155 | 49° | 9km/h | 27971m | 6.0m/s | -46.5°C | 0.4% | 16.8hPa | 2.7V | 00:00:00 | 00:00:00 | 00:00:00 | |
| DB0DAN | 2026-09-01 12:16:40 | 52.89643 | 10.80150 | 24° | 15km/h | 27958m | 6.6m/s | -46.5°C | 0.4% | 16.89hPa | 2.7V | 00:00:00 | 00:00:00 | 00:00:00 | |
| DL1XH-west | 2026-09-01 12:16:40 | 52.89636 | 10.80146 | 9° | 15km/h | 27945m | 6.5m/s | -46.6°C | 0% | 17hPa | 2.6V | 03:35:31 | 01:47:28 | 00:00:00 | |
| AA1-15 | 2026-09-01 12:16:39 | 52.89639 | 10.80147 | 17° | 16km/h | 27952m | 6.2m/s | -46.6°C | 0% | 16.9hPa | 2.6V | 03:35:31 | 01:47:29 | 00:00:00 | |
| DL1XH1-15 | 2026-09-01 12:16:39 | 52.89635 | 10.80146 | 9° | 15km/h | 27945m | 6.5m/s | -46.6°C | 2.5% | 16.9hPa | 2.6V | 03:35:09 | 01:47:28 | 00:00:00 | |
| SMARD9-15 | 2026-09-01 12:16:38 | 52.89632 | 10.80145 | 6° | 13km/h | 27939m | 7.0m/s | -46.6°C | 0.3% | 16.9hPa | 2.7V | 00:00:00 | 00:00:00 | 00:00:00 | |
| DL1NUX | 2026-09-01 12:16:36 | 52.89623 | 10.80141 | 27° | 16km/h | 27924m | 5.9m/s | -46.7°C | 2.6% | 17hPa | 2.7V | 03:35:13 | 01:47:24 | 00:00:00 | |
| BIOWL1-15 | 2026-09-01 12:16:36 | 52.89629 | 10.80145 | 9° | 11km/h | 27932m | 5m/s | -46.6°C | 0% | 17hPa | 2.7V | 03:35:31 | 01:47:26 | 00:00:00 | |
| DF8AY | 2026-09-01 12:16:35 | 52.89626 | 10.80143 | 20° | 13km/h | 27929m | 3.1m/s | -46.6°C | 0% | 17hPa | 2.7V | 03:35:31 | 01:47:25 | 00:00:00 | |
| DO2SHX-10 | 2026-09-01 12:16:35 | 52.89626 | 10.80143 | 20° | 16km/h | 27929m | 3.0m/s | -46.6°C | 2.6% | 16.9hPa | 2.7V | 00:00:00 | 01:47:25 | 00:00:00 | |
| DL1XH1-15 | 2026-09-01 12:16:34 | 52.89598 | 10.80110 | 24° | 16km/h | 27881m | 5.8m/s | -46.5°C | 2.5% | 17.1hPa | 2.7V | 03:35:20 | 01:47:17 | 00:00:00 | |
| AA1-15 | 2026-09-01 12:16:30 | 52.89601 | 10.80113 | 37° | 15km/h | 27886m | 4.9m/s | -46.4°C | 0% | 17.1hPa | 2.7V | 03:35:31 | 01:47:18 | 00:00:00 | |
| DL1XH-west | 2026-09-01 12:16:29 | 52.89604 | 10.80117 | 45° | 15km/h | 27892m | 6.4m/s | -46.4°C | 0% | 17.1hPa | 2.7V | 03:35:31 | 01:47:19 | 00:00:00 | |
| DO2SHX-10 | 2026-09-01 12:16:29 | 52.89604 | 10.80117 | 46° | 15km/h | 27892m | 6.4m/s | -46.4°C | 2.5% | 17.0hPa | 2.7V | 00:00:00 | 01:47:19 | 00:00:00 | |
| DM0DOS-11 | 2026-09-01 12:16:28 | 52.89588 | 10.80105 | 7° | 24km/h | 27868m | 5.4m/s | -46.5°C | 2.5% | 17.1hPa | 2.6V | 03:35:22 | 01:47:15 | 00:00:00 | |
| DF8AY-15 | 2026-09-01 12:16:28 | 52.89601 | 10.80113 | 37° | 20km/h | 27886m | 4.8m/s | -46.4°C | 2.5% | 17.0hPa | 2.7V | 00:00:00 | 01:47:18 | 00:00:00 | |
| DL1XH-15 | 2026-09-01 12:16:27 | 52.89570 | 10.80104 | 356° | 20km/h | 27851m | 6.8m/s | -46.2°C | 2.5% | 17.2hPa | 2.7V | 03:35:25 | 01:47:12 | 00:00:00 | |
| BIOWL1-15 | 2026-09-01 12:16:26 | 52.89594 | 10.80107 | 18° | 20km/h | 27875m | 6.8m/s | -46.5°C | 0% | 17.1hPa | 2.6V | 03:35:31 | 01:47:16 | 00:00:00 | |
| DF8AY | 2026-09-01 12:16:25 | 52.89582 | 10.80104 | 3° | 26km/h | 27863m | 5.4m/s | -46.3°C | 0% | 17.1hPa | 2.6V | 03:35:31 | 01:47:14 | 00:00:00 | |
| DB0DAN | 2026-09-01 12:16:25 | 52.89588 | 10.80105 | 8° | 24km/h | 27868m | 5.4m/s | -46.5°C | 0.3% | 17.13hPa | 2.6V | 00:00:00 | 00:00:00 | 00:00:00 | |
| EDDB2-11 | 2026-09-01 12:16:24 | 52.89582 | 10.80104 | 2° | 26km/h | 27863m | 5.4m/s | -46.3°C | 0.3% | 17.1hPa | 2.7V | 00:00:00 | 00:00:00 | 00:00:00 | |
| DO2SHX-10 | 2026-09-01 12:16:23 | 52.89575 | 10.80104 | 360° | 20km/h | 27858m | 6.0m/s | -46.2°C | 2.5% | 17.1hPa | 2.7V | 00:00:00 | 01:47:13 | 00:00:00 | |
| DL1XH1-15 | 2026-09-01 12:16:22 | 52.89541 | 10.80097 | 20° | 26km/h | 27815m | 5.5m/s | -46.2°C | 2.4% | 17.3hPa | 2.7V | 03:35:31 | 01:47:06 | 00:00:00 | |
| DL1XH-west | 2026-09-01 12:16:20 | 52.89557 | 10.80104 | 7° | 16km/h | 27834m | 6m/s | -46.3°C | 0% | 17.2hPa | 2.6V | 03:35:31 | 01:47:09 | 00:00:00 | |
| AA1-15 | 2026-09-01 12:16:17 | 52.89547 | 10.80100 | 19° | 24km/h | 27821m | 5.8m/s | -46.3°C | 0% | 17.2hPa | 2.7V | 03:35:31 | 01:47:07 | 00:00:00 | |
| DM0DOS-11 | 2026-09-01 12:16:17 | 52.89535 | 10.80093 | 19° | 26km/h | 27810m | 4.7m/s | -46.2°C | 2.5% | 17.3hPa | 2.7V | 03:35:32 | 01:47:05 | 00:00:00 | |
| BIOWL1-15 | 2026-09-01 12:16:15 | 52.89529 | 10.80090 | 13° | 22km/h | 27805m | 4.9m/s | -46.3°C | 0% | 17.3hPa | 2.6V | 03:36:22 | 01:47:04 | 00:00:00 | |
| DF8AY | 2026-09-01 12:16:15 | 52.89535 | 10.80093 | 20° | 26km/h | 27810m | 4.7m/s | -46.2°C | 0% | 17.3hPa | 2.7V | 03:36:22 | 01:47:05 | 00:00:00 | |
| DO2SHX-10 | 2026-09-01 12:16:14 | 52.89529 | 10.80090 | 13° | 18km/h | 27806m | 4.9m/s | -46.2°C | 2.4% | 17.2hPa | 2.7V | 00:00:00 | 01:47:04 | 00:00:00 | |
| DJ8HS-15 | 2026-09-01 12:16:13 | 52.89524 | 10.80089 | 4° | 22km/h | 27800m | 6.6m/s | -46.3°C | 2.5% | 17.2hPa | 2.7V | 00:00:00 | 01:47:03 | 00:00:00 | |
| NBG1-10 | 2026-09-01 12:16:12 | 52.89520 | 10.80090 | 349° | 18km/h | 27793m | 7.0m/s | -46.3°C | 2.5% | 17.3hPa | 2.7V | 00:00:00 | 01:47:02 | 00:00:00 | |
| DL3AQ-11 | 2026-09-01 12:16:11 | 52.89511 | 10.80094 | 345° | 20km/h | 27782m | 5.8m/s | -46.5°C | 0.3% | 17.4hPa | 2.7V | 00:00:00 | 00:00:00 | 00:00:00 | |
| DM0DOS-11 | 2026-09-01 12:16:10 | 52.89469 | 10.80119 | 334° | 24km/h | 27740m | 5.5m/s | -46.8°C | 2.6% | 17.4hPa | 2.7V | 03:35:44 | 01:46:53 | 00:00:00 | |
| DB0DAN | 2026-09-01 12:16:10 | 52.89511 | 10.80094 | 346° | 20km/h | 27782m | 5.8m/s | -46.5°C | 0.3% | 17.35hPa | 2.7V | 00:00:00 | 00:00:00 | 00:00:00 | |
| DL1XH1-15 | 2026-09-01 12:16:09 | 52.89492 | 10.80100 | 344° | 27km/h | 27764m | 4.6m/s | -46.5°C | 2.5% | 17.4hPa | 2.6V | 03:35:40 | 01:46:57 | 00:00:00 | |
| DL4XJ-10 | 2026-09-01 12:16:09 | 52.89505 | 10.80095 | 350° | 22km/h | 27775m | 7.5m/s | -45.6°C | 0% | 0hPa | 2.7V | 00:00:00 | 00:00:00 | 00:00:00 | |
| DL1NUX | 2026-09-01 12:16:08 | 52.89474 | 10.80114 | 329° | 26km/h | 27745m | 4.4m/s | -46.7°C | 2.5% | 17.5hPa | 2.7V | 03:35:43 | 01:46:54 | 00:00:00 | |
| DL1XH-west | 2026-09-01 12:16:08 | 52.89499 | 10.80097 | 350° | 27km/h | 27769m | 5m/s | -46.6°C | 0% | 17.4hPa | 2.7V | 03:36:22 | 01:46:58 | 00:00:00 | |
| AA1-15 | 2026-09-01 12:16:06 | 52.89474 | 10.80114 | 329° | 26km/h | 27745m | 4.4m/s | -46.7°C | 0% | 17.5hPa | 2.7V | 03:36:22 | 01:46:54 | 00:00:00 | |
| DF8AY | 2026-09-01 12:16:06 | 52.89480 | 10.80108 | 330° | 27km/h | 27751m | 7m/s | -46.6°C | 0% | 17.4hPa | 2.6V | 03:36:22 | 01:46:55 | 00:00:00 | |
| BIOWL1-15 | 2026-09-01 12:16:05 | 52.89444 | 10.80128 | 338° | 16km/h | 27709m | 6.4m/s | -46.7°C | 0% | 17.6hPa | 2.6V | 03:36:22 | 01:46:48 | 00:00:00 | |
| DL1XH-15 | 2026-09-01 12:16:05 | 52.89463 | 10.80122 | 344° | 24km/h | 27733m | 7.8m/s | -46.8°C | 2.6% | 17.4hPa | 2.7V | 03:35:45 | 01:46:52 | 00:00:00 | |
| DO2SHX-10 | 2026-09-01 12:16:05 | 52.89480 | 10.80108 | 330° | 26km/h | 27751m | 6.9m/s | -46.6°C | 2.5% | 17.4hPa | 2.7V | 00:00:00 | 01:46:55 | 00:00:00 | |
| DL1XH1-15 | 2026-09-01 12:16:04 | 52.89436 | 10.80134 | 338° | 18km/h | 27697m | 6.2m/s | -46.8°C | 2.6% | 17.6hPa | 2.7V | 03:35:51 | 01:46:46 | 00:00:00 | |
| DL1XH-west | 2026-09-01 12:15:58 | 52.89436 | 10.80134 | 339° | 18km/h | 27698m | 6.2m/s | -46.8°C | 0% | 17.6hPa | 2.7V | 03:36:22 | 01:46:46 | 00:00:00 | |
| DL1XH-15 | 2026-09-01 12:15:58 | 52.89416 | 10.80144 | 336° | 18km/h | 27674m | 6m/s | -46.7°C | 2.6% | 17.7hPa | 2.7V | 03:35:55 | 01:46:42 | 00:00:00 | |
| DM0DOS-11 | 2026-09-01 12:15:57 | 52.89431 | 10.80136 | 343° | 20km/h | 27691m | 7.3m/s | -46.7°C | 2.5% | 17.6hPa | 2.7V | 03:35:52 | 01:46:45 | 00:00:00 | |
| DL1NUX | 2026-09-01 12:15:57 | 52.89426 | 10.80139 | 347° | 22km/h | 27685m | 5.2m/s | -46.6°C | 2.5% | 17.6hPa | 2.6V | 03:35:53 | 01:46:44 | 00:00:00 | |
| DF8AY | 2026-09-01 12:15:56 | 52.89431 | 10.80136 | 344° | 20km/h | 27691m | 7.3m/s | -46.7°C | 0% | 17.6hPa | 2.7V | 03:36:22 | 01:46:45 | 00:00:00 | |
| HTAHTA | 2026-09-01 12:15:56 | 52.89431 | 10.80136 | 343° | 20km/h | 27691m | 7.3m/s | -46.7°C | 0.3% | 17.6hPa | 2.7V | 00:00:00 | 00:00:00 | 00:00:00 | |
| DB0DAN | 2026-09-01 12:15:55 | 52.89431 | 10.80136 | 344° | 20km/h | 27691m | 7.3m/s | -46.7°C | 0.3% | 17.6hPa | 2.7V | 00:00:00 | 00:00:00 | 00:00:00 | |
| EDDB2-11 | 2026-09-01 12:15:53 | 52.89421 | 10.80141 | 344° | 20km/h | 27680m | 4.6m/s | -46.7°C | 0.3% | 17.6hPa | 2.7V | 00:00:00 | 00:00:00 | 00:00:00 | |
| SONCRA | 2026-09-01 12:15:52 | 52.89412 | 10.80147 | 324° | 13km/h | 27668m | 6.9m/s | -46.6°C | 0.3% | 17.7hPa | 2.7V | 00:00:00 | 00:00:00 | 00:00:00 | |
| DD8BA-10 | 2026-09-01 12:15:51 | 52.89412 | 10.80147 | 325° | 13km/h | 27668m | 6.9m/s | -46.6°C | 2.6% | 17.6hPa | 2.7V | 00:00:00 | 00:00:00 | 00:00:00 | |
| DM0DOS-11 | 2026-09-01 12:15:50 | 52.89400 | 10.80142 | 13° | 18km/h | 27630m | 5.4m/s | -46.5°C | 2.5% | 17.7hPa | 2.7V | 03:36:03 | 01:46:34 | 00:00:00 | |
| DL1XH1-15 | 2026-09-01 12:15:50 | 52.89407 | 10.80148 | 43° | 13km/h | 27640m | 5.7m/s | -46.4°C | 2.5% | 17.7hPa | 2.6V | 03:36:01 | 01:46:36 | 00:00:00 | |
| DF8AY | 2026-09-01 12:15:50 | 52.89400 | 10.80142 | 14° | 18km/h | 27630m | 5.4m/s | -46.5°C | 0% | 17.7hPa | 2.7V | 03:36:22 | 01:46:34 | 00:00:00 | |
| DL1NUX | 2026-09-01 12:15:49 | 52.89400 | 10.80142 | 13° | 18km/h | 27630m | 5.4m/s | -46.5°C | 2.5% | 17.7hPa | 2.7V | 03:36:03 | 01:46:34 | 00:00:00 | |
| AA1-15 | 2026-09-01 12:15:45 | 52.89404 | 10.80144 | 28° | 16km/h | 27635m | 5.4m/s | -46.4°C | 0% | 17.8hPa | 2.7V | 03:36:22 | 01:46:35 | 00:00:00 | |
| DL1XH-15 | 2026-09-01 12:15:45 | 52.89391 | 10.80142 | 343° | 18km/h | 27619m | 5.6m/s | -46.5°C | 2.5% | 17.8hPa | 2.7V | 03:36:05 | 01:46:32 | 00:00:00 | |
| DL3AQ-11 | 2026-09-01 12:15:44 | 52.89396 | 10.80141 | 358° | 18km/h | 27624m | 5.8m/s | -46.6°C | 0.3% | 17.8hPa | 2.6V | 00:00:00 | 00:00:00 | 00:00:00 | |
| MECKS9 | 2026-09-01 12:15:42 | 52.89395 | 10.80141 | 360° | 20km/h | 27624m | 5.8m/s | -46.6°C | 0.3% | 17.8hPa | 2.6V | 00:00:00 | 00:00:00 | 00:00:00 | |
| DO2SHX-10 | 2026-09-01 12:15:41 | 52.89387 | 10.80144 | 331° | 11km/h | 27613m | 5.3m/s | -46.4°C | 2.5% | 17.8hPa | 2.6V | 00:00:00 | 01:46:31 | 00:00:00 | |
| DL1LOL-11 | 2026-09-01 12:15:40 | 52.89387 | 10.80144 | 332° | 15km/h | 27613m | 5.4m/s | -46.4°C | 0.4% | 17.8hPa | 2.6V | 00:00:00 | 00:00:00 | 00:00:00 | |
| NBG1-10 | 2026-09-01 12:15:39 | 52.89382 | 10.80149 | 340° | 13km/h | 27602m | 5.3m/s | -46.2°C | 2.4% | 17.8hPa | 2.6V | 00:00:00 | 01:46:29 | 00:00:00 | |
| DM0DOS-11 | 2026-09-01 12:15:38 | 52.89374 | 10.80140 | 23° | 9km/h | 27573m | 5.5m/s | -46.5°C | 2.5% | 17.9hPa | 2.6V | 03:36:13 | 01:46:24 | 00:00:00 | |
| DO2SHX-10 | 2026-09-01 12:15:38 | 52.89381 | 10.80149 | 26° | 7km/h | 27597m | 5.3m/s | -46.2°C | 2.5% | 17.8hPa | 2.6V | 00:00:00 | 01:46:28 | 00:00:00 | |
| DL1XH-15 | 2026-09-01 12:15:37 | 52.89371 | 10.80138 | 48° | 4km/h | 27562m | 6.3m/s | -46.4°C | 2.5% | 17.9hPa | 2.6V | 03:36:15 | 01:46:22 | 00:00:00 | |
| DL1XH1-15 | 2026-09-01 12:15:37 | 52.89378 | 10.80145 | 46° | 9km/h | 27585m | 6.1m/s | -46.4°C | 2.5% | 17.9hPa | 2.7V | 03:36:11 | 01:46:26 | 00:00:00 | |
| DL1XH-west | 2026-09-01 12:15:36 | 52.89376 | 10.80142 | 31° | 11km/h | 27579m | 5.9m/s | -46.5°C | 0% | 17.9hPa | 2.7V | 03:36:22 | 01:46:25 | 00:00:00 | |
| AA1-15 | 2026-09-01 12:15:35 | 52.89371 | 10.80136 | 101° | 5km/h | 27555m | 6.4m/s | -46.5°C | 0% | 18hPa | 2.7V | 03:36:22 | 01:46:21 | 00:00:00 | |
| AM1SDL-15 | 2026-09-01 12:15:34 | 52.89374 | 10.80140 | 24° | 11km/h | 27574m | 5.5m/s | -46.5°C | 2.5% | 17.9hPa | 2.6V | 03:36:00 | 01:46:24 | 00:00:00 | |
| DF8AY | 2026-09-01 12:15:34 | 52.89374 | 10.80140 | 24° | 9km/h | 27573m | 5.5m/s | -46.5°C | 0% | 17.9hPa | 2.6V | 03:36:22 | 01:46:24 | 00:00:00 | |
| DO9LL-15 | 2026-09-01 12:15:33 | 52.89371 | 10.80138 | 49° | 15km/h | 27562m | 6.2m/s | -46.4°C | 2.5% | 17.9hPa | 2.6V | 03:36:00 | 01:46:22 | 00:00:00 | |
| DL1XH1-15 | 2026-09-01 12:15:32 | 52.89367 | 10.80109 | 24° | 16km/h | 27523m | 5m/s | -46.8°C | 2.5% | 18hPa | 2.6V | 03:36:22 | 01:46:15 | 00:00:00 | |
| DL4BBY-15 | 2026-09-01 12:15:31 | 52.89373 | 10.80128 | 105° | 18km/h | 27544m | 5.1m/s | -45.7°C | 0% | 0hPa | 2.7V | 00:00:00 | 00:00:00 | 00:00:00 | |
| DF8AY-15 | 2026-09-01 12:15:28 | 52.89373 | 10.80123 | 89° | 15km/h | 27539m | 5.0m/s | -46.6°C | 2.5% | 18.0hPa | 2.7V | 00:00:00 | 01:46:18 | 00:00:00 | |
| DM0DOS-11 | 2026-09-01 12:15:26 | 52.89363 | 10.80107 | 11° | 13km/h | 27518m | 4.8m/s | -46.6°C | 2.5% | 18.1hPa | 2.7V | 03:36:23 | 01:46:14 | 00:00:00 | |
| DO2SHX-10 | 2026-09-01 12:15:26 | 52.89370 | 10.80112 | 42° | 15km/h | 27528m | 5.5m/s | -46.7°C | 2.5% | 18.0hPa | 2.6V | 00:00:00 | 01:46:16 | 00:00:00 | |
| DL1XH-west | 2026-09-01 12:15:26 | 52.89366 | 10.80109 | 25° | 16km/h | 27523m | 5m/s | -46.8°C | 0% | 18.1hPa | 2.6V | 03:36:22 | 01:46:15 | 00:00:00 | |
| SO1NDE-10 | 2026-09-01 12:15:25 | 52.89366 | 10.80108 | 25° | 16km/h | 27523m | 4.9m/s | -46.7°C | 2.5% | 18.0hPa | 2.6V | 00:00:00 | 01:46:15 | 00:00:00 | |
| DL1XH-15 | 2026-09-01 12:15:24 | 52.89359 | 10.80107 | 270° | 2km/h | 27506m | 6.1m/s | -46.6°C | 2.5% | 18.1hPa | 2.7V | 03:36:25 | 01:46:12 | 00:00:00 | |
| DF8AY | 2026-09-01 12:15:24 | 52.89360 | 10.80106 | 357° | 7km/h | 27512m | 6.6m/s | -46.6°C | 0% | 18.1hPa | 2.7V | 03:37:13 | 01:46:13 | 00:00:00 | |
| AA1-15 | 2026-09-01 12:15:23 | 52.89360 | 10.80107 | 178° | 7km/h | 27500m | 5.4m/s | -46.6°C | 0% | 18.1hPa | 2.7V | 03:37:13 | 01:46:11 | 00:00:00 | |
| DO2SHX-10 | 2026-09-01 12:15:23 | 52.89360 | 10.80106 | 358° | 5km/h | 27512m | 6.6m/s | -46.6°C | 2.5% | 18.0hPa | 2.7V | 00:00:00 | 01:46:13 | 00:00:00 | |
| SONCRA | 2026-09-01 12:15:22 | 52.89363 | 10.80106 | 160° | 11km/h | 27495m | 5.3m/s | -46.5°C | 0.3% | 18.1hPa | 2.7V | 00:00:00 | 00:00:00 | 00:00:00 | |
| DL3AQ-11 | 2026-09-01 12:15:21 | 52.89366 | 10.80103 | 141° | 15km/h | 27490m | 6.2m/s | -46.5°C | 0.3% | 18.2hPa | 2.7V | 00:00:00 | 00:00:00 | 00:00:00 | |
| DL1XH1-15 | 2026-09-01 12:15:20 | 52.89377 | 10.80072 | 117° | 24km/h | 27466m | 6.5m/s | -46.5°C | 2.5% | 18.2hPa | 2.7V | 03:36:32 | 01:46:05 | 00:00:00 | |
| DF7ER-10 | 2026-09-01 12:15:20 | 52.89369 | 10.80097 | 127° | 20km/h | 27484m | 6.0m/s | -46.5°C | 0.3% | 18.2hPa | 2.6V | 03:37:00 | 00:00:00 | 00:00:00 | |
| DL1XH-15 | 2026-09-01 12:15:19 | 52.89384 | 10.80050 | 106° | 15km/h | 27449m | 5.2m/s | -46.8°C | 2.5% | 18.3hPa | 2.6V | 03:36:35 | 01:46:02 | 00:00:00 | |
| DL1NUX | 2026-09-01 12:15:18 | 52.89380 | 10.80064 | 120° | 22km/h | 27460m | 6m/s | -46.6°C | 2.5% | 18.3hPa | 2.7V | 03:36:33 | 01:46:04 | 00:00:00 | |
| DL1XH-west | 2026-09-01 12:15:16 | 52.89377 | 10.80072 | 117° | 24km/h | 27466m | 6.6m/s | -46.5°C | 0% | 18.2hPa | 2.7V | 03:37:13 | 01:46:05 | 00:00:00 | |
| BIOWL1-15 | 2026-09-01 12:15:15 | 52.89382 | 10.80032 | 71° | 15km/h | 27432m | 4.2m/s | -47.1°C | 0% | 18.3hPa | 2.7V | 03:37:13 | 01:45:59 | 00:00:00 | |
| AA1-15 | 2026-09-01 12:15:13 | 52.89382 | 10.80056 | 118° | 18km/h | 27455m | 5.3m/s | -46.7°C | 0% | 18.2hPa | 2.6V | 03:37:13 | 01:46:03 | 00:00:00 | |
| DF8AY | 2026-09-01 12:15:12 | 52.89385 | 10.80044 | 85° | 15km/h | 27443m | 6.9m/s | -47°C | 0% | 18.3hPa | 2.6V | 03:37:13 | 01:46:01 | 00:00:00 | |
| DB0DAN | 2026-09-01 12:15:10 | 52.89384 | 10.80038 | 69° | 15km/h | 27437m | 5.7m/s | -47.1°C | 0.4% | 18.31hPa | 2.7V | 00:00:00 | 00:00:00 | 00:00:00 | |
| DL4XJ-10 | 2026-09-01 12:15:09 | 52.89382 | 10.80032 | 71° | 18km/h | 27431m | 4.1m/s | -46.1°C | 0% | 0hPa | 2.7V | 00:00:00 | 00:00:00 | 00:00:00 | |
| DF8AY-15 | 2026-09-01 12:15:08 | 52.89382 | 10.80026 | 88° | 20km/h | 27427m | 5.1m/s | -47.0°C | 2.5% | 18.3hPa | 2.7V | 00:00:00 | 01:45:58 | 00:00:00 | |
| DM0DOS-11 | 2026-09-01 12:15:07 | 52.89391 | 10.79997 | 120° | 22km/h | 27403m | 6.1m/s | -46.9°C | 2.6% | 18.4hPa | 2.7V | 03:36:43 | 01:45:54 | 00:00:00 | |
| DL1XH-west | 2026-09-01 12:15:05 | 52.89387 | 10.80005 | 125° | 24km/h | 27409m | 5.4m/s | -46.9°C | 0% | 18.4hPa | 2.7V | 03:37:13 | 01:45:55 | 00:00:00 | |
| DO2SHX-10 | 2026-09-01 12:15:05 | 52.89387 | 10.80005 | 125° | 22km/h | 27409m | 5.3m/s | -46.9°C | 2.6% | 18.3hPa | 2.7V | 00:00:00 | 01:45:55 | 00:00:00 | |
| DL1XH-15 | 2026-09-01 12:15:04 | 52.89394 | 10.79981 | 100° | 20km/h | 27391m | 5.5m/s | -46.9°C | 2.6% | 18.4hPa | 2.7V | 03:36:45 | 01:45:52 | 00:00:00 | |
| DF8AY | 2026-09-01 12:15:02 | 52.89394 | 10.79981 | 101° | 20km/h | 27391m | 5.5m/s | -46.9°C | 0% | 18.4hPa | 2.7V | 03:37:13 | 01:45:52 | 00:00:00 | |
| DL1CLM-18 | 2026-09-01 12:15:02 | 52.89394 | 10.79981 | 102° | 20km/h | 27391m | 5.5m/s | -46.9°C | 0.3% | 18.4hPa | 2.6V | 00:00:00 | 00:00:00 | 00:00:00 | |
| DD8BA-10 | 2026-09-01 12:15:01 | 52.89395 | 10.79973 | 97° | 18km/h | 27386m | 5.4m/s | -46.9°C | 2.6% | 18.4hPa | 2.6V | 00:00:00 | 00:00:00 | 00:00:00 | |
| DL4BBY-15 | 2026-09-01 12:15:00 | 52.89396 | 10.79958 | 100° | 24km/h | 27373m | 5.8m/s | -46.1°C | 0% | 0hPa | 2.7V | 00:00:00 | 00:00:00 | 00:00:00 | |
| AM1SDL-15 | 2026-09-01 12:14:59 | 52.89397 | 10.79951 | 94° | 20km/h | 27368m | 4.8m/s | -47.1°C | 2.6% | 18.4hPa | 2.7V | 00:00:00 | 01:45:48 | 00:00:00 | |
| DF7ER-10 | 2026-09-01 12:14:56 | 52.89397 | 10.79945 | 83° | 16km/h | 27363m | 5.6m/s | -47.2°C | 0.4% | 18.6hPa | 2.7V | 03:37:00 | 00:00:00 | 00:00:00 | |
| DB0DAN | 2026-09-01 12:14:55 | 52.89394 | 10.79931 | 60° | 18km/h | 27350m | 5.8m/s | -47.2°C | 0.4% | 18.59hPa | 2.7V | 00:00:00 | 00:00:00 | 00:00:00 | |
| DL1XH-west | 2026-09-01 12:14:55 | 52.89394 | 10.79931 | 60° | 18km/h | 27350m | 5.8m/s | -47.2°C | 0% | 18.6hPa | 2.7V | 03:37:13 | 01:45:45 | 00:00:00 | |
| SO1NDE-10 | 2026-09-01 12:14:55 | 52.89394 | 10.79931 | 61° | 22km/h | 27350m | 5.8m/s | -47.2°C | 2.6% | 18.5hPa | 2.6V | 00:00:00 | 01:45:45 | 00:00:00 | |
| DL1XH-15 | 2026-09-01 12:14:54 | 52.89389 | 10.79908 | 92° | 20km/h | 27334m | 6.7m/s | -47.1°C | 2.6% | 18.6hPa | 2.6V | 03:36:55 | 01:45:42 | 00:00:00 | |
| AA1-15 | 2026-09-01 12:14:52 | 52.89390 | 10.79900 | 107° | 20km/h | 27327m | 6.2m/s | -47.1°C | 0% | 18.6hPa | 2.7V | 03:37:13 | 01:45:41 | 00:00:00 | |
| DF8AY | 2026-09-01 12:14:52 | 52.89395 | 10.79882 | 111° | 24km/h | 27316m | 5.7m/s | -47.1°C | 0% | 18.7hPa | 2.7V | 03:37:13 | 01:45:39 | 00:00:00 | |
| BIOWL1-15 | 2026-09-01 12:14:52 | 52.89392 | 10.79891 | 115° | 24km/h | 27321m | 5.3m/s | -47.1°C | 0% | 18.6hPa | 2.7V | 03:37:13 | 01:45:40 | 00:00:00 | |
| DD8BA-10 | 2026-09-01 12:14:51 | 52.89390 | 10.79900 | 108° | 24km/h | 27328m | 6.2m/s | -47.1°C | 2.5% | 18.5hPa | 2.6V | 03:36:00 | 00:00:00 | 00:00:00 | |
| DL1XH1-15 | 2026-09-01 12:14:50 | 52.89395 | 10.79842 | 76° | 24km/h | 27292m | 5.4m/s | -47.2°C | 2.6% | 18.7hPa | 2.6V | 03:37:02 | 01:45:35 | 00:00:00 | |
| SONCRA | 2026-09-01 12:14:50 | 52.89395 | 10.79882 | 110° | 24km/h | 27316m | 5.7m/s | -47.1°C | 0.4% | 18.7hPa | 2.7V | 00:00:00 | 00:00:00 | 00:00:00 | |
| S3001 | 2026-09-01 12:14:46 | 52.89396 | 10.79852 | 80° | 24km/h | 27298m | 5.4m/s | -47.1°C | 0.3% | 18.7hPa | 2.7V | 00:00:00 | 00:00:00 | 00:00:00 | |
| DL1XH-west | 2026-09-01 12:14:44 | 52.89392 | 10.79823 | 77° | 22km/h | 27280m | 5.4m/s | -47.3°C | 0% | 18.8hPa | 2.7V | 03:37:13 | 01:45:33 | 00:00:00 | |
| DL1XH-15 | 2026-09-01 12:14:44 | 52.89391 | 10.79815 | 69° | 22km/h | 27275m | 4.2m/s | -47.3°C | 2.6% | 18.8hPa | 2.7V | 03:37:05 | 01:45:32 | 00:00:00 | |
| AA1-15 | 2026-09-01 12:14:41 | 52.89385 | 10.79797 | 58° | 26km/h | 27263m | 6.9m/s | -47.4°C | 0% | 18.8hPa | 2.6V | 03:37:13 | 01:45:30 | 00:00:00 | |
| DB0DAN | 2026-09-01 12:14:40 | 52.89385 | 10.79797 | 57° | 26km/h | 27263m | 6.9m/s | -47.4°C | 0.4% | 18.82hPa | 2.6V | 00:00:00 | 00:00:00 | 00:00:00 | |
| BIOWL1-15 | 2026-09-01 12:14:40 | 52.89382 | 10.79788 | 59° | 26km/h | 27257m | 5.2m/s | -47.4°C | 0% | 18.8hPa | 2.6V | 03:37:13 | 01:45:29 | 00:00:00 | |
| DL1NUX | 2026-09-01 12:14:40 | 52.89375 | 10.79746 | 80° | 20km/h | 27229m | 5.6m/s | -47.4°C | 2.6% | 18.9hPa | 2.7V | 03:37:13 | 01:45:24 | 00:00:00 | |
| DF8AY | 2026-09-01 12:14:39 | 52.89379 | 10.79779 | 63° | 24km/h | 27252m | 5.3m/s | -47.4°C | 0% | 18.9hPa | 2.6V | 03:37:13 | 01:45:28 | 00:00:00 | |
| DM0DOS-11 | 2026-09-01 12:14:38 | 52.89374 | 10.79738 | 65° | 22km/h | 27223m | 7.2m/s | -47.3°C | 2.6% | 18.9hPa | 2.6V | 03:37:14 | 01:45:23 | 00:00:00 | |
| GOEST3-10 | 2026-09-01 12:14:36 | 52.89376 | 10.79762 | 87° | 20km/h | 27239m | 5.8m/s | -47.5°C | 2.5% | 18.8hPa | 2.7V | 00:00:00 | 01:45:26 | 00:00:00 | |
| DO2SHX-10 | 2026-09-01 12:14:35 | 52.89376 | 10.79754 | 88° | 20km/h | 27234m | 4.7m/s | -47.5°C | 2.6% | 18.8hPa | 2.6V | 00:00:00 | 01:45:25 | 00:00:00 | |
| DL1XH-15 | 2026-09-01 12:14:34 | 52.89371 | 10.79730 | 52° | 24km/h | 27216m | 5.7m/s | -47.2°C | 2.6% | 18.9hPa | 2.6V | 03:37:15 | 01:45:22 | 00:00:00 | |
| DL1XH-west | 2026-09-01 12:14:33 | 52.89371 | 10.79730 | 52° | 24km/h | 27216m | 5.7m/s | -47.2°C | 0% | 18.9hPa | 2.6V | 03:38:04 | 01:45:22 | 00:00:00 | |
| AM1SDL-15 | 2026-09-01 12:14:33 | 52.89371 | 10.79730 | 53° | 26km/h | 27217m | 5.7m/s | -47.2°C | 2.6% | 18.9hPa | 2.6V | 00:00:00 | 01:45:22 | 00:00:00 | |
| DO2SHX-10 | 2026-09-01 12:14:32 | 52.89371 | 10.79730 | 53° | 22km/h | 27217m | 5.7m/s | -47.2°C | 2.6% | 18.9hPa | 2.6V | 03:37:00 | 01:45:22 | 00:00:00 | |
| DD8BA-10 | 2026-09-01 12:14:31 | 52.89367 | 10.79723 | 41° | 26km/h | 27211m | 4.8m/s | -47.2°C | 2.6% | 18.9hPa | 2.6V | 00:00:00 | 00:00:00 | 00:00:00 | |
| DL1XH1-15 | 2026-09-01 12:14:30 | 52.89333 | 10.79696 | 31° | 33km/h | 27175m | 5.2m/s | -48°C | 2.6% | 19.1hPa | 2.6V | 03:37:22 | 01:45:15 | 00:00:00 | |
| AA1-15 | 2026-09-01 12:14:30 | 52.89363 | 10.79717 | 34° | 22km/h | 27205m | 7m/s | -47.4°C | 0% | 19hPa | 2.7V | 03:38:04 | 01:45:20 | 00:00:00 | |
| BIOWL1-15 | 2026-09-01 12:14:30 | 52.89353 | 10.79710 | 18° | 24km/h | 27193m | 5.4m/s | -47.6°C | 0% | 19hPa | 2.7V | 03:38:04 | 01:45:18 | 00:00:00 | |
| DF8AY | 2026-09-01 12:14:27 | 52.89347 | 10.79706 | 18° | 27km/h | 27188m | 5.6m/s | -47.7°C | 0% | 19hPa | 2.7V | 03:38:04 | 01:45:17 | 00:00:00 | |
| DL1NUX | 2026-09-01 12:14:26 | 52.89327 | 10.79688 | 40° | 31km/h | 27170m | 5.2m/s | -48°C | 2.6% | 19.1hPa | 2.6V | 03:37:23 | 01:45:14 | 00:00:00 | |
| DM0DOS-11 | 2026-09-01 12:14:26 | 52.89322 | 10.79680 | 50° | 27km/h | 27164m | 7m/s | -48°C | 2.7% | 19.1hPa | 2.7V | 03:37:24 | 01:45:13 | 00:00:00 | |
| DB0DAN | 2026-09-01 12:14:25 | 52.89333 | 10.79696 | 31° | 31km/h | 27175m | 5.2m/s | -48°C | 0.4% | 19.06hPa | 2.6V | 00:00:00 | 00:00:00 | 00:00:00 | |
| DL1XH-west | 2026-09-01 12:14:23 | 52.89321 | 10.79680 | 50° | 27km/h | 27164m | 7m/s | -48°C | 0% | 19.1hPa | 2.7V | 03:38:04 | 01:45:13 | 00:00:00 | |
| DO2SHX-10 | 2026-09-01 12:14:23 | 52.89321 | 10.79680 | 51° | 24km/h | 27164m | 6.9m/s | -48.0°C | 2.7% | 19.0hPa | 2.7V | 00:00:00 | 01:45:13 | 00:00:00 | |
| HTAHTA | 2026-09-01 12:14:22 | 52.89318 | 10.79671 | 63° | 24km/h | 27157m | 6.9m/s | -47.9°C | 0.4% | 19.1hPa | 2.7V | 00:00:00 | 00:00:00 | 00:00:00 | |
| DB0UT-7 | 2026-09-01 12:14:21 | 52.89316 | 10.79662 | 77° | 13km/h | 27151m | 5.5m/s | -47.9°C | 2.6% | 19.1hPa | 2.7V | 00:00:00 | 00:00:00 | 00:00:00 | |
| DL1XH1-15 | 2026-09-01 12:14:20 | 52.89298 | 10.79627 | 11° | 22km/h | 27118m | 5.6m/s | -48.3°C | 2.7% | 19.2hPa | 2.7V | 03:37:32 | 01:45:05 | 00:00:00 | |
| BIOWL1-15 | 2026-09-01 12:14:20 | 52.89293 | 10.79626 | 3° | 20km/h | 27112m | 6.3m/s | -48.4°C | 0% | 19.3hPa | 2.7V | 03:38:04 | 01:45:04 | 00:00:00 | |
| AA1-15 | 2026-09-01 12:14:19 | 52.89314 | 10.79647 | 72° | 18km/h | 27141m | 6m/s | -48.1°C | 0% | 19.2hPa | 2.6V | 03:38:04 | 01:45:09 | 00:00:00 | |
| BUE01 | 2026-09-01 12:14:19 | 52.89314 | 10.79647 | 71° | 16km/h | 27141m | 6.0m/s | -48.1°C | 0.4% | 19.2hPa | 2.7V | 00:00:00 | 00:00:00 | 00:00:00 | |
| DL1NUX | 2026-09-01 12:14:18 | 52.89293 | 10.79626 | 2° | 20km/h | 27112m | 6.3m/s | -48.4°C | 2.7% | 19.2hPa | 2.7V | 03:37:33 | 01:45:04 | 00:00:00 | |
| DF8AY | 2026-09-01 12:14:17 | 52.89298 | 10.79627 | 11° | 22km/h | 27118m | 5.6m/s | -48.3°C | 0% | 19.2hPa | 2.7V | 03:38:04 | 01:45:05 | 00:00:00 | |
| DO2SHX-10 | 2026-09-01 12:14:17 | 52.89308 | 10.79634 | 37° | 22km/h | 27129m | 5.5m/s | -48.2°C | 2.7% | 19.1hPa | 2.6V | 00:00:00 | 01:45:07 | 00:00:00 | |
| S3001 | 2026-09-01 12:14:16 | 52.89298 | 10.79627 | 11° | 22km/h | 27118m | 5.6m/s | -48.3°C | 0.4% | 19.2hPa | 2.6V | 00:00:00 | 00:00:00 | 00:00:00 | |
| DM0DOS-11 | 2026-09-01 12:14:16 | 52.89288 | 10.79626 | 354° | 16km/h | 27106m | 5.8m/s | -48.4°C | 2.7% | 19.2hPa | 2.7V | 03:37:34 | 01:45:03 | 00:00:00 | |
| DL1XH-15 | 2026-09-01 12:14:14 | 52.89285 | 10.79627 | 351° | 11km/h | 27101m | 5m/s | -48.5°C | 2.7% | 19.3hPa | 2.6V | 03:37:35 | 01:45:02 | 00:00:00 | |
| DL1XH-west | 2026-09-01 12:14:13 | 52.89288 | 10.79626 | 355° | 16km/h | 27106m | 5.8m/s | -48.4°C | 0% | 19.3hPa | 2.7V | 03:38:04 | 01:45:03 | 00:00:00 | |
| DJ8HS-15 | 2026-09-01 12:14:13 | 52.89288 | 10.79626 | 355° | 11km/h | 27107m | 5.8m/s | 0°C | 0% | 0hPa | 2.6V | 03:37:00 | 01:45:03 | 00:00:00 | |
| DL3AQ-11 | 2026-09-01 12:14:11 | 52.89281 | 10.79626 | 37° | 7km/h | 27091m | 5.4m/s | -48.6°C | 0.4% | 19.3hPa | 2.6V | 00:00:00 | 00:00:00 | 00:00:00 | |
| DL1XH1-15 | 2026-09-01 12:14:10 | 52.89267 | 10.79607 | 343° | 7km/h | 27054m | 6.2m/s | -48.5°C | 2.7% | 19.4hPa | 2.6V | 03:37:43 | 01:44:54 | 00:00:00 | |
| DB0DAN | 2026-09-01 12:14:10 | 52.89281 | 10.79626 | 38° | 7km/h | 27091m | 5.4m/s | -48.6°C | 0.4% | 19.32hPa | 2.6V | 00:00:00 | 00:00:00 | 00:00:00 | |
| AA1-15 | 2026-09-01 12:14:08 | 52.89272 | 10.79610 | 40° | 13km/h | 27067m | 5.1m/s | -48.5°C | 0% | 19.4hPa | 2.7V | 03:38:04 | 01:44:56 | 00:00:00 | |
| MECKS9 | 2026-09-01 12:14:08 | 52.89277 | 10.79619 | 53° | 16km/h | 27078m | 7.0m/s | -48.4°C | 0.4% | 19.4hPa | 2.6V | 03:38:00 | 00:00:00 | 00:00:00 | |
| DM0DOS-11 | 2026-09-01 12:14:07 | 52.89265 | 10.79608 | 324° | 9km/h | 27048m | 4.9m/s | -48.6°C | 2.7% | 19.4hPa | 2.6V | 03:37:44 | 01:44:53 | 00:00:00 | |
| GOEST3-10 | 2026-09-01 12:14:07 | 52.89272 | 10.79610 | 41° | 11km/h | 27067m | 5.1m/s | -48.5°C | 2.8% | 19.3hPa | 2.7V | 00:00:00 | 01:44:56 | 00:00:00 | |
| DL1NUX | 2026-09-01 12:14:06 | 52.89267 | 10.79607 | 343° | 7km/h | 27054m | 6.2m/s | -48.5°C | 2.7% | 19.4hPa | 2.6V | 03:37:43 | 01:44:54 | 00:00:00 | |
| BIOWL1-15 | 2026-09-01 12:14:05 | 52.89267 | 10.79607 | 344° | 7km/h | 27054m | 6.2m/s | -48.5°C | 0% | 19.4hPa | 2.6V | 03:38:04 | 01:44:54 | 00:00:00 | |
| DL1XH-15 | 2026-09-01 12:14:05 | 52.89263 | 10.79611 | 328° | 13km/h | 27042m | 6.7m/s | -48.7°C | 2.7% | 19.5hPa | 2.7V | 03:37:45 | 01:44:52 | 00:00:00 | |
| DL1XH-west | 2026-09-01 12:14:02 | 52.89263 | 10.79611 | 329° | 13km/h | 27042m | 6.7m/s | -48.7°C | 0% | 19.5hPa | 2.7V | 03:38:04 | 01:44:52 | 00:00:00 | |
| DO2SHX-10 | 2026-09-01 12:14:02 | 52.89263 | 10.79611 | 329° | 13km/h | 27043m | 6.7m/s | -48.7°C | 2.7% | 19.4hPa | 2.7V | 00:00:00 | 01:44:52 | 00:00:00 | |
| SP3WXH-11 | 2026-09-01 12:14:01 | 52.89260 | 10.79613 | 339° | 13km/h | 27036m | 6.8m/s | -48.8°C | 0.4% | 19.5hPa | 2.7V | 00:00:00 | 00:00:00 | 00:00:00 | |
| DL3AQ-11 | 2026-09-01 12:14:00 | 52.89255 | 10.79616 | 340° | 7km/h | 27025m | 5.3m/s | -48.8°C | 0.4% | 19.5hPa | 2.7V | 00:00:00 | 00:00:00 | 00:00:00 | |
| DL1XH1-15 | 2026-09-01 12:13:59 | 52.89250 | 10.79609 | 66° | 15km/h | 26993m | 6.7m/s | -48.8°C | 2.8% | 19.6hPa | 2.7V | 03:37:53 | 01:44:44 | 00:00:00 | |
| AA1-15 | 2026-09-01 12:13:56 | 52.89251 | 10.79614 | 72° | 11km/h | 26999m | 7.3m/s | -48.8°C | 0% | 19.6hPa | 2.7V | 03:38:04 | 01:44:45 | 00:00:00 | |
| DM0DOS-11 | 2026-09-01 12:13:56 | 52.89248 | 10.79603 | 61° | 16km/h | 26987m | 4.2m/s | -48.7°C | 2.7% | 19.6hPa | 2.7V | 03:37:54 | 01:44:43 | 00:00:00 | |
| DB0DAN | 2026-09-01 12:13:55 | 52.89251 | 10.79614 | 72° | 9km/h | 26999m | 7.3m/s | -48.8°C | 0.4% | 19.59hPa | 2.7V | 00:00:00 | 00:00:00 | 00:00:00 | |
| DO9LL-15 | 2026-09-01 12:13:55 | 52.89251 | 10.79614 | 73° | 9km/h | 27000m | 7.2m/s | -48.7°C | 2.7% | 19.5hPa | 2.7V | 00:00:00 | 01:44:45 | 00:00:00 | |
| DL1XH-15 | 2026-09-01 12:13:54 | 52.89247 | 10.79598 | 53° | 13km/h | 26982m | 5.7m/s | -48.8°C | 2.8% | 19.6hPa | 2.7V | 03:37:55 | 01:44:42 | 00:00:00 | |
| BIOWL1-15 | 2026-09-01 12:13:54 | 52.89250 | 10.79609 | 67° | 15km/h | 26993m | 6.7m/s | -48.8°C | 0% | 19.6hPa | 2.7V | 03:38:04 | 01:44:44 | 00:00:00 | |
| DL1XH-west | 2026-09-01 12:13:52 | 52.89247 | 10.79598 | 54° | 13km/h | 26982m | 5.7m/s | -48.8°C | 0% | 19.6hPa | 2.7V | 03:38:04 | 01:44:42 | 00:00:00 | |
| AA1-15 | 2026-09-01 12:13:46 | 52.89223 | 10.79605 | 331° | 13km/h | 26933m | 7.4m/s | -49.1°C | 0% | 19.8hPa | 2.6V | 03:38:04 | 01:44:34 | 00:00:00 | |
| DL1NUX | 2026-09-01 12:13:46 | 52.89223 | 10.79605 | 330° | 13km/h | 26933m | 7.4m/s | -49.1°C | 2.9% | 19.8hPa | 2.6V | 03:38:03 | 01:44:34 | 00:00:00 | |
| DL1XH-15 | 2026-09-01 12:13:45 | 52.89220 | 10.79610 | 300° | 5km/h | 26920m | 5.6m/s | -49°C | 2.8% | 19.8hPa | 2.6V | 03:38:05 | 01:44:32 | 00:00:00 | |
| DM0DOS-11 | 2026-09-01 12:13:45 | 52.89221 | 10.79608 | 309° | 9km/h | 26926m | 5.9m/s | -49.1°C | 2.9% | 19.8hPa | 2.6V | 03:38:04 | 01:44:33 | 00:00:00 | |
| S3001 | 2026-09-01 12:13:44 | 52.89223 | 10.79605 | 330° | 13km/h | 26933m | 7.4m/s | -49.1°C | 0.4% | 19.8hPa | 2.6V | 00:00:00 | 00:00:00 | 00:00:00 | |
| DF8AY | 2026-09-01 12:13:43 | 52.89221 | 10.79608 | 310° | 9km/h | 26926m | 5.9m/s | -49.1°C | 0% | 19.8hPa | 2.6V | 03:38:04 | 01:44:33 | 00:00:00 | |
| BIOWL1-15 | 2026-09-01 12:13:43 | 52.89220 | 10.79609 | 115° | 5km/h | 26902m | 5m/s | -49°C | 0% | 19.9hPa | 2.7V | 03:38:55 | 01:44:29 | 00:00:00 | |
| DL1XH-west | 2026-09-01 12:13:42 | 52.89220 | 10.79610 | 300° | 5km/h | 26920m | 5.6m/s | -49°C | 0% | 19.8hPa | 2.6V | 03:38:55 | 01:44:32 | 00:00:00 | |
| DO2SHX-10 | 2026-09-01 12:13:41 | 52.89220 | 10.79611 | 329° | 4km/h | 26914m | 6.8m/s | -49.1°C | 2.8% | 19.8hPa | 2.7V | 00:00:00 | 01:44:31 | 00:00:00 | |
| DJ2DS-15 | 2026-09-01 12:13:40 | 52.89220 | 10.79609 | 115° | 4km/h | 26902m | 5.0m/s | -49.0°C | 0.4% | 19.9hPa | 2.7V | 00:00:00 | 00:00:00 | 00:00:00 | |
| DL1NUX | 2026-09-01 12:13:39 | 52.89224 | 10.79613 | 268° | 7km/h | 26873m | 5.4m/s | -49.1°C | 2.8% | 20hPa | 2.7V | 03:38:13 | 01:44:24 | 00:00:00 | |
| DM0DOS-11 | 2026-09-01 12:13:38 | 52.89220 | 10.79618 | 1° | 11km/h | 26855m | 5.7m/s | -49.1°C | 2.8% | 20hPa | 2.7V | 03:38:16 | 01:44:21 | 00:00:00 | |
| DO2SHX-10 | 2026-09-01 12:13:38 | 52.89221 | 10.79607 | 135° | 5km/h | 26897m | 5.3m/s | -49.1°C | 2.9% | 19.8hPa | 2.7V | 00:00:00 | 01:44:28 | 00:00:00 | |
| DL1XH-15 | 2026-09-01 12:13:37 | 52.89222 | 10.79617 | 344° | 7km/h | 26861m | 6.6m/s | -49.2°C | 2.9% | 20hPa | 2.7V | 03:38:15 | 01:44:22 | 00:00:00 | |
| AA1-15 | 2026-09-01 12:13:34 | 52.89224 | 10.79616 | 304° | 7km/h | 26867m | 6.5m/s | -49.1°C | 0% | 20hPa | 2.7V | 03:38:55 | 01:44:23 | 00:00:00 | |
| DF8AY | 2026-09-01 12:13:33 | 52.89222 | 10.79617 | 344° | 7km/h | 26861m | 6.6m/s | -49.2°C | 0% | 20hPa | 2.7V | 03:38:55 | 01:44:22 | 00:00:00 | |
| BIOWL1-15 | 2026-09-01 12:13:33 | 52.89215 | 10.79618 | 346° | 9km/h | 26844m | 6m/s | -49.3°C | 0% | 20hPa | 2.6V | 03:38:55 | 01:44:19 | 00:00:00 | |
| AM1SDL-15 | 2026-09-01 12:13:33 | 52.89222 | 10.79617 | 345° | 13km/h | 26861m | 6.6m/s | -49.2°C | 2.9% | 20.0hPa | 2.6V | 00:00:00 | 01:44:22 | 00:00:00 | |
| DO2SHX-10 | 2026-09-01 12:13:32 | 52.89222 | 10.79617 | 345° | 9km/h | 26861m | 6.6m/s | -49.2°C | 2.9% | 20.0hPa | 2.6V | 03:38:00 | 01:44:22 | 00:00:00 | |
| DL1XH-west | 2026-09-01 12:13:32 | 52.89220 | 10.79617 | 1° | 11km/h | 26855m | 5.7m/s | -49.1°C | 0% | 20hPa | 2.7V | 03:38:55 | 01:44:21 | 00:00:00 | |
| TFSTFS | 2026-09-01 12:13:31 | 52.89220 | 10.79618 | 2° | 11km/h | 26855m | 5.7m/s | -49.1°C | 0.4% | 20.0hPa | 2.6V | 03:38:00 | 00:00:00 | 00:00:00 | |
| SP3WXH-11 | 2026-09-01 12:13:30 | 52.89217 | 10.79617 | 3° | 9km/h | 26850m | 4.6m/s | -49.3°C | 0.4% | 20.1hPa | 2.6V | 00:00:00 | 00:00:00 | 00:00:00 | |
| DL2RXE-15 | 2026-09-01 12:13:29 | 52.89215 | 10.79618 | 347° | 9km/h | 26845m | 6.0m/s | -49.3°C | 0.4% | 20.0hPa | 2.6V | 03:38:00 | 00:00:00 | 00:00:00 | |
| DF8AY-15 | 2026-09-01 12:13:28 | 52.89213 | 10.79619 | 310° | 13km/h | 26839m | 6.3m/s | -49.2°C | 2.9% | 20.0hPa | 2.6V | 00:00:00 | 01:44:18 | 00:00:00 | |
| DL1XH-15 | 2026-09-01 12:13:27 | 52.89230 | 10.79618 | 162° | 22km/h | 26803m | 5.2m/s | -49.3°C | 3% | 20.2hPa | 2.6V | 03:38:25 | 01:44:12 | 00:00:00 | |
| GOEST3-10 | 2026-09-01 12:13:27 | 52.89214 | 10.79623 | 209° | 16km/h | 26828m | 4.7m/s | -49.2°C | 2.9% | 20.1hPa | 2.6V | 00:00:00 | 01:44:16 | 00:00:00 | |
| DO2SHX-10 | 2026-09-01 12:13:26 | 52.89214 | 10.79623 | 209° | 13km/h | 26828m | 4.7m/s | -49.2°C | 2.9% | 20.1hPa | 2.6V | 00:00:00 | 01:44:16 | 00:00:00 | |
| DM0DOS-11 | 2026-09-01 12:13:25 | 52.89225 | 10.79621 | 159° | 20km/h | 26808m | 5.5m/s | -49.2°C | 2.9% | 20.2hPa | 2.6V | 03:38:24 | 01:44:13 | 00:00:00 | |
| DL1NUX | 2026-09-01 12:13:25 | 52.89220 | 10.79624 | 163° | 16km/h | 26815m | 7.2m/s | -49.3°C | 3% | 20.1hPa | 2.7V | 03:38:23 | 01:44:14 | 00:00:00 | |
| DB0DAN | 2026-09-01 12:13:25 | 52.89217 | 10.79624 | 181° | 11km/h | 26821m | 7.2m/s | -49.3°C | 0.4% | 20.09hPa | 2.7V | 00:00:00 | 00:00:00 | 00:00:00 | |
| AA1-15 | 2026-09-01 12:13:24 | 52.89220 | 10.79624 | 164° | 16km/h | 26815m | 7.2m/s | -49.3°C | 0% | 20.1hPa | 2.7V | 03:38:55 | 01:44:14 | 00:00:00 | |
| BIOWL1-15 | 2026-09-01 12:13:22 | 52.89234 | 10.79616 | 171° | 20km/h | 26797m | 6.3m/s | -49.2°C | 0% | 20.2hPa | 2.6V | 03:38:55 | 01:44:11 | 00:00:00 | |
| DL1XH-west | 2026-09-01 12:13:21 | 52.89239 | 10.79616 | 188° | 16km/h | 26791m | 6.6m/s | -49.2°C | 0% | 20.2hPa | 2.7V | 03:38:55 | 01:44:10 | 00:00:00 | |
| DO2SHX-10 | 2026-09-01 12:13:20 | 52.89239 | 10.79616 | 188° | 15km/h | 26791m | 6.5m/s | -49.2°C | 2.9% | 20.2hPa | 2.7V | 03:38:00 | 01:44:10 | 00:00:00 | |
| DL1NUX | 2026-09-01 12:13:19 | 52.89249 | 10.79628 | 223° | 4km/h | 26755m | 4.7m/s | -49.3°C | 2.9% | 20.4hPa | 2.6V | 03:38:33 | 01:44:04 | 00:00:00 | |
| EDDB2-11 | 2026-09-01 12:13:18 | 52.89248 | 10.79624 | 222° | 7km/h | 26772m | 6.8m/s | -49.3°C | 0.4% | 20.3hPa | 2.7V | 00:00:00 | 00:00:00 | 00:00:00 | |
| DL1XH-15 | 2026-09-01 12:13:17 | 52.89253 | 10.79631 | 206° | 13km/h | 26743m | 7.3m/s | -49.2°C | 2.9% | 20.4hPa | 2.7V | 03:38:35 | 01:44:02 | 00:00:00 | |
| DO2SHX-10 | 2026-09-01 12:13:17 | 52.89248 | 10.79623 | 223° | 5km/h | 26772m | 6.7m/s | -49.3°C | 2.9% | 20.2hPa | 2.7V | 00:00:00 | 01:44:07 | 00:00:00 | |
| DL4BBY-15 | 2026-09-01 12:13:16 | 52.89249 | 10.79625 | 242° | 15km/h | 26766m | 5.7m/s | -48.3°C | 0% | 0hPa | 2.7V | 00:00:00 | 00:00:00 | 00:00:00 | |
| DG6HD-15 | 2026-09-01 12:13:15 | 52.89249 | 10.79627 | 0° | 0km/h | 26761m | 5.2m/s | -49.3°C | 0.4% | 20.3hPa | 2.7V | 03:38:00 | 00:00:00 | 00:00:00 | |
| DL1XH1-15 | 2026-09-01 12:13:14 | 52.89251 | 10.79629 | 213° | 7km/h | 26750m | 6.1m/s | -49.2°C | 2.9% | 20.3hPa | 2.7V | 03:38:34 | 01:44:03 | 00:00:00 | |
| AA1-15 | 2026-09-01 12:13:14 | 52.89249 | 10.79628 | 223° | 4km/h | 26755m | 4.7m/s | -49.3°C | 0% | 20.4hPa | 2.6V | 03:38:55 | 01:44:04 | 00:00:00 | |
| DF8AY | 2026-09-01 12:13:12 | 52.89260 | 10.79634 | 180° | 18km/h | 26732m | 5.8m/s | -49.1°C | 0% | 20.4hPa | 2.7V | 03:38:55 | 01:44:00 | 00:00:00 | |
| BIOWL1-15 | 2026-09-01 12:13:11 | 52.89285 | 10.79622 | 169° | 24km/h | 26698m | 7.4m/s | -49°C | 0% | 20.5hPa | 2.7V | 03:38:55 | 01:43:55 | 00:00:00 | |
| DL1XH-west | 2026-09-01 12:13:09 | 52.89265 | 10.79633 | 168° | 16km/h | 26725m | 8.1m/s | -49.1°C | 0% | 20.4hPa | 2.6V | 03:38:55 | 01:43:59 | 00:00:00 | |
| DL4XJ-10 | 2026-09-01 12:13:09 | 52.89265 | 10.79633 | 168° | 18km/h | 26725m | 8.1m/s | -48.2°C | 0% | 0hPa | 2.7V | 00:00:00 | 00:00:00 | 00:00:00 | |
| DL1XH1-15 | 2026-09-01 12:13:08 | 52.89295 | 10.79618 | 167° | 18km/h | 26687m | 5.6m/s | -48.9°C | 2.9% | 20.6hPa | 2.7V | 03:38:44 | 01:43:53 | 00:00:00 | |
| DF8AY-15 | 2026-09-01 12:13:08 | 52.89269 | 10.79631 | 156° | 18km/h | 26718m | 6.3m/s | -49.0°C | 2.9% | 20.4hPa | 2.6V | 03:38:00 | 01:43:58 | 00:00:00 | |
| DL1XH-15 | 2026-09-01 12:13:07 | 52.89299 | 10.79616 | 159° | 15km/h | 26680m | 7.7m/s | -48.8°C | 2.9% | 20.6hPa | 2.6V | 03:38:45 | 01:43:52 | 00:00:00 | |
| GOEST3-10 | 2026-09-01 12:13:07 | 52.89279 | 10.79624 | 162° | 20km/h | 26706m | 7.1m/s | -49.0°C | 2.9% | 20.4hPa | 2.7V | 00:00:00 | 01:43:56 | 00:00:00 | |
| DL1NUX | 2026-09-01 12:13:06 | 52.89290 | 10.79620 | 170° | 22km/h | 26692m | 4.9m/s | -48.9°C | 2.9% | 20.5hPa | 2.7V | 03:38:43 | 01:43:54 | 00:00:00 | |
| AA1-15 | 2026-09-01 12:13:04 | 52.89299 | 10.79616 | 160° | 15km/h | 26680m | 7.7m/s | -48.8°C | 0% | 20.6hPa | 2.6V | 03:38:55 | 01:43:52 | 00:00:00 | |
| DL1XH-west | 2026-09-01 12:12:59 | 52.89307 | 10.79611 | 175° | 11km/h | 26662m | 7.6m/s | -48.8°C | 0% | 20.6hPa | 2.7V | 03:38:55 | 01:43:49 | 00:00:00 | |
| DO2SHX-10 | 2026-09-01 12:12:59 | 52.89307 | 10.79611 | 175° | 13km/h | 26662m | 7.6m/s | -48.7°C | 2.8% | 20.6hPa | 2.7V | 00:00:00 | 01:43:49 | 00:00:00 | |
| DM0DOS-11 | 2026-09-01 12:12:57 | 52.89331 | 10.79589 | 145° | 22km/h | 26618m | 7.5m/s | -48.7°C | 2.8% | 20.8hPa | 2.7V | 03:38:55 | 01:43:42 | 00:00:00 | |
| AM1SDL-15 | 2026-09-01 12:12:57 | 52.89317 | 10.79609 | 157° | 15km/h | 26643m | 7.0m/s | -48.6°C | 2.8% | 20.7hPa | 2.6V | 00:00:00 | 01:43:46 | 00:00:00 | |
| DO2SHX-10 | 2026-09-01 12:12:56 | 52.89317 | 10.79609 | 157° | 16km/h | 26643m | 7.0m/s | -48.6°C | 2.8% | 20.7hPa | 2.6V | 03:38:00 | 01:43:46 | 00:00:00 | |
| SO1NDE-10 | 2026-09-01 12:12:55 | 52.89320 | 10.79606 | 141° | 13km/h | 26636m | 7.4m/s | -48.6°C | 2.8% | 20.7hPa | 2.6V | 00:00:00 | 01:43:45 | 00:00:00 | |
| DB0DAN | 2026-09-01 12:12:55 | 52.89320 | 10.79606 | 141° | 15km/h | 26636m | 7.4m/s | -48.6°C | 0.4% | 20.75hPa | 2.6V | 00:00:00 | 00:00:00 | 00:00:00 | |
| DL1XH1-15 | 2026-09-01 12:12:54 | 52.89327 | 10.79595 | 138° | 22km/h | 26624m | 5.3m/s | -48.6°C | 2.8% | 20.8hPa | 2.6V | 03:38:54 | 01:43:43 | 00:00:00 | |
| AA1-15 | 2026-09-01 12:12:51 | 52.89336 | 10.79585 | 156° | 22km/h | 26611m | 6.3m/s | -48.7°C | 0% | 20.8hPa | 2.7V | 03:39:46 | 01:43:41 | 00:00:00 | |
| DL1XH-west | 2026-09-01 12:12:49 | 52.89345 | 10.79579 | 155° | 15km/h | 26600m | 6.4m/s | -48.9°C | 0% | 20.8hPa | 2.7V | 03:39:46 | 01:43:39 | 00:00:00 | |
| DF8AY | 2026-09-01 12:12:49 | 52.89355 | 10.79570 | 158° | 13km/h | 26562m | 6m/s | -49°C | 0% | 21hPa | 2.7V | 03:40:37 | 01:43:33 | 00:00:00 | |
| DL1XH1-15 | 2026-09-01 12:12:49 | 52.89355 | 10.79570 | 157° | 13km/h | 26562m | 6m/s | -49°C | 2.9% | 21hPa | 2.7V | 03:39:04 | 01:43:33 | 00:00:00 | |
| EDDB2-11 | 2026-09-01 12:12:47 | 52.89350 | 10.79574 | 131° | 5km/h | 26586m | 5.8m/s | -48.9°C | 0.4% | 20.9hPa | 2.6V | 00:00:00 | 00:00:00 | 00:00:00 | |
| BUE01 | 2026-09-01 12:12:46 | 52.89350 | 10.79573 | 124° | 2km/h | 26581m | 5.5m/s | -49.0°C | 0.4% | 20.9hPa | 2.6V | 00:00:00 | 00:00:00 | 00:00:00 | |
| SONCRA | 2026-09-01 12:12:45 | 52.89351 | 10.79572 | 161° | 4km/h | 26575m | 6.6m/s | -49.0°C | 0.4% | 20.9hPa | 2.6V | 00:00:00 | 00:00:00 | 00:00:00 | |
| AA1-15 | 2026-09-01 12:12:42 | 52.89365 | 10.79554 | 117° | 22km/h | 26544m | 6.6m/s | -49°C | 0% | 21hPa | 2.6V | 03:39:46 | 01:43:30 | 00:00:00 | |
| DK7RCA | 2026-09-01 12:12:41 | 52.89358 | 10.79567 | 145° | 16km/h | 26557m | 5.8m/s | -49.0°C | 0.5% | 21.0hPa | 2.6V | 03:39:00 | 00:00:00 | 00:00:00 | |
| DB0DAN | 2026-09-01 12:12:40 | 52.89365 | 10.79554 | 116° | 20km/h | 26544m | 6.6m/s | -49°C | 0.4% | 21.01hPa | 2.6V | 00:00:00 | 00:00:00 | 00:00:00 | |
| BIOWL1-15 | 2026-09-01 12:12:39 | 52.89367 | 10.79545 | 106° | 24km/h | 26538m | 5.4m/s | -49°C | 0% | 21.1hPa | 2.6V | 03:39:46 | 01:43:29 | 00:00:00 | |
| DL1XH-west | 2026-09-01 12:12:39 | 52.89368 | 10.79536 | 103° | 22km/h | 26533m | 5m/s | -48.9°C | 0% | 21.1hPa | 2.7V | 03:39:46 | 01:43:28 | 00:00:00 | |
| DF8AY | 2026-09-01 12:12:35 | 52.89372 | 10.79517 | 119° | 9km/h | 26514m | 6.1m/s | -48.8°C | 0% | 21.1hPa | 2.7V | 03:40:37 | 01:43:25 | 00:00:00 | |
| DL1XH1-15 | 2026-09-01 12:12:35 | 52.89373 | 10.79511 | 89° | 7km/h | 26501m | 7.1m/s | -48.8°C | 2.9% | 21.2hPa | 2.6V | 03:39:14 | 01:43:23 | 00:00:00 | |
| AA1-15 | 2026-09-01 12:12:31 | 52.89372 | 10.79501 | 130° | 4km/h | 26476m | 7.6m/s | -48.7°C | 0% | 21.2hPa | 2.7V | 03:39:46 | 01:43:19 | 00:00:00 | |
| BIOWL1-15 | 2026-09-01 12:12:30 | 52.89373 | 10.79500 | 148° | 5km/h | 26469m | 6.5m/s | -48.7°C | 0% | 21.3hPa | 2.7V | 03:39:46 | 01:43:18 | 00:00:00 | |
| DL1XH-west | 2026-09-01 12:12:29 | 52.89375 | 10.79496 | 112° | 9km/h | 26457m | 7m/s | -48.6°C | 0% | 21.3hPa | 2.6V | 03:39:46 | 01:43:16 | 00:00:00 | |
| TFSTFS | 2026-09-01 12:12:28 | 52.89373 | 10.79500 | 149° | 5km/h | 26469m | 6.5m/s | -48.7°C | 0.4% | 21.3hPa | 2.7V | 00:00:00 | 00:00:00 | 00:00:00 | |
| DL1NUX | 2026-09-01 12:12:26 | 52.89376 | 10.79486 | 80° | 13km/h | 26444m | 4.7m/s | -48.5°C | 2.8% | 21.4hPa | 2.7V | 03:39:23 | 01:43:14 | 00:00:00 | |
| DB0DAN | 2026-09-01 12:12:25 | 52.89376 | 10.79491 | 90° | 11km/h | 26450m | 6.6m/s | -48.5°C | 0.4% | 21.31hPa | 2.6V | 00:00:00 | 00:00:00 | 00:00:00 | |
| DF8AY | 2026-09-01 12:12:24 | 52.89366 | 10.79476 | 334° | 7km/h | 26396m | 5.3m/s | -48.4°C | 0% | 21.5hPa | 2.7V | 03:40:37 | 01:43:06 | 00:00:00 | |
| DM0DOS-11 | 2026-09-01 12:12:23 | 52.89375 | 10.79477 | 75° | 7km/h | 26433m | 6.9m/s | -48.5°C | 2.8% | 21.4hPa | 2.7V | 03:39:25 | 01:43:12 | 00:00:00 | |
| AA1-15 | 2026-09-01 12:12:20 | 52.89370 | 10.79475 | 357° | 9km/h | 26407m | 6.3m/s | -48.3°C | 0% | 21.5hPa | 2.6V | 03:39:46 | 01:43:08 | 00:00:00 | |
| DL1NUX | 2026-09-01 12:12:19 | 52.89364 | 10.79481 | 282° | 7km/h | 26383m | 6.8m/s | -48.2°C | 2.8% | 21.5hPa | 2.7V | 03:39:33 | 01:43:04 | 00:00:00 | |
| BIOWL1-15 | 2026-09-01 12:12:18 | 52.89361 | 10.79486 | 9° | 7km/h | 26365m | 7.4m/s | -48°C | 0% | 21.6hPa | 2.6V | 03:39:46 | 01:43:01 | 00:00:00 | |
| DL1XH-west | 2026-09-01 12:12:16 | 52.89364 | 10.79481 | 282° | 7km/h | 26383m | 6.8m/s | -48.2°C | 0% | 21.5hPa | 2.7V | 03:39:46 | 01:43:04 | 00:00:00 | |
| DL4BBY-15 | 2026-09-01 12:12:16 | 52.89366 | 10.79476 | 334° | 9km/h | 26396m | 5.2m/s | -47.4°C | 0% | 0hPa | 2.6V | 00:00:00 | 00:00:00 | 00:00:00 | |
| DL1XH1-15 | 2026-09-01 12:12:15 | 52.89363 | 10.79484 | 286° | 5km/h | 26377m | 5.3m/s | -48.2°C | 2.8% | 21.6hPa | 2.6V | 03:39:34 | 01:43:03 | 00:00:00 | |
| DO2SHX-10 | 2026-09-01 12:12:14 | 52.89364 | 10.79481 | 283° | 7km/h | 26384m | 6.7m/s | -48.1°C | 2.8% | 21.5hPa | 2.7V | 00:00:00 | 01:43:04 | 00:00:00 | |
| DG6HD-15 | 2026-09-01 12:12:12 | 52.89363 | 10.79484 | 287° | 5km/h | 26378m | 5.3m/s | -48.2°C | 0.4% | 21.6hPa | 2.7V | 00:00:00 | 00:00:00 | 00:00:00 | |
| DB0DAN | 2026-09-01 12:12:10 | 52.89359 | 10.79485 | 30° | 11km/h | 26358m | 6m/s | -48°C | 0.4% | 21.66hPa | 2.7V | 00:00:00 | 00:00:00 | 00:00:00 | |
| DL1NUX | 2026-09-01 12:12:09 | 52.89350 | 10.79476 | 358° | 9km/h | 26321m | 7.2m/s | -47.9°C | 2.6% | 21.7hPa | 2.6V | 03:39:43 | 01:42:54 | 00:00:00 | |
| AA1-15 | 2026-09-01 12:12:08 | 52.89354 | 10.79478 | 43° | 4km/h | 26340m | 6.5m/s | -47.9°C | 0% | 21.7hPa | 2.7V | 03:39:46 | 01:42:57 | 00:00:00 | |
| DL1XH1-15 | 2026-09-01 12:12:07 | 52.89348 | 10.79477 | 341° | 11km/h | 26314m | 6.4m/s | -47.9°C | 2.7% | 21.8hPa | 2.7V | 03:39:44 | 01:42:53 | 00:00:00 | |
| BIOWL1-15 | 2026-09-01 12:12:06 | 52.89352 | 10.79476 | 13° | 5km/h | 26328m | 6.4m/s | -47.9°C | 0% | 21.7hPa | 2.6V | 03:39:46 | 01:42:55 | 00:00:00 | |
| DL1XH-west | 2026-09-01 12:12:05 | 52.89350 | 10.79476 | 359° | 9km/h | 26321m | 7.2m/s | -47.9°C | 0% | 21.7hPa | 2.6V | 03:39:46 | 01:42:54 | 00:00:00 | |
| DF8AY | 2026-09-01 12:12:03 | 52.89348 | 10.79477 | 341° | 11km/h | 26314m | 6.4m/s | -47.9°C | 0% | 21.8hPa | 2.7V | 03:40:37 | 01:42:53 | 00:00:00 | |
| DL1XH-15 | 2026-09-01 12:12:03 | 52.89346 | 10.79479 | 319° | 11km/h | 26308m | 6.7m/s | -47.9°C | 2.7% | 21.8hPa | 2.7V | 03:39:45 | 01:42:52 | 00:00:00 | |
| DO2SHX-10 | 2026-09-01 12:12:02 | 52.89345 | 10.79479 | 320° | 11km/h | 26308m | 6.6m/s | -47.9°C | 2.7% | 21.7hPa | 2.7V | 00:00:00 | 01:42:52 | 00:00:00 | |
| DD8BA-10 | 2026-09-01 12:12:01 | 52.89344 | 10.79482 | 301° | 9km/h | 26301m | 7.5m/s | -47.9°C | 2.8% | 21.8hPa | 2.7V | 00:00:00 | 00:00:00 | 00:00:00 | |
| DL1NUX | 2026-09-01 12:11:59 | 52.89333 | 10.79498 | 34° | 4km/h | 26257m | 7.2m/s | -47.7°C | 2.6% | 22hPa | 2.7V | 03:39:53 | 01:42:44 | 00:00:00 | |
| AA1-15 | 2026-09-01 12:11:56 | 52.89336 | 10.79499 | 352° | 9km/h | 26270m | 5.6m/s | -47.7°C | 0% | 22hPa | 2.7V | 03:40:37 | 01:42:46 | 00:00:00 | |
| DL1XH1-15 | 2026-09-01 12:11:56 | 52.89332 | 10.79497 | 42° | 4km/h | 26251m | 5m/s | -47.7°C | 2.6% | 22hPa | 2.7V | 03:39:54 | 01:42:43 | 00:00:00 | |
| BIOWL1-15 | 2026-09-01 12:11:55 | 52.89331 | 10.79496 | 32° | 7km/h | 26246m | 4.7m/s | -47.7°C | 0% | 22hPa | 2.6V | 03:40:37 | 01:42:42 | 00:00:00 | |
| DB0DAN | 2026-09-01 12:11:55 | 52.89334 | 10.79499 | 3° | 5km/h | 26264m | 6.6m/s | -47.7°C | 0.4% | 21.94hPa | 2.7V | 00:00:00 | 00:00:00 | 00:00:00 | |
| SO1NDE-10 | 2026-09-01 12:11:55 | 52.89334 | 10.79499 | 4° | 9km/h | 26264m | 6.5m/s | -47.7°C | 2.7% | 21.9hPa | 2.6V | 00:00:00 | 01:42:45 | 00:00:00 | |
| DM0DOS-11 | 2026-09-01 12:11:54 | 52.89331 | 10.79496 | 32° | 7km/h | 26246m | 4.7m/s | -47.7°C | 2.6% | 22hPa | 2.6V | 03:39:55 | 01:42:42 | 00:00:00 | |
| DO2SHX-10 | 2026-09-01 12:11:54 | 52.89332 | 10.79497 | 43° | 7km/h | 26252m | 4.9m/s | -47.7°C | 2.6% | 21.9hPa | 2.6V | 00:00:00 | 01:42:43 | 00:00:00 | |
| DL2RXE-15 | 2026-09-01 12:11:53 | 52.89332 | 10.79497 | 43° | 4km/h | 26252m | 5.0m/s | -47.7°C | 0.4% | 22.0hPa | 2.6V | 00:00:00 | 00:00:00 | 00:00:00 | |
| DD8BA-10 | 2026-09-01 12:11:51 | 52.89329 | 10.79494 | 22° | 11km/h | 26241m | 7.4m/s | -47.7°C | 2.6% | 22.0hPa | 2.6V | 00:00:00 | 00:00:00 | 00:00:00 | |
| DO2SHX-10 | 2026-09-01 12:11:50 | 52.89326 | 10.79493 | 14° | 13km/h | 26234m | 6.3m/s | -47.7°C | 2.7% | 22.0hPa | 2.6V | 00:00:00 | 01:42:40 | 00:00:00 | |
| DL4XJ-10 | 2026-09-01 12:11:49 | 52.89323 | 10.79492 | 5° | 9km/h | 26228m | 5.2m/s | -46.8°C | 0% | 0hPa | 2.7V | 00:00:00 | 00:00:00 | 00:00:00 | |
| DF8AY-15 | 2026-09-01 12:11:48 | 52.89320 | 10.79492 | 353° | 9km/h | 26222m | 6.4m/s | -47.6°C | 2.6% | 22.0hPa | 2.7V | 03:39:00 | 01:42:38 | 00:00:00 | |
| DM0DOS-11 | 2026-09-01 12:11:47 | 52.89311 | 10.79515 | 308° | 13km/h | 26184m | 5.5m/s | -47.7°C | 2.7% | 22.2hPa | 2.7V | 03:40:05 | 01:42:32 | 00:00:00 | |
| AA1-15 | 2026-09-01 12:11:46 | 52.89316 | 10.79501 | 287° | 13km/h | 26202m | 5.7m/s | -47.6°C | 0% | 22.1hPa | 2.6V | 03:40:37 | 01:42:35 | 00:00:00 | |
| EDDB2-11 | 2026-09-01 12:11:45 | 52.89314 | 10.79506 | 294° | 13km/h | 26196m | 6.9m/s | -47.6°C | 0.4% | 22.2hPa | 2.6V | 00:00:00 | 00:00:00 | 00:00:00 | |
| DL1XH1-15 | 2026-09-01 12:11:44 | 52.89313 | 10.79511 | 305° | 13km/h | 26190m | 5.7m/s | -47.6°C | 2.8% | 22.2hPa | 2.6V | 03:40:04 | 01:42:33 | 00:00:00 | |
| BUE01 | 2026-09-01 12:11:44 | 52.89314 | 10.79506 | 294° | 13km/h | 26196m | 6.9m/s | -47.6°C | 0.4% | 22.2hPa | 2.7V | 00:00:00 | 00:00:00 | 00:00:00 | |
| BIOWL1-15 | 2026-09-01 12:11:42 | 52.89311 | 10.79515 | 309° | 13km/h | 26184m | 5.5m/s | -47.7°C | 0% | 22.2hPa | 2.7V | 03:40:37 | 01:42:32 | 00:00:00 | |
| DF8AY | 2026-09-01 12:11:42 | 52.89309 | 10.79519 | 310° | 9km/h | 26178m | 6.6m/s | -47.7°C | 0% | 22.3hPa | 2.7V | 03:40:37 | 01:42:31 | 00:00:00 | |
| DB0DAN | 2026-09-01 12:11:40 | 52.89308 | 10.79521 | 300° | 5km/h | 26171m | 6.7m/s | -47.7°C | 0.4% | 22.29hPa | 2.7V | 00:00:00 | 00:00:00 | 00:00:00 | |
| DL1NUX | 2026-09-01 12:11:39 | 52.89299 | 10.79526 | 336° | 11km/h | 26136m | 3.8m/s | -47.8°C | 2.7% | 22.4hPa | 2.7V | 03:40:13 | 01:42:24 | 00:00:00 | |
| DL1XH1-15 | 2026-09-01 12:11:38 | 52.89297 | 10.79528 | 327° | 9km/h | 26130m | 7m/s | -47.8°C | 2.7% | 22.4hPa | 2.7V | 03:40:14 | 01:42:23 | 00:00:00 | |
| AA1-15 | 2026-09-01 12:11:35 | 52.89302 | 10.79524 | 347° | 13km/h | 26140m | 5.4m/s | -47.8°C | 0% | 22.4hPa | 2.7V | 03:40:37 | 01:42:25 | 00:00:00 | |
| DO2SHX-10 | 2026-09-01 12:11:35 | 52.89302 | 10.79524 | 347° | 11km/h | 26141m | 5.3m/s | -47.7°C | 2.7% | 22.3hPa | 2.7V | 00:00:00 | 01:42:25 | 00:00:00 | |
| DM0DOS-11 | 2026-09-01 12:11:34 | 52.89295 | 10.79530 | 299° | 7km/h | 26123m | 8m/s | -47.5°C | 2.7% | 22.4hPa | 2.7V | 03:40:15 | 01:42:22 | 00:00:00 | |
| BIOWL1-15 | 2026-09-01 12:11:32 | 52.89291 | 10.79546 | 287° | 11km/h | 26098m | 4m/s | -47.3°C | 0% | 22.5hPa | 2.7V | 03:40:37 | 01:42:18 | 00:00:00 | |
| DF8AY | 2026-09-01 12:11:31 | 52.89293 | 10.79537 | 289° | 11km/h | 26111m | 6.1m/s | -47.4°C | 0% | 22.5hPa | 2.6V | 03:40:37 | 01:42:20 | 00:00:00 | |
| DL3AQ-11 | 2026-09-01 12:11:31 | 52.89293 | 10.79537 | 288° | 9km/h | 26111m | 6.1m/s | -47.4°C | 0.4% | 22.5hPa | 2.6V | 00:00:00 | 00:00:00 | 00:00:00 | |
| SP3BTT-10 | 2026-09-01 12:11:30 | 52.89293 | 10.79537 | 289° | 9km/h | 26112m | 6.0m/s | -47.4°C | 2.6% | 22.4hPa | 2.6V | 00:00:00 | 00:00:00 | 00:00:00 | |
| DL4XJ-10 | 2026-09-01 12:11:29 | 52.89292 | 10.79542 | 297° | 9km/h | 26104m | 8.1m/s | -46.4°C | 0% | 0hPa | 2.6V | 00:00:00 | 00:00:00 | 00:00:00 | |
| DF8AY-15 | 2026-09-01 12:11:28 | 52.89291 | 10.79546 | 287° | 9km/h | 26098m | 3.9m/s | -47.2°C | 2.6% | 22.5hPa | 2.6V | 00:00:00 | 01:42:18 | 00:00:00 | |
| DL1XH1-15 | 2026-09-01 12:11:27 | 52.89295 | 10.79561 | 206° | 5km/h | 26068m | 7.3m/s | -47.4°C | 2.6% | 22.6hPa | 2.6V | 03:40:24 | 01:42:13 | 00:00:00 | |
| DL1XH-west | 2026-09-01 12:11:25 | 52.89294 | 10.79560 | 208° | 7km/h | 26074m | 4.7m/s | -47.4°C | 0% | 22.6hPa | 2.6V | 03:40:37 | 01:42:14 | 00:00:00 | |
| DB0DAN | 2026-09-01 12:11:25 | 52.89292 | 10.79558 | 220° | 9km/h | 26080m | 6.6m/s | -47.3°C | 0.4% | 22.57hPa | 2.7V | 00:00:00 | 00:00:00 | 00:00:00 | |
| AA1-15 | 2026-09-01 12:11:25 | 52.89292 | 10.79558 | 220° | 9km/h | 26080m | 6.6m/s | -47.3°C | 0% | 22.6hPa | 2.7V | 03:40:37 | 01:42:15 | 00:00:00 | |
| SO1NDE-10 | 2026-09-01 12:11:25 | 52.89292 | 10.79558 | 220° | 7km/h | 26080m | 6.6m/s | -47.3°C | 2.6% | 22.5hPa | 2.6V | 00:00:00 | 01:42:15 | 00:00:00 | |
| DL1XH-15 | 2026-09-01 12:11:23 | 52.89296 | 10.79562 | 279° | 2km/h | 26060m | 7.9m/s | -47.4°C | 2.6% | 22.6hPa | 2.6V | 03:40:25 | 01:42:12 | 00:00:00 | |
| BIOWL1-15 | 2026-09-01 12:11:21 | 52.89294 | 10.79577 | 286° | 13km/h | 26017m | 5.6m/s | -47.6°C | 0% | 22.8hPa | 2.6V | 03:40:37 | 01:42:05 | 00:00:00 | |
| DF8AY | 2026-09-01 12:11:21 | 52.89295 | 10.79564 | 250° | 4km/h | 26042m | 8.1m/s | -47.4°C | 0% | 22.7hPa | 2.7V | 03:40:37 | 01:42:09 | 00:00:00 | |
| DL3AQ-11 | 2026-09-01 12:11:20 | 52.89295 | 10.79564 | 249° | 2km/h | 26042m | 8.1m/s | -47.4°C | 0.4% | 22.7hPa | 2.7V | 00:00:00 | 00:00:00 | 00:00:00 | |
| DL1NUX | 2026-09-01 12:11:19 | 52.89294 | 10.79588 | 256° | 11km/h | 26005m | 7.3m/s | -47.6°C | 2.6% | 22.8hPa | 2.7V | 03:40:34 | 01:42:03 | 00:00:00 | |
| DL1XH-west | 2026-09-01 12:11:15 | 52.89294 | 10.79588 | 257° | 11km/h | 26005m | 7.3m/s | -47.6°C | 0% | 22.8hPa | 2.7V | 03:40:37 | 01:42:03 | 00:00:00 | |
| AA1-15 | 2026-09-01 12:11:15 | 52.89293 | 10.79583 | 274° | 13km/h | 26012m | 5.3m/s | -47.6°C | 0% | 22.8hPa | 2.7V | 03:40:37 | 01:42:04 | 00:00:00 | |
| BIOWL1-15 | 2026-09-01 12:11:10 | 52.89301 | 10.79599 | 199° | 7km/h | 25981m | 6.4m/s | -47.7°C | 0% | 22.9hPa | 2.6V | 03:41:28 | 01:41:59 | 00:00:00 | |
| DB0DAN | 2026-09-01 12:11:10 | 52.89300 | 10.79597 | 207° | 9km/h | 25987m | 6.3m/s | -47.6°C | 0.4% | 22.93hPa | 2.6V | 00:00:00 | 00:00:00 | 00:00:00 | |
| DF8AY | 2026-09-01 12:11:09 | 52.89303 | 10.79599 | 160° | 4km/h | 25975m | 5.4m/s | -47.8°C | 0% | 22.9hPa | 2.6V | 03:41:28 | 01:41:58 | 00:00:00 | |
| DL4XJ-10 | 2026-09-01 12:11:09 | 52.89301 | 10.79599 | 200° | 11km/h | 25981m | 6.3m/s | -46.7°C | 0% | 0hPa | 2.7V | 00:00:00 | 00:00:00 | 00:00:00 | |
| MECKS9 | 2026-09-01 12:11:08 | 52.89303 | 10.79599 | 161° | 4km/h | 25975m | 5.4m/s | -47.8°C | 0.4% | 23.0hPa | 2.7V | 03:41:00 | 00:00:00 | 00:00:00 | |
| DL1NUX | 2026-09-01 12:11:06 | 52.89308 | 10.79591 | 153° | 9km/h | 25951m | 5.1m/s | -48.1°C | 2.7% | 23hPa | 2.7V | 03:40:43 | 01:41:54 | 00:00:00 | |
| AA1-15 | 2026-09-01 12:11:04 | 52.89310 | 10.79590 | 169° | 7km/h | 25945m | 5.9m/s | -48.2°C | 0% | 23hPa | 2.6V | 03:41:28 | 01:41:53 | 00:00:00 | |
| DL1XH-15 | 2026-09-01 12:11:03 | 52.89311 | 10.79591 | 213° | 5km/h | 25939m | 6.5m/s | -48.3°C | 2.7% | 23.1hPa | 2.6V | 03:40:45 | 01:41:52 | 00:00:00 | |
| BIOWL1-15 | 2026-09-01 12:11:03 | 52.89315 | 10.79597 | 145° | 15km/h | 25903m | 6m/s | -48.3°C | 0% | 23.2hPa | 2.6V | 03:41:28 | 01:41:46 | 00:00:00 | |
| DO2SHX-10 | 2026-09-01 12:11:02 | 52.89311 | 10.79590 | 214° | 7km/h | 25940m | 6.5m/s | -48.2°C | 2.7% | 23.0hPa | 2.7V | 00:00:00 | 01:41:52 | 00:00:00 | |
| GOEST3-10 | 2026-09-01 12:11:01 | 52.89312 | 10.79592 | 270° | 7km/h | 25933m | 6.5m/s | -48.2°C | 2.7% | 23.1hPa | 2.7V | 00:00:00 | 00:00:00 | 00:00:00 | |
| SP3BTT-10 | 2026-09-01 12:11:00 | 52.89312 | 10.79596 | 285° | 18km/h | 25927m | 6.3m/s | -48.1°C | 2.7% | 23.1hPa | 2.7V | 00:00:00 | 00:00:00 | 00:00:00 | |
| DL1NUX | 2026-09-01 12:10:59 | 52.89322 | 10.79588 | 137° | 18km/h | 25891m | 7.4m/s | -48.4°C | 2.7% | 23.2hPa | 2.7V | 03:40:53 | 01:41:44 | 00:00:00 | |
| DF8AY | 2026-09-01 12:10:58 | 52.89313 | 10.79600 | 152° | 7km/h | 25910m | 7.1m/s | -48.3°C | 0% | 23.2hPa | 2.6V | 03:41:28 | 01:41:47 | 00:00:00 | |
| SMARD9-15 | 2026-09-01 12:10:57 | 52.89315 | 10.79597 | 144° | 13km/h | 25903m | 6.0m/s | -48.3°C | 0.4% | 23.2hPa | 2.7V | 00:00:00 | 00:00:00 | 00:00:00 | |
| DB0DAN | 2026-09-01 12:10:55 | 52.89318 | 10.79593 | 139° | 16km/h | 25897m | 5.6m/s | -48.3°C | 0.4% | 23.2hPa | 2.7V | 00:00:00 | 00:00:00 | 00:00:00 | |
| AA1-15 | 2026-09-01 12:10:53 | 52.89325 | 10.79583 | 134° | 16km/h | 25884m | 6.1m/s | -48.4°C | 0% | 23.3hPa | 2.7V | 03:41:28 | 01:41:43 | 00:00:00 | |
| DF8AY | 2026-09-01 12:10:47 | 52.89333 | 10.79548 | 53° | 11km/h | 25848m | 7.6m/s | -48.5°C | 0% | 23.4hPa | 2.6V | 03:41:28 | 01:41:37 | 00:00:00 | |
| EDDB2-12 | 2026-09-01 12:10:47 | 52.89331 | 10.79545 | 25° | 11km/h | 25842m | 5.7m/s | -48.5°C | 0.4% | 23.4hPa | 2.7V | 00:00:00 | 00:00:00 | 00:00:00 | |
| SONDE2-11 | 2026-09-01 12:10:46 | 52.89328 | 10.79543 | 21° | 11km/h | 25837m | 4.4m/s | -48.4°C | 0.4% | 23.4hPa | 2.7V | 00:00:00 | 00:00:00 | 00:00:00 | |
| DL1NUX | 2026-09-01 12:10:45 | 52.89326 | 10.79541 | 37° | 11km/h | 25831m | 5.9m/s | -48.5°C | 2.7% | 23.5hPa | 2.7V | 03:41:03 | 01:41:34 | 00:00:00 | |
| DL1XH1-15 | 2026-09-01 12:10:45 | 52.89324 | 10.79537 | 67° | 11km/h | 25825m | 6.8m/s | -48.6°C | 2.7% | 23.5hPa | 2.7V | 03:41:04 | 01:41:33 | 00:00:00 | |
| AA1-15 | 2026-09-01 12:10:43 | 52.89325 | 10.79527 | 109° | 16km/h | 25813m | 5.2m/s | -48.6°C | 0% | 23.6hPa | 2.7V | 03:41:28 | 01:41:31 | 00:00:00 | |
| DL1LOL-11 | 2026-09-01 12:10:43 | 52.89324 | 10.79537 | 69° | 11km/h | 25825m | 6.8m/s | -48.6°C | 0.4% | 23.5hPa | 2.6V | 00:00:00 | 00:00:00 | 00:00:00 | |
| DB0DAN | 2026-09-01 12:10:40 | 52.89326 | 10.79520 | 112° | 15km/h | 25807m | 6m/s | -48.7°C | 0.4% | 23.56hPa | 2.6V | 00:00:00 | 00:00:00 | 00:00:00 | |
| DJ2DS-15 | 2026-09-01 12:10:40 | 52.89328 | 10.79515 | 115° | 13km/h | 25801m | 6.3m/s | -48.8°C | 0.4% | 23.6hPa | 2.7V | 00:00:00 | 00:00:00 | 00:00:00 | |
| DL1NUX | 2026-09-01 12:10:39 | 52.89330 | 10.79496 | 80° | 13km/h | 25774m | 5.8m/s | -48.8°C | 2.9% | 23.7hPa | 2.7V | 03:41:13 | 01:41:24 | 00:00:00 | |
| DL1XH1-15 | 2026-09-01 12:10:38 | 52.89326 | 10.79485 | 43° | 18km/h | 25763m | 5.4m/s | -48.8°C | 2.8% | 23.7hPa | 2.6V | 03:41:15 | 01:41:22 | 00:00:00 | |
| DF8AY | 2026-09-01 12:10:37 | 52.89329 | 10.79507 | 108° | 7km/h | 25790m | 4.5m/s | -48.8°C | 0% | 23.6hPa | 2.7V | 03:41:28 | 01:41:27 | 00:00:00 | |
| DM0DOS-11 | 2026-09-01 12:10:37 | 52.89322 | 10.79480 | 32° | 22km/h | 25757m | 7.3m/s | -48.8°C | 2.8% | 23.7hPa | 2.6V | 03:41:16 | 01:41:21 | 00:00:00 | |
| BIOWL1-15 | 2026-09-01 12:10:36 | 52.89330 | 10.79504 | 99° | 7km/h | 25785m | 5.8m/s | -48.8°C | 0% | 23.6hPa | 2.7V | 03:41:28 | 01:41:26 | 00:00:00 | |
| DL1XH-west | 2026-09-01 12:10:34 | 52.89317 | 10.79475 | 25° | 24km/h | 25750m | 6.6m/s | -48.9°C | 0% | 23.8hPa | 2.7V | 03:41:28 | 01:41:20 | 00:00:00 | |
| AA1-15 | 2026-09-01 12:10:32 | 52.89322 | 10.79480 | 33° | 22km/h | 25757m | 7.3m/s | -48.8°C | 0% | 23.8hPa | 2.6V | 03:41:28 | 01:41:21 | 00:00:00 | |
| DF8AY | 2026-09-01 12:10:26 | 52.89300 | 10.79452 | 65° | 16km/h | 25727m | 4.3m/s | -48.8°C | 0% | 23.9hPa | 2.6V | 03:41:28 | 01:41:16 | 00:00:00 | |
| DM0DOS-11 | 2026-09-01 12:10:26 | 52.89296 | 10.79435 | 87° | 7km/h | 25703m | 5.2m/s | -48.9°C | 2.8% | 23.9hPa | 2.7V | 03:41:25 | 01:41:12 | 00:00:00 | |
| BIOWL1-15 | 2026-09-01 12:10:26 | 52.89297 | 10.79438 | 71° | 7km/h | 25709m | 4.8m/s | -48.9°C | 0% | 23.9hPa | 2.7V | 03:41:28 | 01:41:13 | 00:00:00 | |
| DL1NUX | 2026-09-01 12:10:26 | 52.89297 | 10.79442 | 66° | 9km/h | 25715m | 7.2m/s | -49°C | 2.8% | 23.9hPa | 2.6V | 03:41:23 | 01:41:14 | 00:00:00 | |
| DB0DAN | 2026-09-01 12:10:25 | 52.89299 | 10.79446 | 69° | 13km/h | 25721m | 5.8m/s | -48.9°C | 0.4% | 23.88hPa | 2.6V | 00:00:00 | 00:00:00 | 00:00:00 | |
| DL1XH-west | 2026-09-01 12:10:22 | 52.89296 | 10.79427 | 86° | 9km/h | 25691m | 4.7m/s | -48.8°C | 0% | 24hPa | 2.7V | 03:41:28 | 01:41:10 | 00:00:00 | |
| AA1-15 | 2026-09-01 12:10:22 | 52.89296 | 10.79431 | 90° | 9km/h | 25697m | 7.6m/s | -49°C | 0% | 24hPa | 2.7V | 03:41:28 | 01:41:11 | 00:00:00 | |
| AM1SDL-15 | 2026-09-01 12:10:21 | 52.89296 | 10.79427 | 86° | 16km/h | 25692m | 4.7m/s | -48.8°C | 2.8% | 23.9hPa | 2.7V | 00:00:00 | 01:41:10 | 00:00:00 | |
| DD8BA-10 | 2026-09-01 12:10:20 | 52.89296 | 10.79427 | 86° | 16km/h | 25692m | 4.7m/s | -48.8°C | 2.8% | 23.9hPa | 2.7V | 00:00:00 | 00:00:00 | 00:00:00 | |
| DL1NUX | 2026-09-01 12:10:19 | 52.89272 | 10.79425 | 6° | 20km/h | 25648m | 5.1m/s | -48.8°C | 2.8% | 24.2hPa | 2.7V | 03:41:34 | 01:41:03 | 00:00:00 | |
| DO2SHX-10 | 2026-09-01 12:10:19 | 52.89295 | 10.79424 | 53° | 11km/h | 25687m | 4.3m/s | -48.9°C | 2.8% | 24.0hPa | 2.6V | 03:41:00 | 01:41:09 | 00:00:00 | |
| DK7RCA | 2026-09-01 12:10:17 | 52.89294 | 10.79422 | 16° | 9km/h | 25682m | 7.4m/s | -49.0°C | 0.5% | 24.0hPa | 2.6V | 03:42:00 | 00:00:00 | 00:00:00 | |
| DL1XH-15 | 2026-09-01 12:10:16 | 52.89256 | 10.79423 | 359° | 22km/h | 25630m | 6m/s | -48.9°C | 2.8% | 24.2hPa | 2.6V | 03:41:37 | 01:41:00 | 00:00:00 | |
| DF8AY | 2026-09-01 12:10:15 | 52.89282 | 10.79425 | 354° | 20km/h | 25662m | 6.8m/s | -48.9°C | 0% | 24.1hPa | 2.7V | 03:42:19 | 01:41:05 | 00:00:00 | |
| SONDE2-11 | 2026-09-01 12:10:15 | 52.89277 | 10.79425 | 2° | 18km/h | 25655m | 7.6m/s | -48.9°C | 0.4% | 24.1hPa | 2.6V | 00:00:00 | 00:00:00 | 00:00:00 | |
| DM0DOS-11 | 2026-09-01 12:10:14 | 52.89267 | 10.79424 | 5° | 22km/h | 25643m | 5.4m/s | -48.8°C | 2.8% | 24.2hPa | 2.6V | 03:41:35 | 01:41:02 | 00:00:00 | |
| BIOWL1-15 | 2026-09-01 12:10:14 | 52.89232 | 10.79428 | 327° | 22km/h | 25589m | 6.2m/s | -49°C | 0% | 24.4hPa | 2.6V | 03:42:19 | 01:40:53 | 00:00:00 | |
| DL1XH-west | 2026-09-01 12:10:12 | 52.89236 | 10.79423 | 329° | 15km/h | 25596m | 7m/s | -49.1°C | 0% | 24.3hPa | 2.6V | 03:42:19 | 01:40:54 | 00:00:00 | |
| AA1-15 | 2026-09-01 12:10:11 | 52.89255 | 10.79423 | 359° | 22km/h | 25630m | 6m/s | -48.9°C | 0% | 24.2hPa | 2.6V | 03:42:19 | 01:41:00 | 00:00:00 | |
| DB0DAN | 2026-09-01 12:10:10 | 52.89255 | 10.79423 | 359° | 20km/h | 25630m | 6m/s | -48.9°C | 0.4% | 24.24hPa | 2.6V | 00:00:00 | 00:00:00 | 00:00:00 | |
| DL1ZP-14 | 2026-09-01 12:10:10 | 52.89250 | 10.79423 | 1° | 16km/h | 25625m | 5.7m/s | -48.9°C | 0.4% | 24.2hPa | 2.7V | 00:00:00 | 00:00:00 | 00:00:00 | |
| DL4XJ-10 | 2026-09-01 12:10:09 | 52.89250 | 10.79423 | 2° | 22km/h | 25625m | 5.6m/s | -48.0°C | 0% | 0hPa | 2.7V | 00:00:00 | 00:00:00 | 00:00:00 | |
| DM0DOS-11 | 2026-09-01 12:10:08 | 52.89220 | 10.79439 | 335° | 29km/h | 25577m | 6.5m/s | -49.1°C | 2.8% | 24.4hPa | 2.7V | 03:41:46 | 01:40:51 | 00:00:00 | |
| DF8AY | 2026-09-01 12:10:05 | 52.89239 | 10.79421 | 340° | 9km/h | 25601m | 5.3m/s | -49.1°C | 0% | 24.3hPa | 2.6V | 03:42:19 | 01:40:55 | 00:00:00 | |
| DO2SHX-10 | 2026-09-01 12:10:04 | 52.89236 | 10.79423 | 329° | 22km/h | 25596m | 7.0m/s | -49.0°C | 2.9% | 24.3hPa | 2.7V | 00:00:00 | 01:40:54 | 00:00:00 | |
| DL1XH-15 | 2026-09-01 12:10:02 | 52.89220 | 10.79439 | 335° | 29km/h | 25577m | 6.5m/s | -49.1°C | 2.8% | 24.4hPa | 2.7V | 03:41:46 | 01:40:51 | 00:00:00 | |
| DL1XH1-15 | 2026-09-01 12:10:01 | 52.89190 | 10.79453 | 343° | 33km/h | 25554m | 6.4m/s | -49.1°C | 2.8% | 24.5hPa | 2.6V | 03:41:50 | 01:40:47 | 00:00:00 | |
| BIOWL1-15 | 2026-09-01 12:10:01 | 52.89220 | 10.79439 | 336° | 29km/h | 25577m | 6.5m/s | -49.1°C | 0% | 24.4hPa | 2.7V | 03:42:19 | 01:40:51 | 00:00:00 | |
| AA1-15 | 2026-09-01 12:10:00 | 52.89206 | 10.79446 | 349° | 33km/h | 25565m | 5.2m/s | -49.1°C | 0% | 24.4hPa | 2.7V | 03:42:19 | 01:40:49 | 00:00:00 | |
| DL1XH-west | 2026-09-01 12:09:57 | 52.89190 | 10.79453 | 344° | 33km/h | 25554m | 6.4m/s | -49.1°C | 0% | 24.5hPa | 2.6V | 03:42:19 | 01:40:47 | 00:00:00 | |
| BIOWL9-15 | 2026-09-01 12:09:57 | 52.89182 | 10.79457 | 338° | 31km/h | 25548m | 5.9m/s | -49.1°C | 0.4% | 24.5hPa | 2.6V | 00:00:00 | 00:00:00 | 00:00:00 | |
| DM0DOS-11 | 2026-09-01 12:09:56 | 52.89161 | 10.79474 | 337° | 15km/h | 25525m | 5.4m/s | -49°C | 2.8% | 24.6hPa | 2.6V | 03:41:55 | 01:40:42 | 00:00:00 | |
| DB0DAN | 2026-09-01 12:09:55 | 52.89175 | 10.79462 | 335° | 27km/h | 25542m | 4.8m/s | -49.1°C | 0.4% | 24.54hPa | 2.7V | 00:00:00 | 00:00:00 | 00:00:00 | |
| BIOWL1-15 | 2026-09-01 12:09:50 | 52.89154 | 10.79479 | 332° | 16km/h | 25515m | 5.6m/s | -49.2°C | 0% | 24.7hPa | 2.7V | 03:42:19 | 01:40:40 | 00:00:00 | |
| DL1XH1-15 | 2026-09-01 12:09:50 | 52.89138 | 10.79494 | 331° | 29km/h | 25498m | 4.5m/s | -49.3°C | 2.9% | 24.8hPa | 2.6V | 03:42:00 | 01:40:37 | 00:00:00 | |
| AA1-15 | 2026-09-01 12:09:49 | 52.89144 | 10.79489 | 328° | 27km/h | 25503m | 5.2m/s | -49.3°C | 0% | 24.7hPa | 2.7V | 03:42:19 | 01:40:38 | 00:00:00 | |
| DL1XH-west | 2026-09-01 12:09:47 | 52.89138 | 10.79495 | 332° | 29km/h | 25498m | 4.5m/s | -49.3°C | 0% | 24.8hPa | 2.6V | 03:42:19 | 01:40:37 | 00:00:00 | |
| DL1XH-15 | 2026-09-01 12:09:46 | 52.89107 | 10.79521 | 305° | 18km/h | 25466m | 5.8m/s | -49.4°C | 2.9% | 24.8hPa | 2.6V | 03:42:06 | 01:40:31 | 00:00:00 | |
| DO2SHX-10 | 2026-09-01 12:09:46 | 52.89131 | 10.79500 | 336° | 27km/h | 25494m | 5.5m/s | -49.3°C | 2.9% | 24.7hPa | 2.7V | 00:00:00 | 01:40:36 | 00:00:00 | |
| DL1NUX | 2026-09-01 12:09:45 | 52.89118 | 10.79508 | 341° | 22km/h | 25482m | 5.1m/s | -49.4°C | 2.9% | 24.8hPa | 2.7V | 03:42:03 | 01:40:34 | 00:00:00 | |
| EDDB2-12 | 2026-09-01 12:09:45 | 52.89118 | 10.79508 | 341° | 22km/h | 25482m | 5.1m/s | -49.4°C | 0.5% | 24.8hPa | 2.6V | 00:00:00 | 00:00:00 | 00:00:00 | |
| SONDE2-11 | 2026-09-01 12:09:44 | 52.89114 | 10.79512 | 334° | 18km/h | 25477m | 5.2m/s | -49.4°C | 0.5% | 24.8hPa | 2.6V | 00:00:00 | 00:00:00 | 00:00:00 | |
| HTAHTA | 2026-09-01 12:09:43 | 52.89110 | 10.79515 | 320° | 16km/h | 25472m | 5.6m/s | -49.5°C | 0.5% | 24.8hPa | 2.6V | 00:00:00 | 00:00:00 | 00:00:00 | |
| DO3MHA-11 | 2026-09-01 12:09:41 | 52.89107 | 10.79521 | 306° | 20km/h | 25467m | 5.8m/s | -49.4°C | 2.9% | 24.8hPa | 2.6V | 00:00:00 | 01:40:31 | 00:00:00 | |
| DL1XH1-15 | 2026-09-01 12:09:40 | 52.89096 | 10.79546 | 319° | 16km/h | 25445m | 6.1m/s | -49.6°C | 3% | 24.9hPa | 2.7V | 03:42:10 | 01:40:27 | 00:00:00 | |
| DB0DAN | 2026-09-01 12:09:40 | 52.89104 | 10.79527 | 301° | 18km/h | 25461m | 4.6m/s | -49.5°C | 0.5% | 24.85hPa | 2.6V | 00:00:00 | 00:00:00 | 00:00:00 | |
| BIOWL1-15 | 2026-09-01 12:09:39 | 52.89102 | 10.79534 | 302° | 20km/h | 25456m | 4.5m/s | -49.5°C | 0% | 24.9hPa | 2.7V | 03:42:19 | 01:40:29 | 00:00:00 | |
| DL1NUX | 2026-09-01 12:09:39 | 52.89085 | 10.79560 | 321° | 24km/h | 25428m | 6.3m/s | -49.6°C | 3% | 25hPa | 2.6V | 03:42:13 | 01:40:24 | 00:00:00 | |
| DF8AY | 2026-09-01 12:09:38 | 52.89099 | 10.79541 | 307° | 18km/h | 25451m | 6.1m/s | -49.5°C | 0% | 24.9hPa | 2.7V | 03:42:19 | 01:40:28 | 00:00:00 | |
| AA1-15 | 2026-09-01 12:09:38 | 52.89096 | 10.79546 | 319° | 16km/h | 25445m | 6.1m/s | -49.6°C | 0% | 24.9hPa | 2.7V | 03:42:19 | 01:40:27 | 00:00:00 | |
| DL1XH-west | 2026-09-01 12:09:36 | 52.89089 | 10.79554 | 325° | 20km/h | 25434m | 5.4m/s | -49.6°C | 0% | 24.9hPa | 2.6V | 03:42:19 | 01:40:25 | 00:00:00 | |
| GOEST3-10 | 2026-09-01 12:09:36 | 52.89093 | 10.79550 | 326° | 22km/h | 25440m | 5.3m/s | -49.5°C | 2.9% | 24.9hPa | 2.7V | 00:00:00 | 01:40:26 | 00:00:00 | |
| DM0DOS-11 | 2026-09-01 12:09:35 | 52.89075 | 10.79574 | 315° | 27km/h | 25417m | 5.3m/s | -49.6°C | 3% | 25hPa | 2.7V | 03:42:15 | 01:40:22 | 00:00:00 | |
| DO2SHX-10 | 2026-09-01 12:09:34 | 52.89085 | 10.79560 | 322° | 26km/h | 25429m | 6.2m/s | -49.6°C | 3.0% | 24.9hPa | 2.6V | 00:00:00 | 01:40:24 | 00:00:00 | |
| AM1SDL-15 | 2026-09-01 12:09:32 | 52.89075 | 10.79574 | 316° | 15km/h | 25417m | 5.2m/s | -49.6°C | 3.0% | 25.0hPa | 2.7V | 00:00:00 | 01:40:22 | 00:00:00 | |
| DF7ER-10 | 2026-09-01 12:09:31 | 52.89071 | 10.79581 | 317° | 24km/h | 25411m | 6.0m/s | -49.5°C | 0.5% | 25.1hPa | 2.6V | 03:42:00 | 00:00:00 | 00:00:00 | |
| DL1XH1-15 | 2026-09-01 12:09:30 | 52.89062 | 10.79602 | 273° | 13km/h | 25391m | 6.5m/s | -49.4°C | 3% | 25.1hPa | 2.6V | 03:42:20 | 01:40:17 | 00:00:00 | |
| BIOWL1-15 | 2026-09-01 12:09:29 | 52.89064 | 10.79621 | 255° | 7km/h | 25367m | 6.9m/s | -49.3°C | 0% | 25.2hPa | 2.7V | 03:43:10 | 01:40:13 | 00:00:00 | |
| DF8AY | 2026-09-01 12:09:27 | 52.89062 | 10.79602 | 273° | 13km/h | 25391m | 6.5m/s | -49.4°C | 0% | 25.2hPa | 2.6V | 03:43:10 | 01:40:17 | 00:00:00 | |
| AA1-15 | 2026-09-01 12:09:26 | 52.89062 | 10.79608 | 260° | 15km/h | 25385m | 6.1m/s | -49.4°C | 0% | 25.1hPa | 2.6V | 03:43:10 | 01:40:16 | 00:00:00 | |
| DL1XH-15 | 2026-09-01 12:09:26 | 52.89064 | 10.79626 | 277° | 7km/h | 25357m | 5.1m/s | -49.3°C | 2.9% | 25.3hPa | 2.6V | 03:42:26 | 01:40:11 | 00:00:00 | |
| GOEST3-10 | 2026-09-01 12:09:26 | 52.89062 | 10.79608 | 261° | 9km/h | 25385m | 6.1m/s | -49.4°C | 2.9% | 25.1hPa | 2.7V | 00:00:00 | 01:40:16 | 00:00:00 | |
| DL1NUX | 2026-09-01 12:09:25 | 52.89064 | 10.79618 | 245° | 9km/h | 25373m | 6.5m/s | -49.4°C | 2.9% | 25.2hPa | 2.7V | 03:42:23 | 01:40:14 | 00:00:00 | |
| DB0DAN | 2026-09-01 12:09:25 | 52.89063 | 10.79613 | 253° | 13km/h | 25379m | 4.9m/s | -49.4°C | 0.4% | 25.19hPa | 2.7V | 00:00:00 | 00:00:00 | 00:00:00 | |
| DL1XH-west | 2026-09-01 12:09:24 | 52.89064 | 10.79618 | 245° | 9km/h | 25373m | 6.5m/s | -49.4°C | 0% | 25.2hPa | 2.7V | 03:43:10 | 01:40:14 | 00:00:00 | |
| MECKS9 | 2026-09-01 12:09:24 | 52.89064 | 10.79618 | 246° | 9km/h | 25374m | 6.5m/s | -49.4°C | 0.4% | 25.2hPa | 2.6V | 00:00:00 | 00:00:00 | 00:00:00 | |
| DB0NH | 2026-09-01 12:09:23 | 52.89064 | 10.79621 | 255° | 11km/h | 25367m | 6.8m/s | -49.3°C | 3.0% | 25.2hPa | 2.6V | 00:00:00 | 01:40:13 | 00:00:00 | |
| DO2SHX-10 | 2026-09-01 12:09:22 | 52.89064 | 10.79623 | 275° | 7km/h | 25362m | 4.2m/s | -49.3°C | 2.9% | 25.2hPa | 2.6V | 00:00:00 | 01:40:12 | 00:00:00 | |
| AM1SDL-15 | 2026-09-01 12:09:21 | 52.89064 | 10.79630 | 279° | 13km/h | 25351m | 7.2m/s | -49.2°C | 2.9% | 25.2hPa | 2.6V | 00:00:00 | 01:40:10 | 00:00:00 | |
| DL3AQ-11 | 2026-09-01 12:09:20 | 52.89064 | 10.79636 | 276° | 15km/h | 25344m | 5.5m/s | -49.2°C | 0.4% | 25.3hPa | 2.6V | 00:00:00 | 00:00:00 | 00:00:00 | |
| DL1NUX | 2026-09-01 12:09:19 | 52.89061 | 10.79664 | 262° | 15km/h | 25316m | 6.8m/s | -49.1°C | 2.9% | 25.4hPa | 2.6V | 03:42:33 | 01:40:04 | 00:00:00 | |
| DO2SHX-10 | 2026-09-01 12:09:19 | 52.89064 | 10.79636 | 277° | 15km/h | 25345m | 5.4m/s | -49.2°C | 2.9% | 25.3hPa | 2.7V | 03:42:00 | 01:40:09 | 00:00:00 | |
| DL1XH1-15 | 2026-09-01 12:09:18 | 52.89063 | 10.79648 | 283° | 15km/h | 25333m | 6.9m/s | -49.2°C | 2.9% | 25.4hPa | 2.7V | 03:42:30 | 01:40:07 | 00:00:00 | |
| BIOWL1-15 | 2026-09-01 12:09:17 | 52.89063 | 10.79648 | 284° | 15km/h | 25333m | 6.9m/s | -49.2°C | 0% | 25.4hPa | 2.7V | 03:43:10 | 01:40:07 | 00:00:00 | |
| AA1-15 | 2026-09-01 12:09:16 | 52.89061 | 10.79658 | 275° | 13km/h | 25322m | 4.6m/s | -49.2°C | 0% | 25.4hPa | 2.7V | 03:43:10 | 01:40:05 | 00:00:00 | |
| DL1XH-west | 2026-09-01 12:09:14 | 52.89065 | 10.79675 | 232° | 16km/h | 25304m | 4.7m/s | -49.1°C | 0% | 25.5hPa | 2.6V | 03:43:10 | 01:40:02 | 00:00:00 | |
| EDDB2-12 | 2026-09-01 12:09:14 | 52.89063 | 10.79670 | 247° | 16km/h | 25310m | 6.1m/s | -49.2°C | 0.4% | 25.4hPa | 2.7V | 00:00:00 | 00:00:00 | 00:00:00 | |
| DL1XH-15 | 2026-09-01 12:09:13 | 52.89067 | 10.79680 | 215° | 13km/h | 25299m | 5.8m/s | -49.2°C | 2.9% | 25.5hPa | 2.7V | 03:42:36 | 01:40:01 | 00:00:00 | |
| SONDE2-11 | 2026-09-01 12:09:13 | 52.89065 | 10.79675 | 231° | 15km/h | 25304m | 4.7m/s | -49.1°C | 0.5% | 25.5hPa | 2.7V | 00:00:00 | 00:00:00 | 00:00:00 | |
| DL2RXE-15 | 2026-09-01 12:09:12 | 52.89064 | 10.79675 | 233° | 16km/h | 25304m | 4.7m/s | -49.1°C | 0.5% | 25.5hPa | 2.7V | 03:43:00 | 00:00:00 | 00:00:00 | |
| DB0DAN | 2026-09-01 12:09:10 | 52.89070 | 10.79682 | 197° | 11km/h | 25293m | 6.5m/s | -49.1°C | 0.4% | 25.52hPa | 2.7V | 00:00:00 | 00:00:00 | 00:00:00 | |
| DB0DAN | 2026-09-01 12:09:10 | 52.89070 | 10.79682 | 197° | 11km/h | 25293m | 6.5m/s | -49.1°C | 0% | 0hPa | 2.7V | 00:00:00 | 00:00:00 | 00:00:00 | |
| DO2SHX-10 | 2026-09-01 12:09:10 | 52.89070 | 10.79682 | 197° | 9km/h | 25293m | 6.4m/s | -49.1°C | 2.9% | 25.5hPa | 2.7V | 00:00:00 | 01:40:00 | 00:00:00 | |
| DL1NUX | 2026-09-01 12:09:09 | 52.89081 | 10.79692 | 244° | 9km/h | 25262m | 4.6m/s | -49.2°C | 2.9% | 25.6hPa | 2.7V | 03:42:43 | 01:39:54 | 00:00:00 | |
| BUE01 | 2026-09-01 12:09:09 | 52.89075 | 10.79682 | 181° | 7km/h | 25283m | 4.2m/s | -49.1°C | 0.4% | 25.6hPa | 2.6V | 00:00:00 | 00:00:00 | 00:00:00 | |
| SONCRA | 2026-09-01 12:09:08 | 52.89077 | 10.79683 | 207° | 7km/h | 25278m | 6.6m/s | -49.2°C | 0.4% | 25.6hPa | 2.6V | 00:00:00 | 00:00:00 | 00:00:00 | |
| DM0DOS-11 | 2026-09-01 12:09:07 | 52.89082 | 10.79698 | 268° | 4km/h | 25251m | 5.8m/s | -49.2°C | 2.8% | 25.7hPa | 2.6V | 03:42:45 | 01:39:52 | 00:00:00 | |
| DF8AY | 2026-09-01 12:09:07 | 52.89077 | 10.79683 | 207° | 7km/h | 25278m | 6.6m/s | -49.2°C | 0% | 25.6hPa | 2.6V | 03:43:10 | 01:39:57 | 00:00:00 | |
| BIOWL1-15 | 2026-09-01 12:09:06 | 52.89078 | 10.79685 | 226° | 9km/h | 25272m | 5.7m/s | -49.2°C | 0% | 25.6hPa | 2.7V | 03:43:10 | 01:39:56 | 00:00:00 | |
| AA1-15 | 2026-09-01 12:09:05 | 52.89081 | 10.79692 | 244° | 9km/h | 25262m | 4.6m/s | -49.2°C | 0% | 25.6hPa | 2.7V | 03:43:10 | 01:39:54 | 00:00:00 | |
| DL1XH-west | 2026-09-01 12:09:03 | 52.89082 | 10.79696 | 249° | 7km/h | 25257m | 6.3m/s | -49.2°C | 0% | 25.6hPa | 2.6V | 03:43:10 | 01:39:53 | 00:00:00 | |
| DL1XH1-15 | 2026-09-01 12:09:02 | 52.89083 | 10.79703 | 225° | 11km/h | 25224m | 5.4m/s | -49.3°C | 2.9% | 25.8hPa | 2.6V | 03:42:50 | 01:39:47 | 00:00:00 | |
| MECKS9 | 2026-09-01 12:09:02 | 52.89082 | 10.79698 | 270° | 4km/h | 25251m | 5.9m/s | -49.2°C | 0.4% | 25.7hPa | 2.7V | 00:00:00 | 00:00:00 | 00:00:00 | |
| DO2SHX-10 | 2026-09-01 12:09:01 | 52.89082 | 10.79699 | 339° | 2km/h | 25245m | 5.1m/s | -49.1°C | 2.9% | 25.7hPa | 2.7V | 00:00:00 | 01:39:51 | 00:00:00 | |
| DD8BA-10 | 2026-09-01 12:08:59 | 52.89082 | 10.79699 | 239° | 15km/h | 25236m | 5.1m/s | -49.2°C | 2.9% | 25.7hPa | 2.7V | 00:00:00 | 00:00:00 | 00:00:00 | |
| DO2SHX-10 | 2026-09-01 12:08:58 | 52.89082 | 10.79700 | 237° | 11km/h | 25230m | 6.3m/s | -49.2°C | 2.9% | 25.7hPa | 2.6V | 00:00:00 | 01:39:48 | 00:00:00 | |
| DM0DOS-11 | 2026-09-01 12:08:57 | 52.89106 | 10.79697 | 139° | 20km/h | 25190m | 6m/s | -49.4°C | 3% | 25.9hPa | 2.6V | 03:42:56 | 01:39:41 | 00:00:00 | |
| DF8AY | 2026-09-01 12:08:56 | 52.89086 | 10.79706 | 211° | 15km/h | 25219m | 4.8m/s | -49.2°C | 0% | 25.8hPa | 2.6V | 03:43:10 | 01:39:46 | 00:00:00 | |
| BIOWL1-15 | 2026-09-01 12:08:56 | 52.89106 | 10.79697 | 139° | 20km/h | 25191m | 6m/s | -49.4°C | 0% | 25.9hPa | 2.6V | 03:43:10 | 01:39:41 | 00:00:00 | |
| DL1NUX | 2026-09-01 12:08:56 | 52.89093 | 10.79709 | 175° | 16km/h | 25208m | 6.8m/s | -49.3°C | 2.9% | 25.9hPa | 2.7V | 03:42:53 | 01:39:44 | 00:00:00 | |
| DB0DAN | 2026-09-01 12:08:55 | 52.89089 | 10.79709 | 196° | 15km/h | 25214m | 4.7m/s | -49.3°C | 0.4% | 25.84hPa | 2.7V | 00:00:00 | 00:00:00 | 00:00:00 | |
| AA1-15 | 2026-09-01 12:08:54 | 52.89098 | 10.79707 | 154° | 18km/h | 25202m | 6.6m/s | -49.4°C | 0% | 25.9hPa | 2.7V | 03:43:10 | 01:39:43 | 00:00:00 | |
| DL1XH-15 | 2026-09-01 12:08:53 | 52.89106 | 10.79697 | 139° | 20km/h | 25190m | 6m/s | -49.4°C | 3% | 25.9hPa | 2.6V | 03:42:56 | 01:39:41 | 00:00:00 | |
| DL1XH-west | 2026-09-01 12:08:52 | 52.89102 | 10.79703 | 142° | 20km/h | 25196m | 5.3m/s | -49.4°C | 0% | 25.9hPa | 2.7V | 03:43:10 | 01:39:42 | 00:00:00 | |
| DK7RCA | 2026-09-01 12:08:52 | 52.89102 | 10.79703 | 143° | 20km/h | 25196m | 5.3m/s | -49.4°C | 0.5% | 25.9hPa | 2.7V | 00:00:00 | 00:00:00 | 00:00:00 | |
| DL1XH1-15 | 2026-09-01 12:08:51 | 52.89117 | 10.79680 | 110° | 11km/h | 25168m | 6.6m/s | -49.4°C | 2.9% | 26hPa | 2.7V | 03:43:00 | 01:39:37 | 00:00:00 | |
| SP3WXH-11 | 2026-09-01 12:08:51 | 52.89110 | 10.79692 | 142° | 18km/h | 25184m | 5.9m/s | -49.3°C | 0.4% | 26.0hPa | 2.7V | 00:00:00 | 00:00:00 | 00:00:00 | |
| DL3AQ-11 | 2026-09-01 12:08:50 | 52.89110 | 10.79692 | 142° | 18km/h | 25184m | 5.9m/s | -49.3°C | 0.4% | 26.0hPa | 2.7V | 00:00:00 | 00:00:00 | 00:00:00 | |
| DF7ER-10 | 2026-09-01 12:08:49 | 52.89110 | 10.79692 | 144° | 18km/h | 25184m | 5.9m/s | -49.3°C | 0.5% | 26.0hPa | 2.7V | 03:43:00 | 00:00:00 | 00:00:00 | |
| DL1NUX | 2026-09-01 12:08:49 | 52.89119 | 10.79667 | 113° | 7km/h | 25151m | 6m/s | -49.3°C | 2.9% | 26.1hPa | 2.6V | 03:43:03 | 01:39:34 | 00:00:00 | |
| DO2SHX-10 | 2026-09-01 12:08:48 | 52.89115 | 10.79684 | 130° | 13km/h | 25174m | 4.6m/s | -49.2°C | 2.9% | 25.9hPa | 2.7V | 00:00:00 | 01:39:38 | 00:00:00 | |
| DL1XH-15 | 2026-09-01 12:08:46 | 52.89125 | 10.79663 | 164° | 13km/h | 25135m | 4.9m/s | -49.3°C | 2.9% | 26.1hPa | 2.7V | 03:43:06 | 01:39:31 | 00:00:00 | |
| DM0DOS-11 | 2026-09-01 12:08:46 | 52.89122 | 10.79664 | 172° | 11km/h | 25140m | 4.4m/s | -49.3°C | 2.9% | 26.1hPa | 2.6V | 03:43:05 | 01:39:32 | 00:00:00 | |
| BIOWL1-15 | 2026-09-01 12:08:45 | 52.89118 | 10.79670 | 98° | 11km/h | 25156m | 4.7m/s | -49.3°C | 0% | 26.1hPa | 2.7V | 03:43:10 | 01:39:35 | 00:00:00 | |
| DL1XH-west | 2026-09-01 12:08:42 | 52.89122 | 10.79664 | 173° | 11km/h | 25140m | 4.4m/s | -49.3°C | 0% | 26.1hPa | 2.6V | 03:43:10 | 01:39:32 | 00:00:00 | |
| DO2SHX-10 | 2026-09-01 12:08:42 | 52.89122 | 10.79664 | 173° | 13km/h | 25140m | 4.4m/s | -49.3°C | 2.9% | 26.1hPa | 2.7V | 03:43:00 | 01:39:32 | 00:00:00 | |
| DB0DAN | 2026-09-01 12:08:40 | 52.89128 | 10.79661 | 155° | 16km/h | 25129m | 6.6m/s | 0°C | 0% | 0hPa | 2.7V | 00:00:00 | 00:00:00 | 00:00:00 | |
| DB0DAN | 2026-09-01 12:08:40 | 52.89128 | 10.79661 | 155° | 16km/h | 25129m | 6.6m/s | -49.4°C | 0.5% | 26.18hPa | 2.7V | 00:00:00 | 00:00:00 | 00:00:00 | |
| DO3MHA-11 | 2026-09-01 12:08:40 | 52.89132 | 10.79657 | 144° | 20km/h | 25123m | 5.9m/s | -49.3°C | 2.9% | 26.2hPa | 2.7V | 03:43:00 | 01:39:29 | 00:00:00 | |
| DL1XH1-15 | 2026-09-01 12:08:39 | 52.89140 | 10.79646 | 142° | 20km/h | 25112m | 6.3m/s | -49.3°C | 2.9% | 26.2hPa | 2.6V | 03:43:10 | 01:39:27 | 00:00:00 | |
| DF8AY | 2026-09-01 12:08:35 | 52.89151 | 10.79630 | 117° | 20km/h | 25094m | 6.1m/s | -49.3°C | 0% | 26.3hPa | 2.7V | 03:44:01 | 01:39:24 | 00:00:00 | |
| DM0DOS-11 | 2026-09-01 12:08:35 | 52.89153 | 10.79613 | 94° | 22km/h | 25082m | 4.4m/s | -49.2°C | 2.9% | 26.4hPa | 2.7V | 03:43:15 | 01:39:22 | 00:00:00 | |
| DL1XH-15 | 2026-09-01 12:08:34 | 52.89154 | 10.79604 | 94° | 20km/h | 25078m | 4.2m/s | -49.1°C | 2.9% | 26.4hPa | 2.6V | 03:43:16 | 01:39:21 | 00:00:00 | |
| AA1-15 | 2026-09-01 12:08:32 | 52.89153 | 10.79613 | 94° | 22km/h | 25082m | 4.4m/s | -49.2°C | 0% | 26.4hPa | 2.7V | 03:44:01 | 01:39:22 | 00:00:00 | |
| GOEST3-10 | 2026-09-01 12:08:31 | 52.89154 | 10.79604 | 95° | 18km/h | 25078m | 4.2m/s | -49.1°C | 2.9% | 26.3hPa | 2.6V | 03:43:00 | 00:00:00 | 00:00:00 | |
| DO2SHX-10 | 2026-09-01 12:08:30 | 52.89154 | 10.79596 | 101° | 16km/h | 25073m | 6.6m/s | -49.1°C | 2.8% | 26.4hPa | 2.6V | 03:43:00 | 01:39:20 | 00:00:00 | |
| DL4XJ-10 | 2026-09-01 12:08:29 | 52.89156 | 10.79590 | 121° | 18km/h | 25066m | 6.0m/s | -48.1°C | 0% | 0hPa | 2.7V | 00:00:00 | 00:00:00 | 00:00:00 | |
| DF8AY-15 | 2026-09-01 12:08:28 | 52.89158 | 10.79584 | 130° | 18km/h | 25061m | 5.0m/s | -49.0°C | 2.9% | 26.4hPa | 2.7V | 00:00:00 | 01:39:18 | 00:00:00 | |
| DO2SHX-10 | 2026-09-01 12:08:27 | 52.89161 | 10.79579 | 132° | 24km/h | 25055m | 6.3m/s | -49.0°C | 2.9% | 26.4hPa | 2.7V | 00:00:00 | 01:39:17 | 00:00:00 | |
| DL1NUX | 2026-09-01 12:08:26 | 52.89174 | 10.79556 | 135° | 26km/h | 25038m | 5.9m/s | -49°C | 2.8% | 26.6hPa | 2.7V | 03:43:23 | 01:39:14 | 00:00:00 | |
| DG6HD-15 | 2026-09-01 12:08:26 | 52.89165 | 10.79571 | 132° | 24km/h | 25049m | 5.7m/s | -49.0°C | 0.5% | 26.5hPa | 2.7V | 03:44:00 | 00:00:00 | 00:00:00 | |
| DM0DOS-11 | 2026-09-01 12:08:25 | 52.89182 | 10.79541 | 133° | 22km/h | 25027m | 4.8m/s | -48.9°C | 2.9% | 26.6hPa | 2.7V | 03:43:25 | 01:39:12 | 00:00:00 | |
| DB0DAN | 2026-09-01 12:08:25 | 52.89169 | 10.79564 | 133° | 26km/h | 25043m | 4.6m/s | -49°C | 0.4% | 26.53hPa | 2.6V | 00:00:00 | 00:00:00 | 00:00:00 | |
| BIOWL1-15 | 2026-09-01 12:08:24 | 52.89174 | 10.79556 | 135° | 26km/h | 25038m | 5.9m/s | -49°C | 0% | 26.6hPa | 2.7V | 03:44:01 | 01:39:14 | 00:00:00 | |
| BIOWL9-15 | 2026-09-01 12:08:24 | 52.89178 | 10.79548 | 136° | 24km/h | 25032m | 6.0m/s | -49.0°C | 0.5% | 26.6hPa | 2.6V | 00:00:00 | 00:00:00 | 00:00:00 | |
| DL1XH-15 | 2026-09-01 12:08:23 | 52.89186 | 10.79534 | 123° | 22km/h | 25021m | 5.1m/s | -48.9°C | 2.8% | 26.6hPa | 2.6V | 03:43:26 | 01:39:11 | 00:00:00 | |
| AA1-15 | 2026-09-01 12:08:22 | 52.89188 | 10.79526 | 110° | 24km/h | 25016m | 6.8m/s | -49°C | 0% | 26.6hPa | 2.6V | 03:44:01 | 01:39:10 | 00:00:00 | |
| DL1XH-west | 2026-09-01 12:08:21 | 52.89190 | 10.79506 | 89° | 22km/h | 25004m | 3.9m/s | -48.9°C | 0% | 26.7hPa | 2.7V | 03:44:01 | 01:39:08 | 00:00:00 | |
| AM1SDL-15 | 2026-09-01 12:08:21 | 52.89188 | 10.79526 | 111° | 16km/h | 25016m | 6.7m/s | -48.9°C | 2.8% | 26.6hPa | 2.6V | 03:43:00 | 01:39:10 | 00:00:00 | |
| SP3WXH-11 | 2026-09-01 12:08:20 | 52.89190 | 10.79516 | 97° | 24km/h | 25009m | 5.5m/s | -48.9°C | 0.4% | 26.6hPa | 2.7V | 00:00:00 | 00:00:00 | 00:00:00 | |
| DL1XH1-15 | 2026-09-01 12:08:19 | 52.89190 | 10.79498 | 87° | 18km/h | 25000m | 4.3m/s | -48.9°C | 2.8% | 26.7hPa | 2.7V | 03:43:30 | 01:39:07 | 00:00:00 | |
| BIOWL1-15 | 2026-09-01 12:08:18 | 52.89193 | 10.79484 | 167° | 7km/h | 24978m | 4.5m/s | -49.1°C | 0% | 26.8hPa | 2.6V | 03:44:01 | 01:39:03 | 00:00:00 | |
| GOEST3-10 | 2026-09-01 12:08:18 | 52.89190 | 10.79491 | 89° | 9km/h | 24995m | 6.4m/s | -48.9°C | 2.8% | 26.7hPa | 2.6V | 00:00:00 | 01:39:06 | 00:00:00 | |
| DL1LOL-11 | 2026-09-01 12:08:16 | 52.89190 | 10.79491 | 89° | 13km/h | 24995m | 6.4m/s | -49.0°C | 0.4% | 26.7hPa | 2.6V | 00:00:00 | 00:00:00 | 00:00:00 | |
| DO2SHX-10 | 2026-09-01 12:08:15 | 52.89190 | 10.79486 | 105° | 7km/h | 24989m | 6.2m/s | -49.0°C | 2.8% | 26.7hPa | 2.6V | 00:00:00 | 01:39:05 | 00:00:00 | |
| DM0DOS-11 | 2026-09-01 12:08:14 | 52.89195 | 10.79482 | 154° | 11km/h | 24973m | 5.9m/s | -49°C | 2.8% | 26.8hPa | 2.6V | 03:43:35 | 01:39:02 | 00:00:00 | |
| DF8AY | 2026-09-01 12:08:14 | 52.89191 | 10.79485 | 159° | 5km/h | 24983m | 4.8m/s | -49°C | 0% | 26.8hPa | 2.6V | 03:44:01 | 01:39:04 | 00:00:00 | |
| DL1XH1-15 | 2026-09-01 12:08:13 | 52.89204 | 10.79444 | 89° | 22km/h | 24938m | 5m/s | -49.2°C | 2.9% | 26.9hPa | 2.6V | 03:43:41 | 01:38:56 | 00:00:00 | |
| DL1XH-15 | 2026-09-01 12:08:12 | 52.89198 | 10.79479 | 135° | 15km/h | 24967m | 5.7m/s | -49°C | 2.8% | 26.8hPa | 2.7V | 03:43:36 | 01:39:01 | 00:00:00 | |
| AA1-15 | 2026-09-01 12:08:12 | 52.89198 | 10.79479 | 135° | 15km/h | 24967m | 5.7m/s | -49°C | 0% | 26.8hPa | 2.7V | 03:44:01 | 01:39:01 | 00:00:00 | |
| DL1XH-west | 2026-09-01 12:08:10 | 52.89204 | 10.79453 | 94° | 20km/h | 24944m | 5.6m/s | -49.1°C | 0% | 26.9hPa | 2.6V | 03:44:01 | 01:38:57 | 00:00:00 | |
| DB0DAN | 2026-09-01 12:08:10 | 52.89200 | 10.79474 | 120° | 16km/h | 24961m | 5.4m/s | 0°C | 0% | 0hPa | 2.7V | 00:00:00 | 00:00:00 | 00:00:00 | |
| DB0DAN | 2026-09-01 12:08:10 | 52.89200 | 10.79474 | 120° | 16km/h | 24961m | 5.4m/s | -49°C | 0.5% | 26.85hPa | 2.7V | 00:00:00 | 00:00:00 | 00:00:00 | |
| DF8AY-15 | 2026-09-01 12:08:09 | 52.89203 | 10.79460 | 104° | 20km/h | 24950m | 6.6m/s | -49.1°C | 2.9% | 26.9hPa | 2.6V | 00:00:00 | 01:38:58 | 00:00:00 | |
| BUE01 | 2026-09-01 12:08:08 | 52.89204 | 10.79444 | 89° | 22km/h | 24939m | 5.0m/s | -49.2°C | 0.4% | 27.0hPa | 2.6V | 00:00:00 | 00:00:00 | 00:00:00 | |
| DL1XH-15 | 2026-09-01 12:08:07 | 52.89207 | 10.79384 | 111° | 15km/h | 24904m | 4.5m/s | -49.3°C | 2.9% | 27.1hPa | 2.6V | 03:43:47 | 01:38:50 | 00:00:00 | |
| DL1NUX | 2026-09-01 12:08:06 | 52.89204 | 10.79423 | 90° | 29km/h | 24927m | 5.7m/s | -49.3°C | 2.9% | 27hPa | 2.7V | 03:43:43 | 01:38:54 | 00:00:00 | |
| BIOWL1-15 | 2026-09-01 12:08:03 | 52.89204 | 10.79411 | 96° | 29km/h | 24922m | 4m/s | -49.2°C | 0% | 27hPa | 2.7V | 03:44:01 | 01:38:53 | 00:00:00 | |
| S3001 | 2026-09-01 12:08:03 | 52.89205 | 10.79400 | 100° | 24km/h | 24917m | 5.6m/s | -49.3°C | 0.5% | 27.1hPa | 2.7V | 00:00:00 | 00:00:00 | 00:00:00 | |
| DL1XH1-15 | 2026-09-01 12:08:01 | 52.89211 | 10.79365 | 100° | 18km/h | 24888m | 5.3m/s | -49.3°C | 2.9% | 27.2hPa | 2.7V | 03:43:50 | 01:38:47 | 00:00:00 | |
| AA1-15 | 2026-09-01 12:08:00 | 52.89208 | 10.79384 | 111° | 15km/h | 24904m | 4.5m/s | -49.3°C | 0% | 27.1hPa | 2.6V | 03:44:01 | 01:38:50 | 00:00:00 | |
| DL1XH-west | 2026-09-01 12:07:59 | 52.89210 | 10.79372 | 107° | 16km/h | 24894m | 6.7m/s | -49.3°C | 0% | 27.1hPa | 2.7V | 03:44:01 | 01:38:48 | 00:00:00 | |
| DF8AY | 2026-09-01 12:07:55 | 52.89209 | 10.79306 | 81° | 26km/h | 24849m | 4.1m/s | -49.2°C | 0% | 27.3hPa | 2.6V | 03:44:01 | 01:38:40 | 00:00:00 | |
| DB0DAN | 2026-09-01 12:07:55 | 52.89212 | 10.79350 | 92° | 16km/h | 24877m | 6.8m/s | -49.3°C | 0.4% | 27.24hPa | 2.6V | 00:00:00 | 00:00:00 | 00:00:00 | |
| BIOWL1-15 | 2026-09-01 12:07:54 | 52.89211 | 10.79327 | 83° | 22km/h | 24860m | 6.5m/s | -49.3°C | 0% | 27.3hPa | 2.7V | 03:44:01 | 01:38:42 | 00:00:00 | |
| DO2SHX-10 | 2026-09-01 12:07:54 | 52.89212 | 10.79342 | 85° | 20km/h | 24871m | 6.4m/s | -49.2°C | 2.9% | 27.2hPa | 2.7V | 03:43:00 | 01:38:44 | 00:00:00 | |
| DM0DOS-11 | 2026-09-01 12:07:53 | 52.89211 | 10.79327 | 82° | 22km/h | 24860m | 6.5m/s | -49.3°C | 2.9% | 27.3hPa | 2.7V | 03:43:55 | 01:38:42 | 00:00:00 | |
| DO3MHA-11 | 2026-09-01 12:07:53 | 52.89211 | 10.79335 | 84° | 16km/h | 24866m | 4.6m/s | -49.2°C | 2.9% | 27.2hPa | 2.6V | 00:00:00 | 01:38:43 | 00:00:00 | |
| DL1XH-15 | 2026-09-01 12:07:52 | 52.89209 | 10.79306 | 80° | 26km/h | 24849m | 4.1m/s | -49.2°C | 2.8% | 27.3hPa | 2.6V | 03:43:57 | 01:38:40 | 00:00:00 | |
| AA1-15 | 2026-09-01 12:07:49 | 52.89208 | 10.79296 | 79° | 22km/h | 24843m | 5.9m/s | -49.2°C | 0% | 27.4hPa | 2.6V | 03:44:01 | 01:38:39 | 00:00:00 | |
| DL1XH-west | 2026-09-01 12:07:49 | 52.89204 | 10.79277 | 64° | 11km/h | 24825m | 5.5m/s | -49.2°C | 0% | 27.4hPa | 2.7V | 03:44:01 | 01:38:36 | 00:00:00 | |
| DL4BBY-15 | 2026-09-01 12:07:46 | 52.89204 | 10.79277 | 64° | 13km/h | 24826m | 5.5m/s | -48.2°C | 0% | 0hPa | 2.7V | 00:00:00 | 00:00:00 | 00:00:00 | |
| DO2SHX-10 | 2026-09-01 12:07:45 | 52.89203 | 10.79273 | 75° | 9km/h | 24820m | 6.6m/s | -49.2°C | 2.9% | 27.4hPa | 2.7V | 00:00:00 | 01:38:35 | 00:00:00 | |
| DG6HD-15 | 2026-09-01 12:07:44 | 52.89203 | 10.79272 | 75° | 11km/h | 24820m | 6.6m/s | -49.3°C | 0.5% | 27.5hPa | 2.6V | 03:44:00 | 00:00:00 | 00:00:00 | |
| DM0DOS-11 | 2026-09-01 12:07:43 | 52.89202 | 10.79262 | 93° | 5km/h | 24802m | 6.6m/s | -49.2°C | 2.9% | 27.5hPa | 2.6V | 03:44:05 | 01:38:32 | 00:00:00 | |
| DL1XH-15 | 2026-09-01 12:07:42 | 52.89203 | 10.79258 | 109° | 7km/h | 24792m | 4m/s | -49.2°C | 2.8% | 27.6hPa | 2.7V | 03:44:07 | 01:38:30 | 00:00:00 | |
| DO3MHA-11 | 2026-09-01 12:07:42 | 52.89202 | 10.79262 | 94° | 11km/h | 24803m | 6.6m/s | -49.2°C | 2.9% | 27.5hPa | 2.6V | 00:00:00 | 01:38:32 | 00:00:00 | |
| MECKS9 | 2026-09-01 12:07:41 | 52.89202 | 10.79262 | 95° | 5km/h | 24803m | 6.6m/s | -49.2°C | 0.4% | 27.5hPa | 2.7V | 00:00:00 | 00:00:00 | 00:00:00 | |
| DB0DAN | 2026-09-01 12:07:40 | 52.89203 | 10.79258 | 110° | 7km/h | 24792m | 4m/s | -49.2°C | 0.4% | 27.57hPa | 2.7V | 00:00:00 | 00:00:00 | 00:00:00 | |
| DL1XH1-15 | 2026-09-01 12:07:40 | 52.89205 | 10.79241 | 90° | 20km/h | 24775m | 4m/s | -49.2°C | 2.8% | 27.6hPa | 2.6V | 03:44:10 | 01:38:27 | 00:00:00 | |
| DF8AY | 2026-09-01 12:07:39 | 52.89203 | 10.79254 | 105° | 11km/h | 24787m | 6.2m/s | -49.3°C | 0% | 27.6hPa | 2.7V | 03:44:52 | 01:38:29 | 00:00:00 | |
| AA1-15 | 2026-09-01 12:07:38 | 52.89204 | 10.79248 | 101° | 18km/h | 24780m | 6.3m/s | -49.3°C | 0% | 27.6hPa | 2.6V | 03:44:52 | 01:38:28 | 00:00:00 | |
| DL1XH-west | 2026-09-01 12:07:37 | 52.89195 | 10.79208 | 35° | 5km/h | 24741m | 5.3m/s | -49.5°C | 0% | 27.8hPa | 2.7V | 03:44:52 | 01:38:21 | 00:00:00 | |
| DO2SHX-10 | 2026-09-01 12:07:36 | 52.89204 | 10.79232 | 81° | 18km/h | 24771m | 5.1m/s | -49.2°C | 2.8% | 27.6hPa | 2.7V | 00:00:00 | 01:38:26 | 00:00:00 | |
| BUE01 | 2026-09-01 12:07:35 | 52.89203 | 10.79224 | 67° | 18km/h | 24765m | 7.0m/s | -49.4°C | 0.4% | 27.7hPa | 2.6V | 00:00:00 | 00:00:00 | 00:00:00 | |
| DL1LOL-11 | 2026-09-01 12:07:34 | 52.89201 | 10.79218 | 56° | 15km/h | 24759m | 5.7m/s | -49.4°C | 0.5% | 27.7hPa | 2.6V | 00:00:00 | 00:00:00 | 00:00:00 | |
| DO2SHX-10 | 2026-09-01 12:07:33 | 52.89199 | 10.79213 | 49° | 9km/h | 24753m | 5.4m/s | -49.5°C | 2.9% | 27.7hPa | 2.6V | 00:00:00 | 01:38:23 | 00:00:00 | |
| S3001 | 2026-09-01 12:07:32 | 52.89195 | 10.79208 | 34° | 5km/h | 24741m | 5.3m/s | -49.5°C | 0.4% | 27.8hPa | 2.6V | 00:00:00 | 00:00:00 | 00:00:00 | |
| DL3AQ-11 | 2026-09-01 12:07:31 | 52.89194 | 10.79207 | 350° | 4km/h | 24735m | 5.1m/s | -49.5°C | 0.5% | 27.8hPa | 2.6V | 00:00:00 | 00:00:00 | 00:00:00 | |
| DO2SHX-10 | 2026-09-01 12:07:30 | 52.89194 | 10.79207 | 351° | 7km/h | 24736m | 5.1m/s | -49.4°C | 2.9% | 27.8hPa | 2.6V | 03:44:00 | 01:38:20 | 00:00:00 | |
| DL1XH1-15 | 2026-09-01 12:07:29 | 52.89189 | 10.79214 | 322° | 9km/h | 24717m | 4.8m/s | -49.5°C | 2.9% | 27.9hPa | 2.6V | 03:44:20 | 01:38:17 | 00:00:00 | |
| DF8AY | 2026-09-01 12:07:29 | 52.89191 | 10.79211 | 317° | 11km/h | 24723m | 5.8m/s | -49.5°C | 0% | 27.9hPa | 2.6V | 03:44:52 | 01:38:18 | 00:00:00 | |
| AA1-15 | 2026-09-01 12:07:28 | 52.89189 | 10.79214 | 323° | 9km/h | 24717m | 4.8m/s | -49.5°C | 0% | 27.9hPa | 2.6V | 03:44:52 | 01:38:17 | 00:00:00 | |
| DO2SHX-10 | 2026-09-01 12:07:27 | 52.89189 | 10.79214 | 323° | 7km/h | 24718m | 4.8m/s | -49.5°C | 2.9% | 27.8hPa | 2.6V | 00:00:00 | 01:38:17 | 00:00:00 | |
| DL1NUX | 2026-09-01 12:07:26 | 52.89185 | 10.79211 | 64° | 11km/h | 24699m | 5.4m/s | -49.7°C | 2.9% | 28hPa | 2.7V | 03:44:23 | 01:38:14 | 00:00:00 | |
| DB0DAN | 2026-09-01 12:07:25 | 52.89186 | 10.79215 | 45° | 7km/h | 24706m | 6.5m/s | 0°C | 0% | 0hPa | 2.7V | 00:00:00 | 00:00:00 | 00:00:00 | |
| DB0DAN | 2026-09-01 12:07:25 | 52.89186 | 10.79215 | 45° | 7km/h | 24706m | 6.5m/s | -49.6°C | 0.5% | 27.94hPa | 2.7V | 00:00:00 | 00:00:00 | 00:00:00 | |
| DO2SHX-10 | 2026-09-01 12:07:24 | 52.89184 | 10.79211 | 65° | 16km/h | 24700m | 5.4m/s | -49.6°C | 2.9% | 27.9hPa | 2.7V | 00:00:00 | 01:38:14 | 00:00:00 | |
| DL1XH1-15 | 2026-09-01 12:07:23 | 52.89162 | 10.79171 | 36° | 15km/h | 24661m | 4.3m/s | -49.8°C | 2.9% | 28.1hPa | 2.7V | 03:44:30 | 01:38:07 | 00:00:00 | |
| DL1XH-west | 2026-09-01 12:07:21 | 52.89173 | 10.79188 | 42° | 22km/h | 24678m | 4.1m/s | -49.6°C | 0% | 28.1hPa | 2.6V | 03:44:52 | 01:38:10 | 00:00:00 | |
| DL3AQ-11 | 2026-09-01 12:07:20 | 52.89169 | 10.79182 | 44° | 20km/h | 24673m | 6.1m/s | -49.7°C | 0.4% | 28.1hPa | 2.6V | 00:00:00 | 00:00:00 | 00:00:00 | |
| DL1NUX | 2026-09-01 12:07:19 | 52.89151 | 10.79170 | 343° | 20km/h | 24643m | 5.7m/s | -49.7°C | 2.9% | 28.2hPa | 2.6V | 03:44:33 | 01:38:04 | 00:00:00 | |
| DF8AY | 2026-09-01 12:07:18 | 52.89165 | 10.79176 | 46° | 18km/h | 24667m | 5.9m/s | -49.7°C | 0% | 28.1hPa | 2.7V | 03:44:52 | 01:38:08 | 00:00:00 | |
| BIOWL1-15 | 2026-09-01 12:07:17 | 52.89150 | 10.79170 | 344° | 20km/h | 24644m | 5.7m/s | -49.7°C | 0% | 28.2hPa | 2.6V | 03:44:52 | 01:38:04 | 00:00:00 | |
| AA1-15 | 2026-09-01 12:07:16 | 52.89159 | 10.79169 | 14° | 15km/h | 24656m | 5.7m/s | -49.8°C | 0% | 28.1hPa | 2.7V | 03:44:52 | 01:38:06 | 00:00:00 | |
| DL4BBY-15 | 2026-09-01 12:07:16 | 52.89159 | 10.79169 | 15° | 15km/h | 24657m | 5.7m/s | -48.8°C | 0% | 0hPa | 2.7V | 00:00:00 | 00:00:00 | 00:00:00 | |
| DO2SHX-10 | 2026-09-01 12:07:15 | 52.89155 | 10.79168 | 357° | 18km/h | 24650m | 7.2m/s | -49.7°C | 2.9% | 28.1hPa | 2.7V | 00:00:00 | 01:38:05 | 00:00:00 | |
| DM0DOS-11 | 2026-09-01 12:07:13 | 52.89142 | 10.79174 | 341° | 15km/h | 24632m | 6.4m/s | -49.8°C | 2.9% | 28.3hPa | 2.7V | 03:44:35 | 01:38:02 | 00:00:00 | |
| DL1XH1-15 | 2026-09-01 12:07:12 | 52.89123 | 10.79162 | 31° | 18km/h | 24598m | 4.8m/s | -50.1°C | 3% | 28.4hPa | 2.7V | 03:44:41 | 01:37:56 | 00:00:00 | |
| DL1XH-15 | 2026-09-01 12:07:12 | 52.89136 | 10.79175 | 20° | 11km/h | 24621m | 5.1m/s | -49.9°C | 2.9% | 28.3hPa | 2.6V | 03:44:37 | 01:38:00 | 00:00:00 | |
| DO2SHX-10 | 2026-09-01 12:07:12 | 52.89142 | 10.79174 | 342° | 13km/h | 24632m | 6.4m/s | -49.8°C | 2.9% | 28.2hPa | 2.6V | 00:00:00 | 01:38:02 | 00:00:00 | |
| DB0DAN | 2026-09-01 12:07:10 | 52.89136 | 10.79175 | 20° | 9km/h | 24621m | 5.1m/s | -49.9°C | 0.5% | 28.32hPa | 2.6V | 00:00:00 | 00:00:00 | 00:00:00 | |
| DL1XH-west | 2026-09-01 12:07:09 | 52.89113 | 10.79152 | 32° | 11km/h | 24582m | 5.2m/s | -50.4°C | 0% | 28.5hPa | 2.6V | 03:44:52 | 01:37:53 | 00:00:00 | |
| DO2SHX-10 | 2026-09-01 12:07:09 | 52.89133 | 10.79173 | 31° | 15km/h | 24615m | 5.9m/s | -49.9°C | 2.9% | 28.3hPa | 2.6V | 00:00:00 | 01:37:59 | 00:00:00 | |
| DM0DOS-11 | 2026-09-01 12:07:08 | 52.89110 | 10.79150 | 7° | 9km/h | 24577m | 4.6m/s | -50.4°C | 3.1% | 28.5hPa | 2.7V | 03:44:45 | 01:37:52 | 00:00:00 | |
| BIOWL1-15 | 2026-09-01 12:07:07 | 52.89115 | 10.79154 | 34° | 15km/h | 24587m | 6m/s | -50.3°C | 0% | 28.5hPa | 2.6V | 03:44:52 | 01:37:54 | 00:00:00 | |
| DL1NUX | 2026-09-01 12:07:07 | 52.89116 | 10.79154 | 34° | 15km/h | 24587m | 6m/s | -50.3°C | 3% | 28.5hPa | 2.6V | 03:44:43 | 01:37:54 | 00:00:00 | |
| AA1-15 | 2026-09-01 12:07:07 | 52.89123 | 10.79162 | 31° | 18km/h | 24598m | 4.8m/s | -50.1°C | 0% | 28.4hPa | 2.7V | 03:44:52 | 01:37:56 | 00:00:00 | |
| BUE01 | 2026-09-01 12:07:06 | 52.89115 | 10.79154 | 34° | 15km/h | 24588m | 6.0m/s | -50.3°C | 0.5% | 28.5hPa | 2.6V | 00:00:00 | 00:00:00 | 00:00:00 | |
| DL3AQ-11 | 2026-09-01 12:07:05 | 52.89113 | 10.79152 | 31° | 9km/h | 24582m | 5.2m/s | -50.4°C | 0.5% | 28.5hPa | 2.6V | 00:00:00 | 00:00:00 | 00:00:00 | |
| SONCRA | 2026-09-01 12:07:04 | 52.89113 | 10.79152 | 31° | 9km/h | 24582m | 5.2m/s | -50.4°C | 0.5% | 28.5hPa | 2.6V | 00:00:00 | 00:00:00 | 00:00:00 | |
| DO2SHX-10 | 2026-09-01 12:07:03 | 52.89113 | 10.79151 | 32° | 11km/h | 24582m | 5.2m/s | -50.3°C | 3.1% | 28.4hPa | 2.6V | 00:00:00 | 01:37:53 | 00:00:00 | |
| DL1CLM-18 | 2026-09-01 12:07:02 | 52.89113 | 10.79151 | 33° | 11km/h | 24582m | 5.2m/s | -50.4°C | 0.5% | 28.5hPa | 2.6V | 03:44:00 | 00:00:00 | 00:00:00 | |
| DL1XH1-15 | 2026-09-01 12:07:01 | 52.89085 | 10.79173 | 318° | 18km/h | 24542m | 6.3m/s | -50.5°C | 3% | 28.6hPa | 2.6V | 03:44:51 | 01:37:46 | 00:00:00 | |
| DO2SHX-10 | 2026-09-01 12:07:01 | 52.89104 | 10.79153 | 339° | 22km/h | 24565m | 6.6m/s | -50.4°C | 3.1% | 28.5hPa | 2.7V | 00:00:00 | 01:37:50 | 00:00:00 | |
| DL2RXE-15 | 2026-09-01 12:07:00 | 52.89104 | 10.79153 | 339° | 18km/h | 24565m | 6.6m/s | -50.5°C | 0.5% | 28.6hPa | 2.7V | 00:00:00 | 00:00:00 | 00:00:00 | |
| DL1NUX | 2026-09-01 12:06:59 | 52.89079 | 10.79180 | 332° | 13km/h | 24531m | 6.1m/s | -50.6°C | 3% | 28.7hPa | 2.7V | 03:44:53 | 01:37:44 | 00:00:00 | |
| DD8BA-10 | 2026-09-01 12:06:58 | 52.89094 | 10.79161 | 328° | 15km/h | 24554m | 4.1m/s | -50.4°C | 3.0% | 28.5hPa | 2.6V | 00:00:00 | 00:00:00 | 00:00:00 | |
| DM0DOS-11 | 2026-09-01 12:06:57 | 52.89072 | 10.79182 | 3° | 13km/h | 24519m | 5m/s | -50.5°C | 3% | 28.8hPa | 2.7V | 03:44:55 | 01:37:42 | 00:00:00 | |
| AA1-15 | 2026-09-01 12:06:55 | 52.89082 | 10.79177 | 322° | 15km/h | 24536m | 5.1m/s | -50.6°C | 0% | 28.7hPa | 2.7V | 03:44:52 | 01:37:45 | 00:00:00 | |
| DB0DAN | 2026-09-01 12:06:55 | 52.89082 | 10.79177 | 322° | 15km/h | 24536m | 5.1m/s | -50.6°C | 0.5% | 28.66hPa | 2.7V | 00:00:00 | 00:00:00 | 00:00:00 | |
| DL1XH-west | 2026-09-01 12:06:55 | 52.89072 | 10.79182 | 4° | 13km/h | 24519m | 5m/s | -50.5°C | 0% | 28.8hPa | 2.7V | 03:45:43 | 01:37:42 | 00:00:00 | |
| AM1SDL-15 | 2026-09-01 12:06:55 | 52.89078 | 10.79180 | 333° | 13km/h | 24531m | 6.0m/s | -50.6°C | 3.0% | 28.7hPa | 2.6V | 00:00:00 | 01:37:44 | 00:00:00 | |
| DF8AY | 2026-09-01 12:06:55 | 52.89075 | 10.79182 | 348° | 13km/h | 24525m | 6.3m/s | -50.6°C | 0% | 28.7hPa | 2.7V | 03:45:43 | 01:37:43 | 00:00:00 | |
| DO2SHX-10 | 2026-09-01 12:06:54 | 52.89078 | 10.79180 | 333° | 13km/h | 24531m | 6.0m/s | -50.6°C | 3.0% | 28.7hPa | 2.6V | 03:44:00 | 01:37:44 | 00:00:00 | |
| DB0NH | 2026-09-01 12:06:53 | 52.89075 | 10.79182 | 348° | 11km/h | 24525m | 6.3m/s | -50.6°C | 3.0% | 28.7hPa | 2.6V | 03:44:00 | 01:37:43 | 00:00:00 | |
| DL1XH1-15 | 2026-09-01 12:06:51 | 52.89053 | 10.79176 | 356° | 20km/h | 24478m | 4.9m/s | -50.6°C | 3.2% | 28.9hPa | 2.6V | 03:45:02 | 01:37:35 | 00:00:00 | |
| DL3AQ-11 | 2026-09-01 12:06:51 | 52.89067 | 10.79180 | 33° | 7km/h | 24508m | 6.6m/s | -50.6°C | 0.5% | 28.8hPa | 2.7V | 00:00:00 | 00:00:00 | 00:00:00 | |
| BIOWL9-15 | 2026-09-01 12:06:50 | 52.89067 | 10.79180 | 33° | 7km/h | 24508m | 6.6m/s | -50.6°C | 0.5% | 28.8hPa | 2.7V | 00:00:00 | 00:00:00 | 00:00:00 | |
| BIOWL1-15 | 2026-09-01 12:06:48 | 52.89038 | 10.79181 | 336° | 11km/h | 24456m | 5m/s | -50.9°C | 0% | 29.1hPa | 2.7V | 03:45:43 | 01:37:31 | 00:00:00 | |
| SMARD9-15 | 2026-09-01 12:06:48 | 52.89061 | 10.79176 | 6° | 13km/h | 24490m | 6.8m/s | -50.7°C | 0.5% | 28.9hPa | 2.6V | 00:00:00 | 00:00:00 | 00:00:00 | |
| DL1CLM-18 | 2026-09-01 12:06:47 | 52.89061 | 10.79176 | 7° | 13km/h | 24490m | 6.8m/s | -50.7°C | 0.5% | 28.9hPa | 2.6V | 00:00:00 | 00:00:00 | 00:00:00 | |
| DL1NUX | 2026-09-01 12:06:46 | 52.89048 | 10.79177 | 352° | 18km/h | 24473m | 5.5m/s | -50.6°C | 3.1% | 28.9hPa | 2.6V | 03:45:03 | 01:37:34 | 00:00:00 | |
| AA1-15 | 2026-09-01 12:06:46 | 52.89048 | 10.79177 | 353° | 18km/h | 24473m | 5.6m/s | -50.7°C | 0% | 29hPa | 2.6V | 03:45:43 | 01:37:34 | 00:00:00 | |
| DM0DOS-11 | 2026-09-01 12:06:45 | 52.89041 | 10.79179 | 340° | 13km/h | 24461m | 5.4m/s | -50.8°C | 3.1% | 29hPa | 2.7V | 03:45:05 | 01:37:32 | 00:00:00 | |
| DL1XH-15 | 2026-09-01 12:06:45 | 52.89032 | 10.79186 | 331° | 13km/h | 24444m | 5.7m/s | -50.8°C | 3% | 29.1hPa | 2.6V | 03:45:08 | 01:37:29 | 00:00:00 | |
| DL1XH-west | 2026-09-01 12:06:45 | 52.89028 | 10.79191 | 323° | 7km/h | 24434m | 6.2m/s | -50.8°C | 0% | 29.1hPa | 2.7V | 03:45:43 | 01:37:27 | 00:00:00 | |
| DF8AY | 2026-09-01 12:06:44 | 52.89044 | 10.79178 | 348° | 15km/h | 24467m | 6m/s | -50.7°C | 0% | 29hPa | 2.7V | 03:45:43 | 01:37:33 | 00:00:00 | |
| DO2SHX-10 | 2026-09-01 12:06:42 | 52.89041 | 10.79179 | 341° | 13km/h | 24462m | 5.3m/s | -50.8°C | 3.1% | 29.0hPa | 2.7V | 03:45:00 | 01:37:32 | 00:00:00 | |
| DB0DAN | 2026-09-01 12:06:40 | 52.89035 | 10.79183 | 333° | 13km/h | 24450m | 6m/s | -50.8°C | 0.5% | 29.08hPa | 2.6V | 00:00:00 | 00:00:00 | 00:00:00 | |
| DL3AQ-11 | 2026-09-01 12:06:40 | 52.89033 | 10.79186 | 331° | 13km/h | 24445m | 5.7m/s | -50.8°C | 0.5% | 29.1hPa | 2.7V | 00:00:00 | 00:00:00 | 00:00:00 | |
| DL1NUX | 2026-09-01 12:06:40 | 52.89025 | 10.79193 | 356° | 5km/h | 24416m | 6m/s | -50.7°C | 3.1% | 29.2hPa | 2.7V | 03:45:13 | 01:37:24 | 00:00:00 | |
| DL1XH1-15 | 2026-09-01 12:06:40 | 52.89026 | 10.79193 | 335° | 2km/h | 24421m | 5m/s | -50.7°C | 3.1% | 29.2hPa | 2.6V | 03:45:12 | 01:37:25 | 00:00:00 | |
| DO2SHX-10 | 2026-09-01 12:06:39 | 52.89032 | 10.79186 | 332° | 11km/h | 24445m | 5.6m/s | -50.8°C | 3.0% | 29.0hPa | 2.7V | 00:00:00 | 01:37:29 | 00:00:00 | |
| DD8BA-10 | 2026-09-01 12:06:38 | 52.89030 | 10.79188 | 331° | 7km/h | 24440m | 4.5m/s | -50.8°C | 3.1% | 29.1hPa | 2.7V | 00:00:00 | 00:00:00 | 00:00:00 | |
| DO3MHA-11 | 2026-09-01 12:06:37 | 52.89027 | 10.79190 | 323° | 7km/h | 24434m | 6.1m/s | -50.8°C | 3.1% | 29.1hPa | 2.7V | 00:00:00 | 01:37:27 | 00:00:00 | |
| DO2SHX-10 | 2026-09-01 12:06:36 | 52.89026 | 10.79192 | 318° | 4km/h | 24428m | 6.8m/s | -50.7°C | 3.1% | 29.1hPa | 2.7V | 00:00:00 | 01:37:26 | 00:00:00 | |
| DM0DOS-11 | 2026-09-01 12:06:35 | 52.89021 | 10.79193 | 12° | 11km/h | 24404m | 3.8m/s | -50.7°C | 3.2% | 29.3hPa | 2.7V | 03:45:15 | 01:37:22 | 00:00:00 | |
| AA1-15 | 2026-09-01 12:06:35 | 52.89025 | 10.79193 | 357° | 5km/h | 24416m | 6m/s | -50.7°C | 0% | 29.2hPa | 2.7V | 03:45:43 | 01:37:24 | 00:00:00 | |
| DL1XH-west | 2026-09-01 12:06:34 | 52.89023 | 10.79193 | 3° | 7km/h | 24409m | 6.7m/s | -50.8°C | 0% | 29.2hPa | 2.7V | 03:45:43 | 01:37:23 | 00:00:00 | |
| DL1XH-15 | 2026-09-01 12:06:34 | 52.89015 | 10.79187 | 60° | 7km/h | 24388m | 5.4m/s | -50.8°C | 3.2% | 29.4hPa | 2.7V | 03:45:18 | 01:37:19 | 00:00:00 | |
| BIOWL1-15 | 2026-09-01 12:06:33 | 52.89021 | 10.79193 | 13° | 11km/h | 24404m | 3.8m/s | -50.7°C | 0% | 29.3hPa | 2.7V | 03:45:43 | 01:37:22 | 00:00:00 | |
| DL1CLM-18 | 2026-09-01 12:06:32 | 52.89021 | 10.79193 | 14° | 11km/h | 24404m | 3.8m/s | -50.7°C | 0.5% | 29.3hPa | 2.6V | 00:00:00 | 00:00:00 | 00:00:00 | |
| GOEST3-10 | 2026-09-01 12:06:31 | 52.89018 | 10.79192 | 29° | 7km/h | 24400m | 4.1m/s | -50.7°C | 3.1% | 29.3hPa | 2.6V | 03:45:00 | 00:00:00 | 00:00:00 | |
| DO2SHX-10 | 2026-09-01 12:06:30 | 52.89017 | 10.79189 | 43° | 7km/h | 24395m | 7.3m/s | -50.8°C | 3.1% | 29.3hPa | 2.6V | 03:45:00 | 01:37:20 | 00:00:00 | |
| DL4XJ-10 | 2026-09-01 12:06:29 | 52.89015 | 10.79187 | 61° | 5km/h | 24389m | 5.3m/s | -49.9°C | 0% | 0hPa | 2.6V | 00:00:00 | 00:00:00 | 00:00:00 | |
| DF8AY-15 | 2026-09-01 12:06:28 | 52.89014 | 10.79185 | 45° | 5km/h | 24384m | 4.4m/s | -50.7°C | 3.1% | 29.3hPa | 2.6V | 03:45:00 | 01:37:18 | 00:00:00 | |
| DO3MHA-11 | 2026-09-01 12:06:27 | 52.89013 | 10.79183 | 22° | 4km/h | 24378m | 7.0m/s | -50.7°C | 3.1% | 29.4hPa | 2.6V | 00:00:00 | 01:37:17 | 00:00:00 | |
| GOEST3-10 | 2026-09-01 12:06:26 | 52.89011 | 10.79183 | 3° | 5km/h | 24372m | 5.6m/s | -50.8°C | 3.1% | 29.4hPa | 2.6V | 00:00:00 | 01:37:16 | 00:00:00 | |
| DL1NUX | 2026-09-01 12:06:25 | 52.89008 | 10.79183 | 9° | 5km/h | 24361m | 6.3m/s | -51°C | 3.2% | 29.5hPa | 2.6V | 03:45:23 | 01:37:14 | 00:00:00 | |
| DM0DOS-11 | 2026-09-01 12:06:25 | 52.89006 | 10.79181 | 71° | 2km/h | 24349m | 4.8m/s | -50.8°C | 3.1% | 29.5hPa | 2.7V | 03:45:25 | 01:37:12 | 00:00:00 | |
| DB0DAN | 2026-09-01 12:06:25 | 52.89009 | 10.79183 | 357° | 7km/h | 24366m | 4.8m/s | -50.9°C | 0.5% | 29.48hPa | 2.6V | 00:00:00 | 00:00:00 | 00:00:00 | |
| AA1-15 | 2026-09-01 12:06:23 | 52.89007 | 10.79182 | 44° | 4km/h | 24354m | 6m/s | -50.8°C | 0% | 29.5hPa | 2.7V | 03:45:43 | 01:37:13 | 00:00:00 | |
| DF8AY | 2026-09-01 12:06:23 | 52.89006 | 10.79180 | 1° | 4km/h | 24338m | 6.4m/s | -50.9°C | 0% | 29.6hPa | 2.7V | 03:45:43 | 01:37:10 | 00:00:00 | |
| BIOWL1-15 | 2026-09-01 12:06:22 | 52.89006 | 10.79181 | 72° | 2km/h | 24349m | 4.8m/s | -50.8°C | 0% | 29.5hPa | 2.7V | 03:45:43 | 01:37:12 | 00:00:00 | |
| DL1XH-15 | 2026-09-01 12:06:22 | 52.89005 | 10.79180 | 357° | 4km/h | 24332m | 4.4m/s | -50.8°C | 3.1% | 29.6hPa | 2.6V | 03:45:28 | 01:37:09 | 00:00:00 | |
| GOEST3-10 | 2026-09-01 12:06:21 | 52.89006 | 10.79181 | 52° | 2km/h | 24344m | 6.0m/s | -50.9°C | 3.1% | 29.5hPa | 2.7V | 00:00:00 | 00:00:00 | 00:00:00 | |
| DG6HD-15 | 2026-09-01 12:06:20 | 52.89006 | 10.79180 | 2° | 4km/h | 24338m | 6.4m/s | -50.9°C | 0.5% | 29.6hPa | 2.7V | 03:45:00 | 00:00:00 | 00:00:00 | |
| BIOWL9-15 | 2026-09-01 12:06:19 | 52.89005 | 10.79180 | 357° | 4km/h | 24332m | 4.4m/s | -50.8°C | 0.5% | 29.6hPa | 2.7V | 00:00:00 | 00:00:00 | 00:00:00 | |
| DO2SHX-10 | 2026-09-01 12:06:18 | 52.89004 | 10.79180 | 10° | 4km/h | 24329m | 3.9m/s | -50.8°C | 3.1% | 29.6hPa | 2.7V | 03:45:00 | 01:37:08 | 00:00:00 | |
| SP3WXH-11 | 2026-09-01 12:06:17 | 52.89007 | 10.79179 | 173° | 9km/h | 24311m | 5.7m/s | -50.9°C | 0.5% | 29.7hPa | 2.7V | 00:00:00 | 00:00:00 | 00:00:00 | |
| DO2SHX-10 | 2026-09-01 12:06:16 | 52.89007 | 10.79179 | 174° | 9km/h | 24311m | 5.6m/s | -50.8°C | 3.1% | 29.7hPa | 2.7V | 00:00:00 | 01:37:05 | 00:00:00 | |
| DM0DOS-11 | 2026-09-01 12:06:15 | 52.89013 | 10.79180 | 210° | 4km/h | 24295m | 6m/s | -50.9°C | 3.2% | 29.8hPa | 2.6V | 03:45:35 | 01:37:02 | 00:00:00 | |
| DL1XH-west | 2026-09-01 12:06:12 | 52.89011 | 10.79181 | 18° | 5km/h | 24279m | 5.2m/s | -50.9°C | 0% | 29.9hPa | 2.7V | 03:45:43 | 01:36:59 | 00:00:00 | |
| DF8AY | 2026-09-01 12:06:12 | 52.89013 | 10.79180 | 210° | 4km/h | 24295m | 6m/s | -50.9°C | 0% | 29.8hPa | 2.6V | 03:45:43 | 01:37:02 | 00:00:00 | |
| DO2SHX-10 | 2026-09-01 12:06:12 | 52.89013 | 10.79180 | 211° | 4km/h | 24295m | 5.9m/s | -50.9°C | 3.2% | 29.8hPa | 2.7V | 00:00:00 | 01:37:02 | 00:00:00 | |
| DL1XH-15 | 2026-09-01 12:06:11 | 52.89011 | 10.79181 | 18° | 5km/h | 24279m | 5.2m/s | -50.9°C | 3.2% | 29.9hPa | 2.7V | 03:45:38 | 01:36:59 | 00:00:00 | |
| DL1XH1-15 | 2026-09-01 12:06:11 | 52.89010 | 10.79173 | 114° | 5km/h | 24255m | 6.4m/s | -51°C | 3.1% | 30hPa | 2.6V | 03:45:42 | 01:36:55 | 00:00:00 | |
| TFSTFS | 2026-09-01 12:06:10 | 52.89012 | 10.79181 | 355° | 5km/h | 24284m | 4.5m/s | -50.8°C | 0.5% | 29.9hPa | 2.7V | 00:00:00 | 00:00:00 | 00:00:00 | |
| DO3MHA-11 | 2026-09-01 12:06:09 | 52.89010 | 10.79181 | 19° | 11km/h | 24279m | 5.2m/s | -50.8°C | 3.2% | 29.8hPa | 2.7V | 00:00:00 | 01:36:59 | 00:00:00 | |
| DL1NUX | 2026-09-01 12:06:08 | 52.89011 | 10.79171 | 122° | 5km/h | 24249m | 5.8m/s | -51°C | 3% | 30hPa | 2.7V | 03:45:43 | 01:36:54 | 00:00:00 | |
| BIOWL1-15 | 2026-09-01 12:06:01 | 52.89025 | 10.79160 | 163° | 16km/h | 24221m | 5.6m/s | -51°C | 0% | 30.1hPa | 2.7V | 03:46:34 | 01:36:49 | 00:00:00 | |
| DF8AY | 2026-09-01 12:06:01 | 52.89017 | 10.79164 | 160° | 16km/h | 24233m | 6.2m/s | -51°C | 0% | 30.1hPa | 2.6V | 03:46:34 | 01:36:51 | 00:00:00 | |
| DL1XH-15 | 2026-09-01 12:06:01 | 52.89025 | 10.79160 | 163° | 16km/h | 24221m | 5.5m/s | -51°C | 3.2% | 30.1hPa | 2.7V | 03:45:48 | 01:36:49 | 00:00:00 | |
| GOEST3-10 | 2026-09-01 12:06:01 | 52.89017 | 10.79164 | 160° | 15km/h | 24233m | 6.1m/s | -50.9°C | 3.1% | 30.0hPa | 2.7V | 00:00:00 | 00:00:00 | 00:00:00 | |
| DL1XH1-15 | 2026-09-01 12:06:00 | 52.89032 | 10.79150 | 107° | 11km/h | 24201m | 5.8m/s | -51°C | 3.2% | 30.2hPa | 2.7V | 03:45:52 | 01:36:45 | 00:00:00 | |
| DL1XH-west | 2026-09-01 12:05:58 | 52.89028 | 10.79158 | 158° | 13km/h | 24215m | 6m/s | -51°C | 0% | 30.1hPa | 2.7V | 03:46:34 | 01:36:48 | 00:00:00 | |
| DD8BA-10 | 2026-09-01 12:05:58 | 52.89028 | 10.79158 | 158° | 13km/h | 24216m | 6.0m/s | -50.9°C | 3.2% | 30.1hPa | 2.7V | 00:00:00 | 00:00:00 | 00:00:00 | |
| DM0DOS-11 | 2026-09-01 12:05:57 | 52.89036 | 10.79133 | 110° | 16km/h | 24184m | 4.8m/s | -51.1°C | 3.2% | 30.3hPa | 2.6V | 03:45:55 | 01:36:42 | 00:00:00 | |
| DO2SHX-10 | 2026-09-01 12:05:57 | 52.89030 | 10.79156 | 140° | 9km/h | 24210m | 4.6m/s | -50.9°C | 3.1% | 30.2hPa | 2.6V | 00:00:00 | 01:36:47 | 00:00:00 | |
| DL1NUX | 2026-09-01 12:05:56 | 52.89034 | 10.79145 | 109° | 13km/h | 24194m | 6.2m/s | -51°C | 3.2% | 30.3hPa | 2.7V | 03:45:53 | 01:36:44 | 00:00:00 | |
| DB0DAN | 2026-09-01 12:05:55 | 52.89032 | 10.79150 | 108° | 9km/h | 24201m | 5.8m/s | -51.1°C | 0.5% | 30.23hPa | 2.7V | 00:00:00 | 00:00:00 | 00:00:00 | |
| AA1-15 | 2026-09-01 12:05:51 | 52.89037 | 10.79127 | 104° | 15km/h | 24179m | 5.8m/s | -51°C | 0% | 30.3hPa | 2.6V | 03:46:34 | 01:36:41 | 00:00:00 | |
| DL1XH-15 | 2026-09-01 12:05:51 | 52.89038 | 10.79117 | 84° | 9km/h | 24166m | 5.3m/s | -51.2°C | 3.1% | 30.4hPa | 2.7V | 03:45:58 | 01:36:39 | 00:00:00 | |
| BIOWL1-15 | 2026-09-01 12:05:50 | 52.89038 | 10.79121 | 96° | 11km/h | 24172m | 6.7m/s | -51.1°C | 0% | 30.4hPa | 2.7V | 03:46:34 | 01:36:40 | 00:00:00 | |
| DL4XJ-10 | 2026-09-01 12:05:49 | 52.89038 | 10.79117 | 85° | 15km/h | 24167m | 5.2m/s | -50.2°C | 0% | 0hPa | 2.7V | 00:00:00 | 00:00:00 | 00:00:00 | |
| DL1NUX | 2026-09-01 12:05:48 | 52.89045 | 10.79094 | 132° | 20km/h | 24140m | 3.9m/s | -51°C | 3.2% | 30.5hPa | 2.7V | 03:46:03 | 01:36:34 | 00:00:00 | |
| DL1XH-west | 2026-09-01 12:05:47 | 52.89040 | 10.79105 | 123° | 15km/h | 24151m | 6.5m/s | -51.1°C | 0% | 30.5hPa | 2.6V | 03:46:34 | 01:36:36 | 00:00:00 | |
| DL4BBY-15 | 2026-09-01 12:05:46 | 52.89040 | 10.79105 | 124° | 13km/h | 24151m | 6.4m/s | -50.1°C | 0% | 0hPa | 2.7V | 00:00:00 | 00:00:00 | 00:00:00 | |
| DO2SHX-10 | 2026-09-01 12:05:45 | 52.89042 | 10.79100 | 130° | 20km/h | 24145m | 5.3m/s | -51.1°C | 3.1% | 30.5hPa | 2.7V | 00:00:00 | 01:36:35 | 00:00:00 | |
| DM0DOS-11 | 2026-09-01 12:05:44 | 52.89051 | 10.79081 | 118° | 16km/h | 24129m | 6.2m/s | -51.1°C | 3.2% | 30.6hPa | 2.7V | 03:46:05 | 01:36:32 | 00:00:00 | |
| DO2SHX-10 | 2026-09-01 12:05:42 | 52.89051 | 10.79081 | 119° | 16km/h | 24129m | 6.2m/s | -51.1°C | 3.2% | 30.5hPa | 2.6V | 03:46:00 | 01:36:32 | 00:00:00 | |
| DL1XH-15 | 2026-09-01 12:05:41 | 52.89053 | 10.79061 | 91° | 18km/h | 24112m | 6.7m/s | -51°C | 3.2% | 30.6hPa | 2.6V | 03:46:08 | 01:36:29 | 00:00:00 | |
| DF8AY | 2026-09-01 12:05:40 | 52.89053 | 10.79069 | 93° | 16km/h | 24118m | 5m/s | -51.1°C | 0% | 30.6hPa | 2.6V | 03:46:34 | 01:36:30 | 00:00:00 | |
| DB0DAN | 2026-09-01 12:05:40 | 52.89053 | 10.79069 | 93° | 16km/h | 24118m | 5m/s | -51.1°C | 0.5% | 30.61hPa | 2.6V | 00:00:00 | 00:00:00 | 00:00:00 | |
| DD8BA-10 | 2026-09-01 12:05:39 | 52.89053 | 10.79053 | 92° | 15km/h | 24106m | 5.8m/s | -51.0°C | 3.2% | 30.6hPa | 2.7V | 00:00:00 | 00:00:00 | 00:00:00 | |
| DL1XH1-15 | 2026-09-01 12:05:37 | 52.89052 | 10.79031 | 75° | 15km/h | 24089m | 5.9m/s | -51.1°C | 3.1% | 30.8hPa | 2.7V | 03:46:12 | 01:36:25 | 00:00:00 | |
| DL1XH-west | 2026-09-01 12:05:36 | 52.89052 | 10.79031 | 75° | 15km/h | 24089m | 5.9m/s | -51.1°C | 0% | 30.8hPa | 2.7V | 03:46:34 | 01:36:25 | 00:00:00 | |
| DO2SHX-10 | 2026-09-01 12:05:36 | 52.89053 | 10.79037 | 84° | 15km/h | 24095m | 6.0m/s | -51.0°C | 3.1% | 30.7hPa | 2.7V | 00:00:00 | 01:36:26 | 00:00:00 | |
| SONDE2-11 | 2026-09-01 12:05:35 | 52.89052 | 10.79031 | 75° | 13km/h | 24089m | 5.9m/s | -51.1°C | 0.5% | 30.8hPa | 2.7V | 00:00:00 | 00:00:00 | 00:00:00 | |
| DO3MHA-11 | 2026-09-01 12:05:34 | 52.89051 | 10.79025 | 82° | 9km/h | 24084m | 4.2m/s | -51.1°C | 3.1% | 30.8hPa | 2.7V | 00:00:00 | 01:36:24 | 00:00:00 | |
| DM0DOS-11 | 2026-09-01 12:05:33 | 52.89053 | 10.79018 | 125° | 11km/h | 24073m | 6.5m/s | -51.1°C | 3.1% | 30.8hPa | 2.7V | 03:46:15 | 01:36:22 | 00:00:00 | |
| EDDB2-11 | 2026-09-01 12:05:33 | 52.89053 | 10.79018 | 125° | 11km/h | 24073m | 6.5m/s | -51.1°C | 0.5% | 30.8hPa | 2.7V | 00:00:00 | 00:00:00 | 00:00:00 | |
| SONCRA | 2026-09-01 12:05:31 | 52.89058 | 10.79010 | 144° | 13km/h | 24062m | 4.6m/s | -51.1°C | 0.5% | 30.9hPa | 2.7V | 00:00:00 | 00:00:00 | 00:00:00 | |
| DL1XH1-15 | 2026-09-01 12:05:30 | 52.89063 | 10.78998 | 98° | 7km/h | 24034m | 6.4m/s | -51.2°C | 3.2% | 31hPa | 2.7V | 03:46:22 | 01:36:15 | 00:00:00 | |
| DF8AY | 2026-09-01 12:05:29 | 52.89060 | 10.79007 | 143° | 11km/h | 24057m | 5.9m/s | -51.1°C | 0% | 30.9hPa | 2.6V | 03:46:34 | 01:36:19 | 00:00:00 | |
| DL1NUX | 2026-09-01 12:05:29 | 52.89063 | 10.78995 | 100° | 9km/h | 24028m | 5.2m/s | -51.2°C | 3.2% | 31hPa | 2.6V | 03:46:23 | 01:36:14 | 00:00:00 | |
| DL1XH-west | 2026-09-01 12:05:26 | 52.89063 | 10.78995 | 100° | 9km/h | 24028m | 5.2m/s | -51.2°C | 0% | 31hPa | 2.6V | 03:46:34 | 01:36:14 | 00:00:00 | |
| DB0DAN | 2026-09-01 12:05:25 | 52.89063 | 10.78998 | 99° | 7km/h | 24034m | 6.4m/s | -51.2°C | 0.5% | 31.02hPa | 2.7V | 00:00:00 | 00:00:00 | 00:00:00 | |
| DO2SHX-10 | 2026-09-01 12:05:24 | 52.89063 | 10.78995 | 101° | 11km/h | 24028m | 5.2m/s | -51.2°C | 3.2% | 31.0hPa | 2.7V | 00:00:00 | 01:36:14 | 00:00:00 | |
| DB0NH | 2026-09-01 12:05:23 | 52.89064 | 10.78991 | 94° | 5km/h | 24023m | 4.1m/s | -51.1°C | 3.2% | 31.0hPa | 2.7V | 00:00:00 | 01:36:13 | 00:00:00 | |
| DK7RCA | 2026-09-01 12:05:22 | 52.89064 | 10.78991 | 94° | 11km/h | 24023m | 4.1m/s | -51.2°C | 0.6% | 31.1hPa | 2.7V | 00:00:00 | 00:00:00 | 00:00:00 | |
| DL1XH-15 | 2026-09-01 12:05:21 | 52.89059 | 10.78977 | 30° | 7km/h | 24001m | 5m/s | -51.4°C | 3.1% | 31.1hPa | 2.7V | 03:46:28 | 01:36:09 | 00:00:00 | |
| AA1-15 | 2026-09-01 12:05:19 | 52.89058 | 10.78976 | 42° | 4km/h | 23997m | 4.8m/s | -51.5°C | 0% | 31.2hPa | 2.7V | 03:46:34 | 01:36:08 | 00:00:00 | |
| BIOWL1-15 | 2026-09-01 12:05:19 | 52.89061 | 10.78973 | 166° | 9km/h | 23980m | 5.2m/s | -51.6°C | 0% | 31.3hPa | 2.6V | 03:46:34 | 01:36:05 | 00:00:00 | |
| DF8AY | 2026-09-01 12:05:18 | 52.89058 | 10.78975 | 119° | 4km/h | 23991m | 6.4m/s | -51.5°C | 0% | 31.2hPa | 2.6V | 03:46:34 | 01:36:07 | 00:00:00 | |
| DF7ER-10 | 2026-09-01 12:05:18 | 52.89058 | 10.78976 | 43° | 4km/h | 23997m | 4.8m/s | -51.5°C | 0.6% | 31.2hPa | 2.6V | 03:46:00 | 00:00:00 | 00:00:00 | |
| DL1XH1-15 | 2026-09-01 12:05:17 | 52.89061 | 10.78973 | 166° | 9km/h | 23980m | 5.2m/s | -51.5°C | 3.1% | 31.3hPa | 2.6V | 03:46:32 | 01:36:05 | 00:00:00 | |
| BIOWL9-15 | 2026-09-01 12:05:17 | 52.89058 | 10.78975 | 119° | 2km/h | 23991m | 6.4m/s | -51.5°C | 0.5% | 31.2hPa | 2.7V | 00:00:00 | 00:00:00 | 00:00:00 | |
| DL1NUX | 2026-09-01 12:05:16 | 52.89063 | 10.78972 | 181° | 7km/h | 23973m | 6.2m/s | -51.6°C | 3.2% | 31.3hPa | 2.7V | 03:46:33 | 01:36:04 | 00:00:00 | |
| DL1XH-west | 2026-09-01 12:05:14 | 52.89064 | 10.78973 | 201° | 5km/h | 23968m | 6m/s | -51.5°C | 0% | 31.3hPa | 2.7V | 03:46:34 | 01:36:03 | 00:00:00 | |
| DF8AY | 2026-09-01 12:05:13 | 52.89069 | 10.78970 | 1° | 4km/h | 23929m | 5.6m/s | -51.7°C | 0% | 31.5hPa | 2.7V | 03:47:25 | 01:35:56 | 00:00:00 | |
| DO2SHX-10 | 2026-09-01 12:05:12 | 52.89065 | 10.78973 | 217° | 4km/h | 23963m | 4.8m/s | -51.5°C | 3.2% | 31.3hPa | 2.7V | 00:00:00 | 01:36:02 | 00:00:00 | |
| DB0DAN | 2026-09-01 12:05:10 | 52.89067 | 10.78974 | 166° | 5km/h | 23952m | 6.5m/s | 0°C | 0% | 31.43hPa | 2.6V | 00:00:00 | 00:00:00 | 00:00:00 | |
| DB0DAN | 2026-09-01 12:05:10 | 52.89067 | 10.78974 | 166° | 5km/h | 23952m | 6.5m/s | -51.6°C | 0.6% | 31.43hPa | 2.6V | 00:00:00 | 00:00:00 | 00:00:00 | |
| DL1NUX | 2026-09-01 12:05:09 | 52.89067 | 10.78970 | 321° | 0km/h | 23918m | 6.2m/s | -51.8°C | 3.3% | 31.6hPa | 2.6V | 03:46:43 | 01:35:54 | 00:00:00 | |
| AA1-15 | 2026-09-01 12:05:07 | 52.89069 | 10.78970 | 63° | 2km/h | 23935m | 6.6m/s | -51.7°C | 0% | 31.5hPa | 2.7V | 03:47:25 | 01:35:57 | 00:00:00 | |
| DM0DOS-11 | 2026-09-01 12:05:07 | 52.89070 | 10.78970 | 191° | 4km/h | 23901m | 6m/s | -51.8°C | 3.2% | 31.7hPa | 2.7V | 03:46:46 | 01:35:51 | 00:00:00 | |
| BIOWL1-15 | 2026-09-01 12:05:04 | 52.89067 | 10.78970 | 321° | 0km/h | 23918m | 6.2m/s | -51.8°C | 0% | 31.6hPa | 2.6V | 03:47:25 | 01:35:54 | 00:00:00 | |
| DL1XH-west | 2026-09-01 12:05:04 | 52.89069 | 10.78970 | 179° | 5km/h | 23906m | 5.1m/s | -51.7°C | 0% | 31.6hPa | 2.7V | 03:47:25 | 01:35:52 | 00:00:00 | |
| MECKS9 | 2026-09-01 12:05:03 | 52.89067 | 10.78970 | 177° | 4km/h | 23912m | 6.0m/s | -51.7°C | 0.5% | 31.6hPa | 2.6V | 03:47:00 | 00:00:00 | 00:00:00 | |
| DO3MHA-11 | 2026-09-01 12:05:02 | 52.89069 | 10.78970 | 179° | 5km/h | 23907m | 5.1m/s | -51.7°C | 3.2% | 31.6hPa | 2.6V | 03:46:00 | 01:35:52 | 00:00:00 | |
| EDDB2-11 | 2026-09-01 12:05:01 | 52.89070 | 10.78970 | 191° | 4km/h | 23901m | 6.0m/s | -51.8°C | 0.5% | 31.7hPa | 2.6V | 00:00:00 | 00:00:00 | 00:00:00 | |
| BUE01 | 2026-09-01 12:05:00 | 52.89071 | 10.78971 | 214° | 2km/h | 23895m | 6.8m/s | -51.7°C | 0.6% | 31.7hPa | 2.6V | 00:00:00 | 00:00:00 | 00:00:00 | |
| DL1ZP-14 | 2026-09-01 12:04:59 | 52.89072 | 10.78972 | 164° | 2km/h | 23884m | 5.1m/s | -51.8°C | 0.5% | 31.8hPa | 2.6V | 00:00:00 | 00:00:00 | 00:00:00 | |
| DD8BA-10 | 2026-09-01 12:04:58 | 52.89072 | 10.78971 | 165° | 7km/h | 23884m | 5.1m/s | -51.7°C | 3.2% | 31.7hPa | 2.6V | 00:00:00 | 00:00:00 | 00:00:00 | |
| DL1NUX | 2026-09-01 12:04:57 | 52.89076 | 10.78962 | 100° | 7km/h | 23862m | 6.9m/s | -51.8°C | 3.3% | 31.8hPa | 2.7V | 03:46:53 | 01:35:44 | 00:00:00 | |
| DL1XH1-15 | 2026-09-01 12:04:57 | 52.89075 | 10.78965 | 115° | 9km/h | 23867m | 4.5m/s | -51.8°C | 3.3% | 31.8hPa | 2.7V | 03:46:52 | 01:35:45 | 00:00:00 | |
| AA1-15 | 2026-09-01 12:04:57 | 52.89074 | 10.78968 | 129° | 9km/h | 23872m | 4.8m/s | -51.7°C | 0% | 31.8hPa | 2.7V | 03:47:25 | 01:35:46 | 00:00:00 | |
| GOEST3-10 | 2026-09-01 12:04:56 | 52.89074 | 10.78968 | 129° | 7km/h | 23873m | 4.8m/s | -51.7°C | 3.2% | 31.8hPa | 2.6V | 00:00:00 | 01:35:46 | 00:00:00 | |
| DM0DOS-11 | 2026-09-01 12:04:55 | 52.89074 | 10.78955 | 68° | 7km/h | 23844m | 6.4m/s | -51.9°C | 3.3% | 31.9hPa | 2.6V | 03:46:56 | 01:35:41 | 00:00:00 | |
| DB0DAN | 2026-09-01 12:04:55 | 52.89075 | 10.78965 | 116° | 7km/h | 23867m | 4.5m/s | 0°C | 0% | 0hPa | 2.7V | 00:00:00 | 00:00:00 | 00:00:00 | |
| DB0DAN | 2026-09-01 12:04:55 | 52.89075 | 10.78965 | 116° | 7km/h | 23867m | 4.5m/s | -51.8°C | 0.6% | 31.84hPa | 2.7V | 00:00:00 | 00:00:00 | 00:00:00 | |
| BIOWL1-15 | 2026-09-01 12:04:53 | 52.89074 | 10.78948 | 84° | 7km/h | 23833m | 4.4m/s | -51.9°C | 0% | 32hPa | 2.7V | 03:47:25 | 01:35:39 | 00:00:00 | |
| DL1XH-west | 2026-09-01 12:04:53 | 52.89076 | 10.78960 | 68° | 5km/h | 23855m | 6.4m/s | -51.8°C | 0% | 31.9hPa | 2.7V | 03:47:25 | 01:35:43 | 00:00:00 | |
| DO3MHA-11 | 2026-09-01 12:04:52 | 52.89075 | 10.78958 | 58° | 7km/h | 23850m | 5.1m/s | -51.8°C | 3.3% | 31.9hPa | 2.6V | 00:00:00 | 01:35:42 | 00:00:00 | |
| DO2SHX-10 | 2026-09-01 12:04:51 | 52.89074 | 10.78955 | 69° | 7km/h | 23844m | 6.3m/s | -51.9°C | 3.3% | 31.9hPa | 2.6V | 00:00:00 | 01:35:41 | 00:00:00 | |
| DL1XH1-15 | 2026-09-01 12:04:50 | 52.89070 | 10.78940 | 44° | 5km/h | 23809m | 5.7m/s | -51.9°C | 3.2% | 32.1hPa | 2.6V | 03:47:02 | 01:35:35 | 00:00:00 | |
| DF8AY | 2026-09-01 12:04:47 | 52.89072 | 10.78943 | 36° | 7km/h | 23821m | 6.7m/s | -51.9°C | 0% | 32.1hPa | 2.7V | 03:47:25 | 01:35:37 | 00:00:00 | |
| AA1-15 | 2026-09-01 12:04:45 | 52.89070 | 10.78940 | 44° | 5km/h | 23809m | 5.7m/s | -51.9°C | 0% | 32.1hPa | 2.6V | 03:47:25 | 01:35:35 | 00:00:00 | |
| BIOWL1-15 | 2026-09-01 12:04:43 | 52.89066 | 10.78931 | 34° | 9km/h | 23787m | 7.1m/s | -52°C | 0% | 32.3hPa | 2.7V | 03:47:25 | 01:35:31 | 00:00:00 | |
| DL1XH-west | 2026-09-01 12:04:43 | 52.89068 | 10.78936 | 77° | 5km/h | 23798m | 5.2m/s | -51.9°C | 0% | 32.2hPa | 2.6V | 03:47:25 | 01:35:33 | 00:00:00 | |
| DO2SHX-10 | 2026-09-01 12:04:42 | 52.89068 | 10.78934 | 57° | 9km/h | 23793m | 5.0m/s | -51.9°C | 3.2% | 32.2hPa | 2.7V | 03:47:00 | 01:35:32 | 00:00:00 | |
| GOEST3-10 | 2026-09-01 12:04:41 | 52.89066 | 10.78931 | 34° | 11km/h | 23787m | 7.0m/s | -52.0°C | 3.3% | 32.2hPa | 2.7V | 00:00:00 | 00:00:00 | 00:00:00 | |
| DL1XH1-15 | 2026-09-01 12:04:40 | 52.89053 | 10.78911 | 41° | 15km/h | 23752m | 6.6m/s | -52.2°C | 3.4% | 32.4hPa | 2.7V | 03:47:12 | 01:35:25 | 00:00:00 | |
| DB0DAN | 2026-09-01 12:04:40 | 52.89064 | 10.78929 | 26° | 11km/h | 23780m | 6m/s | -52°C | 0.6% | 32.28hPa | 2.7V | 00:00:00 | 00:00:00 | 00:00:00 | |
| DF8AY | 2026-09-01 12:04:37 | 52.89057 | 10.78920 | 56° | 13km/h | 23763m | 5.5m/s | -52.1°C | 0% | 32.4hPa | 2.7V | 03:47:25 | 01:35:27 | 00:00:00 | |
| DM0DOS-11 | 2026-09-01 12:04:36 | 52.89041 | 10.78901 | 36° | 9km/h | 23727m | 6.4m/s | -52°C | 3.4% | 32.6hPa | 2.7V | 03:47:16 | 01:35:21 | 00:00:00 | |
| DL1NUX | 2026-09-01 12:04:36 | 52.89050 | 10.78907 | 26° | 15km/h | 23745m | 7.2m/s | -52.2°C | 3.4% | 32.4hPa | 2.6V | 03:47:13 | 01:35:24 | 00:00:00 | |
| AA1-15 | 2026-09-01 12:04:34 | 52.89050 | 10.78907 | 27° | 15km/h | 23745m | 7.2m/s | -52.2°C | 0% | 32.5hPa | 2.6V | 03:47:25 | 01:35:24 | 00:00:00 | |
| DL1XH-west | 2026-09-01 12:04:33 | 52.89046 | 10.78905 | 19° | 13km/h | 23739m | 5.4m/s | -52.2°C | 0% | 32.5hPa | 2.6V | 03:47:25 | 01:35:23 | 00:00:00 | |
| DL1XH-15 | 2026-09-01 12:04:32 | 52.89037 | 10.78897 | 21° | 9km/h | 23716m | 6.2m/s | -52.1°C | 3.3% | 32.6hPa | 2.6V | 03:47:18 | 01:35:19 | 00:00:00 | |
| BIOWL1-15 | 2026-09-01 12:04:32 | 52.89035 | 10.78896 | 12° | 11km/h | 23709m | 6.5m/s | -51.9°C | 0% | 32.6hPa | 2.7V | 03:47:25 | 01:35:18 | 00:00:00 | |
| DO3MHA-11 | 2026-09-01 12:04:32 | 52.89043 | 10.78903 | 27° | 11km/h | 23734m | 6.6m/s | 0°C | 0% | 0hPa | 2.6V | 00:00:00 | 01:35:22 | 00:00:00 | |
| GOEST3-10 | 2026-09-01 12:04:31 | 52.89041 | 10.78901 | 37° | 11km/h | 23727m | 6.3m/s | -52.0°C | 3.4% | 32.5hPa | 2.6V | 03:47:00 | 00:00:00 | 00:00:00 | |
| DO2SHX-10 | 2026-09-01 12:04:30 | 52.89039 | 10.78899 | 37° | 9km/h | 23722m | 4.2m/s | -52.0°C | 3.3% | 32.5hPa | 2.6V | 03:47:00 | 01:35:20 | 00:00:00 | |
| DL1NUX | 2026-09-01 12:04:29 | 52.89024 | 10.78888 | 34° | 11km/h | 23686m | 5.3m/s | -51.9°C | 3.3% | 32.8hPa | 2.6V | 03:47:23 | 01:35:14 | 00:00:00 | |
| DL4XJ-10 | 2026-09-01 12:04:29 | 52.89037 | 10.78897 | 22° | 9km/h | 23716m | 6.1m/s | -51.1°C | 0% | 0hPa | 2.7V | 00:00:00 | 00:00:00 | 00:00:00 | |
| DD8BA-10 | 2026-09-01 12:04:28 | 52.89035 | 10.78896 | 12° | 11km/h | 23710m | 6.5m/s | -51.9°C | 3.3% | 32.6hPa | 2.7V | 00:00:00 | 00:00:00 | 00:00:00 | |
| DO2SHX-10 | 2026-09-01 12:04:27 | 52.89032 | 10.78895 | 12° | 13km/h | 23704m | 4.8m/s | -51.9°C | 3.3% | 32.6hPa | 2.7V | 00:00:00 | 01:35:17 | 00:00:00 | |
| DM0DOS-11 | 2026-09-01 12:04:26 | 52.89013 | 10.78886 | 353° | 11km/h | 23664m | 4.5m/s | -52.2°C | 3.4% | 32.9hPa | 2.6V | 03:47:27 | 01:35:10 | 00:00:00 | |
| DL1XH1-15 | 2026-09-01 12:04:26 | 52.89026 | 10.78891 | 33° | 11km/h | 23692m | 6.3m/s | -52°C | 3.3% | 32.7hPa | 2.6V | 03:47:22 | 01:35:15 | 00:00:00 | |
| DF8AY | 2026-09-01 12:04:25 | 52.89026 | 10.78891 | 34° | 11km/h | 23692m | 6.3m/s | -52.1°C | 0% | 32.7hPa | 2.6V | 03:47:25 | 01:35:15 | 00:00:00 | |
| DB0DAN | 2026-09-01 12:04:25 | 52.89026 | 10.78891 | 34° | 11km/h | 23692m | 6.3m/s | -52.1°C | 0.6% | 32.7hPa | 2.6V | 00:00:00 | 00:00:00 | 00:00:00 | |
| AA1-15 | 2026-09-01 12:04:23 | 52.89022 | 10.78886 | 21° | 11km/h | 23681m | 6.2m/s | -52°C | 0% | 32.8hPa | 2.7V | 03:47:25 | 01:35:13 | 00:00:00 | |
| DL1XH-west | 2026-09-01 12:04:23 | 52.89013 | 10.78886 | 353° | 11km/h | 23664m | 4.5m/s | -52.2°C | 0% | 32.9hPa | 2.6V | 03:48:16 | 01:35:10 | 00:00:00 | |
| BIOWL1-15 | 2026-09-01 12:04:21 | 52.89007 | 10.78886 | 359° | 7km/h | 23646m | 5.5m/s | -52°C | 0% | 32.9hPa | 2.7V | 03:48:16 | 01:35:07 | 00:00:00 | |
| DO2SHX-10 | 2026-09-01 12:04:21 | 52.89016 | 10.78885 | 357° | 11km/h | 23669m | 4.8m/s | -52.1°C | 3.3% | 32.8hPa | 2.6V | 00:00:00 | 01:35:11 | 00:00:00 | |
| AP2371 | 2026-09-01 12:04:20 | 52.89016 | 10.78885 | 358° | 13km/h | 23669m | 4.8m/s | -52.2°C | 0.6% | 32.8hPa | 2.6V | 00:00:00 | 00:00:00 | 00:00:00 | |
| DO2SHX-10 | 2026-09-01 12:04:18 | 52.89008 | 10.78886 | 5° | 7km/h | 23652m | 5.5m/s | -51.9°C | 3.3% | 32.9hPa | 2.6V | 03:47:00 | 01:35:08 | 00:00:00 | |
| DL1NUX | 2026-09-01 12:04:16 | 52.88999 | 10.78889 | 344° | 13km/h | 23629m | 4.6m/s | -52°C | 3.4% | 33hPa | 2.7V | 03:47:33 | 01:35:04 | 00:00:00 | |
| DL4BBY-15 | 2026-09-01 12:04:16 | 52.89005 | 10.78886 | 351° | 7km/h | 23640m | 6.9m/s | -51.0°C | 0% | 0hPa | 2.7V | 00:00:00 | 00:00:00 | 00:00:00 | |
| DM0DOS-11 | 2026-09-01 12:04:15 | 52.88992 | 10.78896 | 315° | 9km/h | 23601m | 6.8m/s | -51.9°C | 3.2% | 33.2hPa | 2.7V | 03:47:38 | 01:34:59 | 00:00:00 | |
| AA1-15 | 2026-09-01 12:04:12 | 52.88995 | 10.78891 | 337° | 5km/h | 23618m | 5.9m/s | -51.8°C | 0% | 33.1hPa | 2.6V | 03:48:16 | 01:35:02 | 00:00:00 | |
| DL1XH-west | 2026-09-01 12:04:11 | 52.88994 | 10.78892 | 319° | 5km/h | 23612m | 4.7m/s | -51.8°C | 0% | 33.1hPa | 2.6V | 03:48:16 | 01:35:01 | 00:00:00 | |
| GOEST3-10 | 2026-09-01 12:04:11 | 52.88994 | 10.78892 | 319° | 7km/h | 23613m | 4.7m/s | -51.8°C | 3.3% | 33.1hPa | 2.7V | 03:47:00 | 00:00:00 | 00:00:00 | |
| DL1XH-15 | 2026-09-01 12:04:10 | 52.88992 | 10.78896 | 315° | 9km/h | 23601m | 6.8m/s | -51.9°C | 3.2% | 33.2hPa | 2.7V | 03:47:38 | 01:34:59 | 00:00:00 | |
| DB0DAN | 2026-09-01 12:04:10 | 52.88993 | 10.78894 | 310° | 5km/h | 23607m | 5.4m/s | -51.8°C | 0.6% | 33.16hPa | 2.7V | 00:00:00 | 00:00:00 | 00:00:00 | |
| DL1NUX | 2026-09-01 12:04:10 | 52.88987 | 10.78904 | 323° | 0km/h | 23573m | 4.5m/s | -51.9°C | 3.2% | 33.4hPa | 2.6V | 03:47:43 | 01:34:54 | 00:00:00 | |
| DL1XH1-15 | 2026-09-01 12:04:09 | 52.88987 | 10.78903 | 276° | 2km/h | 23577m | 5.4m/s | -51.9°C | 3.2% | 33.3hPa | 2.6V | 03:47:42 | 01:34:55 | 00:00:00 | |
| BIOWL1-15 | 2026-09-01 12:04:06 | 52.88987 | 10.78902 | 311° | 4km/h | 23584m | 6.6m/s | -51.9°C | 0% | 33.3hPa | 2.6V | 03:48:16 | 01:34:56 | 00:00:00 | |
| DO2SHX-10 | 2026-09-01 12:04:06 | 52.88987 | 10.78902 | 311° | 2km/h | 23584m | 6.5m/s | -51.8°C | 3.2% | 33.2hPa | 2.7V | 03:47:00 | 01:34:56 | 00:00:00 | |
| DL1XH-15 | 2026-09-01 12:04:04 | 52.88978 | 10.78910 | 330° | 4km/h | 23539m | 5.1m/s | -52°C | 3.3% | 33.5hPa | 2.7V | 03:47:49 | 01:34:48 | 00:00:00 | |
| DF8AY | 2026-09-01 12:04:03 | 52.88986 | 10.78904 | 338° | 4km/h | 23567m | 6.3m/s | -52°C | 0% | 33.4hPa | 2.7V | 03:48:16 | 01:34:53 | 00:00:00 | |
| DL1XH-west | 2026-09-01 12:04:01 | 52.88979 | 10.78909 | 333° | 5km/h | 23545m | 6.4m/s | -52.1°C | 0% | 33.5hPa | 2.6V | 03:48:16 | 01:34:49 | 00:00:00 | |
| AA1-15 | 2026-09-01 12:04:01 | 52.88983 | 10.78907 | 336° | 9km/h | 23556m | 4.5m/s | -51.9°C | 0% | 33.4hPa | 2.7V | 03:48:16 | 01:34:51 | 00:00:00 | |
| BIOWL1-15 | 2026-09-01 12:03:58 | 52.88976 | 10.78912 | 346° | 7km/h | 23528m | 6.9m/s | -52.1°C | 0% | 33.6hPa | 2.7V | 03:48:16 | 01:34:46 | 00:00:00 | |
| BUE01 | 2026-09-01 12:03:58 | 52.88978 | 10.78910 | 330° | 4km/h | 23539m | 5.1m/s | -52.1°C | 0.6% | 33.5hPa | 2.7V | 00:00:00 | 00:00:00 | 00:00:00 | |
| DL1ZP-14 | 2026-09-01 12:03:57 | 52.88976 | 10.78912 | 345° | 5km/h | 23528m | 6.9m/s | -52.1°C | 0.6% | 33.6hPa | 2.7V | 00:00:00 | 00:00:00 | 00:00:00 | |
| DL1NUX | 2026-09-01 12:03:56 | 52.88972 | 10.78911 | 24° | 7km/h | 23516m | 4.6m/s | -52.3°C | 3.4% | 33.6hPa | 2.6V | 03:47:53 | 01:34:44 | 00:00:00 | |
| DB0DAN | 2026-09-01 12:03:55 | 52.88974 | 10.78912 | 3° | 9km/h | 23522m | 5.5m/s | -52.2°C | 0.6% | 33.62hPa | 2.6V | 00:00:00 | 00:00:00 | 00:00:00 | |
| DO2SHX-10 | 2026-09-01 12:03:54 | 52.88972 | 10.78911 | 25° | 9km/h | 23517m | 4.6m/s | -52.2°C | 3.4% | 33.6hPa | 2.7V | 03:47:00 | 01:34:44 | 00:00:00 | |
| DL1XH-15 | 2026-09-01 12:03:53 | 52.88970 | 10.78890 | 85° | 11km/h | 23487m | 6.2m/s | -52.4°C | 3.4% | 33.8hPa | 2.7V | 03:47:58 | 01:34:39 | 00:00:00 | |
| DF8AY | 2026-09-01 12:03:52 | 52.88970 | 10.78905 | 87° | 11km/h | 23504m | 6.2m/s | -52.2°C | 0% | 33.7hPa | 2.7V | 03:48:16 | 01:34:42 | 00:00:00 | |
| AA1-15 | 2026-09-01 12:03:50 | 52.88970 | 10.78895 | 93° | 13km/h | 23493m | 5.4m/s | -52.4°C | 0% | 33.8hPa | 2.7V | 03:48:16 | 01:34:40 | 00:00:00 | |
| DL4XJ-10 | 2026-09-01 12:03:49 | 52.88970 | 10.78890 | 86° | 11km/h | 23488m | 6.2m/s | -51.4°C | 0% | 0hPa | 2.7V | 00:00:00 | 00:00:00 | 00:00:00 | |
| DL1XH1-15 | 2026-09-01 12:03:48 | 52.88970 | 10.78879 | 156° | 5km/h | 23465m | 5.1m/s | -52.6°C | 3.4% | 33.9hPa | 2.7V | 03:48:02 | 01:34:35 | 00:00:00 | |
| BIOWL1-15 | 2026-09-01 12:03:45 | 52.88970 | 10.78879 | 157° | 5km/h | 23465m | 5.1m/s | -52.6°C | 0% | 33.9hPa | 2.7V | 03:48:16 | 01:34:35 | 00:00:00 | |
| DO2SHX-10 | 2026-09-01 12:03:45 | 52.88970 | 10.78879 | 157° | 4km/h | 23466m | 5.1m/s | -52.6°C | 3.4% | 33.9hPa | 2.6V | 00:00:00 | 01:34:35 | 00:00:00 | |
| DL3AQ-11 | 2026-09-01 12:03:44 | 52.88972 | 10.78879 | 270° | 2km/h | 23456m | 5.7m/s | -52.5°C | 0.6% | 33.9hPa | 2.6V | 00:00:00 | 00:00:00 | 00:00:00 | |
| DL1XH-15 | 2026-09-01 12:03:43 | 52.88965 | 10.78876 | 52° | 13km/h | 23432m | 6.3m/s | -52.6°C | 3.4% | 34hPa | 2.6V | 03:48:08 | 01:34:29 | 00:00:00 | |
| DF8AY | 2026-09-01 12:03:42 | 52.88969 | 10.78881 | 3° | 9km/h | 23443m | 5.4m/s | -52.6°C | 0% | 34hPa | 2.6V | 03:48:16 | 01:34:31 | 00:00:00 | |
| AA1-15 | 2026-09-01 12:03:39 | 52.88965 | 10.78876 | 53° | 13km/h | 23432m | 6.3m/s | -52.6°C | 0% | 34hPa | 2.6V | 03:48:16 | 01:34:29 | 00:00:00 | |
| DO2SHX-10 | 2026-09-01 12:03:39 | 52.88965 | 10.78876 | 53° | 16km/h | 23432m | 6.2m/s | -52.5°C | 3.4% | 34.0hPa | 2.6V | 00:00:00 | 01:34:29 | 00:00:00 | |
| DL1NUX | 2026-09-01 12:03:38 | 52.88957 | 10.78841 | 69° | 16km/h | 23404m | 5.2m/s | -52.6°C | 3.4% | 34.2hPa | 2.6V | 03:48:13 | 01:34:24 | 00:00:00 | |
| DL1XH1-15 | 2026-09-01 12:03:38 | 52.88959 | 10.78848 | 69° | 18km/h | 23410m | 5.8m/s | -52.6°C | 3.3% | 34.2hPa | 2.6V | 03:48:12 | 01:34:25 | 00:00:00 | |
| BIOWL1-15 | 2026-09-01 12:03:34 | 52.88957 | 10.78841 | 69° | 18km/h | 23404m | 5.2m/s | -52.6°C | 0% | 34.2hPa | 2.6V | 03:48:16 | 01:34:24 | 00:00:00 | |
| DO2SHX-10 | 2026-09-01 12:03:33 | 52.88956 | 10.78834 | 78° | 15km/h | 23399m | 5.9m/s | -52.6°C | 3.4% | 34.2hPa | 2.7V | 00:00:00 | 01:34:23 | 00:00:00 | |
| DL1XH-15 | 2026-09-01 12:03:32 | 52.88956 | 10.78815 | 64° | 9km/h | 23376m | 6.2m/s | -52.6°C | 3.4% | 34.4hPa | 2.6V | 03:48:18 | 01:34:19 | 00:00:00 | |
| DF8AY | 2026-09-01 12:03:31 | 52.88950 | 10.78804 | 54° | 15km/h | 23360m | 6m/s | -52.6°C | 0% | 34.5hPa | 2.6V | 03:49:07 | 01:34:16 | 00:00:00 | |
| DL1XH-west | 2026-09-01 12:03:29 | 52.88952 | 10.78808 | 42° | 15km/h | 23365m | 4.8m/s | -52.6°C | 0% | 34.4hPa | 2.7V | 03:49:07 | 01:34:17 | 00:00:00 | |
| AA1-15 | 2026-09-01 12:03:28 | 52.88954 | 10.78812 | 43° | 11km/h | 23371m | 5.3m/s | -52.6°C | 0% | 34.4hPa | 2.7V | 03:49:07 | 01:34:18 | 00:00:00 | |
| DL1NUX | 2026-09-01 12:03:28 | 52.88945 | 10.78792 | 60° | 18km/h | 23349m | 4.2m/s | -52.7°C | 3.5% | 34.5hPa | 2.7V | 03:48:23 | 01:34:14 | 00:00:00 | |
| DL1XH1-15 | 2026-09-01 12:03:27 | 52.88948 | 10.78798 | 63° | 16km/h | 23354m | 5.6m/s | -52.6°C | 3.5% | 34.5hPa | 2.6V | 03:48:22 | 01:34:15 | 00:00:00 | |
| BIOWL1-15 | 2026-09-01 12:03:24 | 52.88935 | 10.78767 | 59° | 16km/h | 23326m | 6.7m/s | -52.7°C | 0% | 34.7hPa | 2.6V | 03:49:07 | 01:34:10 | 00:00:00 | |
| DB0NH | 2026-09-01 12:03:23 | 52.88943 | 10.78785 | 55° | 18km/h | 23344m | 6.4m/s | -52.6°C | 3.5% | 34.5hPa | 2.7V | 00:00:00 | 01:34:13 | 00:00:00 | |
| DM0DOS-11 | 2026-09-01 12:03:22 | 52.88933 | 10.78761 | 70° | 16km/h | 23320m | 5.8m/s | -52.6°C | 3.5% | 34.7hPa | 2.7V | 03:48:28 | 01:34:09 | 00:00:00 | |
| AA1-15 | 2026-09-01 12:03:17 | 52.88930 | 10.78749 | 57° | 16km/h | 23309m | 6.5m/s | -52.6°C | 0% | 34.8hPa | 2.7V | 03:49:07 | 01:34:07 | 00:00:00 | |
| DL1XH-west | 2026-09-01 12:03:17 | 52.88927 | 10.78743 | 45° | 18km/h | 23303m | 6.4m/s | -52.6°C | 0% | 34.8hPa | 2.6V | 03:49:07 | 01:34:06 | 00:00:00 | |
| DL1NUX | 2026-09-01 12:03:16 | 52.88920 | 10.78733 | 42° | 18km/h | 23292m | 5.9m/s | -52.5°C | 3.4% | 34.8hPa | 2.6V | 03:48:33 | 01:34:04 | 00:00:00 | |
| GOEST3-10 | 2026-09-01 12:03:16 | 52.88923 | 10.78738 | 41° | 18km/h | 23298m | 4.6m/s | -52.4°C | 3.4% | 34.7hPa | 2.6V | 00:00:00 | 01:34:05 | 00:00:00 | |
| DO2SHX-10 | 2026-09-01 12:03:15 | 52.88923 | 10.78738 | 41° | 18km/h | 23298m | 4.6m/s | -52.4°C | 3.4% | 34.7hPa | 2.6V | 00:00:00 | 01:34:05 | 00:00:00 | |
| BIOWL9-15 | 2026-09-01 12:03:13 | 52.88917 | 10.78728 | 48° | 16km/h | 23286m | 6.5m/s | -52.5°C | 0.6% | 34.9hPa | 2.6V | 00:00:00 | 00:00:00 | 00:00:00 | |
| DL1XH-15 | 2026-09-01 12:03:12 | 52.88901 | 10.78704 | 35° | 24km/h | 23262m | 4.8m/s | -52.4°C | 3.4% | 35hPa | 2.6V | 03:48:38 | 01:33:59 | 00:00:00 | |
| MECKS9 | 2026-09-01 12:03:11 | 52.88906 | 10.78710 | 39° | 24km/h | 23268m | 6.7m/s | -52.4°C | 0.6% | 35.0hPa | 2.7V | 00:00:00 | 00:00:00 | 00:00:00 | |
| DL1NUX | 2026-09-01 12:03:09 | 52.88881 | 10.78682 | 17° | 16km/h | 23233m | 6.8m/s | -52.4°C | 3.4% | 35.1hPa | 2.7V | 03:48:43 | 01:33:54 | 00:00:00 | |
| AA1-15 | 2026-09-01 12:03:07 | 52.88892 | 10.78693 | 41° | 20km/h | 23250m | 6.2m/s | -52.4°C | 0% | 35.1hPa | 2.6V | 03:49:07 | 01:33:57 | 00:00:00 | |
| DL1XH-west | 2026-09-01 12:03:06 | 52.88885 | 10.78685 | 26° | 16km/h | 23240m | 5.4m/s | -52.3°C | 0% | 35.1hPa | 2.7V | 03:49:07 | 01:33:55 | 00:00:00 | |
| GOEST3-10 | 2026-09-01 12:03:05 | 52.88885 | 10.78685 | 27° | 15km/h | 23240m | 5.4m/s | -52.3°C | 3.4% | 35.1hPa | 2.7V | 00:00:00 | 01:33:55 | 00:00:00 | |
| AM1SDL-15 | 2026-09-01 12:03:04 | 52.88881 | 10.78682 | 18° | 16km/h | 23234m | 6.8m/s | -52.3°C | 3.4% | 35.1hPa | 2.7V | 00:00:00 | 01:33:54 | 00:00:00 | |
| DO2SHX-10 | 2026-09-01 12:03:03 | 52.88877 | 10.78680 | 13° | 15km/h | 23228m | 4.7m/s | -52.3°C | 3.5% | 35.1hPa | 2.7V | 00:00:00 | 01:33:53 | 00:00:00 | |
| DO3MHA-11 | 2026-09-01 12:03:02 | 52.88873 | 10.78679 | 13° | 18km/h | 23223m | 4.2m/s | 0°C | 0% | 0hPa | 2.7V | 03:48:00 | 01:33:52 | 00:00:00 | |
| EDDB2-12 | 2026-09-01 12:03:01 | 52.88871 | 10.78678 | 22° | 11km/h | 23218m | 6.7m/s | -52.3°C | 0.6% | 35.2hPa | 2.7V | 00:00:00 | 00:00:00 | 00:00:00 | |
| DL1XH-15 | 2026-09-01 12:03:00 | 52.88866 | 10.78672 | 38° | 13km/h | 23207m | 4.6m/s | -52.2°C | 3.4% | 35.3hPa | 2.7V | 03:48:48 | 01:33:49 | 00:00:00 | |
| DL1XH1-15 | 2026-09-01 12:03:00 | 52.88806 | 10.78648 | 48° | 9km/h | 23131m | 4.8m/s | -51.8°C | 3.4% | 35.7hPa | 2.7V | 03:49:02 | 01:33:35 | 00:00:00 | |
| BIOWL1-15 | 2026-09-01 12:02:59 | 52.88866 | 10.78672 | 38° | 13km/h | 23207m | 4.6m/s | -52.2°C | 0% | 35.3hPa | 2.7V | 03:49:07 | 01:33:49 | 00:00:00 | |
| DF8AY | 2026-09-01 12:02:57 | 52.88858 | 10.78664 | 29° | 22km/h | 23194m | 5.9m/s | -52.2°C | 0% | 35.3hPa | 2.7V | 03:49:07 | 01:33:47 | 00:00:00 | |
| AA1-15 | 2026-09-01 12:02:56 | 52.88853 | 10.78660 | 28° | 24km/h | 23189m | 5m/s | -52.2°C | 0% | 35.4hPa | 2.6V | 03:49:07 | 01:33:46 | 00:00:00 | |
| DL1XH-west | 2026-09-01 12:02:54 | 52.88819 | 10.78649 | 351° | 22km/h | 23152m | 4.3m/s | -52°C | 0% | 35.6hPa | 2.6V | 03:49:07 | 01:33:39 | 00:00:00 | |
| S3001 | 2026-09-01 12:02:52 | 52.88834 | 10.78647 | 3° | 16km/h | 23168m | 4.7m/s | -51.9°C | 0.6% | 35.5hPa | 2.6V | 00:00:00 | 00:00:00 | 00:00:00 | |
| DL3AQ-11 | 2026-09-01 12:02:51 | 52.88824 | 10.78648 | 353° | 22km/h | 23157m | 5.8m/s | -51.9°C | 0.6% | 35.5hPa | 2.6V | 00:00:00 | 00:00:00 | 00:00:00 | |
| DL1XH-15 | 2026-09-01 12:02:50 | 52.88819 | 10.78649 | 350° | 22km/h | 23152m | 4.2m/s | -52°C | 3.4% | 35.6hPa | 2.6V | 03:48:58 | 01:33:39 | 00:00:00 | |
| BIOWL1-15 | 2026-09-01 12:02:49 | 52.88790 | 10.78627 | 25° | 20km/h | 23105m | 5.4m/s | -51.7°C | 0% | 35.9hPa | 2.7V | 03:49:07 | 01:33:30 | 00:00:00 | |
| DF8AY | 2026-09-01 12:02:47 | 52.88810 | 10.78651 | 358° | 13km/h | 23142m | 6.6m/s | -51.9°C | 0% | 35.6hPa | 2.7V | 03:49:07 | 01:33:37 | 00:00:00 | |
| AA1-15 | 2026-09-01 12:02:45 | 52.88806 | 10.78648 | 49° | 9km/h | 23131m | 4.8m/s | -51.8°C | 0% | 35.7hPa | 2.7V | 03:49:07 | 01:33:35 | 00:00:00 | |
| DL1XH-west | 2026-09-01 12:02:43 | 52.88799 | 10.78636 | 40° | 20km/h | 23115m | 5.1m/s | -51.8°C | 0% | 35.8hPa | 2.6V | 03:49:07 | 01:33:32 | 00:00:00 | |
| BIOWL1-15 | 2026-09-01 12:02:40 | 52.88782 | 10.78623 | 353° | 13km/h | 23093m | 5.7m/s | -51.7°C | 0% | 35.9hPa | 2.7V | 03:49:58 | 01:33:28 | 00:00:00 | |
| DL3AQ-11 | 2026-09-01 12:02:40 | 52.88785 | 10.78624 | 14° | 16km/h | 23099m | 6.1m/s | -51.7°C | 0.6% | 35.9hPa | 2.7V | 00:00:00 | 00:00:00 | 00:00:00 | |
| DO2SHX-10 | 2026-09-01 12:02:39 | 52.88785 | 10.78624 | 15° | 15km/h | 23100m | 6.1m/s | -51.7°C | 3.3% | 35.8hPa | 2.7V | 00:00:00 | 01:33:29 | 00:00:00 | |
| DL1NUX | 2026-09-01 12:02:38 | 52.88765 | 10.78649 | 310° | 20km/h | 23065m | 4m/s | -51.5°C | 3.2% | 36.1hPa | 2.7V | 03:49:14 | 01:33:23 | 00:00:00 | |
| DF8AY | 2026-09-01 12:02:36 | 52.88776 | 10.78630 | 313° | 18km/h | 23083m | 5.5m/s | -51.6°C | 0% | 36hPa | 2.6V | 03:49:58 | 01:33:26 | 00:00:00 | |
| DL1XH1-15 | 2026-09-01 12:02:35 | 52.88762 | 10.78655 | 308° | 15km/h | 23060m | 6.1m/s | -51.5°C | 3.3% | 36.1hPa | 2.7V | 03:49:15 | 01:33:22 | 00:00:00 | |
| AA1-15 | 2026-09-01 12:02:34 | 52.88768 | 10.78643 | 311° | 24km/h | 23070m | 5.3m/s | -51.6°C | 0% | 36.1hPa | 2.7V | 03:49:58 | 01:33:24 | 00:00:00 | |
| DL1XH-west | 2026-09-01 12:02:33 | 52.88760 | 10.78658 | 316° | 7km/h | 23054m | 5.8m/s | -51.5°C | 0% | 36.1hPa | 2.6V | 03:49:58 | 01:33:21 | 00:00:00 | |
| DL1XH-15 | 2026-09-01 12:02:30 | 52.88758 | 10.78658 | 45° | 7km/h | 23043m | 5.9m/s | -51.4°C | 3.2% | 36.2hPa | 2.7V | 03:49:18 | 01:33:19 | 00:00:00 | |
| DO2SHX-10 | 2026-09-01 12:02:30 | 52.88759 | 10.78659 | 20° | 7km/h | 23049m | 4.7m/s | -51.3°C | 3.3% | 36.1hPa | 2.6V | 03:49:00 | 01:33:20 | 00:00:00 | |
| SONDE2-11 | 2026-09-01 12:02:29 | 52.88756 | 10.78655 | 44° | 11km/h | 23038m | 6.3m/s | -51.5°C | 0.6% | 36.3hPa | 2.7V | 00:00:00 | 00:00:00 | 00:00:00 | |
| DL1NUX | 2026-09-01 12:02:28 | 52.88744 | 10.78647 | 296° | 9km/h | 23011m | 5.2m/s | -51.5°C | 3.3% | 36.4hPa | 2.7V | 03:49:24 | 01:33:13 | 00:00:00 | |
| BIOWL1-15 | 2026-09-01 12:02:28 | 52.88756 | 10.78655 | 45° | 13km/h | 23037m | 6.3m/s | -51.5°C | 0% | 36.3hPa | 2.7V | 03:49:58 | 01:33:18 | 00:00:00 | |
| DF8AY | 2026-09-01 12:02:26 | 52.88751 | 10.78648 | 31° | 15km/h | 23027m | 4.7m/s | -51.4°C | 0% | 36.3hPa | 2.6V | 03:49:58 | 01:33:16 | 00:00:00 | |
| EDDB2-11 | 2026-09-01 12:02:26 | 52.88748 | 10.78645 | 19° | 11km/h | 23022m | 5.5m/s | -51.5°C | 0.6% | 36.3hPa | 2.6V | 00:00:00 | 00:00:00 | 00:00:00 | |
| GOEST3-10 | 2026-09-01 12:02:25 | 52.88748 | 10.78645 | 20° | 15km/h | 23022m | 5.4m/s | -51.5°C | 3.3% | 36.3hPa | 2.6V | 00:00:00 | 01:33:15 | 00:00:00 | |
| DL1XH1-15 | 2026-09-01 12:02:24 | 52.88743 | 10.78651 | 286° | 15km/h | 23005m | 5.4m/s | -51.6°C | 3.2% | 36.4hPa | 2.6V | 03:49:25 | 01:33:12 | 00:00:00 | |
| AA1-15 | 2026-09-01 12:02:23 | 52.88744 | 10.78647 | 297° | 9km/h | 23011m | 5.2m/s | -51.5°C | 0% | 36.4hPa | 2.7V | 03:49:58 | 01:33:13 | 00:00:00 | |
| DL1XH-west | 2026-09-01 12:02:22 | 52.88742 | 10.78658 | 288° | 18km/h | 22999m | 6.4m/s | -51.5°C | 0% | 36.4hPa | 2.6V | 03:49:58 | 01:33:11 | 00:00:00 | |
| BIOWL1-15 | 2026-09-01 12:02:18 | 52.88738 | 10.78683 | 272° | 20km/h | 22983m | 5.6m/s | -51.6°C | 0% | 36.6hPa | 2.7V | 03:49:58 | 01:33:08 | 00:00:00 | |
| DF8AY | 2026-09-01 12:02:16 | 52.88739 | 10.78707 | 303° | 9km/h | 22959m | 6.7m/s | -51.5°C | 0% | 36.7hPa | 2.7V | 03:49:58 | 01:33:04 | 00:00:00 | |
| DO2SHX-10 | 2026-09-01 12:02:15 | 52.88740 | 10.78703 | 270° | 9km/h | 22966m | 5.7m/s | -51.5°C | 3.3% | 36.6hPa | 2.6V | 00:00:00 | 01:33:05 | 00:00:00 | |
| GOEST3-10 | 2026-09-01 12:02:14 | 52.88739 | 10.78707 | 304° | 9km/h | 22960m | 6.7m/s | -51.4°C | 3.3% | 36.7hPa | 2.6V | 00:00:00 | 01:33:04 | 00:00:00 | |
| DL1XH1-15 | 2026-09-01 12:02:13 | 52.88735 | 10.78711 | 348° | 9km/h | 22949m | 4.8m/s | -51.5°C | 3.3% | 36.7hPa | 2.6V | 03:49:35 | 01:33:02 | 00:00:00 | |
| AA1-15 | 2026-09-01 12:02:12 | 52.88735 | 10.78711 | 348° | 9km/h | 22949m | 4.8m/s | -51.5°C | 0% | 36.7hPa | 2.6V | 03:49:58 | 01:33:02 | 00:00:00 | |
| DL1XH-west | 2026-09-01 12:02:11 | 52.88733 | 10.78711 | 344° | 9km/h | 22943m | 6.2m/s | -51.4°C | 0% | 36.8hPa | 2.6V | 03:49:58 | 01:33:01 | 00:00:00 | |
| DL1XH-15 | 2026-09-01 12:02:10 | 52.88729 | 10.78715 | 321° | 9km/h | 22932m | 5.2m/s | -51.4°C | 3.2% | 36.8hPa | 2.7V | 03:49:38 | 01:32:59 | 00:00:00 | |
| DF8AY-15 | 2026-09-01 12:02:09 | 52.88727 | 10.78717 | 322° | 11km/h | 22926m | 6.2m/s | -51.4°C | 3.2% | 36.8hPa | 2.6V | 00:00:00 | 01:32:58 | 00:00:00 | |
| DL1NUX | 2026-09-01 12:02:08 | 52.88724 | 10.78740 | 236° | 15km/h | 22899m | 5.1m/s | -51.4°C | 3.2% | 37hPa | 2.6V | 03:49:44 | 01:32:53 | 00:00:00 | |
| BIOWL1-15 | 2026-09-01 12:02:08 | 52.88722 | 10.78740 | 48° | 16km/h | 22867m | 5.9m/s | -51.5°C | 0% | 37.2hPa | 2.7V | 03:49:58 | 01:32:47 | 00:00:00 | |
| DL1XH1-15 | 2026-09-01 12:02:08 | 52.88726 | 10.78745 | 230° | 13km/h | 22894m | 4.4m/s | -51.4°C | 3.2% | 37hPa | 2.7V | 03:49:45 | 01:32:52 | 00:00:00 | |
| DG6HD-15 | 2026-09-01 12:02:07 | 52.88725 | 10.78720 | 316° | 13km/h | 22921m | 5.3m/s | -51.4°C | 0.6% | 36.9hPa | 2.6V | 03:49:00 | 00:00:00 | 00:00:00 | |
| DO2SHX-10 | 2026-09-01 12:02:06 | 52.88723 | 10.78725 | 300° | 13km/h | 22916m | 3.8m/s | -51.3°C | 3.2% | 36.9hPa | 2.6V | 03:49:00 | 01:32:56 | 00:00:00 | |
| DM0DOS-11 | 2026-09-01 12:02:05 | 52.88725 | 10.78745 | 43° | 15km/h | 22872m | 4.9m/s | -51.4°C | 3.2% | 37.2hPa | 2.6V | 03:49:49 | 01:32:48 | 00:00:00 | |
| DF8AY | 2026-09-01 12:02:03 | 52.88724 | 10.78740 | 237° | 15km/h | 22899m | 5.1m/s | -51.4°C | 0% | 37hPa | 2.6V | 03:49:58 | 01:32:53 | 00:00:00 | |
| DL1XH-west | 2026-09-01 12:02:02 | 52.88727 | 10.78748 | 37° | 9km/h | 22877m | 5.2m/s | -51.5°C | 0% | 37.2hPa | 2.6V | 03:49:58 | 01:32:49 | 00:00:00 | |
| AA1-15 | 2026-09-01 12:02:01 | 52.88727 | 10.78748 | 231° | 7km/h | 22889m | 5.6m/s | -51.4°C | 0% | 37.1hPa | 2.7V | 03:49:58 | 01:32:51 | 00:00:00 | |
| DL3AQ-11 | 2026-09-01 12:02:00 | 52.88727 | 10.78748 | 37° | 9km/h | 22878m | 5.2m/s | -51.5°C | 0.6% | 37.2hPa | 2.7V | 00:00:00 | 00:00:00 | 00:00:00 | |
| DK7RCA | 2026-09-01 12:01:59 | 52.88727 | 10.78748 | 38° | 9km/h | 22878m | 5.2m/s | -51.5°C | 0.6% | 37.2hPa | 2.7V | 00:00:00 | 00:00:00 | 00:00:00 | |
| TFSTFS | 2026-09-01 12:01:58 | 52.88725 | 10.78745 | 45° | 15km/h | 22873m | 4.9m/s | -51.4°C | 0.6% | 37.2hPa | 2.7V | 00:00:00 | 00:00:00 | 00:00:00 | |
| DO2SHX-10 | 2026-09-01 12:01:57 | 52.88722 | 10.78740 | 49° | 15km/h | 22867m | 5.9m/s | -51.5°C | 3.2% | 37.2hPa | 2.7V | 00:00:00 | 01:32:47 | 00:00:00 | |
| AP2371 | 2026-09-01 12:01:56 | 52.88722 | 10.78740 | 49° | 16km/h | 22867m | 5.9m/s | -51.5°C | 0.6% | 37.2hPa | 2.7V | 00:00:00 | 00:00:00 | 00:00:00 | |
| DL1XH1-15 | 2026-09-01 12:01:55 | 52.88712 | 10.78729 | 323° | 11km/h | 22840m | 5.8m/s | -51.5°C | 3.2% | 37.4hPa | 2.7V | 03:49:55 | 01:32:42 | 00:00:00 | |
| BIOWL1-15 | 2026-09-01 12:01:54 | 52.88716 | 10.78728 | 35° | 7km/h | 22851m | 4.7m/s | -51.5°C | 0% | 37.3hPa | 2.6V | 03:49:58 | 01:32:44 | 00:00:00 | |
| DO2SHX-10 | 2026-09-01 12:01:54 | 52.88716 | 10.78728 | 35° | 9km/h | 22852m | 4.6m/s | -51.4°C | 3.2% | 37.3hPa | 2.6V | 03:49:00 | 01:32:44 | 00:00:00 | |
| DL1XH-15 | 2026-09-01 12:01:53 | 52.88705 | 10.78742 | 296° | 11km/h | 22825m | 5.7m/s | -51.7°C | 3.2% | 37.5hPa | 2.6V | 03:49:58 | 01:32:39 | 00:00:00 | |
| DF8AY | 2026-09-01 12:01:52 | 52.88712 | 10.78729 | 324° | 11km/h | 22840m | 5.9m/s | -51.5°C | 0% | 37.4hPa | 2.7V | 03:49:58 | 01:32:42 | 00:00:00 | |
| AA1-15 | 2026-09-01 12:01:50 | 52.88707 | 10.78737 | 307° | 15km/h | 22830m | 4.6m/s | -51.6°C | 0% | 37.4hPa | 2.6V | 03:49:58 | 01:32:40 | 00:00:00 | |
| DL1XH-west | 2026-09-01 12:01:49 | 52.88705 | 10.78746 | 273° | 7km/h | 22819m | 6.2m/s | -51.7°C | 0% | 37.5hPa | 2.7V | 03:50:49 | 01:32:38 | 00:00:00 | |
| DL1NUX | 2026-09-01 12:01:48 | 52.88708 | 10.78746 | 38° | 5km/h | 22792m | 5.6m/s | -51.7°C | 3.3% | 37.7hPa | 2.7V | 03:50:04 | 01:32:33 | 00:00:00 | |
| DF8AY-15 | 2026-09-01 12:01:48 | 52.88705 | 10.78745 | 274° | 5km/h | 22819m | 6.1m/s | -51.7°C | 3.3% | 37.4hPa | 2.7V | 00:00:00 | 01:32:38 | 00:00:00 | |
| DD8BA-10 | 2026-09-01 12:01:47 | 52.88705 | 10.78748 | 219° | 5km/h | 22813m | 5.5m/s | -51.7°C | 3.3% | 37.5hPa | 2.6V | 00:00:00 | 00:00:00 | 00:00:00 | |
| DL4BBY-15 | 2026-09-01 12:01:46 | 52.88706 | 10.78748 | 178° | 5km/h | 22808m | 4.5m/s | -50.8°C | 0% | 0hPa | 2.6V | 00:00:00 | 00:00:00 | 00:00:00 | |
| DO2SHX-10 | 2026-09-01 12:01:45 | 52.88708 | 10.78748 | 149° | 4km/h | 22803m | 5.1m/s | -51.7°C | 3.3% | 37.6hPa | 2.6V | 00:00:00 | 01:32:35 | 00:00:00 | |
| DL1XH1-15 | 2026-09-01 12:01:44 | 52.88706 | 10.78744 | 24° | 7km/h | 22786m | 5.4m/s | -51.7°C | 3.3% | 37.7hPa | 2.7V | 03:50:05 | 01:32:32 | 00:00:00 | |
| BIOWL1-15 | 2026-09-01 12:01:44 | 52.88704 | 10.78742 | 26° | 4km/h | 22775m | 6m/s | -51.7°C | 0% | 37.8hPa | 2.6V | 03:51:40 | 01:32:30 | 00:00:00 | |
| DF8AY | 2026-09-01 12:01:42 | 52.88706 | 10.78744 | 24° | 7km/h | 22787m | 5.4m/s | -51.7°C | 0% | 37.7hPa | 2.7V | 03:50:49 | 01:32:32 | 00:00:00 | |
| DL1XH-15 | 2026-09-01 12:01:42 | 52.88703 | 10.78742 | 20° | 4km/h | 22769m | 5m/s | -51.7°C | 3.3% | 37.8hPa | 2.6V | 03:50:08 | 01:32:29 | 00:00:00 | |
| AA1-15 | 2026-09-01 12:01:39 | 52.88703 | 10.78742 | 21° | 4km/h | 22769m | 5m/s | -51.7°C | 0% | 37.8hPa | 2.6V | 03:50:49 | 01:32:29 | 00:00:00 | |
| DL1XH-west | 2026-09-01 12:01:38 | 52.88701 | 10.78742 | 343° | 5km/h | 22759m | 6.2m/s | -51.7°C | 0% | 37.9hPa | 2.7V | 03:50:49 | 01:32:27 | 00:00:00 | |
| TFSTFS | 2026-09-01 12:01:37 | 52.88700 | 10.78742 | 344° | 5km/h | 22759m | 6.2m/s | -51.7°C | 0.6% | 37.8hPa | 2.7V | 03:50:00 | 00:00:00 | 00:00:00 | |
| DO2SHX-10 | 2026-09-01 12:01:36 | 52.88699 | 10.78743 | 329° | 5km/h | 22753m | 5.2m/s | -51.7°C | 3.3% | 37.9hPa | 2.7V | 00:00:00 | 01:32:26 | 00:00:00 | |
| DL1LOL-11 | 2026-09-01 12:01:35 | 52.88699 | 10.78743 | 330° | 7km/h | 22753m | 5.3m/s | -51.7°C | 0.6% | 37.9hPa | 2.6V | 03:50:00 | 00:00:00 | 00:00:00 | |
| DL1XH1-15 | 2026-09-01 12:01:34 | 52.88699 | 10.78747 | 147° | 4km/h | 22732m | 4.2m/s | -51.7°C | 3.3% | 38hPa | 2.6V | 03:50:15 | 01:32:22 | 00:00:00 | |
| DF8AY | 2026-09-01 12:01:32 | 52.88699 | 10.78746 | 89° | 4km/h | 22726m | 6.6m/s | -51.7°C | 0% | 38hPa | 2.6V | 03:50:49 | 01:32:21 | 00:00:00 | |
| DM0DOS-11 | 2026-09-01 12:01:31 | 52.88697 | 10.78743 | 39° | 7km/h | 22714m | 4.6m/s | -51.7°C | 3.3% | 38.1hPa | 2.7V | 03:50:18 | 01:32:19 | 00:00:00 | |
| AA1-15 | 2026-09-01 12:01:28 | 52.88695 | 10.78741 | 43° | 7km/h | 22709m | 6.6m/s | -51.6°C | 0% | 38.2hPa | 2.7V | 03:50:49 | 01:32:18 | 00:00:00 | |
| DL1NUX | 2026-09-01 12:01:28 | 52.88686 | 10.78739 | 344° | 9km/h | 22680m | 4.7m/s | -51.7°C | 3.2% | 38.3hPa | 2.7V | 03:50:24 | 01:32:13 | 00:00:00 | |
| DL1XH-west | 2026-09-01 12:01:27 | 52.88691 | 10.78737 | 359° | 9km/h | 22691m | 6.6m/s | -51.7°C | 0% | 38.3hPa | 2.7V | 03:50:49 | 01:32:15 | 00:00:00 | |
| DF8AY | 2026-09-01 12:01:21 | 52.88683 | 10.78740 | 14° | 2km/h | 22668m | 5.3m/s | -51.8°C | 0% | 38.4hPa | 2.6V | 03:50:49 | 01:32:11 | 00:00:00 | |
| BIOWL1-15 | 2026-09-01 12:01:21 | 52.88682 | 10.78735 | 57° | 9km/h | 22653m | 6.5m/s | -51.8°C | 0% | 38.5hPa | 2.7V | 03:51:40 | 01:32:08 | 00:00:00 | |
| AA1-15 | 2026-09-01 12:01:17 | 52.88681 | 10.78731 | 56° | 9km/h | 22647m | 5m/s | -51.8°C | 0% | 38.5hPa | 2.6V | 03:50:49 | 01:32:07 | 00:00:00 | |
| DD8BA-10 | 2026-09-01 12:01:17 | 52.88681 | 10.78731 | 57° | 11km/h | 22647m | 5.0m/s | -51.7°C | 3.2% | 38.5hPa | 2.7V | 00:00:00 | 00:00:00 | 00:00:00 | |
| DL1XH1-15 | 2026-09-01 12:01:16 | 52.88674 | 10.78719 | 18° | 11km/h | 22619m | 6.3m/s | -51.7°C | 3.2% | 38.7hPa | 2.7V | 03:50:35 | 01:32:02 | 00:00:00 | |
| DL4BBY-15 | 2026-09-01 12:01:16 | 52.88679 | 10.78728 | 61° | 13km/h | 22642m | 5.2m/s | -50.8°C | 0% | 0hPa | 2.7V | 00:00:00 | 00:00:00 | 00:00:00 | |
| DL1NUX | 2026-09-01 12:01:15 | 52.88676 | 10.78721 | 31° | 7km/h | 22625m | 5.4m/s | -51.7°C | 3.2% | 38.7hPa | 2.7V | 03:50:34 | 01:32:03 | 00:00:00 | |
| DL1XH-west | 2026-09-01 12:01:15 | 52.88679 | 10.78725 | 72° | 7km/h | 22636m | 6.3m/s | -51.8°C | 0% | 38.6hPa | 2.6V | 03:50:49 | 01:32:05 | 00:00:00 | |
| DF8AY | 2026-09-01 12:01:11 | 52.88668 | 10.78716 | 14° | 15km/h | 22609m | 4.3m/s | -51.9°C | 0% | 38.7hPa | 2.6V | 03:50:49 | 01:32:00 | 00:00:00 | |
| DB0DAN | 2026-09-01 12:01:10 | 52.88668 | 10.78716 | 14° | 15km/h | 22609m | 4.3m/s | -51.9°C | 0.6% | 38.74hPa | 2.6V | 00:00:00 | 00:00:00 | 00:00:00 | |
| DM0DOS-11 | 2026-09-01 12:01:10 | 52.88665 | 10.78715 | 15° | 11km/h | 22604m | 5.9m/s | -51.8°C | 3.3% | 38.8hPa | 2.6V | 03:50:38 | 01:31:59 | 00:00:00 | |
| BIOWL1-15 | 2026-09-01 12:01:09 | 52.88664 | 10.78715 | 16° | 11km/h | 22604m | 5.9m/s | -51.8°C | 0% | 38.8hPa | 2.6V | 03:51:40 | 01:31:59 | 00:00:00 | |
| AA1-15 | 2026-09-01 12:01:07 | 52.88658 | 10.78712 | 14° | 9km/h | 22587m | 5.9m/s | -51.9°C | 0% | 38.9hPa | 2.7V | 03:50:49 | 01:31:56 | 00:00:00 | |
| DL1XH-west | 2026-09-01 12:01:05 | 52.88649 | 10.78708 | 21° | 13km/h | 22572m | 4.2m/s | -51.8°C | 0% | 39hPa | 2.6V | 03:50:49 | 01:31:53 | 00:00:00 | |
| DM0DOS-11 | 2026-09-01 12:01:05 | 52.88640 | 10.78697 | 35° | 15km/h | 22550m | 6.4m/s | -52.1°C | 3.4% | 39.1hPa | 2.6V | 03:50:48 | 01:31:49 | 00:00:00 | |
| BIOWL1-15 | 2026-09-01 12:00:59 | 52.88640 | 10.78697 | 36° | 15km/h | 22550m | 6.4m/s | -52.1°C | 0% | 39.1hPa | 2.6V | 03:51:40 | 01:31:49 | 00:00:00 | |
| AA1-15 | 2026-09-01 12:00:56 | 52.88626 | 10.78689 | 356° | 13km/h | 22529m | 5.7m/s | -52°C | 0% | 39.2hPa | 2.7V | 03:51:40 | 01:31:45 | 00:00:00 | |
| SONDE2-11 | 2026-09-01 12:00:56 | 52.88626 | 10.78689 | 355° | 11km/h | 22529m | 5.7m/s | -52.0°C | 0.6% | 39.2hPa | 2.6V | 00:00:00 | 00:00:00 | 00:00:00 | |
| DL1XH1-15 | 2026-09-01 12:00:55 | 52.88615 | 10.78696 | 332° | 20km/h | 22512m | 5.9m/s | -52.1°C | 3.3% | 39.3hPa | 2.6V | 03:50:55 | 01:31:42 | 00:00:00 | |
| DL1NUX | 2026-09-01 12:00:55 | 52.88620 | 10.78693 | 333° | 16km/h | 22518m | 5.9m/s | -52.1°C | 3.3% | 39.3hPa | 2.6V | 03:50:54 | 01:31:43 | 00:00:00 | |
| DB0DAN | 2026-09-01 12:00:55 | 52.88626 | 10.78689 | 356° | 11km/h | 22529m | 5.7m/s | -52°C | 0.6% | 39.25hPa | 2.7V | 00:00:00 | 00:00:00 | 00:00:00 | |
| HTAHTA | 2026-09-01 12:00:55 | 52.88623 | 10.78690 | 339° | 13km/h | 22524m | 4.9m/s | -52.0°C | 0.6% | 39.3hPa | 2.7V | 00:00:00 | 00:00:00 | 00:00:00 | |
| DM0DOS-11 | 2026-09-01 12:00:54 | 52.88602 | 10.78708 | 327° | 16km/h | 22497m | 6.3m/s | -52°C | 3.4% | 39.5hPa | 2.7V | 03:50:58 | 01:31:39 | 00:00:00 | |
| DL1XH-west | 2026-09-01 12:00:54 | 52.88616 | 10.78696 | 332° | 20km/h | 22512m | 5.9m/s | -52.1°C | 0% | 39.3hPa | 2.6V | 03:51:40 | 01:31:42 | 00:00:00 | |
| EDDB2-11 | 2026-09-01 12:00:54 | 52.88616 | 10.78696 | 332° | 20km/h | 22512m | 5.9m/s | -52.1°C | 0.6% | 39.3hPa | 2.7V | 00:00:00 | 00:00:00 | 00:00:00 | |
| BUE01 | 2026-09-01 12:00:53 | 52.88611 | 10.78700 | 332° | 22km/h | 22507m | 4.3m/s | -52.0°C | 0.6% | 39.4hPa | 2.7V | 00:00:00 | 00:00:00 | 00:00:00 | |
| DL3AQ-11 | 2026-09-01 12:00:51 | 52.88606 | 10.78704 | 330° | 18km/h | 22502m | 4.9m/s | -52.0°C | 0.6% | 39.4hPa | 2.7V | 00:00:00 | 00:00:00 | 00:00:00 | |
| GOEST3-10 | 2026-09-01 12:00:49 | 52.88602 | 10.78708 | 328° | 13km/h | 22497m | 6.2m/s | -51.9°C | 3.4% | 39.4hPa | 2.7V | 03:50:00 | 00:00:00 | 00:00:00 | |
| DL1NUX | 2026-09-01 12:00:48 | 52.88580 | 10.78710 | 14° | 11km/h | 22458m | 5.3m/s | -52°C | 3.5% | 39.7hPa | 2.7V | 03:51:05 | 01:31:32 | 00:00:00 | |
| BIOWL1-15 | 2026-09-01 12:00:47 | 52.88597 | 10.78713 | 341° | 11km/h | 22486m | 4.6m/s | -52.1°C | 0% | 39.5hPa | 2.6V | 03:51:40 | 01:31:37 | 00:00:00 | |
| AA1-15 | 2026-09-01 12:00:47 | 52.88594 | 10.78714 | 356° | 13km/h | 22481m | 6.2m/s | -52.1°C | 0% | 39.5hPa | 2.6V | 03:51:40 | 01:31:36 | 00:00:00 | |
| DL4BBY-15 | 2026-09-01 12:00:46 | 52.88593 | 10.78714 | 357° | 11km/h | 22481m | 6.1m/s | -51.2°C | 0% | 0hPa | 2.7V | 00:00:00 | 00:00:00 | 00:00:00 | |
| DL1XH1-15 | 2026-09-01 12:00:45 | 52.88580 | 10.78710 | 14° | 11km/h | 22458m | 5.3m/s | -52°C | 3.5% | 39.7hPa | 2.7V | 03:51:05 | 01:31:32 | 00:00:00 | |
| DL1XH-west | 2026-09-01 12:00:41 | 52.88578 | 10.78709 | 2° | 9km/h | 22453m | 4.3m/s | -51.9°C | 0% | 39.7hPa | 2.7V | 03:51:40 | 01:31:31 | 00:00:00 | |
| DB0DAN | 2026-09-01 12:00:40 | 52.88576 | 10.78710 | 350° | 11km/h | 22449m | 4.5m/s | -51.9°C | 0.6% | 39.71hPa | 2.6V | 00:00:00 | 00:00:00 | 00:00:00 | |
| BIOWL1-15 | 2026-09-01 12:00:39 | 52.88558 | 10.78745 | 256° | 9km/h | 22390m | 5.8m/s | -51.8°C | 0% | 40.1hPa | 2.6V | 03:51:40 | 01:31:19 | 00:00:00 | |
| DF8AY | 2026-09-01 12:00:38 | 52.88569 | 10.78713 | 338° | 15km/h | 22438m | 5.1m/s | -51.9°C | 0% | 39.8hPa | 2.6V | 03:51:40 | 01:31:28 | 00:00:00 | |
| AA1-15 | 2026-09-01 12:00:37 | 52.88559 | 10.78733 | 294° | 9km/h | 22406m | 5.5m/s | -51.9°C | 0% | 40hPa | 2.7V | 03:51:40 | 01:31:22 | 00:00:00 | |
| DL1XH-west | 2026-09-01 12:00:30 | 52.88558 | 10.78741 | 275° | 9km/h | 22395m | 5.4m/s | -51.8°C | 0% | 40hPa | 2.7V | 03:51:40 | 01:31:20 | 00:00:00 | |
| DF8AY | 2026-09-01 12:00:28 | 52.88559 | 10.78748 | 251° | 9km/h | 22385m | 4.9m/s | -51.8°C | 0% | 40.1hPa | 2.6V | 03:51:40 | 01:31:18 | 00:00:00 | |
| DL1NUX | 2026-09-01 12:00:28 | 52.88554 | 10.78762 | 303° | 9km/h | 22359m | 5.7m/s | -51.9°C | 3.4% | 40.3hPa | 2.7V | 03:51:24 | 01:31:13 | 00:00:00 | |
| BIOWL1-15 | 2026-09-01 12:00:27 | 52.88554 | 10.78762 | 304° | 9km/h | 22360m | 5.7m/s | -51.9°C | 0% | 40.3hPa | 2.7V | 03:51:40 | 01:31:13 | 00:00:00 | |
| DB0DAN | 2026-09-01 12:00:25 | 52.88558 | 10.78756 | 320° | 9km/h | 22370m | 4.6m/s | -51.9°C | 0.6% | 40.24hPa | 2.6V | 00:00:00 | 00:00:00 | 00:00:00 | |
| AA1-15 | 2026-09-01 12:00:23 | 52.88553 | 10.78766 | 290° | 9km/h | 22354m | 5.5m/s | -51.9°C | 0% | 40.3hPa | 2.7V | 03:51:40 | 01:31:12 | 00:00:00 | |
| DM0DOS-11 | 2026-09-01 12:00:22 | 52.88550 | 10.78777 | 307° | 9km/h | 22338m | 6.4m/s | -51.9°C | 3.3% | 40.4hPa | 2.6V | 03:51:28 | 01:31:09 | 00:00:00 | |
| DL1XH-west | 2026-09-01 12:00:20 | 52.88548 | 10.78784 | 248° | 4km/h | 22321m | 5.4m/s | -51.7°C | 0% | 40.5hPa | 2.7V | 03:51:40 | 01:31:06 | 00:00:00 | |
| DF8AY | 2026-09-01 12:00:18 | 52.88548 | 10.78782 | 291° | 5km/h | 22327m | 6.5m/s | -51.8°C | 0% | 40.5hPa | 2.7V | 03:51:40 | 01:31:07 | 00:00:00 | |
| DL1XH1-15 | 2026-09-01 12:00:18 | 52.88547 | 10.78791 | 290° | 7km/h | 22299m | 4.7m/s | -51.5°C | 3.2% | 40.6hPa | 2.7V | 03:51:35 | 01:31:02 | 00:00:00 | |
| BIOWL1-15 | 2026-09-01 12:00:16 | 52.88548 | 10.78789 | 307° | 5km/h | 22305m | 6m/s | -51.4°C | 0% | 40.6hPa | 2.6V | 03:51:40 | 01:31:03 | 00:00:00 | |
| AA1-15 | 2026-09-01 12:00:12 | 52.88547 | 10.78794 | 274° | 7km/h | 22294m | 6.8m/s | -51.5°C | 0% | 40.7hPa | 2.7V | 03:51:40 | 01:31:01 | 00:00:00 | |
| DO2SHX-10 | 2026-09-01 12:00:12 | 52.88547 | 10.78791 | 291° | 7km/h | 22300m | 4.7m/s | -51.4°C | 3.2% | 40.6hPa | 2.7V | 00:00:00 | 01:31:02 | 00:00:00 | |
| DB0DAN | 2026-09-01 12:00:10 | 52.88547 | 10.78798 | 263° | 9km/h | 22288m | 5.2m/s | -51.5°C | 0.6% | 40.73hPa | 2.7V | 00:00:00 | 00:00:00 | 00:00:00 | |
| DK7RCA | 2026-09-01 12:00:10 | 52.88547 | 10.78797 | 264° | 9km/h | 22288m | 5.2m/s | -51.5°C | 0.6% | 40.7hPa | 2.7V | 00:00:00 | 00:00:00 | 00:00:00 | |
| DO2SHX-10 | 2026-09-01 12:00:09 | 52.88547 | 10.78802 | 270° | 13km/h | 22283m | 4.2m/s | -51.5°C | 3.2% | 40.7hPa | 2.7V | 00:00:00 | 01:30:59 | 00:00:00 | |
| DF8AY-15 | 2026-09-01 12:00:08 | 52.88547 | 10.78807 | 279° | 13km/h | 22278m | 6.5m/s | -51.6°C | 3.2% | 40.8hPa | 2.7V | 00:00:00 | 01:30:58 | 00:00:00 | |
| DL1XH1-15 | 2026-09-01 12:00:07 | 52.88549 | 10.78837 | 236° | 7km/h | 22245m | 6.4m/s | -51.6°C | 3.3% | 41hPa | 2.7V | 03:51:45 | 01:30:52 | 00:00:00 | |
| DF8AY | 2026-09-01 12:00:06 | 52.88546 | 10.78818 | 273° | 13km/h | 22267m | 4.2m/s | -51.5°C | 0% | 40.9hPa | 2.6V | 03:52:31 | 01:30:56 | 00:00:00 | |
| DL1XH-15 | 2026-09-01 12:00:06 | 52.88548 | 10.78833 | 238° | 11km/h | 22250m | 5.4m/s | -51.6°C | 3.3% | 41hPa | 2.7V | 03:51:44 | 01:30:53 | 00:00:00 | |
| BIOWL1-15 | 2026-09-01 12:00:04 | 52.88557 | 10.78845 | 227° | 11km/h | 22218m | 4.3m/s | -51.8°C | 0% | 41.2hPa | 2.7V | 03:52:31 | 01:30:47 | 00:00:00 | |
| AA1-15 | 2026-09-01 12:00:01 | 52.88552 | 10.78840 | 206° | 5km/h | 22234m | 4.6m/s | -51.6°C | 0% | 41.1hPa | 2.6V | 03:52:31 | 01:30:50 | 00:00:00 | |
| DL3AQ-11 | 2026-09-01 12:00:00 | 52.88553 | 10.78841 | 201° | 5km/h | 22228m | 6.2m/s | -51.7°C | 0.6% | 41.1hPa | 2.6V | 00:00:00 | 00:00:00 | 00:00:00 | |
| GOEST3-10 | 2026-09-01 11:59:59 | 52.88553 | 10.78841 | 202° | 11km/h | 22229m | 6.1m/s | -51.6°C | 3.3% | 41.1hPa | 2.6V | 00:00:00 | 00:00:00 | 00:00:00 | |
| DF7ER-10 | 2026-09-01 11:59:58 | 52.88553 | 10.78841 | 202° | 7km/h | 22229m | 6.2m/s | -51.7°C | 0.7% | 41.1hPa | 2.6V | 03:52:00 | 00:00:00 | 00:00:00 | |
| DL1XH1-15 | 2026-09-01 11:59:57 | 52.88558 | 10.78876 | 267° | 20km/h | 22192m | 5.6m/s | -51.8°C | 3.3% | 41.3hPa | 2.6V | 03:51:55 | 01:30:42 | 00:00:00 | |
| DL1XH-west | 2026-09-01 11:59:56 | 52.88558 | 10.78867 | 275° | 18km/h | 22197m | 4.4m/s | -51.8°C | 0% | 41.3hPa | 2.6V | 03:52:31 | 01:30:43 | 00:00:00 | |
| DB0DAN | 2026-09-01 11:59:55 | 52.88559 | 10.78854 | 270° | 13km/h | 22207m | 5.8m/s | -51.8°C | 0.6% | 41.24hPa | 2.7V | 00:00:00 | 00:00:00 | 00:00:00 | |
| DF8AY | 2026-09-01 11:59:55 | 52.88559 | 10.78854 | 270° | 13km/h | 22207m | 5.8m/s | -51.8°C | 0% | 41.2hPa | 2.7V | 03:52:31 | 01:30:45 | 00:00:00 | |
| SONDE2-11 | 2026-09-01 11:59:55 | 52.88558 | 10.78867 | 275° | 18km/h | 22197m | 4.4m/s | -51.8°C | 0.6% | 41.3hPa | 2.6V | 00:00:00 | 00:00:00 | 00:00:00 | |
| DL1NUX | 2026-09-01 11:59:54 | 52.88558 | 10.78867 | 275° | 18km/h | 22197m | 4.4m/s | -51.8°C | 3.3% | 41.3hPa | 2.6V | 03:51:54 | 01:30:43 | 00:00:00 | |
| AA1-15 | 2026-09-01 11:59:50 | 52.88562 | 10.78900 | 240° | 16km/h | 22178m | 5m/s | -51.8°C | 0% | 41.4hPa | 2.7V | 03:52:31 | 01:30:39 | 00:00:00 | |
| BIOWL1-15 | 2026-09-01 11:59:50 | 52.88560 | 10.78893 | 248° | 20km/h | 22183m | 3.9m/s | -51.8°C | 0% | 41.4hPa | 2.7V | 03:52:31 | 01:30:40 | 00:00:00 | |
| DF8AY | 2026-09-01 11:59:44 | 52.88577 | 10.78911 | 184° | 16km/h | 22152m | 4.9m/s | -51.5°C | 0% | 41.6hPa | 2.7V | 03:52:31 | 01:30:34 | 00:00:00 | |
| DL1XH-west | 2026-09-01 11:59:43 | 52.88581 | 10.78911 | 188° | 15km/h | 22147m | 4.6m/s | -51.5°C | 0% | 41.7hPa | 2.6V | 03:52:31 | 01:30:33 | 00:00:00 | |
| BIOWL1-15 | 2026-09-01 11:59:41 | 52.88585 | 10.78917 | 286° | 7km/h | 22125m | 5m/s | -51.3°C | 0% | 41.8hPa | 2.6V | 03:52:31 | 01:30:29 | 00:00:00 | |
| AA1-15 | 2026-09-01 11:59:39 | 52.88584 | 10.78920 | 270° | 7km/h | 22120m | 6.4m/s | -51.2°C | 0% | 41.8hPa | 2.6V | 03:52:31 | 01:30:28 | 00:00:00 | |
| DF7ER-10 | 2026-09-01 11:59:39 | 52.88584 | 10.78917 | 287° | 7km/h | 22126m | 5.0m/s | -51.3°C | 0.6% | 41.8hPa | 2.6V | 03:52:00 | 00:00:00 | 00:00:00 | |
| DL1XH-15 | 2026-09-01 11:59:38 | 52.88587 | 10.78927 | 139° | 9km/h | 22093m | 4.7m/s | -51°C | 3.1% | 42hPa | 2.6V | 03:52:14 | 01:30:23 | 00:00:00 | |
| DF8AY | 2026-09-01 11:59:34 | 52.88586 | 10.78928 | 142° | 4km/h | 22098m | 5.2m/s | -51.2°C | 0% | 42hPa | 2.6V | 03:52:31 | 01:30:24 | 00:00:00 | |
| DL1XH-west | 2026-09-01 11:59:33 | 52.88587 | 10.78927 | 140° | 9km/h | 22093m | 4.7m/s | -51°C | 0% | 42hPa | 2.6V | 03:52:31 | 01:30:23 | 00:00:00 | |
| BIOWL1-15 | 2026-09-01 11:59:28 | 52.88602 | 10.78911 | 333° | 7km/h | 22056m | 4.8m/s | -51°C | 0% | 42.2hPa | 2.7V | 03:52:31 | 01:30:16 | 00:00:00 | |
| DL1XH-15 | 2026-09-01 11:59:28 | 52.88598 | 10.78918 | 279° | 7km/h | 22039m | 5.6m/s | -51.2°C | 3.2% | 42.3hPa | 2.7V | 03:52:24 | 01:30:13 | 00:00:00 | |
| AA1-15 | 2026-09-01 11:59:28 | 52.88603 | 10.78910 | 24° | 2km/h | 22061m | 5.7m/s | -50.9°C | 0% | 42.2hPa | 2.6V | 03:52:31 | 01:30:17 | 00:00:00 | |
| DF8AY | 2026-09-01 11:59:24 | 52.88598 | 10.78918 | 280° | 7km/h | 22039m | 5.6m/s | -51.3°C | 0% | 42.3hPa | 2.7V | 03:52:31 | 01:30:13 | 00:00:00 | |
| DL1XH-west | 2026-09-01 11:59:23 | 52.88598 | 10.78920 | 248° | 2km/h | 22034m | 3.7m/s | -51.2°C | 0% | 42.4hPa | 2.6V | 03:52:31 | 01:30:12 | 00:00:00 | |
| DM0DOS-11 | 2026-09-01 11:59:23 | 52.88599 | 10.78913 | 100° | 13km/h | 22018m | 5.1m/s | -51.5°C | 3.2% | 42.5hPa | 2.7V | 03:52:28 | 01:30:09 | 00:00:00 | |
| BIOWL1-15 | 2026-09-01 11:59:18 | 52.88603 | 10.78892 | 36° | 7km/h | 21992m | 5.9m/s | -51.4°C | 0% | 42.6hPa | 2.6V | 03:53:22 | 01:30:04 | 00:00:00 | |
| SONCRA | 2026-09-01 11:59:18 | 52.88601 | 10.78902 | 119° | 13km/h | 22007m | 5.9m/s | -51.4°C | 0.6% | 42.5hPa | 2.7V | 00:00:00 | 00:00:00 | 00:00:00 | |
| DL1NUX | 2026-09-01 11:59:17 | 52.88597 | 10.78891 | 354° | 16km/h | 21981m | 4.6m/s | -51.5°C | 3.1% | 42.7hPa | 2.7V | 03:52:35 | 01:30:02 | 00:00:00 | |
| DF7ER-10 | 2026-09-01 11:59:17 | 52.88601 | 10.78901 | 120° | 15km/h | 22007m | 5.9m/s | -51.4°C | 0.6% | 42.5hPa | 2.6V | 03:52:00 | 00:00:00 | 00:00:00 | |
| AA1-15 | 2026-09-01 11:59:17 | 52.88603 | 10.78897 | 119° | 11km/h | 22002m | 3.8m/s | -51.4°C | 0% | 42.6hPa | 2.7V | 03:52:31 | 01:30:06 | 00:00:00 | |
| DL4BBY-15 | 2026-09-01 11:59:16 | 52.88603 | 10.78897 | 120° | 16km/h | 22003m | 3.7m/s | -50.5°C | 0% | 0hPa | 2.6V | 00:00:00 | 00:00:00 | 00:00:00 | |
| DO2SHX-10 | 2026-09-01 11:59:15 | 52.88603 | 10.78894 | 95° | 9km/h | 21998m | 4.4m/s | -51.4°C | 3.2% | 42.6hPa | 2.6V | 00:00:00 | 01:30:05 | 00:00:00 | |
| DL1XH-15 | 2026-09-01 11:59:14 | 52.88601 | 10.78891 | 3° | 13km/h | 21986m | 5.5m/s | -51.4°C | 3.1% | 42.7hPa | 2.6V | 03:52:34 | 01:30:03 | 00:00:00 | |
| DL1XH-west | 2026-09-01 11:59:13 | 52.88597 | 10.78891 | 354° | 16km/h | 21982m | 4.6m/s | -51.5°C | 0% | 42.7hPa | 2.7V | 03:53:22 | 01:30:02 | 00:00:00 | |
| DF8AY | 2026-09-01 11:59:13 | 52.88601 | 10.78891 | 4° | 13km/h | 21986m | 5.5m/s | -51.4°C | 0% | 42.7hPa | 2.6V | 03:53:22 | 01:30:03 | 00:00:00 | |
| DM0DOS-11 | 2026-09-01 11:59:12 | 52.88585 | 10.78894 | 358° | 11km/h | 21967m | 4m/s | -51.6°C | 3.2% | 42.8hPa | 2.6V | 03:52:38 | 01:29:59 | 00:00:00 | |
| DO2SHX-10 | 2026-09-01 11:59:12 | 52.88597 | 10.78891 | 355° | 16km/h | 21982m | 4.5m/s | -51.4°C | 3.1% | 42.7hPa | 2.7V | 00:00:00 | 01:30:02 | 00:00:00 | |
| DO2SHX-10 | 2026-09-01 11:59:09 | 52.88585 | 10.78894 | 359° | 13km/h | 21968m | 3.9m/s | -51.5°C | 3.2% | 42.8hPa | 2.6V | 00:00:00 | 01:29:59 | 00:00:00 | |
| DL1XH-15 | 2026-09-01 11:59:08 | 52.88578 | 10.78858 | 102° | 26km/h | 21935m | 4.1m/s | -52.1°C | 3.3% | 43hPa | 2.6V | 03:52:44 | 01:29:53 | 00:00:00 | |
| BIOWL1-15 | 2026-09-01 11:59:08 | 52.88583 | 10.78893 | 22° | 11km/h | 21963m | 4.7m/s | -51.7°C | 0% | 42.9hPa | 2.6V | 03:53:22 | 01:29:58 | 00:00:00 | |
| AA1-15 | 2026-09-01 11:59:06 | 52.88578 | 10.78885 | 68° | 16km/h | 21952m | 5.4m/s | -51.9°C | 0% | 42.9hPa | 2.7V | 03:53:22 | 01:29:56 | 00:00:00 | |
| DL1XH1-15 | 2026-09-01 11:59:06 | 52.88579 | 10.78826 | 78° | 24km/h | 21920m | 5.4m/s | -52.1°C | 3.4% | 43.1hPa | 2.7V | 03:52:47 | 01:29:50 | 00:00:00 | |
| DL1XH-west | 2026-09-01 11:59:03 | 52.88580 | 10.78837 | 90° | 26km/h | 21926m | 6.1m/s | -52.1°C | 0% | 43.1hPa | 2.7V | 03:53:22 | 01:29:51 | 00:00:00 | |
| DF8AY | 2026-09-01 11:59:02 | 52.88579 | 10.78847 | 98° | 27km/h | 21931m | 3.8m/s | -52.1°C | 0% | 43.1hPa | 2.7V | 03:53:22 | 01:29:52 | 00:00:00 | |
| SMARD9-15 | 2026-09-01 11:59:02 | 52.88579 | 10.78847 | 97° | 26km/h | 21931m | 3.8m/s | -52.1°C | 0.6% | 43.1hPa | 2.6V | 00:00:00 | 00:00:00 | 00:00:00 | |
| DM0DOS-11 | 2026-09-01 11:59:01 | 52.88577 | 10.78817 | 70° | 22km/h | 21915m | 4.5m/s | -52°C | 3.3% | 43.2hPa | 2.6V | 03:52:48 | 01:29:49 | 00:00:00 | |
| BIOWL1-15 | 2026-09-01 11:59:00 | 52.88576 | 10.78809 | 68° | 18km/h | 21910m | 5.9m/s | -52.1°C | 0% | 43.2hPa | 2.6V | 03:53:22 | 01:29:48 | 00:00:00 | |
| DO2SHX-10 | 2026-09-01 11:59:00 | 52.88579 | 10.78826 | 79° | 22km/h | 21921m | 5.3m/s | -52.1°C | 3.4% | 43.1hPa | 2.6V | 00:00:00 | 01:29:50 | 00:00:00 | |
| GOEST3-10 | 2026-09-01 11:58:59 | 52.88577 | 10.78817 | 71° | 16km/h | 21916m | 4.4m/s | -52.0°C | 3.3% | 43.1hPa | 2.6V | 00:00:00 | 00:00:00 | 00:00:00 | |
| DK7RCA | 2026-09-01 11:58:58 | 52.88577 | 10.78817 | 72° | 22km/h | 21916m | 4.5m/s | -52.0°C | 0.7% | 43.2hPa | 2.6V | 00:00:00 | 00:00:00 | 00:00:00 | |
| DL1NUX | 2026-09-01 11:58:57 | 52.88564 | 10.78782 | 83° | 13km/h | 21879m | 6.2m/s | -52°C | 3.3% | 43.4hPa | 2.6V | 03:52:55 | 01:29:42 | 00:00:00 | |
| AA1-15 | 2026-09-01 11:58:56 | 52.88570 | 10.78794 | 38° | 13km/h | 21895m | 6.3m/s | -52.1°C | 0% | 43.3hPa | 2.7V | 03:53:22 | 01:29:45 | 00:00:00 | |
| DB0DAN | 2026-09-01 11:58:55 | 52.88570 | 10.78794 | 38° | 13km/h | 21895m | 6.3m/s | -52.1°C | 0.6% | 43.3hPa | 2.7V | 00:00:00 | 00:00:00 | 00:00:00 | |
| DL1XH-15 | 2026-09-01 11:58:55 | 52.88565 | 10.78787 | 56° | 13km/h | 21884m | 4.6m/s | -52.1°C | 3.3% | 43.4hPa | 2.7V | 03:52:54 | 01:29:43 | 00:00:00 | |
| DM0DOS-11 | 2026-09-01 11:58:55 | 52.88566 | 10.78759 | 95° | 24km/h | 21864m | 4.6m/s | -52.1°C | 3.3% | 43.5hPa | 2.7V | 03:52:58 | 01:29:39 | 00:00:00 | |
| DL1XH-west | 2026-09-01 11:58:51 | 52.88564 | 10.78776 | 103° | 16km/h | 21873m | 5m/s | -52.1°C | 0% | 43.5hPa | 2.6V | 03:53:22 | 01:29:41 | 00:00:00 | |
| BIOWL1-15 | 2026-09-01 11:58:50 | 52.88566 | 10.78750 | 81° | 24km/h | 21859m | 5.6m/s | -52.1°C | 0% | 43.5hPa | 2.7V | 03:53:22 | 01:29:38 | 00:00:00 | |
| DL3AQ-11 | 2026-09-01 11:58:50 | 52.88566 | 10.78759 | 95° | 22km/h | 21864m | 4.6m/s | -52.1°C | 0.6% | 43.5hPa | 2.6V | 00:00:00 | 00:00:00 | 00:00:00 | |
| EDDB2-11 | 2026-09-01 11:58:49 | 52.88566 | 10.78750 | 81° | 24km/h | 21859m | 5.6m/s | -52.1°C | 0.6% | 43.5hPa | 2.6V | 00:00:00 | 00:00:00 | 00:00:00 | |
| DL1XH-15 | 2026-09-01 11:58:48 | 52.88546 | 10.78719 | 7° | 20km/h | 21833m | 4.4m/s | -52.2°C | 3.4% | 43.7hPa | 2.6V | 03:53:04 | 01:29:33 | 00:00:00 | |
| BUE01 | 2026-09-01 11:58:48 | 52.88564 | 10.78740 | 63° | 24km/h | 21854m | 5.0m/s | -52.1°C | 0.6% | 43.6hPa | 2.7V | 00:00:00 | 00:00:00 | 00:00:00 | |
| DL1NUX | 2026-09-01 11:58:47 | 52.88541 | 10.78718 | 5° | 18km/h | 21829m | 4m/s | -52.1°C | 3.2% | 43.7hPa | 2.7V | 03:53:05 | 01:29:32 | 00:00:00 | |
| AA1-15 | 2026-09-01 11:58:46 | 52.88561 | 10.78731 | 46° | 26km/h | 21849m | 4.5m/s | -52.1°C | 0% | 43.6hPa | 2.7V | 03:53:22 | 01:29:36 | 00:00:00 | |
| DL4BBY-15 | 2026-09-01 11:58:46 | 52.88560 | 10.78731 | 46° | 22km/h | 21850m | 4.4m/s | -51.1°C | 0% | 0hPa | 2.6V | 00:00:00 | 00:00:00 | 00:00:00 | |
| DO2SHX-10 | 2026-09-01 11:58:45 | 52.88556 | 10.78725 | 31° | 22km/h | 21844m | 5.4m/s | -52.2°C | 3.4% | 43.6hPa | 2.6V | 00:00:00 | 01:29:35 | 00:00:00 | |
| DM0DOS-11 | 2026-09-01 11:58:44 | 52.88525 | 10.78702 | 50° | 24km/h | 21810m | 4.7m/s | -52.2°C | 3.3% | 43.9hPa | 2.6V | 03:53:09 | 01:29:28 | 00:00:00 | |
| DL1XH1-15 | 2026-09-01 11:58:44 | 52.88537 | 10.78717 | 13° | 16km/h | 21825m | 4.7m/s | -52.2°C | 3.3% | 43.8hPa | 2.7V | 03:53:06 | 01:29:31 | 00:00:00 | |
| DL1XH-west | 2026-09-01 11:58:41 | 52.88537 | 10.78717 | 14° | 16km/h | 21825m | 4.7m/s | -52.2°C | 0% | 43.8hPa | 2.7V | 03:53:22 | 01:29:31 | 00:00:00 | |
| DB0DAN | 2026-09-01 11:58:40 | 52.88533 | 10.78714 | 28° | 18km/h | 21820m | 5.3m/s | -52.1°C | 0.6% | 43.83hPa | 2.7V | 00:00:00 | 00:00:00 | 00:00:00 | |
| DF8AY | 2026-09-01 11:58:40 | 52.88529 | 10.78709 | 41° | 22km/h | 21815m | 5.1m/s | -52.1°C | 0% | 43.9hPa | 2.6V | 03:53:22 | 01:29:29 | 00:00:00 | |
| BIOWL1-15 | 2026-09-01 11:58:38 | 52.88508 | 10.78650 | 30° | 22km/h | 21774m | 5.7m/s | -52.3°C | 0% | 44.2hPa | 2.7V | 03:53:22 | 01:29:21 | 00:00:00 | |
| DL1NUX | 2026-09-01 11:58:37 | 52.88512 | 10.78655 | 44° | 18km/h | 21780m | 6.4m/s | -52.3°C | 3.4% | 44.1hPa | 2.7V | 03:53:15 | 01:29:22 | 00:00:00 | |
| AA1-15 | 2026-09-01 11:58:35 | 52.88517 | 10.78677 | 77° | 22km/h | 21794m | 5.2m/s | -52.3°C | 0% | 44hPa | 2.7V | 03:53:22 | 01:29:25 | 00:00:00 | |
| SMARD9-10 | 2026-09-01 11:58:35 | 52.88517 | 10.78677 | 78° | 22km/h | 21794m | 5.2m/s | -52.3°C | 0.6% | 44.0hPa | 2.7V | 00:00:00 | 00:00:00 | 00:00:00 | |
| DL1XH1-15 | 2026-09-01 11:58:34 | 52.88508 | 10.78650 | 30° | 22km/h | 21774m | 5.7m/s | -52.3°C | 3.4% | 44.2hPa | 2.7V | 03:53:16 | 01:29:21 | 00:00:00 | |
| DL1XH-west | 2026-09-01 11:58:30 | 52.88503 | 10.78646 | 22° | 26km/h | 21769m | 4.3m/s | -52.3°C | 0% | 44.1hPa | 2.7V | 03:53:22 | 01:29:20 | 00:00:00 | |
| DF8AY | 2026-09-01 11:58:29 | 52.88497 | 10.78642 | 21° | 26km/h | 21765m | 4.8m/s | -52.3°C | 0% | 44.2hPa | 2.6V | 03:53:22 | 01:29:19 | 00:00:00 | |
| GOEST3-10 | 2026-09-01 11:58:29 | 52.88497 | 10.78642 | 22° | 22km/h | 21765m | 4.7m/s | -52.2°C | 3.4% | 44.2hPa | 2.6V | 03:53:00 | 00:00:00 | 00:00:00 | |
| DL1NUX | 2026-09-01 11:58:27 | 52.88467 | 10.78601 | 46° | 24km/h | 21729m | 5.2m/s | -52.3°C | 3.4% | 44.5hPa | 2.6V | 03:53:25 | 01:29:12 | 00:00:00 | |
| AA1-15 | 2026-09-01 11:58:24 | 52.88475 | 10.78615 | 51° | 22km/h | 21740m | 5.4m/s | -52.3°C | 0% | 44.4hPa | 2.7V | 03:54:13 | 01:29:14 | 00:00:00 | |
| DL1XH1-15 | 2026-09-01 11:58:24 | 52.88463 | 10.78594 | 46° | 22km/h | 21723m | 5.4m/s | -52.3°C | 3.3% | 44.5hPa | 2.6V | 03:53:26 | 01:29:11 | 00:00:00 | |
| BIOWL1-15 | 2026-09-01 11:58:23 | 52.88467 | 10.78601 | 46° | 24km/h | 21729m | 5.2m/s | -52.3°C | 0% | 44.5hPa | 2.6V | 03:54:13 | 01:29:12 | 00:00:00 | |
| DF8AY | 2026-09-01 11:58:19 | 52.88453 | 10.78577 | 38° | 18km/h | 21707m | 5.5m/s | -52.4°C | 0% | 44.6hPa | 2.7V | 03:54:13 | 01:29:08 | 00:00:00 | |
| DL2RXE-15 | 2026-09-01 11:58:18 | 52.88453 | 10.78577 | 39° | 18km/h | 21707m | 5.5m/s | -52.4°C | 0.7% | 44.6hPa | 2.7V | 00:00:00 | 00:00:00 | 00:00:00 | |
| DL4BBY-15 | 2026-09-01 11:58:17 | 52.88445 | 10.78568 | 32° | 18km/h | 21696m | 4.4m/s | -51.6°C | 0% | 0hPa | 2.7V | 00:00:00 | 00:00:00 | 00:00:00 | |
| SONCRA | 2026-09-01 11:58:16 | 52.88441 | 10.78564 | 32° | 16km/h | 21691m | 5.2m/s | -52.5°C | 0.6% | 44.7hPa | 2.7V | 00:00:00 | 00:00:00 | 00:00:00 | |
| DO2SHX-10 | 2026-09-01 11:58:15 | 52.88441 | 10.78564 | 33° | 16km/h | 21691m | 5.2m/s | -52.5°C | 3.4% | 44.7hPa | 2.7V | 00:00:00 | 01:29:05 | 00:00:00 | |
| TFSTFS | 2026-09-01 11:58:14 | 52.88438 | 10.78560 | 37° | 16km/h | 21686m | 5.7m/s | -52.5°C | 0.7% | 44.7hPa | 2.7V | 03:54:00 | 00:00:00 | 00:00:00 | |
| DL1XH1-15 | 2026-09-01 11:58:13 | 52.88428 | 10.78546 | 43° | 20km/h | 21669m | 5.5m/s | -52.5°C | 3.4% | 44.9hPa | 2.7V | 03:53:36 | 01:29:01 | 00:00:00 | |
| AA1-15 | 2026-09-01 11:58:13 | 52.88432 | 10.78552 | 43° | 16km/h | 21675m | 5.7m/s | -52.5°C | 0% | 44.9hPa | 2.7V | 03:54:13 | 01:29:02 | 00:00:00 | |
| BIOWL1-15 | 2026-09-01 11:58:13 | 52.88424 | 10.78540 | 45° | 24km/h | 21664m | 5m/s | -52.5°C | 0% | 44.9hPa | 2.7V | 03:54:13 | 01:29:00 | 00:00:00 | |
| DM0DOS-11 | 2026-09-01 11:58:12 | 52.88417 | 10.78526 | 52° | 20km/h | 21655m | 5.7m/s | -52.4°C | 3.5% | 45hPa | 2.6V | 03:53:39 | 01:28:58 | 00:00:00 | |
| DF8AY | 2026-09-01 11:58:08 | 52.88417 | 10.78526 | 53° | 20km/h | 21655m | 5.7m/s | -52.4°C | 0% | 45hPa | 2.6V | 03:54:13 | 01:28:58 | 00:00:00 | |
| DL1XH-west | 2026-09-01 11:58:08 | 52.88414 | 10.78519 | 55° | 18km/h | 21649m | 5.5m/s | -52.4°C | 0% | 45hPa | 2.7V | 03:54:13 | 01:28:57 | 00:00:00 | |
| DL4XJ-10 | 2026-09-01 11:58:07 | 52.88414 | 10.78519 | 56° | 18km/h | 21649m | 5.5m/s | -51.5°C | 0% | 0hPa | 2.7V | 00:00:00 | 00:00:00 | 00:00:00 | |
| DL1XH1-15 | 2026-09-01 11:58:06 | 52.88390 | 10.78494 | 17° | 18km/h | 21618m | 5.9m/s | -52.4°C | 3.4% | 45.2hPa | 2.7V | 03:53:46 | 01:28:51 | 00:00:00 | |
| DO2SHX-10 | 2026-09-01 11:58:06 | 52.88411 | 10.78513 | 50° | 18km/h | 21644m | 4.4m/s | -52.3°C | 3.4% | 45.0hPa | 2.7V | 03:53:00 | 01:28:56 | 00:00:00 | |
| DL1XH-15 | 2026-09-01 11:58:03 | 52.88395 | 10.78497 | 17° | 20km/h | 21623m | 5.6m/s | -52.4°C | 3.4% | 45.2hPa | 2.7V | 03:53:45 | 01:28:52 | 00:00:00 | |
| AA1-15 | 2026-09-01 11:58:02 | 52.88394 | 10.78497 | 17° | 20km/h | 21623m | 5.6m/s | -52.4°C | 0% | 45.2hPa | 2.7V | 03:54:13 | 01:28:52 | 00:00:00 | |
| DM0DOS-11 | 2026-09-01 11:58:02 | 52.88378 | 10.78485 | 36° | 20km/h | 21602m | 5.9m/s | -52.3°C | 3.4% | 45.3hPa | 2.6V | 03:53:49 | 01:28:48 | 00:00:00 | |
| BIOWL1-15 | 2026-09-01 11:58:01 | 52.88390 | 10.78494 | 17° | 18km/h | 21618m | 5.9m/s | -52.4°C | 0% | 45.2hPa | 2.7V | 03:54:13 | 01:28:51 | 00:00:00 | |
| DF8AY | 2026-09-01 11:57:58 | 52.88374 | 10.78479 | 45° | 22km/h | 21596m | 5.2m/s | -52.4°C | 0% | 45.4hPa | 2.6V | 03:54:13 | 01:28:47 | 00:00:00 | |
| DL1NUX | 2026-09-01 11:57:57 | 52.88364 | 10.78442 | 64° | 20km/h | 21570m | 6.1m/s | -52.2°C | 3.4% | 45.6hPa | 2.6V | 03:53:55 | 01:28:42 | 00:00:00 | |
| DL1XH-west | 2026-09-01 11:57:56 | 52.88371 | 10.78473 | 56° | 22km/h | 21591m | 5.2m/s | -52.2°C | 0% | 45.4hPa | 2.7V | 03:54:13 | 01:28:46 | 00:00:00 | |
| DB0DAN | 2026-09-01 11:57:55 | 52.88368 | 10.78465 | 68° | 18km/h | 21585m | 5.9m/s | -52.3°C | 0.7% | 45.44hPa | 2.7V | 00:00:00 | 00:00:00 | 00:00:00 | |
| MECKS9 | 2026-09-01 11:57:55 | 52.88369 | 10.78465 | 69° | 20km/h | 21585m | 5.9m/s | -52.3°C | 0.7% | 45.4hPa | 2.6V | 00:00:00 | 00:00:00 | 00:00:00 | |
| DO2SHX-10 | 2026-09-01 11:57:54 | 52.88367 | 10.78458 | 74° | 20km/h | 21580m | 4.4m/s | -52.1°C | 3.4% | 45.4hPa | 2.6V | 03:53:00 | 01:28:44 | 00:00:00 | |
| DL1XH1-15 | 2026-09-01 11:57:53 | 52.88361 | 10.78435 | 58° | 18km/h | 21564m | 4.7m/s | -52.1°C | 3.4% | 45.6hPa | 2.6V | 03:53:56 | 01:28:41 | 00:00:00 | |
| TFSTFS | 2026-09-01 11:57:53 | 52.88366 | 10.78450 | 72° | 20km/h | 21576m | 4.7m/s | -52.2°C | 0.6% | 45.5hPa | 2.7V | 03:54:00 | 00:00:00 | 00:00:00 | |
| DM0DOS-11 | 2026-09-01 11:57:52 | 52.88355 | 10.78420 | 54° | 9km/h | 21548m | 5.1m/s | -52°C | 3.4% | 45.7hPa | 2.7V | 03:53:59 | 01:28:38 | 00:00:00 | |
| AA1-15 | 2026-09-01 11:57:52 | 52.88361 | 10.78435 | 59° | 18km/h | 21564m | 4.7m/s | -52.1°C | 0% | 45.6hPa | 2.6V | 03:54:13 | 01:28:41 | 00:00:00 | |
| BIOWL1-15 | 2026-09-01 11:57:51 | 52.88359 | 10.78429 | 58° | 16km/h | 21560m | 4.7m/s | -52.1°C | 0% | 45.7hPa | 2.6V | 03:54:13 | 01:28:40 | 00:00:00 | |
| EDDB2-12 | 2026-09-01 11:57:51 | 52.88359 | 10.78429 | 57° | 15km/h | 21560m | 4.7m/s | -52.1°C | 0.7% | 45.7hPa | 2.7V | 00:00:00 | 00:00:00 | 00:00:00 | |
| SONDE2-11 | 2026-09-01 11:57:50 | 52.88357 | 10.78424 | 57° | 11km/h | 21554m | 6.7m/s | -52.1°C | 0.7% | 45.7hPa | 2.7V | 00:00:00 | 00:00:00 | 00:00:00 | |
| DL3AQ-11 | 2026-09-01 11:57:48 | 52.88354 | 10.78417 | 39° | 9km/h | 21543m | 5.1m/s | -52.0°C | 0.6% | 45.8hPa | 2.7V | 00:00:00 | 00:00:00 | 00:00:00 | |
| DF8AY | 2026-09-01 11:57:47 | 52.88339 | 10.78401 | 45° | 13km/h | 21511m | 5.7m/s | -52°C | 0% | 46hPa | 2.7V | 03:54:13 | 01:28:31 | 00:00:00 | |
| DL1XH-west | 2026-09-01 11:57:46 | 52.88346 | 10.78410 | 28° | 13km/h | 21527m | 5.2m/s | -52°C | 0% | 45.9hPa | 2.6V | 03:54:13 | 01:28:34 | 00:00:00 | |
| DL1XH1-15 | 2026-09-01 11:57:46 | 52.88339 | 10.78401 | 44° | 13km/h | 21511m | 5.7m/s | -52°C | 3.3% | 45.9hPa | 2.7V | 03:54:06 | 01:28:31 | 00:00:00 | |
| SONCRA | 2026-09-01 11:57:46 | 52.88346 | 10.78410 | 28° | 11km/h | 21527m | 5.2m/s | -52.0°C | 0.6% | 45.9hPa | 2.7V | 00:00:00 | 00:00:00 | 00:00:00 | |
| DL1XH-15 | 2026-09-01 11:57:45 | 52.88341 | 10.78405 | 45° | 11km/h | 21516m | 5.1m/s | -51.9°C | 3.3% | 45.9hPa | 2.7V | 03:54:05 | 01:28:32 | 00:00:00 | |
| AA1-15 | 2026-09-01 11:57:41 | 52.88337 | 10.78397 | 45° | 15km/h | 21505m | 6m/s | -52°C | 0% | 46hPa | 2.7V | 03:54:13 | 01:28:30 | 00:00:00 | |
| DL2RXE-15 | 2026-09-01 11:57:40 | 52.88337 | 10.78397 | 46° | 15km/h | 21506m | 6.0m/s | -52.0°C | 0.6% | 46.0hPa | 2.6V | 00:00:00 | 00:00:00 | 00:00:00 | |
| DM0DOS-11 | 2026-09-01 11:57:39 | 52.88332 | 10.78387 | 59° | 15km/h | 21495m | 4.9m/s | -52°C | 3.3% | 46.1hPa | 2.6V | 03:54:09 | 01:28:28 | 00:00:00 | |
| BIOWL1-15 | 2026-09-01 11:57:39 | 52.88331 | 10.78382 | 75° | 15km/h | 21489m | 6.5m/s | -52°C | 0% | 46.1hPa | 2.7V | 03:54:13 | 01:28:27 | 00:00:00 | |
| DO2SHX-10 | 2026-09-01 11:57:39 | 52.88334 | 10.78392 | 51° | 15km/h | 21500m | 4.6m/s | -51.9°C | 3.3% | 46.0hPa | 2.7V | 00:00:00 | 01:28:29 | 00:00:00 | |
| DD8BA-10 | 2026-09-01 11:57:37 | 52.88330 | 10.78382 | 75° | 11km/h | 21490m | 6.4m/s | -52.0°C | 3.3% | 46.1hPa | 2.7V | 00:00:00 | 00:00:00 | 00:00:00 | |
| DO2SHX-10 | 2026-09-01 11:57:36 | 52.88330 | 10.78377 | 85° | 13km/h | 21484m | 4.5m/s | -51.9°C | 3.3% | 46.2hPa | 2.7V | 00:00:00 | 01:28:26 | 00:00:00 | |
| DL1XH-15 | 2026-09-01 11:57:35 | 52.88327 | 10.78357 | 77° | 11km/h | 21462m | 6.4m/s | -51.9°C | 3.3% | 46.4hPa | 2.7V | 03:54:15 | 01:28:22 | 00:00:00 | |
| DL1XH-west | 2026-09-01 11:57:35 | 52.88329 | 10.78366 | 73° | 13km/h | 21473m | 6.3m/s | -51.9°C | 0% | 46.3hPa | 2.6V | 03:54:13 | 01:28:24 | 00:00:00 | |
| DL1XH1-15 | 2026-09-01 11:57:34 | 52.88327 | 10.78353 | 82° | 9km/h | 21455m | 5.9m/s | -51.9°C | 3.3% | 46.4hPa | 2.7V | 03:54:16 | 01:28:21 | 00:00:00 | |
| DF8AY | 2026-09-01 11:57:31 | 52.88327 | 10.78353 | 83° | 9km/h | 21456m | 5.9m/s | -51.9°C | 0% | 46.4hPa | 2.7V | 03:55:04 | 01:28:21 | 00:00:00 | |
| AA1-15 | 2026-09-01 11:57:29 | 52.88326 | 10.78346 | 62° | 9km/h | 21445m | 6.1m/s | -51.9°C | 0% | 46.4hPa | 2.6V | 03:55:04 | 01:28:19 | 00:00:00 | |
| SMARD9-15 | 2026-09-01 11:57:29 | 52.88324 | 10.78343 | 51° | 9km/h | 21439m | 5.9m/s | -51.9°C | 0.7% | 46.5hPa | 2.6V | 00:00:00 | 00:00:00 | 00:00:00 | |
| DF8AY-15 | 2026-09-01 11:57:28 | 52.88324 | 10.78342 | 52° | 5km/h | 21439m | 5.8m/s | -51.9°C | 3.3% | 46.4hPa | 2.6V | 00:00:00 | 01:28:18 | 00:00:00 | |
| BIOWL1-15 | 2026-09-01 11:57:28 | 52.88323 | 10.78339 | 55° | 9km/h | 21434m | 4m/s | -52°C | 0% | 46.5hPa | 2.6V | 03:55:04 | 01:28:17 | 00:00:00 | |
| DD8BA-10 | 2026-09-01 11:57:27 | 52.88323 | 10.78339 | 56° | 7km/h | 21434m | 4.0m/s | -51.9°C | 3.4% | 46.5hPa | 2.6V | 03:54:00 | 00:00:00 | 00:00:00 | |
| DL1XH1-15 | 2026-09-01 11:57:26 | 52.88320 | 10.78322 | 73° | 9km/h | 21401m | 4.5m/s | -52°C | 3.3% | 46.8hPa | 2.6V | 03:54:26 | 01:28:11 | 00:00:00 | |
| DL1XH-west | 2026-09-01 11:57:24 | 52.88321 | 10.78329 | 71° | 7km/h | 21412m | 7m/s | -52°C | 0% | 46.7hPa | 2.7V | 03:55:04 | 01:28:13 | 00:00:00 | |
| DF8AY | 2026-09-01 11:57:21 | 52.88320 | 10.78322 | 74° | 9km/h | 21401m | 4.5m/s | -52.1°C | 0% | 46.8hPa | 2.6V | 03:55:04 | 01:28:11 | 00:00:00 | |
| DM0DOS-11 | 2026-09-01 11:57:19 | 52.88319 | 10.78314 | 70° | 5km/h | 21384m | 5.3m/s | -52.1°C | 3.4% | 46.9hPa | 2.7V | 03:54:29 | 01:28:08 | 00:00:00 | |
| AA1-15 | 2026-09-01 11:57:19 | 52.88319 | 10.78314 | 71° | 5km/h | 21385m | 5.3m/s | -52.2°C | 0% | 46.9hPa | 2.7V | 03:55:04 | 01:28:08 | 00:00:00 | |
| BIOWL1-15 | 2026-09-01 11:57:16 | 52.88318 | 10.78307 | 193° | 4km/h | 21353m | 4.7m/s | -51.9°C | 0% | 47.1hPa | 2.7V | 03:55:04 | 01:28:02 | 00:00:00 | |
| DL4BBY-15 | 2026-09-01 11:57:16 | 52.88317 | 10.78309 | 50° | 7km/h | 21374m | 4.4m/s | -51.1°C | 0% | 0hPa | 2.6V | 00:00:00 | 00:00:00 | 00:00:00 | |
| DO2SHX-10 | 2026-09-01 11:57:15 | 52.88317 | 10.78308 | 62° | 4km/h | 21369m | 5.1m/s | -51.9°C | 3.3% | 47.0hPa | 2.6V | 00:00:00 | 01:28:05 | 00:00:00 | |
| SONCRA | 2026-09-01 11:57:14 | 52.88318 | 10.78307 | 183° | 4km/h | 21358m | 4.6m/s | -51.9°C | 0.6% | 47.1hPa | 2.6V | 00:00:00 | 00:00:00 | 00:00:00 | |
| DM0DOS-11 | 2026-09-01 11:57:12 | 52.88315 | 10.78309 | 353° | 5km/h | 21331m | 5.7m/s | -51.8°C | 3.2% | 47.3hPa | 2.6V | 03:54:39 | 01:27:58 | 00:00:00 | |
| DF8AY | 2026-09-01 11:57:12 | 52.88319 | 10.78307 | 294° | 2km/h | 21348m | 6m/s | -51.9°C | 0% | 47.2hPa | 2.7V | 03:55:04 | 01:28:01 | 00:00:00 | |
| DB0DAN | 2026-09-01 11:57:10 | 52.88318 | 10.78308 | 346° | 5km/h | 21342m | 6m/s | -51.8°C | 0.6% | 47.19hPa | 2.7V | 00:00:00 | 00:00:00 | 00:00:00 | |
| DO2SHX-10 | 2026-09-01 11:57:09 | 52.88317 | 10.78308 | 354° | 5km/h | 21337m | 4.7m/s | -51.7°C | 3.3% | 47.2hPa | 2.6V | 00:00:00 | 01:27:59 | 00:00:00 | |
| DL3AQ-11 | 2026-09-01 11:57:08 | 52.88314 | 10.78309 | 355° | 2km/h | 21326m | 5.8m/s | -51.8°C | 0.6% | 47.3hPa | 2.6V | 00:00:00 | 00:00:00 | 00:00:00 | |
| DL1NUX | 2026-09-01 11:57:07 | 52.88309 | 10.78305 | 65° | 5km/h | 21298m | 6.2m/s | -51.9°C | 3.3% | 47.5hPa | 2.6V | 03:54:45 | 01:27:52 | 00:00:00 | |
| BIOWL1-15 | 2026-09-01 11:57:06 | 52.88314 | 10.78309 | 4° | 2km/h | 21321m | 4.3m/s | -51.9°C | 0% | 47.4hPa | 2.6V | 03:55:04 | 01:27:56 | 00:00:00 | |
| DL1XH-west | 2026-09-01 11:57:02 | 52.88309 | 10.78303 | 104° | 5km/h | 21292m | 5.6m/s | -51.9°C | 0% | 47.6hPa | 2.6V | 03:55:04 | 01:27:51 | 00:00:00 | |
| DF8AY | 2026-09-01 11:57:00 | 52.88309 | 10.78300 | 111° | 7km/h | 21287m | 4.3m/s | -51.9°C | 0% | 47.6hPa | 2.7V | 03:55:04 | 01:27:50 | 00:00:00 | |
| DM0DOS-11 | 2026-09-01 11:57:00 | 52.88309 | 10.78294 | 72° | 9km/h | 21277m | 5.7m/s | -52.1°C | 3.3% | 47.7hPa | 2.7V | 03:54:49 | 01:27:48 | 00:00:00 | |
| SMARD9-15 | 2026-09-01 11:56:58 | 52.88310 | 10.78294 | 72° | 7km/h | 21277m | 5.7m/s | -52.1°C | 0.6% | 47.7hPa | 2.6V | 00:00:00 | 00:00:00 | 00:00:00 | |
| DO2SHX-10 | 2026-09-01 11:56:57 | 52.88308 | 10.78290 | 61° | 9km/h | 21272m | 4.9m/s | -52.1°C | 3.3% | 47.7hPa | 2.6V | 00:00:00 | 01:27:47 | 00:00:00 | |
| DL1XH1-15 | 2026-09-01 11:56:56 | 52.88295 | 10.78273 | 7° | 11km/h | 21234m | 5.5m/s | -52°C | 3.3% | 48hPa | 2.6V | 03:54:57 | 01:27:40 | 00:00:00 | |
| BIOWL1-15 | 2026-09-01 11:56:56 | 52.88307 | 10.78286 | 60° | 11km/h | 21266m | 5.5m/s | -52.1°C | 0% | 47.8hPa | 2.6V | 03:55:04 | 01:27:46 | 00:00:00 | |
| DB0DAN | 2026-09-01 11:56:55 | 52.88306 | 10.78283 | 63° | 9km/h | 21260m | 5.9m/s | -52.1°C | 0.7% | 47.81hPa | 2.7V | 00:00:00 | 00:00:00 | 00:00:00 | |
| AA1-15 | 2026-09-01 11:56:55 | 52.88306 | 10.78283 | 63° | 9km/h | 21260m | 5.9m/s | -52.1°C | 0% | 47.8hPa | 2.7V | 03:55:04 | 01:27:45 | 00:00:00 | |
| DD8BA-10 | 2026-09-01 11:56:55 | 52.88306 | 10.78283 | 64° | 9km/h | 21261m | 5.9m/s | -52.0°C | 3.4% | 47.8hPa | 2.7V | 00:00:00 | 00:00:00 | 00:00:00 | |
| DO2SHX-10 | 2026-09-01 11:56:54 | 52.88305 | 10.78280 | 53° | 9km/h | 21255m | 4.7m/s | -52.1°C | 3.3% | 47.8hPa | 2.6V | 03:54:00 | 01:27:44 | 00:00:00 | |
| DL1NUX | 2026-09-01 11:56:53 | 52.88301 | 10.78275 | 20° | 13km/h | 21245m | 6.2m/s | -52.2°C | 3.4% | 48hPa | 2.6V | 03:54:55 | 01:27:42 | 00:00:00 | |
| DB0NH | 2026-09-01 11:56:53 | 52.88303 | 10.78277 | 35° | 13km/h | 21250m | 5.3m/s | -52.2°C | 3.4% | 47.8hPa | 2.7V | 03:54:00 | 01:27:43 | 00:00:00 | |
| DM0DOS-11 | 2026-09-01 11:56:52 | 52.88290 | 10.78272 | 8° | 7km/h | 21223m | 4.5m/s | -52.1°C | 3.3% | 48.1hPa | 2.7V | 03:54:59 | 01:27:38 | 00:00:00 | |
| DF8AY | 2026-09-01 11:56:51 | 52.88295 | 10.78273 | 8° | 11km/h | 21234m | 5.5m/s | -52.1°C | 0% | 48hPa | 2.6V | 03:55:04 | 01:27:40 | 00:00:00 | |
| EDDB2-12 | 2026-09-01 11:56:49 | 52.88290 | 10.78272 | 8° | 7km/h | 21224m | 4.5m/s | -52.1°C | 0.6% | 48.1hPa | 2.7V | 00:00:00 | 00:00:00 | 00:00:00 | |
| DO2SHX-10 | 2026-09-01 11:56:48 | 52.88290 | 10.78271 | 9° | 9km/h | 21224m | 4.5m/s | -52.1°C | 3.3% | 48.0hPa | 2.7V | 00:00:00 | 01:27:38 | 00:00:00 | |
| DL1NUX | 2026-09-01 11:56:47 | 52.88279 | 10.78259 | 61° | 7km/h | 21192m | 5m/s | -52.1°C | 3.4% | 48.4hPa | 2.7V | 03:55:05 | 01:27:32 | 00:00:00 | |
| AA1-15 | 2026-09-01 11:56:45 | 52.88284 | 10.78267 | 35° | 11km/h | 21207m | 4.2m/s | -52°C | 0% | 48.2hPa | 2.6V | 03:55:04 | 01:27:35 | 00:00:00 | |
| DL1XH1-15 | 2026-09-01 11:56:45 | 52.88274 | 10.78250 | 31° | 15km/h | 21175m | 5m/s | -52.3°C | 3.3% | 48.5hPa | 2.7V | 03:55:08 | 01:27:29 | 00:00:00 | |
| EDDB2-11 | 2026-09-01 11:56:45 | 52.88282 | 10.78265 | 45° | 9km/h | 21203m | 5.3m/s | -52.0°C | 0.6% | 48.2hPa | 2.7V | 00:00:00 | 00:00:00 | 00:00:00 | |
| DF8AY | 2026-09-01 11:56:40 | 52.88274 | 10.78250 | 31° | 15km/h | 21175m | 5m/s | -52.3°C | 0% | 48.5hPa | 2.7V | 03:55:55 | 01:27:29 | 00:00:00 | |
| AA1-15 | 2026-09-01 11:56:35 | 52.88259 | 10.78244 | 8° | 9km/h | 21150m | 5.4m/s | -52.1°C | 0% | 48.6hPa | 2.7V | 03:55:55 | 01:27:24 | 00:00:00 | |
| BIOWL1-15 | 2026-09-01 11:56:34 | 52.88253 | 10.78227 | 91° | 15km/h | 21124m | 4.3m/s | -52.2°C | 0% | 48.9hPa | 2.6V | 03:55:55 | 01:27:19 | 00:00:00 | |
| DL1XH1-15 | 2026-09-01 11:56:34 | 52.88253 | 10.78226 | 91° | 15km/h | 21124m | 4.3m/s | -52.2°C | 3.4% | 48.8hPa | 2.6V | 03:55:18 | 01:27:19 | 00:00:00 | |
| DL1NUX | 2026-09-01 11:56:34 | 52.88255 | 10.78240 | 49° | 11km/h | 21139m | 4.8m/s | -52.1°C | 3.4% | 48.7hPa | 2.7V | 03:55:15 | 01:27:22 | 00:00:00 | |
| DL1XH-west | 2026-09-01 11:56:29 | 52.88253 | 10.78220 | 86° | 16km/h | 21119m | 5.2m/s | -52.2°C | 0% | 48.9hPa | 2.7V | 03:55:55 | 01:27:18 | 00:00:00 | |
| DF8AY | 2026-09-01 11:56:29 | 52.88242 | 10.78185 | 47° | 16km/h | 21087m | 5.4m/s | -52.4°C | 0% | 49.1hPa | 2.7V | 03:55:55 | 01:27:12 | 00:00:00 | |
| DL3AQ-11 | 2026-09-01 11:56:28 | 52.88253 | 10.78213 | 77° | 16km/h | 21113m | 6.2m/s | -52.1°C | 0.7% | 48.9hPa | 2.7V | 00:00:00 | 00:00:00 | 00:00:00 | |
| DL1NUX | 2026-09-01 11:56:27 | 52.88242 | 10.78185 | 47° | 16km/h | 21087m | 5.3m/s | -52.4°C | 3.4% | 49.1hPa | 2.7V | 03:55:25 | 01:27:12 | 00:00:00 | |
| DO2SHX-10 | 2026-09-01 11:56:27 | 52.88253 | 10.78213 | 78° | 18km/h | 21113m | 6.2m/s | -52.1°C | 3.3% | 48.9hPa | 2.6V | 00:00:00 | 01:27:17 | 00:00:00 | |
| DB0DAN | 2026-09-01 11:56:25 | 52.88249 | 10.78200 | 60° | 16km/h | 21103m | 5.4m/s | -52.2°C | 0.6% | 49.01hPa | 2.6V | 00:00:00 | 00:00:00 | 00:00:00 | |
| AA1-15 | 2026-09-01 11:56:23 | 52.88245 | 10.78190 | 48° | 15km/h | 21092m | 4.5m/s | -52.4°C | 0% | 49.1hPa | 2.7V | 03:55:55 | 01:27:13 | 00:00:00 | |
| DL1XH-west | 2026-09-01 11:56:18 | 52.88232 | 10.78147 | 83° | 22km/h | 21058m | 5.5m/s | -52.6°C | 0% | 49.4hPa | 2.7V | 03:55:55 | 01:27:07 | 00:00:00 | |
| DF8AY | 2026-09-01 11:56:14 | 52.88211 | 10.78034 | 64° | 31km/h | 21001m | 4.3m/s | -52.5°C | 0% | 49.8hPa | 2.6V | 03:55:55 | 01:26:57 | 00:00:00 | |
| BIOWL1-15 | 2026-09-01 11:56:14 | 52.88196 | 10.77991 | 60° | 33km/h | 20979m | 6.1m/s | -52.4°C | 0% | 49.9hPa | 2.7V | 03:55:55 | 01:26:53 | 00:00:00 | |
| AA1-15 | 2026-09-01 11:56:13 | 52.88225 | 10.78090 | 71° | 31km/h | 21030m | 6m/s | -52.6°C | 0% | 49.5hPa | 2.7V | 03:55:55 | 01:27:02 | 00:00:00 | |
| DL1XH1-15 | 2026-09-01 11:56:13 | 52.88217 | 10.78057 | 65° | 29km/h | 21013m | 6.7m/s | -52.5°C | 3.5% | 49.7hPa | 2.7V | 03:55:38 | 01:26:59 | 00:00:00 | |
| DF8AY | 2026-09-01 11:56:10 | 52.88200 | 10.78002 | 59° | 29km/h | 20985m | 5m/s | -52.5°C | 0% | 49.9hPa | 2.7V | 03:55:55 | 01:26:54 | 00:00:00 | |
| DM0DOS-11 | 2026-09-01 11:56:10 | 52.88214 | 10.78046 | 66° | 31km/h | 21007m | 5.9m/s | -52.5°C | 3.5% | 49.7hPa | 2.6V | 03:55:39 | 01:26:58 | 00:00:00 | |
| DL1XH-west | 2026-09-01 11:56:10 | 52.88214 | 10.78046 | 66° | 31km/h | 21007m | 5.9m/s | -52.5°C | 0% | 49.7hPa | 2.6V | 03:55:55 | 01:26:58 | 00:00:00 | |
| BIOWL1-15 | 2026-09-01 11:56:06 | 52.88187 | 10.77966 | 57° | 35km/h | 20970m | 4.2m/s | -52.3°C | 0% | 50hPa | 2.6V | 03:55:55 | 01:26:51 | 00:00:00 | |
| AA1-15 | 2026-09-01 11:56:02 | 52.88192 | 10.77979 | 59° | 35km/h | 20974m | 4.6m/s | -52.3°C | 0% | 50hPa | 2.7V | 03:55:55 | 01:26:52 | 00:00:00 | |
| GOEST3-10 | 2026-09-01 11:56:02 | 52.88192 | 10.77979 | 59° | 31km/h | 20974m | 4.5m/s | -52.2°C | 3.4% | 50.0hPa | 2.7V | 00:00:00 | 01:26:52 | 00:00:00 | |
| AM1SDL-15 | 2026-09-01 11:56:01 | 52.88187 | 10.77966 | 57° | 31km/h | 20970m | 4.1m/s | -52.3°C | 3.3% | 50.0hPa | 2.6V | 03:55:00 | 01:26:51 | 00:00:00 | |
| DL1XH1-15 | 2026-09-01 11:56:00 | 52.88177 | 10.77945 | 50° | 29km/h | 20959m | 5.7m/s | -52.4°C | 3.4% | 50.1hPa | 2.6V | 03:55:48 | 01:26:49 | 00:00:00 | |
| DO2SHX-10 | 2026-09-01 11:56:00 | 52.88182 | 10.77955 | 55° | 29km/h | 20965m | 5.2m/s | -52.4°C | 3.3% | 50.0hPa | 2.7V | 00:00:00 | 01:26:50 | 00:00:00 | |
| DM0DOS-11 | 2026-09-01 11:55:59 | 52.88173 | 10.77935 | 49° | 27km/h | 20953m | 5.5m/s | -52.3°C | 3.4% | 50.2hPa | 2.7V | 03:55:49 | 01:26:48 | 00:00:00 | |
| DL1XH-west | 2026-09-01 11:55:58 | 52.88164 | 10.77917 | 54° | 29km/h | 20943m | 6.3m/s | -52.4°C | 0% | 50.2hPa | 2.7V | 03:55:55 | 01:26:46 | 00:00:00 | |
| SMARD9-15 | 2026-09-01 11:55:57 | 52.88160 | 10.77907 | 55° | 29km/h | 20937m | 5.1m/s | -52.4°C | 0.7% | 50.3hPa | 2.7V | 00:00:00 | 00:00:00 | 00:00:00 | |
| DB0DAN | 2026-09-01 11:55:55 | 52.88160 | 10.77907 | 56° | 29km/h | 20937m | 5.1m/s | -52.4°C | 0.7% | 50.28hPa | 2.7V | 00:00:00 | 00:00:00 | 00:00:00 | |
| DF8AY | 2026-09-01 11:55:54 | 52.88155 | 10.77897 | 55° | 31km/h | 20932m | 4m/s | -52.2°C | 0% | 50.3hPa | 2.6V | 03:55:55 | 01:26:44 | 00:00:00 | |
| DL1NUX | 2026-09-01 11:55:54 | 52.88146 | 10.77877 | 48° | 27km/h | 20922m | 5.5m/s | -52.2°C | 3.5% | 50.4hPa | 2.6V | 03:55:55 | 01:26:42 | 00:00:00 | |
| BIOWL1-15 | 2026-09-01 11:55:53 | 52.88125 | 10.77839 | 48° | 33km/h | 20901m | 4.1m/s | -52.1°C | 0% | 50.6hPa | 2.7V | 03:56:46 | 01:26:38 | 00:00:00 | |
| AA1-15 | 2026-09-01 11:55:51 | 52.88141 | 10.77869 | 46° | 29km/h | 20916m | 4.7m/s | -52.2°C | 0% | 50.4hPa | 2.7V | 03:56:46 | 01:26:41 | 00:00:00 | |
| DO2SHX-10 | 2026-09-01 11:55:51 | 52.88141 | 10.77869 | 47° | 31km/h | 20917m | 4.6m/s | -52.1°C | 3.4% | 50.4hPa | 2.7V | 00:00:00 | 01:26:41 | 00:00:00 | |
| DM0DOS-11 | 2026-09-01 11:55:49 | 52.88125 | 10.77839 | 47° | 33km/h | 20900m | 4.1m/s | -52.1°C | 3.4% | 50.6hPa | 2.7V | 03:55:59 | 01:26:38 | 00:00:00 | |
| DL3AQ-11 | 2026-09-01 11:55:48 | 52.88119 | 10.77830 | 45° | 29km/h | 20896m | 6.0m/s | -52.1°C | 0.7% | 50.6hPa | 2.7V | 00:00:00 | 00:00:00 | 00:00:00 | |
| DL1XH-15 | 2026-09-01 11:55:47 | 52.88098 | 10.77786 | 58° | 27km/h | 20868m | 5m/s | -52.1°C | 3.4% | 50.8hPa | 2.7V | 03:56:05 | 01:26:32 | 00:00:00 | |
| DL1XH-west | 2026-09-01 11:55:46 | 52.88114 | 10.77821 | 46° | 27km/h | 20890m | 5.2m/s | -52.1°C | 0% | 50.7hPa | 2.6V | 03:56:46 | 01:26:36 | 00:00:00 | |
| DF8AY | 2026-09-01 11:55:44 | 52.88106 | 10.77805 | 53° | 26km/h | 20879m | 6.1m/s | -52.1°C | 0% | 50.7hPa | 2.7V | 03:56:46 | 01:26:34 | 00:00:00 | |
| BIOWL1-15 | 2026-09-01 11:55:40 | 52.88091 | 10.77769 | 53° | 22km/h | 20857m | 5.4m/s | -52°C | 0% | 50.9hPa | 2.6V | 03:56:46 | 01:26:30 | 00:00:00 | |
| DM0DOS-11 | 2026-09-01 11:55:39 | 52.88084 | 10.77755 | 47° | 24km/h | 20848m | 4.6m/s | -52.1°C | 3.5% | 51hPa | 2.6V | 03:56:09 | 01:26:28 | 00:00:00 | |
| DL1XH-west | 2026-09-01 11:55:36 | 52.88070 | 10.77729 | 48° | 31km/h | 20832m | 4.1m/s | -52.2°C | 0% | 51.1hPa | 2.7V | 03:56:46 | 01:26:25 | 00:00:00 | |
| DF8AY | 2026-09-01 11:55:33 | 52.88060 | 10.77713 | 35° | 27km/h | 20822m | 5.7m/s | -52.2°C | 0% | 51.2hPa | 2.6V | 03:56:46 | 01:26:23 | 00:00:00 | |
| DL1NUX | 2026-09-01 11:55:33 | 52.88054 | 10.77707 | 27° | 26km/h | 20817m | 5.4m/s | -52.2°C | 3.5% | 0hPa | 2.6V | 03:56:15 | 01:26:22 | 00:00:00 | |
| BIOWL1-15 | 2026-09-01 11:55:31 | 52.88029 | 10.77678 | 49° | 26km/h | 20792m | 4.6m/s | -52°C | 0% | 51.4hPa | 2.6V | 03:56:46 | 01:26:17 | 00:00:00 | |
| AA1-15 | 2026-09-01 11:55:29 | 52.88038 | 10.77693 | 37° | 24km/h | 20802m | 6m/s | -52.2°C | 0% | 51.3hPa | 2.7V | 03:56:46 | 01:26:19 | 00:00:00 | |
| DM0DOS-11 | 2026-09-01 11:55:29 | 52.88033 | 10.77686 | 45° | 24km/h | 20796m | 4.8m/s | -52.1°C | 3.4% | 51.4hPa | 2.7V | 03:56:19 | 01:26:18 | 00:00:00 | |
| DF8AY-15 | 2026-09-01 11:55:28 | 52.88033 | 10.77686 | 46° | 18km/h | 20797m | 4.8m/s | -52.1°C | 3.4% | 51.3hPa | 2.6V | 00:00:00 | 01:26:18 | 00:00:00 | |
| DL4XJ-10 | 2026-09-01 11:55:27 | 52.88029 | 10.77678 | 49° | 18km/h | 20792m | 4.5m/s | -51.0°C | 0% | 0hPa | 2.6V | 00:00:00 | 00:00:00 | 00:00:00 | |
| DL1XH-15 | 2026-09-01 11:55:26 | 52.88008 | 10.77646 | 48° | 20km/h | 20766m | 6.1m/s | -51.7°C | 3.3% | 51.6hPa | 2.6V | 03:56:25 | 01:26:12 | 00:00:00 | |
| DL1XH-west | 2026-09-01 11:55:24 | 52.88016 | 10.77657 | 38° | 24km/h | 20776m | 4.5m/s | -51.9°C | 0% | 51.5hPa | 2.7V | 03:56:46 | 01:26:14 | 00:00:00 | |
| DF8AY | 2026-09-01 11:55:23 | 52.88012 | 10.77652 | 41° | 22km/h | 20771m | 5m/s | -51.7°C | 0% | 51.6hPa | 2.7V | 03:56:46 | 01:26:13 | 00:00:00 | |
| DD8BA-10 | 2026-09-01 11:55:23 | 52.88012 | 10.77651 | 42° | 18km/h | 20772m | 4.9m/s | -51.7°C | 3.3% | 51.5hPa | 2.7V | 03:56:00 | 00:00:00 | 00:00:00 | |
| MECKS9 | 2026-09-01 11:55:22 | 52.88008 | 10.77645 | 49° | 20km/h | 20766m | 6.1m/s | -51.7°C | 0.6% | 51.6hPa | 2.7V | 00:00:00 | 00:00:00 | 00:00:00 | |
| DO2SHX-10 | 2026-09-01 11:55:21 | 52.88005 | 10.77639 | 54° | 16km/h | 20760m | 5.1m/s | -51.6°C | 3.4% | 51.6hPa | 2.7V | 00:00:00 | 01:26:11 | 00:00:00 | |
| DL1XH1-15 | 2026-09-01 11:55:20 | 52.87999 | 10.77629 | 40° | 16km/h | 20749m | 5.8m/s | -51.6°C | 3.3% | 51.8hPa | 2.7V | 03:56:28 | 01:26:09 | 00:00:00 | |
| BIOWL1-15 | 2026-09-01 11:55:19 | 52.87999 | 10.77629 | 40° | 16km/h | 20750m | 5.8m/s | -51.6°C | 0% | 51.8hPa | 2.7V | 03:56:46 | 01:26:09 | 00:00:00 | |
| AA1-15 | 2026-09-01 11:55:18 | 52.87996 | 10.77625 | 29° | 16km/h | 20744m | 5.9m/s | -51.6°C | 0% | 51.8hPa | 2.7V | 03:56:46 | 01:26:08 | 00:00:00 | |
| DO2SHX-10 | 2026-09-01 11:55:18 | 52.87996 | 10.77625 | 30° | 16km/h | 20744m | 5.8m/s | -51.5°C | 3.3% | 51.8hPa | 2.7V | 03:56:00 | 01:26:08 | 00:00:00 | |
| DL4BBY-15 | 2026-09-01 11:55:17 | 52.87988 | 10.77619 | 29° | 18km/h | 20733m | 5.0m/s | -50.7°C | 0% | 0hPa | 2.6V | 00:00:00 | 00:00:00 | 00:00:00 | |
| EDDB2-12 | 2026-09-01 11:55:16 | 52.87985 | 10.77615 | 41° | 15km/h | 20728m | 5.3m/s | -51.6°C | 0.7% | 52.0hPa | 2.6V | 00:00:00 | 00:00:00 | 00:00:00 | |
| DO2SHX-10 | 2026-09-01 11:55:15 | 52.87985 | 10.77615 | 42° | 16km/h | 20728m | 5.3m/s | -51.6°C | 3.3% | 51.9hPa | 2.6V | 00:00:00 | 01:26:05 | 00:00:00 | |
| SONDE2-11 | 2026-09-01 11:55:14 | 52.87982 | 10.77610 | 54° | 15km/h | 20722m | 5.4m/s | -51.6°C | 0.6% | 52.0hPa | 2.6V | 00:00:00 | 00:00:00 | 00:00:00 | |
| DL1XH1-15 | 2026-09-01 11:55:13 | 52.87972 | 10.77580 | 69° | 20km/h | 20697m | 6m/s | -51.4°C | 3.3% | 52.2hPa | 2.6V | 03:56:38 | 01:25:59 | 00:00:00 | |
| DL1XH-west | 2026-09-01 11:55:13 | 52.87980 | 10.77605 | 60° | 16km/h | 20717m | 5m/s | -51.6°C | 0% | 52hPa | 2.7V | 03:56:46 | 01:26:03 | 00:00:00 | |
| BIOWL1-15 | 2026-09-01 11:55:11 | 52.87962 | 10.77545 | 40° | 15km/h | 20670m | 4.2m/s | -51.4°C | 0% | 52.4hPa | 2.7V | 03:56:46 | 01:25:54 | 00:00:00 | |
| DB0DAN | 2026-09-01 11:55:10 | 52.87974 | 10.77587 | 62° | 16km/h | 20702m | 4.4m/s | -51.4°C | 0.6% | 52.12hPa | 2.6V | 00:00:00 | 00:00:00 | 00:00:00 | |
| DM0DOS-11 | 2026-09-01 11:55:09 | 52.87970 | 10.77572 | 73° | 22km/h | 20691m | 5m/s | -51.5°C | 3.3% | 52.2hPa | 2.6V | 03:56:39 | 01:25:58 | 00:00:00 | |
| AA1-15 | 2026-09-01 11:55:08 | 52.87970 | 10.77572 | 73° | 22km/h | 20691m | 5m/s | -51.5°C | 0% | 52.2hPa | 2.6V | 03:56:46 | 01:25:58 | 00:00:00 | |
| DL1XH-west | 2026-09-01 11:55:02 | 52.87957 | 10.77538 | 50° | 11km/h | 20661m | 5.5m/s | -51.3°C | 0% | 52.5hPa | 2.6V | 03:56:46 | 01:25:52 | 00:00:00 | |
| GOEST3-10 | 2026-09-01 11:55:01 | 52.87955 | 10.77534 | 63° | 13km/h | 20656m | 5.0m/s | -51.2°C | 3.2% | 52.5hPa | 2.6V | 00:00:00 | 01:25:51 | 00:00:00 | |
| DM0DOS-11 | 2026-09-01 11:55:00 | 52.87951 | 10.77519 | 57° | 13km/h | 20640m | 5.9m/s | -51.4°C | 3.2% | 52.6hPa | 2.7V | 03:56:49 | 01:25:48 | 00:00:00 | |
| DL1XH1-15 | 2026-09-01 11:55:00 | 52.87953 | 10.77524 | 65° | 15km/h | 20646m | 5.1m/s | -51.4°C | 3.2% | 52.6hPa | 2.7V | 03:56:48 | 01:25:49 | 00:00:00 | |
| AA1-15 | 2026-09-01 11:54:57 | 52.87949 | 10.77514 | 48° | 13km/h | 20635m | 5m/s | -51.3°C | 0% | 52.7hPa | 2.7V | 03:57:37 | 01:25:47 | 00:00:00 | |
| BIOWL1-15 | 2026-09-01 11:54:56 | 52.87947 | 10.77510 | 48° | 15km/h | 20630m | 3.9m/s | -51.2°C | 0% | 52.7hPa | 2.6V | 03:57:37 | 01:25:46 | 00:00:00 | |
| DB0DAN | 2026-09-01 11:54:55 | 52.87944 | 10.77505 | 53° | 16km/h | 20626m | 4.6m/s | -51.2°C | 0.6% | 52.75hPa | 2.6V | 00:00:00 | 00:00:00 | 00:00:00 | |
| SMARD9-15 | 2026-09-01 11:54:54 | 52.87939 | 10.77491 | 58° | 24km/h | 20616m | 4.7m/s | -51.2°C | 0.6% | 52.8hPa | 2.6V | 00:00:00 | 00:00:00 | 00:00:00 | |
| DL1XH1-15 | 2026-09-01 11:54:53 | 52.87921 | 10.77461 | 36° | 26km/h | 20595m | 4.5m/s | -51°C | 3.2% | 53hPa | 2.6V | 03:56:58 | 01:25:39 | 00:00:00 | |
| DL1XH-west | 2026-09-01 11:54:51 | 52.87931 | 10.77474 | 44° | 26km/h | 20605m | 6.2m/s | -51°C | 0% | 52.9hPa | 2.7V | 03:57:37 | 01:25:41 | 00:00:00 | |
| SMARD9-10 | 2026-09-01 11:54:51 | 52.87931 | 10.77474 | 44° | 26km/h | 20605m | 6.2m/s | -51.0°C | 0.6% | 52.9hPa | 2.6V | 03:57:00 | 00:00:00 | 00:00:00 | |
| MECKS9 | 2026-09-01 11:54:50 | 52.87926 | 10.77467 | 39° | 26km/h | 20600m | 5.1m/s | -51.0°C | 0.6% | 53.0hPa | 2.6V | 03:57:00 | 00:00:00 | 00:00:00 | |
| DM0DOS-11 | 2026-09-01 11:54:49 | 52.87916 | 10.77454 | 40° | 24km/h | 20589m | 5.8m/s | -51°C | 3.2% | 53.1hPa | 2.6V | 03:56:59 | 01:25:38 | 00:00:00 | |
| AA1-15 | 2026-09-01 11:54:46 | 52.87907 | 10.77443 | 36° | 20km/h | 20579m | 5.4m/s | -51.1°C | 0% | 53.1hPa | 2.7V | 03:57:37 | 01:25:36 | 00:00:00 | |
| BIOWL1-15 | 2026-09-01 11:54:45 | 52.87893 | 10.77420 | 64° | 16km/h | 20552m | 4.4m/s | -51.6°C | 0% | 53.4hPa | 2.6V | 03:57:37 | 01:25:31 | 00:00:00 | |
| EDDB2-12 | 2026-09-01 11:54:44 | 52.87900 | 10.77435 | 34° | 15km/h | 20569m | 4.0m/s | -51.2°C | 0.6% | 53.2hPa | 2.7V | 00:00:00 | 00:00:00 | 00:00:00 | |
| DF8AY | 2026-09-01 11:54:40 | 52.87858 | 10.77337 | 55° | 27km/h | 20501m | 5.2m/s | -51.5°C | 0% | 53.8hPa | 2.7V | 03:57:37 | 01:25:21 | 00:00:00 | |
| DL1XH1-15 | 2026-09-01 11:54:40 | 52.87888 | 10.77408 | 53° | 20km/h | 20542m | 4.3m/s | -51.5°C | 3.2% | 53.5hPa | 2.7V | 03:57:08 | 01:25:29 | 00:00:00 | |
| DL1XH-west | 2026-09-01 11:54:40 | 52.87891 | 10.77414 | 58° | 18km/h | 20547m | 5.9m/s | -51.6°C | 0% | 53.4hPa | 2.6V | 03:57:37 | 01:25:30 | 00:00:00 | |
| AA1-15 | 2026-09-01 11:54:36 | 52.87878 | 10.77382 | 61° | 27km/h | 20526m | 5.2m/s | -51.6°C | 0% | 53.6hPa | 2.7V | 03:57:37 | 01:25:26 | 00:00:00 | |
| DO2SHX-10 | 2026-09-01 11:54:36 | 52.87878 | 10.77382 | 61° | 27km/h | 20526m | 5.1m/s | -51.5°C | 3.3% | 53.5hPa | 2.7V | 00:00:00 | 01:25:26 | 00:00:00 | |
| GOEST3-10 | 2026-09-01 11:54:35 | 52.87875 | 10.77373 | 59° | 27km/h | 20521m | 4.5m/s | -51.5°C | 3.3% | 53.6hPa | 2.7V | 00:00:00 | 00:00:00 | 00:00:00 | |
| DL1NUX | 2026-09-01 11:54:33 | 52.87862 | 10.77346 | 50° | 27km/h | 20506m | 4.2m/s | 0°C | 0% | 0hPa | 2.7V | 00:00:00 | 01:25:22 | 00:00:00 | |
| DL1XH1-15 | 2026-09-01 11:54:33 | 52.87851 | 10.77316 | 66° | 27km/h | 20491m | 4.3m/s | -51.5°C | 3.3% | 53.9hPa | 2.7V | 03:57:18 | 01:25:19 | 00:00:00 | |
| DL1XH-west | 2026-09-01 11:54:30 | 52.87855 | 10.77327 | 61° | 29km/h | 20496m | 5.1m/s | -51.5°C | 0% | 53.8hPa | 2.7V | 03:57:37 | 01:25:20 | 00:00:00 | |
| DO2SHX-10 | 2026-09-01 11:54:30 | 52.87855 | 10.77327 | 61° | 27km/h | 20497m | 5.1m/s | -51.5°C | 3.4% | 53.8hPa | 2.7V | 03:57:00 | 01:25:20 | 00:00:00 | |
| AP2371 | 2026-09-01 11:54:29 | 52.87854 | 10.77327 | 62° | 29km/h | 20497m | 5.1m/s | -51.5°C | 0.7% | 53.8hPa | 2.7V | 00:00:00 | 00:00:00 | 00:00:00 | |
| DL3AQ-11 | 2026-09-01 11:54:28 | 52.87846 | 10.77297 | 67° | 22km/h | 20482m | 6.0m/s | -51.6°C | 0.6% | 54.0hPa | 2.7V | 00:00:00 | 00:00:00 | 00:00:00 | |
| DL1NUX | 2026-09-01 11:54:27 | 52.87830 | 10.77257 | 46° | 27km/h | 20455m | 3.8m/s | 0°C | 0% | 0hPa | 2.7V | 00:00:00 | 01:25:12 | 00:00:00 | |
| AA1-15 | 2026-09-01 11:54:26 | 52.87844 | 10.77289 | 64° | 20km/h | 20476m | 5m/s | -51.7°C | 0% | 54hPa | 2.6V | 03:57:37 | 01:25:16 | 00:00:00 | |
| DB0DAN | 2026-09-01 11:54:25 | 52.87842 | 10.77281 | 58° | 20km/h | 20471m | 5.4m/s | -51.7°C | 0.6% | 54.06hPa | 2.7V | 00:00:00 | 00:00:00 | 00:00:00 | |
| DF8AY | 2026-09-01 11:54:25 | 52.87830 | 10.77257 | 46° | 27km/h | 20455m | 3.8m/s | -51.5°C | 0% | 54.2hPa | 2.7V | 03:57:37 | 01:25:12 | 00:00:00 | |
| BIOWL1-15 | 2026-09-01 11:54:21 | 52.87810 | 10.77226 | 43° | 29km/h | 20435m | 5.7m/s | -51.2°C | 0% | 54.3hPa | 2.7V | 03:57:37 | 01:25:08 | 00:00:00 | |
| DL1XH1-15 | 2026-09-01 11:54:21 | 52.87815 | 10.77234 | 40° | 27km/h | 20440m | 4m/s | -51.3°C | 3.4% | 54.3hPa | 2.6V | 03:57:28 | 01:25:09 | 00:00:00 | |
| DL1XH-west | 2026-09-01 11:54:20 | 52.87820 | 10.77242 | 39° | 27km/h | 20445m | 4.6m/s | -51.4°C | 0% | 54.3hPa | 2.6V | 03:57:37 | 01:25:10 | 00:00:00 | |
| DF7ER-10 | 2026-09-01 11:54:18 | 52.87810 | 10.77226 | 44° | 29km/h | 20436m | 5.7m/s | -51.2°C | 0.7% | 54.3hPa | 2.6V | 03:57:00 | 00:00:00 | 00:00:00 | |
| DL1XH-15 | 2026-09-01 11:54:17 | 52.87787 | 10.77186 | 59° | 18km/h | 20405m | 6.1m/s | -51.3°C | 3.2% | 54.6hPa | 2.6V | 03:57:35 | 01:25:02 | 00:00:00 | |
| AA1-15 | 2026-09-01 11:54:15 | 52.87796 | 10.77203 | 45° | 22km/h | 20420m | 5.9m/s | -51.2°C | 0% | 54.5hPa | 2.7V | 03:57:37 | 01:25:05 | 00:00:00 | |
| DO2SHX-10 | 2026-09-01 11:54:15 | 52.87796 | 10.77203 | 45° | 18km/h | 20420m | 5.8m/s | -51.1°C | 3.2% | 54.4hPa | 2.7V | 00:00:00 | 01:25:05 | 00:00:00 | |
| DL1LOL-11 | 2026-09-01 11:54:14 | 52.87792 | 10.77197 | 47° | 18km/h | 20415m | 4.6m/s | -51.2°C | 0.7% | 54.6hPa | 2.7V | 03:57:00 | 00:00:00 | 00:00:00 | |
| DL1XH1-15 | 2026-09-01 11:54:13 | 52.87782 | 10.77167 | 63° | 15km/h | 20389m | 6.2m/s | -51.1°C | 3.2% | 54.7hPa | 2.7V | 03:57:38 | 01:24:59 | 00:00:00 | |
| DF8AY | 2026-09-01 11:54:13 | 52.87787 | 10.77186 | 60° | 18km/h | 20405m | 6.1m/s | -51.3°C | 0% | 54.6hPa | 2.6V | 03:57:37 | 01:25:02 | 00:00:00 | |
| DL1XH-west | 2026-09-01 11:54:09 | 52.87781 | 10.77167 | 64° | 15km/h | 20389m | 6.2m/s | -51.2°C | 0% | 54.7hPa | 2.7V | 03:58:28 | 01:24:59 | 00:00:00 | |
| AA1-15 | 2026-09-01 11:54:04 | 52.87771 | 10.77137 | 65° | 20km/h | 20364m | 4.4m/s | -50.9°C | 0% | 55hPa | 2.7V | 03:58:28 | 01:24:54 | 00:00:00 | |
| DF8AY | 2026-09-01 11:54:02 | 52.87767 | 10.77124 | 59° | 15km/h | 20353m | 5.6m/s | -50.9°C | 0% | 55hPa | 2.7V | 03:58:28 | 01:24:52 | 00:00:00 | |
| DM0DOS-11 | 2026-09-01 11:54:01 | 52.87757 | 10.77106 | 43° | 18km/h | 20334m | 4.9m/s | -51°C | 3.1% | 55.2hPa | 2.6V | 03:57:49 | 01:24:48 | 00:00:00 | |
| BIOWL1-15 | 2026-09-01 11:54:00 | 52.87760 | 10.77111 | 44° | 16km/h | 20339m | 5.7m/s | -51.1°C | 0% | 55.1hPa | 2.6V | 03:58:28 | 01:24:49 | 00:00:00 | |
| DL1XH-west | 2026-09-01 11:53:58 | 52.87757 | 10.77106 | 44° | 18km/h | 20334m | 4.9m/s | -51°C | 0% | 55.2hPa | 2.6V | 03:58:28 | 01:24:48 | 00:00:00 | |
| AA1-15 | 2026-09-01 11:53:54 | 52.87747 | 10.77090 | 52° | 5km/h | 20314m | 4.7m/s | -51°C | 0% | 55.4hPa | 2.7V | 03:58:28 | 01:24:44 | 00:00:00 | |
| DO2SHX-10 | 2026-09-01 11:53:54 | 52.87747 | 10.77090 | 53° | 7km/h | 20314m | 4.6m/s | -50.9°C | 3.1% | 55.3hPa | 2.7V | 03:57:00 | 01:24:44 | 00:00:00 | |
| DL1XH1-15 | 2026-09-01 11:53:53 | 52.87748 | 10.77068 | 104° | 16km/h | 20289m | 6.5m/s | -50.9°C | 3.1% | 55.6hPa | 2.7V | 03:57:58 | 01:24:39 | 00:00:00 | |
| DF8AY | 2026-09-01 11:53:52 | 52.87746 | 10.77085 | 93° | 9km/h | 20305m | 5.3m/s | -51°C | 0% | 55.5hPa | 2.6V | 03:58:28 | 01:24:42 | 00:00:00 | |
| BIOWL1-15 | 2026-09-01 11:53:51 | 52.87751 | 10.77048 | 97° | 20km/h | 20272m | 6.1m/s | -50.9°C | 0% | 55.7hPa | 2.6V | 03:58:28 | 01:24:36 | 00:00:00 | |
| DJ2DS-15 | 2026-09-01 11:53:49 | 52.87748 | 10.77068 | 104° | 15km/h | 20289m | 6.5m/s | -50.9°C | 0.6% | 55.6hPa | 2.7V | 00:00:00 | 00:00:00 | 00:00:00 | |
| DL3AQ-11 | 2026-09-01 11:53:48 | 52.87750 | 10.77055 | 99° | 16km/h | 20278m | 4.6m/s | -50.9°C | 0.6% | 55.7hPa | 2.7V | 00:00:00 | 00:00:00 | 00:00:00 | |
| DL1XH-15 | 2026-09-01 11:53:47 | 52.87751 | 10.77018 | 97° | 15km/h | 20251m | 4.4m/s | -51°C | 3.2% | 55.9hPa | 2.7V | 03:58:05 | 01:24:32 | 00:00:00 | |
| DL1XH-west | 2026-09-01 11:53:47 | 52.87750 | 10.77055 | 100° | 16km/h | 20278m | 4.6m/s | -50.9°C | 0% | 55.7hPa | 2.7V | 03:58:28 | 01:24:37 | 00:00:00 | |
| AA1-15 | 2026-09-01 11:53:44 | 52.87751 | 10.77024 | 95° | 16km/h | 20257m | 5.9m/s | -51°C | 0% | 55.9hPa | 2.7V | 03:58:28 | 01:24:33 | 00:00:00 | |
| DF8AY | 2026-09-01 11:53:41 | 52.87752 | 10.77012 | 96° | 15km/h | 20247m | 5.2m/s | -51°C | 0% | 56hPa | 2.7V | 03:58:28 | 01:24:31 | 00:00:00 | |
| DB0DAN | 2026-09-01 11:53:40 | 52.87752 | 10.77005 | 92° | 16km/h | 20241m | 5.9m/s | -51.1°C | 0.6% | 56.02hPa | 2.7V | 00:00:00 | 00:00:00 | 00:00:00 | |
| DL1XH1-15 | 2026-09-01 11:53:40 | 52.87753 | 10.76998 | 92° | 16km/h | 20236m | 4.6m/s | -51.1°C | 3.2% | 56hPa | 2.6V | 03:58:08 | 01:24:29 | 00:00:00 | |
| DM0DOS-11 | 2026-09-01 11:53:40 | 52.87753 | 10.76992 | 97° | 15km/h | 20230m | 5.9m/s | -51.1°C | 3.2% | 56.1hPa | 2.6V | 03:58:09 | 01:24:28 | 00:00:00 | |
| DO2SHX-10 | 2026-09-01 11:53:39 | 52.87752 | 10.76998 | 93° | 16km/h | 20236m | 4.6m/s | -51.1°C | 3.2% | 56.0hPa | 2.6V | 00:00:00 | 01:24:29 | 00:00:00 | |
| EDDB2-11 | 2026-09-01 11:53:38 | 52.87753 | 10.76992 | 97° | 15km/h | 20230m | 5.9m/s | -51.1°C | 0.7% | 56.1hPa | 2.6V | 00:00:00 | 00:00:00 | 00:00:00 | |
| DL1XH-15 | 2026-09-01 11:53:37 | 52.87754 | 10.76943 | 86° | 22km/h | 20200m | 5.7m/s | -51.3°C | 3.2% | 56.4hPa | 2.6V | 03:58:15 | 01:24:22 | 00:00:00 | |
| DL1XH-west | 2026-09-01 11:53:36 | 52.87754 | 10.76979 | 96° | 16km/h | 20220m | 3.8m/s | -51.2°C | 0% | 56.2hPa | 2.7V | 03:58:28 | 01:24:26 | 00:00:00 | |
| BIOWL1-15 | 2026-09-01 11:53:35 | 52.87754 | 10.76971 | 94° | 20km/h | 20216m | 6m/s | -51.2°C | 0% | 56.2hPa | 2.7V | 03:58:28 | 01:24:25 | 00:00:00 | |
| DM0DOS-11 | 2026-09-01 11:53:34 | 52.87752 | 10.76909 | 82° | 24km/h | 20181m | 5.7m/s | -51.3°C | 3.2% | 56.5hPa | 2.7V | 03:58:19 | 01:24:18 | 00:00:00 | |
| DL1XH1-15 | 2026-09-01 11:53:34 | 52.87753 | 10.76918 | 83° | 20km/h | 20186m | 4.7m/s | -51.3°C | 3.2% | 56.5hPa | 2.7V | 03:58:18 | 01:24:19 | 00:00:00 | |
| AA1-15 | 2026-09-01 11:53:32 | 52.87754 | 10.76943 | 87° | 22km/h | 20200m | 5.7m/s | -51.3°C | 0% | 56.4hPa | 2.6V | 03:58:28 | 01:24:22 | 00:00:00 | |
| DF8AY | 2026-09-01 11:53:30 | 52.87753 | 10.76926 | 84° | 20km/h | 20190m | 4.1m/s | -51.3°C | 0% | 56.5hPa | 2.6V | 03:58:28 | 01:24:20 | 00:00:00 | |
| DO2SHX-10 | 2026-09-01 11:53:30 | 52.87753 | 10.76926 | 85° | 22km/h | 20190m | 4.0m/s | -51.2°C | 3.2% | 56.4hPa | 2.6V | 03:58:00 | 01:24:20 | 00:00:00 | |
| AP2371 | 2026-09-01 11:53:28 | 52.87752 | 10.76909 | 84° | 24km/h | 20181m | 5.7m/s | -51.3°C | 0.6% | 56.5hPa | 2.6V | 00:00:00 | 00:00:00 | 00:00:00 | |
| DO2SHX-10 | 2026-09-01 11:53:27 | 52.87751 | 10.76899 | 82° | 24km/h | 20175m | 5.5m/s | -51.2°C | 3.2% | 56.5hPa | 2.6V | 00:00:00 | 01:24:17 | 00:00:00 | |
| DB0DAN | 2026-09-01 11:53:25 | 52.87749 | 10.76879 | 77° | 22km/h | 20165m | 6m/s | -51.3°C | 0.7% | 56.66hPa | 2.6V | 00:00:00 | 00:00:00 | 00:00:00 | |
| DL1XH-west | 2026-09-01 11:53:25 | 52.87749 | 10.76879 | 77° | 22km/h | 20165m | 6m/s | -51.3°C | 0% | 56.7hPa | 2.6V | 03:58:28 | 01:24:15 | 00:00:00 | |
| DL1CLM-18 | 2026-09-01 11:53:25 | 52.87749 | 10.76879 | 78° | 22km/h | 20165m | 6.0m/s | -51.3°C | 0.7% | 56.7hPa | 2.6V | 00:00:00 | 00:00:00 | 00:00:00 | |
| DF7ER-10 | 2026-09-01 11:53:24 | 52.87747 | 10.76870 | 78° | 22km/h | 20160m | 4.5m/s | -51.3°C | 0.7% | 56.7hPa | 2.6V | 03:58:00 | 00:00:00 | 00:00:00 | |
| DM0DOS-11 | 2026-09-01 11:53:23 | 52.87741 | 10.76807 | 71° | 26km/h | 20128m | 4.7m/s | -51.2°C | 3.1% | 57hPa | 2.6V | 03:58:29 | 01:24:08 | 00:00:00 | |
| AA1-15 | 2026-09-01 11:53:22 | 52.87745 | 10.76840 | 84° | 27km/h | 20144m | 4.7m/s | -51.3°C | 0% | 56.9hPa | 2.7V | 03:58:28 | 01:24:11 | 00:00:00 | |
| DO2SHX-10 | 2026-09-01 11:53:21 | 52.87745 | 10.76840 | 84° | 27km/h | 20144m | 4.7m/s | -51.2°C | 3.1% | 56.8hPa | 2.7V | 00:00:00 | 01:24:11 | 00:00:00 | |
| DL1XH1-15 | 2026-09-01 11:53:20 | 52.87743 | 10.76817 | 77° | 26km/h | 20134m | 5.6m/s | -51.2°C | 3.1% | 56.9hPa | 2.7V | 03:58:28 | 01:24:09 | 00:00:00 | |
| DF8AY | 2026-09-01 11:53:20 | 52.87744 | 10.76828 | 82° | 27km/h | 20139m | 4.8m/s | -51.2°C | 0% | 56.9hPa | 2.7V | 03:58:28 | 01:24:10 | 00:00:00 | |
| DL1XH-west | 2026-09-01 11:53:15 | 52.87733 | 10.76776 | 70° | 29km/h | 20113m | 5.6m/s | -51.2°C | 0% | 57.1hPa | 2.7V | 03:59:19 | 01:24:05 | 00:00:00 | |
| BIOWL1-15 | 2026-09-01 11:53:15 | 52.87711 | 10.76678 | 69° | 26km/h | 20068m | 5.4m/s | -52°C | 0% | 57.5hPa | 2.7V | 03:59:19 | 01:23:56 | 00:00:00 | |
| DL1XH1-15 | 2026-09-01 11:53:13 | 52.87719 | 10.76712 | 71° | 29km/h | 20083m | 4.9m/s | -51.8°C | 3.3% | 57.4hPa | 2.6V | 03:58:38 | 01:23:59 | 00:00:00 | |
| DD8BA-10 | 2026-09-01 11:53:13 | 52.87728 | 10.76753 | 69° | 27km/h | 20103m | 5.9m/s | -51.4°C | 3.2% | 57.1hPa | 2.6V | 00:00:00 | 00:00:00 | 00:00:00 | |
| DL1XH-15 | 2026-09-01 11:53:12 | 52.87723 | 10.76733 | 67° | 26km/h | 20093m | 4.1m/s | -51.7°C | 3.3% | 57.3hPa | 2.6V | 03:58:36 | 01:24:01 | 00:00:00 | |
| DM0DOS-11 | 2026-09-01 11:53:12 | 52.87716 | 10.76700 | 72° | 31km/h | 20078m | 4.2m/s | -51.9°C | 3.3% | 57.4hPa | 2.7V | 03:58:39 | 01:23:58 | 00:00:00 | |
| AA1-15 | 2026-09-01 11:53:10 | 52.87721 | 10.76723 | 70° | 27km/h | 20088m | 5.4m/s | -51.7°C | 0% | 57.3hPa | 2.6V | 03:59:19 | 01:24:00 | 00:00:00 | |
| DF8AY | 2026-09-01 11:53:10 | 52.87718 | 10.76712 | 72° | 29km/h | 20083m | 4.9m/s | -51.8°C | 0% | 57.4hPa | 2.6V | 03:59:19 | 01:23:59 | 00:00:00 | |
| DL1XH-west | 2026-09-01 11:53:05 | 52.87709 | 10.76667 | 69° | 27km/h | 20063m | 4.2m/s | -51.9°C | 0% | 57.6hPa | 2.7V | 03:59:19 | 01:23:55 | 00:00:00 | |
| DL1ZP-14 | 2026-09-01 11:53:04 | 52.87707 | 10.76657 | 71° | 27km/h | 20059m | 5.0m/s | -52.0°C | 0.7% | 57.6hPa | 2.6V | 00:00:00 | 00:00:00 | 00:00:00 | |
| DD8BA-10 | 2026-09-01 11:53:03 | 52.87704 | 10.76645 | 75° | 31km/h | 20054m | 5.7m/s | -52.0°C | 3.3% | 57.6hPa | 2.7V | 00:00:00 | 00:00:00 | 00:00:00 | |
| DM0DOS-11 | 2026-09-01 11:53:02 | 52.87691 | 10.76586 | 65° | 31km/h | 20028m | 5.7m/s | -52.1°C | 3.3% | 57.9hPa | 2.7V | 03:58:49 | 01:23:48 | 00:00:00 | |
| BIOWL1-15 | 2026-09-01 11:53:01 | 52.87700 | 10.76620 | 71° | 31km/h | 20043m | 5.3m/s | -52°C | 0% | 57.7hPa | 2.7V | 03:59:19 | 01:23:51 | 00:00:00 | |
| DL1XH1-15 | 2026-09-01 11:53:01 | 52.87694 | 10.76598 | 64° | 29km/h | 20033m | 4.5m/s | -52°C | 3.3% | 57.9hPa | 2.7V | 03:58:48 | 01:23:49 | 00:00:00 | |
| AA1-15 | 2026-09-01 11:52:59 | 52.87694 | 10.76598 | 65° | 29km/h | 20033m | 4.5m/s | -52°C | 0% | 57.9hPa | 2.7V | 03:59:19 | 01:23:49 | 00:00:00 | |
| DF8AY | 2026-09-01 11:52:59 | 52.87691 | 10.76586 | 66° | 31km/h | 20028m | 5.7m/s | -52.1°C | 0% | 57.9hPa | 2.7V | 03:59:19 | 01:23:48 | 00:00:00 | |
| DO2SHX-10 | 2026-09-01 11:52:57 | 52.87687 | 10.76574 | 67° | 31km/h | 20023m | 4.8m/s | -52.2°C | 3.3% | 57.9hPa | 2.6V | 00:00:00 | 01:23:47 | 00:00:00 | |
| DB0DAN | 2026-09-01 11:52:55 | 52.87680 | 10.76548 | 63° | 31km/h | 20013m | 4.9m/s | -52.3°C | 0.7% | 58hPa | 2.6V | 00:00:00 | 00:00:00 | 00:00:00 | |
| DL1XH-15 | 2026-09-01 11:52:55 | 52.87662 | 10.76495 | 63° | 31km/h | 19986m | 4.5m/s | -52.2°C | 3.4% | 58.3hPa | 2.6V | 03:58:57 | 01:23:40 | 00:00:00 | |
| DL1XH-west | 2026-09-01 11:52:54 | 52.87676 | 10.76537 | 59° | 29km/h | 20008m | 5.8m/s | -52.3°C | 0% | 58hPa | 2.7V | 03:59:19 | 01:23:44 | 00:00:00 | |
| DL3AQ-11 | 2026-09-01 11:52:52 | 52.87665 | 10.76506 | 62° | 29km/h | 19992m | 5.6m/s | -52.2°C | 0.7% | 58.2hPa | 2.6V | 00:00:00 | 00:00:00 | 00:00:00 | |
| DM0DOS-11 | 2026-09-01 11:52:51 | 52.87654 | 10.76472 | 60° | 31km/h | 19977m | 5.6m/s | -52.3°C | 3.4% | 58.3hPa | 2.6V | 03:58:59 | 01:23:38 | 00:00:00 | |
| BIOWL1-15 | 2026-09-01 11:52:50 | 52.87662 | 10.76495 | 64° | 31km/h | 19987m | 4.5m/s | -52.2°C | 0% | 58.3hPa | 2.6V | 03:59:19 | 01:23:40 | 00:00:00 | |
| AA1-15 | 2026-09-01 11:52:49 | 52.87658 | 10.76483 | 64° | 31km/h | 19982m | 4.2m/s | -52.2°C | 0% | 58.3hPa | 2.6V | 03:59:19 | 01:23:39 | 00:00:00 | |
| DF8AY | 2026-09-01 11:52:47 | 52.87651 | 10.76461 | 59° | 31km/h | 19972m | 4.1m/s | -52.3°C | 0% | 58.4hPa | 2.7V | 03:59:19 | 01:23:37 | 00:00:00 | |
| DL1XH-west | 2026-09-01 11:52:44 | 52.87637 | 10.76424 | 60° | 38km/h | 19958m | 4.9m/s | -52.6°C | 0% | 58.5hPa | 2.7V | 03:59:19 | 01:23:34 | 00:00:00 | |
| DO2SHX-10 | 2026-09-01 11:52:44 | 52.87637 | 10.76424 | 61° | 38km/h | 19958m | 4.8m/s | -52.5°C | 3.4% | 58.4hPa | 2.7V | 00:00:00 | 01:23:34 | 00:00:00 | |
| DL1XH-15 | 2026-09-01 11:52:43 | 52.87616 | 10.76372 | 50° | 35km/h | 19939m | 4.3m/s | -52.5°C | 3.4% | 58.7hPa | 2.7V | 03:59:07 | 01:23:30 | 00:00:00 | |
| DF7ER-10 | 2026-09-01 11:52:42 | 52.87627 | 10.76396 | 57° | 38km/h | 19950m | 4.8m/s | -52.6°C | 0.7% | 58.6hPa | 2.7V | 03:59:00 | 00:00:00 | 00:00:00 | |
| DK7RCA | 2026-09-01 11:52:41 | 52.87627 | 10.76396 | 57° | 38km/h | 19950m | 4.8m/s | -52.6°C | 0% | 0hPa | 2.7V | 00:00:00 | 00:00:00 | 00:00:00 | |
| DB0DAN | 2026-09-01 11:52:40 | 52.87616 | 10.76372 | 51° | 33km/h | 19939m | 4.4m/s | -52.5°C | 0.7% | 58.69hPa | 2.7V | 00:00:00 | 00:00:00 | 00:00:00 | |
| HSKMA3-T | 2026-09-01 11:52:40 | 52.87616 | 10.76372 | 51° | 35km/h | 19939m | 4.4m/s | -52.5°C | 0% | 58.7hPa | 2.7V | 04:08:40 | 01:23:30 | 00:00:00 | |
| DL1XH1-15 | 2026-09-01 11:52:40 | 52.87611 | 10.76361 | 49° | 35km/h | 19935m | 3.6m/s | -52.6°C | 3.4% | 58.7hPa | 2.7V | 03:59:08 | 01:23:29 | 00:00:00 | |
| AA1-15 | 2026-09-01 11:52:39 | 52.87605 | 10.76350 | 51° | 35km/h | 19931m | 5.7m/s | -52.7°C | 0% | 58.8hPa | 2.7V | 03:59:19 | 01:23:28 | 00:00:00 | |
| DF8AY | 2026-09-01 11:52:38 | 52.87599 | 10.76338 | 55° | 37km/h | 19925m | 5.1m/s | -52.7°C | 0% | 58.8hPa | 2.7V | 03:59:19 | 01:23:27 | 00:00:00 | |
| EDDB2-11 | 2026-09-01 11:52:36 | 52.87594 | 10.76325 | 57° | 35km/h | 19921m | 5.1m/s | -52.6°C | 0.7% | 58.9hPa | 2.6V | 00:00:00 | 00:00:00 | 00:00:00 | |
| DO2SHX-10 | 2026-09-01 11:52:35 | 52.87590 | 10.76312 | 62° | 29km/h | 19916m | 4.7m/s | -52.6°C | 3.5% | 58.8hPa | 2.6V | 00:00:00 | 01:23:25 | 00:00:00 | |
| SONCRA | 2026-09-01 11:52:34 | 52.87580 | 10.76279 | 64° | 27km/h | 19901m | 3.8m/s | -52.6°C | 0.7% | 59.0hPa | 2.6V | 00:00:00 | 00:00:00 | 00:00:00 | |
| DL1XH1-15 | 2026-09-01 11:52:33 | 52.87569 | 10.76238 | 65° | 44km/h | 19886m | 4.4m/s | -52.5°C | 3.4% | 59.1hPa | 2.6V | 03:59:18 | 01:23:19 | 00:00:00 | |
| DL1XH-west | 2026-09-01 11:52:33 | 52.87583 | 10.76290 | 66° | 27km/h | 19905m | 4.4m/s | -52.7°C | 0% | 59hPa | 2.7V | 03:59:19 | 01:23:23 | 00:00:00 | |
| DD8BA-10 | 2026-09-01 11:52:33 | 52.87583 | 10.76290 | 66° | 42km/h | 19905m | 4.3m/s | -52.6°C | 3.5% | 58.9hPa | 2.6V | 00:00:00 | 00:00:00 | 00:00:00 | |
| DF7ER-10 | 2026-09-01 11:52:32 | 52.87580 | 10.76279 | 66° | 29km/h | 19901m | 3.8m/s | -52.6°C | 0.7% | 59.0hPa | 2.6V | 03:59:00 | 00:00:00 | 00:00:00 | |
| DO2SHX-10 | 2026-09-01 11:52:31 | 52.87577 | 10.76267 | 65° | 33km/h | 19897m | 5.2m/s | -52.5°C | 3.5% | 59.0hPa | 2.6V | 00:00:00 | 01:23:21 | 00:00:00 | |
| DM0DOS-11 | 2026-09-01 11:52:30 | 52.87564 | 10.76221 | 65° | 46km/h | 19881m | 4m/s | -52.6°C | 3.4% | 59.2hPa | 2.6V | 03:59:19 | 01:23:18 | 00:00:00 | |
| BIOWL1-15 | 2026-09-01 11:52:29 | 52.87569 | 10.76238 | 66° | 44km/h | 19886m | 4.4m/s | -52.5°C | 0% | 59.2hPa | 2.6V | 03:59:19 | 01:23:19 | 00:00:00 | |
| DL3AQ-11 | 2026-09-01 11:52:28 | 52.87559 | 10.76203 | 64° | 46km/h | 19877m | 5.4m/s | -52.7°C | 0.7% | 59.3hPa | 2.7V | 00:00:00 | 00:00:00 | 00:00:00 | |
| DF8AY | 2026-09-01 11:52:28 | 52.87559 | 10.76203 | 64° | 46km/h | 19877m | 5.4m/s | -52.7°C | 0% | 59.3hPa | 2.6V | 04:00:10 | 01:23:17 | 00:00:00 | |
| DL4XJ-10 | 2026-09-01 11:52:27 | 52.87559 | 10.76203 | 65° | 40km/h | 19876m | 5.4m/s | -51.8°C | 0% | 0hPa | 2.7V | 00:00:00 | 00:00:00 | 00:00:00 | |
| DB0DAN | 2026-09-01 11:52:25 | 52.87548 | 10.76171 | 58° | 40km/h | 19867m | 4.5m/s | -52.7°C | 0.7% | 59.37hPa | 2.7V | 00:00:00 | 00:00:00 | 00:00:00 | |
| DL1XH-15 | 2026-09-01 11:52:25 | 52.87518 | 10.76101 | 53° | 33km/h | 19841m | 5.3m/s | -52.5°C | 3.5% | 59.6hPa | 2.6V | 03:59:27 | 01:23:10 | 00:00:00 | |
| DO9LL-15 | 2026-09-01 11:52:25 | 52.87548 | 10.76171 | 59° | 40km/h | 19867m | 4.4m/s | -52.6°C | 3.5% | 59.3hPa | 2.7V | 00:00:00 | 01:23:15 | 00:00:00 | |
| DB0NH | 2026-09-01 11:52:23 | 52.87536 | 10.76141 | 53° | 38km/h | 19856m | 5.6m/s | -52.4°C | 3.5% | 59.4hPa | 2.7V | 00:00:00 | 01:23:13 | 00:00:00 | |
| DM0DOS-11 | 2026-09-01 11:52:22 | 52.87508 | 10.76080 | 54° | 31km/h | 19832m | 4.5m/s | -52.5°C | 3.5% | 59.6hPa | 2.7V | 03:59:29 | 01:23:08 | 00:00:00 | |
| DL1XH-west | 2026-09-01 11:52:22 | 52.87529 | 10.76127 | 52° | 42km/h | 19851m | 4.1m/s | -52.4°C | 0% | 59.5hPa | 2.6V | 04:00:10 | 01:23:12 | 00:00:00 | |
| BIOWL1-15 | 2026-09-01 11:52:21 | 52.87513 | 10.76090 | 56° | 31km/h | 19836m | 3.9m/s | -52.4°C | 0% | 59.7hPa | 2.7V | 04:00:10 | 01:23:09 | 00:00:00 | |
| DF8AY | 2026-09-01 11:52:17 | 52.87498 | 10.76057 | 51° | 37km/h | 19822m | 4.4m/s | -52.5°C | 0% | 59.8hPa | 2.7V | 04:00:10 | 01:23:06 | 00:00:00 | |
| HSKMA3-T | 2026-09-01 11:52:14 | 52.87486 | 10.76034 | 50° | 38km/h | 19813m | 5.3m/s | -52.5°C | 0% | 59.9hPa | 2.6V | 04:08:40 | 01:23:04 | 00:00:00 | |
| DO2SHX-10 | 2026-09-01 11:52:14 | 52.87486 | 10.76034 | 50° | 38km/h | 19813m | 5.3m/s | -52.5°C | 3.5% | 59.8hPa | 2.6V | 00:00:00 | 01:23:04 | 00:00:00 | |
| DL1XH1-15 | 2026-09-01 11:52:13 | 52.87453 | 10.75963 | 52° | 47km/h | 19788m | 3.9m/s | -52.3°C | 3.5% | 60.1hPa | 2.7V | 03:59:38 | 01:22:59 | 00:00:00 | |
| DL1XH-west | 2026-09-01 11:52:11 | 52.87460 | 10.75979 | 53° | 47km/h | 19792m | 5.4m/s | -52.3°C | 0% | 60hPa | 2.7V | 04:00:10 | 01:23:00 | 00:00:00 | |
| DM0DOS-11 | 2026-09-01 11:52:11 | 52.87446 | 10.75948 | 53° | 44km/h | 19784m | 5m/s | -52.1°C | 3.5% | 60.1hPa | 2.6V | 03:59:39 | 01:22:58 | 00:00:00 | |
| BIOWL1-15 | 2026-09-01 11:52:08 | 52.87446 | 10.75948 | 53° | 44km/h | 19784m | 5m/s | -52.2°C | 0% | 60.1hPa | 2.6V | 04:00:10 | 01:22:58 | 00:00:00 | |
| DF8AY | 2026-09-01 11:52:08 | 52.87385 | 10.75860 | 40° | 37km/h | 19739m | 4.6m/s | -51.8°C | 0% | 60.5hPa | 2.6V | 04:00:10 | 01:22:49 | 00:00:00 | |
| AA1-15 | 2026-09-01 11:52:06 | 52.87428 | 10.75912 | 45° | 33km/h | 19769m | 4.6m/s | -52°C | 0% | 60.2hPa | 2.7V | 04:00:10 | 01:22:55 | 00:00:00 | |
| DL1XH-15 | 2026-09-01 11:52:05 | 52.87392 | 10.75869 | 36° | 35km/h | 19744m | 5.3m/s | -51.9°C | 3.4% | 60.5hPa | 2.6V | 03:59:47 | 01:22:50 | 00:00:00 | |
| HSKMA3-T | 2026-09-01 11:52:03 | 52.87415 | 10.75894 | 34° | 35km/h | 19759m | 5.3m/s | -52°C | 0% | 60.4hPa | 2.7V | 04:08:40 | 01:22:53 | 00:00:00 | |
| SONCRA | 2026-09-01 11:52:03 | 52.87407 | 10.75886 | 32° | 35km/h | 19754m | 4.7m/s | -51.9°C | 0.7% | 60.4hPa | 2.7V | 00:00:00 | 00:00:00 | 00:00:00 | |
| DM0DOS-11 | 2026-09-01 11:52:02 | 52.87378 | 10.75850 | 41° | 38km/h | 19733m | 6m/s | -51.8°C | 3.4% | 60.6hPa | 2.7V | 03:59:49 | 01:22:48 | 00:00:00 | |
| DL1XH-west | 2026-09-01 11:52:00 | 52.87392 | 10.75869 | 36° | 35km/h | 19744m | 5.3m/s | -51.9°C | 0% | 60.5hPa | 2.6V | 04:00:10 | 01:22:50 | 00:00:00 | |
| BIOWL1-15 | 2026-09-01 11:51:59 | 52.87371 | 10.75838 | 45° | 42km/h | 19728m | 5.2m/s | -51.9°C | 0% | 60.6hPa | 2.7V | 04:00:10 | 01:22:47 | 00:00:00 | |
| AA1-15 | 2026-09-01 11:51:56 | 52.87352 | 10.75799 | 62° | 38km/h | 19713m | 5.4m/s | -51.8°C | 0% | 60.7hPa | 2.6V | 04:00:10 | 01:22:44 | 00:00:00 | |
| DL1XH-15 | 2026-09-01 11:51:55 | 52.87333 | 10.75748 | 46° | 35km/h | 19693m | 5m/s | -51.6°C | 3.3% | 61hPa | 2.7V | 03:59:57 | 01:22:40 | 00:00:00 | |
| DO9LL-15 | 2026-09-01 11:51:55 | 52.87357 | 10.75812 | 55° | 40km/h | 19719m | 5.4m/s | -51.7°C | 3.3% | 60.7hPa | 2.7V | 00:00:00 | 01:22:45 | 00:00:00 | |
| DO2SHX-10 | 2026-09-01 11:51:54 | 52.87352 | 10.75799 | 62° | 37km/h | 19713m | 5.3m/s | -51.7°C | 3.4% | 60.7hPa | 2.7V | 00:00:00 | 01:22:44 | 00:00:00 | |
| DL1XH1-15 | 2026-09-01 11:51:53 | 52.87327 | 10.75739 | 37° | 33km/h | 19688m | 4.1m/s | -51.6°C | 3.3% | 61hPa | 2.7V | 03:59:58 | 01:22:39 | 00:00:00 | |
| HSKMA3-T | 2026-09-01 11:51:50 | 52.87333 | 10.75748 | 47° | 35km/h | 19693m | 5m/s | -51.6°C | 0% | 61hPa | 2.7V | 04:08:40 | 01:22:40 | 00:00:00 | |
| DL1XH-west | 2026-09-01 11:51:49 | 52.87327 | 10.75739 | 38° | 33km/h | 19688m | 4.1m/s | -51.6°C | 0% | 61hPa | 2.7V | 04:00:10 | 01:22:39 | 00:00:00 | |
| DF8AY | 2026-09-01 11:51:48 | 52.87320 | 10.75731 | 35° | 33km/h | 19683m | 5.6m/s | -51.6°C | 0% | 61.1hPa | 2.7V | 04:00:10 | 01:22:38 | 00:00:00 | |
| BIOWL1-15 | 2026-09-01 11:51:48 | 52.87307 | 10.75716 | 32° | 33km/h | 19673m | 3.9m/s | -51.5°C | 0% | 61.1hPa | 2.6V | 04:00:10 | 01:22:36 | 00:00:00 | |
| DL3AQ-11 | 2026-09-01 11:51:48 | 52.87314 | 10.75723 | 31° | 31km/h | 19678m | 5.1m/s | -51.5°C | 0.7% | 61.1hPa | 2.6V | 00:00:00 | 00:00:00 | 00:00:00 | |
| DL4XJ-10 | 2026-09-01 11:51:47 | 52.87314 | 10.75723 | 32° | 35km/h | 19678m | 5.0m/s | -50.6°C | 0% | 0hPa | 2.6V | 00:00:00 | 00:00:00 | 00:00:00 | |
| DL4BBY-15 | 2026-09-01 11:51:46 | 52.87307 | 10.75716 | 32° | 31km/h | 19674m | 3.9m/s | -50.5°C | 0% | 0hPa | 2.6V | 00:00:00 | 00:00:00 | 00:00:00 | |
| DL1XH-15 | 2026-09-01 11:51:45 | 52.87261 | 10.75659 | 48° | 37km/h | 19643m | 4m/s | -51.5°C | 3.3% | 61.4hPa | 2.6V | 04:00:07 | 01:22:30 | 00:00:00 | |
| AA1-15 | 2026-09-01 11:51:43 | 52.87283 | 10.75691 | 36° | 40km/h | 19658m | 4.1m/s | -51.4°C | 0% | 61.3hPa | 2.7V | 04:00:10 | 01:22:33 | 00:00:00 | |
| AP2371 | 2026-09-01 11:51:43 | 52.87283 | 10.75691 | 37° | 40km/h | 19658m | 4.1m/s | -51.4°C | 0.6% | 61.3hPa | 2.6V | 00:00:00 | 00:00:00 | 00:00:00 | |
| DM0DOS-11 | 2026-09-01 11:51:42 | 52.87249 | 10.75636 | 46° | 38km/h | 19633m | 5.4m/s | -51.5°C | 3.3% | 61.5hPa | 2.6V | 04:00:09 | 01:22:28 | 00:00:00 | |
| DF8AY | 2026-09-01 11:51:41 | 52.87242 | 10.75625 | 44° | 38km/h | 19628m | 4.3m/s | -51.4°C | 0% | 61.6hPa | 2.7V | 04:00:10 | 01:22:27 | 00:00:00 | |
| DL1XH1-15 | 2026-09-01 11:51:40 | 52.87255 | 10.75648 | 48° | 37km/h | 19638m | 4.7m/s | -51.4°C | 3.3% | 61.5hPa | 2.6V | 04:00:08 | 01:22:29 | 00:00:00 | |
| HSKMA3-T | 2026-09-01 11:51:39 | 52.87255 | 10.75648 | 48° | 37km/h | 19638m | 4.7m/s | -51.4°C | 0% | 61.5hPa | 2.6V | 04:08:40 | 01:22:29 | 00:00:00 | |
| DL1XH-west | 2026-09-01 11:51:38 | 52.87249 | 10.75636 | 47° | 38km/h | 19633m | 5.4m/s | -51.5°C | 0% | 61.5hPa | 2.6V | 04:00:10 | 01:22:28 | 00:00:00 | |
| BIOWL1-15 | 2026-09-01 11:51:38 | 52.87229 | 10.75604 | 43° | 33km/h | 19618m | 5.8m/s | -51.3°C | 0% | 61.7hPa | 2.7V | 04:01:01 | 01:22:25 | 00:00:00 | |
| SONDE2-11 | 2026-09-01 11:51:37 | 52.87235 | 10.75614 | 43° | 35km/h | 19623m | 5.0m/s | -51.4°C | 0.7% | 61.6hPa | 2.7V | 00:00:00 | 00:00:00 | 00:00:00 | |
| MECKS9 | 2026-09-01 11:51:36 | 52.87235 | 10.75614 | 45° | 37km/h | 19623m | 5.0m/s | -51.4°C | 0.7% | 61.6hPa | 2.7V | 00:00:00 | 00:00:00 | 00:00:00 | |
| GOEST3-10 | 2026-09-01 11:51:35 | 52.87229 | 10.75604 | 44° | 31km/h | 19618m | 5.7m/s | -51.2°C | 3.3% | 61.6hPa | 2.7V | 04:00:00 | 00:00:00 | 00:00:00 | |
| EDDB2-11 | 2026-09-01 11:51:34 | 52.87223 | 10.75596 | 38° | 29km/h | 19613m | 4.2m/s | -51.3°C | 0.7% | 61.7hPa | 2.7V | 00:00:00 | 00:00:00 | 00:00:00 | |
| DL1XH1-15 | 2026-09-01 11:51:32 | 52.87190 | 10.75565 | 24° | 27km/h | 19589m | 5.4m/s | -51.1°C | 3.3% | 61.9hPa | 2.7V | 04:00:18 | 01:22:19 | 00:00:00 | |
| AA1-15 | 2026-09-01 11:51:32 | 52.87211 | 10.75581 | 29° | 31km/h | 19603m | 5.4m/s | -51.2°C | 0% | 61.8hPa | 2.6V | 04:01:01 | 01:22:22 | 00:00:00 | |
| DL3AQ-11 | 2026-09-01 11:51:32 | 52.87204 | 10.75575 | 25° | 31km/h | 19598m | 3.8m/s | -51.1°C | 0.6% | 61.9hPa | 2.6V | 00:00:00 | 00:00:00 | 00:00:00 | |
| DL1ZP-14 | 2026-09-01 11:51:31 | 52.87204 | 10.75575 | 25° | 31km/h | 19598m | 3.8m/s | -51.1°C | 0.6% | 61.9hPa | 2.6V | 00:00:00 | 00:00:00 | 00:00:00 | |
| DO2SHX-10 | 2026-09-01 11:51:30 | 52.87197 | 10.75570 | 25° | 31km/h | 19594m | 4.2m/s | -51.1°C | 3.3% | 61.9hPa | 2.7V | 00:00:00 | 01:22:20 | 00:00:00 | |
| DM0DOS-11 | 2026-09-01 11:51:29 | 52.87184 | 10.75560 | 27° | 26km/h | 19584m | 5m/s | -51.1°C | 3.3% | 62hPa | 2.7V | 04:00:19 | 01:22:18 | 00:00:00 | |
| DF8AY | 2026-09-01 11:51:28 | 52.87172 | 10.75549 | 31° | 29km/h | 19574m | 5.5m/s | -51°C | 0% | 62.1hPa | 2.6V | 04:01:01 | 01:22:16 | 00:00:00 | |
| DB0DAN | 2026-09-01 11:51:25 | 52.87165 | 10.75542 | 33° | 29km/h | 19568m | 4.4m/s | -50.9°C | 0.7% | 62.16hPa | 2.6V | 00:00:00 | 00:00:00 | 00:00:00 | |
| BIOWL1-15 | 2026-09-01 11:51:25 | 52.87165 | 10.75542 | 34° | 31km/h | 19568m | 4.4m/s | -50.9°C | 0% | 62.2hPa | 2.6V | 04:01:01 | 01:22:15 | 00:00:00 | |
| DB0NH | 2026-09-01 11:51:23 | 52.87153 | 10.75526 | 44° | 26km/h | 19559m | 5.5m/s | -50.9°C | 3.2% | 62.2hPa | 2.6V | 04:00:00 | 01:22:13 | 00:00:00 | |
| DM0DOS-11 | 2026-09-01 11:51:22 | 52.87126 | 10.75493 | 18° | 26km/h | 19535m | 4.3m/s | -50.7°C | 3.2% | 62.5hPa | 2.6V | 04:00:29 | 01:22:08 | 00:00:00 | |
| AA1-15 | 2026-09-01 11:51:21 | 52.87143 | 10.75510 | 43° | 26km/h | 19549m | 4.1m/s | -50.8°C | 0% | 62.4hPa | 2.7V | 04:01:01 | 01:22:11 | 00:00:00 | |
| DF8AY | 2026-09-01 11:51:17 | 52.87120 | 10.75490 | 12° | 24km/h | 19529m | 5.6m/s | -50.6°C | 0% | 62.5hPa | 2.6V | 04:01:01 | 01:22:07 | 00:00:00 | |
| DL1XH-west | 2026-09-01 11:51:16 | 52.87108 | 10.75488 | 5° | 24km/h | 19519m | 3.9m/s | -50.5°C | 0% | 62.6hPa | 2.7V | 04:01:01 | 01:22:05 | 00:00:00 | |
| BIOWL1-15 | 2026-09-01 11:51:14 | 52.87102 | 10.75486 | 9° | 26km/h | 19515m | 5.7m/s | -50.5°C | 0% | 62.7hPa | 2.7V | 04:01:01 | 01:22:04 | 00:00:00 | |
| DO2SHX-10 | 2026-09-01 11:51:14 | 52.87102 | 10.75486 | 9° | 26km/h | 19515m | 5.6m/s | -50.5°C | 3.2% | 62.6hPa | 2.7V | 00:00:00 | 01:22:04 | 00:00:00 | |
| DL1XH1-15 | 2026-09-01 11:51:13 | 52.87070 | 10.75462 | 39° | 26km/h | 19490m | 4.6m/s | -50.3°C | 3.1% | 62.9hPa | 2.7V | 04:00:38 | 01:21:59 | 00:00:00 | |
| DD8BA-10 | 2026-09-01 11:51:12 | 52.87088 | 10.75480 | 23° | 24km/h | 19505m | 3.8m/s | -50.3°C | 3.2% | 62.7hPa | 2.6V | 04:00:00 | 00:00:00 | 00:00:00 | |
| DB0DAN | 2026-09-01 11:51:10 | 52.87075 | 10.75469 | 34° | 26km/h | 19495m | 5.4m/s | -50.3°C | 0.6% | 62.9hPa | 2.6V | 00:00:00 | 00:00:00 | 00:00:00 | |
| AA1-15 | 2026-09-01 11:51:10 | 52.87075 | 10.75469 | 34° | 26km/h | 19495m | 5.4m/s | -50.3°C | 0% | 62.9hPa | 2.6V | 04:01:01 | 01:22:00 | 00:00:00 | |
| DF8AY | 2026-09-01 11:51:07 | 52.87060 | 10.75448 | 43° | 26km/h | 19480m | 6m/s | -50.2°C | 0% | 63hPa | 2.7V | 04:01:01 | 01:21:57 | 00:00:00 | |
| DL1XH-west | 2026-09-01 11:51:05 | 52.87046 | 10.75430 | 32° | 18km/h | 19465m | 5.8m/s | -50.1°C | 0% | 63.1hPa | 2.6V | 04:01:01 | 01:21:54 | 00:00:00 | |
| BIOWL1-15 | 2026-09-01 11:51:04 | 52.87043 | 10.75427 | 21° | 15km/h | 19460m | 5.1m/s | -50°C | 0% | 63.2hPa | 2.6V | 04:01:01 | 01:21:53 | 00:00:00 | |
| TFSTFS | 2026-09-01 11:51:04 | 52.87046 | 10.75430 | 33° | 18km/h | 19466m | 5.8m/s | -50.1°C | 0.6% | 63.1hPa | 2.6V | 04:01:00 | 00:00:00 | 00:00:00 | |
| EDDB2-11 | 2026-09-01 11:51:03 | 52.87039 | 10.75425 | 11° | 15km/h | 19455m | 4.1m/s | -50.0°C | 0.6% | 63.3hPa | 2.6V | 00:00:00 | 00:00:00 | 00:00:00 | |
| DL1XH-15 | 2026-09-01 11:51:02 | 52.87006 | 10.75406 | 31° | 26km/h | 19426m | 4.1m/s | -49.8°C | 3% | 63.5hPa | 2.6V | 04:00:51 | 01:21:46 | 00:00:00 | |
| AA1-15 | 2026-09-01 11:51:00 | 52.87030 | 10.75422 | 15° | 22km/h | 19445m | 5m/s | -49.9°C | 0% | 63.4hPa | 2.7V | 04:01:01 | 01:21:50 | 00:00:00 | |
| DF8AY | 2026-09-01 11:50:56 | 52.87006 | 10.75406 | 31° | 26km/h | 19426m | 4.1m/s | -49.8°C | 0% | 63.5hPa | 2.6V | 04:01:01 | 01:21:46 | 00:00:00 | |
| DL1XH-west | 2026-09-01 11:50:54 | 52.86995 | 10.75392 | 43° | 31km/h | 19415m | 5.9m/s | -49.8°C | 0% | 63.6hPa | 2.7V | 04:01:01 | 01:21:44 | 00:00:00 | |
| DL1XH1-15 | 2026-09-01 11:50:54 | 52.86973 | 10.75357 | 31° | 18km/h | 19390m | 5.4m/s | -49.8°C | 3% | 63.9hPa | 2.6V | 04:00:58 | 01:21:39 | 00:00:00 | |
| BIOWL1-15 | 2026-09-01 11:50:52 | 52.86985 | 10.75374 | 47° | 27km/h | 19405m | 5.3m/s | -49.8°C | 0% | 63.8hPa | 2.7V | 04:01:01 | 01:21:42 | 00:00:00 | |
| DL1XH-15 | 2026-09-01 11:50:52 | 52.86962 | 10.75348 | 28° | 13km/h | 19376m | 5.4m/s | -49.8°C | 3% | 64hPa | 2.7V | 04:01:01 | 01:21:36 | 00:00:00 | |
| AA1-15 | 2026-09-01 11:50:49 | 52.86973 | 10.75357 | 32° | 18km/h | 19390m | 5.4m/s | -49.8°C | 0% | 63.9hPa | 2.6V | 04:01:01 | 01:21:39 | 00:00:00 | |
| DF8AY | 2026-09-01 11:50:46 | 52.86962 | 10.75348 | 29° | 13km/h | 19376m | 5.4m/s | -49.8°C | 0% | 64hPa | 2.7V | 04:01:01 | 01:21:36 | 00:00:00 | |
| SMARD9-15 | 2026-09-01 11:50:46 | 52.86960 | 10.75345 | 37° | 11km/h | 19370m | 5.0m/s | -49.8°C | 0.6% | 64.1hPa | 2.6V | 00:00:00 | 00:00:00 | 00:00:00 | |
| DL1XH-west | 2026-09-01 11:50:44 | 52.86954 | 10.75336 | 47° | 18km/h | 19361m | 5.4m/s | -49.9°C | 0% | 64.2hPa | 2.6V | 04:01:52 | 01:21:33 | 00:00:00 | |
| TFSTFS | 2026-09-01 11:50:44 | 52.86957 | 10.75341 | 43° | 15km/h | 19366m | 3.9m/s | -49.8°C | 0.6% | 64.1hPa | 2.7V | 00:00:00 | 00:00:00 | 00:00:00 | |
| DM0DOS-11 | 2026-09-01 11:50:42 | 52.86936 | 10.75295 | 53° | 24km/h | 19337m | 4.5m/s | -50°C | 3% | 64.4hPa | 2.7V | 04:01:09 | 01:21:28 | 00:00:00 | |
| BIOWL1-15 | 2026-09-01 11:50:42 | 52.86951 | 10.75330 | 49° | 24km/h | 19356m | 4.9m/s | -49.9°C | 0% | 64.2hPa | 2.6V | 04:01:52 | 01:21:32 | 00:00:00 | |
| DD8BA-10 | 2026-09-01 11:50:42 | 52.86951 | 10.75330 | 50° | 22km/h | 19356m | 4.8m/s | -49.8°C | 3.0% | 64.2hPa | 2.6V | 00:00:00 | 00:00:00 | 00:00:00 | |
| DL1XH-15 | 2026-09-01 11:50:41 | 52.86928 | 10.75281 | 42° | 22km/h | 19326m | 4.2m/s | -50°C | 3% | 64.5hPa | 2.6V | 04:01:11 | 01:21:26 | 00:00:00 | |
| DL1XH1-15 | 2026-09-01 11:50:41 | 52.86939 | 10.75304 | 56° | 26km/h | 19341m | 4.4m/s | -50°C | 3% | 64.4hPa | 2.7V | 04:01:08 | 01:21:29 | 00:00:00 | |
| AA1-15 | 2026-09-01 11:50:39 | 52.86939 | 10.75304 | 56° | 26km/h | 19341m | 4.4m/s | -50°C | 0% | 64.4hPa | 2.7V | 04:01:52 | 01:21:29 | 00:00:00 | |
| HSKMA3-T | 2026-09-01 11:50:36 | 52.86928 | 10.75281 | 43° | 22km/h | 19326m | 4.2m/s | -50.1°C | 0% | 64.5hPa | 2.6V | 04:08:40 | 01:21:26 | 00:00:00 | |
| DF8AY | 2026-09-01 11:50:35 | 52.86924 | 10.75276 | 40° | 18km/h | 19322m | 4.9m/s | -50.1°C | 0% | 64.6hPa | 2.6V | 04:01:52 | 01:21:25 | 00:00:00 | |
| DL1XH-west | 2026-09-01 11:50:34 | 52.86918 | 10.75263 | 61° | 13km/h | 19308m | 3.4m/s | -50.2°C | 0% | 64.7hPa | 2.7V | 04:01:52 | 01:21:22 | 00:00:00 | |
| DL1XH1-15 | 2026-09-01 11:50:33 | 52.86910 | 10.75246 | 47° | 22km/h | 19294m | 4.2m/s | -50.2°C | 3% | 64.8hPa | 2.6V | 04:01:18 | 01:21:19 | 00:00:00 | |
| BIOWL1-15 | 2026-09-01 11:50:31 | 52.86903 | 10.75231 | 53° | 24km/h | 19285m | 5.5m/s | -50.3°C | 0% | 64.9hPa | 2.7V | 04:01:52 | 01:21:17 | 00:00:00 | |
| AA1-15 | 2026-09-01 11:50:28 | 52.86906 | 10.75239 | 50° | 24km/h | 19290m | 4.4m/s | -50.2°C | 0% | 64.9hPa | 2.6V | 04:01:52 | 01:21:18 | 00:00:00 | |
| DL1XH-15 | 2026-09-01 11:50:28 | 52.86897 | 10.75214 | 62° | 24km/h | 19275m | 3.7m/s | -50.2°C | 3% | 65hPa | 2.7V | 04:01:22 | 01:21:15 | 00:00:00 | |
| DF8AY | 2026-09-01 11:50:25 | 52.86894 | 10.75206 | 61° | 24km/h | 19271m | 3.9m/s | -50.2°C | 0% | 65.1hPa | 2.7V | 04:01:52 | 01:21:14 | 00:00:00 | |
| BIOWL1-15 | 2026-09-01 11:50:23 | 52.86866 | 10.75134 | 56° | 29km/h | 19231m | 5.2m/s | -50.2°C | 0% | 65.5hPa | 2.6V | 04:01:52 | 01:21:06 | 00:00:00 | |
| DL1XH-west | 2026-09-01 11:50:22 | 52.86883 | 10.75179 | 53° | 27km/h | 19256m | 4.7m/s | -50.2°C | 0% | 65.2hPa | 2.6V | 04:01:52 | 01:21:11 | 00:00:00 | |
| DM0DOS-11 | 2026-09-01 11:50:22 | 52.86873 | 10.75153 | 60° | 26km/h | 19241m | 3.9m/s | -50.1°C | 3% | 65.4hPa | 2.7V | 04:01:29 | 01:21:08 | 00:00:00 | |
| AA1-15 | 2026-09-01 11:50:18 | 52.86873 | 10.75153 | 60° | 26km/h | 19241m | 3.9m/s | -50.1°C | 0% | 65.4hPa | 2.7V | 04:01:52 | 01:21:08 | 00:00:00 | |
| DF8AY | 2026-09-01 11:50:14 | 52.86858 | 10.75113 | 57° | 29km/h | 19222m | 5.1m/s | -50.2°C | 0% | 65.6hPa | 2.6V | 04:01:52 | 01:21:04 | 00:00:00 | |
| HSKMA3-T | 2026-09-01 11:50:12 | 52.86850 | 10.75094 | 50° | 27km/h | 19213m | 5.3m/s | -50.2°C | 0% | 65.7hPa | 2.7V | 04:08:40 | 01:21:02 | 00:00:00 | |
| DL1XH-west | 2026-09-01 11:50:10 | 52.86840 | 10.75078 | 42° | 27km/h | 19203m | 4m/s | -50.3°C | 0% | 65.8hPa | 2.7V | 04:01:52 | 01:21:00 | 00:00:00 | |
| DM0DOS-11 | 2026-09-01 11:50:10 | 52.86831 | 10.75063 | 43° | 24km/h | 19193m | 3.7m/s | -50.5°C | 3.1% | 65.8hPa | 2.6V | 04:01:39 | 01:20:58 | 00:00:00 | |
| AA1-15 | 2026-09-01 11:50:08 | 52.86826 | 10.75056 | 41° | 24km/h | 19189m | 4.7m/s | -50.6°C | 0% | 65.9hPa | 2.6V | 04:01:52 | 01:20:57 | 00:00:00 | |
| BIOWL1-15 | 2026-09-01 11:50:08 | 52.86816 | 10.75043 | 42° | 26km/h | 19179m | 4.2m/s | -50.7°C | 0% | 66hPa | 2.7V | 04:01:52 | 01:20:55 | 00:00:00 | |
| DF8AY | 2026-09-01 11:50:03 | 52.86807 | 10.75028 | 47° | 26km/h | 19169m | 4.2m/s | -50.8°C | 0% | 66.1hPa | 2.7V | 04:01:52 | 01:20:53 | 00:00:00 | |
| HSKMA3-T | 2026-09-01 11:50:01 | 52.86798 | 10.75011 | 46° | 31km/h | 19160m | 5.5m/s | -50.9°C | 0% | 66.2hPa | 2.6V | 04:08:40 | 01:20:51 | 00:00:00 | |
| DL1XH-west | 2026-09-01 11:49:59 | 52.86785 | 10.74991 | 42° | 38km/h | 19151m | 3.9m/s | -51°C | 0% | 66.3hPa | 2.7V | 04:01:52 | 01:20:49 | 00:00:00 | |
| AA1-15 | 2026-09-01 11:49:57 | 52.86771 | 10.74970 | 45° | 35km/h | 19141m | 4.9m/s | -51°C | 0% | 66.4hPa | 2.7V | 04:01:52 | 01:20:47 | 00:00:00 | |
| BIOWL1-15 | 2026-09-01 11:49:56 | 52.86753 | 10.74943 | 35° | 33km/h | 19128m | 5.4m/s | -51°C | 0% | 66.5hPa | 2.6V | 04:02:43 | 01:20:44 | 00:00:00 | |
| DF8AY | 2026-09-01 11:49:53 | 52.86746 | 10.74935 | 31° | 35km/h | 19123m | 4.6m/s | -51°C | 0% | 66.6hPa | 2.6V | 04:02:43 | 01:20:43 | 00:00:00 | |
| DO2SHX-10 | 2026-09-01 11:49:53 | 52.86746 | 10.74935 | 31° | 33km/h | 19123m | 4.5m/s | -50.9°C | 3.3% | 66.5hPa | 2.6V | 04:01:00 | 01:20:43 | 00:00:00 | |
| DD8BA-10 | 2026-09-01 11:49:52 | 52.86738 | 10.74928 | 31° | 35km/h | 19118m | 5.2m/s | -50.9°C | 3.2% | 66.6hPa | 2.7V | 00:00:00 | 00:00:00 | 00:00:00 | |
| DM0DOS-11 | 2026-09-01 11:49:50 | 52.86708 | 10.74901 | 24° | 38km/h | 19098m | 4.8m/s | -50.8°C | 3.3% | 66.8hPa | 2.6V | 04:01:59 | 01:20:38 | 00:00:00 | |
| HSKMA3-T | 2026-09-01 11:49:49 | 52.86716 | 10.74908 | 28° | 35km/h | 19104m | 5.6m/s | -50.9°C | 0% | 66.7hPa | 2.7V | 04:08:40 | 01:20:39 | 00:00:00 | |
| DL1XH-west | 2026-09-01 11:49:49 | 52.86708 | 10.74901 | 24° | 38km/h | 19098m | 4.8m/s | -50.8°C | 0% | 66.8hPa | 2.6V | 04:02:43 | 01:20:38 | 00:00:00 | |
| BIOWL1-15 | 2026-09-01 11:49:48 | 52.86668 | 10.74869 | 28° | 37km/h | 19076m | 5.4m/s | -50.7°C | 0% | 67hPa | 2.7V | 04:02:43 | 01:20:33 | 00:00:00 | |
| DL1XH-15 | 2026-09-01 11:49:47 | 52.86683 | 10.74882 | 27° | 35km/h | 19085m | 4.6m/s | -50.7°C | 3.2% | 67hPa | 2.7V | 04:02:02 | 01:20:35 | 00:00:00 | |
| BIOWL9-15 | 2026-09-01 11:49:46 | 52.86683 | 10.74882 | 27° | 33km/h | 19085m | 4.6m/s | -50.7°C | 0.7% | 67.0hPa | 2.7V | 00:00:00 | 00:00:00 | 00:00:00 | |
| AA1-15 | 2026-09-01 11:49:46 | 52.86691 | 10.74888 | 25° | 37km/h | 19090m | 4.8m/s | -50.8°C | 0% | 66.9hPa | 2.6V | 04:02:43 | 01:20:36 | 00:00:00 | |
| DF8AY | 2026-09-01 11:49:42 | 52.86659 | 10.74862 | 25° | 38km/h | 19071m | 5.1m/s | -50.6°C | 0% | 67.1hPa | 2.7V | 04:02:43 | 01:20:32 | 00:00:00 | |
| DM0DOS-11 | 2026-09-01 11:49:42 | 52.86628 | 10.74839 | 21° | 33km/h | 19052m | 3.6m/s | -50.4°C | 3.2% | 67.3hPa | 2.7V | 04:02:09 | 01:20:28 | 00:00:00 | |
| HSKMA3-T | 2026-09-01 11:49:39 | 52.86635 | 10.74844 | 23° | 33km/h | 19056m | 4.2m/s | -50.5°C | 0% | 67.2hPa | 2.6V | 04:08:40 | 01:20:29 | 00:00:00 | |
| DL1XH-west | 2026-09-01 11:49:38 | 52.86619 | 10.74833 | 20° | 35km/h | 19048m | 5.5m/s | -50.4°C | 0% | 67.3hPa | 2.7V | 04:02:43 | 01:20:27 | 00:00:00 | |
| DL1XH-15 | 2026-09-01 11:49:37 | 52.86602 | 10.74823 | 20° | 37km/h | 19038m | 4.7m/s | -50.3°C | 3.1% | 67.4hPa | 2.7V | 04:02:12 | 01:20:25 | 00:00:00 | |
| AA1-15 | 2026-09-01 11:49:35 | 52.86602 | 10.74823 | 21° | 37km/h | 19038m | 4.7m/s | -50.3°C | 0% | 67.4hPa | 2.7V | 04:02:43 | 01:20:25 | 00:00:00 | |
| BIOWL1-15 | 2026-09-01 11:49:33 | 52.86585 | 10.74812 | 23° | 37km/h | 19028m | 3.6m/s | -50.2°C | 0% | 67.5hPa | 2.6V | 04:02:43 | 01:20:23 | 00:00:00 | |
| DL1XH1-15 | 2026-09-01 11:49:33 | 52.86550 | 10.74792 | 14° | 35km/h | 19009m | 5m/s | -50.1°C | 3.1% | 67.7hPa | 2.7V | 04:02:18 | 01:20:19 | 00:00:00 | |
| DF8AY | 2026-09-01 11:49:32 | 52.86568 | 10.74800 | 19° | 38km/h | 19019m | 4.9m/s | -50.2°C | 0% | 67.7hPa | 2.7V | 04:02:43 | 01:20:21 | 00:00:00 | |
| DL1XH-15 | 2026-09-01 11:49:31 | 52.86519 | 10.74782 | 5° | 31km/h | 18991m | 5.2m/s | -49.9°C | 3.1% | 67.9hPa | 2.6V | 04:02:22 | 01:20:15 | 00:00:00 | |
| DL1XH-west | 2026-09-01 11:49:26 | 52.86527 | 10.74784 | 8° | 29km/h | 18996m | 4m/s | -50°C | 0% | 67.8hPa | 2.6V | 04:02:43 | 01:20:16 | 00:00:00 | |
| DB0DAN | 2026-09-01 11:49:25 | 52.86519 | 10.74782 | 5° | 29km/h | 18991m | 5.2m/s | -49.9°C | 0.6% | 67.89hPa | 2.6V | 00:00:00 | 00:00:00 | 00:00:00 | |
| AA1-15 | 2026-09-01 11:49:25 | 52.86511 | 10.74781 | 8° | 35km/h | 18986m | 4.3m/s | -49.9°C | 0% | 68hPa | 2.7V | 04:02:43 | 01:20:14 | 00:00:00 | |
| BIOWL1-15 | 2026-09-01 11:49:23 | 52.86503 | 10.74778 | 11° | 37km/h | 18982m | 3.7m/s | -49.9°C | 0% | 68hPa | 2.7V | 04:02:43 | 01:20:13 | 00:00:00 | |
| DF8AY | 2026-09-01 11:49:21 | 52.86486 | 10.74770 | 24° | 33km/h | 18973m | 5.2m/s | -49.8°C | 0% | 68.1hPa | 2.7V | 04:02:43 | 01:20:11 | 00:00:00 | |
| DL1XH1-15 | 2026-09-01 11:49:21 | 52.86471 | 10.74758 | 27° | 33km/h | 18965m | 3.6m/s | -49.8°C | 3% | 68.2hPa | 2.6V | 04:02:28 | 01:20:09 | 00:00:00 | |
| DL1XH-west | 2026-09-01 11:49:16 | 52.86403 | 10.74723 | 11° | 33km/h | 18922m | 4.6m/s | -49.6°C | 0% | 68.7hPa | 2.7V | 04:02:43 | 01:20:00 | 00:00:00 | |
| AA1-15 | 2026-09-01 11:49:14 | 52.86432 | 10.74734 | 14° | 27km/h | 18939m | 4.7m/s | -49.7°C | 0% | 68.5hPa | 2.7V | 04:02:43 | 01:20:04 | 00:00:00 | |
| BIOWL1-15 | 2026-09-01 11:49:12 | 52.86418 | 10.74729 | 13° | 27km/h | 18932m | 4m/s | -49.7°C | 0% | 68.6hPa | 2.6V | 04:02:43 | 01:20:02 | 00:00:00 | |
| DF8AY | 2026-09-01 11:49:11 | 52.86411 | 10.74726 | 12° | 29km/h | 18927m | 5m/s | -49.7°C | 0% | 68.6hPa | 2.6V | 04:02:43 | 01:20:01 | 00:00:00 | |
| DO2SHX-10 | 2026-09-01 11:49:10 | 52.86403 | 10.74723 | 11° | 33km/h | 18922m | 4.6m/s | -49.6°C | 2.9% | 68.6hPa | 2.7V | 00:00:00 | 01:20:00 | 00:00:00 | |
| DM0DOS-11 | 2026-09-01 11:49:09 | 52.86388 | 10.74718 | 15° | 31km/h | 18914m | 4.3m/s | -49.6°C | 2.9% | 68.7hPa | 2.7V | 04:02:39 | 01:19:58 | 00:00:00 | |
| DL1XH-west | 2026-09-01 11:49:04 | 52.86360 | 10.74705 | 11° | 31km/h | 18897m | 4.4m/s | -49.7°C | 0% | 68.9hPa | 2.6V | 04:02:43 | 01:19:54 | 00:00:00 | |
| AA1-15 | 2026-09-01 11:49:03 | 52.86343 | 10.74699 | 14° | 38km/h | 18888m | 4.5m/s | -49.9°C | 0% | 69hPa | 2.7V | 04:03:34 | 01:19:52 | 00:00:00 | |
| DM0DOS-11 | 2026-09-01 11:49:03 | 52.86308 | 10.74679 | 16° | 33km/h | 18869m | 3.8m/s | -50.6°C | 3.2% | 69.2hPa | 2.6V | 04:02:49 | 01:19:48 | 00:00:00 | |
| BIOWL1-15 | 2026-09-01 11:49:01 | 52.86316 | 10.74683 | 22° | 37km/h | 18873m | 3.9m/s | -50.4°C | 0% | 69.2hPa | 2.6V | 04:03:34 | 01:19:49 | 00:00:00 | |
| DF8AY | 2026-09-01 11:49:00 | 52.86324 | 10.74689 | 22° | 38km/h | 18878m | 4.9m/s | -50.2°C | 0% | 69.1hPa | 2.7V | 04:03:34 | 01:19:50 | 00:00:00 | |
| DL1XH-west | 2026-09-01 11:48:58 | 52.86276 | 10.74673 | 11° | 20km/h | 18846m | 4.1m/s | -50.5°C | 0% | 69.5hPa | 2.7V | 04:03:34 | 01:19:43 | 00:00:00 | |
| SONCRA | 2026-09-01 11:48:57 | 52.86292 | 10.74674 | 2° | 26km/h | 18860m | 4.3m/s | -50.6°C | 0.7% | 69.3hPa | 2.7V | 00:00:00 | 00:00:00 | 00:00:00 | |
| DL1ZP-14 | 2026-09-01 11:48:56 | 52.86286 | 10.74674 | 359° | 22km/h | 18855m | 4.1m/s | -50.6°C | 0.7% | 69.4hPa | 2.7V | 00:00:00 | 00:00:00 | 00:00:00 | |
| DB0DAN | 2026-09-01 11:48:55 | 52.86286 | 10.74674 | 359° | 22km/h | 18855m | 4.1m/s | -50.6°C | 0.7% | 69.37hPa | 2.7V | 00:00:00 | 00:00:00 | 00:00:00 | |
| AA1-15 | 2026-09-01 11:48:51 | 52.86265 | 10.74668 | 17° | 24km/h | 18837m | 4.4m/s | -50.5°C | 0% | 69.5hPa | 2.6V | 04:03:34 | 01:19:41 | 00:00:00 | |
| BIOWL1-15 | 2026-09-01 11:48:50 | 52.86259 | 10.74665 | 16° | 27km/h | 18833m | 4.7m/s | -50.5°C | 0% | 69.6hPa | 2.6V | 04:03:34 | 01:19:40 | 00:00:00 | |
| DF8AY | 2026-09-01 11:48:49 | 52.86252 | 10.74662 | 17° | 29km/h | 18828m | 4.5m/s | -50.5°C | 0% | 69.7hPa | 2.7V | 04:03:34 | 01:19:39 | 00:00:00 | |
| DL1XH-west | 2026-09-01 11:48:43 | 52.86213 | 10.74627 | 30° | 31km/h | 18799m | 3.7m/s | -50.4°C | 0% | 70hPa | 2.6V | 04:03:34 | 01:19:33 | 00:00:00 | |
| MECKS9 | 2026-09-01 11:48:43 | 52.86212 | 10.74627 | 30° | 31km/h | 18799m | 3.7m/s | -50.4°C | 0.6% | 70.0hPa | 2.7V | 04:03:00 | 00:00:00 | 00:00:00 | |
| DL1XH1-15 | 2026-09-01 11:48:42 | 52.86191 | 10.74604 | 33° | 20km/h | 18780m | 4.8m/s | -50.7°C | 3.2% | 70.2hPa | 2.7V | 04:03:08 | 01:19:29 | 00:00:00 | |
| AA1-15 | 2026-09-01 11:48:40 | 52.86196 | 10.74609 | 37° | 22km/h | 18785m | 4.6m/s | -50.7°C | 0% | 70.1hPa | 2.7V | 04:03:34 | 01:19:30 | 00:00:00 | |
| DM0DOS-11 | 2026-09-01 11:48:40 | 52.86187 | 10.74600 | 24° | 20km/h | 18775m | 5.1m/s | -50.7°C | 3.3% | 70.3hPa | 2.6V | 04:03:09 | 01:19:28 | 00:00:00 | |
| BIOWL1-15 | 2026-09-01 11:48:39 | 52.86191 | 10.74604 | 33° | 20km/h | 18780m | 4.8m/s | -50.7°C | 0% | 70.2hPa | 2.7V | 04:03:34 | 01:19:29 | 00:00:00 | |
| DF8AY | 2026-09-01 11:48:38 | 52.86163 | 10.74582 | 30° | 22km/h | 18753m | 4.4m/s | -50.6°C | 0% | 70.5hPa | 2.7V | 04:03:34 | 01:19:23 | 00:00:00 | |
| DL1XH-15 | 2026-09-01 11:48:38 | 52.86172 | 10.74590 | 25° | 20km/h | 18763m | 5.1m/s | -50.6°C | 3.2% | 70.4hPa | 2.7V | 04:03:12 | 01:19:25 | 00:00:00 | |
| DL1XH-west | 2026-09-01 11:48:32 | 52.86159 | 10.74578 | 28° | 24km/h | 18748m | 5m/s | -50.6°C | 0% | 70.5hPa | 2.7V | 04:03:34 | 01:19:22 | 00:00:00 | |
| MECKS9 | 2026-09-01 11:48:32 | 52.86159 | 10.74577 | 29° | 24km/h | 18748m | 5.0m/s | -50.6°C | 0.7% | 70.5hPa | 2.6V | 04:03:00 | 00:00:00 | 00:00:00 | |
| GOEST3-10 | 2026-09-01 11:48:30 | 52.86147 | 10.74569 | 21° | 26km/h | 18738m | 4.0m/s | -50.5°C | 3.2% | 70.6hPa | 2.6V | 00:00:00 | 01:19:20 | 00:00:00 | |
| DM0DOS-11 | 2026-09-01 11:48:29 | 52.86135 | 10.74560 | 31° | 26km/h | 18729m | 5.8m/s | -50.5°C | 3.2% | 70.7hPa | 2.7V | 04:03:19 | 01:19:18 | 00:00:00 | |
| BIOWL1-15 | 2026-09-01 11:48:29 | 52.86141 | 10.74565 | 24° | 27km/h | 18734m | 4.2m/s | -50.6°C | 0% | 70.7hPa | 2.6V | 04:03:34 | 01:19:19 | 00:00:00 | |
| DF7ER-10 | 2026-09-01 11:48:29 | 52.86140 | 10.74565 | 25° | 27km/h | 18734m | 4.2m/s | -50.6°C | 0.7% | 70.7hPa | 2.7V | 04:03:00 | 00:00:00 | 00:00:00 | |
| DL3AQ-11 | 2026-09-01 11:48:28 | 52.86130 | 10.74554 | 37° | 24km/h | 18724m | 4.7m/s | -50.5°C | 0.7% | 70.8hPa | 2.7V | 00:00:00 | 00:00:00 | 00:00:00 | |
| DL1XH-15 | 2026-09-01 11:48:27 | 52.86120 | 10.74542 | 37° | 24km/h | 18714m | 5.5m/s | -50.4°C | 3.2% | 70.9hPa | 2.7V | 04:03:22 | 01:19:15 | 00:00:00 | |
| DF8AY | 2026-09-01 11:48:24 | 52.86116 | 10.74536 | 39° | 22km/h | 18709m | 4.1m/s | -50.4°C | 0% | 70.9hPa | 2.6V | 04:03:34 | 01:19:14 | 00:00:00 | |
| S3001 | 2026-09-01 11:48:23 | 52.86108 | 10.74523 | 52° | 20km/h | 18698m | 6.4m/s | -50.3°C | 0.7% | 71.1hPa | 2.7V | 00:00:00 | 00:00:00 | 00:00:00 | |
| DM0DOS-11 | 2026-09-01 11:48:22 | 52.86093 | 10.74498 | 30° | 22km/h | 18677m | 4.6m/s | -50.2°C | 3.1% | 71.3hPa | 2.7V | 04:03:29 | 01:19:08 | 00:00:00 | |
| DL1XH-west | 2026-09-01 11:48:21 | 52.86105 | 10.74516 | 54° | 22km/h | 18693m | 4.4m/s | -50.3°C | 0% | 71.1hPa | 2.7V | 04:03:34 | 01:19:11 | 00:00:00 | |
| BIOWL1-15 | 2026-09-01 11:48:18 | 52.86093 | 10.74498 | 31° | 22km/h | 18677m | 4.6m/s | -50.2°C | 0% | 71.3hPa | 2.7V | 04:03:34 | 01:19:08 | 00:00:00 | |
| DF7ER-10 | 2026-09-01 11:48:18 | 52.86093 | 10.74498 | 32° | 22km/h | 18677m | 4.6m/s | -50.2°C | 0.7% | 71.3hPa | 2.6V | 04:03:00 | 00:00:00 | 00:00:00 | |
| DL1XH-15 | 2026-09-01 11:48:17 | 52.86080 | 10.74484 | 43° | 18km/h | 18662m | 5.7m/s | -50.1°C | 3.1% | 71.5hPa | 2.6V | 04:03:32 | 01:19:05 | 00:00:00 | |
| DF8AY | 2026-09-01 11:48:14 | 52.86074 | 10.74472 | 54° | 20km/h | 18653m | 5m/s | -49.9°C | 0% | 71.6hPa | 2.7V | 04:03:34 | 01:19:03 | 00:00:00 | |
| BIOWL1-15 | 2026-09-01 11:48:12 | 52.86057 | 10.74420 | 58° | 22km/h | 18614m | 6m/s | -49.7°C | 0% | 72.1hPa | 2.7V | 04:04:25 | 01:18:55 | 00:00:00 | |
| DL1XH-west | 2026-09-01 11:48:11 | 52.86068 | 10.74459 | 51° | 18km/h | 18643m | 4.7m/s | -49.9°C | 0% | 71.7hPa | 2.7V | 04:04:25 | 01:19:01 | 00:00:00 | |
| SMARD9-15 | 2026-09-01 11:48:11 | 52.86065 | 10.74453 | 57° | 16km/h | 18639m | 3.8m/s | -49.8°C | 0.6% | 71.7hPa | 2.6V | 00:00:00 | 00:00:00 | 00:00:00 | |
| DD8BA-10 | 2026-09-01 11:48:10 | 52.86065 | 10.74453 | 58° | 20km/h | 18639m | 3.8m/s | -49.8°C | 3.1% | 71.7hPa | 2.6V | 00:00:00 | 00:00:00 | 00:00:00 | |
| DM0DOS-11 | 2026-09-01 11:48:09 | 52.86062 | 10.74441 | 74° | 15km/h | 18628m | 4.8m/s | -49.8°C | 3% | 71.9hPa | 2.6V | 04:03:39 | 01:18:58 | 00:00:00 | |
| AA1-15 | 2026-09-01 11:48:08 | 52.86062 | 10.74441 | 75° | 15km/h | 18628m | 4.8m/s | -49.8°C | 0% | 71.9hPa | 2.6V | 04:04:25 | 01:18:58 | 00:00:00 | |
| DF7ER-10 | 2026-09-01 11:48:08 | 52.86062 | 10.74441 | 76° | 15km/h | 18628m | 4.8m/s | -49.8°C | 0.7% | 71.9hPa | 2.7V | 04:04:00 | 00:00:00 | 00:00:00 | |
| DL1XH-15 | 2026-09-01 11:48:07 | 52.86057 | 10.74420 | 57° | 22km/h | 18613m | 6m/s | -49.7°C | 3% | 72.1hPa | 2.7V | 04:03:42 | 01:18:55 | 00:00:00 | |
| DF8AY | 2026-09-01 11:48:04 | 52.86049 | 10.74403 | 52° | 27km/h | 18603m | 3.8m/s | -49.6°C | 0% | 72.1hPa | 2.6V | 04:04:25 | 01:18:53 | 00:00:00 | |
| TFSTFS | 2026-09-01 11:48:01 | 52.86042 | 10.74385 | 66° | 24km/h | 18594m | 5.4m/s | -49.7°C | 0.6% | 72.2hPa | 2.7V | 04:04:00 | 00:00:00 | 00:00:00 | |
| DL1XH1-15 | 2026-09-01 11:48:00 | 52.86039 | 10.74369 | 76° | 18km/h | 18584m | 4.8m/s | -49.7°C | 3% | 72.3hPa | 2.7V | 04:03:48 | 01:18:49 | 00:00:00 | |
| DL1XH-west | 2026-09-01 11:48:00 | 52.86040 | 10.74377 | 72° | 20km/h | 18589m | 4.1m/s | -49.7°C | 0% | 72.3hPa | 2.7V | 04:04:25 | 01:18:50 | 00:00:00 | |
| AA1-15 | 2026-09-01 11:47:58 | 52.86036 | 10.74355 | 65° | 16km/h | 18574m | 4.9m/s | -49.6°C | 0% | 72.5hPa | 2.7V | 04:04:25 | 01:18:47 | 00:00:00 | |
| DF8AY | 2026-09-01 11:47:53 | 52.86031 | 10.74325 | 81° | 22km/h | 18553m | 4.4m/s | -49.8°C | 0% | 72.7hPa | 2.7V | 04:04:25 | 01:18:43 | 00:00:00 | |
| DM0DOS-11 | 2026-09-01 11:47:52 | 52.86020 | 10.74285 | 64° | 22km/h | 18529m | 4.8m/s | -50°C | 3.1% | 73hPa | 2.6V | 04:03:59 | 01:18:38 | 00:00:00 | |
| S3001 | 2026-09-01 11:47:52 | 52.86028 | 10.74307 | 68° | 20km/h | 18544m | 5.5m/s | -50.0°C | 0.6% | 72.8hPa | 2.6V | 00:00:00 | 00:00:00 | 00:00:00 | |
| DL1XH1-15 | 2026-09-01 11:47:51 | 52.86023 | 10.74292 | 56° | 20km/h | 18534m | 3.6m/s | -49.9°C | 3.1% | 72.9hPa | 2.6V | 04:03:58 | 01:18:39 | 00:00:00 | |
| DL1XH-west | 2026-09-01 11:47:50 | 52.86026 | 10.74300 | 57° | 20km/h | 18538m | 5.6m/s | -49.9°C | 0% | 72.8hPa | 2.7V | 04:04:25 | 01:18:40 | 00:00:00 | |
| DD8BA-10 | 2026-09-01 11:47:50 | 52.86025 | 10.74299 | 57° | 27km/h | 18539m | 5.5m/s | -49.9°C | 3.1% | 72.8hPa | 2.7V | 04:03:00 | 00:00:00 | 00:00:00 | |
| DO2SHX-10 | 2026-09-01 11:47:49 | 52.86023 | 10.74292 | 57° | 22km/h | 18534m | 3.5m/s | -49.9°C | 3.1% | 72.9hPa | 2.7V | 04:03:00 | 01:18:39 | 00:00:00 | |
| DL1XH-15 | 2026-09-01 11:47:48 | 52.86016 | 10.74252 | 86° | 31km/h | 18513m | 4.6m/s | -49.9°C | 3.1% | 73.1hPa | 2.7V | 04:04:02 | 01:18:35 | 00:00:00 | |
| AA1-15 | 2026-09-01 11:47:46 | 52.86017 | 10.74265 | 83° | 29km/h | 18518m | 5m/s | -50°C | 0% | 73.1hPa | 2.7V | 04:04:25 | 01:18:36 | 00:00:00 | |
| BIOWL1-15 | 2026-09-01 11:47:46 | 52.86015 | 10.74239 | 86° | 33km/h | 18509m | 4.9m/s | -49.9°C | 0% | 73.2hPa | 2.7V | 04:04:25 | 01:18:34 | 00:00:00 | |
| DF8AY | 2026-09-01 11:47:43 | 52.86013 | 10.74211 | 77° | 35km/h | 18499m | 4.4m/s | -49.8°C | 0% | 73.3hPa | 2.6V | 04:04:25 | 01:18:32 | 00:00:00 | |
| DM0DOS-11 | 2026-09-01 11:47:42 | 52.86003 | 10.74152 | 71° | 37km/h | 18479m | 5.3m/s | -49.8°C | 3% | 73.5hPa | 2.7V | 04:04:09 | 01:18:28 | 00:00:00 | |
| DL1XH-west | 2026-09-01 11:47:39 | 52.86006 | 10.74166 | 76° | 38km/h | 18484m | 4.2m/s | -49.8°C | 0% | 73.5hPa | 2.7V | 04:04:25 | 01:18:29 | 00:00:00 | |
| DL1XH-15 | 2026-09-01 11:47:36 | 52.85995 | 10.74116 | 71° | 26km/h | 18465m | 5.5m/s | -49.8°C | 3% | 73.7hPa | 2.6V | 04:04:12 | 01:18:25 | 00:00:00 | |
| BIOWL1-15 | 2026-09-01 11:47:35 | 52.85995 | 10.74116 | 71° | 26km/h | 18465m | 5.5m/s | -49.8°C | 0% | 73.7hPa | 2.6V | 04:04:25 | 01:18:25 | 00:00:00 | |
| DF8AY | 2026-09-01 11:47:32 | 52.85986 | 10.74067 | 74° | 27km/h | 18441m | 5.2m/s | -49.9°C | 0% | 73.9hPa | 2.7V | 04:04:25 | 01:18:20 | 00:00:00 | |
| DM0DOS-11 | 2026-09-01 11:47:30 | 52.85982 | 10.74041 | 75° | 35km/h | 18432m | 3.2m/s | -49.9°C | 3% | 74.1hPa | 2.6V | 04:04:19 | 01:18:18 | 00:00:00 | |
| DL1XH-west | 2026-09-01 11:47:29 | 52.85962 | 10.73979 | 54° | 29km/h | 18407m | 5.9m/s | -50.1°C | 0% | 74.4hPa | 2.7V | 04:04:25 | 01:18:13 | 00:00:00 | |
| DL1XH-15 | 2026-09-01 11:47:29 | 52.85971 | 10.74001 | 57° | 35km/h | 18418m | 4.5m/s | -50°C | 3.1% | 74.2hPa | 2.7V | 04:04:22 | 01:18:15 | 00:00:00 | |
| DF8AY-15 | 2026-09-01 11:47:28 | 52.85982 | 10.74041 | 76° | 27km/h | 18432m | 3.2m/s | -49.9°C | 3.0% | 74.0hPa | 2.7V | 04:04:00 | 01:18:18 | 00:00:00 | |
| DL1LOL-11 | 2026-09-01 11:47:27 | 52.85979 | 10.74027 | 72° | 35km/h | 18428m | 4.8m/s | -50.0°C | 0.7% | 74.1hPa | 2.7V | 00:00:00 | 00:00:00 | 00:00:00 | |
| DB0DAN | 2026-09-01 11:47:25 | 52.85971 | 10.74001 | 57° | 33km/h | 18418m | 4.5m/s | -50°C | 0.7% | 74.23hPa | 2.7V | 00:00:00 | 00:00:00 | 00:00:00 | |
| BIOWL1-15 | 2026-09-01 11:47:25 | 52.85971 | 10.74001 | 57° | 35km/h | 18418m | 4.5m/s | -50°C | 0% | 74.2hPa | 2.7V | 04:04:25 | 01:18:15 | 00:00:00 | |
| AA1-15 | 2026-09-01 11:47:25 | 52.85967 | 10.73989 | 54° | 33km/h | 18413m | 5m/s | -50°C | 0% | 74.3hPa | 2.7V | 04:04:25 | 01:18:14 | 00:00:00 | |
| DF7ER-10 | 2026-09-01 11:47:24 | 52.85971 | 10.74001 | 58° | 35km/h | 18418m | 4.5m/s | -50.0°C | 0.7% | 74.2hPa | 2.7V | 04:04:00 | 00:00:00 | 00:00:00 | |
| DM0DOS-11 | 2026-09-01 11:47:23 | 52.85941 | 10.73941 | 45° | 24km/h | 18383m | 4.6m/s | -50°C | 3% | 74.6hPa | 2.7V | 04:04:29 | 01:18:08 | 00:00:00 | |
| DF8AY | 2026-09-01 11:47:20 | 52.85950 | 10.73954 | 44° | 24km/h | 18393m | 5.7m/s | -50°C | 0% | 74.5hPa | 2.6V | 04:05:16 | 01:18:10 | 00:00:00 | |
| DL1XH-west | 2026-09-01 11:47:18 | 52.85941 | 10.73941 | 45° | 24km/h | 18383m | 4.6m/s | -50.1°C | 0% | 74.6hPa | 2.7V | 04:05:16 | 01:18:08 | 00:00:00 | |
| BIOWL1-15 | 2026-09-01 11:47:16 | 52.85927 | 10.73904 | 60° | 27km/h | 18362m | 5.3m/s | -50.1°C | 0% | 74.8hPa | 2.6V | 04:05:16 | 01:18:04 | 00:00:00 | |
| AA1-15 | 2026-09-01 11:47:14 | 52.85923 | 10.73894 | 58° | 26km/h | 18358m | 3.8m/s | -50°C | 0% | 74.9hPa | 2.6V | 04:05:16 | 01:18:03 | 00:00:00 | |
| TFSTFS | 2026-09-01 11:47:13 | 52.85923 | 10.73894 | 59° | 26km/h | 18358m | 3.8m/s | -50.0°C | 0.7% | 74.9hPa | 2.7V | 04:05:00 | 00:00:00 | 00:00:00 | |
| DL1XH1-15 | 2026-09-01 11:47:10 | 52.85911 | 10.73860 | 53° | 22km/h | 18339m | 4.6m/s | -50.2°C | 3.2% | 75.1hPa | 2.7V | 04:04:38 | 01:17:59 | 00:00:00 | |
| DM0DOS-11 | 2026-09-01 11:47:10 | 52.85908 | 10.73853 | 45° | 22km/h | 18334m | 5.7m/s | -50.3°C | 3.2% | 75.2hPa | 2.7V | 04:04:39 | 01:17:58 | 00:00:00 | |
| DL1XH-15 | 2026-09-01 11:47:10 | 52.85891 | 10.73831 | 39° | 16km/h | 18314m | 4.4m/s | -50.1°C | 3.1% | 75.4hPa | 2.7V | 04:04:43 | 01:17:54 | 00:00:00 | |
| DF8AY | 2026-09-01 11:47:10 | 52.85914 | 10.73868 | 62° | 22km/h | 18344m | 4.4m/s | -50.1°C | 0% | 75.1hPa | 2.7V | 04:05:16 | 01:18:00 | 00:00:00 | |
| DL1XH-west | 2026-09-01 11:47:07 | 52.85903 | 10.73846 | 37° | 24km/h | 18329m | 4.5m/s | -50.2°C | 0% | 75.2hPa | 2.6V | 04:05:16 | 01:17:57 | 00:00:00 | |
| AA1-15 | 2026-09-01 11:47:03 | 52.85888 | 10.73827 | 39° | 16km/h | 18310m | 4.6m/s | -50.1°C | 0% | 75.4hPa | 2.7V | 04:05:16 | 01:17:53 | 00:00:00 | |
| DF8AY | 2026-09-01 11:46:59 | 52.85876 | 10.73805 | 72° | 20km/h | 18290m | 5.5m/s | -49.9°C | 0% | 75.7hPa | 2.6V | 04:05:16 | 01:17:49 | 00:00:00 | |
| DM0DOS-11 | 2026-09-01 11:46:59 | 52.85875 | 10.73796 | 78° | 26km/h | 18285m | 4.3m/s | -49.8°C | 3% | 75.7hPa | 2.6V | 04:04:49 | 01:17:48 | 00:00:00 | |
| DL1XH-west | 2026-09-01 11:46:57 | 52.85873 | 10.73785 | 74° | 27km/h | 18280m | 5.9m/s | -49.8°C | 0% | 75.8hPa | 2.7V | 04:05:16 | 01:17:47 | 00:00:00 | |
| HTAHTA | 2026-09-01 11:46:56 | 52.85871 | 10.73773 | 72° | 29km/h | 18275m | 4.6m/s | -49.8°C | 0.7% | 75.8hPa | 2.7V | 00:00:00 | 00:00:00 | 00:00:00 | |
| DB0DAN | 2026-09-01 11:46:55 | 52.85869 | 10.73761 | 72° | 31km/h | 18270m | 4.9m/s | -49.7°C | 0.7% | 75.92hPa | 2.7V | 00:00:00 | 00:00:00 | 00:00:00 | |
| AA1-15 | 2026-09-01 11:46:53 | 52.85856 | 10.73713 | 54° | 29km/h | 18250m | 4.9m/s | -49.6°C | 0% | 76.2hPa | 2.6V | 04:05:16 | 01:17:41 | 00:00:00 | |
| DL3AQ-11 | 2026-09-01 11:46:52 | 52.85856 | 10.73713 | 54° | 29km/h | 18250m | 4.9m/s | -49.6°C | 0.6% | 76.2hPa | 2.7V | 00:00:00 | 00:00:00 | 00:00:00 | |
| S3001 | 2026-09-01 11:46:50 | 52.85848 | 10.73695 | 52° | 24km/h | 18242m | 4.9m/s | -49.8°C | 0.7% | 76.2hPa | 2.7V | 00:00:00 | 00:00:00 | 00:00:00 | |
| DM0DOS-11 | 2026-09-01 11:46:49 | 52.85845 | 10.73688 | 64° | 20km/h | 18236m | 5.4m/s | -49.9°C | 3% | 76.3hPa | 2.7V | 04:04:59 | 01:17:38 | 00:00:00 | |
| DF8AY | 2026-09-01 11:46:49 | 52.85845 | 10.73688 | 65° | 20km/h | 18236m | 5.4m/s | -49.9°C | 0% | 76.3hPa | 2.7V | 04:05:16 | 01:17:38 | 00:00:00 | |
| DF8AY-15 | 2026-09-01 11:46:48 | 52.85845 | 10.73688 | 65° | 31km/h | 18236m | 5.4m/s | -49.8°C | 3.0% | 76.3hPa | 2.7V | 00:00:00 | 01:17:38 | 00:00:00 | |
| DL1XH-15 | 2026-09-01 11:46:47 | 52.85842 | 10.73649 | 82° | 29km/h | 18216m | 5.1m/s | -49.9°C | 3.2% | 76.5hPa | 2.6V | 04:05:03 | 01:17:34 | 00:00:00 | |
| DL1XH-west | 2026-09-01 11:46:46 | 52.85843 | 10.73671 | 88° | 24km/h | 18227m | 4.5m/s | -50°C | 0% | 76.4hPa | 2.6V | 04:05:16 | 01:17:36 | 00:00:00 | |
| HSKMA3-T | 2026-09-01 11:46:45 | 52.85843 | 10.73660 | 87° | 26km/h | 18222m | 5.4m/s | -50°C | 0% | 76.5hPa | 2.6V | 04:08:40 | 01:17:35 | 00:00:00 | |
| BIOWL1-15 | 2026-09-01 11:46:43 | 52.85841 | 10.73637 | 78° | 31km/h | 18211m | 4.8m/s | -49.8°C | 0% | 76.6hPa | 2.7V | 04:05:16 | 01:17:33 | 00:00:00 | |
| AA1-15 | 2026-09-01 11:46:42 | 52.85837 | 10.73609 | 78° | 35km/h | 18201m | 6.1m/s | -49.7°C | 0% | 76.7hPa | 2.7V | 04:05:16 | 01:17:31 | 00:00:00 | |
| DB0DAN | 2026-09-01 11:46:40 | 52.85835 | 10.73595 | 76° | 35km/h | 18196m | 4.6m/s | -49.7°C | 0.7% | 76.84hPa | 2.7V | 00:00:00 | 00:00:00 | 00:00:00 | |
| DF8AY | 2026-09-01 11:46:40 | 52.85830 | 10.73566 | 69° | 37km/h | 18187m | 5.3m/s | -49.8°C | 0% | 76.9hPa | 2.6V | 04:05:16 | 01:17:28 | 00:00:00 | |
| DL1XH-15 | 2026-09-01 11:46:39 | 52.85817 | 10.73513 | 73° | 31km/h | 18168m | 4.7m/s | -49.7°C | 3.1% | 77.1hPa | 2.7V | 04:05:13 | 01:17:24 | 00:00:00 | |
| DM0DOS-11 | 2026-09-01 11:46:39 | 52.85830 | 10.73566 | 68° | 37km/h | 18187m | 5.3m/s | -49.8°C | 3% | 76.9hPa | 2.6V | 04:05:09 | 01:17:28 | 00:00:00 | |
| DL1XH-west | 2026-09-01 11:46:36 | 52.85822 | 10.73538 | 65° | 35km/h | 18177m | 3.6m/s | -49.8°C | 0% | 77hPa | 2.7V | 04:05:16 | 01:17:26 | 00:00:00 | |
| DO2SHX-10 | 2026-09-01 11:46:36 | 52.85822 | 10.73538 | 66° | 33km/h | 18178m | 3.5m/s | -49.8°C | 3.0% | 77.0hPa | 2.7V | 00:00:00 | 01:17:26 | 00:00:00 | |
| GOEST3-10 | 2026-09-01 11:46:35 | 52.85819 | 10.73525 | 69° | 31km/h | 18173m | 5.7m/s | -49.8°C | 3.1% | 77.0hPa | 2.7V | 04:05:00 | 00:00:00 | 00:00:00 | |
| DM0DOS-11 | 2026-09-01 11:46:33 | 52.85803 | 10.73445 | 73° | 27km/h | 18139m | 5.5m/s | -49.5°C | 3% | 77.5hPa | 2.7V | 04:05:19 | 01:17:18 | 00:00:00 | |
| BIOWL1-15 | 2026-09-01 11:46:33 | 52.85814 | 10.73501 | 76° | 29km/h | 18163m | 4.4m/s | -49.6°C | 0% | 77.2hPa | 2.7V | 04:05:16 | 01:17:23 | 00:00:00 | |
| AA1-15 | 2026-09-01 11:46:32 | 52.85808 | 10.73466 | 68° | 27km/h | 18149m | 3.9m/s | -49.6°C | 0% | 77.3hPa | 2.6V | 04:06:07 | 01:17:20 | 00:00:00 | |
| HSKMA3-T | 2026-09-01 11:46:29 | 52.85805 | 10.73456 | 71° | 27km/h | 18144m | 4.8m/s | -49.5°C | 0% | 77.4hPa | 2.7V | 04:08:40 | 01:17:19 | 00:00:00 | |
| DF8AY | 2026-09-01 11:46:27 | 52.85801 | 10.73433 | 72° | 29km/h | 18134m | 4.4m/s | -49.6°C | 0% | 77.5hPa | 2.7V | 04:06:07 | 01:17:17 | 00:00:00 | |
| DL1XH-west | 2026-09-01 11:46:26 | 52.85795 | 10.73409 | 62° | 35km/h | 18124m | 4.6m/s | -49.5°C | 0% | 77.7hPa | 2.6V | 04:06:07 | 01:17:15 | 00:00:00 | |
| DB0DAN | 2026-09-01 11:46:25 | 52.85795 | 10.73409 | 62° | 35km/h | 18124m | 4.6m/s | -49.5°C | 0.7% | 77.65hPa | 2.6V | 00:00:00 | 00:00:00 | 00:00:00 | |
| BIOWL1-15 | 2026-09-01 11:46:23 | 52.85786 | 10.73382 | 63° | 37km/h | 18115m | 5.4m/s | -49.5°C | 0% | 77.8hPa | 2.6V | 04:06:07 | 01:17:13 | 00:00:00 | |
| AA1-15 | 2026-09-01 11:46:20 | 52.85771 | 10.73333 | 57° | 29km/h | 18097m | 5.1m/s | -49.3°C | 0% | 78hPa | 2.7V | 04:06:07 | 01:17:09 | 00:00:00 | |
| DM0DOS-11 | 2026-09-01 11:46:19 | 52.85767 | 10.73323 | 51° | 29km/h | 18092m | 4.1m/s | -49.2°C | 3% | 78hPa | 2.6V | 04:05:29 | 01:17:08 | 00:00:00 | |
| DF8AY | 2026-09-01 11:46:16 | 52.85737 | 10.73258 | 45° | 31km/h | 18058m | 4.3m/s | -49.2°C | 0% | 78.4hPa | 2.6V | 04:06:07 | 01:17:01 | 00:00:00 | |
| DL1XH-west | 2026-09-01 11:46:14 | 52.85751 | 10.73287 | 58° | 27km/h | 18073m | 3.3m/s | -49.2°C | 0% | 78.2hPa | 2.7V | 04:06:07 | 01:17:04 | 00:00:00 | |
| HSKMA3-T | 2026-09-01 11:46:13 | 52.85747 | 10.73277 | 53° | 29km/h | 18069m | 5.6m/s | -49.2°C | 0% | 78.3hPa | 2.7V | 04:08:40 | 01:17:03 | 00:00:00 | |
| BIOWL1-15 | 2026-09-01 11:46:13 | 52.85713 | 10.73213 | 45° | 26km/h | 18032m | 5.8m/s | -49°C | 0% | 78.7hPa | 2.7V | 04:06:07 | 01:16:56 | 00:00:00 | |
| DL3AQ-11 | 2026-09-01 11:46:12 | 52.85737 | 10.73258 | 45° | 31km/h | 18058m | 4.3m/s | -49.2°C | 0.7% | 78.4hPa | 2.6V | 00:00:00 | 00:00:00 | 00:00:00 | |
| DO2SHX-10 | 2026-09-01 11:46:11 | 52.85737 | 10.73258 | 46° | 31km/h | 18058m | 4.2m/s | -49.1°C | 3.0% | 78.4hPa | 2.6V | 00:00:00 | 01:17:01 | 00:00:00 | |
| DL1XH1-15 | 2026-09-01 11:46:10 | 52.85726 | 10.73239 | 48° | 29km/h | 18048m | 6.5m/s | -49°C | 3% | 78.5hPa | 2.6V | 04:05:38 | 01:16:59 | 00:00:00 | |
| AA1-15 | 2026-09-01 11:46:09 | 52.85721 | 10.73230 | 53° | 27km/h | 18042m | 5.4m/s | -49°C | 0% | 78.6hPa | 2.7V | 04:06:07 | 01:16:58 | 00:00:00 | |
| DL1XH-west | 2026-09-01 11:46:04 | 52.85702 | 10.73201 | 28° | 26km/h | 18020m | 5m/s | -49°C | 0% | 78.9hPa | 2.6V | 04:06:07 | 01:16:54 | 00:00:00 | |
| DF8AY | 2026-09-01 11:46:04 | 52.85696 | 10.73196 | 27° | 26km/h | 18015m | 6m/s | -49.1°C | 0% | 78.9hPa | 2.6V | 04:06:07 | 01:16:53 | 00:00:00 | |
| HSKMA3-T | 2026-09-01 11:46:01 | 52.85685 | 10.73187 | 28° | 26km/h | 18005m | 3.3m/s | -49.1°C | 0% | 79.1hPa | 2.7V | 04:08:40 | 01:16:51 | 00:00:00 | |
| DL1XH1-15 | 2026-09-01 11:46:00 | 52.85672 | 10.73176 | 24° | 31km/h | 17996m | 6.2m/s | -49°C | 3% | 79.2hPa | 2.7V | 04:05:48 | 01:16:49 | 00:00:00 | |
| BIOWL1-15 | 2026-09-01 11:45:59 | 52.85665 | 10.73170 | 25° | 31km/h | 17990m | 4.6m/s | -49°C | 0% | 79.3hPa | 2.7V | 04:06:07 | 01:16:48 | 00:00:00 | |
| AA1-15 | 2026-09-01 11:45:57 | 52.85658 | 10.73165 | 25° | 27km/h | 17985m | 4.8m/s | -48.9°C | 0% | 79.3hPa | 2.6V | 04:06:07 | 01:16:47 | 00:00:00 | |
| DL1XH-15 | 2026-09-01 11:45:57 | 52.85643 | 10.73154 | 19° | 18km/h | 17971m | 4m/s | -48.9°C | 2.9% | 79.5hPa | 2.7V | 04:05:53 | 01:16:44 | 00:00:00 | |
| DL1XH-west | 2026-09-01 11:45:54 | 52.85613 | 10.73143 | 19° | 24km/h | 17941m | 4.3m/s | -48.7°C | 0% | 79.9hPa | 2.6V | 04:06:07 | 01:16:38 | 00:00:00 | |
| DM0DOS-11 | 2026-09-01 11:45:53 | 52.85613 | 10.73143 | 18° | 24km/h | 17941m | 4.3m/s | -48.7°C | 3% | 79.8hPa | 2.6V | 04:05:59 | 01:16:38 | 00:00:00 | |
| DF8AY | 2026-09-01 11:45:52 | 52.85634 | 10.73150 | 9° | 20km/h | 17960m | 5.4m/s | -48.7°C | 0% | 79.6hPa | 2.7V | 04:06:07 | 01:16:42 | 00:00:00 | |
| SP3BTT-10 | 2026-09-01 11:45:52 | 52.85634 | 10.73150 | 9° | 31km/h | 17961m | 5.3m/s | -48.7°C | 2.9% | 79.6hPa | 2.7V | 04:05:00 | 00:00:00 | 00:00:00 | |
| DB0UT-7 | 2026-09-01 11:45:51 | 52.85629 | 10.73149 | 9° | 22km/h | 17955m | 4.8m/s | -48.6°C | 2.9% | 79.6hPa | 2.7V | 00:00:00 | 01:16:41 | 00:00:00 | |
| DL1XH1-15 | 2026-09-01 11:45:50 | 52.85619 | 10.73146 | 16° | 22km/h | 17945m | 4.3m/s | -48.7°C | 3% | 79.8hPa | 2.6V | 04:05:58 | 01:16:39 | 00:00:00 | |
| BIOWL1-15 | 2026-09-01 11:45:49 | 52.85607 | 10.73139 | 19° | 27km/h | 17936m | 5.5m/s | -48.6°C | 0% | 79.9hPa | 2.7V | 04:06:07 | 01:16:37 | 00:00:00 | |
| AA1-15 | 2026-09-01 11:45:46 | 52.85600 | 10.73135 | 21° | 31km/h | 17931m | 4.5m/s | -48.6°C | 0% | 80hPa | 2.7V | 04:06:07 | 01:16:36 | 00:00:00 | |
| BUE01 | 2026-09-01 11:45:44 | 52.85587 | 10.73126 | 27° | 26km/h | 17922m | 5.4m/s | -48.4°C | 0.7% | 80.1hPa | 2.6V | 00:00:00 | 00:00:00 | 00:00:00 | |
| DL1XH-west | 2026-09-01 11:45:42 | 52.85578 | 10.73116 | 37° | 18km/h | 17913m | 3.8m/s | -48.4°C | 0% | 80.2hPa | 2.6V | 04:06:07 | 01:16:32 | 00:00:00 | |
| DF8AY | 2026-09-01 11:45:41 | 52.85570 | 10.73108 | 28° | 18km/h | 17904m | 5.3m/s | -48.5°C | 0% | 80.3hPa | 2.7V | 04:06:07 | 01:16:30 | 00:00:00 | |
| BIOWL1-15 | 2026-09-01 11:45:36 | 52.85510 | 10.73050 | 52° | 13km/h | 17842m | 5.5m/s | -48.2°C | 0% | 81hPa | 2.6V | 04:06:58 | 01:16:18 | 00:00:00 | |
| DL1XH-15 | 2026-09-01 11:45:36 | 52.85538 | 10.73083 | 26° | 31km/h | 17874m | 6m/s | -48.3°C | 2.8% | 80.7hPa | 2.6V | 04:06:13 | 01:16:24 | 00:00:00 | |
| AA1-15 | 2026-09-01 11:45:35 | 52.85544 | 10.73088 | 26° | 27km/h | 17879m | 4.8m/s | -48.3°C | 0% | 80.6hPa | 2.6V | 04:06:58 | 01:16:25 | 00:00:00 | |
| DO2SHX-10 | 2026-09-01 11:45:35 | 52.85544 | 10.73088 | 27° | 29km/h | 17880m | 4.7m/s | -48.2°C | 2.8% | 80.5hPa | 2.6V | 00:00:00 | 01:16:25 | 00:00:00 | |
| DM0DOS-11 | 2026-09-01 11:45:33 | 52.85510 | 10.73050 | 52° | 13km/h | 17842m | 5.5m/s | -48.2°C | 2.8% | 81hPa | 2.6V | 04:06:19 | 01:16:18 | 00:00:00 | |
| DL1XH-west | 2026-09-01 11:45:32 | 52.85519 | 10.73065 | 37° | 24km/h | 17859m | 6.3m/s | -48.3°C | 0% | 80.8hPa | 2.7V | 04:06:58 | 01:16:21 | 00:00:00 | |
| DF8AY | 2026-09-01 11:45:30 | 52.85496 | 10.73036 | 23° | 20km/h | 17821m | 4.8m/s | -48.1°C | 0% | 81.3hPa | 2.7V | 04:06:58 | 01:16:14 | 00:00:00 | |
| DF7ER-10 | 2026-09-01 11:45:29 | 52.85512 | 10.73054 | 57° | 15km/h | 17848m | 4.9m/s | -48.1°C | 0.7% | 81.0hPa | 2.7V | 04:06:00 | 00:00:00 | 00:00:00 | |
| DF8AY-15 | 2026-09-01 11:45:28 | 52.85510 | 10.73050 | 53° | 18km/h | 17842m | 5.5m/s | -48.1°C | 2.8% | 81.0hPa | 2.7V | 00:00:00 | 01:16:18 | 00:00:00 | |
| AP2371 | 2026-09-01 11:45:27 | 52.85505 | 10.73042 | 29° | 16km/h | 17831m | 5.2m/s | -48.1°C | 0.6% | 81.2hPa | 2.7V | 04:06:00 | 00:00:00 | 00:00:00 | |
| TFSTFS | 2026-09-01 11:45:26 | 52.85505 | 10.73042 | 29° | 16km/h | 17831m | 5.2m/s | -48.1°C | 0.6% | 81.2hPa | 2.7V | 04:06:00 | 00:00:00 | 00:00:00 | |
| DL1XH-15 | 2026-09-01 11:45:25 | 52.85497 | 10.73036 | 22° | 20km/h | 17821m | 4.8m/s | -48.1°C | 2.8% | 81.3hPa | 2.7V | 04:06:23 | 01:16:14 | 00:00:00 | |
| HSKMA3-T | 2026-09-01 11:45:23 | 52.85492 | 10.73033 | 29° | 18km/h | 17816m | 5.9m/s | -48°C | 0% | 81.4hPa | 2.7V | 04:08:40 | 01:16:13 | 00:00:00 | |
| BIOWL1-15 | 2026-09-01 11:45:22 | 52.85488 | 10.73028 | 38° | 22km/h | 17810m | 4.9m/s | -48.1°C | 0% | 81.5hPa | 2.5V | 04:06:58 | 01:16:12 | 00:00:00 | |
| DL1XH-west | 2026-09-01 11:45:21 | 52.85463 | 10.72989 | 57° | 15km/h | 17780m | 3.7m/s | -48.1°C | 0% | 81.8hPa | 2.7V | 04:06:58 | 01:16:06 | 00:00:00 | |
| DF8AY | 2026-09-01 11:45:16 | 52.85459 | 10.72978 | 73° | 16km/h | 17770m | 5.4m/s | -48°C | 0% | 82hPa | 2.6V | 04:06:58 | 01:16:04 | 00:00:00 | |
| AA1-15 | 2026-09-01 11:45:14 | 52.85458 | 10.72971 | 75° | 18km/h | 17765m | 5m/s | -48.1°C | 0% | 82hPa | 2.6V | 04:06:58 | 01:16:03 | 00:00:00 | |
| BIOWL1-15 | 2026-09-01 11:45:11 | 52.85444 | 10.72889 | 83° | 31km/h | 17717m | 5.6m/s | -48.3°C | 0% | 82.6hPa | 2.7V | 04:06:58 | 01:15:54 | 00:00:00 | |
| DB0DAN | 2026-09-01 11:45:10 | 52.85453 | 10.72950 | 55° | 16km/h | 17749m | 4.9m/s | -48.3°C | 0.6% | 82.24hPa | 2.7V | 00:00:00 | 00:00:00 | 00:00:00 | |
| DL1XH1-15 | 2026-09-01 11:45:10 | 52.85450 | 10.72944 | 58° | 18km/h | 17744m | 4.7m/s | -48.3°C | 2.8% | 82.2hPa | 2.7V | 04:06:38 | 01:15:59 | 00:00:00 | |
| DL1XH-west | 2026-09-01 11:45:09 | 52.85446 | 10.72927 | 78° | 26km/h | 17733m | 5.4m/s | -48.3°C | 0% | 82.5hPa | 2.6V | 04:06:58 | 01:15:57 | 00:00:00 | |
| DD8BA-10 | 2026-09-01 11:45:09 | 52.85450 | 10.72944 | 59° | 29km/h | 17744m | 4.6m/s | -48.3°C | 2.8% | 82.2hPa | 2.7V | 00:00:00 | 00:00:00 | 00:00:00 | |
| DL1XH-15 | 2026-09-01 11:45:08 | 52.85443 | 10.72876 | 82° | 33km/h | 17712m | 5m/s | -48.3°C | 2.8% | 82.7hPa | 2.7V | 04:06:44 | 01:15:53 | 00:00:00 | |
| DF8AY | 2026-09-01 11:45:06 | 52.85443 | 10.72876 | 83° | 33km/h | 17712m | 5m/s | -48.3°C | 0% | 82.7hPa | 2.7V | 04:06:58 | 01:15:53 | 00:00:00 | |
| AA1-15 | 2026-09-01 11:45:03 | 52.85442 | 10.72862 | 85° | 33km/h | 17706m | 5.5m/s | -48.4°C | 0% | 82.8hPa | 2.7V | 04:06:58 | 01:15:52 | 00:00:00 | |
| BIOWL1-15 | 2026-09-01 11:45:00 | 52.85439 | 10.72800 | 78° | 24km/h | 17682m | 4.8m/s | -48.6°C | 0% | 83.1hPa | 2.7V | 04:06:58 | 01:15:47 | 00:00:00 | |
| DM0DOS-11 | 2026-09-01 11:44:59 | 52.85440 | 10.72810 | 81° | 26km/h | 17687m | 5.3m/s | -48.6°C | 2.8% | 83hPa | 2.7V | 04:06:49 | 01:15:48 | 00:00:00 | |
| DL1XH-west | 2026-09-01 11:44:59 | 52.85440 | 10.72810 | 81° | 26km/h | 17687m | 5.3m/s | -48.6°C | 0% | 83hPa | 2.7V | 04:06:58 | 01:15:48 | 00:00:00 | |
| DO2SHX-10 | 2026-09-01 11:44:59 | 52.85441 | 10.72822 | 87° | 26km/h | 17692m | 4.6m/s | -48.5°C | 2.8% | 82.9hPa | 2.7V | 00:00:00 | 01:15:49 | 00:00:00 | |
| AM1SDL-15 | 2026-09-01 11:44:57 | 52.85439 | 10.72800 | 78° | 29km/h | 17683m | 4.8m/s | -48.6°C | 2.8% | 83.0hPa | 2.7V | 00:00:00 | 01:15:47 | 00:00:00 | |
| DB0DAN | 2026-09-01 11:44:55 | 52.85437 | 10.72782 | 79° | 22km/h | 17673m | 5m/s | -48.7°C | 0.6% | 83.2hPa | 2.7V | 00:00:00 | 00:00:00 | 00:00:00 | |
| DF8AY | 2026-09-01 11:44:54 | 52.85436 | 10.72772 | 78° | 26km/h | 17668m | 3.5m/s | -48.6°C | 0% | 83.3hPa | 2.6V | 04:06:58 | 01:15:44 | 00:00:00 | |
| AA1-15 | 2026-09-01 11:44:53 | 52.85432 | 10.72751 | 71° | 27km/h | 17659m | 4.8m/s | -48.7°C | 0% | 83.4hPa | 2.6V | 04:06:58 | 01:15:42 | 00:00:00 | |
| DL3AQ-11 | 2026-09-01 11:44:52 | 52.85430 | 10.72740 | 72° | 29km/h | 17655m | 4.3m/s | -48.7°C | 0.6% | 83.5hPa | 2.7V | 00:00:00 | 00:00:00 | 00:00:00 | |
| DB0UT-7 | 2026-09-01 11:44:51 | 52.85430 | 10.72740 | 73° | 27km/h | 17655m | 4.2m/s | -48.6°C | 2.9% | 83.4hPa | 2.7V | 04:06:00 | 01:15:41 | 00:00:00 | |
| DL1XH1-15 | 2026-09-01 11:44:50 | 52.85426 | 10.72713 | 81° | 37km/h | 17645m | 4.5m/s | -48.8°C | 2.9% | 83.5hPa | 2.7V | 04:06:58 | 01:15:39 | 00:00:00 | |
| DL1XH-west | 2026-09-01 11:44:49 | 52.85426 | 10.72713 | 82° | 37km/h | 17645m | 4.5m/s | -48.8°C | 0% | 83.5hPa | 2.7V | 04:06:58 | 01:15:39 | 00:00:00 | |
| SONCRA | 2026-09-01 11:44:49 | 52.85425 | 10.72698 | 85° | 35km/h | 17641m | 3.6m/s | -48.8°C | 0.6% | 83.7hPa | 2.7V | 00:00:00 | 00:00:00 | 00:00:00 | |
| DK1YY | 2026-09-01 11:44:48 | 52.85425 | 10.72683 | 84° | 35km/h | 17636m | 5.4m/s | -48.9°C | 0.6% | 83.7hPa | 2.7V | 00:00:00 | 00:00:00 | 00:00:00 | |
| DO2SHX-10 | 2026-09-01 11:44:47 | 52.85425 | 10.72683 | 85° | 33km/h | 17637m | 5.4m/s | -48.8°C | 2.9% | 83.6hPa | 2.7V | 00:00:00 | 01:15:37 | 00:00:00 | |
| DL4BBY-15 | 2026-09-01 11:44:46 | 52.85424 | 10.72669 | 85° | 27km/h | 17631m | 4.8m/s | -47.9°C | 0% | 0hPa | 2.7V | 00:00:00 | 00:00:00 | 00:00:00 | |
| DL1XH-15 | 2026-09-01 11:44:45 | 52.85423 | 10.72633 | 88° | 26km/h | 17617m | 4.5m/s | -48.8°C | 2.9% | 83.9hPa | 2.7V | 04:07:04 | 01:15:33 | 00:00:00 | |
| S3001 | 2026-09-01 11:44:45 | 52.85423 | 10.72656 | 85° | 29km/h | 17627m | 4.8m/s | -48.9°C | 0.6% | 83.8hPa | 2.7V | 00:00:00 | 00:00:00 | 00:00:00 | |
| DF8AY | 2026-09-01 11:44:44 | 52.85422 | 10.72633 | 88° | 26km/h | 17617m | 4.5m/s | -48.8°C | 0% | 83.9hPa | 2.7V | 04:07:49 | 01:15:33 | 00:00:00 | |
| AA1-15 | 2026-09-01 11:44:42 | 52.85421 | 10.72614 | 74° | 22km/h | 17609m | 4.8m/s | -48.8°C | 0% | 84hPa | 2.7V | 04:07:49 | 01:15:31 | 00:00:00 | |
| DL1XH1-15 | 2026-09-01 11:44:41 | 52.85416 | 10.72598 | 59° | 18km/h | 17601m | 3.5m/s | -48.8°C | 2.8% | 84.2hPa | 2.6V | 04:07:08 | 01:15:29 | 00:00:00 | |
| DB0DAN | 2026-09-01 11:44:40 | 52.85419 | 10.72606 | 61° | 20km/h | 17605m | 5.1m/s | -48.8°C | 0.7% | 84.09hPa | 2.6V | 00:00:00 | 00:00:00 | 00:00:00 | |
| DM0DOS-11 | 2026-09-01 11:44:40 | 52.85415 | 10.72592 | 65° | 16km/h | 17597m | 5.1m/s | -48.8°C | 2.8% | 84.2hPa | 2.6V | 04:07:09 | 01:15:28 | 00:00:00 | |
| DL1XH-west | 2026-09-01 11:44:39 | 52.85413 | 10.72585 | 79° | 18km/h | 17592m | 4.2m/s | -48.7°C | 0% | 84.3hPa | 2.7V | 04:07:49 | 01:15:27 | 00:00:00 | |
| BIOWL1-15 | 2026-09-01 11:44:37 | 52.85412 | 10.72555 | 90° | 29km/h | 17579m | 5.7m/s | -48.8°C | 0% | 84.4hPa | 2.7V | 04:07:49 | 01:15:24 | 00:00:00 | |
| DO2SHX-10 | 2026-09-01 11:44:35 | 52.85412 | 10.72567 | 88° | 29km/h | 17585m | 5.6m/s | -48.8°C | 2.8% | 84.3hPa | 2.7V | 00:00:00 | 01:15:25 | 00:00:00 | |
| DM0DOS-11 | 2026-09-01 11:44:33 | 52.85414 | 10.72483 | 87° | 27km/h | 17553m | 5.4m/s | -49°C | 2.9% | 84.9hPa | 2.7V | 04:07:19 | 01:15:18 | 00:00:00 | |
| DF8AY | 2026-09-01 11:44:33 | 52.85412 | 10.72529 | 91° | 31km/h | 17571m | 4.1m/s | -49°C | 0% | 84.6hPa | 2.6V | 04:07:49 | 01:15:22 | 00:00:00 | |
| AA1-15 | 2026-09-01 11:44:32 | 52.85413 | 10.72516 | 96° | 29km/h | 17567m | 5.9m/s | -49°C | 0% | 84.7hPa | 2.6V | 04:07:49 | 01:15:21 | 00:00:00 | |
| DL1XH1-15 | 2026-09-01 11:44:30 | 52.85414 | 10.72494 | 91° | 26km/h | 17558m | 3.9m/s | -49°C | 2.9% | 84.8hPa | 2.7V | 04:07:18 | 01:15:19 | 00:00:00 | |
| Es werden nur die letzten 3500 von 6046 Frames angezeigt. GPX/KML und Diagramme bleiben verfügbar. | |||||||||||||||